﻿<?xml version="1.0" encoding="utf-8"?><gpx creator="Garmin Desktop App" version="1.1" xsi:schemaLocation="http://www.topografix.com/GPX/1/1 http://www.topografix.com/GPX/1/1/gpx.xsd http://www.garmin.com/xmlschemas/WaypointExtension/v1 http://www8.garmin.com/xmlschemas/WaypointExtensionv1.xsd http://www.garmin.com/xmlschemas/TrackPointExtension/v1 http://www.garmin.com/xmlschemas/TrackPointExtensionv1.xsd http://www.garmin.com/xmlschemas/GpxExtensions/v3 http://www8.garmin.com/xmlschemas/GpxExtensionsv3.xsd http://www.garmin.com/xmlschemas/ActivityExtension/v1 http://www8.garmin.com/xmlschemas/ActivityExtensionv1.xsd http://www.garmin.com/xmlschemas/AdventuresExtensions/v1 http://www8.garmin.com/xmlschemas/AdventuresExtensionv1.xsd http://www.garmin.com/xmlschemas/PressureExtension/v1 http://www.garmin.com/xmlschemas/PressureExtensionv1.xsd http://www.garmin.com/xmlschemas/TripExtensions/v1 http://www.garmin.com/xmlschemas/TripExtensionsv1.xsd http://www.garmin.com/xmlschemas/TripMetaDataExtensions/v1 http://www.garmin.com/xmlschemas/TripMetaDataExtensionsv1.xsd http://www.garmin.com/xmlschemas/ViaPointTransportationModeExtensions/v1 http://www.garmin.com/xmlschemas/ViaPointTransportationModeExtensionsv1.xsd http://www.garmin.com/xmlschemas/CreationTimeExtension/v1 http://www.garmin.com/xmlschemas/CreationTimeExtensionsv1.xsd http://www.garmin.com/xmlschemas/AccelerationExtension/v1 http://www.garmin.com/xmlschemas/AccelerationExtensionv1.xsd http://www.garmin.com/xmlschemas/PowerExtension/v1 http://www.garmin.com/xmlschemas/PowerExtensionv1.xsd http://www.garmin.com/xmlschemas/VideoExtension/v1 http://www.garmin.com/xmlschemas/VideoExtensionv1.xsd" xmlns="http://www.topografix.com/GPX/1/1" xmlns:xsi="http://www.w3.org/2001/XMLSchema-instance" xmlns:wptx1="http://www.garmin.com/xmlschemas/WaypointExtension/v1" xmlns:gpxtrx="http://www.garmin.com/xmlschemas/GpxExtensions/v3" xmlns:gpxtpx="http://www.garmin.com/xmlschemas/TrackPointExtension/v1" xmlns:gpxx="http://www.garmin.com/xmlschemas/GpxExtensions/v3" xmlns:trp="http://www.garmin.com/xmlschemas/TripExtensions/v1" xmlns:adv="http://www.garmin.com/xmlschemas/AdventuresExtensions/v1" xmlns:prs="http://www.garmin.com/xmlschemas/PressureExtension/v1" xmlns:tmd="http://www.garmin.com/xmlschemas/TripMetaDataExtensions/v1" xmlns:vptm="http://www.garmin.com/xmlschemas/ViaPointTransportationModeExtensions/v1" xmlns:ctx="http://www.garmin.com/xmlschemas/CreationTimeExtension/v1" xmlns:gpxacc="http://www.garmin.com/xmlschemas/AccelerationExtension/v1" xmlns:gpxpx="http://www.garmin.com/xmlschemas/PowerExtension/v1" xmlns:vidx1="http://www.garmin.com/xmlschemas/VideoExtension/v1">

  <metadata>
    <link href="http://www.garmin.com">
      <text>Garmin International</text>
    </link>
    <time>2025-07-20T04:09:08Z</time>
    <bounds maxlat="42.716826824471354" maxlon="1.538254413753748" minlat="42.577954446896911" minlon="1.378882583230734" />
  </metadata>

  <trk>
    <name>1trek-pirenei2025-07-13</name>
    <extensions>
      <gpxx:TrackExtension>
        <gpxx:DisplayColor>Red</gpxx:DisplayColor>
      </gpxx:TrackExtension>
      <gpxtrkx:TrackStatsExtension xmlns:gpxtrkx="http://www.garmin.com/xmlschemas/TrackStatsExtension/v1">
        <gpxtrkx:Distance>12457</gpxtrkx:Distance>
        <gpxtrkx:TotalElapsedTime>27549</gpxtrkx:TotalElapsedTime>
        <gpxtrkx:MovingTime>17803</gpxtrkx:MovingTime>
        <gpxtrkx:StoppedTime>9735</gpxtrkx:StoppedTime>
        <gpxtrkx:MovingSpeed>0.7</gpxtrkx:MovingSpeed>
        <gpxtrkx:MaxSpeed>3.342</gpxtrkx:MaxSpeed>
        <gpxtrkx:MaxElevation>2682.172</gpxtrkx:MaxElevation>
        <gpxtrkx:MinElevation>1538.745</gpxtrkx:MinElevation>
        <gpxtrkx:Ascent>1262</gpxtrkx:Ascent>
        <gpxtrkx:Descent>378.278</gpxtrkx:Descent>
        <gpxtrkx:AvgAscentRate>0.062</gpxtrkx:AvgAscentRate>
        <gpxtrkx:MaxAscentRate>0.346</gpxtrkx:MaxAscentRate>
        <gpxtrkx:AvgDescentRate>0.04</gpxtrkx:AvgDescentRate>
        <gpxtrkx:MaxDescentRate>-0.32</gpxtrkx:MaxDescentRate>
      </gpxtrkx:TrackStatsExtension>
    </extensions>
    <trkseg>
      <trkpt lat="42.619118308648467" lon="1.538011087104678">
        <ele>1558.6900000000001</ele>
        <time>2025-07-13T07:18:13Z</time>
      </trkpt>
      <trkpt lat="42.619074303656816" lon="1.53789977543056">
        <ele>1558.73</ele>
        <time>2025-07-13T07:18:25Z</time>
      </trkpt>
      <trkpt lat="42.618989478796721" lon="1.537841185927391">
        <ele>1557.3599999999999</ele>
        <time>2025-07-13T07:18:36Z</time>
      </trkpt>
      <trkpt lat="42.61890490539372" lon="1.537900865077972">
        <ele>1555.4100000000001</ele>
        <time>2025-07-13T07:18:47Z</time>
      </trkpt>
      <trkpt lat="42.618840783834457" lon="1.53799164108932">
        <ele>1554.9200000000001</ele>
        <time>2025-07-13T07:18:56Z</time>
      </trkpt>
      <trkpt lat="42.61877934448421" lon="1.538094822317362">
        <ele>1554.6199999999999</ele>
        <time>2025-07-13T07:19:05Z</time>
      </trkpt>
      <trkpt lat="42.618712959811091" lon="1.538184341043234">
        <ele>1554.03</ele>
        <time>2025-07-13T07:19:14Z</time>
      </trkpt>
      <trkpt lat="42.618622351437807" lon="1.538233123719692">
        <ele>1553</ele>
        <time>2025-07-13T07:19:23Z</time>
      </trkpt>
      <trkpt lat="42.618526797741652" lon="1.538254413753748">
        <ele>1551.8800000000001</ele>
        <time>2025-07-13T07:19:32Z</time>
      </trkpt>
      <trkpt lat="42.618435183539987" lon="1.538225999101996">
        <ele>1551.29</ele>
        <time>2025-07-13T07:19:41Z</time>
      </trkpt>
      <trkpt lat="42.618404841050506" lon="1.538096414878964">
        <ele>1550.4200000000001</ele>
        <time>2025-07-13T07:19:50Z</time>
      </trkpt>
      <trkpt lat="42.618412217125297" lon="1.537963142618537">
        <ele>1549.72</ele>
        <time>2025-07-13T07:19:59Z</time>
      </trkpt>
      <trkpt lat="42.618432668969035" lon="1.537833390757442">
        <ele>1548.4100000000001</ele>
        <time>2025-07-13T07:20:08Z</time>
      </trkpt>
      <trkpt lat="42.618466699495912" lon="1.537714032456279">
        <ele>1547.5999999999999</ele>
        <time>2025-07-13T07:20:17Z</time>
      </trkpt>
      <trkpt lat="42.618514141067863" lon="1.537598446011543">
        <ele>1546.77</ele>
        <time>2025-07-13T07:20:26Z</time>
      </trkpt>
      <trkpt lat="42.61858144775033" lon="1.537511106580496">
        <ele>1545.96</ele>
        <time>2025-07-13T07:20:34Z</time>
      </trkpt>
      <trkpt lat="42.618641797453165" lon="1.537414630874991">
        <ele>1545.1600000000001</ele>
        <time>2025-07-13T07:20:43Z</time>
      </trkpt>
      <trkpt lat="42.618685131892562" lon="1.53730315156281">
        <ele>1544.47</ele>
        <time>2025-07-13T07:20:52Z</time>
      </trkpt>
      <trkpt lat="42.618742296472192" lon="1.537204245105386">
        <ele>1543.8199999999999</ele>
        <time>2025-07-13T07:21:01Z</time>
      </trkpt>
      <trkpt lat="42.618778003379703" lon="1.537088993936777">
        <ele>1543.3900000000001</ele>
        <time>2025-07-13T07:21:09Z</time>
      </trkpt>
      <trkpt lat="42.618788313120604" lon="1.536959744989872">
        <ele>1542.75</ele>
        <time>2025-07-13T07:21:18Z</time>
      </trkpt>
      <trkpt lat="42.618734668940306" lon="1.536855222657323">
        <ele>1541.5699999999999</ele>
        <time>2025-07-13T07:21:28Z</time>
      </trkpt>
      <trkpt lat="42.618668284267187" lon="1.536780539900065">
        <ele>1540.72</ele>
        <time>2025-07-13T07:21:37Z</time>
      </trkpt>
      <trkpt lat="42.618671385571361" lon="1.536766458302736">
        <ele>1540.4300000000001</ele>
        <time>2025-07-13T07:23:05Z</time>
      </trkpt>
      <trkpt lat="42.618731316179037" lon="1.536665624007583">
        <ele>1541.1400000000001</ele>
        <time>2025-07-13T07:23:14Z</time>
      </trkpt>
      <trkpt lat="42.618806250393391" lon="1.536571411415935">
        <ele>1541.71</ele>
        <time>2025-07-13T07:23:24Z</time>
      </trkpt>
      <trkpt lat="42.618874814361334" lon="1.536481892690063">
        <ele>1542.3299999999999</ele>
        <time>2025-07-13T07:23:33Z</time>
      </trkpt>
      <trkpt lat="42.618953185155988" lon="1.536397403106093">
        <ele>1543.0899999999999</ele>
        <time>2025-07-13T07:23:42Z</time>
      </trkpt>
      <trkpt lat="42.619024012237787" lon="1.536312662065029">
        <ele>1543.49</ele>
        <time>2025-07-13T07:23:51Z</time>
      </trkpt>
      <trkpt lat="42.619092408567667" lon="1.536224316805601">
        <ele>1544.23</ele>
        <time>2025-07-13T07:24:01Z</time>
      </trkpt>
      <trkpt lat="42.619171449914575" lon="1.536146951839328">
        <ele>1544.78</ele>
        <time>2025-07-13T07:24:11Z</time>
      </trkpt>
      <trkpt lat="42.619234481826425" lon="1.536060869693756">
        <ele>1545.3399999999999</ele>
        <time>2025-07-13T07:24:20Z</time>
      </trkpt>
      <trkpt lat="42.619319222867489" lon="1.535990545526147">
        <ele>1545.9100000000001</ele>
        <time>2025-07-13T07:24:30Z</time>
      </trkpt>
      <trkpt lat="42.619390217587352" lon="1.535912174731493">
        <ele>1546.7</ele>
        <time>2025-07-13T07:24:40Z</time>
      </trkpt>
      <trkpt lat="42.619460877031088" lon="1.535829193890095">
        <ele>1547.26</ele>
        <time>2025-07-13T07:24:50Z</time>
      </trkpt>
      <trkpt lat="42.619525752961636" lon="1.535743195563555">
        <ele>1547.9300000000001</ele>
        <time>2025-07-13T07:25:00Z</time>
      </trkpt>
      <trkpt lat="42.619587779045105" lon="1.535646803677082">
        <ele>1548.97</ele>
        <time>2025-07-13T07:25:11Z</time>
      </trkpt>
      <trkpt lat="42.619658941403031" lon="1.535561308264732">
        <ele>1550.01</ele>
        <time>2025-07-13T07:25:22Z</time>
      </trkpt>
      <trkpt lat="42.619733288884163" lon="1.535477405413985">
        <ele>1551.25</ele>
        <time>2025-07-13T07:25:33Z</time>
      </trkpt>
      <trkpt lat="42.619804535061121" lon="1.535389563068748">
        <ele>1552.21</ele>
        <time>2025-07-13T07:25:44Z</time>
      </trkpt>
      <trkpt lat="42.61986656114459" lon="1.535295769572258">
        <ele>1553.7</ele>
        <time>2025-07-13T07:25:56Z</time>
      </trkpt>
      <trkpt lat="42.619934035465121" lon="1.535198204219341">
        <ele>1554.6500000000001</ele>
        <time>2025-07-13T07:26:08Z</time>
      </trkpt>
      <trkpt lat="42.619990864768624" lon="1.535099297761917">
        <ele>1555.6600000000001</ele>
        <time>2025-07-13T07:26:19Z</time>
      </trkpt>
      <trkpt lat="42.620064876973629" lon="1.535000475123525">
        <ele>1556.8900000000001</ele>
        <time>2025-07-13T07:26:31Z</time>
      </trkpt>
      <trkpt lat="42.620127741247416" lon="1.534913387149572">
        <ele>1557.9100000000001</ele>
        <time>2025-07-13T07:26:42Z</time>
      </trkpt>
      <trkpt lat="42.62019538320601" lon="1.534826550632715">
        <ele>1559.04</ele>
        <time>2025-07-13T07:26:54Z</time>
      </trkpt>
      <trkpt lat="42.620254894718528" lon="1.534734768792987">
        <ele>1560.1900000000001</ele>
        <time>2025-07-13T07:27:05Z</time>
      </trkpt>
      <trkpt lat="42.620319770649076" lon="1.534635107964277">
        <ele>1561.45</ele>
        <time>2025-07-13T07:27:17Z</time>
      </trkpt>
      <trkpt lat="42.620387831702828" lon="1.534531926736236">
        <ele>1562.78</ele>
        <time>2025-07-13T07:27:29Z</time>
      </trkpt>
      <trkpt lat="42.620447846129537" lon="1.53443100862205">
        <ele>1564.04</ele>
        <time>2025-07-13T07:27:41Z</time>
      </trkpt>
      <trkpt lat="42.620500903576612" lon="1.534324642270804">
        <ele>1565.05</ele>
        <time>2025-07-13T07:27:52Z</time>
      </trkpt>
      <trkpt lat="42.620542477816343" lon="1.534215677529573">
        <ele>1566.6199999999999</ele>
        <time>2025-07-13T07:28:03Z</time>
      </trkpt>
      <trkpt lat="42.620591428130865" lon="1.534108724445105">
        <ele>1567.8499999999999</ele>
        <time>2025-07-13T07:28:15Z</time>
      </trkpt>
      <trkpt lat="42.620641635730863" lon="1.533999508246779">
        <ele>1569.1300000000001</ele>
        <time>2025-07-13T07:28:26Z</time>
      </trkpt>
      <trkpt lat="42.620689915493131" lon="1.533885430544615">
        <ele>1570.26</ele>
        <time>2025-07-13T07:28:37Z</time>
      </trkpt>
      <trkpt lat="42.620741296559572" lon="1.533775124698877">
        <ele>1571.3599999999999</ele>
        <time>2025-07-13T07:28:49Z</time>
      </trkpt>
      <trkpt lat="42.620784714818001" lon="1.533815776929259">
        <ele>1572.5899999999999</ele>
        <time>2025-07-13T07:30:06Z</time>
      </trkpt>
      <trkpt lat="42.620765101164579" lon="1.533800270408392">
        <ele>1573.54</ele>
        <time>2025-07-13T07:31:55Z</time>
      </trkpt>
      <trkpt lat="42.620793599635363" lon="1.533817872405052">
        <ele>1573.5899999999999</ele>
        <time>2025-07-13T07:32:58Z</time>
      </trkpt>
      <trkpt lat="42.620850680395961" lon="1.533698933199048">
        <ele>1574.6400000000001</ele>
        <time>2025-07-13T07:33:26Z</time>
      </trkpt>
      <trkpt lat="42.620901893824339" lon="1.533588543534279">
        <ele>1576.28</ele>
        <time>2025-07-13T07:33:39Z</time>
      </trkpt>
      <trkpt lat="42.620960483327508" lon="1.533494582399726">
        <ele>1577.4200000000001</ele>
        <time>2025-07-13T07:33:50Z</time>
      </trkpt>
      <trkpt lat="42.621013205498457" lon="1.533384611830115">
        <ele>1578.47</ele>
        <time>2025-07-13T07:34:01Z</time>
      </trkpt>
      <trkpt lat="42.621063496917486" lon="1.533281598240137">
        <ele>1579.95</ele>
        <time>2025-07-13T07:34:24Z</time>
      </trkpt>
      <trkpt lat="42.621105154976249" lon="1.533159809187055">
        <ele>1580.99</ele>
        <time>2025-07-13T07:34:36Z</time>
      </trkpt>
      <trkpt lat="42.621160056442022" lon="1.533043887466192">
        <ele>1582.3</ele>
        <time>2025-07-13T07:34:48Z</time>
      </trkpt>
      <trkpt lat="42.621211521327496" lon="1.532925954088569">
        <ele>1583.47</ele>
        <time>2025-07-13T07:35:00Z</time>
      </trkpt>
      <trkpt lat="42.621260639280081" lon="1.532806931063533">
        <ele>1584.99</ele>
        <time>2025-07-13T07:35:13Z</time>
      </trkpt>
      <trkpt lat="42.621318390592933" lon="1.532701486721635">
        <ele>1586.1900000000001</ele>
        <time>2025-07-13T07:35:25Z</time>
      </trkpt>
      <trkpt lat="42.621375303715467" lon="1.532589420676231">
        <ele>1586.8099999999999</ele>
        <time>2025-07-13T07:35:36Z</time>
      </trkpt>
      <trkpt lat="42.621423499658704" lon="1.532472157850862">
        <ele>1588.05</ele>
        <time>2025-07-13T07:35:46Z</time>
      </trkpt>
      <trkpt lat="42.621464319527149" lon="1.532360929995775">
        <ele>1588.73</ele>
        <time>2025-07-13T07:35:56Z</time>
      </trkpt>
      <trkpt lat="42.621494242921472" lon="1.532235872000456">
        <ele>1589.1800000000001</ele>
        <time>2025-07-13T07:36:07Z</time>
      </trkpt>
      <trkpt lat="42.621534308418632" lon="1.532121626660228">
        <ele>1589.77</ele>
        <time>2025-07-13T07:36:17Z</time>
      </trkpt>
      <trkpt lat="42.62156113050878" lon="1.531999837607145">
        <ele>1590.3</ele>
        <time>2025-07-13T07:36:27Z</time>
      </trkpt>
      <trkpt lat="42.621587533503771" lon="1.531878132373095">
        <ele>1590.7</ele>
        <time>2025-07-13T07:36:37Z</time>
      </trkpt>
      <trkpt lat="42.621612846851349" lon="1.531751900911331">
        <ele>1591.23</ele>
        <time>2025-07-13T07:36:47Z</time>
      </trkpt>
      <trkpt lat="42.621639333665371" lon="1.531636063009501">
        <ele>1591.55</ele>
        <time>2025-07-13T07:37:01Z</time>
      </trkpt>
      <trkpt lat="42.621640507131815" lon="1.531526427716017">
        <ele>1590.77</ele>
        <time>2025-07-13T07:37:42Z</time>
      </trkpt>
      <trkpt lat="42.621665066108108" lon="1.531406901776791">
        <ele>1591.8299999999999</ele>
        <time>2025-07-13T07:38:06Z</time>
      </trkpt>
      <trkpt lat="42.621688870713115" lon="1.531280670315027">
        <ele>1593.5799999999999</ele>
        <time>2025-07-13T07:38:21Z</time>
      </trkpt>
      <trkpt lat="42.621745280921459" lon="1.531094005331397">
        <ele>1596.04</ele>
        <time>2025-07-13T07:38:37Z</time>
      </trkpt>
      <trkpt lat="42.621752824634314" lon="1.530968276783824">
        <ele>1595.9000000000001</ele>
        <time>2025-07-13T07:38:54Z</time>
      </trkpt>
      <trkpt lat="42.621705802157521" lon="1.530870292335749">
        <ele>1595.98</ele>
        <time>2025-07-13T07:39:25Z</time>
      </trkpt>
      <trkpt lat="42.621764978393912" lon="1.530736517161131">
        <ele>1599.0899999999999</ele>
        <time>2025-07-13T07:39:44Z</time>
      </trkpt>
      <trkpt lat="42.621736982837319" lon="1.530588157474995">
        <ele>1601.6800000000001</ele>
        <time>2025-07-13T07:40:05Z</time>
      </trkpt>
      <trkpt lat="42.621733462437987" lon="1.53046578168869">
        <ele>1603.47</ele>
        <time>2025-07-13T07:40:27Z</time>
      </trkpt>
      <trkpt lat="42.621811414137483" lon="1.530364276841283">
        <ele>1605.7</ele>
        <time>2025-07-13T07:40:46Z</time>
      </trkpt>
      <trkpt lat="42.621915685012937" lon="1.530309207737446">
        <ele>1606.53</ele>
        <time>2025-07-13T07:41:03Z</time>
      </trkpt>
      <trkpt lat="42.622040575370193" lon="1.530231172218919">
        <ele>1608.4000000000001</ele>
        <time>2025-07-13T07:41:21Z</time>
      </trkpt>
      <trkpt lat="42.622063877061009" lon="1.530113909393549">
        <ele>1611.3299999999999</ele>
        <time>2025-07-13T07:41:41Z</time>
      </trkpt>
      <trkpt lat="42.622043257579207" lon="1.530007962137461">
        <ele>1612.7</ele>
        <time>2025-07-13T07:42:00Z</time>
      </trkpt>
      <trkpt lat="42.622086927294731" lon="1.529918694868684">
        <ele>1615.8399999999999</ele>
        <time>2025-07-13T07:42:21Z</time>
      </trkpt>
      <trkpt lat="42.62207267805934" lon="1.529801934957504">
        <ele>1618.1700000000001</ele>
        <time>2025-07-13T07:42:43Z</time>
      </trkpt>
      <trkpt lat="42.622009729966521" lon="1.529696239158511">
        <ele>1621.4300000000001</ele>
        <time>2025-07-13T07:43:09Z</time>
      </trkpt>
      <trkpt lat="42.621941668912768" lon="1.529620634391904">
        <ele>1624.98</ele>
        <time>2025-07-13T07:43:34Z</time>
      </trkpt>
      <trkpt lat="42.621868159621954" lon="1.529568415135145">
        <ele>1627.3199999999999</ele>
        <time>2025-07-13T07:43:52Z</time>
      </trkpt>
      <trkpt lat="42.621843097731471" lon="1.529501779004931">
        <ele>1628.8900000000001</ele>
        <time>2025-07-13T07:44:17Z</time>
      </trkpt>
      <trkpt lat="42.621750477701426" lon="1.529523152858019">
        <ele>1631.1700000000001</ele>
        <time>2025-07-13T07:44:42Z</time>
      </trkpt>
      <trkpt lat="42.621728181838989" lon="1.529449056833983">
        <ele>1634.24</ele>
        <time>2025-07-13T07:45:07Z</time>
      </trkpt>
      <trkpt lat="42.621756261214614" lon="1.529333805665374">
        <ele>1637.1400000000001</ele>
        <time>2025-07-13T07:45:27Z</time>
      </trkpt>
      <trkpt lat="42.621801104396582" lon="1.529242023825645">
        <ele>1638.45</ele>
        <time>2025-07-13T07:45:44Z</time>
      </trkpt>
      <trkpt lat="42.621802361682057" lon="1.529150241985917">
        <ele>1640.29</ele>
        <time>2025-07-13T07:46:09Z</time>
      </trkpt>
      <trkpt lat="42.621758272871375" lon="1.529093328863382">
        <ele>1641.3499999999999</ele>
        <time>2025-07-13T07:46:35Z</time>
      </trkpt>
      <trkpt lat="42.621778976172209" lon="1.528982017189264">
        <ele>1644.23</ele>
        <time>2025-07-13T07:46:54Z</time>
      </trkpt>
      <trkpt lat="42.621829602867365" lon="1.528885709121823">
        <ele>1646.05</ele>
        <time>2025-07-13T07:47:09Z</time>
      </trkpt>
      <trkpt lat="42.621827507391572" lon="1.528778756037355">
        <ele>1649</ele>
        <time>2025-07-13T07:47:36Z</time>
      </trkpt>
      <trkpt lat="42.621838320046663" lon="1.528668953105807">
        <ele>1652.1900000000001</ele>
        <time>2025-07-13T07:47:57Z</time>
      </trkpt>
      <trkpt lat="42.621871428564191" lon="1.528562000021339">
        <ele>1654.52</ele>
        <time>2025-07-13T07:48:21Z</time>
      </trkpt>
      <trkpt lat="42.621900010854006" lon="1.528426799923182">
        <ele>1656.5799999999999</ele>
        <time>2025-07-13T07:48:42Z</time>
      </trkpt>
      <trkpt lat="42.621936053037643" lon="1.52832705527544">
        <ele>1659.1199999999999</ele>
        <time>2025-07-13T07:49:03Z</time>
      </trkpt>
      <trkpt lat="42.621969077736139" lon="1.528190430253744">
        <ele>1660.4000000000001</ele>
        <time>2025-07-13T07:49:21Z</time>
      </trkpt>
      <trkpt lat="42.622024565935135" lon="1.528059840202332">
        <ele>1662.22</ele>
        <time>2025-07-13T07:49:39Z</time>
      </trkpt>
      <trkpt lat="42.622075527906418" lon="1.527925981208682">
        <ele>1664.8900000000001</ele>
        <time>2025-07-13T07:50:01Z</time>
      </trkpt>
      <trkpt lat="42.622079467400908" lon="1.52776756323874">
        <ele>1666.71</ele>
        <time>2025-07-13T07:50:22Z</time>
      </trkpt>
      <trkpt lat="42.622132021933794" lon="1.527685336768627">
        <ele>1667.73</ele>
        <time>2025-07-13T07:50:39Z</time>
      </trkpt>
      <trkpt lat="42.622185917571187" lon="1.527590285986662">
        <ele>1669.99</ele>
        <time>2025-07-13T07:50:58Z</time>
      </trkpt>
      <trkpt lat="42.622245261445642" lon="1.527438992634416">
        <ele>1671.1500000000001</ele>
        <time>2025-07-13T07:51:16Z</time>
      </trkpt>
      <trkpt lat="42.622305024415255" lon="1.527336314320564">
        <ele>1673.0999999999999</ele>
        <time>2025-07-13T07:51:39Z</time>
      </trkpt>
      <trkpt lat="42.622348442673683" lon="1.527322484180331">
        <ele>1675.6400000000001</ele>
        <time>2025-07-13T07:52:01Z</time>
      </trkpt>
      <trkpt lat="42.62241767719388" lon="1.527321226894856">
        <ele>1678.95</ele>
        <time>2025-07-13T07:52:29Z</time>
      </trkpt>
      <trkpt lat="42.622458497062325" lon="1.527267834171653">
        <ele>1681.95</ele>
        <time>2025-07-13T07:52:49Z</time>
      </trkpt>
      <trkpt lat="42.622515494003892" lon="1.52718611061573">
        <ele>1683.52</ele>
        <time>2025-07-13T07:53:07Z</time>
      </trkpt>
      <trkpt lat="42.622578609734774" lon="1.527175884693861">
        <ele>1686.5599999999999</ele>
        <time>2025-07-13T07:53:37Z</time>
      </trkpt>
      <trkpt lat="42.622625716030598" lon="1.527126515284181">
        <ele>1690.26</ele>
        <time>2025-07-13T07:54:03Z</time>
      </trkpt>
      <trkpt lat="42.622715150937438" lon="1.527076726779342">
        <ele>1692.8499999999999</ele>
        <time>2025-07-13T07:54:23Z</time>
      </trkpt>
      <trkpt lat="42.622790168970823" lon="1.527055855840445">
        <ele>1695.54</ele>
        <time>2025-07-13T07:54:48Z</time>
      </trkpt>
      <trkpt lat="42.622918160632253" lon="1.5270028822124">
        <ele>1697.9300000000001</ele>
        <time>2025-07-13T07:55:09Z</time>
      </trkpt>
      <trkpt lat="42.622973648831248" lon="1.526999529451132">
        <ele>1702.2</ele>
        <time>2025-07-13T07:55:43Z</time>
      </trkpt>
      <trkpt lat="42.623047158122063" lon="1.526941191405058">
        <ele>1705.77</ele>
        <time>2025-07-13T07:56:08Z</time>
      </trkpt>
      <trkpt lat="42.62315209954977" lon="1.526876902207732">
        <ele>1708.97</ele>
        <time>2025-07-13T07:56:32Z</time>
      </trkpt>
      <trkpt lat="42.623252430930734" lon="1.526845134794712">
        <ele>1712.0699999999999</ele>
        <time>2025-07-13T07:56:54Z</time>
      </trkpt>
      <trkpt lat="42.623334908857942" lon="1.526778917759657">
        <ele>1714.6500000000001</ele>
        <time>2025-07-13T07:57:21Z</time>
      </trkpt>
      <trkpt lat="42.623338093981147" lon="1.526776487007737">
        <ele>1713.4100000000001</ele>
        <time>2025-07-13T07:57:43Z</time>
      </trkpt>
      <trkpt lat="42.623451920226216" lon="1.526754777878523">
        <ele>1712.97</ele>
        <time>2025-07-13T07:58:21Z</time>
      </trkpt>
      <trkpt lat="42.623481089249253" lon="1.526695769280195">
        <ele>1712.47</ele>
        <time>2025-07-13T07:59:36Z</time>
      </trkpt>
      <trkpt lat="42.623422415927052" lon="1.526667270809412">
        <ele>1712.1900000000001</ele>
        <time>2025-07-13T08:00:33Z</time>
      </trkpt>
      <trkpt lat="42.623424427583814" lon="1.526697697117925">
        <ele>1712.3599999999999</ele>
        <time>2025-07-13T08:01:49Z</time>
      </trkpt>
      <trkpt lat="42.623410513624549" lon="1.52665302157402">
        <ele>1713.1199999999999</ele>
        <time>2025-07-13T08:02:45Z</time>
      </trkpt>
      <trkpt lat="42.623507408425212" lon="1.526637766510248">
        <ele>1716.0599999999999</ele>
        <time>2025-07-13T08:03:02Z</time>
      </trkpt>
      <trkpt lat="42.62358795851469" lon="1.526532238349319">
        <ele>1718.5</ele>
        <time>2025-07-13T08:03:19Z</time>
      </trkpt>
      <trkpt lat="42.623733803629875" lon="1.526438361033797">
        <ele>1720.1099999999999</ele>
        <time>2025-07-13T08:03:37Z</time>
      </trkpt>
      <trkpt lat="42.623833045363426" lon="1.52632512152195">
        <ele>1720.78</ele>
        <time>2025-07-13T08:03:50Z</time>
      </trkpt>
      <trkpt lat="42.623978806659579" lon="1.526197213679552">
        <ele>1722.7</ele>
        <time>2025-07-13T08:04:05Z</time>
      </trkpt>
      <trkpt lat="42.624092632904649" lon="1.526046674698591">
        <ele>1723.3900000000001</ele>
        <time>2025-07-13T08:04:19Z</time>
      </trkpt>
      <trkpt lat="42.62418407946825" lon="1.526009207591415">
        <ele>1721.9300000000001</ele>
        <time>2025-07-13T08:04:32Z</time>
      </trkpt>
      <trkpt lat="42.624285919591784" lon="1.526033096015453">
        <ele>1721.05</ele>
        <time>2025-07-13T08:04:45Z</time>
      </trkpt>
      <trkpt lat="42.624442577362061" lon="1.526002082973719">
        <ele>1718.54</ele>
        <time>2025-07-13T08:05:00Z</time>
      </trkpt>
      <trkpt lat="42.624533353373408" lon="1.525912815704942">
        <ele>1716.22</ele>
        <time>2025-07-13T08:05:12Z</time>
      </trkpt>
      <trkpt lat="42.624615076929331" lon="1.525835283100605">
        <ele>1714.04</ele>
        <time>2025-07-13T08:05:24Z</time>
      </trkpt>
      <trkpt lat="42.624707948416471" lon="1.525856489315629">
        <ele>1711.5699999999999</ele>
        <time>2025-07-13T08:05:36Z</time>
      </trkpt>
      <trkpt lat="42.624828983098269" lon="1.525908708572388">
        <ele>1708.72</ele>
        <time>2025-07-13T08:05:49Z</time>
      </trkpt>
      <trkpt lat="42.624936187639832" lon="1.525923209264875">
        <ele>1707.1500000000001</ele>
        <time>2025-07-13T08:05:59Z</time>
      </trkpt>
      <trkpt lat="42.62504599057138" lon="1.525983810424805">
        <ele>1707.75</ele>
        <time>2025-07-13T08:06:08Z</time>
      </trkpt>
      <trkpt lat="42.625151267275214" lon="1.525949025526643">
        <ele>1708.3</ele>
        <time>2025-07-13T08:06:20Z</time>
      </trkpt>
      <trkpt lat="42.625249922275543" lon="1.52587266638875">
        <ele>1707.9300000000001</ele>
        <time>2025-07-13T08:06:30Z</time>
      </trkpt>
      <trkpt lat="42.625336674973369" lon="1.525788931176066">
        <ele>1707.8099999999999</ele>
        <time>2025-07-13T08:06:38Z</time>
      </trkpt>
      <trkpt lat="42.625426528975368" lon="1.525697903707624">
        <ele>1707.8199999999999</ele>
        <time>2025-07-13T08:06:46Z</time>
      </trkpt>
      <trkpt lat="42.625496936962008" lon="1.525612743571401">
        <ele>1707.3499999999999</ele>
        <time>2025-07-13T08:06:55Z</time>
      </trkpt>
      <trkpt lat="42.62559718452394" lon="1.525529259815812">
        <ele>1707.1400000000001</ele>
        <time>2025-07-13T08:07:03Z</time>
      </trkpt>
      <trkpt lat="42.625694666057825" lon="1.525466646999121">
        <ele>1707.02</ele>
        <time>2025-07-13T08:07:14Z</time>
      </trkpt>
      <trkpt lat="42.625774294137955" lon="1.525407806038857">
        <ele>1706.5</ele>
        <time>2025-07-13T08:07:25Z</time>
      </trkpt>
      <trkpt lat="42.625909661874175" lon="1.52533027343452">
        <ele>1706.04</ele>
        <time>2025-07-13T08:07:34Z</time>
      </trkpt>
      <trkpt lat="42.625940926373005" lon="1.525310911238194">
        <ele>1705.5599999999999</ele>
        <time>2025-07-13T08:08:09Z</time>
      </trkpt>
      <trkpt lat="42.625965820625424" lon="1.525196917355061">
        <ele>1705.24</ele>
        <time>2025-07-13T08:10:35Z</time>
      </trkpt>
      <trkpt lat="42.626025415956974" lon="1.525098765268922">
        <ele>1705.04</ele>
        <time>2025-07-13T08:10:46Z</time>
      </trkpt>
      <trkpt lat="42.626074030995369" lon="1.524992818012834">
        <ele>1704.6800000000001</ele>
        <time>2025-07-13T08:10:57Z</time>
      </trkpt>
      <trkpt lat="42.626124573871493" lon="1.524870777502656">
        <ele>1704.1199999999999</ele>
        <time>2025-07-13T08:11:07Z</time>
      </trkpt>
      <trkpt lat="42.626178301870823" lon="1.524768434464932">
        <ele>1704.0699999999999</ele>
        <time>2025-07-13T08:11:15Z</time>
      </trkpt>
      <trkpt lat="42.626236891373992" lon="1.524669444188476">
        <ele>1704.9300000000001</ele>
        <time>2025-07-13T08:11:25Z</time>
      </trkpt>
      <trkpt lat="42.626294139772654" lon="1.524569196626544">
        <ele>1706.2</ele>
        <time>2025-07-13T08:11:37Z</time>
      </trkpt>
      <trkpt lat="42.626355243846774" lon="1.524461321532726">
        <ele>1708.27</ele>
        <time>2025-07-13T08:11:50Z</time>
      </trkpt>
      <trkpt lat="42.626438308507204" lon="1.524357469752431">
        <ele>1709.6099999999999</ele>
        <time>2025-07-13T08:12:04Z</time>
      </trkpt>
      <trkpt lat="42.626519864425063" lon="1.524255378171802">
        <ele>1711.1500000000001</ele>
        <time>2025-07-13T08:12:18Z</time>
      </trkpt>
      <trkpt lat="42.626567641273141" lon="1.524122776463628">
        <ele>1713.04</ele>
        <time>2025-07-13T08:12:35Z</time>
      </trkpt>
      <trkpt lat="42.62664039619267" lon="1.5240119677037">
        <ele>1715.54</ele>
        <time>2025-07-13T08:12:55Z</time>
      </trkpt>
      <trkpt lat="42.6266785338521" lon="1.523857237771154">
        <ele>1718.51</ele>
        <time>2025-07-13T08:13:15Z</time>
      </trkpt>
      <trkpt lat="42.626689178869128" lon="1.523717008531094">
        <ele>1720.01</ele>
        <time>2025-07-13T08:13:28Z</time>
      </trkpt>
      <trkpt lat="42.626688843593001" lon="1.523594297468662">
        <ele>1721.05</ele>
        <time>2025-07-13T08:13:41Z</time>
      </trkpt>
      <trkpt lat="42.626720359548926" lon="1.523487092927098">
        <ele>1720.5699999999999</ele>
        <time>2025-07-13T08:13:51Z</time>
      </trkpt>
      <trkpt lat="42.626800993457437" lon="1.523417187854648">
        <ele>1719.9100000000001</ele>
        <time>2025-07-13T08:14:04Z</time>
      </trkpt>
      <trkpt lat="42.626908868551254" lon="1.523408805951476">
        <ele>1720.48</ele>
        <time>2025-07-13T08:14:16Z</time>
      </trkpt>
      <trkpt lat="42.627020766958594" lon="1.52340168133378">
        <ele>1719.73</ele>
        <time>2025-07-13T08:14:27Z</time>
      </trkpt>
      <trkpt lat="42.627112800255418" lon="1.523423809558153">
        <ele>1718.8499999999999</ele>
        <time>2025-07-13T08:14:37Z</time>
      </trkpt>
      <trkpt lat="42.627203157171607" lon="1.523442585021257">
        <ele>1718.1600000000001</ele>
        <time>2025-07-13T08:14:48Z</time>
      </trkpt>
      <trkpt lat="42.627309691160917" lon="1.52342414483428">
        <ele>1717.3699999999999</ele>
        <time>2025-07-13T08:15:00Z</time>
      </trkpt>
      <trkpt lat="42.627383535727859" lon="1.523336470127106">
        <ele>1716.1500000000001</ele>
        <time>2025-07-13T08:15:12Z</time>
      </trkpt>
      <trkpt lat="42.627450255677104" lon="1.523250639438629">
        <ele>1715.03</ele>
        <time>2025-07-13T08:15:23Z</time>
      </trkpt>
      <trkpt lat="42.627519657835364" lon="1.523182913661003">
        <ele>1713.3</ele>
        <time>2025-07-13T08:15:35Z</time>
      </trkpt>
      <trkpt lat="42.627552347257733" lon="1.523073362186551">
        <ele>1712.3099999999999</ele>
        <time>2025-07-13T08:15:47Z</time>
      </trkpt>
      <trkpt lat="42.627609260380268" lon="1.522969258949161">
        <ele>1711.8699999999999</ele>
        <time>2025-07-13T08:16:12Z</time>
      </trkpt>
      <trkpt lat="42.627703389152884" lon="1.522901365533471">
        <ele>1713.0699999999999</ele>
        <time>2025-07-13T08:16:22Z</time>
      </trkpt>
      <trkpt lat="42.627791734412313" lon="1.522845039144158">
        <ele>1714.98</ele>
        <time>2025-07-13T08:16:33Z</time>
      </trkpt>
      <trkpt lat="42.62788494117558" lon="1.522767255082727">
        <ele>1716.53</ele>
        <time>2025-07-13T08:16:45Z</time>
      </trkpt>
      <trkpt lat="42.627955935895443" lon="1.522681089118123">
        <ele>1718.1199999999999</ele>
        <time>2025-07-13T08:16:57Z</time>
      </trkpt>
      <trkpt lat="42.628040760755539" lon="1.522607998922467">
        <ele>1719.5599999999999</ele>
        <time>2025-07-13T08:17:09Z</time>
      </trkpt>
      <trkpt lat="42.628117455169559" lon="1.522508254274726">
        <ele>1720.1700000000001</ele>
        <time>2025-07-13T08:17:23Z</time>
      </trkpt>
      <trkpt lat="42.62822256423533" lon="1.52243516407907">
        <ele>1720.6800000000001</ele>
        <time>2025-07-13T08:17:34Z</time>
      </trkpt>
      <trkpt lat="42.628317447379231" lon="1.522352267056704">
        <ele>1721.0699999999999</ele>
        <time>2025-07-13T08:17:44Z</time>
      </trkpt>
      <trkpt lat="42.628410067409277" lon="1.522277081385255">
        <ele>1721.0699999999999</ele>
        <time>2025-07-13T08:17:54Z</time>
      </trkpt>
      <trkpt lat="42.628442170098424" lon="1.522132158279419">
        <ele>1721.1900000000001</ele>
        <time>2025-07-13T08:18:12Z</time>
      </trkpt>
      <trkpt lat="42.628539735451341" lon="1.522011123597622">
        <ele>1721.26</ele>
        <time>2025-07-13T08:18:24Z</time>
      </trkpt>
      <trkpt lat="42.62859103269875" lon="1.521888412535191">
        <ele>1721.3199999999999</ele>
        <time>2025-07-13T08:18:34Z</time>
      </trkpt>
      <trkpt lat="42.628646185621619" lon="1.521776178851724">
        <ele>1721.5999999999999</ele>
        <time>2025-07-13T08:18:45Z</time>
      </trkpt>
      <trkpt lat="42.628710307180882" lon="1.521662184968591">
        <ele>1722.5999999999999</ele>
        <time>2025-07-13T08:18:56Z</time>
      </trkpt>
      <trkpt lat="42.628791863098741" lon="1.521546682342887">
        <ele>1723.97</ele>
        <time>2025-07-13T08:19:07Z</time>
      </trkpt>
      <trkpt lat="42.628846680745482" lon="1.521421791985631">
        <ele>1725</ele>
        <time>2025-07-13T08:19:19Z</time>
      </trkpt>
      <trkpt lat="42.628915496170521" lon="1.521307714283466">
        <ele>1727.1500000000001</ele>
        <time>2025-07-13T08:19:33Z</time>
      </trkpt>
      <trkpt lat="42.628982551395893" lon="1.52119355276227">
        <ele>1728.77</ele>
        <time>2025-07-13T08:19:47Z</time>
      </trkpt>
      <trkpt lat="42.629073746502399" lon="1.521078888326883">
        <ele>1729.51</ele>
        <time>2025-07-13T08:20:04Z</time>
      </trkpt>
      <trkpt lat="42.629183968529105" lon="1.520948717370629">
        <ele>1729.9100000000001</ele>
        <time>2025-07-13T08:20:17Z</time>
      </trkpt>
      <trkpt lat="42.629275750368834" lon="1.520817037671804">
        <ele>1730.73</ele>
        <time>2025-07-13T08:20:30Z</time>
      </trkpt>
      <trkpt lat="42.62937918305397" lon="1.520702624693513">
        <ele>1731.75</ele>
        <time>2025-07-13T08:20:42Z</time>
      </trkpt>
      <trkpt lat="42.629439029842615" lon="1.520569184795022">
        <ele>1733.8199999999999</ele>
        <time>2025-07-13T08:20:57Z</time>
      </trkpt>
      <trkpt lat="42.629504492506385" lon="1.520451670512557">
        <ele>1735.4400000000001</ele>
        <time>2025-07-13T08:21:10Z</time>
      </trkpt>
      <trkpt lat="42.629515221342444" lon="1.520287552848458">
        <ele>1737.5</ele>
        <time>2025-07-13T08:21:24Z</time>
      </trkpt>
      <trkpt lat="42.629522010684013" lon="1.520134415477514">
        <ele>1739.3800000000001</ele>
        <time>2025-07-13T08:21:39Z</time>
      </trkpt>
      <trkpt lat="42.629540199413896" lon="1.519989324733615">
        <ele>1741.21</ele>
        <time>2025-07-13T08:21:53Z</time>
      </trkpt>
      <trkpt lat="42.629621587693691" lon="1.519869212061167">
        <ele>1742.23</ele>
        <time>2025-07-13T08:22:07Z</time>
      </trkpt>
      <trkpt lat="42.629755614325404" lon="1.519819758832455">
        <ele>1743.96</ele>
        <time>2025-07-13T08:22:24Z</time>
      </trkpt>
      <trkpt lat="42.629838511347771" lon="1.519724037498236">
        <ele>1745.54</ele>
        <time>2025-07-13T08:22:41Z</time>
      </trkpt>
      <trkpt lat="42.629922162741423" lon="1.519624795764685">
        <ele>1746.3099999999999</ele>
        <time>2025-07-13T08:22:54Z</time>
      </trkpt>
      <trkpt lat="42.63000707142055" lon="1.519535696133971">
        <ele>1747.3599999999999</ele>
        <time>2025-07-13T08:23:09Z</time>
      </trkpt>
      <trkpt lat="42.630111677572131" lon="1.519434107467532">
        <ele>1748.01</ele>
        <time>2025-07-13T08:23:23Z</time>
      </trkpt>
      <trkpt lat="42.630193820223212" lon="1.519325478002429">
        <ele>1748.45</ele>
        <time>2025-07-13T08:23:35Z</time>
      </trkpt>
      <trkpt lat="42.630259618163109" lon="1.519208466634154">
        <ele>1748.7</ele>
        <time>2025-07-13T08:23:46Z</time>
      </trkpt>
      <trkpt lat="42.63030999340117" lon="1.519096316769719">
        <ele>1749.1700000000001</ele>
        <time>2025-07-13T08:23:57Z</time>
      </trkpt>
      <trkpt lat="42.630354836583138" lon="1.518988944590092">
        <ele>1749.48</ele>
        <time>2025-07-13T08:24:08Z</time>
      </trkpt>
      <trkpt lat="42.630385598167777" lon="1.518850475549698">
        <ele>1749.9000000000001</ele>
        <time>2025-07-13T08:24:20Z</time>
      </trkpt>
      <trkpt lat="42.630416695028543" lon="1.518723824992776">
        <ele>1750.9200000000001</ele>
        <time>2025-07-13T08:24:32Z</time>
      </trkpt>
      <trkpt lat="42.630470842123032" lon="1.518597928807139">
        <ele>1752.1400000000001</ele>
        <time>2025-07-13T08:24:45Z</time>
      </trkpt>
      <trkpt lat="42.630484001711011" lon="1.518447138369083">
        <ele>1753.46</ele>
        <time>2025-07-13T08:24:59Z</time>
      </trkpt>
      <trkpt lat="42.630494982004166" lon="1.518297102302313">
        <ele>1754.25</ele>
        <time>2025-07-13T08:25:13Z</time>
      </trkpt>
      <trkpt lat="42.630541669204831" lon="1.51816550642252">
        <ele>1755.26</ele>
        <time>2025-07-13T08:25:26Z</time>
      </trkpt>
      <trkpt lat="42.63057142496109" lon="1.518014799803495">
        <ele>1756.96</ele>
        <time>2025-07-13T08:25:40Z</time>
      </trkpt>
      <trkpt lat="42.630583243444562" lon="1.517860656604171">
        <ele>1757.52</ele>
        <time>2025-07-13T08:25:52Z</time>
      </trkpt>
      <trkpt lat="42.630594726651907" lon="1.517718834802508">
        <ele>1758.5599999999999</ele>
        <time>2025-07-13T08:26:05Z</time>
      </trkpt>
      <trkpt lat="42.630595900118351" lon="1.517582042142749">
        <ele>1760.4400000000001</ele>
        <time>2025-07-13T08:26:21Z</time>
      </trkpt>
      <trkpt lat="42.63061685487628" lon="1.517439298331738">
        <ele>1761.98</ele>
        <time>2025-07-13T08:26:36Z</time>
      </trkpt>
      <trkpt lat="42.630642838776112" lon="1.517282053828239">
        <ele>1762.48</ele>
        <time>2025-07-13T08:26:48Z</time>
      </trkpt>
      <trkpt lat="42.630691789090633" lon="1.517148111015558">
        <ele>1763.54</ele>
        <time>2025-07-13T08:27:00Z</time>
      </trkpt>
      <trkpt lat="42.630743840709329" lon="1.517043840140104">
        <ele>1764.6300000000001</ele>
        <time>2025-07-13T08:27:12Z</time>
      </trkpt>
      <trkpt lat="42.630814583972096" lon="1.516950465738773">
        <ele>1765.6900000000001</ele>
        <time>2025-07-13T08:27:25Z</time>
      </trkpt>
      <trkpt lat="42.630875688046217" lon="1.516850469633937">
        <ele>1766.54</ele>
        <time>2025-07-13T08:27:38Z</time>
      </trkpt>
      <trkpt lat="42.630934780463576" lon="1.516736978664994">
        <ele>1767.3900000000001</ele>
        <time>2025-07-13T08:27:52Z</time>
      </trkpt>
      <trkpt lat="42.630959758535028" lon="1.516615273430944">
        <ele>1768.5</ele>
        <time>2025-07-13T08:28:04Z</time>
      </trkpt>
      <trkpt lat="42.630995968356729" lon="1.5164914727211">
        <ele>1769.53</ele>
        <time>2025-07-13T08:28:14Z</time>
      </trkpt>
      <trkpt lat="42.631025640293956" lon="1.516382340341806">
        <ele>1770.5699999999999</ele>
        <time>2025-07-13T08:28:25Z</time>
      </trkpt>
      <trkpt lat="42.631063861772418" lon="1.516264574602246">
        <ele>1771.8199999999999</ele>
        <time>2025-07-13T08:28:38Z</time>
      </trkpt>
      <trkpt lat="42.631097473204136" lon="1.516138762235642">
        <ele>1773.0799999999999</ele>
        <time>2025-07-13T08:28:50Z</time>
      </trkpt>
      <trkpt lat="42.631134269759059" lon="1.51601068675518">
        <ele>1773.74</ele>
        <time>2025-07-13T08:29:01Z</time>
      </trkpt>
      <trkpt lat="42.631173161789775" lon="1.515898117795587">
        <ele>1774.3699999999999</ele>
        <time>2025-07-13T08:29:13Z</time>
      </trkpt>
      <trkpt lat="42.631194703280926" lon="1.515762582421303">
        <ele>1774.98</ele>
        <time>2025-07-13T08:29:26Z</time>
      </trkpt>
      <trkpt lat="42.631223201751709" lon="1.51562562212348">
        <ele>1775.3900000000001</ele>
        <time>2025-07-13T08:29:39Z</time>
      </trkpt>
      <trkpt lat="42.631249856203794" lon="1.515480196103454">
        <ele>1776.2</ele>
        <time>2025-07-13T08:29:51Z</time>
      </trkpt>
      <trkpt lat="42.631287155672908" lon="1.515352036803961">
        <ele>1776.98</ele>
        <time>2025-07-13T08:30:04Z</time>
      </trkpt>
      <trkpt lat="42.631327724084258" lon="1.5152273979038">
        <ele>1777.55</ele>
        <time>2025-07-13T08:30:15Z</time>
      </trkpt>
      <trkpt lat="42.631354797631502" lon="1.515094712376595">
        <ele>1778</ele>
        <time>2025-07-13T08:30:26Z</time>
      </trkpt>
      <trkpt lat="42.631374411284924" lon="1.514955405145884">
        <ele>1778.8199999999999</ele>
        <time>2025-07-13T08:30:39Z</time>
      </trkpt>
      <trkpt lat="42.631430150941014" lon="1.514833029359579">
        <ele>1780.2</ele>
        <time>2025-07-13T08:30:52Z</time>
      </trkpt>
      <trkpt lat="42.631450518965721" lon="1.514700762927532">
        <ele>1781.55</ele>
        <time>2025-07-13T08:31:06Z</time>
      </trkpt>
      <trkpt lat="42.631462085992098" lon="1.514552654698491">
        <ele>1783.8699999999999</ele>
        <time>2025-07-13T08:31:21Z</time>
      </trkpt>
      <trkpt lat="42.631505923345685" lon="1.514419047161937">
        <ele>1786.3499999999999</ele>
        <time>2025-07-13T08:31:37Z</time>
      </trkpt>
      <trkpt lat="42.63156970962882" lon="1.51429901830852">
        <ele>1788.3299999999999</ele>
        <time>2025-07-13T08:31:52Z</time>
      </trkpt>
      <trkpt lat="42.631620168685913" lon="1.514184856787324">
        <ele>1790.49</ele>
        <time>2025-07-13T08:32:07Z</time>
      </trkpt>
      <trkpt lat="42.631638776510954" lon="1.514051835983992">
        <ele>1792.79</ele>
        <time>2025-07-13T08:32:26Z</time>
      </trkpt>
      <trkpt lat="42.631587982177734" lon="1.513941362500191">
        <ele>1794.8299999999999</ele>
        <time>2025-07-13T08:32:43Z</time>
      </trkpt>
      <trkpt lat="42.631525872275233" lon="1.513827368617058">
        <ele>1798.1300000000001</ele>
        <time>2025-07-13T08:33:02Z</time>
      </trkpt>
      <trkpt lat="42.631511623039842" lon="1.513698287308216">
        <ele>1800.3900000000001</ele>
        <time>2025-07-13T08:33:19Z</time>
      </trkpt>
      <trkpt lat="42.631598208099604" lon="1.513617318123579">
        <ele>1802.74</ele>
        <time>2025-07-13T08:33:36Z</time>
      </trkpt>
      <trkpt lat="42.631576666608453" lon="1.513486811891198">
        <ele>1804.5799999999999</ele>
        <time>2025-07-13T08:33:58Z</time>
      </trkpt>
      <trkpt lat="42.631602399051189" lon="1.513390839099884">
        <ele>1807.8399999999999</ele>
        <time>2025-07-13T08:34:17Z</time>
      </trkpt>
      <trkpt lat="42.631669705733657" lon="1.513296710327268">
        <ele>1811.6400000000001</ele>
        <time>2025-07-13T08:34:41Z</time>
      </trkpt>
      <trkpt lat="42.631642883643508" lon="1.513179279863834">
        <ele>1814.54</ele>
        <time>2025-07-13T08:35:00Z</time>
      </trkpt>
      <trkpt lat="42.631618240848184" lon="1.513049360364676">
        <ele>1816.6500000000001</ele>
        <time>2025-07-13T08:35:20Z</time>
      </trkpt>
      <trkpt lat="42.63161463662982" lon="1.512917680665851">
        <ele>1819.9000000000001</ele>
        <time>2025-07-13T08:35:41Z</time>
      </trkpt>
      <trkpt lat="42.631687223911285" lon="1.512910220772028">
        <ele>1820.8</ele>
        <time>2025-07-13T08:36:16Z</time>
      </trkpt>
      <trkpt lat="42.631730474531651" lon="1.512996889650822">
        <ele>1822.9100000000001</ele>
        <time>2025-07-13T08:36:31Z</time>
      </trkpt>
      <trkpt lat="42.631815969944" lon="1.513029998168349">
        <ele>1824.6700000000001</ele>
        <time>2025-07-13T08:36:44Z</time>
      </trkpt>
      <trkpt lat="42.631759727373719" lon="1.512946598231792">
        <ele>1825.5799999999999</ele>
        <time>2025-07-13T08:36:55Z</time>
      </trkpt>
      <trkpt lat="42.631687726825476" lon="1.512873759493232">
        <ele>1826.3399999999999</ele>
        <time>2025-07-13T08:37:25Z</time>
      </trkpt>
      <trkpt lat="42.631628466770053" lon="1.512760855257511">
        <ele>1826.8900000000001</ele>
        <time>2025-07-13T08:37:35Z</time>
      </trkpt>
      <trkpt lat="42.631617486476898" lon="1.51261911727488">
        <ele>1827.8599999999999</ele>
        <time>2025-07-13T08:37:44Z</time>
      </trkpt>
      <trkpt lat="42.631632992997766" lon="1.512490957975388">
        <ele>1828.48</ele>
        <time>2025-07-13T08:37:54Z</time>
      </trkpt>
      <trkpt lat="42.631656043231487" lon="1.512360703200102">
        <ele>1829.2</ele>
        <time>2025-07-13T08:38:04Z</time>
      </trkpt>
      <trkpt lat="42.631697785109282" lon="1.512235812842846">
        <ele>1829.9400000000001</ele>
        <time>2025-07-13T08:38:22Z</time>
      </trkpt>
      <trkpt lat="42.631733408197761" lon="1.512111844494939">
        <ele>1830.95</ele>
        <time>2025-07-13T08:38:31Z</time>
      </trkpt>
      <trkpt lat="42.631771881133318" lon="1.511983936652541">
        <ele>1831.8499999999999</ele>
        <time>2025-07-13T08:38:40Z</time>
      </trkpt>
      <trkpt lat="42.631823429837823" lon="1.511873295530677">
        <ele>1833.1400000000001</ele>
        <time>2025-07-13T08:38:49Z</time>
      </trkpt>
      <trkpt lat="42.631874559447169" lon="1.511759804561734">
        <ele>1833.8199999999999</ele>
        <time>2025-07-13T08:38:59Z</time>
      </trkpt>
      <trkpt lat="42.631928622722626" lon="1.511646900326014">
        <ele>1834.3599999999999</ele>
        <time>2025-07-13T08:39:09Z</time>
      </trkpt>
      <trkpt lat="42.632014201954007" lon="1.51155830360949">
        <ele>1835.51</ele>
        <time>2025-07-13T08:39:21Z</time>
      </trkpt>
      <trkpt lat="42.632066421210766" lon="1.511434419080615">
        <ele>1836.1400000000001</ele>
        <time>2025-07-13T08:39:30Z</time>
      </trkpt>
      <trkpt lat="42.632093913853168" lon="1.511308187618852">
        <ele>1836.96</ele>
        <time>2025-07-13T08:39:39Z</time>
      </trkpt>
      <trkpt lat="42.632103636860847" lon="1.511182961985469">
        <ele>1837.7</ele>
        <time>2025-07-13T08:39:49Z</time>
      </trkpt>
      <trkpt lat="42.632166668772697" lon="1.511109368875623">
        <ele>1838.52</ele>
        <time>2025-07-13T08:40:32Z</time>
      </trkpt>
      <trkpt lat="42.632250655442476" lon="1.51105647906661">
        <ele>1839.2</ele>
        <time>2025-07-13T08:40:43Z</time>
      </trkpt>
      <trkpt lat="42.632354171946645" lon="1.511048180982471">
        <ele>1840.51</ele>
        <time>2025-07-13T08:40:54Z</time>
      </trkpt>
      <trkpt lat="42.632442265748978" lon="1.511081792414188">
        <ele>1841.6199999999999</ele>
        <time>2025-07-13T08:41:04Z</time>
      </trkpt>
      <trkpt lat="42.632454335689545" lon="1.511205509305">
        <ele>1842.1800000000001</ele>
        <time>2025-07-13T08:41:37Z</time>
      </trkpt>
      <trkpt lat="42.632406307384372" lon="1.511310786008835">
        <ele>1843.1700000000001</ele>
        <time>2025-07-13T08:41:47Z</time>
      </trkpt>
      <trkpt lat="42.632381580770016" lon="1.51143073104322">
        <ele>1843.96</ele>
        <time>2025-07-13T08:41:56Z</time>
      </trkpt>
      <trkpt lat="42.632420640438795" lon="1.511525865644217">
        <ele>1844.76</ele>
        <time>2025-07-13T08:43:07Z</time>
      </trkpt>
      <trkpt lat="42.632470009848475" lon="1.511608762666583">
        <ele>1845.1700000000001</ele>
        <time>2025-07-13T08:43:13Z</time>
      </trkpt>
      <trkpt lat="42.632527258247137" lon="1.511708339676261">
        <ele>1845.6400000000001</ele>
        <time>2025-07-13T08:43:20Z</time>
      </trkpt>
      <trkpt lat="42.63260412029922" lon="1.511777238920331">
        <ele>1846.8399999999999</ele>
        <time>2025-07-13T08:43:27Z</time>
      </trkpt>
      <trkpt lat="42.632695566862822" lon="1.511813867837191">
        <ele>1847.77</ele>
        <time>2025-07-13T08:43:36Z</time>
      </trkpt>
      <trkpt lat="42.632803274318576" lon="1.511813197284937">
        <ele>1849.01</ele>
        <time>2025-07-13T08:43:45Z</time>
      </trkpt>
      <trkpt lat="42.632902180776" lon="1.511795511469245">
        <ele>1850.4200000000001</ele>
        <time>2025-07-13T08:43:53Z</time>
      </trkpt>
      <trkpt lat="42.632998740300536" lon="1.511751171201468">
        <ele>1851.27</ele>
        <time>2025-07-13T08:44:02Z</time>
      </trkpt>
      <trkpt lat="42.633090941235423" lon="1.511691240593791">
        <ele>1852.5699999999999</ele>
        <time>2025-07-13T08:44:12Z</time>
      </trkpt>
      <trkpt lat="42.633163277059793" lon="1.511609768494964">
        <ele>1853.4300000000001</ele>
        <time>2025-07-13T08:44:21Z</time>
      </trkpt>
      <trkpt lat="42.633237708359957" lon="1.511527206748724">
        <ele>1854.4100000000001</ele>
        <time>2025-07-13T08:44:31Z</time>
      </trkpt>
      <trkpt lat="42.63326084241271" lon="1.511422097682953">
        <ele>1854.9100000000001</ele>
        <time>2025-07-13T08:44:46Z</time>
      </trkpt>
      <trkpt lat="42.633268721401691" lon="1.511296033859253">
        <ele>1855.48</ele>
        <time>2025-07-13T08:44:56Z</time>
      </trkpt>
      <trkpt lat="42.63328674249351" lon="1.511196456849575">
        <ele>1856.6500000000001</ele>
        <time>2025-07-13T08:45:48Z</time>
      </trkpt>
      <trkpt lat="42.633289089426398" lon="1.51112487539649">
        <ele>1857.6700000000001</ele>
        <time>2025-07-13T08:47:07Z</time>
      </trkpt>
      <trkpt lat="42.633298728615046" lon="1.51100367307663">
        <ele>1858.5599999999999</ele>
        <time>2025-07-13T08:47:18Z</time>
      </trkpt>
      <trkpt lat="42.633290262892842" lon="1.510874927043915">
        <ele>1859.3399999999999</ele>
        <time>2025-07-13T08:47:29Z</time>
      </trkpt>
      <trkpt lat="42.633268889039755" lon="1.510760178789496">
        <ele>1859.9000000000001</ele>
        <time>2025-07-13T08:47:38Z</time>
      </trkpt>
      <trkpt lat="42.633287832140923" lon="1.510647526010871">
        <ele>1861.29</ele>
        <time>2025-07-13T08:47:51Z</time>
      </trkpt>
      <trkpt lat="42.633271906524897" lon="1.510548703372479">
        <ele>1861.96</ele>
        <time>2025-07-13T08:48:04Z</time>
      </trkpt>
      <trkpt lat="42.633279282599688" lon="1.510434877127409">
        <ele>1863.26</ele>
        <time>2025-07-13T08:48:13Z</time>
      </trkpt>
      <trkpt lat="42.633287496864796" lon="1.510303029790521">
        <ele>1864.3900000000001</ele>
        <time>2025-07-13T08:48:23Z</time>
      </trkpt>
      <trkpt lat="42.633271906524897" lon="1.510192388668656">
        <ele>1865.3399999999999</ele>
        <time>2025-07-13T08:48:32Z</time>
      </trkpt>
      <trkpt lat="42.633268889039755" lon="1.510065402835608">
        <ele>1866.1900000000001</ele>
        <time>2025-07-13T08:48:41Z</time>
      </trkpt>
      <trkpt lat="42.633274588733912" lon="1.509955013170838">
        <ele>1866.9400000000001</ele>
        <time>2025-07-13T08:48:50Z</time>
      </trkpt>
      <trkpt lat="42.63329554349184" lon="1.509827272966504">
        <ele>1867.46</ele>
        <time>2025-07-13T08:49:01Z</time>
      </trkpt>
      <trkpt lat="42.633318929001689" lon="1.509697688743472">
        <ele>1868.4400000000001</ele>
        <time>2025-07-13T08:49:10Z</time>
      </trkpt>
      <trkpt lat="42.633351618424058" lon="1.509580677375197">
        <ele>1869.48</ele>
        <time>2025-07-13T08:49:20Z</time>
      </trkpt>
      <trkpt lat="42.633386068046093" lon="1.509462911635637">
        <ele>1870.5</ele>
        <time>2025-07-13T08:49:31Z</time>
      </trkpt>
      <trkpt lat="42.633429067209363" lon="1.509353527799249">
        <ele>1871.4100000000001</ele>
        <time>2025-07-13T08:49:40Z</time>
      </trkpt>
      <trkpt lat="42.633476257324219" lon="1.509236767888069">
        <ele>1872.3900000000001</ele>
        <time>2025-07-13T08:49:50Z</time>
      </trkpt>
      <trkpt lat="42.633531661704183" lon="1.509130485355854">
        <ele>1873.3599999999999</ele>
        <time>2025-07-13T08:50:01Z</time>
      </trkpt>
      <trkpt lat="42.633590921759605" lon="1.509022610262036">
        <ele>1874.51</ele>
        <time>2025-07-13T08:50:10Z</time>
      </trkpt>
      <trkpt lat="42.633644230663776" lon="1.508913394063711">
        <ele>1875.3699999999999</ele>
        <time>2025-07-13T08:50:19Z</time>
      </trkpt>
      <trkpt lat="42.633681865409017" lon="1.508794790133834">
        <ele>1876.05</ele>
        <time>2025-07-13T08:50:28Z</time>
      </trkpt>
      <trkpt lat="42.633712291717529" lon="1.508678197860718">
        <ele>1876.8699999999999</ele>
        <time>2025-07-13T08:50:38Z</time>
      </trkpt>
      <trkpt lat="42.633754033595324" lon="1.508567975834012">
        <ele>1877.78</ele>
        <time>2025-07-13T08:50:48Z</time>
      </trkpt>
      <trkpt lat="42.633788818493485" lon="1.508454736322165">
        <ele>1878.53</ele>
        <time>2025-07-13T08:50:58Z</time>
      </trkpt>
      <trkpt lat="42.633836679160595" lon="1.508338060230017">
        <ele>1879.48</ele>
        <time>2025-07-13T08:51:09Z</time>
      </trkpt>
      <trkpt lat="42.633882611989975" lon="1.508240913972259">
        <ele>1880.1600000000001</ele>
        <time>2025-07-13T08:51:19Z</time>
      </trkpt>
      <trkpt lat="42.633900884538889" lon="1.508104624226689">
        <ele>1880.96</ele>
        <time>2025-07-13T08:51:30Z</time>
      </trkpt>
      <trkpt lat="42.633911781013012" lon="1.507967999204993">
        <ele>1882.0799999999999</ele>
        <time>2025-07-13T08:51:41Z</time>
      </trkpt>
      <trkpt lat="42.633924102410674" lon="1.507850484922528">
        <ele>1882.9000000000001</ele>
        <time>2025-07-13T08:51:50Z</time>
      </trkpt>
      <trkpt lat="42.633899878710508" lon="1.507736574858427">
        <ele>1883.7</ele>
        <time>2025-07-13T08:52:00Z</time>
      </trkpt>
      <trkpt lat="42.633896106854081" lon="1.507616378366947">
        <ele>1884.72</ele>
        <time>2025-07-13T08:52:10Z</time>
      </trkpt>
      <trkpt lat="42.63390826061368" lon="1.50750121101737">
        <ele>1885.8499999999999</ele>
        <time>2025-07-13T08:52:20Z</time>
      </trkpt>
      <trkpt lat="42.633937764912844" lon="1.507392833009362">
        <ele>1886.46</ele>
        <time>2025-07-13T08:52:29Z</time>
      </trkpt>
      <trkpt lat="42.633968442678452" lon="1.507275989279151">
        <ele>1887.49</ele>
        <time>2025-07-13T08:52:39Z</time>
      </trkpt>
      <trkpt lat="42.633983362466097" lon="1.507153948768973">
        <ele>1888.52</ele>
        <time>2025-07-13T08:52:49Z</time>
      </trkpt>
      <trkpt lat="42.634007837623358" lon="1.507020927965641">
        <ele>1889.5899999999999</ele>
        <time>2025-07-13T08:53:00Z</time>
      </trkpt>
      <trkpt lat="42.634026613086462" lon="1.506900982931256">
        <ele>1890.4100000000001</ele>
        <time>2025-07-13T08:53:10Z</time>
      </trkpt>
      <trkpt lat="42.634049914777279" lon="1.506778774783015">
        <ele>1891.23</ele>
        <time>2025-07-13T08:53:19Z</time>
      </trkpt>
      <trkpt lat="42.634052177891135" lon="1.506656566634774">
        <ele>1892.23</ele>
        <time>2025-07-13T08:53:29Z</time>
      </trkpt>
      <trkpt lat="42.634044634178281" lon="1.50653419084847">
        <ele>1893.24</ele>
        <time>2025-07-13T08:53:39Z</time>
      </trkpt>
      <trkpt lat="42.634025607258081" lon="1.506410390138626">
        <ele>1894.3099999999999</ele>
        <time>2025-07-13T08:53:50Z</time>
      </trkpt>
      <trkpt lat="42.634012280032039" lon="1.50627720169723">
        <ele>1895.5699999999999</ele>
        <time>2025-07-13T08:54:01Z</time>
      </trkpt>
      <trkpt lat="42.633995600044727" lon="1.50615549646318">
        <ele>1897</ele>
        <time>2025-07-13T08:54:11Z</time>
      </trkpt>
      <trkpt lat="42.633998198434711" lon="1.506033539772034">
        <ele>1898.01</ele>
        <time>2025-07-13T08:54:21Z</time>
      </trkpt>
      <trkpt lat="42.633996522054076" lon="1.505918707698584">
        <ele>1899.04</ele>
        <time>2025-07-13T08:54:31Z</time>
      </trkpt>
      <trkpt lat="42.633998701348901" lon="1.505787698552012">
        <ele>1900.27</ele>
        <time>2025-07-13T08:54:42Z</time>
      </trkpt>
      <trkpt lat="42.634010687470436" lon="1.505654510110617">
        <ele>1901.02</ele>
        <time>2025-07-13T08:54:53Z</time>
      </trkpt>
      <trkpt lat="42.634029295295477" lon="1.505531882867217">
        <ele>1901.97</ele>
        <time>2025-07-13T08:55:04Z</time>
      </trkpt>
      <trkpt lat="42.634032983332872" lon="1.505386624485254">
        <ele>1902.97</ele>
        <time>2025-07-13T08:55:16Z</time>
      </trkpt>
      <trkpt lat="42.6340401917696" lon="1.505251675844193">
        <ele>1904.01</ele>
        <time>2025-07-13T08:55:27Z</time>
      </trkpt>
      <trkpt lat="42.63404262252152" lon="1.505119660869241">
        <ele>1904.96</ele>
        <time>2025-07-13T08:55:38Z</time>
      </trkpt>
      <trkpt lat="42.634024769067764" lon="1.50498915463686">
        <ele>1905.8599999999999</ele>
        <time>2025-07-13T08:55:49Z</time>
      </trkpt>
      <trkpt lat="42.63399668969214" lon="1.504837526008487">
        <ele>1907.1900000000001</ele>
        <time>2025-07-13T08:56:02Z</time>
      </trkpt>
      <trkpt lat="42.633961653336883" lon="1.504698386415839">
        <ele>1908.3800000000001</ele>
        <time>2025-07-13T08:56:16Z</time>
      </trkpt>
      <trkpt lat="42.633890742436051" lon="1.504544243216515">
        <ele>1909.5899999999999</ele>
        <time>2025-07-13T08:56:29Z</time>
      </trkpt>
      <trkpt lat="42.633837182074785" lon="1.504409881308675">
        <ele>1910.6800000000001</ele>
        <time>2025-07-13T08:56:42Z</time>
      </trkpt>
      <trkpt lat="42.633793679997325" lon="1.504272082820535">
        <ele>1911.7</ele>
        <time>2025-07-13T08:56:55Z</time>
      </trkpt>
      <trkpt lat="42.633770378306508" lon="1.504136212170124">
        <ele>1913.0899999999999</ele>
        <time>2025-07-13T08:57:08Z</time>
      </trkpt>
      <trkpt lat="42.633738862350583" lon="1.503993049263954">
        <ele>1914.04</ele>
        <time>2025-07-13T08:57:21Z</time>
      </trkpt>
      <trkpt lat="42.633727630600333" lon="1.503852903842926">
        <ele>1915.0799999999999</ele>
        <time>2025-07-13T08:57:33Z</time>
      </trkpt>
      <trkpt lat="42.633723439648747" lon="1.503720888867974">
        <ele>1916.03</ele>
        <time>2025-07-13T08:57:44Z</time>
      </trkpt>
      <trkpt lat="42.633702401071787" lon="1.50357554666698">
        <ele>1917</ele>
        <time>2025-07-13T08:57:56Z</time>
      </trkpt>
      <trkpt lat="42.633689660578966" lon="1.503450404852629">
        <ele>1917.9300000000001</ele>
        <time>2025-07-13T08:58:07Z</time>
      </trkpt>
      <trkpt lat="42.633687062188983" lon="1.503321575000882">
        <ele>1919.0599999999999</ele>
        <time>2025-07-13T08:58:18Z</time>
      </trkpt>
      <trkpt lat="42.633641213178635" lon="1.503192661330104">
        <ele>1919.55</ele>
        <time>2025-07-13T08:58:30Z</time>
      </trkpt>
      <trkpt lat="42.633657474070787" lon="1.503061652183533">
        <ele>1920.1500000000001</ele>
        <time>2025-07-13T08:58:41Z</time>
      </trkpt>
      <trkpt lat="42.633637776598334" lon="1.502933409065008">
        <ele>1921.23</ele>
        <time>2025-07-13T08:58:53Z</time>
      </trkpt>
      <trkpt lat="42.633631909266114" lon="1.502790413796902">
        <ele>1922.48</ele>
        <time>2025-07-13T08:59:06Z</time>
      </trkpt>
      <trkpt lat="42.633644649758935" lon="1.502651358023286">
        <ele>1923.25</ele>
        <time>2025-07-13T08:59:18Z</time>
      </trkpt>
      <trkpt lat="42.633660910651088" lon="1.502513978630304">
        <ele>1924.4000000000001</ele>
        <time>2025-07-13T08:59:30Z</time>
      </trkpt>
      <trkpt lat="42.633643308654428" lon="1.502375677227974">
        <ele>1925.0899999999999</ele>
        <time>2025-07-13T08:59:41Z</time>
      </trkpt>
      <trkpt lat="42.633570050820708" lon="1.502234442159534">
        <ele>1925.95</ele>
        <time>2025-07-13T08:59:52Z</time>
      </trkpt>
      <trkpt lat="42.633522190153599" lon="1.502163950353861">
        <ele>1926.1600000000001</ele>
        <time>2025-07-13T09:00:11Z</time>
      </trkpt>
      <trkpt lat="42.63351196423173" lon="1.502053141593933">
        <ele>1926.99</ele>
        <time>2025-07-13T09:00:31Z</time>
      </trkpt>
      <trkpt lat="42.63356133364141" lon="1.501952726393938">
        <ele>1930.7</ele>
        <time>2025-07-13T09:00:53Z</time>
      </trkpt>
      <trkpt lat="42.63354767113924" lon="1.501864967867732">
        <ele>1932.75</ele>
        <time>2025-07-13T09:01:11Z</time>
      </trkpt>
      <trkpt lat="42.633583629503846" lon="1.501848287880421">
        <ele>1936.0899999999999</ele>
        <time>2025-07-13T09:01:38Z</time>
      </trkpt>
      <trkpt lat="42.63364389538765" lon="1.501819035038352">
        <ele>1938.3399999999999</ele>
        <time>2025-07-13T09:01:59Z</time>
      </trkpt>
      <trkpt lat="42.633652444928885" lon="1.501737898215652">
        <ele>1941.8699999999999</ele>
        <time>2025-07-13T09:02:18Z</time>
      </trkpt>
      <trkpt lat="42.63368496671319" lon="1.501676039770246">
        <ele>1945.29</ele>
        <time>2025-07-13T09:02:44Z</time>
      </trkpt>
      <trkpt lat="42.633739281445742" lon="1.501592472195625">
        <ele>1949.74</ele>
        <time>2025-07-13T09:03:22Z</time>
      </trkpt>
      <trkpt lat="42.633758559823036" lon="1.501498259603977">
        <ele>1952.3</ele>
        <time>2025-07-13T09:03:42Z</time>
      </trkpt>
      <trkpt lat="42.633753530681133" lon="1.501372111961246">
        <ele>1954.01</ele>
        <time>2025-07-13T09:04:00Z</time>
      </trkpt>
      <trkpt lat="42.633744645863771" lon="1.501282257959247">
        <ele>1957.3900000000001</ele>
        <time>2025-07-13T09:04:20Z</time>
      </trkpt>
      <trkpt lat="42.633743975311518" lon="1.501158876344562">
        <ele>1960.3</ele>
        <time>2025-07-13T09:04:43Z</time>
      </trkpt>
      <trkpt lat="42.633730145171285" lon="1.501041110605001">
        <ele>1962.9000000000001</ele>
        <time>2025-07-13T09:05:03Z</time>
      </trkpt>
      <trkpt lat="42.633771635591984" lon="1.501023173332214">
        <ele>1965.5</ele>
        <time>2025-07-13T09:05:26Z</time>
      </trkpt>
      <trkpt lat="42.633862998336554" lon="1.501044714823365">
        <ele>1969.6600000000001</ele>
        <time>2025-07-13T09:06:12Z</time>
      </trkpt>
      <trkpt lat="42.633926784619689" lon="1.501033063977957">
        <ele>1973.1500000000001</ele>
        <time>2025-07-13T09:06:33Z</time>
      </trkpt>
      <trkpt lat="42.633940447121859" lon="1.500926949083805">
        <ele>1975.1900000000001</ele>
        <time>2025-07-13T09:06:59Z</time>
      </trkpt>
      <trkpt lat="42.633977830410004" lon="1.500886464491487">
        <ele>1978.4400000000001</ele>
        <time>2025-07-13T09:07:37Z</time>
      </trkpt>
      <trkpt lat="42.634050501510501" lon="1.500845560804009">
        <ele>1982.24</ele>
        <time>2025-07-13T09:08:02Z</time>
      </trkpt>
      <trkpt lat="42.634043209254742" lon="1.500740703195334">
        <ele>1985.04</ele>
        <time>2025-07-13T09:08:24Z</time>
      </trkpt>
      <trkpt lat="42.634083442389965" lon="1.500654369592667">
        <ele>1988.1900000000001</ele>
        <time>2025-07-13T09:08:46Z</time>
      </trkpt>
      <trkpt lat="42.634157873690128" lon="1.500636013224721">
        <ele>1992.0799999999999</ele>
        <time>2025-07-13T09:09:28Z</time>
      </trkpt>
      <trkpt lat="42.634155107662082" lon="1.500524114817381">
        <ele>1995.72</ele>
        <time>2025-07-13T09:09:58Z</time>
      </trkpt>
      <trkpt lat="42.634230628609657" lon="1.500463597476482">
        <ele>1998.6199999999999</ele>
        <time>2025-07-13T09:10:19Z</time>
      </trkpt>
      <trkpt lat="42.63426935300231" lon="1.500395787879825">
        <ele>2001.55</ele>
        <time>2025-07-13T09:10:45Z</time>
      </trkpt>
      <trkpt lat="42.63422342017293" lon="1.500301659107208">
        <ele>2002.29</ele>
        <time>2025-07-13T09:11:03Z</time>
      </trkpt>
      <trkpt lat="42.634198693558574" lon="1.500212391838431">
        <ele>2004.74</ele>
        <time>2025-07-13T09:11:24Z</time>
      </trkpt>
      <trkpt lat="42.634292654693127" lon="1.500204177573323">
        <ele>2007.45</ele>
        <time>2025-07-13T09:11:44Z</time>
      </trkpt>
      <trkpt lat="42.634289804846048" lon="1.500134104862809">
        <ele>2011.01</ele>
        <time>2025-07-13T09:12:09Z</time>
      </trkpt>
      <trkpt lat="42.634249487891793" lon="1.500052297487855">
        <ele>2013.29</ele>
        <time>2025-07-13T09:12:33Z</time>
      </trkpt>
      <trkpt lat="42.634319476783276" lon="1.500078616663814">
        <ele>2015.73</ele>
        <time>2025-07-13T09:12:53Z</time>
      </trkpt>
      <trkpt lat="42.634375048801303" lon="1.50008087977767">
        <ele>2019.3699999999999</ele>
        <time>2025-07-13T09:13:23Z</time>
      </trkpt>
      <trkpt lat="42.634371779859066" lon="1.499975435435772">
        <ele>2022.9100000000001</ele>
        <time>2025-07-13T09:13:48Z</time>
      </trkpt>
      <trkpt lat="42.634358117356896" lon="1.499859681352973">
        <ele>2027.1600000000001</ele>
        <time>2025-07-13T09:14:24Z</time>
      </trkpt>
      <trkpt lat="42.634407319128513" lon="1.499797990545631">
        <ele>2029.24</ele>
        <time>2025-07-13T09:14:46Z</time>
      </trkpt>
      <trkpt lat="42.634455347433686" lon="1.499706292524934">
        <ele>2033.7</ele>
        <time>2025-07-13T09:15:12Z</time>
      </trkpt>
      <trkpt lat="42.634478230029345" lon="1.49964502081275">
        <ele>2035.9000000000001</ele>
        <time>2025-07-13T09:15:32Z</time>
      </trkpt>
      <trkpt lat="42.634505303576589" lon="1.499530356377363">
        <ele>2038.0599999999999</ele>
        <time>2025-07-13T09:15:50Z</time>
      </trkpt>
      <trkpt lat="42.634498095139861" lon="1.499403202906251">
        <ele>2039.9400000000001</ele>
        <time>2025-07-13T09:16:09Z</time>
      </trkpt>
      <trkpt lat="42.634481163695455" lon="1.499257190153003">
        <ele>2039.4200000000001</ele>
        <time>2025-07-13T09:16:23Z</time>
      </trkpt>
      <trkpt lat="42.634471021592617" lon="1.499115703627467">
        <ele>2040.02</ele>
        <time>2025-07-13T09:16:35Z</time>
      </trkpt>
      <trkpt lat="42.634421736001968" lon="1.499000955373049">
        <ele>2041.6099999999999</ele>
        <time>2025-07-13T09:16:48Z</time>
      </trkpt>
      <trkpt lat="42.634390471503139" lon="1.498866677284241">
        <ele>2043.52</ele>
        <time>2025-07-13T09:17:04Z</time>
      </trkpt>
      <trkpt lat="42.634405139833689" lon="1.498735332861543">
        <ele>2044.03</ele>
        <time>2025-07-13T09:17:15Z</time>
      </trkpt>
      <trkpt lat="42.63444134965539" lon="1.498630475252867">
        <ele>2045.96</ele>
        <time>2025-07-13T09:17:32Z</time>
      </trkpt>
      <trkpt lat="42.634429279714823" lon="1.498502399772406">
        <ele>2048.29</ele>
        <time>2025-07-13T09:17:49Z</time>
      </trkpt>
      <trkpt lat="42.634432381018996" lon="1.49837214499712">
        <ele>2048.6300000000001</ele>
        <time>2025-07-13T09:18:01Z</time>
      </trkpt>
      <trkpt lat="42.634440762922168" lon="1.498234933242202">
        <ele>2047.3</ele>
        <time>2025-07-13T09:18:13Z</time>
      </trkpt>
      <trkpt lat="42.634480241686106" lon="1.498120436444879">
        <ele>2045.8399999999999</ele>
        <time>2025-07-13T09:18:25Z</time>
      </trkpt>
      <trkpt lat="42.634516786783934" lon="1.497996132820845">
        <ele>2046.21</ele>
        <time>2025-07-13T09:18:37Z</time>
      </trkpt>
      <trkpt lat="42.634582249447703" lon="1.497920192778111">
        <ele>2048.25</ele>
        <time>2025-07-13T09:18:52Z</time>
      </trkpt>
      <trkpt lat="42.634615274146199" lon="1.497825477272272">
        <ele>2050.3899999999999</ele>
        <time>2025-07-13T09:19:10Z</time>
      </trkpt>
      <trkpt lat="42.634657686576247" lon="1.497703352943063">
        <ele>2052.6599999999999</ele>
        <time>2025-07-13T09:19:26Z</time>
      </trkpt>
      <trkpt lat="42.634641425684094" lon="1.497584581375122">
        <ele>2054.1599999999999</ele>
        <time>2025-07-13T09:19:43Z</time>
      </trkpt>
      <trkpt lat="42.634650310501456" lon="1.497458349913359">
        <ele>2055.54</ele>
        <time>2025-07-13T09:19:59Z</time>
      </trkpt>
      <trkpt lat="42.634649639949203" lon="1.497359024360776">
        <ele>2055.9099999999999</ele>
        <time>2025-07-13T09:20:20Z</time>
      </trkpt>
      <trkpt lat="42.6346514839679" lon="1.497232122346759">
        <ele>2057.3000000000002</ele>
        <time>2025-07-13T09:20:35Z</time>
      </trkpt>
      <trkpt lat="42.634700434282422" lon="1.497123409062624">
        <ele>2059.6199999999999</ele>
        <time>2025-07-13T09:20:59Z</time>
      </trkpt>
      <trkpt lat="42.634782660752535" lon="1.497067166492343">
        <ele>2062.0100000000002</ele>
        <time>2025-07-13T09:21:22Z</time>
      </trkpt>
      <trkpt lat="42.634849632158875" lon="1.497050989419222">
        <ele>2065.0900000000001</ele>
        <time>2025-07-13T09:21:49Z</time>
      </trkpt>
      <trkpt lat="42.634944766759872" lon="1.497043278068304">
        <ele>2067.71</ele>
        <time>2025-07-13T09:22:06Z</time>
      </trkpt>
      <trkpt lat="42.635004613548517" lon="1.496997177600861">
        <ele>2069.5700000000002</ele>
        <time>2025-07-13T09:22:27Z</time>
      </trkpt>
      <trkpt lat="42.635004697367549" lon="1.496974295005202">
        <ele>2073.3400000000001</ele>
        <time>2025-07-13T09:31:50Z</time>
      </trkpt>
      <trkpt lat="42.635098826140165" lon="1.496946383267641">
        <ele>2075.8499999999999</ele>
        <time>2025-07-13T09:33:17Z</time>
      </trkpt>
      <trkpt lat="42.635194966569543" lon="1.496887877583504">
        <ele>2077.48</ele>
        <time>2025-07-13T09:33:32Z</time>
      </trkpt>
      <trkpt lat="42.635273924097419" lon="1.496816882863641">
        <ele>2078.46</ele>
        <time>2025-07-13T09:33:45Z</time>
      </trkpt>
      <trkpt lat="42.635362185537815" lon="1.49675527587533">
        <ele>2078.9400000000001</ele>
        <time>2025-07-13T09:33:57Z</time>
      </trkpt>
      <trkpt lat="42.635451955720782" lon="1.49670397862792">
        <ele>2079.21</ele>
        <time>2025-07-13T09:34:10Z</time>
      </trkpt>
      <trkpt lat="42.635493529960513" lon="1.496601803228259">
        <ele>2079.0999999999999</ele>
        <time>2025-07-13T09:34:26Z</time>
      </trkpt>
      <trkpt lat="42.635520435869694" lon="1.496496107429266">
        <ele>2079.8299999999999</ele>
        <time>2025-07-13T09:34:43Z</time>
      </trkpt>
      <trkpt lat="42.635514903813601" lon="1.496383119374514">
        <ele>2080.5700000000002</ele>
        <time>2025-07-13T09:35:03Z</time>
      </trkpt>
      <trkpt lat="42.635452458634973" lon="1.496300222352147">
        <ele>2080.0599999999999</ele>
        <time>2025-07-13T09:35:14Z</time>
      </trkpt>
      <trkpt lat="42.635408118367195" lon="1.496205339208245">
        <ele>2079.7800000000002</ele>
        <time>2025-07-13T09:35:27Z</time>
      </trkpt>
      <trkpt lat="42.635350953787565" lon="1.496115988120437">
        <ele>2080.4200000000001</ele>
        <time>2025-07-13T09:35:39Z</time>
      </trkpt>
      <trkpt lat="42.635296219959855" lon="1.496017500758171">
        <ele>2081.4899999999998</ele>
        <time>2025-07-13T09:35:51Z</time>
      </trkpt>
      <trkpt lat="42.635290939360857" lon="1.495884815230966">
        <ele>2082.6599999999999</ele>
        <time>2025-07-13T09:36:03Z</time>
      </trkpt>
      <trkpt lat="42.635263279080391" lon="1.495786579325795">
        <ele>2082.5900000000001</ele>
        <time>2025-07-13T09:36:14Z</time>
      </trkpt>
      <trkpt lat="42.635231846943498" lon="1.495699072256684">
        <ele>2083.1199999999999</ele>
        <time>2025-07-13T09:36:24Z</time>
      </trkpt>
      <trkpt lat="42.635183399543166" lon="1.495593711733818">
        <ele>2084.25</ele>
        <time>2025-07-13T09:36:37Z</time>
      </trkpt>
      <trkpt lat="42.635130258277059" lon="1.49549069814384">
        <ele>2084.5900000000001</ele>
        <time>2025-07-13T09:36:50Z</time>
      </trkpt>
      <trkpt lat="42.635102514177561" lon="1.49538173340261">
        <ele>2085.5700000000002</ele>
        <time>2025-07-13T09:37:05Z</time>
      </trkpt>
      <trkpt lat="42.635055659338832" lon="1.495285844430327">
        <ele>2086.1599999999999</ele>
        <time>2025-07-13T09:37:20Z</time>
      </trkpt>
      <trkpt lat="42.635024059563875" lon="1.495174113661051">
        <ele>2086.25</ele>
        <time>2025-07-13T09:37:31Z</time>
      </trkpt>
      <trkpt lat="42.635015593841672" lon="1.495047295466065">
        <ele>2087.1199999999999</ele>
        <time>2025-07-13T09:37:44Z</time>
      </trkpt>
      <trkpt lat="42.634951053187251" lon="1.494956435635686">
        <ele>2087.3800000000001</ele>
        <time>2025-07-13T09:37:55Z</time>
      </trkpt>
      <trkpt lat="42.63492364436388" lon="1.494841184467077">
        <ele>2087.5799999999999</ele>
        <time>2025-07-13T09:38:17Z</time>
      </trkpt>
      <trkpt lat="42.634910568594933" lon="1.49470598436892">
        <ele>2088.1900000000001</ele>
        <time>2025-07-13T09:38:38Z</time>
      </trkpt>
      <trkpt lat="42.634850470349193" lon="1.494619734585285">
        <ele>2088.6900000000001</ele>
        <time>2025-07-13T09:38:53Z</time>
      </trkpt>
      <trkpt lat="42.634801520034671" lon="1.494517056271434">
        <ele>2090.3000000000002</ele>
        <time>2025-07-13T09:39:06Z</time>
      </trkpt>
      <trkpt lat="42.634856421500444" lon="1.494425525888801">
        <ele>2092.75</ele>
        <time>2025-07-13T09:39:20Z</time>
      </trkpt>
      <trkpt lat="42.634877543896437" lon="1.494319578632712">
        <ele>2094.1300000000001</ele>
        <time>2025-07-13T09:39:37Z</time>
      </trkpt>
      <trkpt lat="42.634865306317806" lon="1.494206003844738">
        <ele>2095.6900000000001</ele>
        <time>2025-07-13T09:39:51Z</time>
      </trkpt>
      <trkpt lat="42.63484108261764" lon="1.4940888248384">
        <ele>2097.3600000000001</ele>
        <time>2025-07-13T09:40:06Z</time>
      </trkpt>
      <trkpt lat="42.634882992133498" lon="1.494013722985983">
        <ele>2098.6300000000001</ele>
        <time>2025-07-13T09:40:21Z</time>
      </trkpt>
      <trkpt lat="42.634962871670723" lon="1.494018249213696">
        <ele>2100.4400000000001</ele>
        <time>2025-07-13T09:40:39Z</time>
      </trkpt>
      <trkpt lat="42.634924566373229" lon="1.49391490034759">
        <ele>2103.1100000000001</ele>
        <time>2025-07-13T09:41:00Z</time>
      </trkpt>
      <trkpt lat="42.634888859465718" lon="1.493799984455109">
        <ele>2104.2600000000002</ele>
        <time>2025-07-13T09:41:15Z</time>
      </trkpt>
      <trkpt lat="42.634930768981576" lon="1.493769893422723">
        <ele>2106.6300000000001</ele>
        <time>2025-07-13T09:41:42Z</time>
      </trkpt>
      <trkpt lat="42.634972846135497" lon="1.493694707751274">
        <ele>2110.3400000000001</ele>
        <time>2025-07-13T09:42:03Z</time>
      </trkpt>
      <trkpt lat="42.635006122291088" lon="1.493674172088504">
        <ele>2112.21</ele>
        <time>2025-07-13T09:42:22Z</time>
      </trkpt>
      <trkpt lat="42.635011319071054" lon="1.493561435490847">
        <ele>2114.9400000000001</ele>
        <time>2025-07-13T09:42:43Z</time>
      </trkpt>
      <trkpt lat="42.634997488930821" lon="1.493452303111553">
        <ele>2117.4499999999998</ele>
        <time>2025-07-13T09:43:03Z</time>
      </trkpt>
      <trkpt lat="42.635023724287748" lon="1.493362365290523">
        <ele>2120.48</ele>
        <time>2025-07-13T09:43:23Z</time>
      </trkpt>
      <trkpt lat="42.63501257635653" lon="1.493241330608726">
        <ele>2123.25</ele>
        <time>2025-07-13T09:43:40Z</time>
      </trkpt>
      <trkpt lat="42.635003356263041" lon="1.493134880438447">
        <ele>2126.7199999999998</ele>
        <time>2025-07-13T09:44:10Z</time>
      </trkpt>
      <trkpt lat="42.63496027328074" lon="1.493020802736282">
        <ele>2128.21</ele>
        <time>2025-07-13T09:44:26Z</time>
      </trkpt>
      <trkpt lat="42.634912664070725" lon="1.492920219898224">
        <ele>2130.02</ele>
        <time>2025-07-13T09:44:42Z</time>
      </trkpt>
      <trkpt lat="42.634863881394267" lon="1.492807986214757">
        <ele>2131.9000000000001</ele>
        <time>2025-07-13T09:44:57Z</time>
      </trkpt>
      <trkpt lat="42.634808560833335" lon="1.492713186889887">
        <ele>2133.9299999999998</ele>
        <time>2025-07-13T09:45:16Z</time>
      </trkpt>
      <trkpt lat="42.634740499779582" lon="1.492643700912595">
        <ele>2134.7199999999998</ele>
        <time>2025-07-13T09:45:27Z</time>
      </trkpt>
      <trkpt lat="42.634689286351204" lon="1.492552757263184">
        <ele>2136.8899999999999</ele>
        <time>2025-07-13T09:45:43Z</time>
      </trkpt>
      <trkpt lat="42.634682916104794" lon="1.492445720359683">
        <ele>2140.46</ele>
        <time>2025-07-13T09:46:07Z</time>
      </trkpt>
      <trkpt lat="42.63468274846673" lon="1.492307418957353">
        <ele>2142.9299999999998</ele>
        <time>2025-07-13T09:46:27Z</time>
      </trkpt>
      <trkpt lat="42.634655255824327" lon="1.49219635874033">
        <ele>2145.7399999999998</ele>
        <time>2025-07-13T09:46:49Z</time>
      </trkpt>
      <trkpt lat="42.634605215862393" lon="1.492121089249849">
        <ele>2148.1500000000001</ele>
        <time>2025-07-13T09:47:10Z</time>
      </trkpt>
      <trkpt lat="42.634573448449373" lon="1.492005921900272">
        <ele>2150.2800000000002</ele>
        <time>2025-07-13T09:47:26Z</time>
      </trkpt>
      <trkpt lat="42.634555092081428" lon="1.491882372647524">
        <ele>2152.29</ele>
        <time>2025-07-13T09:47:45Z</time>
      </trkpt>
      <trkpt lat="42.63452785089612" lon="1.491766534745693">
        <ele>2154.4699999999998</ele>
        <time>2025-07-13T09:48:02Z</time>
      </trkpt>
      <trkpt lat="42.634523827582598" lon="1.491642147302628">
        <ele>2156.5900000000001</ele>
        <time>2025-07-13T09:48:20Z</time>
      </trkpt>
      <trkpt lat="42.634522318840027" lon="1.49151717312634">
        <ele>2159.54</ele>
        <time>2025-07-13T09:48:41Z</time>
      </trkpt>
      <trkpt lat="42.634509997442365" lon="1.491391276940703">
        <ele>2162.7800000000002</ele>
        <time>2025-07-13T09:49:00Z</time>
      </trkpt>
      <trkpt lat="42.634482840076089" lon="1.491274181753397">
        <ele>2163.8800000000001</ele>
        <time>2025-07-13T09:49:13Z</time>
      </trkpt>
      <trkpt lat="42.634434141218662" lon="1.491168066859245">
        <ele>2165.0100000000002</ele>
        <time>2025-07-13T09:49:26Z</time>
      </trkpt>
      <trkpt lat="42.634423328563571" lon="1.491053653880954">
        <ele>2166.1100000000001</ele>
        <time>2025-07-13T09:49:42Z</time>
      </trkpt>
      <trkpt lat="42.634401200339198" lon="1.490936223417521">
        <ele>2168.5500000000002</ele>
        <time>2025-07-13T09:50:00Z</time>
      </trkpt>
      <trkpt lat="42.634366499260068" lon="1.490823067724705">
        <ele>2170.29</ele>
        <time>2025-07-13T09:50:14Z</time>
      </trkpt>
      <trkpt lat="42.634337078779936" lon="1.490704799070954">
        <ele>2171.8800000000001</ele>
        <time>2025-07-13T09:50:29Z</time>
      </trkpt>
      <trkpt lat="42.634293073788285" lon="1.490590805187821">
        <ele>2173.9200000000001</ele>
        <time>2025-07-13T09:50:45Z</time>
      </trkpt>
      <trkpt lat="42.634223671630025" lon="1.490524001419544">
        <ele>2174.8600000000001</ele>
        <time>2025-07-13T09:50:59Z</time>
      </trkpt>
      <trkpt lat="42.634166004136205" lon="1.490445714443922">
        <ele>2176.5799999999999</ele>
        <time>2025-07-13T09:51:15Z</time>
      </trkpt>
      <trkpt lat="42.634101966395974" lon="1.490381760522723">
        <ele>2177.73</ele>
        <time>2025-07-13T09:51:50Z</time>
      </trkpt>
      <trkpt lat="42.634036168456078" lon="1.490297941491008">
        <ele>2179.3299999999999</ele>
        <time>2025-07-13T09:52:05Z</time>
      </trkpt>
      <trkpt lat="42.633958803489804" lon="1.490235412493348">
        <ele>2181.75</ele>
        <time>2025-07-13T09:52:21Z</time>
      </trkpt>
      <trkpt lat="42.633884539827704" lon="1.490161400288343">
        <ele>2183.73</ele>
        <time>2025-07-13T09:52:36Z</time>
      </trkpt>
      <trkpt lat="42.633932903409004" lon="1.490044388920069">
        <ele>2184.2800000000002</ele>
        <time>2025-07-13T09:52:50Z</time>
      </trkpt>
      <trkpt lat="42.634018147364259" lon="1.489981357008219">
        <ele>2185.0799999999999</ele>
        <time>2025-07-13T09:53:02Z</time>
      </trkpt>
      <trkpt lat="42.634119987487793" lon="1.489989990368486">
        <ele>2185.5500000000002</ele>
        <time>2025-07-13T09:53:17Z</time>
      </trkpt>
      <trkpt lat="42.634214451536536" lon="1.489970041438937">
        <ele>2184.8000000000002</ele>
        <time>2025-07-13T09:53:26Z</time>
      </trkpt>
      <trkpt lat="42.634286116808653" lon="1.490044305101037">
        <ele>2184.52</ele>
        <time>2025-07-13T09:53:37Z</time>
      </trkpt>
      <trkpt lat="42.634351328015327" lon="1.490119658410549">
        <ele>2186.3299999999999</ele>
        <time>2025-07-13T09:53:56Z</time>
      </trkpt>
      <trkpt lat="42.634427519515157" lon="1.490197191014886">
        <ele>2188.0300000000002</ele>
        <time>2025-07-13T09:54:10Z</time>
      </trkpt>
      <trkpt lat="42.634503040462732" lon="1.49028142914176">
        <ele>2187.9299999999998</ele>
        <time>2025-07-13T09:54:20Z</time>
      </trkpt>
      <trkpt lat="42.63458845205605" lon="1.490326691418886">
        <ele>2189.75</ele>
        <time>2025-07-13T09:54:41Z</time>
      </trkpt>
      <trkpt lat="42.634609406813979" lon="1.490218481048942">
        <ele>2193.4200000000001</ele>
        <time>2025-07-13T09:55:08Z</time>
      </trkpt>
      <trkpt lat="42.634554505348206" lon="1.49012753739953">
        <ele>2196.02</ele>
        <time>2025-07-13T09:55:31Z</time>
      </trkpt>
      <trkpt lat="42.634558025747538" lon="1.490007508546114">
        <ele>2198.8499999999999</ele>
        <time>2025-07-13T09:55:54Z</time>
      </trkpt>
      <trkpt lat="42.634577387943864" lon="1.489898879081011">
        <ele>2200.8800000000001</ele>
        <time>2025-07-13T09:56:16Z</time>
      </trkpt>
      <trkpt lat="42.634606892243028" lon="1.489788489416242">
        <ele>2203.6100000000001</ele>
        <time>2025-07-13T09:56:40Z</time>
      </trkpt>
      <trkpt lat="42.634706636890769" lon="1.489753369241953">
        <ele>2207.0300000000002</ele>
        <time>2025-07-13T09:57:04Z</time>
      </trkpt>
      <trkpt lat="42.634797915816307" lon="1.48975320160389">
        <ele>2209.8299999999999</ele>
        <time>2025-07-13T09:57:34Z</time>
      </trkpt>
      <trkpt lat="42.63483471237123" lon="1.489853030070663">
        <ele>2212.1599999999999</ele>
        <time>2025-07-13T09:57:53Z</time>
      </trkpt>
      <trkpt lat="42.634908305481076" lon="1.489925784990192">
        <ele>2214.3600000000001</ele>
        <time>2025-07-13T09:58:12Z</time>
      </trkpt>
      <trkpt lat="42.634997572749853" lon="1.489966353401542">
        <ele>2215.9400000000001</ele>
        <time>2025-07-13T09:58:30Z</time>
      </trkpt>
      <trkpt lat="42.635071333497763" lon="1.490033408626914">
        <ele>2218.48</ele>
        <time>2025-07-13T09:59:01Z</time>
      </trkpt>
      <trkpt lat="42.635137801989913" lon="1.490116976201534">
        <ele>2221.8499999999999</ele>
        <time>2025-07-13T09:59:27Z</time>
      </trkpt>
      <trkpt lat="42.635190021246672" lon="1.490211188793182">
        <ele>2224.73</ele>
        <time>2025-07-13T09:59:47Z</time>
      </trkpt>
      <trkpt lat="42.635235534980893" lon="1.490303976461291">
        <ele>2227.4000000000001</ele>
        <time>2025-07-13T10:00:09Z</time>
      </trkpt>
      <trkpt lat="42.635271744802594" lon="1.490401206538081">
        <ele>2230.1300000000001</ele>
        <time>2025-07-13T10:00:31Z</time>
      </trkpt>
      <trkpt lat="42.635333184152842" lon="1.490470608696342">
        <ele>2233.0100000000002</ele>
        <time>2025-07-13T10:00:58Z</time>
      </trkpt>
      <trkpt lat="42.635369393974543" lon="1.490454263985157">
        <ele>2236.0500000000002</ele>
        <time>2025-07-13T10:01:31Z</time>
      </trkpt>
      <trkpt lat="42.635406022891402" lon="1.490558283403516">
        <ele>2240.9499999999998</ele>
        <time>2025-07-13T10:02:13Z</time>
      </trkpt>
      <trkpt lat="42.635426893830299" lon="1.490682000294328">
        <ele>2242.8299999999999</ele>
        <time>2025-07-13T10:02:30Z</time>
      </trkpt>
      <trkpt lat="42.635456649586558" lon="1.49080571718514">
        <ele>2244.1999999999998</ele>
        <time>2025-07-13T10:02:45Z</time>
      </trkpt>
      <trkpt lat="42.635512137785554" lon="1.490859361365438">
        <ele>2246.7399999999998</ele>
        <time>2025-07-13T10:03:15Z</time>
      </trkpt>
      <trkpt lat="42.63553979806602" lon="1.490959189832211">
        <ele>2249.5300000000002</ele>
        <time>2025-07-13T10:04:02Z</time>
      </trkpt>
      <trkpt lat="42.635566284880042" lon="1.491075195372105">
        <ele>2250.5599999999999</ele>
        <time>2025-07-13T10:04:14Z</time>
      </trkpt>
      <trkpt lat="42.635585898533463" lon="1.491194721311331">
        <ele>2252.0799999999999</ele>
        <time>2025-07-13T10:04:25Z</time>
      </trkpt>
      <trkpt lat="42.635640883818269" lon="1.491250293329358">
        <ele>2254.48</ele>
        <time>2025-07-13T10:04:40Z</time>
      </trkpt>
      <trkpt lat="42.635693857446313" lon="1.491161109879613">
        <ele>2258.48</ele>
        <time>2025-07-13T10:05:04Z</time>
      </trkpt>
      <trkpt lat="42.635730318725109" lon="1.491056671366096">
        <ele>2262.1399999999999</ele>
        <time>2025-07-13T10:05:29Z</time>
      </trkpt>
      <trkpt lat="42.635816484689713" lon="1.491082906723023">
        <ele>2267.4699999999998</ele>
        <time>2025-07-13T10:06:07Z</time>
      </trkpt>
      <trkpt lat="42.635896950960159" lon="1.491055833175778">
        <ele>2267.6100000000001</ele>
        <time>2025-07-13T10:06:21Z</time>
      </trkpt>
      <trkpt lat="42.635942799970508" lon="1.491002775728703">
        <ele>2266.8299999999999</ele>
        <time>2025-07-13T10:07:23Z</time>
      </trkpt>
      <trkpt lat="42.636029468849301" lon="1.490970253944397">
        <ele>2266.54</ele>
        <time>2025-07-13T10:07:54Z</time>
      </trkpt>
      <trkpt lat="42.636113790795207" lon="1.490972433239222">
        <ele>2266.6100000000001</ele>
        <time>2025-07-13T10:09:04Z</time>
      </trkpt>
      <trkpt lat="42.636192580685019" lon="1.490936055779457">
        <ele>2263.8800000000001</ele>
        <time>2025-07-13T10:09:30Z</time>
      </trkpt>
      <trkpt lat="42.636275896802545" lon="1.490876292809844">
        <ele>2261.8299999999999</ele>
        <time>2025-07-13T10:09:43Z</time>
      </trkpt>
      <trkpt lat="42.636358710005879" lon="1.490841507911682">
        <ele>2259.9899999999998</ele>
        <time>2025-07-13T10:09:55Z</time>
      </trkpt>
      <trkpt lat="42.636448564007878" lon="1.490853913128376">
        <ele>2257.7600000000002</ele>
        <time>2025-07-13T10:10:09Z</time>
      </trkpt>
      <trkpt lat="42.636516289785504" lon="1.490831030532718">
        <ele>2255.3400000000001</ele>
        <time>2025-07-13T10:11:12Z</time>
      </trkpt>
      <trkpt lat="42.636585105210543" lon="1.490873778238893">
        <ele>2252.1300000000001</ele>
        <time>2025-07-13T10:11:30Z</time>
      </trkpt>
      <trkpt lat="42.636627433821559" lon="1.490957345813513">
        <ele>2249.7800000000002</ele>
        <time>2025-07-13T10:11:50Z</time>
      </trkpt>
      <trkpt lat="42.636706056073308" lon="1.49100755341351">
        <ele>2248.6900000000001</ele>
        <time>2025-07-13T10:12:15Z</time>
      </trkpt>
      <trkpt lat="42.636754252016544" lon="1.491118110716343">
        <ele>2248.6700000000001</ele>
        <time>2025-07-13T10:12:29Z</time>
      </trkpt>
      <trkpt lat="42.636803789064288" lon="1.491223135963082">
        <ele>2248.4699999999998</ele>
        <time>2025-07-13T10:12:42Z</time>
      </trkpt>
      <trkpt lat="42.636828934773803" lon="1.491336291655898">
        <ele>2247.4000000000001</ele>
        <time>2025-07-13T10:12:58Z</time>
      </trkpt>
      <trkpt lat="42.636916190385818" lon="1.4913534745574">
        <ele>2247.9400000000001</ele>
        <time>2025-07-13T10:13:24Z</time>
      </trkpt>
      <trkpt lat="42.636995064094663" lon="1.491337046027184">
        <ele>2249.3200000000002</ele>
        <time>2025-07-13T10:13:38Z</time>
      </trkpt>
      <trkpt lat="42.637010486796498" lon="1.491231098771095">
        <ele>2249.25</ele>
        <time>2025-07-13T10:13:52Z</time>
      </trkpt>
      <trkpt lat="42.6370017696172" lon="1.491233026608825">
        <ele>2249.27</ele>
        <time>2025-07-13T10:14:40Z</time>
      </trkpt>
      <trkpt lat="42.637081313878298" lon="1.491287928074598">
        <ele>2250.04</ele>
        <time>2025-07-13T10:15:06Z</time>
      </trkpt>
      <trkpt lat="42.637140825390816" lon="1.491365544497967">
        <ele>2249.79</ele>
        <time>2025-07-13T10:15:27Z</time>
      </trkpt>
      <trkpt lat="42.63722506351769" lon="1.491438802331686">
        <ele>2250.1300000000001</ele>
        <time>2025-07-13T10:16:24Z</time>
      </trkpt>
      <trkpt lat="42.637308044359088" lon="1.491501834243536">
        <ele>2250.54</ele>
        <time>2025-07-13T10:16:36Z</time>
      </trkpt>
      <trkpt lat="42.637396473437548" lon="1.491509880870581">
        <ele>2251.5599999999999</ele>
        <time>2025-07-13T10:16:47Z</time>
      </trkpt>
      <trkpt lat="42.637481968849897" lon="1.491465540602803">
        <ele>2252.0300000000002</ele>
        <time>2025-07-13T10:16:57Z</time>
      </trkpt>
      <trkpt lat="42.637551622465253" lon="1.49138180539012">
        <ele>2251.3899999999999</ele>
        <time>2025-07-13T10:17:09Z</time>
      </trkpt>
      <trkpt lat="42.637609541416168" lon="1.49131097830832">
        <ele>2250.1999999999998</ele>
        <time>2025-07-13T10:17:32Z</time>
      </trkpt>
      <trkpt lat="42.637678943574429" lon="1.491230428218842">
        <ele>2251.0300000000002</ele>
        <time>2025-07-13T10:17:49Z</time>
      </trkpt>
      <trkpt lat="42.637710878625512" lon="1.491109142079949">
        <ele>2251.8499999999999</ele>
        <time>2025-07-13T10:18:00Z</time>
      </trkpt>
      <trkpt lat="42.637767121195793" lon="1.491023479029536">
        <ele>2253.21</ele>
        <time>2025-07-13T10:18:12Z</time>
      </trkpt>
      <trkpt lat="42.637838954105973" lon="1.490949802100658">
        <ele>2254.4400000000001</ele>
        <time>2025-07-13T10:18:23Z</time>
      </trkpt>
      <trkpt lat="42.63789989054203" lon="1.490861205384135">
        <ele>2254.6300000000001</ele>
        <time>2025-07-13T10:18:33Z</time>
      </trkpt>
      <trkpt lat="42.637969376519322" lon="1.490768082439899">
        <ele>2256.1199999999999</ele>
        <time>2025-07-13T10:18:45Z</time>
      </trkpt>
      <trkpt lat="42.638023523613811" lon="1.490673031657934">
        <ele>2256.1700000000001</ele>
        <time>2025-07-13T10:18:56Z</time>
      </trkpt>
      <trkpt lat="42.638106252998114" lon="1.490614777430892">
        <ele>2257.5500000000002</ele>
        <time>2025-07-13T10:19:07Z</time>
      </trkpt>
      <trkpt lat="42.638154281303287" lon="1.49051352404058">
        <ele>2257.48</ele>
        <time>2025-07-13T10:19:17Z</time>
      </trkpt>
      <trkpt lat="42.638221587985754" lon="1.490421323105693">
        <ele>2258.0300000000002</ele>
        <time>2025-07-13T10:19:27Z</time>
      </trkpt>
      <trkpt lat="42.638299036771059" lon="1.490344209596515">
        <ele>2258.75</ele>
        <time>2025-07-13T10:19:39Z</time>
      </trkpt>
      <trkpt lat="42.638361481949687" lon="1.490253768861294">
        <ele>2258.96</ele>
        <time>2025-07-13T10:19:49Z</time>
      </trkpt>
      <trkpt lat="42.638427531346679" lon="1.490165675058961">
        <ele>2260.9000000000001</ele>
        <time>2025-07-13T10:20:06Z</time>
      </trkpt>
      <trkpt lat="42.638463489711285" lon="1.490061739459634">
        <ele>2261.96</ele>
        <time>2025-07-13T10:20:20Z</time>
      </trkpt>
      <trkpt lat="42.638508500531316" lon="1.489963419735432">
        <ele>2263.8699999999999</ele>
        <time>2025-07-13T10:20:36Z</time>
      </trkpt>
      <trkpt lat="42.638533227145672" lon="1.489844815805554">
        <ele>2266.2800000000002</ele>
        <time>2025-07-13T10:20:51Z</time>
      </trkpt>
      <trkpt lat="42.63853264041245" lon="1.489723864942789">
        <ele>2266.2399999999998</ele>
        <time>2025-07-13T10:21:01Z</time>
      </trkpt>
      <trkpt lat="42.638538675382733" lon="1.489606769755483">
        <ele>2268.1399999999999</ele>
        <time>2025-07-13T10:21:16Z</time>
      </trkpt>
      <trkpt lat="42.638592822477221" lon="1.489518508315086">
        <ele>2271.4899999999998</ele>
        <time>2025-07-13T10:21:44Z</time>
      </trkpt>
      <trkpt lat="42.638606652617455" lon="1.489396970719099">
        <ele>2273.73</ele>
        <time>2025-07-13T10:22:00Z</time>
      </trkpt>
      <trkpt lat="42.638657446950674" lon="1.489294376224279">
        <ele>2275.5700000000002</ele>
        <time>2025-07-13T10:22:15Z</time>
      </trkpt>
      <trkpt lat="42.638729112222791" lon="1.489242576062679">
        <ele>2277.02</ele>
        <time>2025-07-13T10:22:31Z</time>
      </trkpt>
      <trkpt lat="42.638821061700583" lon="1.489199660718441">
        <ele>2277.6199999999999</ele>
        <time>2025-07-13T10:22:43Z</time>
      </trkpt>
      <trkpt lat="42.63890496455133" lon="1.489150710403919">
        <ele>2279.0799999999999</ele>
        <time>2025-07-13T10:22:56Z</time>
      </trkpt>
      <trkpt lat="42.63896849937737" lon="1.489070076495409">
        <ele>2279.6300000000001</ele>
        <time>2025-07-13T10:23:09Z</time>
      </trkpt>
      <trkpt lat="42.639054078608751" lon="1.48901928216219">
        <ele>2281.3600000000001</ele>
        <time>2025-07-13T10:23:25Z</time>
      </trkpt>
      <trkpt lat="42.639121888205409" lon="1.488956920802593">
        <ele>2283.4499999999998</ele>
        <time>2025-07-13T10:23:42Z</time>
      </trkpt>
      <trkpt lat="42.639163043349981" lon="1.488844519481063">
        <ele>2285.1199999999999</ele>
        <time>2025-07-13T10:23:57Z</time>
      </trkpt>
      <trkpt lat="42.639213334769011" lon="1.488750893622637">
        <ele>2286.9400000000001</ele>
        <time>2025-07-13T10:24:13Z</time>
      </trkpt>
      <trkpt lat="42.639238815754652" lon="1.488637989386916">
        <ele>2288.48</ele>
        <time>2025-07-13T10:24:27Z</time>
      </trkpt>
      <trkpt lat="42.63929883018136" lon="1.488579567521811">
        <ele>2290.3600000000001</ele>
        <time>2025-07-13T10:25:05Z</time>
      </trkpt>
      <trkpt lat="42.639373764395714" lon="1.488503543660045">
        <ele>2293.3899999999999</ele>
        <time>2025-07-13T10:25:21Z</time>
      </trkpt>
      <trkpt lat="42.639459175989032" lon="1.488463645800948">
        <ele>2295.46</ele>
        <time>2025-07-13T10:25:36Z</time>
      </trkpt>
      <trkpt lat="42.639530086889863" lon="1.488388292491436">
        <ele>2296.7800000000002</ele>
        <time>2025-07-13T10:25:50Z</time>
      </trkpt>
      <trkpt lat="42.639612564817071" lon="1.488331714645028">
        <ele>2297.6500000000001</ele>
        <time>2025-07-13T10:26:03Z</time>
      </trkpt>
      <trkpt lat="42.639688337221742" lon="1.488273711875081">
        <ele>2298.5799999999999</ele>
        <time>2025-07-13T10:26:16Z</time>
      </trkpt>
      <trkpt lat="42.639764696359634" lon="1.48820380680263">
        <ele>2299.23</ele>
        <time>2025-07-13T10:26:32Z</time>
      </trkpt>
      <trkpt lat="42.639849353581667" lon="1.488158879801631">
        <ele>2299.79</ele>
        <time>2025-07-13T10:26:47Z</time>
      </trkpt>
      <trkpt lat="42.639928394928575" lon="1.48814219981432">
        <ele>2301.2399999999998</ele>
        <time>2025-07-13T10:27:04Z</time>
      </trkpt>
      <trkpt lat="42.639948176220059" lon="1.488032396882772">
        <ele>2302.2199999999998</ele>
        <time>2025-07-13T10:27:18Z</time>
      </trkpt>
      <trkpt lat="42.640025373548269" lon="1.48795360699296">
        <ele>2302.8299999999999</ele>
        <time>2025-07-13T10:27:40Z</time>
      </trkpt>
      <trkpt lat="42.640088824555278" lon="1.487860567867756">
        <ele>2302.75</ele>
        <time>2025-07-13T10:27:52Z</time>
      </trkpt>
      <trkpt lat="42.640153868123889" lon="1.487800385802984">
        <ele>2304.1700000000001</ele>
        <time>2025-07-13T10:30:01Z</time>
      </trkpt>
      <trkpt lat="42.640223857015371" lon="1.487859645858407">
        <ele>2304.75</ele>
        <time>2025-07-13T10:30:17Z</time>
      </trkpt>
      <trkpt lat="42.64031857252121" lon="1.487842965871096">
        <ele>2304.5599999999999</ele>
        <time>2025-07-13T10:30:29Z</time>
      </trkpt>
      <trkpt lat="42.640394596382976" lon="1.487842546775937">
        <ele>2304.3000000000002</ele>
        <time>2025-07-13T10:30:41Z</time>
      </trkpt>
      <trkpt lat="42.640490485355258" lon="1.487858891487122">
        <ele>2304.1599999999999</ele>
        <time>2025-07-13T10:30:51Z</time>
      </trkpt>
      <trkpt lat="42.640594504773617" lon="1.487864255905151">
        <ele>2305.1799999999998</ele>
        <time>2025-07-13T10:31:01Z</time>
      </trkpt>
      <trkpt lat="42.640681425109506" lon="1.487850174307823">
        <ele>2306.1399999999999</ele>
        <time>2025-07-13T10:31:10Z</time>
      </trkpt>
      <trkpt lat="42.640772201120853" lon="1.487842462956905">
        <ele>2306.5900000000001</ele>
        <time>2025-07-13T10:31:19Z</time>
      </trkpt>
      <trkpt lat="42.640856271609664" lon="1.487837936729193">
        <ele>2306.8800000000001</ele>
        <time>2025-07-13T10:31:28Z</time>
      </trkpt>
      <trkpt lat="42.640944616869092" lon="1.487836092710495">
        <ele>2307.1100000000001</ele>
        <time>2025-07-13T10:31:37Z</time>
      </trkpt>
      <trkpt lat="42.641030279919505" lon="1.48787540383637">
        <ele>2309.02</ele>
        <time>2025-07-13T10:31:49Z</time>
      </trkpt>
      <trkpt lat="42.641128934919834" lon="1.487862579524517">
        <ele>2310.0599999999999</ele>
        <time>2025-07-13T10:32:00Z</time>
      </trkpt>
      <trkpt lat="42.641222812235355" lon="1.487838104367256">
        <ele>2310.5999999999999</ele>
        <time>2025-07-13T10:32:10Z</time>
      </trkpt>
      <trkpt lat="42.641318617388606" lon="1.487854113802314">
        <ele>2311.04</ele>
        <time>2025-07-13T10:32:20Z</time>
      </trkpt>
      <trkpt lat="42.641413919627666" lon="1.48788713850081">
        <ele>2311.2199999999998</ele>
        <time>2025-07-13T10:32:30Z</time>
      </trkpt>
      <trkpt lat="42.641504947096109" lon="1.48789057508111">
        <ele>2311.6999999999998</ele>
        <time>2025-07-13T10:32:40Z</time>
      </trkpt>
      <trkpt lat="42.641593711450696" lon="1.487873811274767">
        <ele>2311.9299999999998</ele>
        <time>2025-07-13T10:32:49Z</time>
      </trkpt>
      <trkpt lat="42.641681721433997" lon="1.487887892872095">
        <ele>2312.7600000000002</ele>
        <time>2025-07-13T10:33:00Z</time>
      </trkpt>
      <trkpt lat="42.641765205189586" lon="1.48793701082468">
        <ele>2314.0100000000002</ele>
        <time>2025-07-13T10:33:10Z</time>
      </trkpt>
      <trkpt lat="42.641856819391251" lon="1.487913373857737">
        <ele>2315.0500000000002</ele>
        <time>2025-07-13T10:33:21Z</time>
      </trkpt>
      <trkpt lat="42.641949187964201" lon="1.487936759367585">
        <ele>2316.0999999999999</ele>
        <time>2025-07-13T10:33:32Z</time>
      </trkpt>
      <trkpt lat="42.642044154927135" lon="1.487960228696466">
        <ele>2316.7399999999998</ele>
        <time>2025-07-13T10:33:43Z</time>
      </trkpt>
      <trkpt lat="42.64214507304132" lon="1.487979758530855">
        <ele>2316.77</ele>
        <time>2025-07-13T10:33:54Z</time>
      </trkpt>
      <trkpt lat="42.642239285632968" lon="1.487989565357566">
        <ele>2317.8699999999999</ele>
        <time>2025-07-13T10:34:06Z</time>
      </trkpt>
      <trkpt lat="42.642323523759842" lon="1.488039772957563">
        <ele>2318.9699999999998</ele>
        <time>2025-07-13T10:34:18Z</time>
      </trkpt>
      <trkpt lat="42.642379263415933" lon="1.488118898123503">
        <ele>2320.3000000000002</ele>
        <time>2025-07-13T10:34:32Z</time>
      </trkpt>
      <trkpt lat="42.642444726079702" lon="1.488195592537522">
        <ele>2321.6399999999999</ele>
        <time>2025-07-13T10:34:46Z</time>
      </trkpt>
      <trkpt lat="42.642513709142804" lon="1.488267676904798">
        <ele>2322.75</ele>
        <time>2025-07-13T10:35:00Z</time>
      </trkpt>
      <trkpt lat="42.642586464062333" lon="1.488353172317147">
        <ele>2324.5700000000002</ele>
        <time>2025-07-13T10:35:13Z</time>
      </trkpt>
      <trkpt lat="42.642661398276687" lon="1.488433890044689">
        <ele>2326.4000000000001</ele>
        <time>2025-07-13T10:35:26Z</time>
      </trkpt>
      <trkpt lat="42.642749743536115" lon="1.488462472334504">
        <ele>2327.8499999999999</ele>
        <time>2025-07-13T10:35:41Z</time>
      </trkpt>
      <trkpt lat="42.642772709950805" lon="1.488433554768562">
        <ele>2327.8000000000002</ele>
        <time>2025-07-13T10:37:01Z</time>
      </trkpt>
      <trkpt lat="42.642834987491369" lon="1.488517792895436">
        <ele>2329.21</ele>
        <time>2025-07-13T10:37:21Z</time>
      </trkpt>
      <trkpt lat="42.64292006380856" lon="1.488580154255033">
        <ele>2330.5</ele>
        <time>2025-07-13T10:37:33Z</time>
      </trkpt>
      <trkpt lat="42.642994746565819" lon="1.488663805648685">
        <ele>2332.77</ele>
        <time>2025-07-13T10:37:48Z</time>
      </trkpt>
      <trkpt lat="42.643042104318738" lon="1.488748881965876">
        <ele>2334.2199999999998</ele>
        <time>2025-07-13T10:38:52Z</time>
      </trkpt>
      <trkpt lat="42.64304805546999" lon="1.488783666864038">
        <ele>2333.3800000000001</ele>
        <time>2025-07-13T11:04:39Z</time>
      </trkpt>
      <trkpt lat="42.643060879781842" lon="1.488809818401933">
        <ele>2333.5999999999999</ele>
        <time>2025-07-13T11:05:30Z</time>
      </trkpt>
      <trkpt lat="42.64305149205029" lon="1.488806214183569">
        <ele>2334.1799999999998</ele>
        <time>2025-07-13T11:06:24Z</time>
      </trkpt>
      <trkpt lat="42.643047133460641" lon="1.488822223618627">
        <ele>2333.6100000000001</ele>
        <time>2025-07-13T11:07:07Z</time>
      </trkpt>
      <trkpt lat="42.643070854246616" lon="1.488834545016289">
        <ele>2333</ele>
        <time>2025-07-13T11:07:58Z</time>
      </trkpt>
      <trkpt lat="42.643065741285682" lon="1.488813841715455">
        <ele>2332.8000000000002</ele>
        <time>2025-07-13T11:09:39Z</time>
      </trkpt>
      <trkpt lat="42.643067417666316" lon="1.488856924697757">
        <ele>2333.9699999999998</ele>
        <time>2025-07-13T11:10:13Z</time>
      </trkpt>
      <trkpt lat="42.643118966370821" lon="1.48894602432847">
        <ele>2334.8400000000001</ele>
        <time>2025-07-13T11:10:46Z</time>
      </trkpt>
      <trkpt lat="42.643132796511054" lon="1.489021712914109">
        <ele>2336.3499999999999</ele>
        <time>2025-07-13T11:10:58Z</time>
      </trkpt>
      <trkpt lat="42.643197840079665" lon="1.489082062616944">
        <ele>2337.75</ele>
        <time>2025-07-13T11:11:08Z</time>
      </trkpt>
      <trkpt lat="42.643254166468978" lon="1.489119445905089">
        <ele>2338.5500000000002</ele>
        <time>2025-07-13T11:11:18Z</time>
      </trkpt>
      <trkpt lat="42.643244611099362" lon="1.489186668768525">
        <ele>2339.6500000000001</ele>
        <time>2025-07-13T11:11:30Z</time>
      </trkpt>
      <trkpt lat="42.643273193389177" lon="1.489262692630291">
        <ele>2341.3099999999999</ele>
        <time>2025-07-13T11:11:43Z</time>
      </trkpt>
      <trkpt lat="42.643295656889677" lon="1.489320946857333">
        <ele>2342.77</ele>
        <time>2025-07-13T11:11:55Z</time>
      </trkpt>
      <trkpt lat="42.643342344090343" lon="1.489384565502405">
        <ele>2343.9499999999998</ele>
        <time>2025-07-13T11:12:04Z</time>
      </trkpt>
      <trkpt lat="42.643331279978156" lon="1.48942924104631">
        <ele>2345.5300000000002</ele>
        <time>2025-07-13T11:12:17Z</time>
      </trkpt>
      <trkpt lat="42.64339598827064" lon="1.489505348727107">
        <ele>2347.0500000000002</ele>
        <time>2025-07-13T11:12:36Z</time>
      </trkpt>
      <trkpt lat="42.643448878079653" lon="1.489565446972847">
        <ele>2348.4699999999998</ele>
        <time>2025-07-13T11:12:48Z</time>
      </trkpt>
      <trkpt lat="42.643502857536077" lon="1.489622192457318">
        <ele>2350.27</ele>
        <time>2025-07-13T11:13:00Z</time>
      </trkpt>
      <trkpt lat="42.643546359613538" lon="1.48968237452209">
        <ele>2351.5500000000002</ele>
        <time>2025-07-13T11:13:11Z</time>
      </trkpt>
      <trkpt lat="42.643593214452267" lon="1.489729648455977">
        <ele>2352.9099999999999</ele>
        <time>2025-07-13T11:13:23Z</time>
      </trkpt>
      <trkpt lat="42.643651217222214" lon="1.489817406982184">
        <ele>2354.5999999999999</ele>
        <time>2025-07-13T11:13:38Z</time>
      </trkpt>
      <trkpt lat="42.643721541389823" lon="1.4898597355932">
        <ele>2355.3200000000002</ele>
        <time>2025-07-13T11:13:48Z</time>
      </trkpt>
      <trkpt lat="42.643778119236231" lon="1.489916648715735">
        <ele>2357.25</ele>
        <time>2025-07-13T11:14:04Z</time>
      </trkpt>
      <trkpt lat="42.643832685425878" lon="1.490013543516398">
        <ele>2358.8499999999999</ele>
        <time>2025-07-13T11:14:19Z</time>
      </trkpt>
      <trkpt lat="42.643899070098996" lon="1.490097362548113">
        <ele>2360.7800000000002</ele>
        <time>2025-07-13T11:14:35Z</time>
      </trkpt>
      <trkpt lat="42.643969310447574" lon="1.490154694765806">
        <ele>2363.0500000000002</ele>
        <time>2025-07-13T11:14:51Z</time>
      </trkpt>
      <trkpt lat="42.64405514113605" lon="1.490191239863634">
        <ele>2364.52</ele>
        <time>2025-07-13T11:15:06Z</time>
      </trkpt>
      <trkpt lat="42.644129991531372" lon="1.490246811881661">
        <ele>2366.5700000000002</ele>
        <time>2025-07-13T11:15:24Z</time>
      </trkpt>
      <trkpt lat="42.644134098663926" lon="1.490265838801861">
        <ele>2367.6300000000001</ele>
        <time>2025-07-13T11:16:46Z</time>
      </trkpt>
      <trkpt lat="42.644159831106663" lon="1.490389555692673">
        <ele>2370.7600000000002</ele>
        <time>2025-07-13T11:17:02Z</time>
      </trkpt>
      <trkpt lat="42.644202327355742" lon="1.490493910387158">
        <ele>2373.8099999999999</ele>
        <time>2025-07-13T11:17:20Z</time>
      </trkpt>
      <trkpt lat="42.644251864403486" lon="1.490592816844583">
        <ele>2376.5900000000001</ele>
        <time>2025-07-13T11:17:38Z</time>
      </trkpt>
      <trkpt lat="42.644291929900646" lon="1.490700775757432">
        <ele>2379.4200000000001</ele>
        <time>2025-07-13T11:17:57Z</time>
      </trkpt>
      <trkpt lat="42.644354375079274" lon="1.490795072168112">
        <ele>2381.5700000000002</ele>
        <time>2025-07-13T11:18:17Z</time>
      </trkpt>
      <trkpt lat="42.644409360364079" lon="1.490880902856588">
        <ele>2384.0300000000002</ele>
        <time>2025-07-13T11:18:36Z</time>
      </trkpt>
      <trkpt lat="42.644469207152724" lon="1.490950472652912">
        <ele>2385.8200000000002</ele>
        <time>2025-07-13T11:18:54Z</time>
      </trkpt>
      <trkpt lat="42.644545398652554" lon="1.490995902568102">
        <ele>2388.3699999999999</ele>
        <time>2025-07-13T11:19:15Z</time>
      </trkpt>
      <trkpt lat="42.644563671201468" lon="1.49109304882586">
        <ele>2391.27</ele>
        <time>2025-07-13T11:19:38Z</time>
      </trkpt>
      <trkpt lat="42.644579680636525" lon="1.491172593086958">
        <ele>2394.6199999999999</ele>
        <time>2025-07-13T11:19:58Z</time>
      </trkpt>
      <trkpt lat="42.644557300955057" lon="1.491277366876602">
        <ele>2397.8600000000001</ele>
        <time>2025-07-13T11:20:26Z</time>
      </trkpt>
      <trkpt lat="42.64452813193202" lon="1.491363868117333">
        <ele>2400.5900000000001</ele>
        <time>2025-07-13T11:20:48Z</time>
      </trkpt>
      <trkpt lat="42.644609268754721" lon="1.491439137607813">
        <ele>2403.52</ele>
        <time>2025-07-13T11:21:12Z</time>
      </trkpt>
      <trkpt lat="42.644658889621496" lon="1.491533098742366">
        <ele>2407.21</ele>
        <time>2025-07-13T11:21:40Z</time>
      </trkpt>
      <trkpt lat="42.64469912275672" lon="1.491613732650876">
        <ele>2409.73</ele>
        <time>2025-07-13T11:22:10Z</time>
      </trkpt>
      <trkpt lat="42.644696859642863" lon="1.491674417629838">
        <ele>2412.8699999999999</ele>
        <time>2025-07-13T11:22:35Z</time>
      </trkpt>
      <trkpt lat="42.644738266244531" lon="1.491765445098281">
        <ele>2415.25</ele>
        <time>2025-07-13T11:22:57Z</time>
      </trkpt>
      <trkpt lat="42.644781600683928" lon="1.491862591356039">
        <ele>2417.4499999999998</ele>
        <time>2025-07-13T11:23:15Z</time>
      </trkpt>
      <trkpt lat="42.644853349775076" lon="1.491886479780078">
        <ele>2418.6900000000001</ele>
        <time>2025-07-13T11:23:32Z</time>
      </trkpt>
      <trkpt lat="42.644936498254538" lon="1.491838954389095">
        <ele>2419.98</ele>
        <time>2025-07-13T11:23:49Z</time>
      </trkpt>
      <trkpt lat="42.644973797723651" lon="1.491894442588091">
        <ele>2421.52</ele>
        <time>2025-07-13T11:25:08Z</time>
      </trkpt>
      <trkpt lat="42.645053593441844" lon="1.491875750944018">
        <ele>2421.29</ele>
        <time>2025-07-13T11:26:31Z</time>
      </trkpt>
      <trkpt lat="42.64514084905386" lon="1.491926964372397">
        <ele>2421.2199999999998</ele>
        <time>2025-07-13T11:26:41Z</time>
      </trkpt>
      <trkpt lat="42.645210083574057" lon="1.492017153650522">
        <ele>2421.6700000000001</ele>
        <time>2025-07-13T11:26:51Z</time>
      </trkpt>
      <trkpt lat="42.645295578986406" lon="1.492029223591089">
        <ele>2422.1500000000001</ele>
        <time>2025-07-13T11:27:01Z</time>
      </trkpt>
      <trkpt lat="42.645378476008773" lon="1.492014639079571">
        <ele>2422.3400000000001</ele>
        <time>2025-07-13T11:27:11Z</time>
      </trkpt>
      <trkpt lat="42.645462211221457" lon="1.492058308795095">
        <ele>2423.25</ele>
        <time>2025-07-13T11:27:22Z</time>
      </trkpt>
      <trkpt lat="42.645551646128297" lon="1.492089070379734">
        <ele>2424.3099999999999</ele>
        <time>2025-07-13T11:27:35Z</time>
      </trkpt>
      <trkpt lat="42.645617695525289" lon="1.492001228034496">
        <ele>2424.3000000000002</ele>
        <time>2025-07-13T11:27:45Z</time>
      </trkpt>
      <trkpt lat="42.645706627517939" lon="1.492000557482243">
        <ele>2424.75</ele>
        <time>2025-07-13T11:27:55Z</time>
      </trkpt>
      <trkpt lat="42.645791200920939" lon="1.491956552490592">
        <ele>2424.8800000000001</ele>
        <time>2025-07-13T11:28:06Z</time>
      </trkpt>
      <trkpt lat="42.645854316651821" lon="1.491865692660213">
        <ele>2427.1799999999998</ele>
        <time>2025-07-13T11:28:24Z</time>
      </trkpt>
      <trkpt lat="42.645942242816091" lon="1.491845576092601">
        <ele>2428.4200000000001</ele>
        <time>2025-07-13T11:28:41Z</time>
      </trkpt>
      <trkpt lat="42.646018685773015" lon="1.491842223331332">
        <ele>2429.6300000000001</ele>
        <time>2025-07-13T11:29:12Z</time>
      </trkpt>
      <trkpt lat="42.646117005497217" lon="1.49183576926589">
        <ele>2430.0900000000001</ele>
        <time>2025-07-13T11:29:22Z</time>
      </trkpt>
      <trkpt lat="42.646213732659817" lon="1.491814563050866">
        <ele>2431.0700000000002</ele>
        <time>2025-07-13T11:29:33Z</time>
      </trkpt>
      <trkpt lat="42.646311298012733" lon="1.491802912205458">
        <ele>2432.4099999999999</ele>
        <time>2025-07-13T11:29:47Z</time>
      </trkpt>
      <trkpt lat="42.646404840052128" lon="1.49178589694202">
        <ele>2434.0700000000002</ele>
        <time>2025-07-13T11:30:01Z</time>
      </trkpt>
      <trkpt lat="42.646502740681171" lon="1.49177466519177">
        <ele>2436.6100000000001</ele>
        <time>2025-07-13T11:30:15Z</time>
      </trkpt>
      <trkpt lat="42.646590750664473" lon="1.491799475625157">
        <ele>2437.2800000000002</ele>
        <time>2025-07-13T11:30:27Z</time>
      </trkpt>
      <trkpt lat="42.646672474220395" lon="1.491848090663552">
        <ele>2436.5100000000002</ele>
        <time>2025-07-13T11:30:37Z</time>
      </trkpt>
      <trkpt lat="42.646758137270808" lon="1.491850605234504">
        <ele>2437.0500000000002</ele>
        <time>2025-07-13T11:30:49Z</time>
      </trkpt>
      <trkpt lat="42.646842207759619" lon="1.49184750393033">
        <ele>2438.3200000000002</ele>
        <time>2025-07-13T11:31:01Z</time>
      </trkpt>
      <trkpt lat="42.646934157237411" lon="1.491840044036508">
        <ele>2437.98</ele>
        <time>2025-07-13T11:31:11Z</time>
      </trkpt>
      <trkpt lat="42.647021077573299" lon="1.491803331300616">
        <ele>2438.9299999999998</ele>
        <time>2025-07-13T11:31:22Z</time>
      </trkpt>
      <trkpt lat="42.647116295993328" lon="1.491798302158713">
        <ele>2440.5999999999999</ele>
        <time>2025-07-13T11:31:36Z</time>
      </trkpt>
      <trkpt lat="42.647214950993657" lon="1.491784052923322">
        <ele>2443.1199999999999</ele>
        <time>2025-07-13T11:31:50Z</time>
      </trkpt>
      <trkpt lat="42.647302793338895" lon="1.491732252761722">
        <ele>2444.6799999999998</ele>
        <time>2025-07-13T11:32:03Z</time>
      </trkpt>
      <trkpt lat="42.647390468046069" lon="1.491687074303627">
        <ele>2447.1399999999999</ele>
        <time>2025-07-13T11:32:27Z</time>
      </trkpt>
      <trkpt lat="42.647454170510173" lon="1.491670645773411">
        <ele>2448.7199999999998</ele>
        <time>2025-07-13T11:33:17Z</time>
      </trkpt>
      <trkpt lat="42.647552825510502" lon="1.491688499227166">
        <ele>2449.8600000000001</ele>
        <time>2025-07-13T11:33:30Z</time>
      </trkpt>
      <trkpt lat="42.647579563781619" lon="1.491782125085592">
        <ele>2450.8800000000001</ele>
        <time>2025-07-13T11:34:00Z</time>
      </trkpt>
      <trkpt lat="42.647630274295807" lon="1.491887904703617">
        <ele>2450.9200000000001</ele>
        <time>2025-07-13T11:34:13Z</time>
      </trkpt>
      <trkpt lat="42.647670255973935" lon="1.49199946783483">
        <ele>2453.3400000000001</ele>
        <time>2025-07-13T11:34:28Z</time>
      </trkpt>
      <trkpt lat="42.647640584036708" lon="1.492118323221803">
        <ele>2456.1900000000001</ele>
        <time>2025-07-13T11:34:44Z</time>
      </trkpt>
      <trkpt lat="42.647696910426021" lon="1.49217733182013">
        <ele>2459.0700000000002</ele>
        <time>2025-07-13T11:35:03Z</time>
      </trkpt>
      <trkpt lat="42.647777879610658" lon="1.492249332368374">
        <ele>2461.2600000000002</ele>
        <time>2025-07-13T11:35:22Z</time>
      </trkpt>
      <trkpt lat="42.64787913300097" lon="1.492281267419457">
        <ele>2463.6599999999999</ele>
        <time>2025-07-13T11:35:39Z</time>
      </trkpt>
      <trkpt lat="42.647958425804973" lon="1.492302976548672">
        <ele>2465</ele>
        <time>2025-07-13T11:35:57Z</time>
      </trkpt>
      <trkpt lat="42.6480364613235" lon="1.492274394258857">
        <ele>2466.25</ele>
        <time>2025-07-13T11:36:12Z</time>
      </trkpt>
      <trkpt lat="42.648124722763896" lon="1.492267353460193">
        <ele>2467.2800000000002</ele>
        <time>2025-07-13T11:36:27Z</time>
      </trkpt>
      <trkpt lat="42.648220947012305" lon="1.492255618795753">
        <ele>2468.9499999999998</ele>
        <time>2025-07-13T11:36:43Z</time>
      </trkpt>
      <trkpt lat="42.648219941183925" lon="1.492360644042492">
        <ele>2472.73</ele>
        <time>2025-07-13T11:37:08Z</time>
      </trkpt>
      <trkpt lat="42.648281883448362" lon="1.492453515529633">
        <ele>2477.1999999999998</ele>
        <time>2025-07-13T11:37:41Z</time>
      </trkpt>
      <trkpt lat="42.648378191515803" lon="1.492483774200082">
        <ele>2479.29</ele>
        <time>2025-07-13T11:38:20Z</time>
      </trkpt>
      <trkpt lat="42.648429572582245" lon="1.492582680657506">
        <ele>2481.8499999999999</ele>
        <time>2025-07-13T11:38:36Z</time>
      </trkpt>
      <trkpt lat="42.648473912850022" lon="1.49269231595099">
        <ele>2483.6999999999998</ele>
        <time>2025-07-13T11:38:54Z</time>
      </trkpt>
      <trkpt lat="42.648505009710789" lon="1.492786109447479">
        <ele>2486.0100000000002</ele>
        <time>2025-07-13T11:39:12Z</time>
      </trkpt>
      <trkpt lat="42.648551361635327" lon="1.492871269583702">
        <ele>2489</ele>
        <time>2025-07-13T11:39:40Z</time>
      </trkpt>
      <trkpt lat="42.648590505123138" lon="1.49297084659338">
        <ele>2491.0900000000001</ele>
        <time>2025-07-13T11:39:57Z</time>
      </trkpt>
      <trkpt lat="42.648657895624638" lon="1.493028765544295">
        <ele>2493.8000000000002</ele>
        <time>2025-07-13T11:40:18Z</time>
      </trkpt>
      <trkpt lat="42.648723609745502" lon="1.493066567927599">
        <ele>2496.0700000000002</ele>
        <time>2025-07-13T11:42:11Z</time>
      </trkpt>
      <trkpt lat="42.648819414898753" lon="1.493083080276847">
        <ele>2499.77</ele>
        <time>2025-07-13T11:42:42Z</time>
      </trkpt>
      <trkpt lat="42.648872723802924" lon="1.492986353114247">
        <ele>2502.1999999999998</ele>
        <time>2025-07-13T11:43:01Z</time>
      </trkpt>
      <trkpt lat="42.648934414610267" lon="1.492932289838791">
        <ele>2504.3699999999999</ele>
        <time>2025-07-13T11:43:21Z</time>
      </trkpt>
      <trkpt lat="42.649023681879044" lon="1.492874706164002">
        <ele>2507.6700000000001</ele>
        <time>2025-07-13T11:43:48Z</time>
      </trkpt>
      <trkpt lat="42.649072716012597" lon="1.492775212973356">
        <ele>2510.2399999999998</ele>
        <time>2025-07-13T11:44:14Z</time>
      </trkpt>
      <trkpt lat="42.649124767631292" lon="1.492673540487886">
        <ele>2513.21</ele>
        <time>2025-07-13T11:44:38Z</time>
      </trkpt>
      <trkpt lat="42.649171957746148" lon="1.492563067004085">
        <ele>2514.1199999999999</ele>
        <time>2025-07-13T11:44:55Z</time>
      </trkpt>
      <trkpt lat="42.649249909445643" lon="1.492520486935973">
        <ele>2516.1799999999998</ele>
        <time>2025-07-13T11:45:16Z</time>
      </trkpt>
      <trkpt lat="42.649301290512085" lon="1.492423508316279">
        <ele>2516.6999999999998</ele>
        <time>2025-07-13T11:45:38Z</time>
      </trkpt>
      <trkpt lat="42.649356778711081" lon="1.49233415722847">
        <ele>2518.2399999999998</ele>
        <time>2025-07-13T11:45:59Z</time>
      </trkpt>
      <trkpt lat="42.649395670741796" lon="1.492232149466872">
        <ele>2520.1199999999999</ele>
        <time>2025-07-13T11:46:20Z</time>
      </trkpt>
      <trkpt lat="42.64943833462894" lon="1.492150342091918">
        <ele>2522</ele>
        <time>2025-07-13T11:46:54Z</time>
      </trkpt>
      <trkpt lat="42.649492062628269" lon="1.492092255502939">
        <ele>2524.0599999999999</ele>
        <time>2025-07-13T11:47:14Z</time>
      </trkpt>
      <trkpt lat="42.649527685716748" lon="1.491980524733663">
        <ele>2525.8000000000002</ele>
        <time>2025-07-13T11:47:33Z</time>
      </trkpt>
      <trkpt lat="42.649560961872339" lon="1.491877092048526">
        <ele>2528.48</ele>
        <time>2025-07-13T11:47:53Z</time>
      </trkpt>
      <trkpt lat="42.649568757042289" lon="1.491771228611469">
        <ele>2530.4400000000001</ele>
        <time>2025-07-13T11:49:26Z</time>
      </trkpt>
      <trkpt lat="42.649633549153805" lon="1.491682631894946">
        <ele>2536.02</ele>
        <time>2025-07-13T11:50:16Z</time>
      </trkpt>
      <trkpt lat="42.649701861664653" lon="1.491613062098622">
        <ele>2537.9000000000001</ele>
        <time>2025-07-13T11:51:01Z</time>
      </trkpt>
      <trkpt lat="42.649764306843281" lon="1.491546258330345">
        <ele>2539.5</ele>
        <time>2025-07-13T11:51:26Z</time>
      </trkpt>
      <trkpt lat="42.649842090904713" lon="1.491525052115321">
        <ele>2541.7399999999998</ele>
        <time>2025-07-13T11:51:52Z</time>
      </trkpt>
      <trkpt lat="42.649931777268648" lon="1.491516334936023">
        <ele>2545.0100000000002</ele>
        <time>2025-07-13T11:52:19Z</time>
      </trkpt>
      <trkpt lat="42.649985253810883" lon="1.491433354094625">
        <ele>2546.8200000000002</ele>
        <time>2025-07-13T11:52:57Z</time>
      </trkpt>
      <trkpt lat="42.650037137791514" lon="1.491348026320338">
        <ele>2552.3299999999999</ele>
        <time>2025-07-13T11:53:30Z</time>
      </trkpt>
      <trkpt lat="42.650099247694016" lon="1.491229590028524">
        <ele>2558.73</ele>
        <time>2025-07-13T11:54:27Z</time>
      </trkpt>
      <trkpt lat="42.650147192180157" lon="1.491142669692636">
        <ele>2562.25</ele>
        <time>2025-07-13T11:55:25Z</time>
      </trkpt>
      <trkpt lat="42.650162782520056" lon="1.491006044670939">
        <ele>2562.1700000000001</ele>
        <time>2025-07-13T11:55:38Z</time>
      </trkpt>
      <trkpt lat="42.650192035362124" lon="1.490889955312014">
        <ele>2562.8099999999999</ele>
        <time>2025-07-13T11:56:29Z</time>
      </trkpt>
      <trkpt lat="42.650242913514376" lon="1.490786774083972">
        <ele>2564.54</ele>
        <time>2025-07-13T11:56:43Z</time>
      </trkpt>
      <trkpt lat="42.650287253782153" lon="1.49069239385426">
        <ele>2565.6199999999999</ele>
        <time>2025-07-13T11:56:57Z</time>
      </trkpt>
      <trkpt lat="42.650322122499347" lon="1.490575550124049">
        <ele>2566.5599999999999</ele>
        <time>2025-07-13T11:57:09Z</time>
      </trkpt>
      <trkpt lat="42.650364032015204" lon="1.490483684465289">
        <ele>2567.71</ele>
        <time>2025-07-13T11:57:22Z</time>
      </trkpt>
      <trkpt lat="42.650413820520043" lon="1.490394584834576">
        <ele>2568.7600000000002</ele>
        <time>2025-07-13T11:57:35Z</time>
      </trkpt>
      <trkpt lat="42.650457238778472" lon="1.490282770246267">
        <ele>2569.9699999999998</ele>
        <time>2025-07-13T11:57:51Z</time>
      </trkpt>
      <trkpt lat="42.650508368387818" lon="1.490180511027575">
        <ele>2571.6700000000001</ele>
        <time>2025-07-13T11:58:11Z</time>
      </trkpt>
      <trkpt lat="42.650561593472958" lon="1.490085711702704">
        <ele>2573.25</ele>
        <time>2025-07-13T11:58:26Z</time>
      </trkpt>
      <trkpt lat="42.650607442483306" lon="1.489975405856967">
        <ele>2574.1100000000001</ele>
        <time>2025-07-13T11:58:41Z</time>
      </trkpt>
      <trkpt lat="42.650672737509012" lon="1.48990323767066">
        <ele>2576.0599999999999</ele>
        <time>2025-07-13T11:58:57Z</time>
      </trkpt>
      <trkpt lat="42.650729482993484" lon="1.489802906289697">
        <ele>2576.9000000000001</ele>
        <time>2025-07-13T11:59:17Z</time>
      </trkpt>
      <trkpt lat="42.650775164365768" lon="1.48969603702426">
        <ele>2577.8899999999999</ele>
        <time>2025-07-13T11:59:35Z</time>
      </trkpt>
      <trkpt lat="42.650812296196818" lon="1.489595957100391">
        <ele>2579.71</ele>
        <time>2025-07-13T11:59:56Z</time>
      </trkpt>
      <trkpt lat="42.650836687535048" lon="1.489488249644637">
        <ele>2582.6199999999999</ele>
        <time>2025-07-13T12:00:22Z</time>
      </trkpt>
      <trkpt lat="42.65086954459548" lon="1.489388253539801">
        <ele>2583.5100000000002</ele>
        <time>2025-07-13T12:00:44Z</time>
      </trkpt>
      <trkpt lat="42.65092084184289" lon="1.489331759512425">
        <ele>2585.5100000000002</ele>
        <time>2025-07-13T12:01:05Z</time>
      </trkpt>
      <trkpt lat="42.65097314491868" lon="1.489248778671026">
        <ele>2588.5900000000001</ele>
        <time>2025-07-13T12:01:29Z</time>
      </trkpt>
      <trkpt lat="42.650987142696977" lon="1.489149872213602">
        <ele>2591.98</ele>
        <time>2025-07-13T12:02:41Z</time>
      </trkpt>
      <trkpt lat="42.651006253436208" lon="1.489045601338148">
        <ele>2593.9000000000001</ele>
        <time>2025-07-13T12:04:38Z</time>
      </trkpt>
      <trkpt lat="42.651047157123685" lon="1.48896605707705">
        <ele>2597.3000000000002</ele>
        <time>2025-07-13T12:05:08Z</time>
      </trkpt>
      <trkpt lat="42.651088982820511" lon="1.48884485475719">
        <ele>2599.79</ele>
        <time>2025-07-13T12:05:36Z</time>
      </trkpt>
      <trkpt lat="42.651148242875934" lon="1.48875885643065">
        <ele>2603.0100000000002</ele>
        <time>2025-07-13T12:05:58Z</time>
      </trkpt>
      <trkpt lat="42.651158720254898" lon="1.48865039460361">
        <ele>2607.52</ele>
        <time>2025-07-13T12:06:33Z</time>
      </trkpt>
      <trkpt lat="42.651227116584778" lon="1.488584093749523">
        <ele>2613.3200000000002</ele>
        <time>2025-07-13T12:07:18Z</time>
      </trkpt>
      <trkpt lat="42.651260057464242" lon="1.488478062674403">
        <ele>2618.6599999999999</ele>
        <time>2025-07-13T12:08:06Z</time>
      </trkpt>
      <trkpt lat="42.651311689987779" lon="1.4883987698704">
        <ele>2621.2199999999998</ele>
        <time>2025-07-13T12:08:50Z</time>
      </trkpt>
      <trkpt lat="42.651373632252216" lon="1.488303886726499">
        <ele>2623.7199999999998</ele>
        <time>2025-07-13T12:09:11Z</time>
      </trkpt>
      <trkpt lat="42.651438005268574" lon="1.488207411020994">
        <ele>2625.7800000000002</ele>
        <time>2025-07-13T12:09:34Z</time>
      </trkpt>
      <trkpt lat="42.651494583114982" lon="1.488233730196953">
        <ele>2629.6799999999998</ele>
        <time>2025-07-13T12:10:03Z</time>
      </trkpt>
      <trkpt lat="42.651564991101623" lon="1.488156029954553">
        <ele>2635.1199999999999</ele>
        <time>2025-07-13T12:11:12Z</time>
      </trkpt>
      <trkpt lat="42.651630872860551" lon="1.488111857324839">
        <ele>2639.7600000000002</ele>
        <time>2025-07-13T12:11:38Z</time>
      </trkpt>
      <trkpt lat="42.651674291118979" lon="1.488075731322169">
        <ele>2645.02</ele>
        <time>2025-07-13T12:12:16Z</time>
      </trkpt>
      <trkpt lat="42.651734221726656" lon="1.488107498735189">
        <ele>2649.75</ele>
        <time>2025-07-13T12:12:59Z</time>
      </trkpt>
      <trkpt lat="42.651791134849191" lon="1.488022590056062">
        <ele>2654.2600000000002</ele>
        <time>2025-07-13T12:13:37Z</time>
      </trkpt>
      <trkpt lat="42.65181845985353" lon="1.488001635298133">
        <ele>2658.54</ele>
        <time>2025-07-13T12:14:45Z</time>
      </trkpt>
      <trkpt lat="42.651892555877566" lon="1.488003060221672">
        <ele>2664.02</ele>
        <time>2025-07-13T12:15:09Z</time>
      </trkpt>
      <trkpt lat="42.65192742459476" lon="1.488100541755557">
        <ele>2668.6999999999998</ele>
        <time>2025-07-13T12:16:32Z</time>
      </trkpt>
      <trkpt lat="42.651913007721305" lon="1.488154185935855">
        <ele>2668.7199999999998</ele>
        <time>2025-07-13T12:20:08Z</time>
      </trkpt>
      <trkpt lat="42.65193379484117" lon="1.488154269754887">
        <ele>2673.3000000000002</ele>
        <time>2025-07-13T12:33:21Z</time>
      </trkpt>
      <trkpt lat="42.651936141774058" lon="1.488158041611314">
        <ele>2674.5500000000002</ele>
        <time>2025-07-13T12:38:02Z</time>
      </trkpt>
      <trkpt lat="42.651938740164042" lon="1.488150916993618">
        <ele>2675.3899999999999</ele>
        <time>2025-07-13T12:40:05Z</time>
      </trkpt>
      <trkpt lat="42.651928514242172" lon="1.488187378272414">
        <ele>2676.5599999999999</ele>
        <time>2025-07-13T12:50:27Z</time>
      </trkpt>
      <trkpt lat="42.65191376209259" lon="1.488171787932515">
        <ele>2677.21</ele>
        <time>2025-07-13T12:54:18Z</time>
      </trkpt>
      <trkpt lat="42.651922479271889" lon="1.488124849274755">
        <ele>2677.9400000000001</ele>
        <time>2025-07-13T12:55:43Z</time>
      </trkpt>
      <trkpt lat="42.651914767920971" lon="1.488145384937525">
        <ele>2679.0700000000002</ele>
        <time>2025-07-13T12:57:43Z</time>
      </trkpt>
      <trkpt lat="42.65195969492197" lon="1.488213194534183">
        <ele>2676.2399999999998</ele>
        <time>2025-07-13T12:58:34Z</time>
      </trkpt>
      <trkpt lat="42.652011914178729" lon="1.488241525366902">
        <ele>2674.1900000000001</ele>
        <time>2025-07-13T12:59:07Z</time>
      </trkpt>
      <trkpt lat="42.652089530602098" lon="1.488235909491777">
        <ele>2669.3600000000001</ele>
        <time>2025-07-13T12:59:31Z</time>
      </trkpt>
      <trkpt lat="42.652146527543664" lon="1.488190898671746">
        <ele>2664.3800000000001</ele>
        <time>2025-07-13T13:00:02Z</time>
      </trkpt>
      <trkpt lat="42.652130099013448" lon="1.488052094355226">
        <ele>2661.8899999999999</ele>
        <time>2025-07-13T13:00:24Z</time>
      </trkpt>
      <trkpt lat="42.652172092348337" lon="1.488004568964243">
        <ele>2659.29</ele>
        <time>2025-07-13T13:00:42Z</time>
      </trkpt>
      <trkpt lat="42.652190700173378" lon="1.487942961975932">
        <ele>2656.2800000000002</ele>
        <time>2025-07-13T13:01:00Z</time>
      </trkpt>
      <trkpt lat="42.652222299948335" lon="1.487913709133863">
        <ele>2651.75</ele>
        <time>2025-07-13T13:01:40Z</time>
      </trkpt>
      <trkpt lat="42.652283404022455" lon="1.487983362749219">
        <ele>2648.1599999999999</ele>
        <time>2025-07-13T13:02:00Z</time>
      </trkpt>
      <trkpt lat="42.65234274789691" lon="1.487975232303143">
        <ele>2644.2600000000002</ele>
        <time>2025-07-13T13:03:39Z</time>
      </trkpt>
      <trkpt lat="42.652409384027123" lon="1.488049915060401">
        <ele>2639.6100000000001</ele>
        <time>2025-07-13T13:04:18Z</time>
      </trkpt>
      <trkpt lat="42.652438720688224" lon="1.487933238968253">
        <ele>2635.8499999999999</ele>
        <time>2025-07-13T13:04:39Z</time>
      </trkpt>
      <trkpt lat="42.652489682659507" lon="1.487952182069421">
        <ele>2632.21</ele>
        <time>2025-07-13T13:05:02Z</time>
      </trkpt>
      <trkpt lat="42.652534106746316" lon="1.487951427698135">
        <ele>2628.73</ele>
        <time>2025-07-13T13:05:20Z</time>
      </trkpt>
      <trkpt lat="42.652612393721938" lon="1.487933406606317">
        <ele>2624.1399999999999</ele>
        <time>2025-07-13T13:05:38Z</time>
      </trkpt>
      <trkpt lat="42.652611136436462" lon="1.487838942557573">
        <ele>2621.1100000000001</ele>
        <time>2025-07-13T13:05:57Z</time>
      </trkpt>
      <trkpt lat="42.652612226083875" lon="1.48778504692018">
        <ele>2618.5799999999999</ele>
        <time>2025-07-13T13:06:22Z</time>
      </trkpt>
      <trkpt lat="42.652630330994725" lon="1.487764175981283">
        <ele>2614.9299999999998</ele>
        <time>2025-07-13T13:06:44Z</time>
      </trkpt>
      <trkpt lat="42.652626223862171" lon="1.487690666690469">
        <ele>2611.8800000000001</ele>
        <time>2025-07-13T13:07:03Z</time>
      </trkpt>
      <trkpt lat="42.652698559686542" lon="1.487684715539217">
        <ele>2608.6399999999999</ele>
        <time>2025-07-13T13:07:26Z</time>
      </trkpt>
      <trkpt lat="42.652715742588043" lon="1.487653031945229">
        <ele>2605.6599999999999</ele>
        <time>2025-07-13T13:07:44Z</time>
      </trkpt>
      <trkpt lat="42.652714652940631" lon="1.487595029175282">
        <ele>2602.9099999999999</ele>
        <time>2025-07-13T13:08:01Z</time>
      </trkpt>
      <trkpt lat="42.652683053165674" lon="1.48754607886076">
        <ele>2601.27</ele>
        <time>2025-07-13T13:08:13Z</time>
      </trkpt>
      <trkpt lat="42.65276393853128" lon="1.487601231783629">
        <ele>2598.6300000000001</ele>
        <time>2025-07-13T13:08:36Z</time>
      </trkpt>
      <trkpt lat="42.652746420353651" lon="1.487480700016022">
        <ele>2595.4000000000001</ele>
        <time>2025-07-13T13:08:50Z</time>
      </trkpt>
      <trkpt lat="42.652774415910244" lon="1.487446250393987">
        <ele>2592.29</ele>
        <time>2025-07-13T13:09:06Z</time>
      </trkpt>
      <trkpt lat="42.652866784483194" lon="1.487479358911514">
        <ele>2589.5799999999999</ele>
        <time>2025-07-13T13:09:23Z</time>
      </trkpt>
      <trkpt lat="42.652939120307565" lon="1.487514730542898">
        <ele>2587.1100000000001</ele>
        <time>2025-07-13T13:09:49Z</time>
      </trkpt>
      <trkpt lat="42.653013803064823" lon="1.487575834617019">
        <ele>2584.1599999999999</ele>
        <time>2025-07-13T13:10:15Z</time>
      </trkpt>
      <trkpt lat="42.653086055070162" lon="1.487642638385296">
        <ele>2580.0599999999999</ele>
        <time>2025-07-13T13:10:39Z</time>
      </trkpt>
      <trkpt lat="42.653159312903881" lon="1.487706676125526">
        <ele>2575.8200000000002</ele>
        <time>2025-07-13T13:10:58Z</time>
      </trkpt>
      <trkpt lat="42.65321739949286" lon="1.487786388024688">
        <ele>2572.9899999999998</ele>
        <time>2025-07-13T13:11:17Z</time>
      </trkpt>
      <trkpt lat="42.65330976806581" lon="1.487823938950896">
        <ele>2568.9099999999999</ele>
        <time>2025-07-13T13:11:31Z</time>
      </trkpt>
      <trkpt lat="42.653394844383001" lon="1.487823436036706">
        <ele>2564.7399999999998</ele>
        <time>2025-07-13T13:11:49Z</time>
      </trkpt>
      <trkpt lat="42.653467683121562" lon="1.48783533833921">
        <ele>2561.1599999999999</ele>
        <time>2025-07-13T13:12:04Z</time>
      </trkpt>
      <trkpt lat="42.653514873236418" lon="1.48775864392519">
        <ele>2556.9099999999999</ele>
        <time>2025-07-13T13:12:28Z</time>
      </trkpt>
      <trkpt lat="42.653593495488167" lon="1.487734001129866">
        <ele>2552.0700000000002</ele>
        <time>2025-07-13T13:12:47Z</time>
      </trkpt>
      <trkpt lat="42.653653677552938" lon="1.487674573436379">
        <ele>2547.2600000000002</ele>
        <time>2025-07-13T13:13:13Z</time>
      </trkpt>
      <trkpt lat="42.653698185458779" lon="1.487613385543227">
        <ele>2543.98</ele>
        <time>2025-07-13T13:13:27Z</time>
      </trkpt>
      <trkpt lat="42.653760462999344" lon="1.487559992820025">
        <ele>2540.0100000000002</ele>
        <time>2025-07-13T13:13:47Z</time>
      </trkpt>
      <trkpt lat="42.653810000047088" lon="1.4875060133636">
        <ele>2536</ele>
        <time>2025-07-13T13:14:04Z</time>
      </trkpt>
      <trkpt lat="42.653872864320874" lon="1.487465696409345">
        <ele>2532.4099999999999</ele>
        <time>2025-07-13T13:14:20Z</time>
      </trkpt>
      <trkpt lat="42.653961963951588" lon="1.487519927322865">
        <ele>2528.27</ele>
        <time>2025-07-13T13:14:35Z</time>
      </trkpt>
      <trkpt lat="42.654029270634055" lon="1.487542223185301">
        <ele>2524.71</ele>
        <time>2025-07-13T13:16:22Z</time>
      </trkpt>
      <trkpt lat="42.654083669185638" lon="1.487426133826375">
        <ele>2521.3200000000002</ele>
        <time>2025-07-13T13:16:36Z</time>
      </trkpt>
      <trkpt lat="42.654132284224033" lon="1.487338459119201">
        <ele>2518.0300000000002</ele>
        <time>2025-07-13T13:16:49Z</time>
      </trkpt>
      <trkpt lat="42.654201854020357" lon="1.487295040860772">
        <ele>2514.3000000000002</ele>
        <time>2025-07-13T13:17:02Z</time>
      </trkpt>
      <trkpt lat="42.654259689152241" lon="1.487214071676135">
        <ele>2511.4000000000001</ele>
        <time>2025-07-13T13:17:31Z</time>
      </trkpt>
      <trkpt lat="42.654240410774946" lon="1.48723335005343">
        <ele>2510.3499999999999</ele>
        <time>2025-07-13T13:19:03Z</time>
      </trkpt>
      <trkpt lat="42.654301933944225" lon="1.487189177423716">
        <ele>2508.3299999999999</ele>
        <time>2025-07-13T13:19:37Z</time>
      </trkpt>
      <trkpt lat="42.65435834415257" lon="1.487135281786323">
        <ele>2505.3200000000002</ele>
        <time>2025-07-13T13:20:39Z</time>
      </trkpt>
      <trkpt lat="42.65434761531651" lon="1.48715422488749">
        <ele>2504.6599999999999</ele>
        <time>2025-07-13T13:23:12Z</time>
      </trkpt>
      <trkpt lat="42.65441307798028" lon="1.48711659014225">
        <ele>2503.6500000000001</ele>
        <time>2025-07-13T13:25:01Z</time>
      </trkpt>
      <trkpt lat="42.654484743252397" lon="1.487092534080148">
        <ele>2501.4899999999998</ele>
        <time>2025-07-13T13:25:18Z</time>
      </trkpt>
      <trkpt lat="42.654564706608653" lon="1.487045846879482">
        <ele>2498.29</ele>
        <time>2025-07-13T13:25:41Z</time>
      </trkpt>
      <trkpt lat="42.654656991362572" lon="1.487020030617714">
        <ele>2495.23</ele>
        <time>2025-07-13T13:25:59Z</time>
      </trkpt>
      <trkpt lat="42.654741397127509" lon="1.487009804695845">
        <ele>2492.6300000000001</ele>
        <time>2025-07-13T13:26:16Z</time>
      </trkpt>
      <trkpt lat="42.654818007722497" lon="1.486976779997349">
        <ele>2490.0500000000002</ele>
        <time>2025-07-13T13:26:46Z</time>
      </trkpt>
      <trkpt lat="42.65489780344069" lon="1.486947946250439">
        <ele>2486.8099999999999</ele>
        <time>2025-07-13T13:27:05Z</time>
      </trkpt>
      <trkpt lat="42.654986316338181" lon="1.486917939037085">
        <ele>2484.5900000000001</ele>
        <time>2025-07-13T13:27:21Z</time>
      </trkpt>
      <trkpt lat="42.655070554465055" lon="1.486879717558622">
        <ele>2481.8000000000002</ele>
        <time>2025-07-13T13:27:57Z</time>
      </trkpt>
      <trkpt lat="42.655109697952867" lon="1.48677452467382">
        <ele>2479.8099999999999</ele>
        <time>2025-07-13T13:28:11Z</time>
      </trkpt>
      <trkpt lat="42.65512210316956" lon="1.486657513305545">
        <ele>2477.0100000000002</ele>
        <time>2025-07-13T13:28:28Z</time>
      </trkpt>
      <trkpt lat="42.65514993108809" lon="1.486570425331593">
        <ele>2474.6799999999998</ele>
        <time>2025-07-13T13:28:49Z</time>
      </trkpt>
      <trkpt lat="42.655214555561543" lon="1.486509488895536">
        <ele>2471.52</ele>
        <time>2025-07-13T13:29:06Z</time>
      </trkpt>
      <trkpt lat="42.655222518369555" lon="1.486387699842453">
        <ele>2468</ele>
        <time>2025-07-13T13:29:23Z</time>
      </trkpt>
      <trkpt lat="42.655219165608287" lon="1.486279405653477">
        <ele>2464.1999999999998</ele>
        <time>2025-07-13T13:29:45Z</time>
      </trkpt>
      <trkpt lat="42.655268032103777" lon="1.486207908019424">
        <ele>2461.1399999999999</ele>
        <time>2025-07-13T13:30:07Z</time>
      </trkpt>
      <trkpt lat="42.655277252197266" lon="1.486107241362333">
        <ele>2459.0300000000002</ele>
        <time>2025-07-13T13:30:21Z</time>
      </trkpt>
      <trkpt lat="42.655362328514457" lon="1.486066170036793">
        <ele>2455.98</ele>
        <time>2025-07-13T13:30:37Z</time>
      </trkpt>
      <trkpt lat="42.65542896464467" lon="1.485977321863174">
        <ele>2453.7199999999998</ele>
        <time>2025-07-13T13:30:53Z</time>
      </trkpt>
      <trkpt lat="42.655499875545502" lon="1.485894341021776">
        <ele>2451.79</ele>
        <time>2025-07-13T13:31:06Z</time>
      </trkpt>
      <trkpt lat="42.655587131157517" lon="1.48584907874465">
        <ele>2449.6999999999998</ele>
        <time>2025-07-13T13:31:16Z</time>
      </trkpt>
      <trkpt lat="42.655672710388899" lon="1.485806917771697">
        <ele>2447.4000000000001</ele>
        <time>2025-07-13T13:31:28Z</time>
      </trkpt>
      <trkpt lat="42.65574705787003" lon="1.485767019912601">
        <ele>2445.4400000000001</ele>
        <time>2025-07-13T13:31:40Z</time>
      </trkpt>
      <trkpt lat="42.655784022063017" lon="1.485653528943658">
        <ele>2444.1999999999998</ele>
        <time>2025-07-13T13:31:56Z</time>
      </trkpt>
      <trkpt lat="42.655870020389557" lon="1.485600974410772">
        <ele>2444.46</ele>
        <time>2025-07-13T13:32:08Z</time>
      </trkpt>
      <trkpt lat="42.655968507751822" lon="1.48558815009892">
        <ele>2443.29</ele>
        <time>2025-07-13T13:32:18Z</time>
      </trkpt>
      <trkpt lat="42.656056769192219" lon="1.485543726012111">
        <ele>2442.8400000000001</ele>
        <time>2025-07-13T13:32:27Z</time>
      </trkpt>
      <trkpt lat="42.656140420585871" lon="1.48547918535769">
        <ele>2443.1900000000001</ele>
        <time>2025-07-13T13:32:37Z</time>
      </trkpt>
      <trkpt lat="42.656217785552144" lon="1.485400479286909">
        <ele>2443.29</ele>
        <time>2025-07-13T13:32:49Z</time>
      </trkpt>
      <trkpt lat="42.656241841614246" lon="1.485366029664874">
        <ele>2441.0700000000002</ele>
        <time>2025-07-13T13:43:21Z</time>
      </trkpt>
      <trkpt lat="42.656327672302723" lon="1.485333507880569">
        <ele>2440.8299999999999</ele>
        <time>2025-07-13T13:43:31Z</time>
      </trkpt>
      <trkpt lat="42.656421968713403" lon="1.485341554507613">
        <ele>2440.27</ele>
        <time>2025-07-13T13:43:41Z</time>
      </trkpt>
      <trkpt lat="42.656507464125752" lon="1.485358318313956">
        <ele>2439.6199999999999</ele>
        <time>2025-07-13T13:43:50Z</time>
      </trkpt>
      <trkpt lat="42.65659723430872" lon="1.48536778986454">
        <ele>2438.3899999999999</ele>
        <time>2025-07-13T13:43:59Z</time>
      </trkpt>
      <trkpt lat="42.656700080260634" lon="1.485373992472887">
        <ele>2438.5</ele>
        <time>2025-07-13T13:44:09Z</time>
      </trkpt>
      <trkpt lat="42.656797645613551" lon="1.485353540629149">
        <ele>2439.2399999999998</ele>
        <time>2025-07-13T13:44:19Z</time>
      </trkpt>
      <trkpt lat="42.656885236501694" lon="1.485306937247515">
        <ele>2439.1399999999999</ele>
        <time>2025-07-13T13:44:29Z</time>
      </trkpt>
      <trkpt lat="42.656975677236915" lon="1.485288245603442">
        <ele>2439.4400000000001</ele>
        <time>2025-07-13T13:44:39Z</time>
      </trkpt>
      <trkpt lat="42.657065028324723" lon="1.48525781929493">
        <ele>2440.23</ele>
        <time>2025-07-13T13:44:50Z</time>
      </trkpt>
      <trkpt lat="42.657162258401513" lon="1.485242145135999">
        <ele>2441.1799999999998</ele>
        <time>2025-07-13T13:45:12Z</time>
      </trkpt>
      <trkpt lat="42.657262505963445" lon="1.48525002412498">
        <ele>2441.3499999999999</ele>
        <time>2025-07-13T13:45:30Z</time>
      </trkpt>
      <trkpt lat="42.657358143478632" lon="1.485246336087585">
        <ele>2441.0700000000002</ele>
        <time>2025-07-13T13:45:39Z</time>
      </trkpt>
      <trkpt lat="42.657452775165439" lon="1.485214903950691">
        <ele>2440.8699999999999</ele>
        <time>2025-07-13T13:45:48Z</time>
      </trkpt>
      <trkpt lat="42.657529804855585" lon="1.485159751027823">
        <ele>2441.3299999999999</ele>
        <time>2025-07-13T13:45:58Z</time>
      </trkpt>
      <trkpt lat="42.657588561996818" lon="1.485056821256876">
        <ele>2439.3000000000002</ele>
        <time>2025-07-13T13:46:10Z</time>
      </trkpt>
      <trkpt lat="42.65767372213304" lon="1.485007451847196">
        <ele>2437.7199999999998</ele>
        <time>2025-07-13T13:46:21Z</time>
      </trkpt>
      <trkpt lat="42.65776164829731" lon="1.484978701919317">
        <ele>2437.9499999999998</ele>
        <time>2025-07-13T13:46:31Z</time>
      </trkpt>
      <trkpt lat="42.657856363803148" lon="1.484983982518315">
        <ele>2438.7600000000002</ele>
        <time>2025-07-13T13:46:42Z</time>
      </trkpt>
      <trkpt lat="42.657945463433862" lon="1.484939139336348">
        <ele>2439.1700000000001</ele>
        <time>2025-07-13T13:46:52Z</time>
      </trkpt>
      <trkpt lat="42.658037329092622" lon="1.48494316264987">
        <ele>2439.6100000000001</ele>
        <time>2025-07-13T13:47:02Z</time>
      </trkpt>
      <trkpt lat="42.658127937465906" lon="1.484963279217482">
        <ele>2439.21</ele>
        <time>2025-07-13T13:47:11Z</time>
      </trkpt>
      <trkpt lat="42.658225251361728" lon="1.484960345551372">
        <ele>2438.54</ele>
        <time>2025-07-13T13:47:20Z</time>
      </trkpt>
      <trkpt lat="42.658325163647532" lon="1.484954142943025">
        <ele>2438.6999999999998</ele>
        <time>2025-07-13T13:47:29Z</time>
      </trkpt>
      <trkpt lat="42.658421136438847" lon="1.484934194013476">
        <ele>2438.6300000000001</ele>
        <time>2025-07-13T13:47:42Z</time>
      </trkpt>
      <trkpt lat="42.658504787832499" lon="1.484909551218152">
        <ele>2438.73</ele>
        <time>2025-07-13T13:48:11Z</time>
      </trkpt>
      <trkpt lat="42.658593133091927" lon="1.484921872615814">
        <ele>2439.02</ele>
        <time>2025-07-13T13:48:20Z</time>
      </trkpt>
      <trkpt lat="42.658682148903608" lon="1.48495439440012">
        <ele>2439.3099999999999</ele>
        <time>2025-07-13T13:48:30Z</time>
      </trkpt>
      <trkpt lat="42.658773511648178" lon="1.484991274774075">
        <ele>2440.5100000000002</ele>
        <time>2025-07-13T13:48:41Z</time>
      </trkpt>
      <trkpt lat="42.658867975696921" lon="1.485011056065559">
        <ele>2440.8499999999999</ele>
        <time>2025-07-13T13:48:51Z</time>
      </trkpt>
      <trkpt lat="42.658960679545999" lon="1.485029747709632">
        <ele>2440.9200000000001</ele>
        <time>2025-07-13T13:49:01Z</time>
      </trkpt>
      <trkpt lat="42.659055814146996" lon="1.485038045793772">
        <ele>2441.0700000000002</ele>
        <time>2025-07-13T13:49:11Z</time>
      </trkpt>
      <trkpt lat="42.659148182719946" lon="1.485051373019815">
        <ele>2440.8899999999999</ele>
        <time>2025-07-13T13:49:21Z</time>
      </trkpt>
      <trkpt lat="42.659200569614768" lon="1.48505992256105">
        <ele>2440.6999999999998</ele>
        <time>2025-07-13T13:50:53Z</time>
      </trkpt>
      <trkpt lat="42.659147176891565" lon="1.485052965581417">
        <ele>2439.8400000000001</ele>
        <time>2025-07-13T13:55:10Z</time>
      </trkpt>
      <trkpt lat="42.659053383395076" lon="1.485042236745358">
        <ele>2440.1700000000001</ele>
        <time>2025-07-13T13:55:21Z</time>
      </trkpt>
      <trkpt lat="42.65895489603281" lon="1.485026478767395">
        <ele>2440.3299999999999</ele>
        <time>2025-07-13T13:55:31Z</time>
      </trkpt>
      <trkpt lat="42.658861689269543" lon="1.485001668334007">
        <ele>2440.0500000000002</ele>
        <time>2025-07-13T13:55:41Z</time>
      </trkpt>
      <trkpt lat="42.658771499991417" lon="1.484973169863224">
        <ele>2439.3699999999999</ele>
        <time>2025-07-13T13:55:51Z</time>
      </trkpt>
      <trkpt lat="42.658681226894259" lon="1.484942156821489">
        <ele>2438.46</ele>
        <time>2025-07-13T13:56:01Z</time>
      </trkpt>
      <trkpt lat="42.658593133091927" lon="1.484911562874913">
        <ele>2437.9000000000001</ele>
        <time>2025-07-13T13:56:10Z</time>
      </trkpt>
      <trkpt lat="42.658496405929327" lon="1.484900750219822">
        <ele>2437.5799999999999</ele>
        <time>2025-07-13T13:56:20Z</time>
      </trkpt>
      <trkpt lat="42.658410491421819" lon="1.484930003061891">
        <ele>2437.9299999999998</ele>
        <time>2025-07-13T13:56:30Z</time>
      </trkpt>
      <trkpt lat="42.6583147700876" lon="1.484948359429836">
        <ele>2437.9400000000001</ele>
        <time>2025-07-13T13:56:41Z</time>
      </trkpt>
      <trkpt lat="42.658215695992112" lon="1.484963782131672">
        <ele>2438.1300000000001</ele>
        <time>2025-07-13T13:56:51Z</time>
      </trkpt>
      <trkpt lat="42.658124249428511" lon="1.484969649463892">
        <ele>2438.75</ele>
        <time>2025-07-13T13:57:02Z</time>
      </trkpt>
      <trkpt lat="42.658039592206478" lon="1.484935032203794">
        <ele>2439.2800000000002</ele>
        <time>2025-07-13T13:57:13Z</time>
      </trkpt>
      <trkpt lat="42.657941356301308" lon="1.484941067174077">
        <ele>2438.9899999999998</ele>
        <time>2025-07-13T13:57:23Z</time>
      </trkpt>
      <trkpt lat="42.657852675765753" lon="1.484978869557381">
        <ele>2438.04</ele>
        <time>2025-07-13T13:57:33Z</time>
      </trkpt>
      <trkpt lat="42.657755026593804" lon="1.484984736889601">
        <ele>2437.25</ele>
        <time>2025-07-13T13:57:43Z</time>
      </trkpt>
      <trkpt lat="42.657657545059919" lon="1.485007451847196">
        <ele>2436.8899999999999</ele>
        <time>2025-07-13T13:57:53Z</time>
      </trkpt>
      <trkpt lat="42.657582024112344" lon="1.4850780274719">
        <ele>2438.4699999999998</ele>
        <time>2025-07-13T13:58:05Z</time>
      </trkpt>
      <trkpt lat="42.65751781873405" lon="1.485180454328656">
        <ele>2440.9099999999999</ele>
        <time>2025-07-13T13:58:19Z</time>
      </trkpt>
      <trkpt lat="42.657440789043903" lon="1.485179364681244">
        <ele>2440.73</ele>
        <time>2025-07-13T13:58:57Z</time>
      </trkpt>
      <trkpt lat="42.657354874536395" lon="1.485228314995766">
        <ele>2440.4000000000001</ele>
        <time>2025-07-13T13:59:08Z</time>
      </trkpt>
      <trkpt lat="42.657260997220874" lon="1.485239462926984">
        <ele>2440.6399999999999</ele>
        <time>2025-07-13T13:59:20Z</time>
      </trkpt>
      <trkpt lat="42.657170556485653" lon="1.485243737697601">
        <ele>2440.5599999999999</ele>
        <time>2025-07-13T13:59:32Z</time>
      </trkpt>
      <trkpt lat="42.657073494046926" lon="1.485248431563377">
        <ele>2439.1399999999999</ele>
        <time>2025-07-13T13:59:53Z</time>
      </trkpt>
      <trkpt lat="42.656982969492674" lon="1.485278774052858">
        <ele>2438.52</ele>
        <time>2025-07-13T14:00:02Z</time>
      </trkpt>
      <trkpt lat="42.656892780214548" lon="1.485307021066546">
        <ele>2437.8099999999999</ele>
        <time>2025-07-13T14:00:12Z</time>
      </trkpt>
      <trkpt lat="42.656815331429243" lon="1.485351612791419">
        <ele>2437.6999999999998</ele>
        <time>2025-07-13T14:00:21Z</time>
      </trkpt>
      <trkpt lat="42.65672137029469" lon="1.485367957502604">
        <ele>2437.5999999999999</ele>
        <time>2025-07-13T14:00:31Z</time>
      </trkpt>
      <trkpt lat="42.656632773578167" lon="1.48538245819509">
        <ele>2437.2399999999998</ele>
        <time>2025-07-13T14:00:40Z</time>
      </trkpt>
      <trkpt lat="42.656539902091026" lon="1.485354127362371">
        <ele>2437.8400000000001</ele>
        <time>2025-07-13T14:00:51Z</time>
      </trkpt>
      <trkpt lat="42.656443510204554" lon="1.485330574214459">
        <ele>2438.73</ele>
        <time>2025-07-13T14:01:02Z</time>
      </trkpt>
      <trkpt lat="42.656352734193206" lon="1.485309451818466">
        <ele>2439.48</ele>
        <time>2025-07-13T14:01:12Z</time>
      </trkpt>
      <trkpt lat="42.656323732808232" lon="1.485304506495595">
        <ele>2441.1300000000001</ele>
        <time>2025-07-13T14:16:36Z</time>
      </trkpt>
      <trkpt lat="42.656379137188196" lon="1.48530182428658">
        <ele>2441.4699999999998</ele>
        <time>2025-07-13T14:20:44Z</time>
      </trkpt>
      <trkpt lat="42.656470751389861" lon="1.485301908105612">
        <ele>2441.02</ele>
        <time>2025-07-13T14:20:55Z</time>
      </trkpt>
      <trkpt lat="42.656554402783513" lon="1.485348343849182">
        <ele>2440.3299999999999</ele>
        <time>2025-07-13T14:21:09Z</time>
      </trkpt>
      <trkpt lat="42.656645681709051" lon="1.485354965552688">
        <ele>2439.71</ele>
        <time>2025-07-13T14:21:18Z</time>
      </trkpt>
      <trkpt lat="42.656741654500365" lon="1.485361335799098">
        <ele>2439.3000000000002</ele>
        <time>2025-07-13T14:21:29Z</time>
      </trkpt>
      <trkpt lat="42.656833520159125" lon="1.485349265858531">
        <ele>2439.6900000000001</ele>
        <time>2025-07-13T14:21:42Z</time>
      </trkpt>
      <trkpt lat="42.656918093562126" lon="1.485301237553358">
        <ele>2440.1999999999998</ele>
        <time>2025-07-13T14:21:58Z</time>
      </trkpt>
      <trkpt lat="42.657006857916713" lon="1.485280198976398">
        <ele>2440.46</ele>
        <time>2025-07-13T14:22:11Z</time>
      </trkpt>
      <trkpt lat="42.657097969204187" lon="1.48525002412498">
        <ele>2441.1300000000001</ele>
        <time>2025-07-13T14:22:23Z</time>
      </trkpt>
      <trkpt lat="42.65719092451036" lon="1.485241558402777">
        <ele>2441.9099999999999</ele>
        <time>2025-07-13T14:22:34Z</time>
      </trkpt>
      <trkpt lat="42.657283125445247" lon="1.485246336087585">
        <ele>2442.3699999999999</ele>
        <time>2025-07-13T14:22:44Z</time>
      </trkpt>
      <trkpt lat="42.65738295391202" lon="1.485246084630489">
        <ele>2442.5300000000002</ele>
        <time>2025-07-13T14:22:55Z</time>
      </trkpt>
      <trkpt lat="42.657478088513017" lon="1.485212724655867">
        <ele>2442.4699999999998</ele>
        <time>2025-07-13T14:23:11Z</time>
      </trkpt>
      <trkpt lat="42.657554028555751" lon="1.485158829018474">
        <ele>2442.5700000000002</ele>
        <time>2025-07-13T14:23:32Z</time>
      </trkpt>
      <trkpt lat="42.657606080174446" lon="1.485062185674906">
        <ele>2441.1999999999998</ele>
        <time>2025-07-13T14:23:45Z</time>
      </trkpt>
      <trkpt lat="42.657684870064259" lon="1.48501843214035">
        <ele>2439.9200000000001</ele>
        <time>2025-07-13T14:23:54Z</time>
      </trkpt>
      <trkpt lat="42.657776065170765" lon="1.484985994175077">
        <ele>2440.0599999999999</ele>
        <time>2025-07-13T14:24:04Z</time>
      </trkpt>
      <trkpt lat="42.657872037962079" lon="1.48498959839344">
        <ele>2440.9699999999998</ele>
        <time>2025-07-13T14:24:14Z</time>
      </trkpt>
      <trkpt lat="42.657956024631858" lon="1.484941234812141">
        <ele>2441.5100000000002</ele>
        <time>2025-07-13T14:24:24Z</time>
      </trkpt>
      <trkpt lat="42.658051997423172" lon="1.484952047467232">
        <ele>2442.3800000000001</ele>
        <time>2025-07-13T14:24:33Z</time>
      </trkpt>
      <trkpt lat="42.658143527805805" lon="1.48497249931097">
        <ele>2442.3099999999999</ele>
        <time>2025-07-13T14:24:41Z</time>
      </trkpt>
      <trkpt lat="42.65823857858777" lon="1.48496855981648">
        <ele>2441.5700000000002</ele>
        <time>2025-07-13T14:24:49Z</time>
      </trkpt>
      <trkpt lat="42.658331198617816" lon="1.484955484047532">
        <ele>2441.0300000000002</ele>
        <time>2025-07-13T14:24:57Z</time>
      </trkpt>
      <trkpt lat="42.658430021256208" lon="1.48492899723351">
        <ele>2441.0999999999999</ele>
        <time>2025-07-13T14:25:06Z</time>
      </trkpt>
      <trkpt lat="42.658524988219142" lon="1.484904689714313">
        <ele>2441.29</ele>
        <time>2025-07-13T14:25:15Z</time>
      </trkpt>
      <trkpt lat="42.658620290458202" lon="1.484911059960723">
        <ele>2441.6399999999999</ele>
        <time>2025-07-13T14:25:25Z</time>
      </trkpt>
      <trkpt lat="42.658714335411787" lon="1.484941737726331">
        <ele>2442.23</ele>
        <time>2025-07-13T14:25:35Z</time>
      </trkpt>
      <trkpt lat="42.658800166100264" lon="1.484979288652539">
        <ele>2442.9899999999998</ele>
        <time>2025-07-13T14:25:44Z</time>
      </trkpt>
      <trkpt lat="42.658884655684233" lon="1.484994878992438">
        <ele>2443.6799999999998</ele>
        <time>2025-07-13T14:25:54Z</time>
      </trkpt>
      <trkpt lat="42.658973252400756" lon="1.485017007216811">
        <ele>2443.7399999999998</ele>
        <time>2025-07-13T14:26:03Z</time>
      </trkpt>
      <trkpt lat="42.65906872227788" lon="1.485033100470901">
        <ele>2443.9400000000001</ele>
        <time>2025-07-13T14:26:13Z</time>
      </trkpt>
      <trkpt lat="42.659161845222116" lon="1.485043074935675">
        <ele>2443.7199999999998</ele>
        <time>2025-07-13T14:26:22Z</time>
      </trkpt>
      <trkpt lat="42.659250944852829" lon="1.485056402161717">
        <ele>2443.3299999999999</ele>
        <time>2025-07-13T14:26:31Z</time>
      </trkpt>
      <trkpt lat="42.659345492720604" lon="1.485085152089596">
        <ele>2442.02</ele>
        <time>2025-07-13T14:26:41Z</time>
      </trkpt>
      <trkpt lat="42.659442471340299" lon="1.485104514285922">
        <ele>2439.6700000000001</ele>
        <time>2025-07-13T14:26:53Z</time>
      </trkpt>
      <trkpt lat="42.65953341498971" lon="1.485043913125992">
        <ele>2436.77</ele>
        <time>2025-07-13T14:27:07Z</time>
      </trkpt>
      <trkpt lat="42.659614384174347" lon="1.484966380521655">
        <ele>2433.8400000000001</ele>
        <time>2025-07-13T14:27:48Z</time>
      </trkpt>
      <trkpt lat="42.65967657789588" lon="1.484907539561391">
        <ele>2434.54</ele>
        <time>2025-07-13T14:28:02Z</time>
      </trkpt>
      <trkpt lat="42.659707088023424" lon="1.485037878155708">
        <ele>2432.5599999999999</ele>
        <time>2025-07-13T14:28:16Z</time>
      </trkpt>
      <trkpt lat="42.659761151298881" lon="1.485142903402448">
        <ele>2431.0300000000002</ele>
        <time>2025-07-13T14:28:28Z</time>
      </trkpt>
      <trkpt lat="42.659831224009395" lon="1.485232757404447">
        <ele>2428.3899999999999</ele>
        <time>2025-07-13T14:28:43Z</time>
      </trkpt>
      <trkpt lat="42.659903140738606" lon="1.485314229503274">
        <ele>2426.3699999999999</ele>
        <time>2025-07-13T14:28:55Z</time>
      </trkpt>
      <trkpt lat="42.659973045811057" lon="1.485402071848512">
        <ele>2424.5599999999999</ele>
        <time>2025-07-13T14:29:05Z</time>
      </trkpt>
      <trkpt lat="42.660041442140937" lon="1.485485974699259">
        <ele>2424.6500000000001</ele>
        <time>2025-07-13T14:29:20Z</time>
      </trkpt>
      <trkpt lat="42.660106485709548" lon="1.485574739053845">
        <ele>2423.23</ele>
        <time>2025-07-13T14:29:32Z</time>
      </trkpt>
      <trkpt lat="42.660165661945939" lon="1.485682278871536">
        <ele>2421.9099999999999</ele>
        <time>2025-07-13T14:29:44Z</time>
      </trkpt>
      <trkpt lat="42.660241182893515" lon="1.485775569453836">
        <ele>2422.8000000000002</ele>
        <time>2025-07-13T14:29:58Z</time>
      </trkpt>
      <trkpt lat="42.660314692184329" lon="1.485848994925618">
        <ele>2422.8000000000002</ele>
        <time>2025-07-13T14:30:09Z</time>
      </trkpt>
      <trkpt lat="42.660397505387664" lon="1.485901800915599">
        <ele>2422.4299999999998</ele>
        <time>2025-07-13T14:30:34Z</time>
      </trkpt>
      <trkpt lat="42.660482162609696" lon="1.485934406518936">
        <ele>2422.8800000000001</ele>
        <time>2025-07-13T14:30:44Z</time>
      </trkpt>
      <trkpt lat="42.660584002733231" lon="1.485953601077199">
        <ele>2423.75</ele>
        <time>2025-07-13T14:30:55Z</time>
      </trkpt>
      <trkpt lat="42.660679472610354" lon="1.4859414473176">
        <ele>2422.9000000000001</ele>
        <time>2025-07-13T14:31:10Z</time>
      </trkpt>
      <trkpt lat="42.660767985507846" lon="1.485942034050822">
        <ele>2420.8899999999999</ele>
        <time>2025-07-13T14:31:33Z</time>
      </trkpt>
      <trkpt lat="42.660843590274453" lon="1.485973466187716">
        <ele>2419.5700000000002</ele>
        <time>2025-07-13T14:31:54Z</time>
      </trkpt>
      <trkpt lat="42.660941909998655" lon="1.485956702381373">
        <ele>2421.1999999999998</ele>
        <time>2025-07-13T14:32:21Z</time>
      </trkpt>
      <trkpt lat="42.661039056256413" lon="1.485958462581039">
        <ele>2423.3899999999999</ele>
        <time>2025-07-13T14:32:38Z</time>
      </trkpt>
      <trkpt lat="42.661052634939551" lon="1.486017387360334">
        <ele>2421.4899999999998</ele>
        <time>2025-07-13T14:32:52Z</time>
      </trkpt>
      <trkpt lat="42.661052132025361" lon="1.486083101481199">
        <ele>2419.8400000000001</ele>
        <time>2025-07-13T14:33:17Z</time>
      </trkpt>
      <trkpt lat="42.661127485334873" lon="1.486155772581697">
        <ele>2419.6799999999998</ele>
        <time>2025-07-13T14:33:30Z</time>
      </trkpt>
      <trkpt lat="42.661201748996973" lon="1.486176224425435">
        <ele>2419.8299999999999</ele>
        <time>2025-07-13T14:33:41Z</time>
      </trkpt>
      <trkpt lat="42.661281293258071" lon="1.486232215538621">
        <ele>2420.6999999999998</ele>
        <time>2025-07-13T14:33:54Z</time>
      </trkpt>
      <trkpt lat="42.661354802548885" lon="1.486279657110572">
        <ele>2420.75</ele>
        <time>2025-07-13T14:34:04Z</time>
      </trkpt>
      <trkpt lat="42.661404507234693" lon="1.486315280199051">
        <ele>2420.1599999999999</ele>
        <time>2025-07-13T14:34:17Z</time>
      </trkpt>
      <trkpt lat="42.661489667370915" lon="1.486404296010733">
        <ele>2419.4400000000001</ele>
        <time>2025-07-13T14:34:37Z</time>
      </trkpt>
      <trkpt lat="42.66156317666173" lon="1.486465819180012">
        <ele>2418.6399999999999</ele>
        <time>2025-07-13T14:34:50Z</time>
      </trkpt>
      <trkpt lat="42.661647498607635" lon="1.486498005688191">
        <ele>2420.23</ele>
        <time>2025-07-13T14:35:02Z</time>
      </trkpt>
      <trkpt lat="42.661683792248368" lon="1.486527090892196">
        <ele>2422.5500000000002</ele>
        <time>2025-07-13T14:35:23Z</time>
      </trkpt>
      <trkpt lat="42.661761827766895" lon="1.486530443653464">
        <ele>2423.52</ele>
        <time>2025-07-13T14:35:39Z</time>
      </trkpt>
      <trkpt lat="42.661713128909469" lon="1.486510243266821">
        <ele>2427.8499999999999</ele>
        <time>2025-07-13T14:36:18Z</time>
      </trkpt>
      <trkpt lat="42.661744561046362" lon="1.486539328470826">
        <ele>2426.77</ele>
        <time>2025-07-13T14:38:55Z</time>
      </trkpt>
      <trkpt lat="42.661832068115473" lon="1.486493311822414">
        <ele>2428.3000000000002</ele>
        <time>2025-07-13T14:39:31Z</time>
      </trkpt>
      <trkpt lat="42.661919072270393" lon="1.486527677625418">
        <ele>2428.27</ele>
        <time>2025-07-13T14:39:45Z</time>
      </trkpt>
      <trkpt lat="42.662014877423644" lon="1.486578807234764">
        <ele>2429.0700000000002</ele>
        <time>2025-07-13T14:39:57Z</time>
      </trkpt>
      <trkpt lat="42.662095343694091" lon="1.48661962710321">
        <ele>2429.3200000000002</ele>
        <time>2025-07-13T14:40:08Z</time>
      </trkpt>
      <trkpt lat="42.662150161340833" lon="1.486656088382006">
        <ele>2428.1100000000001</ele>
        <time>2025-07-13T14:40:26Z</time>
      </trkpt>
      <trkpt lat="42.66223113052547" lon="1.486664386466146">
        <ele>2428.79</ele>
        <time>2025-07-13T14:40:56Z</time>
      </trkpt>
      <trkpt lat="42.662306567654014" lon="1.486724400892854">
        <ele>2429.3899999999999</ele>
        <time>2025-07-13T14:41:11Z</time>
      </trkpt>
      <trkpt lat="42.662367671728134" lon="1.486795898526907">
        <ele>2428.9000000000001</ele>
        <time>2025-07-13T14:41:25Z</time>
      </trkpt>
      <trkpt lat="42.662431374192238" lon="1.486875610426068">
        <ele>2428.4099999999999</ele>
        <time>2025-07-13T14:41:42Z</time>
      </trkpt>
      <trkpt lat="42.662493735551834" lon="1.48696362040937">
        <ele>2426.1100000000001</ele>
        <time>2025-07-13T14:41:56Z</time>
      </trkpt>
      <trkpt lat="42.662559533491731" lon="1.486974265426397">
        <ele>2428.8000000000002</ele>
        <time>2025-07-13T14:42:59Z</time>
      </trkpt>
      <trkpt lat="42.662643687799573" lon="1.486996477469802">
        <ele>2431.6199999999999</ele>
        <time>2025-07-13T14:43:30Z</time>
      </trkpt>
      <trkpt lat="42.66268702223897" lon="1.487047439441085">
        <ele>2431.77</ele>
        <time>2025-07-13T14:45:19Z</time>
      </trkpt>
      <trkpt lat="42.662780731916428" lon="1.487059844657779">
        <ele>2431.8699999999999</ele>
        <time>2025-07-13T14:45:35Z</time>
      </trkpt>
      <trkpt lat="42.662862874567509" lon="1.487085828557611">
        <ele>2430.1999999999998</ele>
        <time>2025-07-13T14:45:50Z</time>
      </trkpt>
      <trkpt lat="42.662942251190543" lon="1.487153302878141">
        <ele>2428.2600000000002</ele>
        <time>2025-07-13T14:46:09Z</time>
      </trkpt>
      <trkpt lat="42.6630222145468" lon="1.487102676182985">
        <ele>2425.2600000000002</ele>
        <time>2025-07-13T14:46:26Z</time>
      </trkpt>
      <trkpt lat="42.663115337491035" lon="1.487074764445424">
        <ele>2423.9200000000001</ele>
        <time>2025-07-13T14:46:39Z</time>
      </trkpt>
      <trkpt lat="42.663205023854971" lon="1.487091947346926">
        <ele>2421.6399999999999</ele>
        <time>2025-07-13T14:46:51Z</time>
      </trkpt>
      <trkpt lat="42.663305690512061" lon="1.487130336463451">
        <ele>2421.1500000000001</ele>
        <time>2025-07-13T14:47:02Z</time>
      </trkpt>
      <trkpt lat="42.663394873961806" lon="1.487139975652099">
        <ele>2422.25</ele>
        <time>2025-07-13T14:47:16Z</time>
      </trkpt>
      <trkpt lat="42.663485230877995" lon="1.4871537219733">
        <ele>2422.4099999999999</ele>
        <time>2025-07-13T14:47:29Z</time>
      </trkpt>
      <trkpt lat="42.663537533953786" lon="1.487238127738237">
        <ele>2419.71</ele>
        <time>2025-07-13T14:47:44Z</time>
      </trkpt>
      <trkpt lat="42.663629734888673" lon="1.487272409722209">
        <ele>2418.9200000000001</ele>
        <time>2025-07-13T14:47:55Z</time>
      </trkpt>
      <trkpt lat="42.663722187280655" lon="1.487310798838735">
        <ele>2418.8200000000002</ele>
        <time>2025-07-13T14:48:07Z</time>
      </trkpt>
      <trkpt lat="42.66380206681788" lon="1.487370142713189">
        <ele>2419.8899999999999</ele>
        <time>2025-07-13T14:48:21Z</time>
      </trkpt>
      <trkpt lat="42.663884041830897" lon="1.487436527386308">
        <ele>2421.0300000000002</ele>
        <time>2025-07-13T14:48:34Z</time>
      </trkpt>
      <trkpt lat="42.663913210853934" lon="1.487548844888806">
        <ele>2421.02</ele>
        <time>2025-07-13T14:48:51Z</time>
      </trkpt>
      <trkpt lat="42.664004070684314" lon="1.487581366673112">
        <ele>2420.4099999999999</ele>
        <time>2025-07-13T14:49:01Z</time>
      </trkpt>
      <trkpt lat="42.664091410115361" lon="1.487607769668102">
        <ele>2420.2199999999998</ele>
        <time>2025-07-13T14:49:16Z</time>
      </trkpt>
      <trkpt lat="42.664144970476627" lon="1.487716985866427">
        <ele>2420.8800000000001</ele>
        <time>2025-07-13T14:49:27Z</time>
      </trkpt>
      <trkpt lat="42.664214121177793" lon="1.48779820650816">
        <ele>2421.79</ele>
        <time>2025-07-13T14:49:38Z</time>
      </trkpt>
      <trkpt lat="42.664298275485635" lon="1.487873392179608">
        <ele>2421.6399999999999</ele>
        <time>2025-07-13T14:49:48Z</time>
      </trkpt>
      <trkpt lat="42.664338005706668" lon="1.487981770187616">
        <ele>2420.8899999999999</ele>
        <time>2025-07-13T14:49:57Z</time>
      </trkpt>
      <trkpt lat="42.664379077032208" lon="1.488088639453054">
        <ele>2420.6599999999999</ele>
        <time>2025-07-13T14:50:06Z</time>
      </trkpt>
      <trkpt lat="42.664439594373107" lon="1.488179583102465">
        <ele>2420.71</ele>
        <time>2025-07-13T14:50:17Z</time>
      </trkpt>
      <trkpt lat="42.664486113935709" lon="1.48828636854887">
        <ele>2423.02</ele>
        <time>2025-07-13T14:50:31Z</time>
      </trkpt>
      <trkpt lat="42.664524838328362" lon="1.488405475392938">
        <ele>2425.27</ele>
        <time>2025-07-13T14:50:46Z</time>
      </trkpt>
      <trkpt lat="42.664581248536706" lon="1.48851552978158">
        <ele>2425.1700000000001</ele>
        <time>2025-07-13T14:50:57Z</time>
      </trkpt>
      <trkpt lat="42.664555516093969" lon="1.488637905567884">
        <ele>2425.7800000000002</ele>
        <time>2025-07-13T14:51:08Z</time>
      </trkpt>
      <trkpt lat="42.664527604356408" lon="1.48876229301095">
        <ele>2426.6300000000001</ele>
        <time>2025-07-13T14:51:19Z</time>
      </trkpt>
      <trkpt lat="42.664521653205156" lon="1.48889078758657">
        <ele>2426.8299999999999</ele>
        <time>2025-07-13T14:51:31Z</time>
      </trkpt>
      <trkpt lat="42.664551073685288" lon="1.488993298262358">
        <ele>2428.6100000000001</ele>
        <time>2025-07-13T14:51:47Z</time>
      </trkpt>
      <trkpt lat="42.664610166102648" lon="1.489095892757177">
        <ele>2431.6900000000001</ele>
        <time>2025-07-13T14:52:04Z</time>
      </trkpt>
      <trkpt lat="42.664627432823181" lon="1.489214664325118">
        <ele>2433.3099999999999</ele>
        <time>2025-07-13T14:52:17Z</time>
      </trkpt>
      <trkpt lat="42.664669174700975" lon="1.489321617409587">
        <ele>2434.5700000000002</ele>
        <time>2025-07-13T14:52:31Z</time>
      </trkpt>
      <trkpt lat="42.664740588515997" lon="1.489406106993556">
        <ele>2436.8899999999999</ele>
        <time>2025-07-13T14:52:47Z</time>
      </trkpt>
      <trkpt lat="42.664733044803143" lon="1.489533009007573">
        <ele>2438.3699999999999</ele>
        <time>2025-07-13T14:53:02Z</time>
      </trkpt>
      <trkpt lat="42.664808901026845" lon="1.48955094628036">
        <ele>2438.4000000000001</ele>
        <time>2025-07-13T14:53:14Z</time>
      </trkpt>
      <trkpt lat="42.664890456944704" lon="1.489624874666333">
        <ele>2441.1300000000001</ele>
        <time>2025-07-13T14:53:34Z</time>
      </trkpt>
      <trkpt lat="42.664934964850545" lon="1.489728558808565">
        <ele>2441.5300000000002</ele>
        <time>2025-07-13T14:54:40Z</time>
      </trkpt>
      <trkpt lat="42.665013251826167" lon="1.489793686196208">
        <ele>2443.3499999999999</ele>
        <time>2025-07-13T14:55:02Z</time>
      </trkpt>
      <trkpt lat="42.664998415857553" lon="1.489804163575172">
        <ele>2442.8699999999999</ele>
        <time>2025-07-13T14:56:33Z</time>
      </trkpt>
    </trkseg>
  </trk>

  <trk>
    <name>2trek-pirenei-vaiante2025-07-14</name>
    <extensions>
      <gpxx:TrackExtension>
        <gpxx:DisplayColor>Red</gpxx:DisplayColor>
      </gpxx:TrackExtension>
    </extensions>
    <trkseg>
      <trkpt lat="42.6648751180619" lon="1.489827884361148">
        <ele>2465.04</ele>
        <time>2025-07-14T06:04:23Z</time>
      </trkpt>
      <trkpt lat="42.664844607934356" lon="1.489845318719745">
        <ele>2451.0999999999999</ele>
        <time>2025-07-14T06:05:31Z</time>
      </trkpt>
      <trkpt lat="42.66490294598043" lon="1.489771725609899">
        <ele>2450.1999999999998</ele>
        <time>2025-07-14T06:09:20Z</time>
      </trkpt>
      <trkpt lat="42.664933120831847" lon="1.489658067002893">
        <ele>2449.48</ele>
        <time>2025-07-14T06:09:34Z</time>
      </trkpt>
      <trkpt lat="42.66489272005856" lon="1.489549856632948">
        <ele>2447.8499999999999</ele>
        <time>2025-07-14T06:09:46Z</time>
      </trkpt>
      <trkpt lat="42.664806470274925" lon="1.489528901875019">
        <ele>2445.25</ele>
        <time>2025-07-14T06:10:00Z</time>
      </trkpt>
      <trkpt lat="42.664730865508318" lon="1.489511970430613">
        <ele>2446.6799999999998</ele>
        <time>2025-07-14T06:10:12Z</time>
      </trkpt>
      <trkpt lat="42.664728686213493" lon="1.489401161670685">
        <ele>2445.1900000000001</ele>
        <time>2025-07-14T06:10:30Z</time>
      </trkpt>
      <trkpt lat="42.664658026769757" lon="1.48932077921927">
        <ele>2442.8099999999999</ele>
        <time>2025-07-14T06:10:45Z</time>
      </trkpt>
      <trkpt lat="42.664639167487621" lon="1.4892000798136">
        <ele>2441.6199999999999</ele>
        <time>2025-07-14T06:10:57Z</time>
      </trkpt>
      <trkpt lat="42.664618799462914" lon="1.489076782017946">
        <ele>2438.9000000000001</ele>
        <time>2025-07-14T06:11:10Z</time>
      </trkpt>
      <trkpt lat="42.664551325142384" lon="1.489016767591238">
        <ele>2437.5500000000002</ele>
        <time>2025-07-14T06:11:51Z</time>
      </trkpt>
      <trkpt lat="42.664539506658912" lon="1.488899337127805">
        <ele>2435.0900000000001</ele>
        <time>2025-07-14T06:12:03Z</time>
      </trkpt>
      <trkpt lat="42.664554677903652" lon="1.488778302446008">
        <ele>2434.5700000000002</ele>
        <time>2025-07-14T06:12:16Z</time>
      </trkpt>
      <trkpt lat="42.664587032049894" lon="1.488656681030989">
        <ele>2434.25</ele>
        <time>2025-07-14T06:12:26Z</time>
      </trkpt>
      <trkpt lat="42.664576889947057" lon="1.488530784845352">
        <ele>2433.9699999999998</ele>
        <time>2025-07-14T06:12:38Z</time>
      </trkpt>
      <trkpt lat="42.66452232375741" lon="1.488434476777911">
        <ele>2434.23</ele>
        <time>2025-07-14T06:12:48Z</time>
      </trkpt>
      <trkpt lat="42.664473373442888" lon="1.48833473213017">
        <ele>2431.96</ele>
        <time>2025-07-14T06:13:01Z</time>
      </trkpt>
      <trkpt lat="42.664448730647564" lon="1.488231886178255">
        <ele>2429.6799999999998</ele>
        <time>2025-07-14T06:13:17Z</time>
      </trkpt>
      <trkpt lat="42.664387039840221" lon="1.488142451271415">
        <ele>2428.5799999999999</ele>
        <time>2025-07-14T06:13:29Z</time>
      </trkpt>
      <trkpt lat="42.664333982393146" lon="1.488038096576929">
        <ele>2429.1399999999999</ele>
        <time>2025-07-14T06:13:39Z</time>
      </trkpt>
      <trkpt lat="42.664288384839892" lon="1.487926030531526">
        <ele>2429.5799999999999</ele>
        <time>2025-07-14T06:13:49Z</time>
      </trkpt>
      <trkpt lat="42.664247564971447" lon="1.487806085497141">
        <ele>2429.1599999999999</ele>
        <time>2025-07-14T06:13:59Z</time>
      </trkpt>
      <trkpt lat="42.664225939661264" lon="1.487674321979284">
        <ele>2429.1100000000001</ele>
        <time>2025-07-14T06:14:08Z</time>
      </trkpt>
      <trkpt lat="42.664279583841562" lon="1.487579103559256">
        <ele>2428.5100000000002</ele>
        <time>2025-07-14T06:14:19Z</time>
      </trkpt>
      <trkpt lat="42.664358876645565" lon="1.487510707229376">
        <ele>2427.5599999999999</ele>
        <time>2025-07-14T06:14:30Z</time>
      </trkpt>
      <trkpt lat="42.664435151964426" lon="1.487464439123869">
        <ele>2426.21</ele>
        <time>2025-07-14T06:14:40Z</time>
      </trkpt>
      <trkpt lat="42.664529113098979" lon="1.487495116889477">
        <ele>2425.46</ele>
        <time>2025-07-14T06:14:50Z</time>
      </trkpt>
      <trkpt lat="42.664595162495971" lon="1.487579522654414">
        <ele>2424.6100000000001</ele>
        <time>2025-07-14T06:14:59Z</time>
      </trkpt>
      <trkpt lat="42.664678143337369" lon="1.487612966448069">
        <ele>2423.1300000000001</ele>
        <time>2025-07-14T06:15:11Z</time>
      </trkpt>
      <trkpt lat="42.664684345945716" lon="1.487518921494484">
        <ele>2421.6599999999999</ele>
        <time>2025-07-14T06:15:25Z</time>
      </trkpt>
      <trkpt lat="42.664753161370754" lon="1.487530739977956">
        <ele>2420.6500000000001</ele>
        <time>2025-07-14T06:15:38Z</time>
      </trkpt>
      <trkpt lat="42.664808062836528" lon="1.487493859604001">
        <ele>2417.6799999999998</ele>
        <time>2025-07-14T06:15:57Z</time>
      </trkpt>
      <trkpt lat="42.664871346205473" lon="1.487410292029381">
        <ele>2417.9099999999999</ele>
        <time>2025-07-14T06:16:07Z</time>
      </trkpt>
      <trkpt lat="42.664951141923666" lon="1.48734332062304">
        <ele>2417.6700000000001</ele>
        <time>2025-07-14T06:16:17Z</time>
      </trkpt>
      <trkpt lat="42.665037726983428" lon="1.487369639798999">
        <ele>2417.2600000000002</ele>
        <time>2025-07-14T06:16:29Z</time>
      </trkpt>
      <trkpt lat="42.6651306822896" lon="1.48738095536828">
        <ele>2416.3099999999999</ele>
        <time>2025-07-14T06:16:43Z</time>
      </trkpt>
      <trkpt lat="42.665218021720648" lon="1.487404592335224">
        <ele>2414.0300000000002</ele>
        <time>2025-07-14T06:17:12Z</time>
      </trkpt>
      <trkpt lat="42.665293207392097" lon="1.487432168796659">
        <ele>2411.6700000000001</ele>
        <time>2025-07-14T06:17:24Z</time>
      </trkpt>
      <trkpt lat="42.665301924571395" lon="1.48755731061101">
        <ele>2409.4200000000001</ele>
        <time>2025-07-14T06:17:36Z</time>
      </trkpt>
      <trkpt lat="42.665382390841842" lon="1.48755144327879">
        <ele>2407.3600000000001</ele>
        <time>2025-07-14T06:17:50Z</time>
      </trkpt>
      <trkpt lat="42.665450284257531" lon="1.487475838512182">
        <ele>2405.6900000000001</ele>
        <time>2025-07-14T06:18:05Z</time>
      </trkpt>
      <trkpt lat="42.665551034733653" lon="1.487448429688811">
        <ele>2402.8099999999999</ele>
        <time>2025-07-14T06:18:35Z</time>
      </trkpt>
      <trkpt lat="42.665638122707605" lon="1.487456727772951">
        <ele>2401.8299999999999</ele>
        <time>2025-07-14T06:18:45Z</time>
      </trkpt>
      <trkpt lat="42.665721774101257" lon="1.487510874867439">
        <ele>2400.7800000000002</ele>
        <time>2025-07-14T06:18:55Z</time>
      </trkpt>
      <trkpt lat="42.665781872346997" lon="1.487514395266771">
        <ele>2398.4699999999998</ele>
        <time>2025-07-14T06:20:31Z</time>
      </trkpt>
      <trkpt lat="42.665830235928297" lon="1.487539708614349">
        <ele>2399.5100000000002</ele>
        <time>2025-07-14T06:22:06Z</time>
      </trkpt>
      <trkpt lat="42.665917491540313" lon="1.487527973949909">
        <ele>2399.0900000000001</ele>
        <time>2025-07-14T06:22:19Z</time>
      </trkpt>
      <trkpt lat="42.665989575907588" lon="1.487441137433052">
        <ele>2403.02</ele>
        <time>2025-07-14T06:22:41Z</time>
      </trkpt>
      <trkpt lat="42.666052859276533" lon="1.487363018095493">
        <ele>2406.2800000000002</ele>
        <time>2025-07-14T06:23:04Z</time>
      </trkpt>
      <trkpt lat="42.666147574782372" lon="1.487325886264443">
        <ele>2408.0599999999999</ele>
        <time>2025-07-14T06:23:21Z</time>
      </trkpt>
      <trkpt lat="42.666244972497225" lon="1.487310212105513">
        <ele>2408.98</ele>
        <time>2025-07-14T06:23:38Z</time>
      </trkpt>
      <trkpt lat="42.66632585786283" lon="1.487289341166616">
        <ele>2411.46</ele>
        <time>2025-07-14T06:23:57Z</time>
      </trkpt>
      <trkpt lat="42.666416885331273" lon="1.487291352823377">
        <ele>2412.5500000000002</ele>
        <time>2025-07-14T06:24:11Z</time>
      </trkpt>
      <trkpt lat="42.6665173843503" lon="1.487319935113192">
        <ele>2413.5500000000002</ele>
        <time>2025-07-14T06:24:25Z</time>
      </trkpt>
      <trkpt lat="42.666593492031097" lon="1.487312642857432">
        <ele>2415.3099999999999</ele>
        <time>2025-07-14T06:24:46Z</time>
      </trkpt>
      <trkpt lat="42.666671443730593" lon="1.487318761646748">
        <ele>2414.0500000000002</ele>
        <time>2025-07-14T06:25:06Z</time>
      </trkpt>
      <trkpt lat="42.666687117889524" lon="1.487355893477798">
        <ele>2411.9400000000001</ele>
        <time>2025-07-14T06:25:26Z</time>
      </trkpt>
      <trkpt lat="42.666736822575331" lon="1.487319935113192">
        <ele>2412.5500000000002</ele>
        <time>2025-07-14T06:25:42Z</time>
      </trkpt>
      <trkpt lat="42.666807482019067" lon="1.487266793847084">
        <ele>2416.0599999999999</ele>
        <time>2025-07-14T06:26:07Z</time>
      </trkpt>
      <trkpt lat="42.666866574436426" lon="1.487178029492497">
        <ele>2420.1799999999998</ele>
        <time>2025-07-14T06:27:01Z</time>
      </trkpt>
      <trkpt lat="42.666949052363634" lon="1.487182304263115">
        <ele>2421.9899999999998</ele>
        <time>2025-07-14T06:27:29Z</time>
      </trkpt>
      <trkpt lat="42.667034883052111" lon="1.487175766378641">
        <ele>2424.9200000000001</ele>
        <time>2025-07-14T06:27:53Z</time>
      </trkpt>
      <trkpt lat="42.667116522789001" lon="1.487212311476469">
        <ele>2425.7399999999998</ele>
        <time>2025-07-14T06:28:10Z</time>
      </trkpt>
      <trkpt lat="42.667206712067127" lon="1.487197810783982">
        <ele>2427.4099999999999</ele>
        <time>2025-07-14T06:28:30Z</time>
      </trkpt>
      <trkpt lat="42.667281394824386" lon="1.487192362546921">
        <ele>2431.0300000000002</ele>
        <time>2025-07-14T06:28:55Z</time>
      </trkpt>
      <trkpt lat="42.667360352352262" lon="1.487196553498507">
        <ele>2432.4400000000001</ele>
        <time>2025-07-14T06:29:09Z</time>
      </trkpt>
      <trkpt lat="42.66743159852922" lon="1.48724215105176">
        <ele>2433.4299999999998</ele>
        <time>2025-07-14T06:29:26Z</time>
      </trkpt>
      <trkpt lat="42.667511813342571" lon="1.487244162708521">
        <ele>2434.6500000000001</ele>
        <time>2025-07-14T06:29:45Z</time>
      </trkpt>
      <trkpt lat="42.667602086439729" lon="1.487246006727219">
        <ele>2435.9099999999999</ele>
        <time>2025-07-14T06:30:04Z</time>
      </trkpt>
      <trkpt lat="42.667688839137554" lon="1.487255143001676">
        <ele>2438.3299999999999</ele>
        <time>2025-07-14T06:30:27Z</time>
      </trkpt>
      <trkpt lat="42.667765785008669" lon="1.487313397228718">
        <ele>2438.6999999999998</ele>
        <time>2025-07-14T06:30:42Z</time>
      </trkpt>
      <trkpt lat="42.667846335098147" lon="1.487328233197331">
        <ele>2439.4699999999998</ele>
        <time>2025-07-14T06:31:39Z</time>
      </trkpt>
      <trkpt lat="42.667938536033034" lon="1.48735941387713">
        <ele>2440.4200000000001</ele>
        <time>2025-07-14T06:31:51Z</time>
      </trkpt>
      <trkpt lat="42.668018918484449" lon="1.487377770245075">
        <ele>2441.0799999999999</ele>
        <time>2025-07-14T06:32:01Z</time>
      </trkpt>
      <trkpt lat="42.668075496330857" lon="1.487475000321865">
        <ele>2440.6799999999998</ele>
        <time>2025-07-14T06:32:12Z</time>
      </trkpt>
      <trkpt lat="42.668158896267414" lon="1.487510036677122">
        <ele>2442.3699999999999</ele>
        <time>2025-07-14T06:32:35Z</time>
      </trkpt>
      <trkpt lat="42.668242715299129" lon="1.487553119659424">
        <ele>2443.29</ele>
        <time>2025-07-14T06:32:50Z</time>
      </trkpt>
      <trkpt lat="42.668320247903466" lon="1.487639201804996">
        <ele>2444.5799999999999</ele>
        <time>2025-07-14T06:33:04Z</time>
      </trkpt>
      <trkpt lat="42.668390488252044" lon="1.487704496830702">
        <ele>2443.6900000000001</ele>
        <time>2025-07-14T06:33:17Z</time>
      </trkpt>
      <trkpt lat="42.668474139645696" lon="1.487771971151233">
        <ele>2445.7399999999998</ele>
        <time>2025-07-14T06:33:34Z</time>
      </trkpt>
      <trkpt lat="42.668558964505792" lon="1.487799882888794">
        <ele>2446.25</ele>
        <time>2025-07-14T06:34:02Z</time>
      </trkpt>
      <trkpt lat="42.668623840436339" lon="1.487749256193638">
        <ele>2449.2800000000002</ele>
        <time>2025-07-14T06:34:35Z</time>
      </trkpt>
      <trkpt lat="42.668714951723814" lon="1.487733665853739">
        <ele>2452.6300000000001</ele>
        <time>2025-07-14T06:35:04Z</time>
      </trkpt>
      <trkpt lat="42.668813019990921" lon="1.487726205959916">
        <ele>2455.9299999999998</ele>
        <time>2025-07-14T06:35:32Z</time>
      </trkpt>
      <trkpt lat="42.668856773525476" lon="1.487744059413672">
        <ele>2457.8800000000001</ele>
        <time>2025-07-14T06:36:51Z</time>
      </trkpt>
      <trkpt lat="42.668899521231651" lon="1.487692007794976">
        <ele>2461.6500000000001</ele>
        <time>2025-07-14T06:37:33Z</time>
      </trkpt>
      <trkpt lat="42.668988034129143" lon="1.487676836550236">
        <ele>2464.4400000000001</ele>
        <time>2025-07-14T06:37:52Z</time>
      </trkpt>
      <trkpt lat="42.669060369953513" lon="1.487600225955248">
        <ele>2466.6799999999998</ele>
        <time>2025-07-14T06:38:18Z</time>
      </trkpt>
      <trkpt lat="42.669065063819289" lon="1.487478604540229">
        <ele>2470.9200000000001</ele>
        <time>2025-07-14T06:39:09Z</time>
      </trkpt>
      <trkpt lat="42.669017957523465" lon="1.487389085814357">
        <ele>2474.8200000000002</ele>
        <time>2025-07-14T06:39:34Z</time>
      </trkpt>
      <trkpt lat="42.66894930973649" lon="1.487300237640739">
        <ele>2478.5900000000001</ele>
        <time>2025-07-14T06:40:11Z</time>
      </trkpt>
      <trkpt lat="42.668956350535154" lon="1.487221783027053">
        <ele>2481.52</ele>
        <time>2025-07-14T06:40:39Z</time>
      </trkpt>
      <trkpt lat="42.66904846765101" lon="1.487204432487488">
        <ele>2483.8299999999999</ele>
        <time>2025-07-14T06:41:06Z</time>
      </trkpt>
      <trkpt lat="42.66905190423131" lon="1.487080631777644">
        <ele>2488.9099999999999</ele>
        <time>2025-07-14T06:41:44Z</time>
      </trkpt>
      <trkpt lat="42.66909004189074" lon="1.487029921263456">
        <ele>2493.4099999999999</ele>
        <time>2025-07-14T06:42:30Z</time>
      </trkpt>
      <trkpt lat="42.669176626950502" lon="1.487033357843757">
        <ele>2500.1300000000001</ele>
        <time>2025-07-14T06:43:31Z</time>
      </trkpt>
      <trkpt lat="42.669252650812268" lon="1.48705649189651">
        <ele>2506.04</ele>
        <time>2025-07-14T06:44:18Z</time>
      </trkpt>
      <trkpt lat="42.669298918917775" lon="1.486936882138252">
        <ele>2512</ele>
        <time>2025-07-14T06:45:27Z</time>
      </trkpt>
      <trkpt lat="42.669380139559507" lon="1.486903941258788">
        <ele>2515.9699999999998</ele>
        <time>2025-07-14T06:46:00Z</time>
      </trkpt>
      <trkpt lat="42.669382737949491" lon="1.486787851899862">
        <ele>2519.96</ele>
        <time>2025-07-14T06:46:32Z</time>
      </trkpt>
      <trkpt lat="42.669400004670024" lon="1.486707469448447">
        <ele>2523.8099999999999</ele>
        <time>2025-07-14T06:47:05Z</time>
      </trkpt>
      <trkpt lat="42.669333117082715" lon="1.486642258241773">
        <ele>2526.1700000000001</ele>
        <time>2025-07-14T06:47:33Z</time>
      </trkpt>
      <trkpt lat="42.669278550893068" lon="1.486540250480175">
        <ele>2528.6199999999999</ele>
        <time>2025-07-14T06:47:55Z</time>
      </trkpt>
      <trkpt lat="42.669227169826627" lon="1.486406894400716">
        <ele>2531.98</ele>
        <time>2025-07-14T06:49:27Z</time>
      </trkpt>
      <trkpt lat="42.669241838157177" lon="1.486305054277182">
        <ele>2536.0300000000002</ele>
        <time>2025-07-14T06:49:49Z</time>
      </trkpt>
      <trkpt lat="42.669325489550829" lon="1.486266916617751">
        <ele>2540.3400000000001</ele>
        <time>2025-07-14T06:50:28Z</time>
      </trkpt>
      <trkpt lat="42.669359520077705" lon="1.486188545823097">
        <ele>2545.3000000000002</ele>
        <time>2025-07-14T06:51:07Z</time>
      </trkpt>
      <trkpt lat="42.669402854517102" lon="1.486104559153318">
        <ele>2547.9400000000001</ele>
        <time>2025-07-14T06:51:33Z</time>
      </trkpt>
      <trkpt lat="42.669485751539469" lon="1.486069858074188">
        <ele>2552.02</ele>
        <time>2025-07-14T06:52:03Z</time>
      </trkpt>
      <trkpt lat="42.669576946645975" lon="1.486085196956992">
        <ele>2556.6900000000001</ele>
        <time>2025-07-14T06:52:47Z</time>
      </trkpt>
      <trkpt lat="42.669650120660663" lon="1.486090812832117">
        <ele>2560.3000000000002</ele>
        <time>2025-07-14T06:53:16Z</time>
      </trkpt>
      <trkpt lat="42.66970225609839" lon="1.486021829769015">
        <ele>2564.77</ele>
        <time>2025-07-14T06:53:46Z</time>
      </trkpt>
      <trkpt lat="42.669776603579521" lon="1.486029205843806">
        <ele>2567.4400000000001</ele>
        <time>2025-07-14T06:54:22Z</time>
      </trkpt>
      <trkpt lat="42.669779788702726" lon="1.485979249700904">
        <ele>2566.8800000000001</ele>
        <time>2025-07-14T06:58:49Z</time>
      </trkpt>
      <trkpt lat="42.669854471459985" lon="1.486041862517595">
        <ele>2566.23</ele>
        <time>2025-07-14T07:00:51Z</time>
      </trkpt>
      <trkpt lat="42.669938374310732" lon="1.485987128689885">
        <ele>2566.73</ele>
        <time>2025-07-14T07:01:02Z</time>
      </trkpt>
      <trkpt lat="42.669991012662649" lon="1.485889060422778">
        <ele>2566.9099999999999</ele>
        <time>2025-07-14T07:01:14Z</time>
      </trkpt>
      <trkpt lat="42.670034095644951" lon="1.485786214470863">
        <ele>2569.9200000000001</ele>
        <time>2025-07-14T07:01:32Z</time>
      </trkpt>
      <trkpt lat="42.670021690428257" lon="1.485672136768699">
        <ele>2573.1300000000001</ele>
        <time>2025-07-14T07:01:56Z</time>
      </trkpt>
      <trkpt lat="42.670018672943115" lon="1.485566524788737">
        <ele>2575.75</ele>
        <time>2025-07-14T07:02:26Z</time>
      </trkpt>
      <trkpt lat="42.670048596337438" lon="1.485464852303267">
        <ele>2577.8299999999999</ele>
        <time>2025-07-14T07:02:47Z</time>
      </trkpt>
      <trkpt lat="42.670070556923747" lon="1.485359994694591">
        <ele>2581.0500000000002</ele>
        <time>2025-07-14T07:03:25Z</time>
      </trkpt>
      <trkpt lat="42.670128978788853" lon="1.485290927812457">
        <ele>2581.4200000000001</ele>
        <time>2025-07-14T07:03:45Z</time>
      </trkpt>
      <trkpt lat="42.670109197497368" lon="1.48523636162281">
        <ele>2585.8800000000001</ele>
        <time>2025-07-14T07:04:38Z</time>
      </trkpt>
      <trkpt lat="42.670038705691695" lon="1.485210964456201">
        <ele>2588.2199999999998</ele>
        <time>2025-07-14T07:05:10Z</time>
      </trkpt>
      <trkpt lat="42.670046500861645" lon="1.485118344426155">
        <ele>2593.0999999999999</ele>
        <time>2025-07-14T07:05:33Z</time>
      </trkpt>
      <trkpt lat="42.670002998784184" lon="1.485059419646859">
        <ele>2595.6700000000001</ele>
        <time>2025-07-14T07:06:02Z</time>
      </trkpt>
      <trkpt lat="42.669985312968493" lon="1.48492899723351">
        <ele>2597.5900000000001</ele>
        <time>2025-07-14T07:06:29Z</time>
      </trkpt>
      <trkpt lat="42.670013392344117" lon="1.484816176816821">
        <ele>2598.9099999999999</ele>
        <time>2025-07-14T07:06:46Z</time>
      </trkpt>
      <trkpt lat="42.670034011825919" lon="1.484756665304303">
        <ele>2602.2600000000002</ele>
        <time>2025-07-14T07:07:15Z</time>
      </trkpt>
      <trkpt lat="42.669968297705054" lon="1.48467443883419">
        <ele>2604.23</ele>
        <time>2025-07-14T07:07:46Z</time>
      </trkpt>
      <trkpt lat="42.669897386804223" lon="1.484602270647883">
        <ele>2608.5500000000002</ele>
        <time>2025-07-14T07:08:11Z</time>
      </trkpt>
      <trkpt lat="42.669832427054644" lon="1.484537897631526">
        <ele>2612.2399999999998</ele>
        <time>2025-07-14T07:08:41Z</time>
      </trkpt>
      <trkpt lat="42.669753637164831" lon="1.484476877376437">
        <ele>2614.7800000000002</ele>
        <time>2025-07-14T07:09:52Z</time>
      </trkpt>
      <trkpt lat="42.669705944135785" lon="1.484432704746723">
        <ele>2616.7199999999998</ele>
        <time>2025-07-14T07:10:17Z</time>
      </trkpt>
      <trkpt lat="42.669656742364168" lon="1.484324997290969">
        <ele>2622.5700000000002</ele>
        <time>2025-07-14T07:10:53Z</time>
      </trkpt>
      <trkpt lat="42.66959035769105" lon="1.484212931245565">
        <ele>2627.6500000000001</ele>
        <time>2025-07-14T07:11:45Z</time>
      </trkpt>
      <trkpt lat="42.669526403769851" lon="1.484101703390479">
        <ele>2633.2199999999998</ele>
        <time>2025-07-14T07:12:34Z</time>
      </trkpt>
      <trkpt lat="42.669448452070355" lon="1.484029619023204">
        <ele>2637.3200000000002</ele>
        <time>2025-07-14T07:13:20Z</time>
      </trkpt>
      <trkpt lat="42.669413331896067" lon="1.483955439180136">
        <ele>2639.8200000000002</ele>
        <time>2025-07-14T07:14:28Z</time>
      </trkpt>
      <trkpt lat="42.669421127066016" lon="1.483841110020876">
        <ele>2638.02</ele>
        <time>2025-07-14T07:14:57Z</time>
      </trkpt>
      <trkpt lat="42.669344516471028" lon="1.483798865228891">
        <ele>2636.98</ele>
        <time>2025-07-14T07:15:13Z</time>
      </trkpt>
      <trkpt lat="42.669297913089395" lon="1.483700042590499">
        <ele>2635.3400000000001</ele>
        <time>2025-07-14T07:15:38Z</time>
      </trkpt>
      <trkpt lat="42.669293219223619" lon="1.483586300164461">
        <ele>2631.8000000000002</ele>
        <time>2025-07-14T07:16:15Z</time>
      </trkpt>
      <trkpt lat="42.669273605570197" lon="1.483489740639925">
        <ele>2629.2600000000002</ele>
        <time>2025-07-14T07:16:56Z</time>
      </trkpt>
      <trkpt lat="42.669250974431634" lon="1.483485298231244">
        <ele>2629.0799999999999</ele>
        <time>2025-07-14T07:17:06Z</time>
      </trkpt>
      <trkpt lat="42.669231276959181" lon="1.483352109789848">
        <ele>2626.0900000000001</ele>
        <time>2025-07-14T07:17:17Z</time>
      </trkpt>
      <trkpt lat="42.669183919206262" lon="1.48326032795012">
        <ele>2626.29</ele>
        <time>2025-07-14T07:17:35Z</time>
      </trkpt>
      <trkpt lat="42.669157264754176" lon="1.483140802010894">
        <ele>2623.4000000000001</ele>
        <time>2025-07-14T07:17:54Z</time>
      </trkpt>
      <trkpt lat="42.669136561453342" lon="1.483056480064988">
        <ele>2620.9000000000001</ele>
        <time>2025-07-14T07:18:13Z</time>
      </trkpt>
      <trkpt lat="42.669093478471041" lon="1.482951370999217">
        <ele>2616.4000000000001</ele>
        <time>2025-07-14T07:18:34Z</time>
      </trkpt>
      <trkpt lat="42.66907537356019" lon="1.482837712392211">
        <ele>2613.3099999999999</ele>
        <time>2025-07-14T07:19:04Z</time>
      </trkpt>
      <trkpt lat="42.669064896181226" lon="1.482725143432617">
        <ele>2610.6599999999999</ele>
        <time>2025-07-14T07:19:24Z</time>
      </trkpt>
      <trkpt lat="42.669033631682396" lon="1.482620872557163">
        <ele>2608.7199999999998</ele>
        <time>2025-07-14T07:19:41Z</time>
      </trkpt>
      <trkpt lat="42.668966073542833" lon="1.482535293325782">
        <ele>2607.9099999999999</ele>
        <time>2025-07-14T07:20:02Z</time>
      </trkpt>
      <trkpt lat="42.668971102684736" lon="1.482426328584552">
        <ele>2605.8699999999999</ele>
        <time>2025-07-14T07:20:23Z</time>
      </trkpt>
      <trkpt lat="42.668966744095087" lon="1.482313927263022">
        <ele>2604.3800000000001</ele>
        <time>2025-07-14T07:21:05Z</time>
      </trkpt>
      <trkpt lat="42.668960960581899" lon="1.482212422415614">
        <ele>2601.0900000000001</ele>
        <time>2025-07-14T07:21:39Z</time>
      </trkpt>
      <trkpt lat="42.668950315564871" lon="1.482094069942832">
        <ele>2598.8600000000001</ele>
        <time>2025-07-14T07:21:56Z</time>
      </trkpt>
      <trkpt lat="42.6689263433218" lon="1.481986446306109">
        <ele>2598.3400000000001</ele>
        <time>2025-07-14T07:22:20Z</time>
      </trkpt>
      <trkpt lat="42.668914273381233" lon="1.481868680566549">
        <ele>2595.4499999999998</ele>
        <time>2025-07-14T07:22:53Z</time>
      </trkpt>
      <trkpt lat="42.668895246461034" lon="1.481752339750528">
        <ele>2595.21</ele>
        <time>2025-07-14T07:23:11Z</time>
      </trkpt>
      <trkpt lat="42.668878063559532" lon="1.481636501848698">
        <ele>2594.4000000000001</ele>
        <time>2025-07-14T07:23:48Z</time>
      </trkpt>
      <trkpt lat="42.668890552595258" lon="1.481527956202626">
        <ele>2590.5300000000002</ele>
        <time>2025-07-14T07:25:18Z</time>
      </trkpt>
      <trkpt lat="42.668866580352187" lon="1.481429468840361">
        <ele>2585.3800000000001</ele>
        <time>2025-07-14T07:26:47Z</time>
      </trkpt>
      <trkpt lat="42.668918631970882" lon="1.481388146057725">
        <ele>2581.7800000000002</ele>
        <time>2025-07-14T07:27:41Z</time>
      </trkpt>
      <trkpt lat="42.668912597000599" lon="1.481217406690121">
        <ele>2578.5599999999999</ele>
        <time>2025-07-14T07:29:35Z</time>
      </trkpt>
      <trkpt lat="42.668856605887413" lon="1.481224112212658">
        <ele>2580.5</ele>
        <time>2025-07-14T07:30:59Z</time>
      </trkpt>
      <trkpt lat="42.668858114629984" lon="1.481068795546889">
        <ele>2581.25</ele>
        <time>2025-07-14T07:31:59Z</time>
      </trkpt>
      <trkpt lat="42.668872950598598" lon="1.480926973745227">
        <ele>2582.52</ele>
        <time>2025-07-14T07:32:27Z</time>
      </trkpt>
      <trkpt lat="42.668869346380234" lon="1.480790264904499">
        <ele>2583.0700000000002</ele>
        <time>2025-07-14T07:33:33Z</time>
      </trkpt>
      <trkpt lat="42.668860880658031" lon="1.480721281841397">
        <ele>2580.3899999999999</ele>
        <time>2025-07-14T07:37:37Z</time>
      </trkpt>
      <trkpt lat="42.668901281431317" lon="1.480631679296494">
        <ele>2582.0599999999999</ele>
        <time>2025-07-14T07:38:48Z</time>
      </trkpt>
      <trkpt lat="42.668900107964873" lon="1.480524223297834">
        <ele>2583.8899999999999</ele>
        <time>2025-07-14T07:39:29Z</time>
      </trkpt>
      <trkpt lat="42.668899269774556" lon="1.480385670438409">
        <ele>2580.4099999999999</ele>
        <time>2025-07-14T07:40:43Z</time>
      </trkpt>
      <trkpt lat="42.668874375522137" lon="1.480298331007361">
        <ele>2584.0900000000001</ele>
        <time>2025-07-14T07:41:59Z</time>
      </trkpt>
      <trkpt lat="42.668929193168879" lon="1.480257594957948">
        <ele>2586.1999999999998</ele>
        <time>2025-07-14T07:42:55Z</time>
      </trkpt>
      <trkpt lat="42.669014437124133" lon="1.480211159214377">
        <ele>2588.04</ele>
        <time>2025-07-14T07:43:54Z</time>
      </trkpt>
      <trkpt lat="42.669094065204263" lon="1.480157598853111">
        <ele>2590.9499999999998</ele>
        <time>2025-07-14T07:44:13Z</time>
      </trkpt>
      <trkpt lat="42.669149385765195" lon="1.480100518092513">
        <ele>2594.1300000000001</ele>
        <time>2025-07-14T07:44:53Z</time>
      </trkpt>
      <trkpt lat="42.669112253934145" lon="1.480131279677153">
        <ele>2592.2399999999998</ele>
        <time>2025-07-14T07:50:11Z</time>
      </trkpt>
      <trkpt lat="42.669098591431975" lon="1.48011744953692">
        <ele>2592.48</ele>
        <time>2025-07-14T07:50:58Z</time>
      </trkpt>
      <trkpt lat="42.669097501784563" lon="1.480136644095182">
        <ele>2592.3600000000001</ele>
        <time>2025-07-14T07:51:36Z</time>
      </trkpt>
      <trkpt lat="42.669146535918117" lon="1.480151480063796">
        <ele>2592.27</ele>
        <time>2025-07-14T07:52:14Z</time>
      </trkpt>
      <trkpt lat="42.669129520654678" lon="1.480108983814716">
        <ele>2592.5500000000002</ele>
        <time>2025-07-14T07:53:03Z</time>
      </trkpt>
      <trkpt lat="42.669129939749837" lon="1.480127004906535">
        <ele>2593.0500000000002</ele>
        <time>2025-07-14T07:53:58Z</time>
      </trkpt>
      <trkpt lat="42.669145949184895" lon="1.480134967714548">
        <ele>2592.7199999999998</ele>
        <time>2025-07-14T07:55:09Z</time>
      </trkpt>
      <trkpt lat="42.669120887294412" lon="1.480177212506533">
        <ele>2592.1599999999999</ele>
        <time>2025-07-14T07:55:48Z</time>
      </trkpt>
      <trkpt lat="42.669123820960522" lon="1.480170423164964">
        <ele>2592.1300000000001</ele>
        <time>2025-07-14T07:56:07Z</time>
      </trkpt>
      <trkpt lat="42.669148799031973" lon="1.480120467022061">
        <ele>2592.8899999999999</ele>
        <time>2025-07-14T07:56:31Z</time>
      </trkpt>
      <trkpt lat="42.669130861759186" lon="1.480197077617049">
        <ele>2592.6999999999998</ele>
        <time>2025-07-14T07:57:21Z</time>
      </trkpt>
      <trkpt lat="42.669122815132141" lon="1.480122478678823">
        <ele>2593.3299999999999</ele>
        <time>2025-07-14T07:58:12Z</time>
      </trkpt>
      <trkpt lat="42.669104374945164" lon="1.480003707110882">
        <ele>2600.1700000000001</ele>
        <time>2025-07-14T07:59:00Z</time>
      </trkpt>
      <trkpt lat="42.669086940586567" lon="1.479863058775663">
        <ele>2605.3400000000001</ele>
        <time>2025-07-14T08:00:13Z</time>
      </trkpt>
      <trkpt lat="42.669102195650339" lon="1.479818131774664">
        <ele>2609.23</ele>
        <time>2025-07-14T08:01:01Z</time>
      </trkpt>
      <trkpt lat="42.669108062982559" lon="1.479736408218741">
        <ele>2612.4200000000001</ele>
        <time>2025-07-14T08:02:44Z</time>
      </trkpt>
      <trkpt lat="42.669156342744827" lon="1.479684440419078">
        <ele>2616.54</ele>
        <time>2025-07-14T08:03:31Z</time>
      </trkpt>
      <trkpt lat="42.669189618900418" lon="1.479602716863155">
        <ele>2621.73</ele>
        <time>2025-07-14T08:04:13Z</time>
      </trkpt>
      <trkpt lat="42.669217698276043" lon="1.479517305269837">
        <ele>2629.9699999999998</ele>
        <time>2025-07-14T08:05:33Z</time>
      </trkpt>
      <trkpt lat="42.669225577265024" lon="1.479441449046135">
        <ele>2635.1199999999999</ele>
        <time>2025-07-14T08:06:38Z</time>
      </trkpt>
      <trkpt lat="42.669268827885389" lon="1.479356456547976">
        <ele>2641.8699999999999</ele>
        <time>2025-07-14T08:07:39Z</time>
      </trkpt>
      <trkpt lat="42.66930352896452" lon="1.479264004155994">
        <ele>2646.0700000000002</ele>
        <time>2025-07-14T08:08:12Z</time>
      </trkpt>
      <trkpt lat="42.66931232996285" lon="1.479197619482875">
        <ele>2648.9200000000001</ele>
        <time>2025-07-14T08:08:40Z</time>
      </trkpt>
      <trkpt lat="42.66939983703196" lon="1.479192422702909">
        <ele>2649.0500000000002</ele>
        <time>2025-07-14T08:09:11Z</time>
      </trkpt>
      <trkpt lat="42.669485164806247" lon="1.479154787957668">
        <ele>2648.3499999999999</ele>
        <time>2025-07-14T08:09:23Z</time>
      </trkpt>
      <trkpt lat="42.669567642733455" lon="1.479121930897236">
        <ele>2647.3800000000001</ele>
        <time>2025-07-14T08:09:42Z</time>
      </trkpt>
      <trkpt lat="42.669650791212916" lon="1.479135509580374">
        <ele>2646.1999999999998</ele>
        <time>2025-07-14T08:10:03Z</time>
      </trkpt>
      <trkpt lat="42.669663783162832" lon="1.479155290871859">
        <ele>2645.96</ele>
        <time>2025-07-14T08:10:37Z</time>
      </trkpt>
      <trkpt lat="42.66974525526166" lon="1.479224106296897">
        <ele>2644.1999999999998</ele>
        <time>2025-07-14T08:11:07Z</time>
      </trkpt>
      <trkpt lat="42.669813064858317" lon="1.479208013042808">
        <ele>2640.27</ele>
        <time>2025-07-14T08:11:29Z</time>
      </trkpt>
      <trkpt lat="42.669822284951806" lon="1.479153530672193">
        <ele>2638.27</ele>
        <time>2025-07-14T08:12:47Z</time>
      </trkpt>
      <trkpt lat="42.669859416782856" lon="1.479085553437471">
        <ele>2637.3800000000001</ele>
        <time>2025-07-14T08:14:11Z</time>
      </trkpt>
      <trkpt lat="42.669959999620914" lon="1.479091672226787">
        <ele>2630.8600000000001</ele>
        <time>2025-07-14T08:15:29Z</time>
      </trkpt>
      <trkpt lat="42.66995245590806" lon="1.479120589792728">
        <ele>2631.8200000000002</ele>
        <time>2025-07-14T08:16:46Z</time>
      </trkpt>
      <trkpt lat="42.669950444251299" lon="1.479075998067856">
        <ele>2632.1799999999998</ele>
        <time>2025-07-14T08:18:03Z</time>
      </trkpt>
      <trkpt lat="42.669986234977841" lon="1.478995280340314">
        <ele>2626.9400000000001</ele>
        <time>2025-07-14T08:18:30Z</time>
      </trkpt>
      <trkpt lat="42.66994901932776" lon="1.478881789371371">
        <ele>2623.5599999999999</ele>
        <time>2025-07-14T08:18:45Z</time>
      </trkpt>
      <trkpt lat="42.669962178915739" lon="1.478892937302589">
        <ele>2622.8499999999999</ele>
        <time>2025-07-14T08:20:39Z</time>
      </trkpt>
      <trkpt lat="42.669917000457644" lon="1.478884387761354">
        <ele>2623.9499999999998</ele>
        <time>2025-07-14T08:23:03Z</time>
      </trkpt>
      <trkpt lat="42.669892022386193" lon="1.478834934532642">
        <ele>2621.21</ele>
        <time>2025-07-14T08:23:51Z</time>
      </trkpt>
      <trkpt lat="42.669885233044624" lon="1.478812973946333">
        <ele>2618.9699999999998</ele>
        <time>2025-07-14T08:25:18Z</time>
      </trkpt>
      <trkpt lat="42.669910965487361" lon="1.478733345866203">
        <ele>2616.1700000000001</ele>
        <time>2025-07-14T08:26:56Z</time>
      </trkpt>
      <trkpt lat="42.669910881668329" lon="1.478741224855185">
        <ele>2615.79</ele>
        <time>2025-07-14T08:28:19Z</time>
      </trkpt>
      <trkpt lat="42.66988405957818" lon="1.478659836575389">
        <ele>2614.4000000000001</ele>
        <time>2025-07-14T08:29:00Z</time>
      </trkpt>
      <trkpt lat="42.669820440933108" lon="1.478581465780735">
        <ele>2608.75</ele>
        <time>2025-07-14T08:29:17Z</time>
      </trkpt>
      <trkpt lat="42.669876432046294" lon="1.478511895984411">
        <ele>2603.3000000000002</ele>
        <time>2025-07-14T08:30:13Z</time>
      </trkpt>
      <trkpt lat="42.669950108975172" lon="1.478508459404111">
        <ele>2599.5999999999999</ele>
        <time>2025-07-14T08:30:32Z</time>
      </trkpt>
      <trkpt lat="42.670034766197205" lon="1.478518014773727">
        <ele>2595.3499999999999</ele>
        <time>2025-07-14T08:30:48Z</time>
      </trkpt>
      <trkpt lat="42.670128056779504" lon="1.478554476052523">
        <ele>2591.5900000000001</ele>
        <time>2025-07-14T08:31:07Z</time>
      </trkpt>
      <trkpt lat="42.67020114697516" lon="1.478554727509618">
        <ele>2589.5999999999999</ele>
        <time>2025-07-14T08:32:15Z</time>
      </trkpt>
      <trkpt lat="42.670241966843605" lon="1.478554895147681">
        <ele>2586.6300000000001</ele>
        <time>2025-07-14T08:39:19Z</time>
      </trkpt>
      <trkpt lat="42.67024414613843" lon="1.478558667004108">
        <ele>2585.54</ele>
        <time>2025-07-14T08:40:14Z</time>
      </trkpt>
      <trkpt lat="42.670225789770484" lon="1.478567803278565">
        <ele>2585.6900000000001</ele>
        <time>2025-07-14T08:41:12Z</time>
      </trkpt>
      <trkpt lat="42.670205505564809" lon="1.478538466617465">
        <ele>2584.9899999999998</ele>
        <time>2025-07-14T08:42:23Z</time>
      </trkpt>
      <trkpt lat="42.670213636010885" lon="1.478540813550353">
        <ele>2585.3600000000001</ele>
        <time>2025-07-14T08:43:26Z</time>
      </trkpt>
      <trkpt lat="42.670248840004206" lon="1.478563444688916">
        <ele>2585.1500000000001</ele>
        <time>2025-07-14T08:44:41Z</time>
      </trkpt>
      <trkpt lat="42.670241463929415" lon="1.478562438860536">
        <ele>2583.9000000000001</ele>
        <time>2025-07-14T08:45:18Z</time>
      </trkpt>
      <trkpt lat="42.670258982107043" lon="1.478483397513628">
        <ele>2581.21</ele>
        <time>2025-07-14T08:46:04Z</time>
      </trkpt>
      <trkpt lat="42.670247331261635" lon="1.478480128571391">
        <ele>2579</ele>
        <time>2025-07-14T08:46:59Z</time>
      </trkpt>
      <trkpt lat="42.670300723984838" lon="1.478405194357038">
        <ele>2574.5900000000001</ele>
        <time>2025-07-14T08:47:57Z</time>
      </trkpt>
      <trkpt lat="42.670386387035251" lon="1.478409133851528">
        <ele>2569.8400000000001</ele>
        <time>2025-07-14T08:48:28Z</time>
      </trkpt>
      <trkpt lat="42.67047674395144" lon="1.478395136073232">
        <ele>2565.1199999999999</ele>
        <time>2025-07-14T08:48:44Z</time>
      </trkpt>
      <trkpt lat="42.670553186908364" lon="1.478393711149693">
        <ele>2561.2399999999998</ele>
        <time>2025-07-14T08:49:01Z</time>
      </trkpt>
      <trkpt lat="42.670568525791168" lon="1.478312741965056">
        <ele>2555.8499999999999</ele>
        <time>2025-07-14T08:49:25Z</time>
      </trkpt>
      <trkpt lat="42.670609261840582" lon="1.478272089734674">
        <ele>2550.8600000000001</ele>
        <time>2025-07-14T08:49:45Z</time>
      </trkpt>
      <trkpt lat="42.670633988454938" lon="1.478184415027499">
        <ele>2545.9699999999998</ele>
        <time>2025-07-14T08:50:13Z</time>
      </trkpt>
      <trkpt lat="42.670720405876637" lon="1.478175949305296">
        <ele>2539.7600000000002</ele>
        <time>2025-07-14T08:51:06Z</time>
      </trkpt>
      <trkpt lat="42.670816713944077" lon="1.478199250996113">
        <ele>2533.9899999999998</ele>
        <time>2025-07-14T08:51:37Z</time>
      </trkpt>
      <trkpt lat="42.670891061425209" lon="1.478206962347031">
        <ele>2530.1300000000001</ele>
        <time>2025-07-14T08:51:56Z</time>
      </trkpt>
      <trkpt lat="42.670981418341398" lon="1.478252476081252">
        <ele>2527.96</ele>
        <time>2025-07-14T08:52:21Z</time>
      </trkpt>
      <trkpt lat="42.671047216281295" lon="1.478259181603789">
        <ele>2524.0799999999999</ele>
        <time>2025-07-14T08:52:58Z</time>
      </trkpt>
      <trkpt lat="42.671103458851576" lon="1.478287344798446">
        <ele>2522.1500000000001</ele>
        <time>2025-07-14T08:53:34Z</time>
      </trkpt>
      <trkpt lat="42.6711246650666" lon="1.47825532592833">
        <ele>2521.1900000000001</ele>
        <time>2025-07-14T08:55:50Z</time>
      </trkpt>
      <trkpt lat="42.671215189620852" lon="1.478274520486593">
        <ele>2516.8800000000001</ele>
        <time>2025-07-14T08:56:12Z</time>
      </trkpt>
      <trkpt lat="42.671286603435874" lon="1.478248536586762">
        <ele>2513.1999999999998</ele>
        <time>2025-07-14T08:56:35Z</time>
      </trkpt>
      <trkpt lat="42.671350222080946" lon="1.478237388655543">
        <ele>2509.1799999999998</ele>
        <time>2025-07-14T08:57:21Z</time>
      </trkpt>
      <trkpt lat="42.671432113274932" lon="1.478290781378746">
        <ele>2506.4299999999998</ele>
        <time>2025-07-14T08:57:51Z</time>
      </trkpt>
      <trkpt lat="42.671473687514663" lon="1.478399243205786">
        <ele>2503.1700000000001</ele>
        <time>2025-07-14T08:58:42Z</time>
      </trkpt>
      <trkpt lat="42.671515764668584" lon="1.478482391685247">
        <ele>2500.75</ele>
        <time>2025-07-14T08:59:05Z</time>
      </trkpt>
      <trkpt lat="42.671603774651885" lon="1.478478452190757">
        <ele>2499.8000000000002</ele>
        <time>2025-07-14T09:00:08Z</time>
      </trkpt>
      <trkpt lat="42.671650713309646" lon="1.478383569046855">
        <ele>2496.8400000000001</ele>
        <time>2025-07-14T09:01:45Z</time>
      </trkpt>
      <trkpt lat="42.671630429103971" lon="1.478278040885925">
        <ele>2494.46</ele>
        <time>2025-07-14T09:02:13Z</time>
      </trkpt>
      <trkpt lat="42.671674517914653" lon="1.478285416960716">
        <ele>2490.8200000000002</ele>
        <time>2025-07-14T09:05:54Z</time>
      </trkpt>
      <trkpt lat="42.671761438250542" lon="1.478256080299616">
        <ele>2486.8499999999999</ele>
        <time>2025-07-14T09:06:24Z</time>
      </trkpt>
      <trkpt lat="42.671847939491272" lon="1.478257002308965">
        <ele>2481.27</ele>
        <time>2025-07-14T09:06:46Z</time>
      </trkpt>
      <trkpt lat="42.671929495409131" lon="1.478290362283588">
        <ele>2479.4099999999999</ele>
        <time>2025-07-14T09:07:04Z</time>
      </trkpt>
      <trkpt lat="42.672014655545354" lon="1.478304779157043">
        <ele>2474.1799999999998</ele>
        <time>2025-07-14T09:07:26Z</time>
      </trkpt>
      <trkpt lat="42.672105431556702" lon="1.478271335363388">
        <ele>2468.8000000000002</ele>
        <time>2025-07-14T09:08:10Z</time>
      </trkpt>
      <trkpt lat="42.672192435711622" lon="1.478277035057545">
        <ele>2464.98</ele>
        <time>2025-07-14T09:08:46Z</time>
      </trkpt>
      <trkpt lat="42.672297712415457" lon="1.47830368950963">
        <ele>2461.04</ele>
        <time>2025-07-14T09:10:00Z</time>
      </trkpt>
      <trkpt lat="42.67238337546587" lon="1.478313747793436">
        <ele>2458.1900000000001</ele>
        <time>2025-07-14T09:10:16Z</time>
      </trkpt>
      <trkpt lat="42.672465350478888" lon="1.478357333689928">
        <ele>2456.1900000000001</ele>
        <time>2025-07-14T09:10:30Z</time>
      </trkpt>
      <trkpt lat="42.672544978559017" lon="1.478341910988092">
        <ele>2454.8699999999999</ele>
        <time>2025-07-14T09:10:59Z</time>
      </trkpt>
      <trkpt lat="42.67260666936636" lon="1.478434028103948">
        <ele>2453.3899999999999</ele>
        <time>2025-07-14T09:11:17Z</time>
      </trkpt>
      <trkpt lat="42.672692583873868" lon="1.478468226268888">
        <ele>2448.98</ele>
        <time>2025-07-14T09:11:41Z</time>
      </trkpt>
      <trkpt lat="42.672779252752662" lon="1.478421287611127">
        <ele>2445.6100000000001</ele>
        <time>2025-07-14T09:12:36Z</time>
      </trkpt>
      <trkpt lat="42.672877991572022" lon="1.478397902101278">
        <ele>2441.29</ele>
        <time>2025-07-14T09:13:37Z</time>
      </trkpt>
      <trkpt lat="42.672912105917931" lon="1.478348113596439">
        <ele>2439.6199999999999</ele>
        <time>2025-07-14T09:14:11Z</time>
      </trkpt>
      <trkpt lat="42.672986704856157" lon="1.478294469416142">
        <ele>2439.4200000000001</ele>
        <time>2025-07-14T09:14:27Z</time>
      </trkpt>
      <trkpt lat="42.673049569129944" lon="1.478228503838182">
        <ele>2438.5999999999999</ele>
        <time>2025-07-14T09:14:43Z</time>
      </trkpt>
      <trkpt lat="42.673084186390042" lon="1.478112665936351">
        <ele>2436.2399999999998</ele>
        <time>2025-07-14T09:15:06Z</time>
      </trkpt>
      <trkpt lat="42.673176387324929" lon="1.478048376739025">
        <ele>2435.3099999999999</ele>
        <time>2025-07-14T09:15:40Z</time>
      </trkpt>
      <trkpt lat="42.673266408964992" lon="1.478027002885938">
        <ele>2435.3699999999999</ele>
        <time>2025-07-14T09:15:55Z</time>
      </trkpt>
      <trkpt lat="42.673355005681515" lon="1.478006970137358">
        <ele>2435.5700000000002</ele>
        <time>2025-07-14T09:16:10Z</time>
      </trkpt>
      <trkpt lat="42.673446033149958" lon="1.478008227422833">
        <ele>2435.1900000000001</ele>
        <time>2025-07-14T09:16:44Z</time>
      </trkpt>
      <trkpt lat="42.673529852181673" lon="1.477976543828845">
        <ele>2435.1799999999998</ele>
        <time>2025-07-14T09:16:58Z</time>
      </trkpt>
      <trkpt lat="42.673600260168314" lon="1.477892138063908">
        <ele>2434.5500000000002</ele>
        <time>2025-07-14T09:17:30Z</time>
      </trkpt>
      <trkpt lat="42.673678044229746" lon="1.477831033989787">
        <ele>2437.02</ele>
        <time>2025-07-14T09:17:56Z</time>
      </trkpt>
      <trkpt lat="42.673726994544268" lon="1.477729193866253">
        <ele>2437.9299999999998</ele>
        <time>2025-07-14T09:18:42Z</time>
      </trkpt>
      <trkpt lat="42.673773597925901" lon="1.477619390934706">
        <ele>2438.4200000000001</ele>
        <time>2025-07-14T09:18:57Z</time>
      </trkpt>
      <trkpt lat="42.673802180215716" lon="1.477541523054242">
        <ele>2436.6500000000001</ele>
        <time>2025-07-14T09:20:23Z</time>
      </trkpt>
      <trkpt lat="42.673877365887165" lon="1.477482849732041">
        <ele>2435.8000000000002</ele>
        <time>2025-07-14T09:20:33Z</time>
      </trkpt>
      <trkpt lat="42.673959508538246" lon="1.477427529171109">
        <ele>2432.9099999999999</ele>
        <time>2025-07-14T09:20:45Z</time>
      </trkpt>
      <trkpt lat="42.67402027733624" lon="1.477390984073281">
        <ele>2429.1599999999999</ele>
        <time>2025-07-14T09:20:58Z</time>
      </trkpt>
      <trkpt lat="42.674110718071461" lon="1.477379752323031">
        <ele>2425.6100000000001</ele>
        <time>2025-07-14T09:21:13Z</time>
      </trkpt>
      <trkpt lat="42.674195291474462" lon="1.477381847798824">
        <ele>2424.54</ele>
        <time>2025-07-14T09:21:24Z</time>
      </trkpt>
      <trkpt lat="42.674284223467112" lon="1.477431049570441">
        <ele>2427.1999999999998</ele>
        <time>2025-07-14T09:21:37Z</time>
      </trkpt>
      <trkpt lat="42.674382543191314" lon="1.477439347654581">
        <ele>2427.1500000000001</ele>
        <time>2025-07-14T09:21:52Z</time>
      </trkpt>
      <trkpt lat="42.674465607851744" lon="1.477414704859257">
        <ele>2429.5900000000001</ele>
        <time>2025-07-14T09:22:12Z</time>
      </trkpt>
      <trkpt lat="42.674492094665766" lon="1.477420153096318">
        <ele>2429.4499999999998</ele>
        <time>2025-07-14T09:22:40Z</time>
      </trkpt>
      <trkpt lat="42.67458320595324" lon="1.477443454787135">
        <ele>2428.9200000000001</ele>
        <time>2025-07-14T09:23:10Z</time>
      </trkpt>
      <trkpt lat="42.674669623374939" lon="1.477418392896652">
        <ele>2428.23</ele>
        <time>2025-07-14T09:24:01Z</time>
      </trkpt>
      <trkpt lat="42.674762159585953" lon="1.47738947533071">
        <ele>2427.4400000000001</ele>
        <time>2025-07-14T09:25:01Z</time>
      </trkpt>
      <trkpt lat="42.674859305843711" lon="1.47736843675375">
        <ele>2426.9400000000001</ele>
        <time>2025-07-14T09:25:26Z</time>
      </trkpt>
      <trkpt lat="42.674946393817663" lon="1.477347817271948">
        <ele>2425.4200000000001</ele>
        <time>2025-07-14T09:27:05Z</time>
      </trkpt>
      <trkpt lat="42.67499752342701" lon="1.477341027930379">
        <ele>2426.1900000000001</ele>
        <time>2025-07-14T09:28:39Z</time>
      </trkpt>
      <trkpt lat="42.675068601965904" lon="1.477255029603839">
        <ele>2424.96</ele>
        <time>2025-07-14T09:28:51Z</time>
      </trkpt>
      <trkpt lat="42.675163820385933" lon="1.477270368486643">
        <ele>2426.8800000000001</ele>
        <time>2025-07-14T09:29:20Z</time>
      </trkpt>
      <trkpt lat="42.675248645246029" lon="1.477285036817193">
        <ele>2428.54</ele>
        <time>2025-07-14T09:29:47Z</time>
      </trkpt>
      <trkpt lat="42.675340343266726" lon="1.477260394021869">
        <ele>2427.8499999999999</ele>
        <time>2025-07-14T09:29:59Z</time>
      </trkpt>
      <trkpt lat="42.67539968714118" lon="1.477165762335062">
        <ele>2426.3800000000001</ele>
        <time>2025-07-14T09:30:14Z</time>
      </trkpt>
      <trkpt lat="42.675420138984919" lon="1.477028299123049">
        <ele>2426.0300000000002</ele>
        <time>2025-07-14T09:30:40Z</time>
      </trkpt>
      <trkpt lat="42.675483506172895" lon="1.476962249726057">
        <ele>2424.6599999999999</ele>
        <time>2025-07-14T09:31:14Z</time>
      </trkpt>
      <trkpt lat="42.675529774278402" lon="1.476855464279652">
        <ele>2421.73</ele>
        <time>2025-07-14T09:31:37Z</time>
      </trkpt>
      <trkpt lat="42.675585513934493" lon="1.476797629147768">
        <ele>2419.3600000000001</ele>
        <time>2025-07-14T09:32:03Z</time>
      </trkpt>
      <trkpt lat="42.675655335187912" lon="1.476747086271644">
        <ele>2414.71</ele>
        <time>2025-07-14T09:32:35Z</time>
      </trkpt>
      <trkpt lat="42.675749296322465" lon="1.476776422932744">
        <ele>2411.4400000000001</ele>
        <time>2025-07-14T09:33:04Z</time>
      </trkpt>
      <trkpt lat="42.675843928009272" lon="1.476816656067967">
        <ele>2407.9699999999998</ele>
        <time>2025-07-14T09:33:17Z</time>
      </trkpt>
      <trkpt lat="42.675923220813274" lon="1.47688128054142">
        <ele>2407.5900000000001</ele>
        <time>2025-07-14T09:33:25Z</time>
      </trkpt>
      <trkpt lat="42.67599874176085" lon="1.476943474262953">
        <ele>2406.7600000000002</ele>
        <time>2025-07-14T09:33:42Z</time>
      </trkpt>
      <trkpt lat="42.676069904118776" lon="1.477022431790829">
        <ele>2406.4899999999998</ele>
        <time>2025-07-14T09:33:58Z</time>
      </trkpt>
      <trkpt lat="42.676135869696736" lon="1.477116225287318">
        <ele>2407.1300000000001</ele>
        <time>2025-07-14T09:34:16Z</time>
      </trkpt>
      <trkpt lat="42.676220694556832" lon="1.477174563333392">
        <ele>2406.3699999999999</ele>
        <time>2025-07-14T09:34:30Z</time>
      </trkpt>
      <trkpt lat="42.676318176090717" lon="1.477196021005511">
        <ele>2405.1199999999999</ele>
        <time>2025-07-14T09:34:43Z</time>
      </trkpt>
      <trkpt lat="42.676411466673017" lon="1.477216640487313">
        <ele>2404.7600000000002</ele>
        <time>2025-07-14T09:34:55Z</time>
      </trkpt>
      <trkpt lat="42.676504589617252" lon="1.477236589416862">
        <ele>2404.6999999999998</ele>
        <time>2025-07-14T09:35:06Z</time>
      </trkpt>
      <trkpt lat="42.676581870764494" lon="1.477203145623207">
        <ele>2404.1700000000001</ele>
        <time>2025-07-14T09:35:42Z</time>
      </trkpt>
      <trkpt lat="42.676675748080015" lon="1.477196607738733">
        <ele>2402.9499999999998</ele>
        <time>2025-07-14T09:35:52Z</time>
      </trkpt>
      <trkpt lat="42.676766691729426" lon="1.477178251370788">
        <ele>2400.9899999999998</ele>
        <time>2025-07-14T09:36:04Z</time>
      </trkpt>
      <trkpt lat="42.676860233768821" lon="1.47718864493072">
        <ele>2402.2399999999998</ele>
        <time>2025-07-14T09:36:18Z</time>
      </trkpt>
      <trkpt lat="42.676966097205877" lon="1.477179257199168">
        <ele>2401.04</ele>
        <time>2025-07-14T09:36:34Z</time>
      </trkpt>
      <trkpt lat="42.677060142159462" lon="1.477188561111689">
        <ele>2400.3499999999999</ele>
        <time>2025-07-14T09:36:50Z</time>
      </trkpt>
      <trkpt lat="42.677153013646603" lon="1.477210186421871">
        <ele>2400.7800000000002</ele>
        <time>2025-07-14T09:37:02Z</time>
      </trkpt>
      <trkpt lat="42.677237754687667" lon="1.47723751142621">
        <ele>2400.5300000000002</ele>
        <time>2025-07-14T09:37:13Z</time>
      </trkpt>
      <trkpt lat="42.677322579547763" lon="1.477268859744072">
        <ele>2399.3600000000001</ele>
        <time>2025-07-14T09:37:31Z</time>
      </trkpt>
      <trkpt lat="42.677420731633902" lon="1.47725461050868">
        <ele>2397.4499999999998</ele>
        <time>2025-07-14T09:37:50Z</time>
      </trkpt>
      <trkpt lat="42.677509495988488" lon="1.477235918864608">
        <ele>2395.8400000000001</ele>
        <time>2025-07-14T09:38:01Z</time>
      </trkpt>
      <trkpt lat="42.677603960037231" lon="1.477218149229884">
        <ele>2394.6999999999998</ele>
        <time>2025-07-14T09:38:12Z</time>
      </trkpt>
      <trkpt lat="42.677693730220199" lon="1.477212533354759">
        <ele>2394.4499999999998</ele>
        <time>2025-07-14T09:38:22Z</time>
      </trkpt>
      <trkpt lat="42.677778638899326" lon="1.47719057276845">
        <ele>2394.3699999999999</ele>
        <time>2025-07-14T09:38:32Z</time>
      </trkpt>
      <trkpt lat="42.677870001643896" lon="1.477146400138736">
        <ele>2393.4699999999998</ele>
        <time>2025-07-14T09:38:42Z</time>
      </trkpt>
      <trkpt lat="42.677965722978115" lon="1.477104239165783">
        <ele>2393.3400000000001</ele>
        <time>2025-07-14T09:38:57Z</time>
      </trkpt>
      <trkpt lat="42.678058426827192" lon="1.47708990611136">
        <ele>2391.6500000000001</ele>
        <time>2025-07-14T09:39:08Z</time>
      </trkpt>
      <trkpt lat="42.678151717409492" lon="1.477085212245584">
        <ele>2390.2800000000002</ele>
        <time>2025-07-14T09:39:21Z</time>
      </trkpt>
      <trkpt lat="42.678245343267918" lon="1.477089822292328">
        <ele>2389.2800000000002</ele>
        <time>2025-07-14T09:39:33Z</time>
      </trkpt>
      <trkpt lat="42.678335197269917" lon="1.477091079577804">
        <ele>2387.21</ele>
        <time>2025-07-14T09:39:45Z</time>
      </trkpt>
      <trkpt lat="42.678424129262567" lon="1.477077249437571">
        <ele>2384.9000000000001</ele>
        <time>2025-07-14T09:39:58Z</time>
      </trkpt>
      <trkpt lat="42.678491855040193" lon="1.477007176727057">
        <ele>2381.21</ele>
        <time>2025-07-14T09:40:14Z</time>
      </trkpt>
      <trkpt lat="42.678525047376752" lon="1.476901061832905">
        <ele>2376.0300000000002</ele>
        <time>2025-07-14T09:40:32Z</time>
      </trkpt>
      <trkpt lat="42.678517168387771" lon="1.476809279993177">
        <ele>2371.8099999999999</ele>
        <time>2025-07-14T09:40:48Z</time>
      </trkpt>
      <trkpt lat="42.678541308268905" lon="1.476687826216221">
        <ele>2367.1599999999999</ele>
        <time>2025-07-14T09:41:06Z</time>
      </trkpt>
      <trkpt lat="42.678571231663227" lon="1.476576682180166">
        <ele>2365.2800000000002</ele>
        <time>2025-07-14T09:41:20Z</time>
      </trkpt>
      <trkpt lat="42.678600568324327" lon="1.476454641669989">
        <ele>2362.9400000000001</ele>
        <time>2025-07-14T09:41:33Z</time>
      </trkpt>
      <trkpt lat="42.678617248311639" lon="1.476348275318742">
        <ele>2358.54</ele>
        <time>2025-07-14T09:41:51Z</time>
      </trkpt>
      <trkpt lat="42.678623534739017" lon="1.476227240636945">
        <ele>2353.79</ele>
        <time>2025-07-14T09:42:17Z</time>
      </trkpt>
      <trkpt lat="42.678611129522324" lon="1.476130932569504">
        <ele>2349.8400000000001</ele>
        <time>2025-07-14T09:42:47Z</time>
      </trkpt>
      <trkpt lat="42.678621355444193" lon="1.476036217063665">
        <ele>2343.77</ele>
        <time>2025-07-14T09:43:10Z</time>
      </trkpt>
      <trkpt lat="42.678649434819818" lon="1.475999420508742">
        <ele>2342.71</ele>
        <time>2025-07-14T09:44:45Z</time>
      </trkpt>
      <trkpt lat="42.678652871400118" lon="1.475879307836294">
        <ele>2340.5599999999999</ele>
        <time>2025-07-14T09:45:02Z</time>
      </trkpt>
      <trkpt lat="42.67865052446723" lon="1.475764224305749">
        <ele>2338.6100000000001</ele>
        <time>2025-07-14T09:45:15Z</time>
      </trkpt>
      <trkpt lat="42.678685141727328" lon="1.475659618154168">
        <ele>2337.3699999999999</ele>
        <time>2025-07-14T09:45:26Z</time>
      </trkpt>
      <trkpt lat="42.678707605227828" lon="1.475554341450334">
        <ele>2336.0700000000002</ele>
        <time>2025-07-14T09:45:38Z</time>
      </trkpt>
      <trkpt lat="42.678732164204121" lon="1.475443448871374">
        <ele>2333.75</ele>
        <time>2025-07-14T09:45:52Z</time>
      </trkpt>
      <trkpt lat="42.678739205002785" lon="1.475328700616956">
        <ele>2329.79</ele>
        <time>2025-07-14T09:46:13Z</time>
      </trkpt>
      <trkpt lat="42.678807014599442" lon="1.475252257660031">
        <ele>2328.0900000000001</ele>
        <time>2025-07-14T09:46:34Z</time>
      </trkpt>
      <trkpt lat="42.678882284089923" lon="1.475192327052355">
        <ele>2326.9400000000001</ele>
        <time>2025-07-14T09:46:52Z</time>
      </trkpt>
      <trkpt lat="42.678942466154695" lon="1.475115632638335">
        <ele>2324.0599999999999</ele>
        <time>2025-07-14T09:47:15Z</time>
      </trkpt>
      <trkpt lat="42.679030224680901" lon="1.475078919902444">
        <ele>2322.1399999999999</ele>
        <time>2025-07-14T09:47:40Z</time>
      </trkpt>
      <trkpt lat="42.679093424230814" lon="1.474970122799277">
        <ele>2320.4000000000001</ele>
        <time>2025-07-14T09:47:59Z</time>
      </trkpt>
      <trkpt lat="42.679143464192748" lon="1.47484514862299">
        <ele>2320.1599999999999</ele>
        <time>2025-07-14T09:48:17Z</time>
      </trkpt>
      <trkpt lat="42.679055873304605" lon="1.474781110882759">
        <ele>2315.5599999999999</ele>
        <time>2025-07-14T09:49:01Z</time>
      </trkpt>
      <trkpt lat="42.679004240781069" lon="1.474732412025333">
        <ele>2314.23</ele>
        <time>2025-07-14T09:49:32Z</time>
      </trkpt>
      <trkpt lat="42.679042210802436" lon="1.474640127271414">
        <ele>2312.8299999999999</ele>
        <time>2025-07-14T09:49:48Z</time>
      </trkpt>
      <trkpt lat="42.679102141410112" lon="1.474570808932185">
        <ele>2314.9000000000001</ele>
        <time>2025-07-14T09:50:06Z</time>
      </trkpt>
      <trkpt lat="42.679135082289577" lon="1.474480954930186">
        <ele>2317.5900000000001</ele>
        <time>2025-07-14T09:50:26Z</time>
      </trkpt>
      <trkpt lat="42.679178500548005" lon="1.474404679611325">
        <ele>2316.4299999999998</ele>
        <time>2025-07-14T09:51:02Z</time>
      </trkpt>
      <trkpt lat="42.679224852472544" lon="1.474425299093127">
        <ele>2317.1500000000001</ele>
        <time>2025-07-14T09:51:36Z</time>
      </trkpt>
      <trkpt lat="42.679194761440158" lon="1.474413480609655">
        <ele>2315.8699999999999</ele>
        <time>2025-07-14T09:53:09Z</time>
      </trkpt>
      <trkpt lat="42.679269947111607" lon="1.474358243867755">
        <ele>2312.27</ele>
        <time>2025-07-14T09:53:22Z</time>
      </trkpt>
      <trkpt lat="42.679338175803423" lon="1.474288506433368">
        <ele>2311.04</ele>
        <time>2025-07-14T09:53:36Z</time>
      </trkpt>
      <trkpt lat="42.679386455565691" lon="1.474212231114507">
        <ele>2308.02</ele>
        <time>2025-07-14T09:53:58Z</time>
      </trkpt>
      <trkpt lat="42.679451918229461" lon="1.474135704338551">
        <ele>2304.73</ele>
        <time>2025-07-14T09:54:22Z</time>
      </trkpt>
      <trkpt lat="42.67951930873096" lon="1.474196556955576">
        <ele>2301.3000000000002</ele>
        <time>2025-07-14T09:54:47Z</time>
      </trkpt>
      <trkpt lat="42.679592566564679" lon="1.474135452881455">
        <ele>2298.02</ele>
        <time>2025-07-14T09:55:15Z</time>
      </trkpt>
      <trkpt lat="42.679678145796061" lon="1.47411810234189">
        <ele>2297.8099999999999</ele>
        <time>2025-07-14T09:55:44Z</time>
      </trkpt>
      <trkpt lat="42.679773950949311" lon="1.474144924432039">
        <ele>2296.6999999999998</ele>
        <time>2025-07-14T09:56:14Z</time>
      </trkpt>
      <trkpt lat="42.679850896820426" lon="1.474107122048736">
        <ele>2290.7600000000002</ele>
        <time>2025-07-14T09:56:32Z</time>
      </trkpt>
      <trkpt lat="42.679946199059486" lon="1.474119946360588">
        <ele>2288.29</ele>
        <time>2025-07-14T09:56:51Z</time>
      </trkpt>
      <trkpt lat="42.680029766634107" lon="1.474170489236713">
        <ele>2284.6300000000001</ele>
        <time>2025-07-14T09:57:19Z</time>
      </trkpt>
      <trkpt lat="42.680123224854469" lon="1.474214997142553">
        <ele>2282.79</ele>
        <time>2025-07-14T09:57:34Z</time>
      </trkpt>
      <trkpt lat="42.680208804085851" lon="1.474241986870766">
        <ele>2280.6399999999999</ele>
        <time>2025-07-14T09:57:48Z</time>
      </trkpt>
      <trkpt lat="42.680297316983342" lon="1.474286327138543">
        <ele>2277.4200000000001</ele>
        <time>2025-07-14T09:58:28Z</time>
      </trkpt>
      <trkpt lat="42.680387422442436" lon="1.474323542788625">
        <ele>2274.1199999999999</ele>
        <time>2025-07-14T09:58:42Z</time>
      </trkpt>
      <trkpt lat="42.680472079664469" lon="1.474364949390292">
        <ele>2272.96</ele>
        <time>2025-07-14T09:58:54Z</time>
      </trkpt>
      <trkpt lat="42.680561263114214" lon="1.47436142899096">
        <ele>2270.9000000000001</ele>
        <time>2025-07-14T09:59:06Z</time>
      </trkpt>
      <trkpt lat="42.680646507069468" lon="1.474406272172928">
        <ele>2270.5900000000001</ele>
        <time>2025-07-14T09:59:18Z</time>
      </trkpt>
      <trkpt lat="42.680723033845425" lon="1.474468465894461">
        <ele>2271</ele>
        <time>2025-07-14T09:59:30Z</time>
      </trkpt>
      <trkpt lat="42.680819425731897" lon="1.474519008770585">
        <ele>2271.4699999999998</ele>
        <time>2025-07-14T09:59:59Z</time>
      </trkpt>
      <trkpt lat="42.680914811789989" lon="1.474528145045042">
        <ele>2273.04</ele>
        <time>2025-07-14T10:00:20Z</time>
      </trkpt>
      <trkpt lat="42.680998547002673" lon="1.474497132003307">
        <ele>2273.9200000000001</ele>
        <time>2025-07-14T10:00:37Z</time>
      </trkpt>
      <trkpt lat="42.681076498702168" lon="1.474442649632692">
        <ele>2274.7600000000002</ele>
        <time>2025-07-14T10:00:58Z</time>
      </trkpt>
      <trkpt lat="42.681153109297156" lon="1.474385820329189">
        <ele>2275.4000000000001</ele>
        <time>2025-07-14T10:01:14Z</time>
      </trkpt>
      <trkpt lat="42.681222762912512" lon="1.474323878064752">
        <ele>2273.8699999999999</ele>
        <time>2025-07-14T10:01:34Z</time>
      </trkpt>
      <trkpt lat="42.681313790380955" lon="1.474287752062082">
        <ele>2273.3000000000002</ele>
        <time>2025-07-14T10:01:51Z</time>
      </trkpt>
      <trkpt lat="42.681369613856077" lon="1.474217176437378">
        <ele>2271.0900000000001</ele>
        <time>2025-07-14T10:02:06Z</time>
      </trkpt>
      <trkpt lat="42.681455109268427" lon="1.474160682410002">
        <ele>2270.1599999999999</ele>
        <time>2025-07-14T10:02:20Z</time>
      </trkpt>
      <trkpt lat="42.681550914421678" lon="1.474136039614677">
        <ele>2268.6999999999998</ele>
        <time>2025-07-14T10:02:31Z</time>
      </trkpt>
      <trkpt lat="42.681633643805981" lon="1.474103098735213">
        <ele>2269.96</ele>
        <time>2025-07-14T10:02:55Z</time>
      </trkpt>
      <trkpt lat="42.681710757315159" lon="1.474046017974615">
        <ele>2271</ele>
        <time>2025-07-14T10:03:32Z</time>
      </trkpt>
      <trkpt lat="42.681795498356223" lon="1.474008299410343">
        <ele>2268.9899999999998</ele>
        <time>2025-07-14T10:03:42Z</time>
      </trkpt>
      <trkpt lat="42.681878982111812" lon="1.474031936377287">
        <ele>2271.1399999999999</ele>
        <time>2025-07-14T10:03:56Z</time>
      </trkpt>
      <trkpt lat="42.681957436725497" lon="1.47399446927011">
        <ele>2270.3899999999999</ele>
        <time>2025-07-14T10:04:26Z</time>
      </trkpt>
      <trkpt lat="42.682053912431002" lon="1.47397200576961">
        <ele>2268.52</ele>
        <time>2025-07-14T10:04:40Z</time>
      </trkpt>
      <trkpt lat="42.682142509147525" lon="1.473971419036388">
        <ele>2267.5599999999999</ele>
        <time>2025-07-14T10:05:01Z</time>
      </trkpt>
      <trkpt lat="42.68222825601697" lon="1.473934706300497">
        <ele>2268.1700000000001</ele>
        <time>2025-07-14T10:05:23Z</time>
      </trkpt>
      <trkpt lat="42.682302938774228" lon="1.473872931674123">
        <ele>2267.6999999999998</ele>
        <time>2025-07-14T10:05:40Z</time>
      </trkpt>
      <trkpt lat="42.682356499135494" lon="1.473777210339904">
        <ele>2267.1500000000001</ele>
        <time>2025-07-14T10:05:55Z</time>
      </trkpt>
      <trkpt lat="42.682429673150182" lon="1.473706383258104">
        <ele>2271.1799999999998</ele>
        <time>2025-07-14T10:06:19Z</time>
      </trkpt>
      <trkpt lat="42.682508714497089" lon="1.47364947013557">
        <ele>2272.6999999999998</ele>
        <time>2025-07-14T10:06:36Z</time>
      </trkpt>
      <trkpt lat="42.682585408911109" lon="1.473579900339246">
        <ele>2276.9000000000001</ele>
        <time>2025-07-14T10:07:17Z</time>
      </trkpt>
      <trkpt lat="42.682665875181556" lon="1.4735322073102">
        <ele>2280.73</ele>
        <time>2025-07-14T10:07:55Z</time>
      </trkpt>
      <trkpt lat="42.682782718911767" lon="1.473485184833407">
        <ele>2285.5700000000002</ele>
        <time>2025-07-14T10:09:10Z</time>
      </trkpt>
      <trkpt lat="42.682859161868691" lon="1.473454590886831">
        <ele>2288.4699999999998</ele>
        <time>2025-07-14T10:09:51Z</time>
      </trkpt>
      <trkpt lat="42.682956643402576" lon="1.47344914264977">
        <ele>2287.52</ele>
        <time>2025-07-14T10:10:28Z</time>
      </trkpt>
      <trkpt lat="42.683046665042639" lon="1.473445035517216">
        <ele>2287.98</ele>
        <time>2025-07-14T10:10:43Z</time>
      </trkpt>
      <trkpt lat="42.68312931060791" lon="1.473408993333578">
        <ele>2288.21</ele>
        <time>2025-07-14T10:11:05Z</time>
      </trkpt>
      <trkpt lat="42.683212962001562" lon="1.473366497084498">
        <ele>2287.98</ele>
        <time>2025-07-14T10:11:17Z</time>
      </trkpt>
      <trkpt lat="42.683285214006901" lon="1.473301034420729">
        <ele>2285.04</ele>
        <time>2025-07-14T10:11:35Z</time>
      </trkpt>
      <trkpt lat="42.68337314017117" lon="1.473230542615056">
        <ele>2283.4000000000001</ele>
        <time>2025-07-14T10:11:48Z</time>
      </trkpt>
      <trkpt lat="42.683449415490031" lon="1.473177317529917">
        <ele>2282.8800000000001</ele>
        <time>2025-07-14T10:12:25Z</time>
      </trkpt>
      <trkpt lat="42.683539520949125" lon="1.47312224842608">
        <ele>2281.1700000000001</ele>
        <time>2025-07-14T10:12:35Z</time>
      </trkpt>
      <trkpt lat="42.683631973341107" lon="1.473085703328252">
        <ele>2278.54</ele>
        <time>2025-07-14T10:12:48Z</time>
      </trkpt>
      <trkpt lat="42.683725012466311" lon="1.473077740520239">
        <ele>2276.9499999999998</ele>
        <time>2025-07-14T10:13:01Z</time>
      </trkpt>
      <trkpt lat="42.683807406574488" lon="1.473087631165981">
        <ele>2275.6599999999999</ele>
        <time>2025-07-14T10:13:12Z</time>
      </trkpt>
      <trkpt lat="42.683891812339425" lon="1.47307044826448">
        <ele>2274.4000000000001</ele>
        <time>2025-07-14T10:13:23Z</time>
      </trkpt>
      <trkpt lat="42.683984432369471" lon="1.473018312826753">
        <ele>2271.79</ele>
        <time>2025-07-14T10:13:34Z</time>
      </trkpt>
      <trkpt lat="42.68406942486763" lon="1.472986377775669">
        <ele>2271.9000000000001</ele>
        <time>2025-07-14T10:13:45Z</time>
      </trkpt>
      <trkpt lat="42.684164308011532" lon="1.472967518493533">
        <ele>2270.4299999999998</ele>
        <time>2025-07-14T10:13:57Z</time>
      </trkpt>
      <trkpt lat="42.684261873364449" lon="1.472952766343951">
        <ele>2268.5700000000002</ele>
        <time>2025-07-14T10:14:08Z</time>
      </trkpt>
      <trkpt lat="42.684348374605179" lon="1.472890907898545">
        <ele>2267.2600000000002</ele>
        <time>2025-07-14T10:14:19Z</time>
      </trkpt>
      <trkpt lat="42.684437390416861" lon="1.472852267324925">
        <ele>2267.2800000000002</ele>
        <time>2025-07-14T10:14:29Z</time>
      </trkpt>
      <trkpt lat="42.684499667957425" lon="1.472761407494545">
        <ele>2265.04</ele>
        <time>2025-07-14T10:14:41Z</time>
      </trkpt>
      <trkpt lat="42.684569405391812" lon="1.47268052212894">
        <ele>2261.6999999999998</ele>
        <time>2025-07-14T10:14:53Z</time>
      </trkpt>
      <trkpt lat="42.684635706245899" lon="1.47259159013629">
        <ele>2260.0700000000002</ele>
        <time>2025-07-14T10:15:03Z</time>
      </trkpt>
      <trkpt lat="42.68467434681952" lon="1.47247432731092">
        <ele>2258.7199999999998</ele>
        <time>2025-07-14T10:15:13Z</time>
      </trkpt>
      <trkpt lat="42.684736037626863" lon="1.472385982051492">
        <ele>2259.75</ele>
        <time>2025-07-14T10:15:26Z</time>
      </trkpt>
      <trkpt lat="42.684818850830197" lon="1.472337702289224">
        <ele>2257.21</ele>
        <time>2025-07-14T10:15:37Z</time>
      </trkpt>
      <trkpt lat="42.684900825843215" lon="1.472269054502249">
        <ele>2257.5100000000002</ele>
        <time>2025-07-14T10:15:48Z</time>
      </trkpt>
      <trkpt lat="42.684986488893628" lon="1.472227731719613">
        <ele>2257.5100000000002</ele>
        <time>2025-07-14T10:15:58Z</time>
      </trkpt>
      <trkpt lat="42.685076091438532" lon="1.472180876880884">
        <ele>2256.0799999999999</ele>
        <time>2025-07-14T10:16:09Z</time>
      </trkpt>
      <trkpt lat="42.68516393378377" lon="1.472132932394743">
        <ele>2254.6399999999999</ele>
        <time>2025-07-14T10:16:19Z</time>
      </trkpt>
      <trkpt lat="42.68525630235672" lon="1.472107535228133">
        <ele>2255.5599999999999</ele>
        <time>2025-07-14T10:16:30Z</time>
      </trkpt>
      <trkpt lat="42.685323022305965" lon="1.47202966734767">
        <ele>2253.1700000000001</ele>
        <time>2025-07-14T10:16:43Z</time>
      </trkpt>
      <trkpt lat="42.685410361737013" lon="1.471961187198758">
        <ele>2251.5799999999999</ele>
        <time>2025-07-14T10:16:53Z</time>
      </trkpt>
      <trkpt lat="42.685495102778077" lon="1.471899412572384">
        <ele>2251.9899999999998</ele>
        <time>2025-07-14T10:17:03Z</time>
      </trkpt>
      <trkpt lat="42.685573557391763" lon="1.47183520719409">
        <ele>2251.5900000000001</ele>
        <time>2025-07-14T10:17:12Z</time>
      </trkpt>
      <trkpt lat="42.685636337846518" lon="1.471751471981406">
        <ele>2250.9299999999998</ele>
        <time>2025-07-14T10:17:23Z</time>
      </trkpt>
      <trkpt lat="42.685690401121974" lon="1.471658851951361">
        <ele>2246.6300000000001</ele>
        <time>2025-07-14T10:17:37Z</time>
      </trkpt>
      <trkpt lat="42.685742704197764" lon="1.471553072333336">
        <ele>2243.7800000000002</ele>
        <time>2025-07-14T10:17:54Z</time>
      </trkpt>
      <trkpt lat="42.685806155204773" lon="1.471466822549701">
        <ele>2243.23</ele>
        <time>2025-07-14T10:18:06Z</time>
      </trkpt>
      <trkpt lat="42.685877988114953" lon="1.471390295773745">
        <ele>2242.2199999999998</ele>
        <time>2025-07-14T10:18:16Z</time>
      </trkpt>
      <trkpt lat="42.685941774398088" lon="1.471301363781095">
        <ele>2241.5599999999999</ele>
        <time>2025-07-14T10:18:26Z</time>
      </trkpt>
      <trkpt lat="42.686017127707601" lon="1.471232464537025">
        <ele>2242.21</ele>
        <time>2025-07-14T10:18:37Z</time>
      </trkpt>
      <trkpt lat="42.686077142134309" lon="1.471150405704975">
        <ele>2244.8400000000001</ele>
        <time>2025-07-14T10:18:54Z</time>
      </trkpt>
      <trkpt lat="42.686127852648497" lon="1.47104118950665">
        <ele>2242.3099999999999</ele>
        <time>2025-07-14T10:19:10Z</time>
      </trkpt>
      <trkpt lat="42.686191638931632" lon="1.47093859501183">
        <ele>2241.4899999999998</ele>
        <time>2025-07-14T10:19:26Z</time>
      </trkpt>
      <trkpt lat="42.686268417164683" lon="1.470879670232534">
        <ele>2243.4699999999998</ele>
        <time>2025-07-14T10:19:39Z</time>
      </trkpt>
      <trkpt lat="42.686317786574364" lon="1.470786044374108">
        <ele>2242.77</ele>
        <time>2025-07-14T10:20:20Z</time>
      </trkpt>
      <trkpt lat="42.686387524008751" lon="1.47070893086493">
        <ele>2241.1100000000001</ele>
        <time>2025-07-14T10:20:32Z</time>
      </trkpt>
      <trkpt lat="42.686453238129616" lon="1.470636678859592">
        <ele>2239.5700000000002</ele>
        <time>2025-07-14T10:20:44Z</time>
      </trkpt>
      <trkpt lat="42.6865179464221" lon="1.470536179840565">
        <ele>2236.5100000000002</ele>
        <time>2025-07-14T10:21:11Z</time>
      </trkpt>
      <trkpt lat="42.686560777947307" lon="1.470428137108684">
        <ele>2234.5900000000001</ele>
        <time>2025-07-14T10:21:27Z</time>
      </trkpt>
      <trkpt lat="42.686633449047804" lon="1.470344988629222">
        <ele>2234.0300000000002</ele>
        <time>2025-07-14T10:21:36Z</time>
      </trkpt>
      <trkpt lat="42.686716681346297" lon="1.470283633098006">
        <ele>2235.29</ele>
        <time>2025-07-14T10:21:46Z</time>
      </trkpt>
      <trkpt lat="42.68678960390389" lon="1.470206854864955">
        <ele>2235.9699999999998</ele>
        <time>2025-07-14T10:22:07Z</time>
      </trkpt>
      <trkpt lat="42.686856742948294" lon="1.470125215128064">
        <ele>2235.9099999999999</ele>
        <time>2025-07-14T10:22:40Z</time>
      </trkpt>
      <trkpt lat="42.686910638585687" lon="1.470041144639254">
        <ele>2236.2800000000002</ele>
        <time>2025-07-14T10:22:53Z</time>
      </trkpt>
      <trkpt lat="42.68696746788919" lon="1.469947099685669">
        <ele>2236.0300000000002</ele>
        <time>2025-07-14T10:23:03Z</time>
      </trkpt>
      <trkpt lat="42.687042905017734" lon="1.469887504354119">
        <ele>2236.79</ele>
        <time>2025-07-14T10:23:14Z</time>
      </trkpt>
      <trkpt lat="42.687119264155626" lon="1.469810223206878">
        <ele>2236.25</ele>
        <time>2025-07-14T10:23:26Z</time>
      </trkpt>
      <trkpt lat="42.68720056861639" lon="1.469735288992524">
        <ele>2235.75</ele>
        <time>2025-07-14T10:23:37Z</time>
      </trkpt>
      <trkpt lat="42.687282878905535" lon="1.469661863520742">
        <ele>2235.1900000000001</ele>
        <time>2025-07-14T10:23:48Z</time>
      </trkpt>
      <trkpt lat="42.687364602461457" lon="1.469604447484016">
        <ele>2234.5799999999999</ele>
        <time>2025-07-14T10:23:59Z</time>
      </trkpt>
      <trkpt lat="42.687442302703857" lon="1.46953227929771">
        <ele>2234.54</ele>
        <time>2025-07-14T10:24:10Z</time>
      </trkpt>
      <trkpt lat="42.68751279450953" lon="1.469451896846294">
        <ele>2234.8099999999999</ele>
        <time>2025-07-14T10:24:22Z</time>
      </trkpt>
      <trkpt lat="42.687573060393333" lon="1.469351314008236">
        <ele>2233.54</ele>
        <time>2025-07-14T10:24:34Z</time>
      </trkpt>
      <trkpt lat="42.687654113397002" lon="1.469296915456653">
        <ele>2233.4299999999998</ele>
        <time>2025-07-14T10:24:46Z</time>
      </trkpt>
      <trkpt lat="42.687706584110856" lon="1.469211587682366">
        <ele>2231.8699999999999</ele>
        <time>2025-07-14T10:25:05Z</time>
      </trkpt>
      <trkpt lat="42.687762826681137" lon="1.469107149168849">
        <ele>2230.5300000000002</ele>
        <time>2025-07-14T10:25:19Z</time>
      </trkpt>
      <trkpt lat="42.687829462811351" lon="1.469023078680039">
        <ele>2230.7199999999998</ele>
        <time>2025-07-14T10:25:30Z</time>
      </trkpt>
      <trkpt lat="42.687891991809011" lon="1.468933979049325">
        <ele>2230.8200000000002</ele>
        <time>2025-07-14T10:25:42Z</time>
      </trkpt>
      <trkpt lat="42.687968015670776" lon="1.46887069568038">
        <ele>2228.1900000000001</ele>
        <time>2025-07-14T10:25:54Z</time>
      </trkpt>
      <trkpt lat="42.688054349273443" lon="1.468819146975875">
        <ele>2227.9200000000001</ele>
        <time>2025-07-14T10:26:05Z</time>
      </trkpt>
      <trkpt lat="42.688120231032372" lon="1.46875686943531">
        <ele>2228.1300000000001</ele>
        <time>2025-07-14T10:26:53Z</time>
      </trkpt>
      <trkpt lat="42.688196338713169" lon="1.468669530004263">
        <ele>2225.9200000000001</ele>
        <time>2025-07-14T10:27:08Z</time>
      </trkpt>
      <trkpt lat="42.688255934044719" lon="1.468575987964869">
        <ele>2224.1500000000001</ele>
        <time>2025-07-14T10:27:21Z</time>
      </trkpt>
      <trkpt lat="42.688258532434702" lon="1.468451684340835">
        <ele>2223.25</ele>
        <time>2025-07-14T10:27:39Z</time>
      </trkpt>
      <trkpt lat="42.688254006206989" lon="1.468336014077067">
        <ele>2228.79</ele>
        <time>2025-07-14T10:27:57Z</time>
      </trkpt>
      <trkpt lat="42.688240008428693" lon="1.4682203438133">
        <ele>2229.2399999999998</ele>
        <time>2025-07-14T10:28:15Z</time>
      </trkpt>
      <trkpt lat="42.68816901370883" lon="1.468155216425657">
        <ele>2221.6700000000001</ele>
        <time>2025-07-14T10:28:32Z</time>
      </trkpt>
      <trkpt lat="42.688131043687463" lon="1.468054801225662">
        <ele>2216.23</ele>
        <time>2025-07-14T10:28:54Z</time>
      </trkpt>
      <trkpt lat="42.688164319843054" lon="1.467960253357887">
        <ele>2212.1100000000001</ele>
        <time>2025-07-14T10:29:19Z</time>
      </trkpt>
      <trkpt lat="42.688104724511504" lon="1.467908285558224">
        <ele>2207.0100000000002</ele>
        <time>2025-07-14T10:29:45Z</time>
      </trkpt>
      <trkpt lat="42.688027275726199" lon="1.467885989695787">
        <ele>2204.1399999999999</ele>
        <time>2025-07-14T10:30:05Z</time>
      </trkpt>
      <trkpt lat="42.687991904094815" lon="1.467800159007311">
        <ele>2200.2399999999998</ele>
        <time>2025-07-14T10:30:21Z</time>
      </trkpt>
      <trkpt lat="42.687928285449743" lon="1.467708041891456">
        <ele>2199.75</ele>
        <time>2025-07-14T10:30:34Z</time>
      </trkpt>
      <trkpt lat="42.687877407297492" lon="1.467640483751893">
        <ele>2202.3299999999999</ele>
        <time>2025-07-14T10:31:22Z</time>
      </trkpt>
      <trkpt lat="42.687873132526875" lon="1.467536967247725">
        <ele>2194.1399999999999</ele>
        <time>2025-07-14T10:31:46Z</time>
      </trkpt>
      <trkpt lat="42.687817309051752" lon="1.46753185428679">
        <ele>2189.0799999999999</ele>
        <time>2025-07-14T10:32:05Z</time>
      </trkpt>
      <trkpt lat="42.687771040946245" lon="1.467474019154906">
        <ele>2187.4000000000001</ele>
        <time>2025-07-14T10:32:30Z</time>
      </trkpt>
      <trkpt lat="42.687775064259768" lon="1.467359606176615">
        <ele>2183.1999999999998</ele>
        <time>2025-07-14T10:32:49Z</time>
      </trkpt>
      <trkpt lat="42.687772214412689" lon="1.467272266745567">
        <ele>2179.6799999999998</ele>
        <time>2025-07-14T10:33:17Z</time>
      </trkpt>
      <trkpt lat="42.68768772482872" lon="1.467246701940894">
        <ele>2175.9000000000001</ele>
        <time>2025-07-14T10:33:34Z</time>
      </trkpt>
      <trkpt lat="42.687637601047754" lon="1.46719372831285">
        <ele>2172.4000000000001</ele>
        <time>2025-07-14T10:33:59Z</time>
      </trkpt>
      <trkpt lat="42.687610695138574" lon="1.467100018635392">
        <ele>2168.6199999999999</ele>
        <time>2025-07-14T10:34:24Z</time>
      </trkpt>
      <trkpt lat="42.687531318515539" lon="1.46706959232688">
        <ele>2164.46</ele>
        <time>2025-07-14T10:34:40Z</time>
      </trkpt>
      <trkpt lat="42.687511621043086" lon="1.46698803640902">
        <ele>2161.1900000000001</ele>
        <time>2025-07-14T10:34:57Z</time>
      </trkpt>
      <trkpt lat="42.687599714845419" lon="1.466958532109857">
        <ele>2158.4400000000001</ele>
        <time>2025-07-14T10:35:10Z</time>
      </trkpt>
      <trkpt lat="42.687684120610356" lon="1.466914359480143">
        <ele>2156.7800000000002</ele>
        <time>2025-07-14T10:35:23Z</time>
      </trkpt>
      <trkpt lat="42.687739441171288" lon="1.466829450801015">
        <ele>2153</ele>
        <time>2025-07-14T10:35:46Z</time>
      </trkpt>
      <trkpt lat="42.687819907441735" lon="1.466756444424391">
        <ele>2150.6300000000001</ele>
        <time>2025-07-14T10:36:03Z</time>
      </trkpt>
      <trkpt lat="42.687903894111514" lon="1.46669240668416">
        <ele>2149.21</ele>
        <time>2025-07-14T10:36:17Z</time>
      </trkpt>
      <trkpt lat="42.687967931851745" lon="1.466608168557286">
        <ele>2148.3699999999999</ele>
        <time>2025-07-14T10:36:33Z</time>
      </trkpt>
      <trkpt lat="42.688043536618352" lon="1.466538850218058">
        <ele>2145.0300000000002</ele>
        <time>2025-07-14T10:36:50Z</time>
      </trkpt>
      <trkpt lat="42.688121236860752" lon="1.466471711173654">
        <ele>2139.0100000000002</ele>
        <time>2025-07-14T10:37:12Z</time>
      </trkpt>
      <trkpt lat="42.688199440017343" lon="1.466415300965309">
        <ele>2134.7800000000002</ele>
        <time>2025-07-14T10:37:30Z</time>
      </trkpt>
      <trkpt lat="42.688262807205319" lon="1.46633567288518">
        <ele>2130.9299999999998</ele>
        <time>2025-07-14T10:37:50Z</time>
      </trkpt>
      <trkpt lat="42.688349140807986" lon="1.466282280161977">
        <ele>2127.6300000000001</ele>
        <time>2025-07-14T10:38:07Z</time>
      </trkpt>
      <trkpt lat="42.688391469419003" lon="1.466200640425086">
        <ele>2124.4200000000001</ele>
        <time>2025-07-14T10:38:27Z</time>
      </trkpt>
      <trkpt lat="42.688453076407313" lon="1.466122940182686">
        <ele>2120.3400000000001</ele>
        <time>2025-07-14T10:38:44Z</time>
      </trkpt>
      <trkpt lat="42.688530944287777" lon="1.466056723147631">
        <ele>2117.1999999999998</ele>
        <time>2025-07-14T10:38:59Z</time>
      </trkpt>
      <trkpt lat="42.68857603892684" lon="1.4659633487463">
        <ele>2113.0700000000002</ele>
        <time>2025-07-14T10:39:19Z</time>
      </trkpt>
      <trkpt lat="42.688641082495451" lon="1.465880367904902">
        <ele>2108.9699999999998</ele>
        <time>2025-07-14T10:39:37Z</time>
      </trkpt>
      <trkpt lat="42.688606129959226" lon="1.465802919119597">
        <ele>2099.9499999999998</ele>
        <time>2025-07-14T10:39:56Z</time>
      </trkpt>
      <trkpt lat="42.68854477442801" lon="1.465725135058165">
        <ele>2099.6100000000001</ele>
        <time>2025-07-14T10:40:16Z</time>
      </trkpt>
      <trkpt lat="42.688566483557224" lon="1.465634861961007">
        <ele>2098.0100000000002</ele>
        <time>2025-07-14T10:40:37Z</time>
      </trkpt>
      <trkpt lat="42.688637562096119" lon="1.465567639097571">
        <ele>2092.8000000000002</ele>
        <time>2025-07-14T10:40:56Z</time>
      </trkpt>
      <trkpt lat="42.688688775524497" lon="1.465480802580714">
        <ele>2088.5100000000002</ele>
        <time>2025-07-14T10:41:39Z</time>
      </trkpt>
      <trkpt lat="42.688757758587599" lon="1.465411484241486">
        <ele>2085.5700000000002</ele>
        <time>2025-07-14T10:41:54Z</time>
      </trkpt>
      <trkpt lat="42.688834788277745" lon="1.465353732928634">
        <ele>2082.7800000000002</ele>
        <time>2025-07-14T10:42:08Z</time>
      </trkpt>
      <trkpt lat="42.688899161294103" lon="1.465282654389739">
        <ele>2080.02</ele>
        <time>2025-07-14T10:42:24Z</time>
      </trkpt>
      <trkpt lat="42.688974598422647" lon="1.465213503688574">
        <ele>2076.79</ele>
        <time>2025-07-14T10:42:40Z</time>
      </trkpt>
      <trkpt lat="42.689059674739838" lon="1.465171677991748">
        <ele>2075.0799999999999</ele>
        <time>2025-07-14T10:42:53Z</time>
      </trkpt>
      <trkpt lat="42.689141146838665" lon="1.465117279440165">
        <ele>2072.9499999999998</ele>
        <time>2025-07-14T10:43:08Z</time>
      </trkpt>
      <trkpt lat="42.689203256741166" lon="1.465054666623473">
        <ele>2070.0100000000002</ele>
        <time>2025-07-14T10:43:26Z</time>
      </trkpt>
      <trkpt lat="42.689290009438992" lon="1.465010410174727">
        <ele>2067.02</ele>
        <time>2025-07-14T10:43:41Z</time>
      </trkpt>
      <trkpt lat="42.689369972795248" lon="1.464975960552692">
        <ele>2065.0300000000002</ele>
        <time>2025-07-14T10:43:54Z</time>
      </trkpt>
      <trkpt lat="42.689449852332473" lon="1.464919801801443">
        <ele>2063.1100000000001</ele>
        <time>2025-07-14T10:44:08Z</time>
      </trkpt>
      <trkpt lat="42.689536437392235" lon="1.464879065752029">
        <ele>2063.9000000000001</ele>
        <time>2025-07-14T10:44:23Z</time>
      </trkpt>
      <trkpt lat="42.689615311101079" lon="1.464825002476573">
        <ele>2059.4099999999999</ele>
        <time>2025-07-14T10:44:40Z</time>
      </trkpt>
      <trkpt lat="42.689691251143813" lon="1.464767586439848">
        <ele>2056.46</ele>
        <time>2025-07-14T10:44:57Z</time>
      </trkpt>
      <trkpt lat="42.689768532291055" lon="1.464720480144024">
        <ele>2056.8600000000001</ele>
        <time>2025-07-14T10:45:14Z</time>
      </trkpt>
      <trkpt lat="42.689853692427278" lon="1.464674128219485">
        <ele>2052.4699999999998</ele>
        <time>2025-07-14T10:46:02Z</time>
      </trkpt>
      <trkpt lat="42.68993491306901" lon="1.464666165411472">
        <ele>2046.8299999999999</ele>
        <time>2025-07-14T10:46:49Z</time>
      </trkpt>
      <trkpt lat="42.690023258328438" lon="1.464674798771739">
        <ele>2043.1300000000001</ele>
        <time>2025-07-14T10:47:45Z</time>
      </trkpt>
      <trkpt lat="42.690109005197883" lon="1.464690137654543">
        <ele>2037.8299999999999</ele>
        <time>2025-07-14T10:48:14Z</time>
      </trkpt>
      <trkpt lat="42.690204223617911" lon="1.464674547314644">
        <ele>2032.04</ele>
        <time>2025-07-14T10:48:58Z</time>
      </trkpt>
      <trkpt lat="42.690281420946121" lon="1.464644456282258">
        <ele>2027.8399999999999</ele>
        <time>2025-07-14T10:49:20Z</time>
      </trkpt>
      <trkpt lat="42.690363563597202" lon="1.46464697085321">
        <ele>2024.8399999999999</ele>
        <time>2025-07-14T10:49:38Z</time>
      </trkpt>
      <trkpt lat="42.690310003235936" lon="1.464586537331343">
        <ele>2021.8599999999999</ele>
        <time>2025-07-14T10:50:02Z</time>
      </trkpt>
      <trkpt lat="42.690309835597873" lon="1.464475644752383">
        <ele>2016.95</ele>
        <time>2025-07-14T10:50:36Z</time>
      </trkpt>
      <trkpt lat="42.690389128401875" lon="1.464418983086944">
        <ele>2014.48</ele>
        <time>2025-07-14T10:51:28Z</time>
      </trkpt>
      <trkpt lat="42.690425757318735" lon="1.464329212903976">
        <ele>2007.6900000000001</ele>
        <time>2025-07-14T10:52:21Z</time>
      </trkpt>
      <trkpt lat="42.690465738996863" lon="1.464281687512994">
        <ele>2002.23</ele>
        <time>2025-07-14T10:52:52Z</time>
      </trkpt>
      <trkpt lat="42.690478814765811" lon="1.464197114109993">
        <ele>1999.0799999999999</ele>
        <time>2025-07-14T10:53:22Z</time>
      </trkpt>
      <trkpt lat="42.690538074821234" lon="1.464124610647559">
        <ele>1993.71</ele>
        <time>2025-07-14T10:54:07Z</time>
      </trkpt>
      <trkpt lat="42.690571853891015" lon="1.464063925668597">
        <ele>1990.29</ele>
        <time>2025-07-14T10:54:29Z</time>
      </trkpt>
      <trkpt lat="42.69061703234911" lon="1.464009359478951">
        <ele>1984.7</ele>
        <time>2025-07-14T10:54:55Z</time>
      </trkpt>
      <trkpt lat="42.69067126326263" lon="1.463946495205164">
        <ele>1981.1700000000001</ele>
        <time>2025-07-14T10:55:15Z</time>
      </trkpt>
      <trkpt lat="42.690745946019888" lon="1.463900981470943">
        <ele>1976.73</ele>
        <time>2025-07-14T10:55:46Z</time>
      </trkpt>
      <trkpt lat="42.690829513594508" lon="1.463891845196486">
        <ele>1973.78</ele>
        <time>2025-07-14T10:56:25Z</time>
      </trkpt>
      <trkpt lat="42.690920373424888" lon="1.463933251798153">
        <ele>1972.48</ele>
        <time>2025-07-14T10:56:38Z</time>
      </trkpt>
      <trkpt lat="42.691003940999508" lon="1.46396778523922">
        <ele>1968.6099999999999</ele>
        <time>2025-07-14T10:57:00Z</time>
      </trkpt>
      <trkpt lat="42.691070158034563" lon="1.463929060846567">
        <ele>1965.79</ele>
        <time>2025-07-14T10:57:29Z</time>
      </trkpt>
      <trkpt lat="42.691151294857264" lon="1.463888576254249">
        <ele>1960.45</ele>
        <time>2025-07-14T10:57:57Z</time>
      </trkpt>
      <trkpt lat="42.691131765022874" lon="1.46379972808063">
        <ele>1954.3499999999999</ele>
        <time>2025-07-14T10:58:32Z</time>
      </trkpt>
      <trkpt lat="42.691174428910017" lon="1.463717166334391">
        <ele>1950.5599999999999</ele>
        <time>2025-07-14T10:59:07Z</time>
      </trkpt>
      <trkpt lat="42.691249111667275" lon="1.463668635115027">
        <ele>1947.3399999999999</ele>
        <time>2025-07-14T10:59:34Z</time>
      </trkpt>
      <trkpt lat="42.691333265975118" lon="1.463662683963776">
        <ele>1945.0799999999999</ele>
        <time>2025-07-14T10:59:59Z</time>
      </trkpt>
      <trkpt lat="42.691423455253243" lon="1.463678274303675">
        <ele>1941</ele>
        <time>2025-07-14T11:00:32Z</time>
      </trkpt>
      <trkpt lat="42.691424880176783" lon="1.463575763627887">
        <ele>1936.8699999999999</ele>
        <time>2025-07-14T11:00:58Z</time>
      </trkpt>
      <trkpt lat="42.69151272252202" lon="1.463598059490323">
        <ele>1933.2</ele>
        <time>2025-07-14T11:01:19Z</time>
      </trkpt>
      <trkpt lat="42.691592266783118" lon="1.463619433343411">
        <ele>1929.1800000000001</ele>
        <time>2025-07-14T11:01:39Z</time>
      </trkpt>
      <trkpt lat="42.691613640636206" lon="1.46352656185627">
        <ele>1924.79</ele>
        <time>2025-07-14T11:02:06Z</time>
      </trkpt>
      <trkpt lat="42.691660830751061" lon="1.463439892977476">
        <ele>1919.9200000000001</ele>
        <time>2025-07-14T11:02:36Z</time>
      </trkpt>
      <trkpt lat="42.691721264272928" lon="1.46334970369935">
        <ele>1917.1400000000001</ele>
        <time>2025-07-14T11:03:04Z</time>
      </trkpt>
      <trkpt lat="42.69180441275239" lon="1.463329335674644">
        <ele>1912.0999999999999</ele>
        <time>2025-07-14T11:03:22Z</time>
      </trkpt>
      <trkpt lat="42.691888064146042" lon="1.46330812945962">
        <ele>1908.0599999999999</ele>
        <time>2025-07-14T11:03:43Z</time>
      </trkpt>
      <trkpt lat="42.691969787701964" lon="1.463297232985497">
        <ele>1904.8399999999999</ele>
        <time>2025-07-14T11:04:11Z</time>
      </trkpt>
      <trkpt lat="42.692044721916318" lon="1.46328910253942">
        <ele>1900.5599999999999</ele>
        <time>2025-07-14T11:05:02Z</time>
      </trkpt>
      <trkpt lat="42.692092582583427" lon="1.463248282670975">
        <ele>1895.6900000000001</ele>
        <time>2025-07-14T11:05:25Z</time>
      </trkpt>
      <trkpt lat="42.692154441028833" lon="1.463322127237916">
        <ele>1891.5899999999999</ele>
        <time>2025-07-14T11:05:46Z</time>
      </trkpt>
      <trkpt lat="42.692207582294941" lon="1.463420195505023">
        <ele>1887.24</ele>
        <time>2025-07-14T11:06:21Z</time>
      </trkpt>
      <trkpt lat="42.692246306687593" lon="1.463525053113699">
        <ele>1882.8</ele>
        <time>2025-07-14T11:06:46Z</time>
      </trkpt>
      <trkpt lat="42.692311769351363" lon="1.463506780564785">
        <ele>1878.0999999999999</ele>
        <time>2025-07-14T11:07:15Z</time>
      </trkpt>
      <trkpt lat="42.692375304177403" lon="1.463505690917373">
        <ele>1873</ele>
        <time>2025-07-14T11:07:41Z</time>
      </trkpt>
      <trkpt lat="42.692424925044179" lon="1.463587079197168">
        <ele>1871.0999999999999</ele>
        <time>2025-07-14T11:08:30Z</time>
      </trkpt>
      <trkpt lat="42.692493740469217" lon="1.463646255433559">
        <ele>1866.4300000000001</ele>
        <time>2025-07-14T11:08:59Z</time>
      </trkpt>
      <trkpt lat="42.692555850371718" lon="1.463669389486313">
        <ele>1863.75</ele>
        <time>2025-07-14T11:09:28Z</time>
      </trkpt>
      <trkpt lat="42.692599352449179" lon="1.463713143020868">
        <ele>1857.3</ele>
        <time>2025-07-14T11:09:59Z</time>
      </trkpt>
      <trkpt lat="42.692637909203768" lon="1.463779024779797">
        <ele>1854.03</ele>
        <time>2025-07-14T11:10:24Z</time>
      </trkpt>
      <trkpt lat="42.692722482606769" lon="1.463767038658261">
        <ele>1848.3</ele>
        <time>2025-07-14T11:10:59Z</time>
      </trkpt>
      <trkpt lat="42.692807056009769" lon="1.463776091113687">
        <ele>1844.01</ele>
        <time>2025-07-14T11:11:19Z</time>
      </trkpt>
      <trkpt lat="42.692881906405091" lon="1.463741809129715">
        <ele>1839.6600000000001</ele>
        <time>2025-07-14T11:11:45Z</time>
      </trkpt>
      <trkpt lat="42.692946195602417" lon="1.463686320930719">
        <ele>1835.6600000000001</ele>
        <time>2025-07-14T11:12:14Z</time>
      </trkpt>
      <trkpt lat="42.693004030734301" lon="1.463606776669622">
        <ele>1832.23</ele>
        <time>2025-07-14T11:12:34Z</time>
      </trkpt>
      <trkpt lat="42.69303722307086" lon="1.463520610705018">
        <ele>1828.6099999999999</ele>
        <time>2025-07-14T11:13:16Z</time>
      </trkpt>
      <trkpt lat="42.693080641329288" lon="1.46342983469367">
        <ele>1825.3900000000001</ele>
        <time>2025-07-14T11:13:31Z</time>
      </trkpt>
      <trkpt lat="42.693149959668517" lon="1.463381135836244">
        <ele>1822.9300000000001</ele>
        <time>2025-07-14T11:13:52Z</time>
      </trkpt>
      <trkpt lat="42.69318675622344" lon="1.463281475007534">
        <ele>1820.4300000000001</ele>
        <time>2025-07-14T11:14:06Z</time>
      </trkpt>
      <trkpt lat="42.693229503929615" lon="1.463189022615552">
        <ele>1816.5599999999999</ele>
        <time>2025-07-14T11:14:19Z</time>
      </trkpt>
      <trkpt lat="42.693302677944303" lon="1.463117441162467">
        <ele>1813.6300000000001</ele>
        <time>2025-07-14T11:14:34Z</time>
      </trkpt>
      <trkpt lat="42.693337798118591" lon="1.463005207479">
        <ele>1810.1300000000001</ele>
        <time>2025-07-14T11:14:48Z</time>
      </trkpt>
      <trkpt lat="42.693361015990376" lon="1.462887106463313">
        <ele>1808.72</ele>
        <time>2025-07-14T11:15:03Z</time>
      </trkpt>
      <trkpt lat="42.693430921062827" lon="1.462827930226922">
        <ele>1805.6400000000001</ele>
        <time>2025-07-14T11:15:19Z</time>
      </trkpt>
      <trkpt lat="42.693501748144627" lon="1.462758779525757">
        <ele>1802.3599999999999</ele>
        <time>2025-07-14T11:15:37Z</time>
      </trkpt>
      <trkpt lat="42.693498060107231" lon="1.462676301598549">
        <ele>1801.71</ele>
        <time>2025-07-14T11:16:09Z</time>
      </trkpt>
      <trkpt lat="42.693489762023091" lon="1.462670685723424">
        <ele>1800.23</ele>
        <time>2025-07-14T11:19:23Z</time>
      </trkpt>
      <trkpt lat="42.693506525829434" lon="1.462662387639284">
        <ele>1799.3199999999999</ele>
        <time>2025-07-14T11:21:52Z</time>
      </trkpt>
      <trkpt lat="42.693517422303557" lon="1.462659705430269">
        <ele>1796.4100000000001</ele>
        <time>2025-07-14T11:27:42Z</time>
      </trkpt>
      <trkpt lat="42.693512309342623" lon="1.462670434266329">
        <ele>1796.9300000000001</ele>
        <time>2025-07-14T11:30:37Z</time>
      </trkpt>
      <trkpt lat="42.693518595770001" lon="1.462675547227264">
        <ele>1794.72</ele>
        <time>2025-07-14T11:35:21Z</time>
      </trkpt>
      <trkpt lat="42.693463442847133" lon="1.462628105655313">
        <ele>1792.0799999999999</ele>
        <time>2025-07-14T11:40:52Z</time>
      </trkpt>
      <trkpt lat="42.693423796445131" lon="1.462607905268669">
        <ele>1792.5699999999999</ele>
        <time>2025-07-14T11:42:22Z</time>
      </trkpt>
      <trkpt lat="42.693430334329605" lon="1.46258108317852">
        <ele>1791.5599999999999</ele>
        <time>2025-07-14T11:43:24Z</time>
      </trkpt>
      <trkpt lat="42.693458329886198" lon="1.462599523365498">
        <ele>1791.8599999999999</ele>
        <time>2025-07-14T11:44:16Z</time>
      </trkpt>
      <trkpt lat="42.693466879427433" lon="1.462620478123426">
        <ele>1791.3900000000001</ele>
        <time>2025-07-14T11:44:57Z</time>
      </trkpt>
      <trkpt lat="42.693457407876849" lon="1.462610755115748">
        <ele>1792.8599999999999</ele>
        <time>2025-07-14T11:46:23Z</time>
      </trkpt>
      <trkpt lat="42.693471740931273" lon="1.462614946067333">
        <ele>1791.8499999999999</ele>
        <time>2025-07-14T11:48:00Z</time>
      </trkpt>
      <trkpt lat="42.693470986559987" lon="1.462631206959486">
        <ele>1792.6300000000001</ele>
        <time>2025-07-14T11:49:20Z</time>
      </trkpt>
      <trkpt lat="42.693486325442791" lon="1.462668841704726">
        <ele>1789.8900000000001</ele>
        <time>2025-07-14T11:51:12Z</time>
      </trkpt>
      <trkpt lat="42.69345598295331" lon="1.462659789249301">
        <ele>1790.8099999999999</ele>
        <time>2025-07-14T11:54:36Z</time>
      </trkpt>
      <trkpt lat="42.693464364856482" lon="1.462617963552475">
        <ele>1792.2</ele>
        <time>2025-07-14T11:55:40Z</time>
      </trkpt>
      <trkpt lat="42.69348825328052" lon="1.462574880570173">
        <ele>1795.3299999999999</ele>
        <time>2025-07-14T12:06:28Z</time>
      </trkpt>
      <trkpt lat="42.693498311564326" lon="1.46258401684463">
        <ele>1795.4100000000001</ele>
        <time>2025-07-14T12:07:18Z</time>
      </trkpt>
      <trkpt lat="42.693527983501554" lon="1.46260061301291">
        <ele>1795.6099999999999</ele>
        <time>2025-07-14T12:08:50Z</time>
      </trkpt>
      <trkpt lat="42.693594954907894" lon="1.462617460638285">
        <ele>1795.8399999999999</ele>
        <time>2025-07-14T12:11:01Z</time>
      </trkpt>
      <trkpt lat="42.693670224398375" lon="1.462686946615577">
        <ele>1794.3099999999999</ele>
        <time>2025-07-14T12:11:14Z</time>
      </trkpt>
      <trkpt lat="42.6937345135957" lon="1.462781494483352">
        <ele>1793.76</ele>
        <time>2025-07-14T12:11:25Z</time>
      </trkpt>
      <trkpt lat="42.693807184696198" lon="1.462859362363815">
        <ele>1793.6199999999999</ele>
        <time>2025-07-14T12:11:36Z</time>
      </trkpt>
      <trkpt lat="42.693894188851118" lon="1.462894566357136">
        <ele>1793.3599999999999</ele>
        <time>2025-07-14T12:11:47Z</time>
      </trkpt>
      <trkpt lat="42.693989491090178" lon="1.462903115898371">
        <ele>1792.79</ele>
        <time>2025-07-14T12:11:58Z</time>
      </trkpt>
      <trkpt lat="42.694077333435416" lon="1.462966650724411">
        <ele>1794.5699999999999</ele>
        <time>2025-07-14T12:12:10Z</time>
      </trkpt>
      <trkpt lat="42.69417280331254" lon="1.462977631017566">
        <ele>1796.5999999999999</ele>
        <time>2025-07-14T12:12:25Z</time>
      </trkpt>
      <trkpt lat="42.694267267361283" lon="1.462970087304711">
        <ele>1796.51</ele>
        <time>2025-07-14T12:12:35Z</time>
      </trkpt>
      <trkpt lat="42.694355025887489" lon="1.462931698188186">
        <ele>1793.48</ele>
        <time>2025-07-14T12:12:44Z</time>
      </trkpt>
      <trkpt lat="42.694435911253095" lon="1.462878305464983">
        <ele>1794.02</ele>
        <time>2025-07-14T12:12:53Z</time>
      </trkpt>
      <trkpt lat="42.694520568475127" lon="1.462801191955805">
        <ele>1793.04</ele>
        <time>2025-07-14T12:13:03Z</time>
      </trkpt>
      <trkpt lat="42.694590808823705" lon="1.462715109810233">
        <ele>1792.25</ele>
        <time>2025-07-14T12:13:12Z</time>
      </trkpt>
      <trkpt lat="42.694672448560596" lon="1.462661549448967">
        <ele>1791.21</ele>
        <time>2025-07-14T12:13:21Z</time>
      </trkpt>
      <trkpt lat="42.694770935922861" lon="1.462648892775178">
        <ele>1790.1600000000001</ele>
        <time>2025-07-14T12:13:31Z</time>
      </trkpt>
      <trkpt lat="42.694861963391304" lon="1.462639085948467">
        <ele>1788.72</ele>
        <time>2025-07-14T12:13:40Z</time>
      </trkpt>
      <trkpt lat="42.69495802000165" lon="1.46259818226099">
        <ele>1787.72</ele>
        <time>2025-07-14T12:13:50Z</time>
      </trkpt>
      <trkpt lat="42.695056507363915" lon="1.46256591193378">
        <ele>1786.5999999999999</ele>
        <time>2025-07-14T12:14:00Z</time>
      </trkpt>
      <trkpt lat="42.695146612823009" lon="1.462547052651644">
        <ele>1785.8699999999999</ele>
        <time>2025-07-14T12:14:09Z</time>
      </trkpt>
      <trkpt lat="42.69524484872818" lon="1.462560882791877">
        <ele>1784.1199999999999</ele>
        <time>2025-07-14T12:14:19Z</time>
      </trkpt>
      <trkpt lat="42.695336546748877" lon="1.462579658254981">
        <ele>1783.0599999999999</ele>
        <time>2025-07-14T12:14:28Z</time>
      </trkpt>
      <trkpt lat="42.695424556732178" lon="1.462609833106399">
        <ele>1781.8</ele>
        <time>2025-07-14T12:14:37Z</time>
      </trkpt>
      <trkpt lat="42.695511812344193" lon="1.462643025442958">
        <ele>1780.5899999999999</ele>
        <time>2025-07-14T12:14:46Z</time>
      </trkpt>
      <trkpt lat="42.695605102926493" lon="1.462653838098049">
        <ele>1779.3399999999999</ele>
        <time>2025-07-14T12:14:56Z</time>
      </trkpt>
      <trkpt lat="42.695698980242014" lon="1.462690886110067">
        <ele>1778.29</ele>
        <time>2025-07-14T12:15:06Z</time>
      </trkpt>
      <trkpt lat="42.695788247510791" lon="1.462717037647963">
        <ele>1776.3499999999999</ele>
        <time>2025-07-14T12:15:15Z</time>
      </trkpt>
      <trkpt lat="42.695877095684409" lon="1.462744614109397">
        <ele>1775.6500000000001</ele>
        <time>2025-07-14T12:15:24Z</time>
      </trkpt>
      <trkpt lat="42.695970386266708" lon="1.462767664343119">
        <ele>1775.47</ele>
        <time>2025-07-14T12:15:33Z</time>
      </trkpt>
      <trkpt lat="42.696061749011278" lon="1.462799767032266">
        <ele>1773.8900000000001</ele>
        <time>2025-07-14T12:15:42Z</time>
      </trkpt>
      <trkpt lat="42.696150681003928" lon="1.462778644636273">
        <ele>1771.97</ele>
        <time>2025-07-14T12:15:51Z</time>
      </trkpt>
      <trkpt lat="42.696235924959183" lon="1.462724329903722">
        <ele>1770.9200000000001</ele>
        <time>2025-07-14T12:16:00Z</time>
      </trkpt>
      <trkpt lat="42.696319911628962" lon="1.462674122303724">
        <ele>1770.9300000000001</ele>
        <time>2025-07-14T12:16:09Z</time>
      </trkpt>
      <trkpt lat="42.696411777287722" lon="1.462660124525428">
        <ele>1769.78</ele>
        <time>2025-07-14T12:16:18Z</time>
      </trkpt>
      <trkpt lat="42.69650406204164" lon="1.462679821997881">
        <ele>1768.8099999999999</ele>
        <time>2025-07-14T12:16:27Z</time>
      </trkpt>
      <trkpt lat="42.696601711213589" lon="1.462680324912071">
        <ele>1766.47</ele>
        <time>2025-07-14T12:16:37Z</time>
      </trkpt>
      <trkpt lat="42.696687374264002" lon="1.462664566934109">
        <ele>1765.49</ele>
        <time>2025-07-14T12:16:46Z</time>
      </trkpt>
      <trkpt lat="42.696783682331443" lon="1.462665991857648">
        <ele>1764.73</ele>
        <time>2025-07-14T12:16:56Z</time>
      </trkpt>
      <trkpt lat="42.696880493313074" lon="1.462700190022588">
        <ele>1764.25</ele>
        <time>2025-07-14T12:17:06Z</time>
      </trkpt>
      <trkpt lat="42.696982501074672" lon="1.462707817554474">
        <ele>1763.0999999999999</ele>
        <time>2025-07-14T12:17:15Z</time>
      </trkpt>
      <trkpt lat="42.697080317884684" lon="1.462673200294375">
        <ele>1761.8599999999999</ele>
        <time>2025-07-14T12:17:24Z</time>
      </trkpt>
      <trkpt lat="42.697169668972492" lon="1.462643863633275">
        <ele>1760.6600000000001</ele>
        <time>2025-07-14T12:17:33Z</time>
      </trkpt>
      <trkpt lat="42.697249883785844" lon="1.462579658254981">
        <ele>1759.25</ele>
        <time>2025-07-14T12:17:42Z</time>
      </trkpt>
      <trkpt lat="42.697329511865973" lon="1.462517464533448">
        <ele>1757.75</ele>
        <time>2025-07-14T12:17:51Z</time>
      </trkpt>
      <trkpt lat="42.697415258735418" lon="1.462465664371848">
        <ele>1756.6099999999999</ele>
        <time>2025-07-14T12:18:00Z</time>
      </trkpt>
      <trkpt lat="42.69751206971705" lon="1.462440602481365">
        <ele>1755.5699999999999</ele>
        <time>2025-07-14T12:18:10Z</time>
      </trkpt>
      <trkpt lat="42.69760200753808" lon="1.462443871423602">
        <ele>1754.3900000000001</ele>
        <time>2025-07-14T12:18:19Z</time>
      </trkpt>
      <trkpt lat="42.69769093953073" lon="1.462425850331783">
        <ele>1753.22</ele>
        <time>2025-07-14T12:18:28Z</time>
      </trkpt>
      <trkpt lat="42.69778179936111" lon="1.462397603318095">
        <ele>1751.6300000000001</ele>
        <time>2025-07-14T12:18:37Z</time>
      </trkpt>
      <trkpt lat="42.69786586984992" lon="1.462348736822605">
        <ele>1750.6099999999999</ele>
        <time>2025-07-14T12:18:46Z</time>
      </trkpt>
      <trkpt lat="42.697933176532388" lon="1.462256535887718">
        <ele>1749.8099999999999</ele>
        <time>2025-07-14T12:18:55Z</time>
      </trkpt>
      <trkpt lat="42.698007524013519" lon="1.462186966091394">
        <ele>1749.28</ele>
        <time>2025-07-14T12:19:04Z</time>
      </trkpt>
      <trkpt lat="42.698080027475953" lon="1.462105829268694">
        <ele>1748.23</ele>
        <time>2025-07-14T12:19:13Z</time>
      </trkpt>
      <trkpt lat="42.69815269857645" lon="1.462028380483389">
        <ele>1746.5599999999999</ele>
        <time>2025-07-14T12:19:22Z</time>
      </trkpt>
      <trkpt lat="42.698226626962423" lon="1.461952608078718">
        <ele>1745.1800000000001</ele>
        <time>2025-07-14T12:19:31Z</time>
      </trkpt>
      <trkpt lat="42.698305081576109" lon="1.461890581995249">
        <ele>1743.8099999999999</ele>
        <time>2025-07-14T12:19:40Z</time>
      </trkpt>
      <trkpt lat="42.698385128751397" lon="1.461832746863365">
        <ele>1742.4100000000001</ele>
        <time>2025-07-14T12:19:49Z</time>
      </trkpt>
      <trkpt lat="42.69847079180181" lon="1.461785975843668">
        <ele>1741.25</ele>
        <time>2025-07-14T12:19:58Z</time>
      </trkpt>
      <trkpt lat="42.698555951938033" lon="1.461732666939497">
        <ele>1740.1600000000001</ele>
        <time>2025-07-14T12:20:07Z</time>
      </trkpt>
      <trkpt lat="42.698648571968079" lon="1.461693355813623">
        <ele>1738.6900000000001</ele>
        <time>2025-07-14T12:20:17Z</time>
      </trkpt>
      <trkpt lat="42.698740269988775" lon="1.461662258952856">
        <ele>1737.6300000000001</ele>
        <time>2025-07-14T12:20:26Z</time>
      </trkpt>
      <trkpt lat="42.69883381202817" lon="1.46164046600461">
        <ele>1736.48</ele>
        <time>2025-07-14T12:20:35Z</time>
      </trkpt>
      <trkpt lat="42.698926348239183" lon="1.461620600894094">
        <ele>1734.7</ele>
        <time>2025-07-14T12:20:44Z</time>
      </trkpt>
      <trkpt lat="42.699014944955707" lon="1.461608530953527">
        <ele>1733.46</ele>
        <time>2025-07-14T12:20:53Z</time>
      </trkpt>
      <trkpt lat="42.699109492823482" lon="1.461607357487083">
        <ele>1732.28</ele>
        <time>2025-07-14T12:21:02Z</time>
      </trkpt>
      <trkpt lat="42.699203537777066" lon="1.461593192070723">
        <ele>1731.3299999999999</ele>
        <time>2025-07-14T12:21:11Z</time>
      </trkpt>
      <trkpt lat="42.699298420920968" lon="1.461594784632325">
        <ele>1730.5799999999999</ele>
        <time>2025-07-14T12:21:20Z</time>
      </trkpt>
      <trkpt lat="42.699395148083568" lon="1.461609285324812">
        <ele>1729.7</ele>
        <time>2025-07-14T12:21:29Z</time>
      </trkpt>
      <trkpt lat="42.69948810338974" lon="1.461640633642674">
        <ele>1728.97</ele>
        <time>2025-07-14T12:21:38Z</time>
      </trkpt>
      <trkpt lat="42.69958047196269" lon="1.46166929975152">
        <ele>1727.6199999999999</ele>
        <time>2025-07-14T12:21:47Z</time>
      </trkpt>
      <trkpt lat="42.6996766962111" lon="1.461668964475393">
        <ele>1726.4200000000001</ele>
        <time>2025-07-14T12:21:56Z</time>
      </trkpt>
      <trkpt lat="42.699767304584384" lon="1.461628479883075">
        <ele>1725.27</ele>
        <time>2025-07-14T12:22:05Z</time>
      </trkpt>
      <trkpt lat="42.699859505519271" lon="1.46156620234251">
        <ele>1724.02</ele>
        <time>2025-07-14T12:22:15Z</time>
      </trkpt>
      <trkpt lat="42.699948186054826" lon="1.461513647809625">
        <ele>1722.53</ele>
        <time>2025-07-14T12:22:24Z</time>
      </trkpt>
      <trkpt lat="42.700042650103569" lon="1.461492944508791">
        <ele>1721.3699999999999</ele>
        <time>2025-07-14T12:22:33Z</time>
      </trkpt>
      <trkpt lat="42.700133509933949" lon="1.461493782699108">
        <ele>1719.98</ele>
        <time>2025-07-14T12:22:42Z</time>
      </trkpt>
      <trkpt lat="42.700229985639453" lon="1.461503254249692">
        <ele>1718.51</ele>
        <time>2025-07-14T12:22:51Z</time>
      </trkpt>
      <trkpt lat="42.70032218657434" lon="1.461468888446689">
        <ele>1717.4200000000001</ele>
        <time>2025-07-14T12:23:00Z</time>
      </trkpt>
      <trkpt lat="42.70040625706315" lon="1.461411891505122">
        <ele>1716.3299999999999</ele>
        <time>2025-07-14T12:23:09Z</time>
      </trkpt>
      <trkpt lat="42.70048345439136" lon="1.461337795481086">
        <ele>1715.3900000000001</ele>
        <time>2025-07-14T12:23:18Z</time>
      </trkpt>
      <trkpt lat="42.700553443282843" lon="1.461254311725497">
        <ele>1714.3199999999999</ele>
        <time>2025-07-14T12:23:27Z</time>
      </trkpt>
      <trkpt lat="42.700623013079166" lon="1.461169989779592">
        <ele>1713.23</ele>
        <time>2025-07-14T12:23:36Z</time>
      </trkpt>
      <trkpt lat="42.700695851817727" lon="1.461075190454722">
        <ele>1711.4100000000001</ele>
        <time>2025-07-14T12:23:46Z</time>
      </trkpt>
      <trkpt lat="42.700756872072816" lon="1.460982905700803">
        <ele>1710.6300000000001</ele>
        <time>2025-07-14T12:23:55Z</time>
      </trkpt>
      <trkpt lat="42.700817054137588" lon="1.460885675624013">
        <ele>1709.23</ele>
        <time>2025-07-14T12:24:04Z</time>
      </trkpt>
      <trkpt lat="42.700883354991674" lon="1.460785595700145">
        <ele>1708.3800000000001</ele>
        <time>2025-07-14T12:24:14Z</time>
      </trkpt>
      <trkpt lat="42.70094521343708" lon="1.460690377280116">
        <ele>1707.1199999999999</ele>
        <time>2025-07-14T12:24:23Z</time>
      </trkpt>
      <trkpt lat="42.701001539826393" lon="1.460593901574612">
        <ele>1705.7</ele>
        <time>2025-07-14T12:24:32Z</time>
      </trkpt>
      <trkpt lat="42.701051747426391" lon="1.460494324564934">
        <ele>1704.28</ele>
        <time>2025-07-14T12:24:41Z</time>
      </trkpt>
      <trkpt lat="42.701101871207356" lon="1.460397010669112">
        <ele>1702.96</ele>
        <time>2025-07-14T12:24:50Z</time>
      </trkpt>
      <trkpt lat="42.701151659712195" lon="1.460293997079134">
        <ele>1701.75</ele>
        <time>2025-07-14T12:24:59Z</time>
      </trkpt>
      <trkpt lat="42.701206561177969" lon="1.460194336250424">
        <ele>1701.3299999999999</ele>
        <time>2025-07-14T12:25:08Z</time>
      </trkpt>
      <trkpt lat="42.70127353258431" lon="1.46011152304709">
        <ele>1700.1099999999999</ele>
        <time>2025-07-14T12:25:17Z</time>
      </trkpt>
      <trkpt lat="42.701357183977962" lon="1.460065087303519">
        <ele>1698.99</ele>
        <time>2025-07-14T12:25:26Z</time>
      </trkpt>
      <trkpt lat="42.701455000787973" lon="1.46004949696362">
        <ele>1698.01</ele>
        <time>2025-07-14T12:25:35Z</time>
      </trkpt>
      <trkpt lat="42.701554829254746" lon="1.460050838068128">
        <ele>1697.0699999999999</ele>
        <time>2025-07-14T12:25:44Z</time>
      </trkpt>
      <trkpt lat="42.701650550588965" lon="1.460055196657777">
        <ele>1696.79</ele>
        <time>2025-07-14T12:25:55Z</time>
      </trkpt>
      <trkpt lat="42.701739314943552" lon="1.460028542205691">
        <ele>1696.23</ele>
        <time>2025-07-14T12:26:10Z</time>
      </trkpt>
      <trkpt lat="42.701825480908155" lon="1.460017310455442">
        <ele>1696.3800000000001</ele>
        <time>2025-07-14T12:26:23Z</time>
      </trkpt>
      <trkpt lat="42.701919190585613" lon="1.460017981007695">
        <ele>1694.8399999999999</ele>
        <time>2025-07-14T12:26:40Z</time>
      </trkpt>
      <trkpt lat="42.702035279944539" lon="1.460008258000016">
        <ele>1692.5</ele>
        <time>2025-07-14T12:26:59Z</time>
      </trkpt>
      <trkpt lat="42.702171485871077" lon="1.460062991827726">
        <ele>1690.3499999999999</ele>
        <time>2025-07-14T12:27:16Z</time>
      </trkpt>
      <trkpt lat="42.702280031517148" lon="1.460144128650427">
        <ele>1688.97</ele>
        <time>2025-07-14T12:27:32Z</time>
      </trkpt>
      <trkpt lat="42.702379105612636" lon="1.460205819457769">
        <ele>1687.0699999999999</ele>
        <time>2025-07-14T12:27:50Z</time>
      </trkpt>
      <trkpt lat="42.702488740906119" lon="1.460302211344242">
        <ele>1685.48</ele>
        <time>2025-07-14T12:28:10Z</time>
      </trkpt>
      <trkpt lat="42.70262167789042" lon="1.4603406842798">
        <ele>1683.55</ele>
        <time>2025-07-14T12:28:27Z</time>
      </trkpt>
      <trkpt lat="42.702727457508445" lon="1.460330290719867">
        <ele>1681.8099999999999</ele>
        <time>2025-07-14T12:28:45Z</time>
      </trkpt>
      <trkpt lat="42.702878499403596" lon="1.460337750613689">
        <ele>1679.5999999999999</ele>
        <time>2025-07-14T12:29:05Z</time>
      </trkpt>
      <trkpt lat="42.703027697280049" lon="1.460353005677462">
        <ele>1678.02</ele>
        <time>2025-07-14T12:29:22Z</time>
      </trkpt>
      <trkpt lat="42.703177649527788" lon="1.460308246314526">
        <ele>1675.6400000000001</ele>
        <time>2025-07-14T12:29:39Z</time>
      </trkpt>
      <trkpt lat="42.703215032815933" lon="1.46024982444942">
        <ele>1672.73</ele>
        <time>2025-07-14T12:29:53Z</time>
      </trkpt>
      <trkpt lat="42.703121993690729" lon="1.460240269079804">
        <ele>1672.25</ele>
        <time>2025-07-14T12:30:04Z</time>
      </trkpt>
      <trkpt lat="42.703031552955508" lon="1.460192827507854">
        <ele>1671.4000000000001</ele>
        <time>2025-07-14T12:30:14Z</time>
      </trkpt>
      <trkpt lat="42.702946392819285" lon="1.460143374279141">
        <ele>1670.23</ele>
        <time>2025-07-14T12:30:24Z</time>
      </trkpt>
      <trkpt lat="42.702852431684732" lon="1.460102889686823">
        <ele>1669.9300000000001</ele>
        <time>2025-07-14T12:30:35Z</time>
      </trkpt>
      <trkpt lat="42.702756458893418" lon="1.460048155859113">
        <ele>1669.29</ele>
        <time>2025-07-14T12:30:45Z</time>
      </trkpt>
      <trkpt lat="42.702679680660367" lon="1.45998646505177">
        <ele>1668.9400000000001</ele>
        <time>2025-07-14T12:30:55Z</time>
      </trkpt>
      <trkpt lat="42.702599633485079" lon="1.45990926772356">
        <ele>1667.77</ele>
        <time>2025-07-14T12:31:05Z</time>
      </trkpt>
      <trkpt lat="42.702528974041343" lon="1.459818743169308">
        <ele>1666.6700000000001</ele>
        <time>2025-07-14T12:31:16Z</time>
      </trkpt>
      <trkpt lat="42.702451944351196" lon="1.459721932187676">
        <ele>1665.8699999999999</ele>
        <time>2025-07-14T12:31:26Z</time>
      </trkpt>
      <trkpt lat="42.702383883297443" lon="1.459621684625745">
        <ele>1664.5799999999999</ele>
        <time>2025-07-14T12:31:38Z</time>
      </trkpt>
      <trkpt lat="42.702464601024985" lon="1.459602741524577">
        <ele>1662.1800000000001</ele>
        <time>2025-07-14T12:32:03Z</time>
      </trkpt>
      <trkpt lat="42.702557472512126" lon="1.459657978266478">
        <ele>1659.54</ele>
        <time>2025-07-14T12:32:18Z</time>
      </trkpt>
      <trkpt lat="42.702562501654029" lon="1.459749424830079">
        <ele>1658.97</ele>
        <time>2025-07-14T12:33:21Z</time>
      </trkpt>
      <trkpt lat="42.702658725902438" lon="1.459748335182667">
        <ele>1657.6300000000001</ele>
        <time>2025-07-14T12:33:43Z</time>
      </trkpt>
      <trkpt lat="42.702783867716789" lon="1.459791669622064">
        <ele>1655.9200000000001</ele>
        <time>2025-07-14T12:33:59Z</time>
      </trkpt>
      <trkpt lat="42.702907584607601" lon="1.459803488105536">
        <ele>1653.0999999999999</ele>
        <time>2025-07-14T12:34:14Z</time>
      </trkpt>
      <trkpt lat="42.703035492449999" lon="1.459749676287174">
        <ele>1649.6400000000001</ele>
        <time>2025-07-14T12:34:30Z</time>
      </trkpt>
      <trkpt lat="42.703149653971195" lon="1.45966250449419">
        <ele>1646.72</ele>
        <time>2025-07-14T12:34:46Z</time>
      </trkpt>
      <trkpt lat="42.70323540084064" lon="1.459548762068152">
        <ele>1643.78</ele>
        <time>2025-07-14T12:35:00Z</time>
      </trkpt>
      <trkpt lat="42.70330916158855" lon="1.459404928609729">
        <ele>1641.26</ele>
        <time>2025-07-14T12:35:15Z</time>
      </trkpt>
      <trkpt lat="42.703386526554823" lon="1.45928674377501">
        <ele>1639.6300000000001</ele>
        <time>2025-07-14T12:35:28Z</time>
      </trkpt>
      <trkpt lat="42.703450312837958" lon="1.459183814004064">
        <ele>1638.29</ele>
        <time>2025-07-14T12:35:40Z</time>
      </trkpt>
      <trkpt lat="42.70352466031909" lon="1.459084739908576">
        <ele>1636.0799999999999</ele>
        <time>2025-07-14T12:35:59Z</time>
      </trkpt>
      <trkpt lat="42.703609988093376" lon="1.459012906998396">
        <ele>1633.0799999999999</ele>
        <time>2025-07-14T12:36:14Z</time>
      </trkpt>
      <trkpt lat="42.70352709107101" lon="1.458938308060169">
        <ele>1628.8699999999999</ele>
        <time>2025-07-14T12:36:36Z</time>
      </trkpt>
      <trkpt lat="42.703550141304731" lon="1.458823308348656">
        <ele>1624.05</ele>
        <time>2025-07-14T12:36:54Z</time>
      </trkpt>
      <trkpt lat="42.703638654202223" lon="1.458750301972032">
        <ele>1619.74</ele>
        <time>2025-07-14T12:37:16Z</time>
      </trkpt>
      <trkpt lat="42.703599175438285" lon="1.458626752719283">
        <ele>1614.8800000000001</ele>
        <time>2025-07-14T12:37:38Z</time>
      </trkpt>
      <trkpt lat="42.703499179333448" lon="1.45857822149992">
        <ele>1610.04</ele>
        <time>2025-07-14T12:37:59Z</time>
      </trkpt>
      <trkpt lat="42.70337512716651" lon="1.458553075790405">
        <ele>1606.3699999999999</ele>
        <time>2025-07-14T12:38:21Z</time>
      </trkpt>
      <trkpt lat="42.703383509069681" lon="1.458464814350009">
        <ele>1604.46</ele>
        <time>2025-07-14T12:38:46Z</time>
      </trkpt>
      <trkpt lat="42.703473446890712" lon="1.458362303674221">
        <ele>1601.0699999999999</ele>
        <time>2025-07-14T12:39:03Z</time>
      </trkpt>
      <trkpt lat="42.703564893454313" lon="1.458306480199099">
        <ele>1597.52</ele>
        <time>2025-07-14T12:39:24Z</time>
      </trkpt>
      <trkpt lat="42.703497167676687" lon="1.458235150203109">
        <ele>1593.55</ele>
        <time>2025-07-14T12:39:45Z</time>
      </trkpt>
      <trkpt lat="42.703472692519426" lon="1.458157449960709">
        <ele>1589.29</ele>
        <time>2025-07-14T12:40:07Z</time>
      </trkpt>
      <trkpt lat="42.703563552349806" lon="1.458065584301949">
        <ele>1584.9100000000001</ele>
        <time>2025-07-14T12:40:26Z</time>
      </trkpt>
      <trkpt lat="42.703495407477021" lon="1.458020489662886">
        <ele>1580.8599999999999</ele>
        <time>2025-07-14T12:40:48Z</time>
      </trkpt>
      <trkpt lat="42.703557936474681" lon="1.457923427224159">
        <ele>1577.3699999999999</ele>
        <time>2025-07-14T12:41:04Z</time>
      </trkpt>
      <trkpt lat="42.703438578173518" lon="1.457860060036182">
        <ele>1573.1500000000001</ele>
        <time>2025-07-14T12:41:22Z</time>
      </trkpt>
      <trkpt lat="42.703344197943807" lon="1.45778470672667">
        <ele>1570.1400000000001</ele>
        <time>2025-07-14T12:41:38Z</time>
      </trkpt>
      <trkpt lat="42.703290386125445" lon="1.457768613472581">
        <ele>1567.3900000000001</ele>
        <time>2025-07-14T12:41:56Z</time>
      </trkpt>
      <trkpt lat="42.703369176015258" lon="1.457711197435856">
        <ele>1565.02</ele>
        <time>2025-07-14T12:42:13Z</time>
      </trkpt>
      <trkpt lat="42.703269766643643" lon="1.457640957087278">
        <ele>1562.9200000000001</ele>
        <time>2025-07-14T12:42:28Z</time>
      </trkpt>
      <trkpt lat="42.70318116992712" lon="1.457567950710654">
        <ele>1560.5899999999999</ele>
        <time>2025-07-14T12:42:42Z</time>
      </trkpt>
      <trkpt lat="42.703035576269031" lon="1.45757457241416">
        <ele>1557.21</ele>
        <time>2025-07-14T12:43:01Z</time>
      </trkpt>
      <trkpt lat="42.703027864918113" lon="1.457478599622846">
        <ele>1554.76</ele>
        <time>2025-07-14T12:43:18Z</time>
      </trkpt>
      <trkpt lat="42.703110426664352" lon="1.457445910200477">
        <ele>1552.77</ele>
        <time>2025-07-14T12:43:32Z</time>
      </trkpt>
      <trkpt lat="42.703211177140474" lon="1.457445155829191">
        <ele>1550.3900000000001</ele>
        <time>2025-07-14T12:43:45Z</time>
      </trkpt>
      <trkpt lat="42.703312681987882" lon="1.45742017775774">
        <ele>1548.27</ele>
        <time>2025-07-14T12:43:56Z</time>
      </trkpt>
      <trkpt lat="42.703412007540464" lon="1.457371227443218">
        <ele>1546.0999999999999</ele>
        <time>2025-07-14T12:44:12Z</time>
      </trkpt>
      <trkpt lat="42.703523486852646" lon="1.457381788641214">
        <ele>1546.51</ele>
        <time>2025-07-14T12:44:23Z</time>
      </trkpt>
      <trkpt lat="42.703637229278684" lon="1.45734348334372">
        <ele>1547.99</ele>
        <time>2025-07-14T12:44:38Z</time>
      </trkpt>
      <trkpt lat="42.703745691105723" lon="1.4572530426085">
        <ele>1548.95</ele>
        <time>2025-07-14T12:44:56Z</time>
      </trkpt>
      <trkpt lat="42.703847195953131" lon="1.457148352637887">
        <ele>1548.76</ele>
        <time>2025-07-14T12:45:10Z</time>
      </trkpt>
      <trkpt lat="42.703959178179502" lon="1.457105604931712">
        <ele>1548.28</ele>
        <time>2025-07-14T12:45:22Z</time>
      </trkpt>
      <trkpt lat="42.704051630571485" lon="1.457142066210508">
        <ele>1547.2</ele>
        <time>2025-07-14T12:45:37Z</time>
      </trkpt>
      <trkpt lat="42.70412715151906" lon="1.457230662927032">
        <ele>1545.3900000000001</ele>
        <time>2025-07-14T12:45:48Z</time>
      </trkpt>
      <trkpt lat="42.704222202301025" lon="1.457288665696979">
        <ele>1544.52</ele>
        <time>2025-07-14T12:45:58Z</time>
      </trkpt>
      <trkpt lat="42.704329323023558" lon="1.457358738407493">
        <ele>1544.22</ele>
        <time>2025-07-14T12:46:09Z</time>
      </trkpt>
      <trkpt lat="42.704443065449595" lon="1.457391595467925">
        <ele>1544.1400000000001</ele>
        <time>2025-07-14T12:46:20Z</time>
      </trkpt>
      <trkpt lat="42.704540127888322" lon="1.457433421164751">
        <ele>1543.0799999999999</ele>
        <time>2025-07-14T12:46:29Z</time>
      </trkpt>
      <trkpt lat="42.70463383756578" lon="1.457470050081611">
        <ele>1542.8</ele>
        <time>2025-07-14T12:46:38Z</time>
      </trkpt>
      <trkpt lat="42.704713214188814" lon="1.457532914355397">
        <ele>1542.1400000000001</ele>
        <time>2025-07-14T12:46:46Z</time>
      </trkpt>
      <trkpt lat="42.704833326861262" lon="1.45755160599947">
        <ele>1541.8599999999999</ele>
        <time>2025-07-14T12:46:55Z</time>
      </trkpt>
      <trkpt lat="42.704938352108002" lon="1.457575242966414">
        <ele>1542.2</ele>
        <time>2025-07-14T12:47:03Z</time>
      </trkpt>
      <trkpt lat="42.705040108412504" lon="1.457615057006478">
        <ele>1542.6900000000001</ele>
        <time>2025-07-14T12:47:12Z</time>
      </trkpt>
      <trkpt lat="42.705147229135036" lon="1.45763517357409">
        <ele>1542.6500000000001</ele>
        <time>2025-07-14T12:47:23Z</time>
      </trkpt>
      <trkpt lat="42.705264324322343" lon="1.457663336768746">
        <ele>1542.3</ele>
        <time>2025-07-14T12:47:34Z</time>
      </trkpt>
      <trkpt lat="42.705370858311653" lon="1.457683788612485">
        <ele>1542.3499999999999</ele>
        <time>2025-07-14T12:47:44Z</time>
      </trkpt>
      <trkpt lat="42.705453168600798" lon="1.457718489691615">
        <ele>1541.24</ele>
        <time>2025-07-14T12:47:52Z</time>
      </trkpt>
      <trkpt lat="42.705544615164399" lon="1.457772888243198">
        <ele>1540.78</ele>
        <time>2025-07-14T12:48:02Z</time>
      </trkpt>
      <trkpt lat="42.705618962645531" lon="1.457838350906968">
        <ele>1540.3599999999999</ele>
        <time>2025-07-14T12:48:10Z</time>
      </trkpt>
      <trkpt lat="42.705664979293942" lon="1.457950249314308">
        <ele>1541.05</ele>
        <time>2025-07-14T12:48:22Z</time>
      </trkpt>
      <trkpt lat="42.705751229077578" lon="1.458015209063888">
        <ele>1541.0999999999999</ele>
        <time>2025-07-14T12:48:32Z</time>
      </trkpt>
      <trkpt lat="42.705835299566388" lon="1.458095591515303">
        <ele>1541.79</ele>
        <time>2025-07-14T12:48:44Z</time>
      </trkpt>
      <trkpt lat="42.705922555178404" lon="1.458157198503614">
        <ele>1541.3299999999999</ele>
        <time>2025-07-14T12:48:54Z</time>
      </trkpt>
      <trkpt lat="42.705998746678233" lon="1.458228193223476">
        <ele>1540.73</ele>
        <time>2025-07-14T12:49:03Z</time>
      </trkpt>
      <trkpt lat="42.706089941784739" lon="1.458223080262542">
        <ele>1539.8699999999999</ele>
        <time>2025-07-14T12:49:12Z</time>
      </trkpt>
      <trkpt lat="42.706187842413783" lon="1.458165496587753">
        <ele>1538.6099999999999</ele>
        <time>2025-07-14T12:49:21Z</time>
      </trkpt>
      <trkpt lat="42.706284988671541" lon="1.458185780793428">
        <ele>1538.24</ele>
        <time>2025-07-14T12:49:30Z</time>
      </trkpt>
      <trkpt lat="42.706367718055844" lon="1.458252416923642">
        <ele>1536.74</ele>
        <time>2025-07-14T12:49:40Z</time>
      </trkpt>
      <trkpt lat="42.706438126042485" lon="1.458350233733654">
        <ele>1535.25</ele>
        <time>2025-07-14T12:49:50Z</time>
      </trkpt>
      <trkpt lat="42.706522447988391" lon="1.458418546244502">
        <ele>1534.23</ele>
        <time>2025-07-14T12:49:58Z</time>
      </trkpt>
      <trkpt lat="42.706610709428787" lon="1.458488116040826">
        <ele>1533.4300000000001</ele>
        <time>2025-07-14T12:50:07Z</time>
      </trkpt>
      <trkpt lat="42.706686398014426" lon="1.458561876788735">
        <ele>1532.3199999999999</ele>
        <time>2025-07-14T12:50:15Z</time>
      </trkpt>
      <trkpt lat="42.70673006772995" lon="1.458669248968363">
        <ele>1532.1400000000001</ele>
        <time>2025-07-14T12:50:24Z</time>
      </trkpt>
      <trkpt lat="42.706787651404738" lon="1.458772178739309">
        <ele>1532.0899999999999</ele>
        <time>2025-07-14T12:50:32Z</time>
      </trkpt>
      <trkpt lat="42.706836685538292" lon="1.458875611424446">
        <ele>1531.99</ele>
        <time>2025-07-14T12:50:41Z</time>
      </trkpt>
      <trkpt lat="42.70687616430223" lon="1.458985581994057">
        <ele>1532.46</ele>
        <time>2025-07-14T12:51:09Z</time>
      </trkpt>
      <trkpt lat="42.706915810704231" lon="1.459101336076856">
        <ele>1531.1600000000001</ele>
        <time>2025-07-14T12:51:18Z</time>
      </trkpt>
      <trkpt lat="42.706966688856483" lon="1.459221113473177">
        <ele>1531.01</ele>
        <time>2025-07-14T12:51:28Z</time>
      </trkpt>
      <trkpt lat="42.707020416855812" lon="1.459320690482855">
        <ele>1531.4100000000001</ele>
        <time>2025-07-14T12:51:37Z</time>
      </trkpt>
      <trkpt lat="42.707063918933272" lon="1.459437785670161">
        <ele>1531.25</ele>
        <time>2025-07-14T12:51:46Z</time>
      </trkpt>
      <trkpt lat="42.707085041329265" lon="1.459560412913561">
        <ele>1531.48</ele>
        <time>2025-07-14T12:51:55Z</time>
      </trkpt>
      <trkpt lat="42.707176152616739" lon="1.45958824083209">
        <ele>1532.52</ele>
        <time>2025-07-14T12:52:06Z</time>
      </trkpt>
      <trkpt lat="42.707269275560975" lon="1.459600813686848">
        <ele>1531.76</ele>
        <time>2025-07-14T12:52:19Z</time>
      </trkpt>
      <trkpt lat="42.707349909469485" lon="1.459642890840769">
        <ele>1530.9300000000001</ele>
        <time>2025-07-14T12:52:31Z</time>
      </trkpt>
      <trkpt lat="42.707446301355958" lon="1.459666024893522">
        <ele>1530.74</ele>
        <time>2025-07-14T12:52:41Z</time>
      </trkpt>
      <trkpt lat="42.707544788718224" lon="1.459673484787345">
        <ele>1529.9100000000001</ele>
        <time>2025-07-14T12:52:51Z</time>
      </trkpt>
      <trkpt lat="42.707615364342928" lon="1.459666443988681">
        <ele>1529.1500000000001</ele>
        <time>2025-07-14T12:53:02Z</time>
      </trkpt>
      <trkpt lat="42.707703793421388" lon="1.459707012400031">
        <ele>1527.9000000000001</ele>
        <time>2025-07-14T12:53:11Z</time>
      </trkpt>
      <trkpt lat="42.707771770656109" lon="1.459788819774985">
        <ele>1527.1600000000001</ele>
        <time>2025-07-14T12:53:19Z</time>
      </trkpt>
      <trkpt lat="42.707859696820378" lon="1.459840452298522">
        <ele>1526.6600000000001</ele>
        <time>2025-07-14T12:53:28Z</time>
      </trkpt>
      <trkpt lat="42.707935385406017" lon="1.459925696253777">
        <ele>1525.3</ele>
        <time>2025-07-14T12:53:41Z</time>
      </trkpt>
      <trkpt lat="42.708000177517533" lon="1.460027368739247">
        <ele>1524.1900000000001</ele>
        <time>2025-07-14T12:53:50Z</time>
      </trkpt>
      <trkpt lat="42.708067651838064" lon="1.460113115608692">
        <ele>1523.48</ele>
        <time>2025-07-14T12:53:58Z</time>
      </trkpt>
      <trkpt lat="42.70816127769649" lon="1.46013155579567">
        <ele>1523.01</ele>
        <time>2025-07-14T12:54:08Z</time>
      </trkpt>
      <trkpt lat="42.708241827785969" lon="1.460054274648428">
        <ele>1523.0699999999999</ele>
        <time>2025-07-14T12:54:18Z</time>
      </trkpt>
      <trkpt lat="42.708318186923862" lon="1.459989566355944">
        <ele>1521.78</ele>
        <time>2025-07-14T12:54:28Z</time>
      </trkpt>
      <trkpt lat="42.708359677344561" lon="1.459892755374312">
        <ele>1520.03</ele>
        <time>2025-07-14T12:54:37Z</time>
      </trkpt>
      <trkpt lat="42.708405610173941" lon="1.459762919694185">
        <ele>1518.6700000000001</ele>
        <time>2025-07-14T12:54:50Z</time>
      </trkpt>
      <trkpt lat="42.708433521911502" lon="1.459622522816062">
        <ele>1516.6199999999999</ele>
        <time>2025-07-14T12:55:02Z</time>
      </trkpt>
      <trkpt lat="42.708462690934539" lon="1.459463853389025">
        <ele>1513.8199999999999</ele>
        <time>2025-07-14T12:55:18Z</time>
      </trkpt>
      <trkpt lat="42.708494206890464" lon="1.459398893639445">
        <ele>1513.9200000000001</ele>
        <time>2025-07-14T12:56:07Z</time>
      </trkpt>
      <trkpt lat="42.708476353436708" lon="1.459330162033439">
        <ele>1514.1300000000001</ele>
        <time>2025-07-14T12:56:37Z</time>
      </trkpt>
      <trkpt lat="42.708510970696807" lon="1.459228070452809">
        <ele>1512.24</ele>
        <time>2025-07-14T12:56:50Z</time>
      </trkpt>
      <trkpt lat="42.708563357591629" lon="1.45911717787385">
        <ele>1510.1199999999999</ele>
        <time>2025-07-14T12:57:04Z</time>
      </trkpt>
      <trkpt lat="42.708634184673429" lon="1.458984240889549">
        <ele>1508.5699999999999</ele>
        <time>2025-07-14T12:57:15Z</time>
      </trkpt>
      <trkpt lat="42.708695288747549" lon="1.458859434351325">
        <ele>1506.24</ele>
        <time>2025-07-14T12:57:26Z</time>
      </trkpt>
      <trkpt lat="42.708769300952554" lon="1.458730520680547">
        <ele>1503.8299999999999</ele>
        <time>2025-07-14T12:57:38Z</time>
      </trkpt>
      <trkpt lat="42.708852952346206" lon="1.458604540675879">
        <ele>1501.9300000000001</ele>
        <time>2025-07-14T12:57:50Z</time>
      </trkpt>
      <trkpt lat="42.708829566836357" lon="1.458542095497251">
        <ele>1498.76</ele>
        <time>2025-07-14T12:58:04Z</time>
      </trkpt>
      <trkpt lat="42.70874222740531" lon="1.458584507927299">
        <ele>1495.25</ele>
        <time>2025-07-14T12:58:22Z</time>
      </trkpt>
      <trkpt lat="42.708591939881444" lon="1.458636475726962">
        <ele>1493.76</ele>
        <time>2025-07-14T12:58:40Z</time>
      </trkpt>
      <trkpt lat="42.70845347084105" lon="1.458762791007757">
        <ele>1489.6099999999999</ele>
        <time>2025-07-14T12:58:58Z</time>
      </trkpt>
      <trkpt lat="42.70836353302002" lon="1.458889441564679">
        <ele>1486.4100000000001</ele>
        <time>2025-07-14T12:59:15Z</time>
      </trkpt>
      <trkpt lat="42.708225147798657" lon="1.458986084908247">
        <ele>1483.4100000000001</ele>
        <time>2025-07-14T12:59:30Z</time>
      </trkpt>
      <trkpt lat="42.708235373720527" lon="1.458859601989389">
        <ele>1481.1800000000001</ele>
        <time>2025-07-14T12:59:43Z</time>
      </trkpt>
      <trkpt lat="42.708274852484465" lon="1.458733370527625">
        <ele>1479.5</ele>
        <time>2025-07-14T12:59:55Z</time>
      </trkpt>
      <trkpt lat="42.70832447335124" lon="1.458604708313942">
        <ele>1477.8699999999999</ele>
        <time>2025-07-14T13:00:07Z</time>
      </trkpt>
      <trkpt lat="42.708378117531538" lon="1.458464562892914">
        <ele>1476.02</ele>
        <time>2025-07-14T13:00:20Z</time>
      </trkpt>
      <trkpt lat="42.708427989855409" lon="1.458289213478565">
        <ele>1473.6800000000001</ele>
        <time>2025-07-14T13:00:34Z</time>
      </trkpt>
      <trkpt lat="42.708480712026358" lon="1.458146302029491">
        <ele>1471.5999999999999</ele>
        <time>2025-07-14T13:00:46Z</time>
      </trkpt>
      <trkpt lat="42.70855849608779" lon="1.458018561825156">
        <ele>1469.4000000000001</ele>
        <time>2025-07-14T13:00:58Z</time>
      </trkpt>
      <trkpt lat="42.708545252680779" lon="1.457924852147698">
        <ele>1467.29</ele>
        <time>2025-07-14T13:01:12Z</time>
      </trkpt>
      <trkpt lat="42.708477610722184" lon="1.457940107211471">
        <ele>1464.51</ele>
        <time>2025-07-14T13:01:24Z</time>
      </trkpt>
      <trkpt lat="42.708371495828032" lon="1.457949075847864">
        <ele>1461.0699999999999</ele>
        <time>2025-07-14T13:01:41Z</time>
      </trkpt>
      <trkpt lat="42.708399742841721" lon="1.457920828834176">
        <ele>1459.49</ele>
        <time>2025-07-14T13:01:54Z</time>
      </trkpt>
      <trkpt lat="42.708470486104488" lon="1.457841452211142">
        <ele>1458.1199999999999</ele>
        <time>2025-07-14T13:02:05Z</time>
      </trkpt>
      <trkpt lat="42.708550952374935" lon="1.457763584330678">
        <ele>1456.1099999999999</ele>
        <time>2025-07-14T13:02:16Z</time>
      </trkpt>
      <trkpt lat="42.708631921559572" lon="1.457702480256558">
        <ele>1454.1199999999999</ele>
        <time>2025-07-14T13:02:27Z</time>
      </trkpt>
      <trkpt lat="42.708727726712823" lon="1.457635089755058">
        <ele>1451.77</ele>
        <time>2025-07-14T13:02:41Z</time>
      </trkpt>
      <trkpt lat="42.708833003416657" lon="1.45762100815773">
        <ele>1450.1400000000001</ele>
        <time>2025-07-14T13:02:54Z</time>
      </trkpt>
      <trkpt lat="42.708935178816319" lon="1.457626791670919">
        <ele>1447.8</ele>
        <time>2025-07-14T13:03:06Z</time>
      </trkpt>
      <trkpt lat="42.709029978141189" lon="1.457570716738701">
        <ele>1445.78</ele>
        <time>2025-07-14T13:03:22Z</time>
      </trkpt>
      <trkpt lat="42.709113042801619" lon="1.457516150549054">
        <ele>1443.51</ele>
        <time>2025-07-14T13:03:52Z</time>
      </trkpt>
      <trkpt lat="42.709197197109461" lon="1.457557808607817">
        <ele>1442.02</ele>
        <time>2025-07-14T13:04:23Z</time>
      </trkpt>
      <trkpt lat="42.709291996434331" lon="1.457540458068252">
        <ele>1439.46</ele>
        <time>2025-07-14T13:04:49Z</time>
      </trkpt>
      <trkpt lat="42.709389226511121" lon="1.45751447416842">
        <ele>1437.4400000000001</ele>
        <time>2025-07-14T13:05:06Z</time>
      </trkpt>
      <trkpt lat="42.709499699994922" lon="1.457472899928689">
        <ele>1434.5699999999999</ele>
        <time>2025-07-14T13:05:22Z</time>
      </trkpt>
      <trkpt lat="42.709563653916121" lon="1.457482622936368">
        <ele>1432.55</ele>
        <time>2025-07-14T13:05:49Z</time>
      </trkpt>
      <trkpt lat="42.709610089659691" lon="1.457585636526346">
        <ele>1431.72</ele>
        <time>2025-07-14T13:06:31Z</time>
      </trkpt>
      <trkpt lat="42.709659710526466" lon="1.457545151934028">
        <ele>1430.8299999999999</ele>
        <time>2025-07-14T13:06:54Z</time>
      </trkpt>
      <trkpt lat="42.709739841520786" lon="1.457481114193797">
        <ele>1429.23</ele>
        <time>2025-07-14T13:07:28Z</time>
      </trkpt>
      <trkpt lat="42.709825923666358" lon="1.457446413114667">
        <ele>1427.0799999999999</ele>
        <time>2025-07-14T13:07:45Z</time>
      </trkpt>
      <trkpt lat="42.709913514554501" lon="1.457424703985453">
        <ele>1425.45</ele>
        <time>2025-07-14T13:08:10Z</time>
      </trkpt>
      <trkpt lat="42.709953496232629" lon="1.457357062026858">
        <ele>1422.6600000000001</ele>
        <time>2025-07-14T13:08:26Z</time>
      </trkpt>
      <trkpt lat="42.709892140701413" lon="1.457293694838882">
        <ele>1420.0599999999999</ele>
        <time>2025-07-14T13:08:39Z</time>
      </trkpt>
      <trkpt lat="42.709812093526125" lon="1.45723988302052">
        <ele>1418.48</ele>
        <time>2025-07-14T13:08:55Z</time>
      </trkpt>
      <trkpt lat="42.709715953096747" lon="1.457169810310006">
        <ele>1415.78</ele>
        <time>2025-07-14T13:09:09Z</time>
      </trkpt>
      <trkpt lat="42.709608497098088" lon="1.457097306847572">
        <ele>1414.24</ele>
        <time>2025-07-14T13:09:22Z</time>
      </trkpt>
      <trkpt lat="42.709495089948177" lon="1.457041148096323">
        <ele>1411.95</ele>
        <time>2025-07-14T13:09:35Z</time>
      </trkpt>
      <trkpt lat="42.709388891234994" lon="1.456975936889648">
        <ele>1410.1099999999999</ele>
        <time>2025-07-14T13:09:50Z</time>
      </trkpt>
      <trkpt lat="42.709288308396935" lon="1.456859596073628">
        <ele>1407.54</ele>
        <time>2025-07-14T13:10:05Z</time>
      </trkpt>
      <trkpt lat="42.709182696416974" lon="1.456751385703683">
        <ele>1404.27</ele>
        <time>2025-07-14T13:10:20Z</time>
      </trkpt>
      <trkpt lat="42.709057554602623" lon="1.45670335739851">
        <ele>1401.04</ele>
        <time>2025-07-14T13:10:36Z</time>
      </trkpt>
      <trkpt lat="42.708940291777253" lon="1.456599673256278">
        <ele>1398.27</ele>
        <time>2025-07-14T13:10:50Z</time>
      </trkpt>
      <trkpt lat="42.708832919597626" lon="1.456536808982492">
        <ele>1395.5799999999999</ele>
        <time>2025-07-14T13:11:04Z</time>
      </trkpt>
      <trkpt lat="42.708740215748549" lon="1.456542341038585">
        <ele>1393.9100000000001</ele>
        <time>2025-07-14T13:11:25Z</time>
      </trkpt>
      <trkpt lat="42.708633681759238" lon="1.456539910286665">
        <ele>1391.8</ele>
        <time>2025-07-14T13:11:42Z</time>
      </trkpt>
      <trkpt lat="42.708526896312833" lon="1.456499928608537">
        <ele>1388.51</ele>
        <time>2025-07-14T13:11:59Z</time>
      </trkpt>
      <trkpt lat="42.708454141393304" lon="1.456435723230243">
        <ele>1384.5699999999999</ele>
        <time>2025-07-14T13:12:16Z</time>
      </trkpt>
      <trkpt lat="42.708310894668102" lon="1.456389958038926">
        <ele>1381.6099999999999</ele>
        <time>2025-07-14T13:12:31Z</time>
      </trkpt>
      <trkpt lat="42.708188686519861" lon="1.456345282495022">
        <ele>1378.46</ele>
        <time>2025-07-14T13:12:44Z</time>
      </trkpt>
      <trkpt lat="42.708107549697161" lon="1.45629876293242">
        <ele>1376.3</ele>
        <time>2025-07-14T13:12:56Z</time>
      </trkpt>
      <trkpt lat="42.70817594602704" lon="1.456261966377497">
        <ele>1373.1700000000001</ele>
        <time>2025-07-14T13:13:09Z</time>
      </trkpt>
      <trkpt lat="42.708268063142896" lon="1.456215446814895">
        <ele>1370.1400000000001</ele>
        <time>2025-07-14T13:13:23Z</time>
      </trkpt>
      <trkpt lat="42.708366885781288" lon="1.456155432388187">
        <ele>1367.9100000000001</ele>
        <time>2025-07-14T13:13:34Z</time>
      </trkpt>
      <trkpt lat="42.70846713334322" lon="1.456105476245284">
        <ele>1364.76</ele>
        <time>2025-07-14T13:13:49Z</time>
      </trkpt>
      <trkpt lat="42.708563525229692" lon="1.456048982217908">
        <ele>1361.97</ele>
        <time>2025-07-14T13:14:03Z</time>
      </trkpt>
      <trkpt lat="42.708669388666749" lon="1.456006905063987">
        <ele>1359.1400000000001</ele>
        <time>2025-07-14T13:14:17Z</time>
      </trkpt>
      <trkpt lat="42.708733007311821" lon="1.455958122387528">
        <ele>1356.8299999999999</ele>
        <time>2025-07-14T13:14:28Z</time>
      </trkpt>
      <trkpt lat="42.70883216522634" lon="1.455918811261654">
        <ele>1353.8199999999999</ele>
        <time>2025-07-14T13:14:41Z</time>
      </trkpt>
      <trkpt lat="42.708916906267405" lon="1.455886708572507">
        <ele>1351.0699999999999</ele>
        <time>2025-07-14T13:14:52Z</time>
      </trkpt>
      <trkpt lat="42.709015058353543" lon="1.455890145152807">
        <ele>1348.1300000000001</ele>
        <time>2025-07-14T13:15:05Z</time>
      </trkpt>
      <trkpt lat="42.708988236263394" lon="1.455836752429605">
        <ele>1345.45</ele>
        <time>2025-07-14T13:15:22Z</time>
      </trkpt>
      <trkpt lat="42.708890167996287" lon="1.455795681104064">
        <ele>1344.3</ele>
        <time>2025-07-14T13:15:35Z</time>
      </trkpt>
      <trkpt lat="42.708785897120833" lon="1.455749832093716">
        <ele>1342.6099999999999</ele>
        <time>2025-07-14T13:15:48Z</time>
      </trkpt>
      <trkpt lat="42.708685398101807" lon="1.455689482390881">
        <ele>1340.4200000000001</ele>
        <time>2025-07-14T13:16:03Z</time>
      </trkpt>
      <trkpt lat="42.708532428368926" lon="1.455695433542132">
        <ele>1338.1199999999999</ele>
        <time>2025-07-14T13:16:15Z</time>
      </trkpt>
      <trkpt lat="42.708414746448398" lon="1.455640280619264">
        <ele>1336.52</ele>
        <time>2025-07-14T13:16:25Z</time>
      </trkpt>
      <trkpt lat="42.70832103677094" lon="1.455621840432286">
        <ele>1334.5699999999999</ele>
        <time>2025-07-14T13:16:37Z</time>
      </trkpt>
      <trkpt lat="42.708399072289467" lon="1.455636760219932">
        <ele>1332.6199999999999</ele>
        <time>2025-07-14T13:16:50Z</time>
      </trkpt>
      <trkpt lat="42.708478113636374" lon="1.455613039433956">
        <ele>1330.49</ele>
        <time>2025-07-14T13:17:05Z</time>
      </trkpt>
      <trkpt lat="42.708530416712165" lon="1.455532992258668">
        <ele>1328.9000000000001</ele>
        <time>2025-07-14T13:17:14Z</time>
      </trkpt>
      <trkpt lat="42.70860786549747" lon="1.455530226230621">
        <ele>1327.3</ele>
        <time>2025-07-14T13:17:24Z</time>
      </trkpt>
      <trkpt lat="42.708687661215663" lon="1.455504074692726">
        <ele>1325.8599999999999</ele>
        <time>2025-07-14T13:17:33Z</time>
      </trkpt>
      <trkpt lat="42.708781119436026" lon="1.455494686961174">
        <ele>1322.9200000000001</ele>
        <time>2025-07-14T13:17:45Z</time>
      </trkpt>
      <trkpt lat="42.708876673132181" lon="1.455478174611926">
        <ele>1320.8099999999999</ele>
        <time>2025-07-14T13:17:56Z</time>
      </trkpt>
      <trkpt lat="42.708972813561559" lon="1.455415897071362">
        <ele>1318.01</ele>
        <time>2025-07-14T13:18:08Z</time>
      </trkpt>
      <trkpt lat="42.709069205448031" lon="1.455375663936138">
        <ele>1314.9300000000001</ele>
        <time>2025-07-14T13:18:21Z</time>
      </trkpt>
      <trkpt lat="42.709163250401616" lon="1.455373484641314">
        <ele>1312.6600000000001</ele>
        <time>2025-07-14T13:18:54Z</time>
      </trkpt>
      <trkpt lat="42.709250003099442" lon="1.455350015312433">
        <ele>1308.8699999999999</ele>
        <time>2025-07-14T13:19:09Z</time>
      </trkpt>
      <trkpt lat="42.709348741918802" lon="1.455358983948827">
        <ele>1305.3</ele>
        <time>2025-07-14T13:19:22Z</time>
      </trkpt>
      <trkpt lat="42.709429962560534" lon="1.455313554033637">
        <ele>1302.77</ele>
        <time>2025-07-14T13:19:32Z</time>
      </trkpt>
      <trkpt lat="42.709501041099429" lon="1.455266028642654">
        <ele>1300.47</ele>
        <time>2025-07-14T13:19:42Z</time>
      </trkpt>
      <trkpt lat="42.709587039425969" lon="1.455230237916112">
        <ele>1297.9000000000001</ele>
        <time>2025-07-14T13:19:54Z</time>
      </trkpt>
      <trkpt lat="42.709683096036315" lon="1.455220766365528">
        <ele>1295.1400000000001</ele>
        <time>2025-07-14T13:20:06Z</time>
      </trkpt>
      <trkpt lat="42.709781834855676" lon="1.455216323956847">
        <ele>1292.74</ele>
        <time>2025-07-14T13:20:20Z</time>
      </trkpt>
      <trkpt lat="42.709757862612605" lon="1.455067126080394">
        <ele>1291.1500000000001</ele>
        <time>2025-07-14T13:20:47Z</time>
      </trkpt>
      <trkpt lat="42.709700530394912" lon="1.455001663416624">
        <ele>1288.8399999999999</ele>
        <time>2025-07-14T13:20:59Z</time>
      </trkpt>
      <trkpt lat="42.709634229540825" lon="1.454962100833654">
        <ele>1285.28</ele>
        <time>2025-07-14T13:21:14Z</time>
      </trkpt>
      <trkpt lat="42.709554266184568" lon="1.454904936254025">
        <ele>1282.1500000000001</ele>
        <time>2025-07-14T13:21:29Z</time>
      </trkpt>
      <trkpt lat="42.709410348907113" lon="1.454863781109452">
        <ele>1279.1900000000001</ele>
        <time>2025-07-14T13:21:45Z</time>
      </trkpt>
      <trkpt lat="42.709402805194259" lon="1.454805191606283">
        <ele>1276.5</ele>
        <time>2025-07-14T13:22:01Z</time>
      </trkpt>
      <trkpt lat="42.709494335576892" lon="1.454771831631661">
        <ele>1274.3499999999999</ele>
        <time>2025-07-14T13:22:13Z</time>
      </trkpt>
      <trkpt lat="42.709573293104768" lon="1.454712571576238">
        <ele>1272.45</ele>
        <time>2025-07-14T13:22:25Z</time>
      </trkpt>
      <trkpt lat="42.709524426609278" lon="1.454648282378912">
        <ele>1268.7</ele>
        <time>2025-07-14T13:22:44Z</time>
      </trkpt>
      <trkpt lat="42.70940138027072" lon="1.454622717574239">
        <ele>1265.4300000000001</ele>
        <time>2025-07-14T13:23:02Z</time>
      </trkpt>
      <trkpt lat="42.709312280640006" lon="1.454575443640351">
        <ele>1263.0699999999999</ele>
        <time>2025-07-14T13:23:16Z</time>
      </trkpt>
      <trkpt lat="42.709213960915804" lon="1.454518781974912">
        <ele>1258.8599999999999</ele>
        <time>2025-07-14T13:23:35Z</time>
      </trkpt>
      <trkpt lat="42.709092423319817" lon="1.454472597688437">
        <ele>1255.8</ele>
        <time>2025-07-14T13:23:50Z</time>
      </trkpt>
      <trkpt lat="42.708995696157217" lon="1.45438383333385">
        <ele>1253.6700000000001</ele>
        <time>2025-07-14T13:24:04Z</time>
      </trkpt>
      <trkpt lat="42.708898717537522" lon="1.454315604642034">
        <ele>1250.7</ele>
        <time>2025-07-14T13:24:22Z</time>
      </trkpt>
      <trkpt lat="42.708767456933856" lon="1.454258775338531">
        <ele>1248.4300000000001</ele>
        <time>2025-07-14T13:24:37Z</time>
      </trkpt>
      <trkpt lat="42.70867140032351" lon="1.454182332381606">
        <ele>1244.6800000000001</ele>
        <time>2025-07-14T13:24:54Z</time>
      </trkpt>
      <trkpt lat="42.708562770858407" lon="1.454113768413663">
        <ele>1241.05</ele>
        <time>2025-07-14T13:25:11Z</time>
      </trkpt>
      <trkpt lat="42.708432851359248" lon="1.454073032364249">
        <ele>1237.5599999999999</ele>
        <time>2025-07-14T13:25:28Z</time>
      </trkpt>
      <trkpt lat="42.708292119204998" lon="1.454036738723517">
        <ele>1234</ele>
        <time>2025-07-14T13:25:46Z</time>
      </trkpt>
      <trkpt lat="42.708157338202" lon="1.453997846692801">
        <ele>1231.29</ele>
        <time>2025-07-14T13:26:01Z</time>
      </trkpt>
      <trkpt lat="42.708049295470119" lon="1.453905142843723">
        <ele>1228.3399999999999</ele>
        <time>2025-07-14T13:26:14Z</time>
      </trkpt>
      <trkpt lat="42.70793060772121" lon="1.453871782869101">
        <ele>1227.21</ele>
        <time>2025-07-14T13:26:27Z</time>
      </trkpt>
      <trkpt lat="42.707822481170297" lon="1.45383850671351">
        <ele>1225.4200000000001</ele>
        <time>2025-07-14T13:26:41Z</time>
      </trkpt>
      <trkpt lat="42.707735728472471" lon="1.453754939138889">
        <ele>1222.29</ele>
        <time>2025-07-14T13:26:56Z</time>
      </trkpt>
      <trkpt lat="42.707642186433077" lon="1.45367288030684">
        <ele>1218.74</ele>
        <time>2025-07-14T13:27:12Z</time>
      </trkpt>
      <trkpt lat="42.707565659657121" lon="1.453586295247078">
        <ele>1216.21</ele>
        <time>2025-07-14T13:27:25Z</time>
      </trkpt>
      <trkpt lat="42.707498939707875" lon="1.4534901548177">
        <ele>1213.46</ele>
        <time>2025-07-14T13:27:39Z</time>
      </trkpt>
      <trkpt lat="42.707403218373656" lon="1.453403988853097">
        <ele>1210.5999999999999</ele>
        <time>2025-07-14T13:27:54Z</time>
      </trkpt>
      <trkpt lat="42.707310849800706" lon="1.453301729634404">
        <ele>1207.0799999999999</ele>
        <time>2025-07-14T13:28:12Z</time>
      </trkpt>
      <trkpt lat="42.707239771261811" lon="1.453195447102189">
        <ele>1202.99</ele>
        <time>2025-07-14T13:28:28Z</time>
      </trkpt>
      <trkpt lat="42.707149414345622" lon="1.453160075470805">
        <ele>1200.55</ele>
        <time>2025-07-14T13:28:46Z</time>
      </trkpt>
      <trkpt lat="42.707144217565656" lon="1.453019846230745">
        <ele>1198.0599999999999</ele>
        <time>2025-07-14T13:29:07Z</time>
      </trkpt>
      <trkpt lat="42.70715176127851" lon="1.452885065227747">
        <ele>1193.8199999999999</ele>
        <time>2025-07-14T13:29:24Z</time>
      </trkpt>
      <trkpt lat="42.707103565335274" lon="1.452762521803379">
        <ele>1190.27</ele>
        <time>2025-07-14T13:29:41Z</time>
      </trkpt>
      <trkpt lat="42.707034666091204" lon="1.452652383595705">
        <ele>1186.1700000000001</ele>
        <time>2025-07-14T13:29:57Z</time>
      </trkpt>
      <trkpt lat="42.707003820687532" lon="1.452537467703223">
        <ele>1183.21</ele>
        <time>2025-07-14T13:30:13Z</time>
      </trkpt>
      <trkpt lat="42.706930227577686" lon="1.45245524123311">
        <ele>1178.5599999999999</ele>
        <time>2025-07-14T13:30:33Z</time>
      </trkpt>
      <trkpt lat="42.706845151260495" lon="1.452417187392712">
        <ele>1175.3199999999999</ele>
        <time>2025-07-14T13:30:49Z</time>
      </trkpt>
      <trkpt lat="42.70677893422544" lon="1.452302606776357">
        <ele>1171.0799999999999</ele>
        <time>2025-07-14T13:31:07Z</time>
      </trkpt>
      <trkpt lat="42.706743394955993" lon="1.452186014503241">
        <ele>1167.53</ele>
        <time>2025-07-14T13:31:24Z</time>
      </trkpt>
      <trkpt lat="42.706735180690885" lon="1.452059028670192">
        <ele>1164.1199999999999</ele>
        <time>2025-07-14T13:31:38Z</time>
      </trkpt>
      <trkpt lat="42.70670173689723" lon="1.451941262930632">
        <ele>1160.49</ele>
        <time>2025-07-14T13:31:55Z</time>
      </trkpt>
      <trkpt lat="42.706690169870853" lon="1.451801285147667">
        <ele>1157.0999999999999</ele>
        <time>2025-07-14T13:32:10Z</time>
      </trkpt>
      <trkpt lat="42.706676758825779" lon="1.451641190797091">
        <ele>1153.03</ele>
        <time>2025-07-14T13:32:26Z</time>
      </trkpt>
      <trkpt lat="42.706670137122273" lon="1.451511103659868">
        <ele>1148.9300000000001</ele>
        <time>2025-07-14T13:32:42Z</time>
      </trkpt>
      <trkpt lat="42.706670220941305" lon="1.451523089781404">
        <ele>1147.1500000000001</ele>
        <time>2025-07-14T13:33:23Z</time>
      </trkpt>
      <trkpt lat="42.706667119637132" lon="1.45152778364718">
        <ele>1146.75</ele>
        <time>2025-07-14T13:34:09Z</time>
      </trkpt>
      <trkpt lat="42.706672148779035" lon="1.451533986255527">
        <ele>1146.6600000000001</ele>
        <time>2025-07-14T13:34:51Z</time>
      </trkpt>
      <trkpt lat="42.706663012504578" lon="1.451506242156029">
        <ele>1146.78</ele>
        <time>2025-07-14T13:35:15Z</time>
      </trkpt>
      <trkpt lat="42.706572320312262" lon="1.45138562656939">
        <ele>1145.49</ele>
        <time>2025-07-14T13:35:31Z</time>
      </trkpt>
      <trkpt lat="42.706543235108256" lon="1.451254952698946">
        <ele>1142.21</ele>
        <time>2025-07-14T13:35:47Z</time>
      </trkpt>
      <trkpt lat="42.706558238714933" lon="1.45111195743084">
        <ele>1138.8</ele>
        <time>2025-07-14T13:36:03Z</time>
      </trkpt>
      <trkpt lat="42.706545414403081" lon="1.450980948284268">
        <ele>1136.0899999999999</ele>
        <time>2025-07-14T13:36:15Z</time>
      </trkpt>
      <trkpt lat="42.706590425223112" lon="1.450863517820835">
        <ele>1133.73</ele>
        <time>2025-07-14T13:36:27Z</time>
      </trkpt>
      <trkpt lat="42.706646332517266" lon="1.450750613585115">
        <ele>1131.28</ele>
        <time>2025-07-14T13:36:42Z</time>
      </trkpt>
      <trkpt lat="42.706685308367014" lon="1.450629075989127">
        <ele>1127.8800000000001</ele>
        <time>2025-07-14T13:36:57Z</time>
      </trkpt>
      <trkpt lat="42.706724116578698" lon="1.450506281107664">
        <ele>1124.6600000000001</ele>
        <time>2025-07-14T13:37:15Z</time>
      </trkpt>
      <trkpt lat="42.706749429926276" lon="1.450374098494649">
        <ele>1121.9200000000001</ele>
        <time>2025-07-14T13:37:33Z</time>
      </trkpt>
      <trkpt lat="42.706820676103234" lon="1.450281394645572">
        <ele>1119.8199999999999</ele>
        <time>2025-07-14T13:37:44Z</time>
      </trkpt>
      <trkpt lat="42.706913966685534" lon="1.450245017185807">
        <ele>1118.8599999999999</ele>
        <time>2025-07-14T13:37:54Z</time>
      </trkpt>
      <trkpt lat="42.707017315551639" lon="1.450252728536725">
        <ele>1116.8599999999999</ele>
        <time>2025-07-14T13:38:04Z</time>
      </trkpt>
      <trkpt lat="42.707109432667494" lon="1.450290028005838">
        <ele>1115.3599999999999</ele>
        <time>2025-07-14T13:38:13Z</time>
      </trkpt>
      <trkpt lat="42.70719668827951" lon="1.450347360223532">
        <ele>1114.8699999999999</ele>
        <time>2025-07-14T13:38:22Z</time>
      </trkpt>
      <trkpt lat="42.707278579473495" lon="1.450345013290644">
        <ele>1113.8099999999999</ele>
        <time>2025-07-14T13:38:32Z</time>
      </trkpt>
      <trkpt lat="42.707356112077832" lon="1.450301762670279">
        <ele>1111.6300000000001</ele>
        <time>2025-07-14T13:38:43Z</time>
      </trkpt>
      <trkpt lat="42.707405565306544" lon="1.450190786272287">
        <ele>1110.72</ele>
        <time>2025-07-14T13:38:53Z</time>
      </trkpt>
      <trkpt lat="42.707480164244771" lon="1.450141165405512">
        <ele>1110.22</ele>
        <time>2025-07-14T13:39:03Z</time>
      </trkpt>
      <trkpt lat="42.707583177834749" lon="1.450182991102338">
        <ele>1108.9000000000001</ele>
        <time>2025-07-14T13:39:14Z</time>
      </trkpt>
      <trkpt lat="42.707677809521556" lon="1.450192127376795">
        <ele>1107.8599999999999</ele>
        <time>2025-07-14T13:39:41Z</time>
      </trkpt>
      <trkpt lat="42.707778811454773" lon="1.450204532593489">
        <ele>1107.0699999999999</ele>
        <time>2025-07-14T13:39:50Z</time>
      </trkpt>
      <trkpt lat="42.707877214998007" lon="1.450216853991151">
        <ele>1106.8099999999999</ele>
        <time>2025-07-14T13:39:59Z</time>
      </trkpt>
      <trkpt lat="42.707973942160606" lon="1.450239066034555">
        <ele>1105.6199999999999</ele>
        <time>2025-07-14T13:40:09Z</time>
      </trkpt>
      <trkpt lat="42.708064885810018" lon="1.450239652767777">
        <ele>1105.78</ele>
        <time>2025-07-14T13:40:19Z</time>
      </trkpt>
      <trkpt lat="42.708152225241065" lon="1.45023244433105">
        <ele>1104.8800000000001</ele>
        <time>2025-07-14T13:40:36Z</time>
      </trkpt>
      <trkpt lat="42.708246856927872" lon="1.450259936973453">
        <ele>1104.1300000000001</ele>
        <time>2025-07-14T13:41:08Z</time>
      </trkpt>
      <trkpt lat="42.708271248266101" lon="1.450259517878294">
        <ele>1103.9400000000001</ele>
        <time>2025-07-14T13:42:25Z</time>
      </trkpt>
      <trkpt lat="42.708312151953578" lon="1.450274605304003">
        <ele>1104.28</ele>
        <time>2025-07-14T13:43:29Z</time>
      </trkpt>
      <trkpt lat="42.708256747573614" lon="1.450280891731381">
        <ele>1103.6600000000001</ele>
        <time>2025-07-14T13:44:12Z</time>
      </trkpt>
      <trkpt lat="42.708325562998652" lon="1.450339900329709">
        <ele>1103.23</ele>
        <time>2025-07-14T13:44:45Z</time>
      </trkpt>
      <trkpt lat="42.708420613780618" lon="1.450346941128373">
        <ele>1102.8699999999999</ele>
        <time>2025-07-14T13:44:56Z</time>
      </trkpt>
      <trkpt lat="42.708511473610997" lon="1.450344678014517">
        <ele>1102.51</ele>
        <time>2025-07-14T13:45:06Z</time>
      </trkpt>
      <trkpt lat="42.708605518564582" lon="1.450349371880293">
        <ele>1102.1400000000001</ele>
        <time>2025-07-14T13:45:16Z</time>
      </trkpt>
      <trkpt lat="42.708696965128183" lon="1.450318610295653">
        <ele>1102.24</ele>
        <time>2025-07-14T13:45:25Z</time>
      </trkpt>
      <trkpt lat="42.708788998425007" lon="1.450287345796824">
        <ele>1101.6300000000001</ele>
        <time>2025-07-14T13:45:35Z</time>
      </trkpt>
      <trkpt lat="42.708883211016655" lon="1.450257170945406">
        <ele>1101.3</ele>
        <time>2025-07-14T13:45:45Z</time>
      </trkpt>
      <trkpt lat="42.708983710035682" lon="1.450260439887643">
        <ele>1100.45</ele>
        <time>2025-07-14T13:45:59Z</time>
      </trkpt>
      <trkpt lat="42.709081778302789" lon="1.45028910599649">
        <ele>1099.3099999999999</ele>
        <time>2025-07-14T13:46:10Z</time>
      </trkpt>
      <trkpt lat="42.709177499637008" lon="1.450324561446905">
        <ele>1098.3699999999999</ele>
        <time>2025-07-14T13:46:21Z</time>
      </trkpt>
      <trkpt lat="42.709267856553197" lon="1.450367392972112">
        <ele>1097.0799999999999</ele>
        <time>2025-07-14T13:46:31Z</time>
      </trkpt>
      <trkpt lat="42.709365086629987" lon="1.450413828715682">
        <ele>1096.1600000000001</ele>
        <time>2025-07-14T13:46:41Z</time>
      </trkpt>
      <trkpt lat="42.709449995309114" lon="1.450464371591806">
        <ele>1095.1400000000001</ele>
        <time>2025-07-14T13:46:50Z</time>
      </trkpt>
      <trkpt lat="42.709543788805604" lon="1.450522290542722">
        <ele>1094.9300000000001</ele>
        <time>2025-07-14T13:47:01Z</time>
      </trkpt>
      <trkpt lat="42.709642108529806" lon="1.450569480657578">
        <ele>1094.1099999999999</ele>
        <time>2025-07-14T13:47:10Z</time>
      </trkpt>
      <trkpt lat="42.709733806550503" lon="1.450623460114002">
        <ele>1093.55</ele>
        <time>2025-07-14T13:47:19Z</time>
      </trkpt>
      <trkpt lat="42.709820559248328" lon="1.450659334659576">
        <ele>1092.48</ele>
        <time>2025-07-14T13:47:28Z</time>
      </trkpt>
      <trkpt lat="42.709914436563849" lon="1.450703674927354">
        <ele>1092.03</ele>
        <time>2025-07-14T13:47:38Z</time>
      </trkpt>
      <trkpt lat="42.710002027451992" lon="1.450744075700641">
        <ele>1091.8</ele>
        <time>2025-07-14T13:47:47Z</time>
      </trkpt>
      <trkpt lat="42.710091629996896" lon="1.450781123712659">
        <ele>1089.9400000000001</ele>
        <time>2025-07-14T13:47:56Z</time>
      </trkpt>
      <trkpt lat="42.710193805396557" lon="1.450808197259903">
        <ele>1088.99</ele>
        <time>2025-07-14T13:48:06Z</time>
      </trkpt>
      <trkpt lat="42.710294472053647" lon="1.450821775943041">
        <ele>1087.28</ele>
        <time>2025-07-14T13:48:17Z</time>
      </trkpt>
      <trkpt lat="42.710410142317414" lon="1.450855219736695">
        <ele>1086.6500000000001</ele>
        <time>2025-07-14T13:48:33Z</time>
      </trkpt>
      <trkpt lat="42.710503432899714" lon="1.450911210849881">
        <ele>1085.4300000000001</ele>
        <time>2025-07-14T13:48:43Z</time>
      </trkpt>
      <trkpt lat="42.710597896948457" lon="1.450954964384437">
        <ele>1085.0899999999999</ele>
        <time>2025-07-14T13:48:52Z</time>
      </trkpt>
      <trkpt lat="42.710690852254629" lon="1.451002405956388">
        <ele>1083.9100000000001</ele>
        <time>2025-07-14T13:49:01Z</time>
      </trkpt>
      <trkpt lat="42.710786573588848" lon="1.451048254966736">
        <ele>1083.2</ele>
        <time>2025-07-14T13:49:10Z</time>
      </trkpt>
      <trkpt lat="42.710878774523735" lon="1.45108949393034">
        <ele>1082.55</ele>
        <time>2025-07-14T13:49:18Z</time>
      </trkpt>
      <trkpt lat="42.710974160581827" lon="1.45112369209528">
        <ele>1081.9300000000001</ele>
        <time>2025-07-14T13:49:27Z</time>
      </trkpt>
      <trkpt lat="42.711065271869302" lon="1.451154369860888">
        <ele>1081.49</ele>
        <time>2025-07-14T13:49:36Z</time>
      </trkpt>
      <trkpt lat="42.711162585765123" lon="1.451176078990102">
        <ele>1080.3900000000001</ele>
        <time>2025-07-14T13:49:53Z</time>
      </trkpt>
      <trkpt lat="42.711249673739076" lon="1.451189741492271">
        <ele>1080.27</ele>
        <time>2025-07-14T13:50:01Z</time>
      </trkpt>
      <trkpt lat="42.711344053968787" lon="1.451178761199117">
        <ele>1079.53</ele>
        <time>2025-07-14T13:50:11Z</time>
      </trkpt>
      <trkpt lat="42.711447402834892" lon="1.451150765642524">
        <ele>1079.8</ele>
        <time>2025-07-14T13:50:21Z</time>
      </trkpt>
      <trkpt lat="42.711536837741733" lon="1.451112125068903">
        <ele>1078.8499999999999</ele>
        <time>2025-07-14T13:50:29Z</time>
      </trkpt>
      <trkpt lat="42.711622836068273" lon="1.451048087328672">
        <ele>1078.46</ele>
        <time>2025-07-14T13:50:38Z</time>
      </trkpt>
      <trkpt lat="42.711709002032876" lon="1.450972482562065">
        <ele>1077.9100000000001</ele>
        <time>2025-07-14T13:50:48Z</time>
      </trkpt>
      <trkpt lat="42.711798520758748" lon="1.45089210011065">
        <ele>1075.8499999999999</ele>
        <time>2025-07-14T13:50:58Z</time>
      </trkpt>
      <trkpt lat="42.711888290941715" lon="1.450811885297298">
        <ele>1076.49</ele>
        <time>2025-07-14T13:51:08Z</time>
      </trkpt>
      <trkpt lat="42.711966494098306" lon="1.450722785666585">
        <ele>1075.71</ele>
        <time>2025-07-14T13:51:17Z</time>
      </trkpt>
      <trkpt lat="42.712044445797801" lon="1.450632596388459">
        <ele>1074.4400000000001</ele>
        <time>2025-07-14T13:51:26Z</time>
      </trkpt>
      <trkpt lat="42.712130108848214" lon="1.450557997450233">
        <ele>1073.3299999999999</ele>
        <time>2025-07-14T13:51:39Z</time>
      </trkpt>
      <trkpt lat="42.712204288691282" lon="1.450509633868933">
        <ele>1073.46</ele>
        <time>2025-07-14T13:52:02Z</time>
      </trkpt>
      <trkpt lat="42.71228433586657" lon="1.450437800958753">
        <ele>1071.49</ele>
        <time>2025-07-14T13:52:10Z</time>
      </trkpt>
      <trkpt lat="42.712373938411474" lon="1.45038197748363">
        <ele>1071.1700000000001</ele>
        <time>2025-07-14T13:52:26Z</time>
      </trkpt>
      <trkpt lat="42.712464882060885" lon="1.450328165665269">
        <ele>1069.52</ele>
        <time>2025-07-14T13:52:36Z</time>
      </trkpt>
      <trkpt lat="42.71256135776639" lon="1.450282903388143">
        <ele>1069.28</ele>
        <time>2025-07-14T13:52:44Z</time>
      </trkpt>
      <trkpt lat="42.712664538994431" lon="1.450212830677629">
        <ele>1069.1099999999999</ele>
        <time>2025-07-14T13:52:53Z</time>
      </trkpt>
      <trkpt lat="42.712757075205445" lon="1.450152900069952">
        <ele>1067.8699999999999</ele>
        <time>2025-07-14T13:53:02Z</time>
      </trkpt>
      <trkpt lat="42.712834607809782" lon="1.45008928142488">
        <ele>1067.1199999999999</ele>
        <time>2025-07-14T13:53:10Z</time>
      </trkpt>
      <trkpt lat="42.712914906442165" lon="1.450035301968455">
        <ele>1066.45</ele>
        <time>2025-07-14T13:53:18Z</time>
      </trkpt>
      <trkpt lat="42.712991768494248" lon="1.44997495226562">
        <ele>1066.3699999999999</ele>
        <time>2025-07-14T13:53:26Z</time>
      </trkpt>
      <trkpt lat="42.713066199794412" lon="1.449907561764121">
        <ele>1066.3</ele>
        <time>2025-07-14T13:53:34Z</time>
      </trkpt>
      <trkpt lat="42.713149012997746" lon="1.449844865128398">
        <ele>1066.3099999999999</ele>
        <time>2025-07-14T13:53:43Z</time>
      </trkpt>
      <trkpt lat="42.71323224529624" lon="1.449752580374479">
        <ele>1066.3499999999999</ele>
        <time>2025-07-14T13:53:52Z</time>
      </trkpt>
      <trkpt lat="42.71331044845283" lon="1.449713185429573">
        <ele>1066.77</ele>
        <time>2025-07-14T13:54:00Z</time>
      </trkpt>
      <trkpt lat="42.713394518941641" lon="1.449667839333415">
        <ele>1066.22</ele>
        <time>2025-07-14T13:54:09Z</time>
      </trkpt>
      <trkpt lat="42.713481690734625" lon="1.449593743309379">
        <ele>1066.71</ele>
        <time>2025-07-14T13:54:19Z</time>
      </trkpt>
      <trkpt lat="42.713572299107909" lon="1.449537416920066">
        <ele>1066.6500000000001</ele>
        <time>2025-07-14T13:54:28Z</time>
      </trkpt>
      <trkpt lat="42.713673301041126" lon="1.449503805488348">
        <ele>1066.6800000000001</ele>
        <time>2025-07-14T13:54:38Z</time>
      </trkpt>
      <trkpt lat="42.713767848908901" lon="1.449486371129751">
        <ele>1066.4300000000001</ele>
        <time>2025-07-14T13:54:47Z</time>
      </trkpt>
      <trkpt lat="42.713855104520917" lon="1.449453262612224">
        <ele>1065.26</ele>
        <time>2025-07-14T13:54:56Z</time>
      </trkpt>
      <trkpt lat="42.713939594104886" lon="1.449406743049622">
        <ele>1063.96</ele>
        <time>2025-07-14T13:55:05Z</time>
      </trkpt>
      <trkpt lat="42.714018970727921" lon="1.449345136061311">
        <ele>1062.6300000000001</ele>
        <time>2025-07-14T13:55:14Z</time>
      </trkpt>
      <trkpt lat="42.714087199419737" lon="1.449260814115405">
        <ele>1061.1400000000001</ele>
        <time>2025-07-14T13:55:23Z</time>
      </trkpt>
      <trkpt lat="42.714152242988348" lon="1.449171211570501">
        <ele>1060.3199999999999</ele>
        <time>2025-07-14T13:55:32Z</time>
      </trkpt>
      <trkpt lat="42.714223153889179" lon="1.449087895452976">
        <ele>1058.8699999999999</ele>
        <time>2025-07-14T13:55:41Z</time>
      </trkpt>
      <trkpt lat="42.714305799454451" lon="1.449026204645634">
        <ele>1058.23</ele>
        <time>2025-07-14T13:55:51Z</time>
      </trkpt>
      <trkpt lat="42.714405544102192" lon="1.449002819135785">
        <ele>1057.2</ele>
        <time>2025-07-14T13:56:00Z</time>
      </trkpt>
      <trkpt lat="42.714493051171303" lon="1.44897666759789">
        <ele>1055.8699999999999</ele>
        <time>2025-07-14T13:56:09Z</time>
      </trkpt>
      <trkpt lat="42.714568823575974" lon="1.448921347036958">
        <ele>1054.9200000000001</ele>
        <time>2025-07-14T13:56:18Z</time>
      </trkpt>
      <trkpt lat="42.714666305109859" lon="1.448854124173522">
        <ele>1054.05</ele>
        <time>2025-07-14T13:56:27Z</time>
      </trkpt>
      <trkpt lat="42.714763283729553" lon="1.448790254071355">
        <ele>1053.1900000000001</ele>
        <time>2025-07-14T13:56:36Z</time>
      </trkpt>
      <trkpt lat="42.714850539341569" lon="1.448727305978537">
        <ele>1052.1600000000001</ele>
        <time>2025-07-14T13:56:46Z</time>
      </trkpt>
      <trkpt lat="42.714937375858426" lon="1.448664776980877">
        <ele>1051.74</ele>
        <time>2025-07-14T13:56:55Z</time>
      </trkpt>
      <trkpt lat="42.715009208768606" lon="1.44866150803864">
        <ele>1050.76</ele>
        <time>2025-07-14T13:57:05Z</time>
      </trkpt>
      <trkpt lat="42.715117922052741" lon="1.448683049529791">
        <ele>1049.29</ele>
        <time>2025-07-14T13:57:16Z</time>
      </trkpt>
      <trkpt lat="42.715211967006326" lon="1.448715822771192">
        <ele>1048.3</ele>
        <time>2025-07-14T13:57:26Z</time>
      </trkpt>
      <trkpt lat="42.715316824615002" lon="1.448732502758503">
        <ele>1047.3399999999999</ele>
        <time>2025-07-14T13:57:37Z</time>
      </trkpt>
      <trkpt lat="42.715415228158236" lon="1.448712553828955">
        <ele>1046.4200000000001</ele>
        <time>2025-07-14T13:57:48Z</time>
      </trkpt>
      <trkpt lat="42.715511536225677" lon="1.448687491938472">
        <ele>1044.96</ele>
        <time>2025-07-14T13:57:58Z</time>
      </trkpt>
      <trkpt lat="42.715618824586272" lon="1.44863317720592">
        <ele>1043.3199999999999</ele>
        <time>2025-07-14T13:58:10Z</time>
      </trkpt>
      <trkpt lat="42.715728376060724" lon="1.4486014097929">
        <ele>1042.0899999999999</ele>
        <time>2025-07-14T13:58:21Z</time>
      </trkpt>
      <trkpt lat="42.715845471248031" lon="1.448555812239647">
        <ele>1041.4000000000001</ele>
        <time>2025-07-14T13:58:33Z</time>
      </trkpt>
      <trkpt lat="42.715960638597608" lon="1.448519434779882">
        <ele>1040.25</ele>
        <time>2025-07-14T13:58:45Z</time>
      </trkpt>
      <trkpt lat="42.716062478721142" lon="1.448501665145159">
        <ele>1039.1700000000001</ele>
        <time>2025-07-14T13:58:55Z</time>
      </trkpt>
      <trkpt lat="42.71615669131279" lon="1.448459085077047">
        <ele>1038.27</ele>
        <time>2025-07-14T13:59:04Z</time>
      </trkpt>
      <trkpt lat="42.716241432353854" lon="1.448410889133811">
        <ele>1037.52</ele>
        <time>2025-07-14T13:59:14Z</time>
      </trkpt>
      <trkpt lat="42.716331453993917" lon="1.448381301015616">
        <ele>1036.51</ele>
        <time>2025-07-14T13:59:24Z</time>
      </trkpt>
      <trkpt lat="42.716408316046" lon="1.448291698470712">
        <ele>1035.29</ele>
        <time>2025-07-14T13:59:33Z</time>
      </trkpt>
      <trkpt lat="42.71647822111845" lon="1.448196647688747">
        <ele>1034.4000000000001</ele>
        <time>2025-07-14T13:59:42Z</time>
      </trkpt>
      <trkpt lat="42.716551562771201" lon="1.448192624375224">
        <ele>1033.3099999999999</ele>
        <time>2025-07-14T13:59:54Z</time>
      </trkpt>
      <trkpt lat="42.71652708761394" lon="1.448312653228641">
        <ele>1032.4400000000001</ele>
        <time>2025-07-14T14:00:03Z</time>
      </trkpt>
      <trkpt lat="42.716491464525461" lon="1.448427988216281">
        <ele>1032.02</ele>
        <time>2025-07-14T14:00:12Z</time>
      </trkpt>
      <trkpt lat="42.716452907770872" lon="1.448549861088395">
        <ele>1031.21</ele>
        <time>2025-07-14T14:00:21Z</time>
      </trkpt>
      <trkpt lat="42.716418374329805" lon="1.448669470846653">
        <ele>1030.04</ele>
        <time>2025-07-14T14:00:30Z</time>
      </trkpt>
      <trkpt lat="42.716377638280392" lon="1.448780363425612">
        <ele>1028.98</ele>
        <time>2025-07-14T14:00:38Z</time>
      </trkpt>
      <trkpt lat="42.71636632271111" lon="1.448903661221266">
        <ele>1028.27</ele>
        <time>2025-07-14T14:00:47Z</time>
      </trkpt>
      <trkpt lat="42.716390881687403" lon="1.449036179110408">
        <ele>1027.5699999999999</ele>
        <time>2025-07-14T14:00:56Z</time>
      </trkpt>
      <trkpt lat="42.716428684070706" lon="1.449154783040285">
        <ele>1027.26</ele>
        <time>2025-07-14T14:01:05Z</time>
      </trkpt>
      <trkpt lat="42.716491296887398" lon="1.449276655912399">
        <ele>1026.55</ele>
        <time>2025-07-14T14:01:14Z</time>
      </trkpt>
      <trkpt lat="42.716526836156845" lon="1.449400121346116">
        <ele>1026.1400000000001</ele>
        <time>2025-07-14T14:01:23Z</time>
      </trkpt>
      <trkpt lat="42.716548629105091" lon="1.449529621750116">
        <ele>1025.8800000000001</ele>
        <time>2025-07-14T14:01:32Z</time>
      </trkpt>
      <trkpt lat="42.716559274122119" lon="1.449663229286671">
        <ele>1025.9100000000001</ele>
        <time>2025-07-14T14:01:41Z</time>
      </trkpt>
      <trkpt lat="42.716572433710098" lon="1.449789544567466">
        <ele>1025.4400000000001</ele>
        <time>2025-07-14T14:01:50Z</time>
      </trkpt>
      <trkpt lat="42.716515017673373" lon="1.449865819886327">
        <ele>1026.0999999999999</ele>
        <time>2025-07-14T14:02:01Z</time>
      </trkpt>
    </trkseg>
  </trk>

  <trk>
    <name>3trek-pirenei2025-07-15</name>
    <extensions>
      <gpxx:TrackExtension>
        <gpxx:DisplayColor>Red</gpxx:DisplayColor>
      </gpxx:TrackExtension>
      <gpxtrkx:TrackStatsExtension xmlns:gpxtrkx="http://www.garmin.com/xmlschemas/TrackStatsExtension/v1">
        <gpxtrkx:Distance>8552</gpxtrkx:Distance>
        <gpxtrkx:TotalElapsedTime>19475</gpxtrkx:TotalElapsedTime>
        <gpxtrkx:MovingTime>13612</gpxtrkx:MovingTime>
        <gpxtrkx:StoppedTime>5855</gpxtrkx:StoppedTime>
        <gpxtrkx:MovingSpeed>0.628</gpxtrkx:MovingSpeed>
        <gpxtrkx:MaxSpeed>2.981</gpxtrkx:MaxSpeed>
        <gpxtrkx:MaxElevation>2234.787</gpxtrkx:MaxElevation>
        <gpxtrkx:MinElevation>1016.566</gpxtrkx:MinElevation>
        <gpxtrkx:Ascent>1333</gpxtrkx:Ascent>
        <gpxtrkx:Descent>130.927</gpxtrkx:Descent>
        <gpxtrkx:AvgAscentRate>0.085</gpxtrkx:AvgAscentRate>
        <gpxtrkx:MaxAscentRate>0.819</gpxtrkx:MaxAscentRate>
        <gpxtrkx:AvgDescentRate>0.017</gpxtrkx:AvgDescentRate>
        <gpxtrkx:MaxDescentRate>-0.384</gpxtrkx:MaxDescentRate>
      </gpxtrkx:TrackStatsExtension>
    </extensions>
    <trkseg>
      <trkpt lat="42.716110423207283" lon="1.449833884835243">
        <ele>1031.3</ele>
        <time>2025-07-15T06:27:30Z</time>
      </trkpt>
      <trkpt lat="42.71601595915854" lon="1.449788454920054">
        <ele>1031.8299999999999</ele>
        <time>2025-07-15T06:27:53Z</time>
      </trkpt>
      <trkpt lat="42.715919986367226" lon="1.449739839881659">
        <ele>1032.6199999999999</ele>
        <time>2025-07-15T06:28:22Z</time>
      </trkpt>
      <trkpt lat="42.71592702716589" lon="1.449637915939093">
        <ele>1031.99</ele>
        <time>2025-07-15T06:28:32Z</time>
      </trkpt>
      <trkpt lat="42.716026101261377" lon="1.449656188488007">
        <ele>1029.4000000000001</ele>
        <time>2025-07-15T06:28:42Z</time>
      </trkpt>
      <trkpt lat="42.716120649129152" lon="1.44968468695879">
        <ele>1027.5599999999999</ele>
        <time>2025-07-15T06:28:52Z</time>
      </trkpt>
      <trkpt lat="42.716208910569549" lon="1.449725674465299">
        <ele>1024.4000000000001</ele>
        <time>2025-07-15T06:29:02Z</time>
      </trkpt>
      <trkpt lat="42.716310080140829" lon="1.449760794639587">
        <ele>1022.15</ele>
        <time>2025-07-15T06:29:12Z</time>
      </trkpt>
      <trkpt lat="42.716405130922794" lon="1.449798932299018">
        <ele>1020.24</ele>
        <time>2025-07-15T06:29:22Z</time>
      </trkpt>
      <trkpt lat="42.716491045430303" lon="1.449833130463958">
        <ele>1017.85</ele>
        <time>2025-07-15T06:29:32Z</time>
      </trkpt>
      <trkpt lat="42.716561621055007" lon="1.449780911207199">
        <ele>1017.02</ele>
        <time>2025-07-15T06:29:43Z</time>
      </trkpt>
      <trkpt lat="42.716530691832304" lon="1.449644202366471">
        <ele>1017.39</ele>
        <time>2025-07-15T06:29:52Z</time>
      </trkpt>
      <trkpt lat="42.716521136462688" lon="1.449512271210551">
        <ele>1016.58</ele>
        <time>2025-07-15T06:30:01Z</time>
      </trkpt>
      <trkpt lat="42.716492470353842" lon="1.44938612356782">
        <ele>1016.63</ele>
        <time>2025-07-15T06:30:11Z</time>
      </trkpt>
      <trkpt lat="42.716445531696081" lon="1.44932409748435">
        <ele>1018.08</ele>
        <time>2025-07-15T06:30:38Z</time>
      </trkpt>
      <trkpt lat="42.71647185087204" lon="1.449271375313401">
        <ele>1018.95</ele>
        <time>2025-07-15T06:30:57Z</time>
      </trkpt>
      <trkpt lat="42.71643815562129" lon="1.449100971221924">
        <ele>1020.01</ele>
        <time>2025-07-15T06:31:07Z</time>
      </trkpt>
      <trkpt lat="42.71639758720994" lon="1.449013883247972">
        <ele>1020.15</ele>
        <time>2025-07-15T06:31:15Z</time>
      </trkpt>
      <trkpt lat="42.71636095829308" lon="1.448908103629947">
        <ele>1020.74</ele>
        <time>2025-07-15T06:31:24Z</time>
      </trkpt>
      <trkpt lat="42.716356348246336" lon="1.448787990957499">
        <ele>1020.77</ele>
        <time>2025-07-15T06:31:34Z</time>
      </trkpt>
      <trkpt lat="42.716393731534481" lon="1.448668465018272">
        <ele>1019.84</ele>
        <time>2025-07-15T06:31:45Z</time>
      </trkpt>
      <trkpt lat="42.716444693505764" lon="1.448548100888729">
        <ele>1020.11</ele>
        <time>2025-07-15T06:31:57Z</time>
      </trkpt>
      <trkpt lat="42.716482495889068" lon="1.448418600484729">
        <ele>1022.1799999999999</ele>
        <time>2025-07-15T06:32:07Z</time>
      </trkpt>
      <trkpt lat="42.716519711539149" lon="1.448284909129143">
        <ele>1023.96</ele>
        <time>2025-07-15T06:32:18Z</time>
      </trkpt>
      <trkpt lat="42.716566985473037" lon="1.448161778971553">
        <ele>1024.8900000000001</ele>
        <time>2025-07-15T06:32:29Z</time>
      </trkpt>
      <trkpt lat="42.716612331569195" lon="1.448047114536166">
        <ele>1025.9200000000001</ele>
        <time>2025-07-15T06:32:40Z</time>
      </trkpt>
      <trkpt lat="42.716553490608931" lon="1.447936724871397">
        <ele>1027.53</ele>
        <time>2025-07-15T06:33:00Z</time>
      </trkpt>
      <trkpt lat="42.716544941067696" lon="1.44781275652349">
        <ele>1028.8499999999999</ele>
        <time>2025-07-15T06:33:23Z</time>
      </trkpt>
      <trkpt lat="42.716502696275711" lon="1.447676382958889">
        <ele>1029.52</ele>
        <time>2025-07-15T06:33:44Z</time>
      </trkpt>
      <trkpt lat="42.716462127864361" lon="1.447593988850713">
        <ele>1031.6199999999999</ele>
        <time>2025-07-15T06:34:17Z</time>
      </trkpt>
      <trkpt lat="42.716433377936482" lon="1.447514863684773">
        <ele>1031.72</ele>
        <time>2025-07-15T06:35:04Z</time>
      </trkpt>
      <trkpt lat="42.7163599524647" lon="1.447410173714161">
        <ele>1033.0799999999999</ele>
        <time>2025-07-15T06:35:24Z</time>
      </trkpt>
      <trkpt lat="42.716334806755185" lon="1.447287378832698">
        <ele>1035.3099999999999</ele>
        <time>2025-07-15T06:35:45Z</time>
      </trkpt>
      <trkpt lat="42.716344026848674" lon="1.447137594223023">
        <ele>1037.3299999999999</ele>
        <time>2025-07-15T06:36:06Z</time>
      </trkpt>
      <trkpt lat="42.716319384053349" lon="1.447005830705166">
        <ele>1039.8699999999999</ele>
        <time>2025-07-15T06:36:24Z</time>
      </trkpt>
      <trkpt lat="42.71631695330143" lon="1.446876749396324">
        <ele>1041.8099999999999</ele>
        <time>2025-07-15T06:36:43Z</time>
      </trkpt>
      <trkpt lat="42.716314857825637" lon="1.446740292012692">
        <ele>1043.1199999999999</ele>
        <time>2025-07-15T06:37:02Z</time>
      </trkpt>
      <trkpt lat="42.716315109282732" lon="1.446566032245755">
        <ele>1044.6800000000001</ele>
        <time>2025-07-15T06:37:21Z</time>
      </trkpt>
      <trkpt lat="42.716295579448342" lon="1.446446422487497">
        <ele>1046.21</ele>
        <time>2025-07-15T06:37:37Z</time>
      </trkpt>
      <trkpt lat="42.71630278788507" lon="1.446327567100525">
        <ele>1048.9100000000001</ele>
        <time>2025-07-15T06:37:56Z</time>
      </trkpt>
      <trkpt lat="42.716288371011615" lon="1.446210723370314">
        <ele>1051.3900000000001</ele>
        <time>2025-07-15T06:38:14Z</time>
      </trkpt>
      <trkpt lat="42.716297172009945" lon="1.446026740595698">
        <ele>1053.5</ele>
        <time>2025-07-15T06:38:36Z</time>
      </trkpt>
      <trkpt lat="42.71627102047205" lon="1.445896904915571">
        <ele>1056.1700000000001</ele>
        <time>2025-07-15T06:38:55Z</time>
      </trkpt>
      <trkpt lat="42.716243863105774" lon="1.445743013173342">
        <ele>1057.4400000000001</ele>
        <time>2025-07-15T06:39:11Z</time>
      </trkpt>
      <trkpt lat="42.716245874762535" lon="1.445611249655485">
        <ele>1061.1800000000001</ele>
        <time>2025-07-15T06:39:28Z</time>
      </trkpt>
      <trkpt lat="42.716216705739498" lon="1.44549029879272">
        <ele>1065.6300000000001</ele>
        <time>2025-07-15T06:39:46Z</time>
      </trkpt>
      <trkpt lat="42.716213101521134" lon="1.4453842677176">
        <ele>1070.28</ele>
        <time>2025-07-15T06:40:09Z</time>
      </trkpt>
      <trkpt lat="42.71624369546771" lon="1.445274380967021">
        <ele>1076.9000000000001</ele>
        <time>2025-07-15T06:40:54Z</time>
      </trkpt>
      <trkpt lat="42.716267248615623" lon="1.445209588855505">
        <ele>1079.3499999999999</ele>
        <time>2025-07-15T06:41:04Z</time>
      </trkpt>
      <trkpt lat="42.716328604146838" lon="1.445120321586728">
        <ele>1084.3599999999999</ele>
        <time>2025-07-15T06:41:14Z</time>
      </trkpt>
      <trkpt lat="42.716353163123131" lon="1.445005740970373">
        <ele>1085.8</ele>
        <time>2025-07-15T06:41:24Z</time>
      </trkpt>
      <trkpt lat="42.716381074860692" lon="1.444891495630145">
        <ele>1087.72</ele>
        <time>2025-07-15T06:41:35Z</time>
      </trkpt>
      <trkpt lat="42.716410662978888" lon="1.444763755425811">
        <ele>1091.21</ele>
        <time>2025-07-15T06:41:47Z</time>
      </trkpt>
      <trkpt lat="42.716430360451341" lon="1.444649677723646">
        <ele>1091.8299999999999</ele>
        <time>2025-07-15T06:41:57Z</time>
      </trkpt>
      <trkpt lat="42.716441759839654" lon="1.444518584758043">
        <ele>1092.53</ele>
        <time>2025-07-15T06:42:07Z</time>
      </trkpt>
      <trkpt lat="42.716468079015613" lon="1.444392604753375">
        <ele>1094.49</ele>
        <time>2025-07-15T06:42:17Z</time>
      </trkpt>
      <trkpt lat="42.716488027945161" lon="1.444271486252546">
        <ele>1097.0999999999999</ele>
        <time>2025-07-15T06:42:26Z</time>
      </trkpt>
      <trkpt lat="42.716474616900086" lon="1.444129329174757">
        <ele>1098.9100000000001</ele>
        <time>2025-07-15T06:42:36Z</time>
      </trkpt>
      <trkpt lat="42.716460954397917" lon="1.443991027772427">
        <ele>1099.4400000000001</ele>
        <time>2025-07-15T06:42:46Z</time>
      </trkpt>
      <trkpt lat="42.716461624950171" lon="1.443866807967424">
        <ele>1100.04</ele>
        <time>2025-07-15T06:42:55Z</time>
      </trkpt>
      <trkpt lat="42.716473778709769" lon="1.443795561790466">
        <ele>1098.6500000000001</ele>
        <time>2025-07-15T06:43:10Z</time>
      </trkpt>
      <trkpt lat="42.716473359614611" lon="1.443657176569104">
        <ele>1098.8399999999999</ele>
        <time>2025-07-15T06:43:19Z</time>
      </trkpt>
      <trkpt lat="42.716484172269702" lon="1.443529604002833">
        <ele>1099.1800000000001</ele>
        <time>2025-07-15T06:43:27Z</time>
      </trkpt>
      <trkpt lat="42.716508647426963" lon="1.443395242094994">
        <ele>1098.74</ele>
        <time>2025-07-15T06:43:36Z</time>
      </trkpt>
      <trkpt lat="42.716538403183222" lon="1.443273285403848">
        <ele>1097.8399999999999</ele>
        <time>2025-07-15T06:43:44Z</time>
      </trkpt>
      <trkpt lat="42.716570505872369" lon="1.443153340369463">
        <ele>1097.26</ele>
        <time>2025-07-15T06:43:53Z</time>
      </trkpt>
      <trkpt lat="42.716588946059346" lon="1.44302568398416">
        <ele>1096.53</ele>
        <time>2025-07-15T06:44:03Z</time>
      </trkpt>
      <trkpt lat="42.716591292992234" lon="1.442896602675319">
        <ele>1096.3299999999999</ele>
        <time>2025-07-15T06:44:13Z</time>
      </trkpt>
      <trkpt lat="42.716607805341482" lon="1.44275788217783">
        <ele>1096.3699999999999</ele>
        <time>2025-07-15T06:44:24Z</time>
      </trkpt>
      <trkpt lat="42.716625323519111" lon="1.442628297954798">
        <ele>1093.53</ele>
        <time>2025-07-15T06:44:33Z</time>
      </trkpt>
      <trkpt lat="42.716667735949159" lon="1.442499719560146">
        <ele>1094.8299999999999</ele>
        <time>2025-07-15T06:44:43Z</time>
      </trkpt>
      <trkpt lat="42.71669371984899" lon="1.442369297146797">
        <ele>1095.8299999999999</ele>
        <time>2025-07-15T06:44:52Z</time>
      </trkpt>
      <trkpt lat="42.716723307967186" lon="1.442245999351144">
        <ele>1100.0899999999999</ele>
        <time>2025-07-15T06:45:01Z</time>
      </trkpt>
      <trkpt lat="42.716737892478704" lon="1.442117672413588">
        <ele>1100.77</ele>
        <time>2025-07-15T06:45:10Z</time>
      </trkpt>
      <trkpt lat="42.716756667941809" lon="1.441984651610255">
        <ele>1100.7</ele>
        <time>2025-07-15T06:45:19Z</time>
      </trkpt>
      <trkpt lat="42.716768821701407" lon="1.441859761252999">
        <ele>1100.8800000000001</ele>
        <time>2025-07-15T06:45:28Z</time>
      </trkpt>
      <trkpt lat="42.716780724003911" lon="1.441732104867697">
        <ele>1101.6700000000001</ele>
        <time>2025-07-15T06:45:37Z</time>
      </trkpt>
      <trkpt lat="42.716789273545146" lon="1.441604280844331">
        <ele>1101.77</ele>
        <time>2025-07-15T06:45:47Z</time>
      </trkpt>
      <trkpt lat="42.716812575235963" lon="1.441478133201599">
        <ele>1102</ele>
        <time>2025-07-15T06:45:56Z</time>
      </trkpt>
      <trkpt lat="42.716826824471354" lon="1.441341005265713">
        <ele>1101.46</ele>
        <time>2025-07-15T06:46:05Z</time>
      </trkpt>
      <trkpt lat="42.716822968795896" lon="1.441209157928824">
        <ele>1100.8900000000001</ele>
        <time>2025-07-15T06:46:14Z</time>
      </trkpt>
      <trkpt lat="42.716806121170521" lon="1.441084854304791">
        <ele>1100.04</ele>
        <time>2025-07-15T06:46:23Z</time>
      </trkpt>
      <trkpt lat="42.716801762580872" lon="1.44096365198493">
        <ele>1099.1500000000001</ele>
        <time>2025-07-15T06:46:33Z</time>
      </trkpt>
      <trkpt lat="42.716793715953827" lon="1.440830966457725">
        <ele>1095.76</ele>
        <time>2025-07-15T06:46:44Z</time>
      </trkpt>
      <trkpt lat="42.716782316565514" lon="1.440687803551555">
        <ele>1095.1400000000001</ele>
        <time>2025-07-15T06:46:54Z</time>
      </trkpt>
      <trkpt lat="42.716747364029288" lon="1.440542209893465">
        <ele>1093.8599999999999</ele>
        <time>2025-07-15T06:47:05Z</time>
      </trkpt>
      <trkpt lat="42.716715848073363" lon="1.440410781651735">
        <ele>1093.8</ele>
        <time>2025-07-15T06:47:16Z</time>
      </trkpt>
      <trkpt lat="42.716699419543147" lon="1.440258314833045">
        <ele>1093.3800000000001</ele>
        <time>2025-07-15T06:47:27Z</time>
      </trkpt>
      <trkpt lat="42.716682991012931" lon="1.440122025087476">
        <ele>1095.3499999999999</ele>
        <time>2025-07-15T06:47:37Z</time>
      </trkpt>
      <trkpt lat="42.716672094538808" lon="1.440014652907848">
        <ele>1095.29</ele>
        <time>2025-07-15T06:47:46Z</time>
      </trkpt>
      <trkpt lat="42.716665305197239" lon="1.439876519143581">
        <ele>1095.02</ele>
        <time>2025-07-15T06:47:56Z</time>
      </trkpt>
      <trkpt lat="42.716677375137806" lon="1.439741402864456">
        <ele>1095.3199999999999</ele>
        <time>2025-07-15T06:48:05Z</time>
      </trkpt>
      <trkpt lat="42.716705873608589" lon="1.439617769792676">
        <ele>1095.25</ele>
        <time>2025-07-15T06:48:14Z</time>
      </trkpt>
      <trkpt lat="42.7167415805161" lon="1.439490029588342">
        <ele>1095.25</ele>
        <time>2025-07-15T06:48:24Z</time>
      </trkpt>
      <trkpt lat="42.716761529445648" lon="1.439370168372989">
        <ele>1095.54</ele>
        <time>2025-07-15T06:48:33Z</time>
      </trkpt>
      <trkpt lat="42.716773515567183" lon="1.439231615513563">
        <ele>1096.6700000000001</ele>
        <time>2025-07-15T06:48:43Z</time>
      </trkpt>
      <trkpt lat="42.716757338494062" lon="1.439110999926925">
        <ele>1096.9100000000001</ele>
        <time>2025-07-15T06:49:01Z</time>
      </trkpt>
      <trkpt lat="42.716717189177871" lon="1.438982672989368">
        <ele>1097.96</ele>
        <time>2025-07-15T06:49:17Z</time>
      </trkpt>
      <trkpt lat="42.716675782576203" lon="1.43887278623879">
        <ele>1098.1300000000001</ele>
        <time>2025-07-15T06:49:26Z</time>
      </trkpt>
      <trkpt lat="42.716635297983885" lon="1.438753679394722">
        <ele>1097.77</ele>
        <time>2025-07-15T06:49:36Z</time>
      </trkpt>
      <trkpt lat="42.716587772592902" lon="1.438642535358667">
        <ele>1096.6099999999999</ele>
        <time>2025-07-15T06:49:46Z</time>
      </trkpt>
      <trkpt lat="42.716528261080384" lon="1.438520830124617">
        <ele>1097.5699999999999</ele>
        <time>2025-07-15T06:49:57Z</time>
      </trkpt>
      <trkpt lat="42.716467408463359" lon="1.438408847898245">
        <ele>1098.3</ele>
        <time>2025-07-15T06:50:07Z</time>
      </trkpt>
      <trkpt lat="42.716399682685733" lon="1.438327794894576">
        <ele>1099.49</ele>
        <time>2025-07-15T06:50:16Z</time>
      </trkpt>
      <trkpt lat="42.716329945251346" lon="1.438233330845833">
        <ele>1101.1300000000001</ele>
        <time>2025-07-15T06:50:27Z</time>
      </trkpt>
      <trkpt lat="42.716278731822968" lon="1.43812520429492">
        <ele>1101.51</ele>
        <time>2025-07-15T06:50:37Z</time>
      </trkpt>
      <trkpt lat="42.716218046844006" lon="1.438002660870552">
        <ele>1101.4100000000001</ele>
        <time>2025-07-15T06:50:48Z</time>
      </trkpt>
      <trkpt lat="42.716148225590587" lon="1.437878776341677">
        <ele>1100.47</ele>
        <time>2025-07-15T06:50:58Z</time>
      </trkpt>
      <trkpt lat="42.716084439307451" lon="1.43774650990963">
        <ele>1099.79</ele>
        <time>2025-07-15T06:51:08Z</time>
      </trkpt>
      <trkpt lat="42.716023419052362" lon="1.437628492712975">
        <ele>1099.79</ele>
        <time>2025-07-15T06:51:18Z</time>
      </trkpt>
      <trkpt lat="42.715965667739511" lon="1.437516426667571">
        <ele>1099.98</ele>
        <time>2025-07-15T06:51:28Z</time>
      </trkpt>
      <trkpt lat="42.715909006074071" lon="1.437398577108979">
        <ele>1100.1300000000001</ele>
        <time>2025-07-15T06:51:38Z</time>
      </trkpt>
      <trkpt lat="42.715848488733172" lon="1.437277290970087">
        <ele>1099.8800000000001</ele>
        <time>2025-07-15T06:51:49Z</time>
      </trkpt>
      <trkpt lat="42.715787552297115" lon="1.437168242409825">
        <ele>1100.3499999999999</ele>
        <time>2025-07-15T06:52:00Z</time>
      </trkpt>
      <trkpt lat="42.715722089633346" lon="1.43707268871367">
        <ele>1101.9200000000001</ele>
        <time>2025-07-15T06:52:11Z</time>
      </trkpt>
      <trkpt lat="42.715649586170912" lon="1.436975877732039">
        <ele>1102.0799999999999</ele>
        <time>2025-07-15T06:52:23Z</time>
      </trkpt>
      <trkpt lat="42.715571131557226" lon="1.436895495280623">
        <ele>1102.3099999999999</ele>
        <time>2025-07-15T06:52:35Z</time>
      </trkpt>
      <trkpt lat="42.715487731620669" lon="1.436810167506337">
        <ele>1103.1600000000001</ele>
        <time>2025-07-15T06:52:46Z</time>
      </trkpt>
      <trkpt lat="42.71540223620832" lon="1.436730539426208">
        <ele>1103.8900000000001</ele>
        <time>2025-07-15T06:52:57Z</time>
      </trkpt>
      <trkpt lat="42.715324200689793" lon="1.436655940487981">
        <ele>1103.79</ele>
        <time>2025-07-15T06:53:07Z</time>
      </trkpt>
      <trkpt lat="42.715238789096475" lon="1.436595087870956">
        <ele>1102.8199999999999</ele>
        <time>2025-07-15T06:53:17Z</time>
      </trkpt>
      <trkpt lat="42.715147593989968" lon="1.436544544994831">
        <ele>1101.22</ele>
        <time>2025-07-15T06:53:28Z</time>
      </trkpt>
      <trkpt lat="42.715048184618354" lon="1.436489811167121">
        <ele>1099.8900000000001</ele>
        <time>2025-07-15T06:53:39Z</time>
      </trkpt>
      <trkpt lat="42.714948188513517" lon="1.436427785083652">
        <ele>1099.7</ele>
        <time>2025-07-15T06:53:49Z</time>
      </trkpt>
      <trkpt lat="42.714862441644073" lon="1.436337092891336">
        <ele>1101.7</ele>
        <time>2025-07-15T06:53:58Z</time>
      </trkpt>
      <trkpt lat="42.714782394468784" lon="1.436257967725396">
        <ele>1103.3299999999999</ele>
        <time>2025-07-15T06:54:07Z</time>
      </trkpt>
      <trkpt lat="42.714707041159272" lon="1.436164677143097">
        <ele>1104.8800000000001</ele>
        <time>2025-07-15T06:54:17Z</time>
      </trkpt>
      <trkpt lat="42.714637974277139" lon="1.436076834797859">
        <ele>1105.3299999999999</ele>
        <time>2025-07-15T06:54:26Z</time>
      </trkpt>
      <trkpt lat="42.714568069204688" lon="1.435957476496697">
        <ele>1106.8299999999999</ele>
        <time>2025-07-15T06:54:37Z</time>
      </trkpt>
      <trkpt lat="42.714496655389667" lon="1.435857564210892">
        <ele>1106.8900000000001</ele>
        <time>2025-07-15T06:54:47Z</time>
      </trkpt>
      <trkpt lat="42.714428175240755" lon="1.435752538964152">
        <ele>1106.3299999999999</ele>
        <time>2025-07-15T06:54:57Z</time>
      </trkpt>
      <trkpt lat="42.714356761425734" lon="1.43565128557384">
        <ele>1107.26</ele>
        <time>2025-07-15T06:55:07Z</time>
      </trkpt>
      <trkpt lat="42.714283419772983" lon="1.435558665543795">
        <ele>1107.99</ele>
        <time>2025-07-15T06:55:17Z</time>
      </trkpt>
      <trkpt lat="42.714217621833086" lon="1.435470739379525">
        <ele>1107.6400000000001</ele>
        <time>2025-07-15T06:55:26Z</time>
      </trkpt>
      <trkpt lat="42.714142603799701" lon="1.435372419655323">
        <ele>1108.4300000000001</ele>
        <time>2025-07-15T06:55:36Z</time>
      </trkpt>
      <trkpt lat="42.714071860536933" lon="1.4352838229388">
        <ele>1110.3399999999999</ele>
        <time>2025-07-15T06:55:45Z</time>
      </trkpt>
      <trkpt lat="42.714010924100876" lon="1.435192879289389">
        <ele>1111.1700000000001</ele>
        <time>2025-07-15T06:55:54Z</time>
      </trkpt>
      <trkpt lat="42.713938588276505" lon="1.435103444382548">
        <ele>1112.7</ele>
        <time>2025-07-15T06:56:04Z</time>
      </trkpt>
      <trkpt lat="42.713875137269497" lon="1.435017613694072">
        <ele>1113.3099999999999</ele>
        <time>2025-07-15T06:56:13Z</time>
      </trkpt>
      <trkpt lat="42.713805064558983" lon="1.434919713065028">
        <ele>1113.76</ele>
        <time>2025-07-15T06:56:23Z</time>
      </trkpt>
      <trkpt lat="42.71372870542109" lon="1.434831451624632">
        <ele>1114.28</ele>
        <time>2025-07-15T06:56:33Z</time>
      </trkpt>
      <trkpt lat="42.713654190301895" lon="1.434743776917458">
        <ele>1114.24</ele>
        <time>2025-07-15T06:56:43Z</time>
      </trkpt>
      <trkpt lat="42.713608425110579" lon="1.434640595689416">
        <ele>1114.45</ele>
        <time>2025-07-15T06:56:52Z</time>
      </trkpt>
      <trkpt lat="42.713606497272849" lon="1.43451277166605">
        <ele>1115.4000000000001</ele>
        <time>2025-07-15T06:57:01Z</time>
      </trkpt>
      <trkpt lat="42.713607251644135" lon="1.434385366737843">
        <ele>1115.72</ele>
        <time>2025-07-15T06:57:10Z</time>
      </trkpt>
      <trkpt lat="42.713576070964336" lon="1.434261230751872">
        <ele>1115.55</ele>
        <time>2025-07-15T06:57:21Z</time>
      </trkpt>
      <trkpt lat="42.713522091507912" lon="1.434148494154215">
        <ele>1116.8499999999999</ele>
        <time>2025-07-15T06:57:31Z</time>
      </trkpt>
      <trkpt lat="42.713459897786379" lon="1.434051180258393">
        <ele>1118.54</ele>
        <time>2025-07-15T06:57:41Z</time>
      </trkpt>
      <trkpt lat="42.713400218635798" lon="1.433946741744876">
        <ele>1119.25</ele>
        <time>2025-07-15T06:57:51Z</time>
      </trkpt>
      <trkpt lat="42.713345820084214" lon="1.433838028460741">
        <ele>1119.6199999999999</ele>
        <time>2025-07-15T06:58:02Z</time>
      </trkpt>
      <trkpt lat="42.713289074599743" lon="1.433728979900479">
        <ele>1120.1800000000001</ele>
        <time>2025-07-15T06:58:13Z</time>
      </trkpt>
      <trkpt lat="42.71323568187654" lon="1.433613896369934">
        <ele>1121.4300000000001</ele>
        <time>2025-07-15T06:58:24Z</time>
      </trkpt>
      <trkpt lat="42.713199052959681" lon="1.433499231934547">
        <ele>1121.3900000000001</ele>
        <time>2025-07-15T06:58:34Z</time>
      </trkpt>
      <trkpt lat="42.713169800117612" lon="1.433373503386974">
        <ele>1121.8199999999999</ele>
        <time>2025-07-15T06:58:44Z</time>
      </trkpt>
      <trkpt lat="42.713158819824457" lon="1.433237884193659">
        <ele>1122.0999999999999</ele>
        <time>2025-07-15T06:58:54Z</time>
      </trkpt>
      <trkpt lat="42.713142223656178" lon="1.433107377961278">
        <ele>1122.5999999999999</ele>
        <time>2025-07-15T06:59:03Z</time>
      </trkpt>
      <trkpt lat="42.713133590295911" lon="1.432966142892838">
        <ele>1122.9400000000001</ele>
        <time>2025-07-15T06:59:13Z</time>
      </trkpt>
      <trkpt lat="42.713126633316278" lon="1.432836726307869">
        <ele>1123</ele>
        <time>2025-07-15T06:59:22Z</time>
      </trkpt>
      <trkpt lat="42.713119257241488" lon="1.432702029123902">
        <ele>1123.3699999999999</ele>
        <time>2025-07-15T06:59:31Z</time>
      </trkpt>
      <trkpt lat="42.713110540062189" lon="1.432569092139602">
        <ele>1124.0699999999999</ele>
        <time>2025-07-15T06:59:40Z</time>
      </trkpt>
      <trkpt lat="42.713093021884561" lon="1.432436322793365">
        <ele>1123.8299999999999</ele>
        <time>2025-07-15T06:59:50Z</time>
      </trkpt>
      <trkpt lat="42.713070558384061" lon="1.432301793247461">
        <ele>1121.9100000000001</ele>
        <time>2025-07-15T07:00:01Z</time>
      </trkpt>
      <trkpt lat="42.713044406846166" lon="1.432156367227435">
        <ele>1119.4100000000001</ele>
        <time>2025-07-15T07:00:12Z</time>
      </trkpt>
      <trkpt lat="42.71301238797605" lon="1.432028291746974">
        <ele>1117.6300000000001</ele>
        <time>2025-07-15T07:00:22Z</time>
      </trkpt>
      <trkpt lat="42.712957402691245" lon="1.431898036971688">
        <ele>1115.6900000000001</ele>
        <time>2025-07-15T07:00:33Z</time>
      </trkpt>
      <trkpt lat="42.712889425456524" lon="1.431781612336636">
        <ele>1116.3599999999999</ele>
        <time>2025-07-15T07:00:43Z</time>
      </trkpt>
      <trkpt lat="42.712821699678898" lon="1.431673401966691">
        <ele>1116.5</ele>
        <time>2025-07-15T07:00:54Z</time>
      </trkpt>
      <trkpt lat="42.712744083255529" lon="1.43157172948122">
        <ele>1115.6800000000001</ele>
        <time>2025-07-15T07:01:05Z</time>
      </trkpt>
      <trkpt lat="42.712677363306284" lon="1.431460417807102">
        <ele>1115.9200000000001</ele>
        <time>2025-07-15T07:01:15Z</time>
      </trkpt>
      <trkpt lat="42.712613074108958" lon="1.431351872161031">
        <ele>1117.1300000000001</ele>
        <time>2025-07-15T07:01:24Z</time>
      </trkpt>
      <trkpt lat="42.71253889426589" lon="1.431216169148684">
        <ele>1120.73</ele>
        <time>2025-07-15T07:01:34Z</time>
      </trkpt>
      <trkpt lat="42.71246706135571" lon="1.431128829717636">
        <ele>1124.8699999999999</ele>
        <time>2025-07-15T07:01:43Z</time>
      </trkpt>
      <trkpt lat="42.712379051372409" lon="1.431066384539008">
        <ele>1127.6300000000001</ele>
        <time>2025-07-15T07:01:53Z</time>
      </trkpt>
      <trkpt lat="42.712295232340693" lon="1.431009639054537">
        <ele>1129.6800000000001</ele>
        <time>2025-07-15T07:02:03Z</time>
      </trkpt>
      <trkpt lat="42.712200013920665" lon="1.430976195260882">
        <ele>1130.23</ele>
        <time>2025-07-15T07:02:14Z</time>
      </trkpt>
      <trkpt lat="42.712102616205812" lon="1.430917019024491">
        <ele>1129.1700000000001</ele>
        <time>2025-07-15T07:02:25Z</time>
      </trkpt>
      <trkpt lat="42.712021814659238" lon="1.430829595774412">
        <ele>1128.4000000000001</ele>
        <time>2025-07-15T07:02:35Z</time>
      </trkpt>
      <trkpt lat="42.711948389187455" lon="1.430746363475919">
        <ele>1126.6300000000001</ele>
        <time>2025-07-15T07:02:46Z</time>
      </trkpt>
      <trkpt lat="42.711861887946725" lon="1.430637650191784">
        <ele>1124.72</ele>
        <time>2025-07-15T07:02:59Z</time>
      </trkpt>
      <trkpt lat="42.711768345907331" lon="1.43052700906992">
        <ele>1123.04</ele>
        <time>2025-07-15T07:03:11Z</time>
      </trkpt>
      <trkpt lat="42.711691483855247" lon="1.430424498394132">
        <ele>1121.98</ele>
        <time>2025-07-15T07:03:22Z</time>
      </trkpt>
      <trkpt lat="42.711603390052915" lon="1.430321400985122">
        <ele>1122.4000000000001</ele>
        <time>2025-07-15T07:03:33Z</time>
      </trkpt>
      <trkpt lat="42.711533149704337" lon="1.430212687700987">
        <ele>1122.5799999999999</ele>
        <time>2025-07-15T07:03:44Z</time>
      </trkpt>
      <trkpt lat="42.711463747546077" lon="1.430111099034548">
        <ele>1124.3199999999999</ele>
        <time>2025-07-15T07:03:57Z</time>
      </trkpt>
      <trkpt lat="42.711413539946079" lon="1.429987465962768">
        <ele>1124.5</ele>
        <time>2025-07-15T07:04:08Z</time>
      </trkpt>
      <trkpt lat="42.711393423378468" lon="1.429866766557097">
        <ele>1127.0599999999999</ele>
        <time>2025-07-15T07:04:21Z</time>
      </trkpt>
      <trkpt lat="42.711354363709688" lon="1.429715473204851">
        <ele>1129.1700000000001</ele>
        <time>2025-07-15T07:04:31Z</time>
      </trkpt>
      <trkpt lat="42.711317399516702" lon="1.429587062448263">
        <ele>1130.0999999999999</ele>
        <time>2025-07-15T07:04:41Z</time>
      </trkpt>
      <trkpt lat="42.711280938237906" lon="1.429459825158119">
        <ele>1132.1700000000001</ele>
        <time>2025-07-15T07:04:50Z</time>
      </trkpt>
      <trkpt lat="42.711235340684652" lon="1.429326888173819">
        <ele>1134.26</ele>
        <time>2025-07-15T07:05:00Z</time>
      </trkpt>
      <trkpt lat="42.711193179711699" lon="1.429208870977163">
        <ele>1135.6199999999999</ele>
        <time>2025-07-15T07:05:10Z</time>
      </trkpt>
      <trkpt lat="42.711152862757444" lon="1.429081633687019">
        <ele>1137.26</ele>
        <time>2025-07-15T07:05:20Z</time>
      </trkpt>
      <trkpt lat="42.711109193041921" lon="1.42895121127367">
        <ele>1138.48</ele>
        <time>2025-07-15T07:05:30Z</time>
      </trkpt>
      <trkpt lat="42.7110705524683" lon="1.428825315088034">
        <ele>1138.98</ele>
        <time>2025-07-15T07:05:40Z</time>
      </trkpt>
      <trkpt lat="42.711031995713711" lon="1.428705789148808">
        <ele>1139.54</ele>
        <time>2025-07-15T07:05:50Z</time>
      </trkpt>
      <trkpt lat="42.710991511121392" lon="1.428581401705742">
        <ele>1140.5799999999999</ele>
        <time>2025-07-15T07:06:00Z</time>
      </trkpt>
      <trkpt lat="42.710948679596186" lon="1.42846112139523">
        <ele>1141.3599999999999</ele>
        <time>2025-07-15T07:06:10Z</time>
      </trkpt>
      <trkpt lat="42.71091272123158" lon="1.428328352048993">
        <ele>1141.7</ele>
        <time>2025-07-15T07:06:22Z</time>
      </trkpt>
      <trkpt lat="42.710866956040263" lon="1.428208323195577">
        <ele>1141.75</ele>
        <time>2025-07-15T07:06:34Z</time>
      </trkpt>
      <trkpt lat="42.710831332951784" lon="1.428057448938489">
        <ele>1141.4000000000001</ele>
        <time>2025-07-15T07:06:45Z</time>
      </trkpt>
      <trkpt lat="42.710807276889682" lon="1.427913531661034">
        <ele>1139.9400000000001</ele>
        <time>2025-07-15T07:06:57Z</time>
      </trkpt>
      <trkpt lat="42.710785148665309" lon="1.427775481715798">
        <ele>1140.1800000000001</ele>
        <time>2025-07-15T07:07:09Z</time>
      </trkpt>
      <trkpt lat="42.710759667679667" lon="1.427654447034001">
        <ele>1141.6600000000001</ele>
        <time>2025-07-15T07:07:20Z</time>
      </trkpt>
      <trkpt lat="42.710738042369485" lon="1.427546655759215">
        <ele>1143.8099999999999</ele>
        <time>2025-07-15T07:07:31Z</time>
      </trkpt>
      <trkpt lat="42.710704514756799" lon="1.427410617470741">
        <ele>1145.5</ele>
        <time>2025-07-15T07:07:42Z</time>
      </trkpt>
      <trkpt lat="42.710687834769487" lon="1.427285308018327">
        <ele>1147.5799999999999</ele>
        <time>2025-07-15T07:07:52Z</time>
      </trkpt>
      <trkpt lat="42.710684146732092" lon="1.427150778472424">
        <ele>1149.73</ele>
        <time>2025-07-15T07:08:03Z</time>
      </trkpt>
      <trkpt lat="42.710672914981842" lon="1.427018009126186">
        <ele>1150.9200000000001</ele>
        <time>2025-07-15T07:08:14Z</time>
      </trkpt>
      <trkpt lat="42.7106630243361" lon="1.426880713552237">
        <ele>1153.97</ele>
        <time>2025-07-15T07:08:28Z</time>
      </trkpt>
      <trkpt lat="42.710645422339439" lon="1.426740400493145">
        <ele>1155.79</ele>
        <time>2025-07-15T07:08:44Z</time>
      </trkpt>
      <trkpt lat="42.710630167275667" lon="1.426602602005005">
        <ele>1156.52</ele>
        <time>2025-07-15T07:08:55Z</time>
      </trkpt>
      <trkpt lat="42.710615834221244" lon="1.426468910649419">
        <ele>1157.4300000000001</ele>
        <time>2025-07-15T07:09:06Z</time>
      </trkpt>
      <trkpt lat="42.710603093728423" lon="1.426339242607355">
        <ele>1158.26</ele>
        <time>2025-07-15T07:09:16Z</time>
      </trkpt>
      <trkpt lat="42.710582725703716" lon="1.426208652555943">
        <ele>1158.5899999999999</ele>
        <time>2025-07-15T07:09:26Z</time>
      </trkpt>
      <trkpt lat="42.710567554458976" lon="1.426077894866467">
        <ele>1157.98</ele>
        <time>2025-07-15T07:09:36Z</time>
      </trkpt>
      <trkpt lat="42.710545258596539" lon="1.425945041701198">
        <ele>1155.5799999999999</ele>
        <time>2025-07-15T07:09:46Z</time>
      </trkpt>
      <trkpt lat="42.710536206141114" lon="1.425815625116229">
        <ele>1153.29</ele>
        <time>2025-07-15T07:09:57Z</time>
      </trkpt>
      <trkpt lat="42.710518017411232" lon="1.425684029236436">
        <ele>1150.9300000000001</ele>
        <time>2025-07-15T07:10:08Z</time>
      </trkpt>
      <trkpt lat="42.710487004369497" lon="1.425542375072837">
        <ele>1148.8099999999999</ele>
        <time>2025-07-15T07:10:20Z</time>
      </trkpt>
      <trkpt lat="42.71044802851975" lon="1.425412455573678">
        <ele>1146.8</ele>
        <time>2025-07-15T07:10:32Z</time>
      </trkpt>
      <trkpt lat="42.710369909182191" lon="1.425284296274185">
        <ele>1146.9000000000001</ele>
        <time>2025-07-15T07:10:45Z</time>
      </trkpt>
      <trkpt lat="42.710305536165833" lon="1.425165943801403">
        <ele>1149.8800000000001</ele>
        <time>2025-07-15T07:10:56Z</time>
      </trkpt>
      <trkpt lat="42.710255160927773" lon="1.425036275759339">
        <ele>1154.2</ele>
        <time>2025-07-15T07:11:07Z</time>
      </trkpt>
      <trkpt lat="42.710202941671014" lon="1.424912139773369">
        <ele>1157.6400000000001</ele>
        <time>2025-07-15T07:11:17Z</time>
      </trkpt>
      <trkpt lat="42.710143094882369" lon="1.424812562763691">
        <ele>1161.9200000000001</ele>
        <time>2025-07-15T07:11:32Z</time>
      </trkpt>
      <trkpt lat="42.710089702159166" lon="1.424691276624799">
        <ele>1172.48</ele>
        <time>2025-07-15T07:12:28Z</time>
      </trkpt>
      <trkpt lat="42.710051229223609" lon="1.424553478136659">
        <ele>1171.79</ele>
        <time>2025-07-15T07:12:39Z</time>
      </trkpt>
      <trkpt lat="42.710025580599904" lon="1.42442406155169">
        <ele>1169.3299999999999</ele>
        <time>2025-07-15T07:12:50Z</time>
      </trkpt>
      <trkpt lat="42.709977049380541" lon="1.424260446801782">
        <ele>1166.01</ele>
        <time>2025-07-15T07:13:03Z</time>
      </trkpt>
      <trkpt lat="42.709933547303081" lon="1.424117367714644">
        <ele>1163.01</ele>
        <time>2025-07-15T07:13:14Z</time>
      </trkpt>
      <trkpt lat="42.709882669150829" lon="1.423963056877255">
        <ele>1160.53</ele>
        <time>2025-07-15T07:13:25Z</time>
      </trkpt>
      <trkpt lat="42.709844699129462" lon="1.423828108236194">
        <ele>1160.26</ele>
        <time>2025-07-15T07:13:34Z</time>
      </trkpt>
      <trkpt lat="42.709821229800582" lon="1.423686118796468">
        <ele>1160.52</ele>
        <time>2025-07-15T07:13:44Z</time>
      </trkpt>
      <trkpt lat="42.70977764390409" lon="1.423535998910666">
        <ele>1159.97</ele>
        <time>2025-07-15T07:13:58Z</time>
      </trkpt>
      <trkpt lat="42.709715282544494" lon="1.423407001420856">
        <ele>1159.8</ele>
        <time>2025-07-15T07:14:09Z</time>
      </trkpt>
      <trkpt lat="42.70967504940927" lon="1.423275740817189">
        <ele>1159.4000000000001</ele>
        <time>2025-07-15T07:14:20Z</time>
      </trkpt>
      <trkpt lat="42.709624087437987" lon="1.423131069168448">
        <ele>1158.4200000000001</ele>
        <time>2025-07-15T07:14:31Z</time>
      </trkpt>
      <trkpt lat="42.709607994183898" lon="1.422990169376135">
        <ele>1158.77</ele>
        <time>2025-07-15T07:14:42Z</time>
      </trkpt>
      <trkpt lat="42.709592906758189" lon="1.422834685072303">
        <ele>1158.3399999999999</ele>
        <time>2025-07-15T07:14:52Z</time>
      </trkpt>
      <trkpt lat="42.709584776312113" lon="1.422691522166133">
        <ele>1158.21</ele>
        <time>2025-07-15T07:15:03Z</time>
      </trkpt>
      <trkpt lat="42.709583519026637" lon="1.422538887709379">
        <ele>1156.1800000000001</ele>
        <time>2025-07-15T07:15:16Z</time>
      </trkpt>
      <trkpt lat="42.709546303376555" lon="1.422403352335095">
        <ele>1155.74</ele>
        <time>2025-07-15T07:15:26Z</time>
      </trkpt>
      <trkpt lat="42.709510512650013" lon="1.422268068417907">
        <ele>1155.05</ele>
        <time>2025-07-15T07:15:36Z</time>
      </trkpt>
      <trkpt lat="42.709503723308444" lon="1.422128174453974">
        <ele>1157.4400000000001</ele>
        <time>2025-07-15T07:15:45Z</time>
      </trkpt>
      <trkpt lat="42.709534987807274" lon="1.421990543603897">
        <ele>1160.74</ele>
        <time>2025-07-15T07:15:55Z</time>
      </trkpt>
      <trkpt lat="42.709498694166541" lon="1.421842938289046">
        <ele>1160</ele>
        <time>2025-07-15T07:16:07Z</time>
      </trkpt>
      <trkpt lat="42.709444127976894" lon="1.421703714877367">
        <ele>1161.96</ele>
        <time>2025-07-15T07:16:18Z</time>
      </trkpt>
      <trkpt lat="42.709411773830652" lon="1.421587625518441">
        <ele>1166.3099999999999</ele>
        <time>2025-07-15T07:16:44Z</time>
      </trkpt>
      <trkpt lat="42.709374977275729" lon="1.42143851146102">
        <ele>1168</ele>
        <time>2025-07-15T07:17:04Z</time>
      </trkpt>
      <trkpt lat="42.709343377500772" lon="1.421260228380561">
        <ele>1171.1800000000001</ele>
        <time>2025-07-15T07:17:25Z</time>
      </trkpt>
      <trkpt lat="42.709323931485415" lon="1.421131314709783">
        <ele>1173.7</ele>
        <time>2025-07-15T07:17:49Z</time>
      </trkpt>
      <trkpt lat="42.70930415019393" lon="1.421025702729821">
        <ele>1175.25</ele>
        <time>2025-07-15T07:18:12Z</time>
      </trkpt>
      <trkpt lat="42.709306580945849" lon="1.420887568965554">
        <ele>1177.4300000000001</ele>
        <time>2025-07-15T07:18:39Z</time>
      </trkpt>
      <trkpt lat="42.709251428022981" lon="1.420754212886095">
        <ele>1180.95</ele>
        <time>2025-07-15T07:19:12Z</time>
      </trkpt>
      <trkpt lat="42.709190994501114" lon="1.420627562329173">
        <ele>1182.96</ele>
        <time>2025-07-15T07:19:28Z</time>
      </trkpt>
      <trkpt lat="42.709173560142517" lon="1.420475263148546">
        <ele>1183.8699999999999</ele>
        <time>2025-07-15T07:19:41Z</time>
      </trkpt>
      <trkpt lat="42.709185043349862" lon="1.420303601771593">
        <ele>1184.0799999999999</ele>
        <time>2025-07-15T07:19:53Z</time>
      </trkpt>
      <trkpt lat="42.709209518507123" lon="1.42014023847878">
        <ele>1183.55</ele>
        <time>2025-07-15T07:20:05Z</time>
      </trkpt>
      <trkpt lat="42.709219492971897" lon="1.419966565445066">
        <ele>1183.1800000000001</ele>
        <time>2025-07-15T07:20:18Z</time>
      </trkpt>
      <trkpt lat="42.709264671429992" lon="1.419832203537226">
        <ele>1181.74</ele>
        <time>2025-07-15T07:20:36Z</time>
      </trkpt>
      <trkpt lat="42.709312532097101" lon="1.419667415320873">
        <ele>1181.9300000000001</ele>
        <time>2025-07-15T07:20:53Z</time>
      </trkpt>
      <trkpt lat="42.709372714161873" lon="1.419540848582983">
        <ele>1179.8800000000001</ele>
        <time>2025-07-15T07:21:10Z</time>
      </trkpt>
      <trkpt lat="42.709407918155193" lon="1.419357536360622">
        <ele>1180.29</ele>
        <time>2025-07-15T07:21:27Z</time>
      </trkpt>
      <trkpt lat="42.709427867084742" lon="1.419177995994687">
        <ele>1180.23</ele>
        <time>2025-07-15T07:21:40Z</time>
      </trkpt>
      <trkpt lat="42.709434404969215" lon="1.419032234698534">
        <ele>1180.5999999999999</ele>
        <time>2025-07-15T07:21:51Z</time>
      </trkpt>
      <trkpt lat="42.709409510716796" lon="1.418912876397371">
        <ele>1179.7</ele>
        <time>2025-07-15T07:22:03Z</time>
      </trkpt>
      <trkpt lat="42.7093471493572" lon="1.418768037110567">
        <ele>1178.9400000000001</ele>
        <time>2025-07-15T07:22:15Z</time>
      </trkpt>
      <trkpt lat="42.70933298394084" lon="1.418639626353979">
        <ele>1179.72</ele>
        <time>2025-07-15T07:22:24Z</time>
      </trkpt>
      <trkpt lat="42.709338935092092" lon="1.418489422649145">
        <ele>1183.76</ele>
        <time>2025-07-15T07:22:36Z</time>
      </trkpt>
      <trkpt lat="42.70931538194418" lon="1.4183484390378">
        <ele>1190.1800000000001</ele>
        <time>2025-07-15T07:22:53Z</time>
      </trkpt>
      <trkpt lat="42.709284201264381" lon="1.418219776824117">
        <ele>1192.9000000000001</ele>
        <time>2025-07-15T07:23:07Z</time>
      </trkpt>
      <trkpt lat="42.709263497963548" lon="1.418083989992738">
        <ele>1194.25</ele>
        <time>2025-07-15T07:23:18Z</time>
      </trkpt>
      <trkpt lat="42.709275903180242" lon="1.417953567579389">
        <ele>1196.0999999999999</ele>
        <time>2025-07-15T07:23:31Z</time>
      </trkpt>
      <trkpt lat="42.709272298961878" lon="1.417822893708944">
        <ele>1197.49</ele>
        <time>2025-07-15T07:23:44Z</time>
      </trkpt>
      <trkpt lat="42.709213206544518" lon="1.417702613398433">
        <ele>1198.75</ele>
        <time>2025-07-15T07:24:02Z</time>
      </trkpt>
      <trkpt lat="42.709160735830665" lon="1.417580656707287">
        <ele>1200.3299999999999</ele>
        <time>2025-07-15T07:24:20Z</time>
      </trkpt>
      <trkpt lat="42.70916149020195" lon="1.417436236515641">
        <ele>1200.97</ele>
        <time>2025-07-15T07:24:32Z</time>
      </trkpt>
      <trkpt lat="42.709117066115141" lon="1.41731696203351">
        <ele>1200.73</ele>
        <time>2025-07-15T07:24:45Z</time>
      </trkpt>
      <trkpt lat="42.709041712805629" lon="1.417199783027172">
        <ele>1203.1600000000001</ele>
        <time>2025-07-15T07:25:03Z</time>
      </trkpt>
      <trkpt lat="42.70900072529912" lon="1.417060391977429">
        <ele>1204.98</ele>
        <time>2025-07-15T07:25:21Z</time>
      </trkpt>
      <trkpt lat="42.708997456356883" lon="1.4168840367347">
        <ele>1204.5</ele>
        <time>2025-07-15T07:25:41Z</time>
      </trkpt>
      <trkpt lat="42.708995444700122" lon="1.416734419763088">
        <ele>1204.1099999999999</ele>
        <time>2025-07-15T07:25:56Z</time>
      </trkpt>
      <trkpt lat="42.708956385031343" lon="1.416596872732043">
        <ele>1204.3599999999999</ele>
        <time>2025-07-15T07:26:07Z</time>
      </trkpt>
      <trkpt lat="42.708911960944533" lon="1.416458990424871">
        <ele>1205.0599999999999</ele>
        <time>2025-07-15T07:26:23Z</time>
      </trkpt>
      <trkpt lat="42.708873236551881" lon="1.416334686800838">
        <ele>1207.4000000000001</ele>
        <time>2025-07-15T07:26:43Z</time>
      </trkpt>
      <trkpt lat="42.708874493837357" lon="1.416188003495336">
        <ele>1207.5799999999999</ele>
        <time>2025-07-15T07:26:59Z</time>
      </trkpt>
      <trkpt lat="42.708858735859394" lon="1.416057161986828">
        <ele>1208.3199999999999</ele>
        <time>2025-07-15T07:27:19Z</time>
      </trkpt>
      <trkpt lat="42.708835182711482" lon="1.415912825614214">
        <ele>1209.1199999999999</ele>
        <time>2025-07-15T07:27:34Z</time>
      </trkpt>
      <trkpt lat="42.708850856870413" lon="1.41576798632741">
        <ele>1209.8800000000001</ele>
        <time>2025-07-15T07:27:49Z</time>
      </trkpt>
      <trkpt lat="42.708881115540862" lon="1.415630858391523">
        <ele>1211.6500000000001</ele>
        <time>2025-07-15T07:28:06Z</time>
      </trkpt>
      <trkpt lat="42.708935597911477" lon="1.415500938892365">
        <ele>1212.97</ele>
        <time>2025-07-15T07:28:25Z</time>
      </trkpt>
      <trkpt lat="42.708950433880091" lon="1.415374791249633">
        <ele>1215.54</ele>
        <time>2025-07-15T07:28:48Z</time>
      </trkpt>
      <trkpt lat="42.708918331190944" lon="1.415286110714078">
        <ele>1220.4100000000001</ele>
        <time>2025-07-15T07:29:17Z</time>
      </trkpt>
      <trkpt lat="42.70895722322166" lon="1.415320057421923">
        <ele>1236.29</ele>
        <time>2025-07-15T07:31:51Z</time>
      </trkpt>
      <trkpt lat="42.70892696455121" lon="1.415304215624929">
        <ele>1236.28</ele>
        <time>2025-07-15T07:32:36Z</time>
      </trkpt>
      <trkpt lat="42.7089240308851" lon="1.415272699669004">
        <ele>1237.55</ele>
        <time>2025-07-15T07:33:48Z</time>
      </trkpt>
      <trkpt lat="42.708850186318159" lon="1.415283596143127">
        <ele>1238.5699999999999</ele>
        <time>2025-07-15T07:34:29Z</time>
      </trkpt>
      <trkpt lat="42.708756644278765" lon="1.415266413241625">
        <ele>1239.6500000000001</ele>
        <time>2025-07-15T07:34:53Z</time>
      </trkpt>
      <trkpt lat="42.708669221028686" lon="1.415282255038619">
        <ele>1241.0599999999999</ele>
        <time>2025-07-15T07:35:15Z</time>
      </trkpt>
      <trkpt lat="42.708592778071761" lon="1.415330283343792">
        <ele>1242.9400000000001</ele>
        <time>2025-07-15T07:35:44Z</time>
      </trkpt>
      <trkpt lat="42.708491524681449" lon="1.415313519537449">
        <ele>1244.6300000000001</ele>
        <time>2025-07-15T07:36:25Z</time>
      </trkpt>
      <trkpt lat="42.708381470292807" lon="1.415310669690371">
        <ele>1246.3099999999999</ele>
        <time>2025-07-15T07:36:48Z</time>
      </trkpt>
      <trkpt lat="42.70833570510149" lon="1.41540052369237">
        <ele>1250.28</ele>
        <time>2025-07-15T07:37:14Z</time>
      </trkpt>
      <trkpt lat="42.708334196358919" lon="1.41554712317884">
        <ele>1252.6900000000001</ele>
        <time>2025-07-15T07:37:35Z</time>
      </trkpt>
      <trkpt lat="42.70829614251852" lon="1.415643431246281">
        <ele>1254.8699999999999</ele>
        <time>2025-07-15T07:38:00Z</time>
      </trkpt>
      <trkpt lat="42.708226656541228" lon="1.415699422359467">
        <ele>1257.01</ele>
        <time>2025-07-15T07:38:21Z</time>
      </trkpt>
      <trkpt lat="42.708143508061767" lon="1.415763208642602">
        <ele>1259.6500000000001</ele>
        <time>2025-07-15T07:38:45Z</time>
      </trkpt>
      <trkpt lat="42.708126408979297" lon="1.415812578052282">
        <ele>1262.21</ele>
        <time>2025-07-15T07:39:08Z</time>
      </trkpt>
      <trkpt lat="42.708075447008014" lon="1.415878040716052">
        <ele>1265.01</ele>
        <time>2025-07-15T07:39:36Z</time>
      </trkpt>
      <trkpt lat="42.708032112568617" lon="1.41596982255578">
        <ele>1268.54</ele>
        <time>2025-07-15T07:40:05Z</time>
      </trkpt>
      <trkpt lat="42.707967069000006" lon="1.41600351780653">
        <ele>1271.4400000000001</ele>
        <time>2025-07-15T07:40:33Z</time>
      </trkpt>
      <trkpt lat="42.707904959097505" lon="1.416057329624891">
        <ele>1276.0599999999999</ele>
        <time>2025-07-15T07:41:01Z</time>
      </trkpt>
      <trkpt lat="42.707834467291832" lon="1.416054228320718">
        <ele>1279.75</ele>
        <time>2025-07-15T07:41:28Z</time>
      </trkpt>
      <trkpt lat="42.707757605239749" lon="1.416087672114372">
        <ele>1283.26</ele>
        <time>2025-07-15T07:41:54Z</time>
      </trkpt>
      <trkpt lat="42.707734052091837" lon="1.416162773966789">
        <ele>1286.01</ele>
        <time>2025-07-15T07:42:11Z</time>
      </trkpt>
      <trkpt lat="42.70765014924109" lon="1.41624927520752">
        <ele>1289.46</ele>
        <time>2025-07-15T07:42:34Z</time>
      </trkpt>
      <trkpt lat="42.707588206976652" lon="1.416318761184812">
        <ele>1291.5999999999999</ele>
        <time>2025-07-15T07:42:59Z</time>
      </trkpt>
      <trkpt lat="42.707525677978992" lon="1.416363604366779">
        <ele>1292.97</ele>
        <time>2025-07-15T07:43:21Z</time>
      </trkpt>
      <trkpt lat="42.707451079040766" lon="1.416401909664273">
        <ele>1294.6400000000001</ele>
        <time>2025-07-15T07:43:46Z</time>
      </trkpt>
      <trkpt lat="42.707393411546946" lon="1.41645597293973">
        <ele>1297.75</ele>
        <time>2025-07-15T07:44:11Z</time>
      </trkpt>
      <trkpt lat="42.707323003560305" lon="1.416585138067603">
        <ele>1300.47</ele>
        <time>2025-07-15T07:44:33Z</time>
      </trkpt>
      <trkpt lat="42.707254523411393" lon="1.416631238535047">
        <ele>1302.46</ele>
        <time>2025-07-15T07:45:01Z</time>
      </trkpt>
      <trkpt lat="42.707184366881847" lon="1.416667029261589">
        <ele>1305.5899999999999</ele>
        <time>2025-07-15T07:45:26Z</time>
      </trkpt>
      <trkpt lat="42.70714296028018" lon="1.416780520230532">
        <ele>1309.4000000000001</ele>
        <time>2025-07-15T07:45:50Z</time>
      </trkpt>
      <trkpt lat="42.707112617790699" lon="1.41687867231667">
        <ele>1312.8800000000001</ele>
        <time>2025-07-15T07:46:13Z</time>
      </trkpt>
      <trkpt lat="42.707059308886528" lon="1.417004317045212">
        <ele>1316.0999999999999</ele>
        <time>2025-07-15T07:46:36Z</time>
      </trkpt>
      <trkpt lat="42.706997115164995" lon="1.417117975652218">
        <ele>1318.8</ele>
        <time>2025-07-15T07:46:58Z</time>
      </trkpt>
      <trkpt lat="42.706987056881189" lon="1.417058547958732">
        <ele>1320.3099999999999</ele>
        <time>2025-07-15T07:47:21Z</time>
      </trkpt>
      <trkpt lat="42.706976998597383" lon="1.416974393650889">
        <ele>1320.5899999999999</ele>
        <time>2025-07-15T07:47:39Z</time>
      </trkpt>
      <trkpt lat="42.707026200369" lon="1.416819244623184">
        <ele>1320.8099999999999</ele>
        <time>2025-07-15T07:47:58Z</time>
      </trkpt>
      <trkpt lat="42.706981608644128" lon="1.41671396791935">
        <ele>1320.5899999999999</ele>
        <time>2025-07-15T07:48:22Z</time>
      </trkpt>
      <trkpt lat="42.706949003040791" lon="1.416622772812843">
        <ele>1321.1099999999999</ele>
        <time>2025-07-15T07:48:44Z</time>
      </trkpt>
      <trkpt lat="42.70692796446383" lon="1.416511377319694">
        <ele>1322.3199999999999</ele>
        <time>2025-07-15T07:49:04Z</time>
      </trkpt>
      <trkpt lat="42.706905333325267" lon="1.416406854987145">
        <ele>1323.55</ele>
        <time>2025-07-15T07:49:21Z</time>
      </trkpt>
      <trkpt lat="42.706875409930944" lon="1.416279617697001">
        <ele>1324.9100000000001</ele>
        <time>2025-07-15T07:49:41Z</time>
      </trkpt>
      <trkpt lat="42.706871889531612" lon="1.416161265224218">
        <ele>1326.02</ele>
        <time>2025-07-15T07:50:00Z</time>
      </trkpt>
      <trkpt lat="42.706857472658157" lon="1.41604408621788">
        <ele>1327.27</ele>
        <time>2025-07-15T07:50:20Z</time>
      </trkpt>
      <trkpt lat="42.706821346655488" lon="1.415939396247268">
        <ele>1328.3099999999999</ele>
        <time>2025-07-15T07:50:40Z</time>
      </trkpt>
      <trkpt lat="42.706782538443804" lon="1.415846524760127">
        <ele>1329.8900000000001</ele>
        <time>2025-07-15T07:50:56Z</time>
      </trkpt>
      <trkpt lat="42.706706263124943" lon="1.41579145565629">
        <ele>1331.6400000000001</ele>
        <time>2025-07-15T07:51:14Z</time>
      </trkpt>
      <trkpt lat="42.706630155444145" lon="1.415745271369815">
        <ele>1333.1500000000001</ele>
        <time>2025-07-15T07:51:36Z</time>
      </trkpt>
      <trkpt lat="42.706631328910589" lon="1.415646113455296">
        <ele>1334.3299999999999</ele>
        <time>2025-07-15T07:51:57Z</time>
      </trkpt>
      <trkpt lat="42.706632586196065" lon="1.415553409606218">
        <ele>1335.79</ele>
        <time>2025-07-15T07:52:17Z</time>
      </trkpt>
      <trkpt lat="42.706666281446815" lon="1.415432710200548">
        <ele>1338.3299999999999</ele>
        <time>2025-07-15T07:52:37Z</time>
      </trkpt>
      <trkpt lat="42.706624791026115" lon="1.415353752672672">
        <ele>1341.1400000000001</ele>
        <time>2025-07-15T07:52:55Z</time>
      </trkpt>
      <trkpt lat="42.70663040690124" lon="1.415281584486365">
        <ele>1344.04</ele>
        <time>2025-07-15T07:53:14Z</time>
      </trkpt>
      <trkpt lat="42.70659226924181" lon="1.415177900344133">
        <ele>1348.4000000000001</ele>
        <time>2025-07-15T07:53:43Z</time>
      </trkpt>
      <trkpt lat="42.706494200974703" lon="1.415075222030282">
        <ele>1355.1600000000001</ele>
        <time>2025-07-15T07:53:59Z</time>
      </trkpt>
      <trkpt lat="42.706579025834799" lon="1.415110174566507">
        <ele>1362.49</ele>
        <time>2025-07-15T07:54:20Z</time>
      </trkpt>
      <trkpt lat="42.706660497933626" lon="1.415016716346145">
        <ele>1361.47</ele>
        <time>2025-07-15T07:54:33Z</time>
      </trkpt>
      <trkpt lat="42.706744652241468" lon="1.414910098537803">
        <ele>1359.6099999999999</ele>
        <time>2025-07-15T07:54:45Z</time>
      </trkpt>
      <trkpt lat="42.706705508753657" lon="1.414817059412599">
        <ele>1358.47</ele>
        <time>2025-07-15T07:54:56Z</time>
      </trkpt>
      <trkpt lat="42.706750938668847" lon="1.414671884849668">
        <ele>1356.1500000000001</ele>
        <time>2025-07-15T07:55:12Z</time>
      </trkpt>
      <trkpt lat="42.706774156540632" lon="1.414514807984233">
        <ele>1352.8800000000001</ele>
        <time>2025-07-15T07:55:28Z</time>
      </trkpt>
      <trkpt lat="42.706749681383371" lon="1.414379188790917">
        <ele>1348.8</ele>
        <time>2025-07-15T07:55:45Z</time>
      </trkpt>
      <trkpt lat="42.706764433532953" lon="1.414221944287419">
        <ele>1347.4100000000001</ele>
        <time>2025-07-15T07:56:00Z</time>
      </trkpt>
      <trkpt lat="42.706824280321598" lon="1.414046008139849">
        <ele>1346</ele>
        <time>2025-07-15T07:56:17Z</time>
      </trkpt>
      <trkpt lat="42.706824112683535" lon="1.413948023691773">
        <ele>1348.0799999999999</ele>
        <time>2025-07-15T07:56:38Z</time>
      </trkpt>
      <trkpt lat="42.706795195117593" lon="1.413814332336187">
        <ele>1348.55</ele>
        <time>2025-07-15T07:56:56Z</time>
      </trkpt>
      <trkpt lat="42.70678723230958" lon="1.413668487221003">
        <ele>1349.0699999999999</ele>
        <time>2025-07-15T07:57:12Z</time>
      </trkpt>
      <trkpt lat="42.706831488758326" lon="1.413536136969924">
        <ele>1350.01</ele>
        <time>2025-07-15T07:57:26Z</time>
      </trkpt>
      <trkpt lat="42.706844061613083" lon="1.413356345146895">
        <ele>1352.8099999999999</ele>
        <time>2025-07-15T07:57:50Z</time>
      </trkpt>
      <trkpt lat="42.706853868439794" lon="1.413189629092813">
        <ele>1354.0599999999999</ele>
        <time>2025-07-15T07:58:06Z</time>
      </trkpt>
      <trkpt lat="42.706818915903568" lon="1.413022158667445">
        <ele>1355.71</ele>
        <time>2025-07-15T07:58:25Z</time>
      </trkpt>
      <trkpt lat="42.706846660003066" lon="1.412881929427385">
        <ele>1357.45</ele>
        <time>2025-07-15T07:58:41Z</time>
      </trkpt>
      <trkpt lat="42.706898795440793" lon="1.412745891138911">
        <ele>1358.3199999999999</ele>
        <time>2025-07-15T07:58:55Z</time>
      </trkpt>
      <trkpt lat="42.70689133554697" lon="1.412582276389003">
        <ele>1360.3900000000001</ele>
        <time>2025-07-15T07:59:10Z</time>
      </trkpt>
      <trkpt lat="42.706875074654818" lon="1.412413381040096">
        <ele>1362.3900000000001</ele>
        <time>2025-07-15T07:59:26Z</time>
      </trkpt>
      <trkpt lat="42.706894353032112" lon="1.412253202870488">
        <ele>1366.8599999999999</ele>
        <time>2025-07-15T07:59:44Z</time>
      </trkpt>
      <trkpt lat="42.70695093087852" lon="1.412163181230426">
        <ele>1369.0799999999999</ele>
        <time>2025-07-15T08:00:01Z</time>
      </trkpt>
      <trkpt lat="42.706918241456151" lon="1.411996800452471">
        <ele>1375.4200000000001</ele>
        <time>2025-07-15T08:00:20Z</time>
      </trkpt>
      <trkpt lat="42.706883791834116" lon="1.411861013621092">
        <ele>1382.9000000000001</ele>
        <time>2025-07-15T08:00:39Z</time>
      </trkpt>
      <trkpt lat="42.706881277263165" lon="1.411706786602736">
        <ele>1387.8299999999999</ele>
        <time>2025-07-15T08:00:59Z</time>
      </trkpt>
      <trkpt lat="42.706869542598724" lon="1.411568066105247">
        <ele>1392.6300000000001</ele>
        <time>2025-07-15T08:01:21Z</time>
      </trkpt>
      <trkpt lat="42.706905668601394" lon="1.411452228203416">
        <ele>1396.5899999999999</ele>
        <time>2025-07-15T08:01:42Z</time>
      </trkpt>
      <trkpt lat="42.70693140104413" lon="1.411353573203087">
        <ele>1399.1099999999999</ele>
        <time>2025-07-15T08:02:06Z</time>
      </trkpt>
      <trkpt lat="42.706919247284532" lon="1.41127017326653">
        <ele>1401.23</ele>
        <time>2025-07-15T08:02:24Z</time>
      </trkpt>
      <trkpt lat="42.706927880644798" lon="1.411137906834483">
        <ele>1402.4000000000001</ele>
        <time>2025-07-15T08:02:47Z</time>
      </trkpt>
      <trkpt lat="42.70691430196166" lon="1.411047130823135">
        <ele>1402.78</ele>
        <time>2025-07-15T08:03:08Z</time>
      </trkpt>
      <trkpt lat="42.706852024421096" lon="1.410919642075896">
        <ele>1404.9000000000001</ele>
        <time>2025-07-15T08:03:25Z</time>
      </trkpt>
      <trkpt lat="42.706813551485538" lon="1.410789554938674">
        <ele>1408.0999999999999</ele>
        <time>2025-07-15T08:03:46Z</time>
      </trkpt>
      <trkpt lat="42.706800056621432" lon="1.410680925473571">
        <ele>1410.46</ele>
        <time>2025-07-15T08:04:06Z</time>
      </trkpt>
      <trkpt lat="42.706842636689544" lon="1.410595430061221">
        <ele>1411.0599999999999</ele>
        <time>2025-07-15T08:04:22Z</time>
      </trkpt>
      <trkpt lat="42.706791004166007" lon="1.410498367622495">
        <ele>1411.51</ele>
        <time>2025-07-15T08:04:38Z</time>
      </trkpt>
      <trkpt lat="42.706772061064839" lon="1.410400802269578">
        <ele>1412.3299999999999</ele>
        <time>2025-07-15T08:04:55Z</time>
      </trkpt>
      <trkpt lat="42.706717997789383" lon="1.410301476716995">
        <ele>1413.0799999999999</ele>
        <time>2025-07-15T08:05:14Z</time>
      </trkpt>
      <trkpt lat="42.706745574250817" lon="1.410217490047216">
        <ele>1415</ele>
        <time>2025-07-15T08:05:44Z</time>
      </trkpt>
      <trkpt lat="42.706697210669518" lon="1.410171138122678">
        <ele>1416.6400000000001</ele>
        <time>2025-07-15T08:06:08Z</time>
      </trkpt>
      <trkpt lat="42.706654630601406" lon="1.410048762336373">
        <ele>1417.4000000000001</ele>
        <time>2025-07-15T08:06:29Z</time>
      </trkpt>
      <trkpt lat="42.706660330295563" lon="1.409916328266263">
        <ele>1418.27</ele>
        <time>2025-07-15T08:06:52Z</time>
      </trkpt>
      <trkpt lat="42.706625293940306" lon="1.40982530079782">
        <ele>1419.54</ele>
        <time>2025-07-15T08:07:08Z</time>
      </trkpt>
      <trkpt lat="42.706584641709924" lon="1.409720862284303">
        <ele>1420.8299999999999</ele>
        <time>2025-07-15T08:07:26Z</time>
      </trkpt>
      <trkpt lat="42.706535356119275" lon="1.409646430984139">
        <ele>1422.3299999999999</ele>
        <time>2025-07-15T08:07:48Z</time>
      </trkpt>
      <trkpt lat="42.706476347520947" lon="1.409605275839567">
        <ele>1423.4100000000001</ele>
        <time>2025-07-15T08:08:05Z</time>
      </trkpt>
      <trkpt lat="42.706408118829131" lon="1.409601839259267">
        <ele>1425.45</ele>
        <time>2025-07-15T08:08:24Z</time>
      </trkpt>
      <trkpt lat="42.706376938149333" lon="1.409484995529056">
        <ele>1428.5999999999999</ele>
        <time>2025-07-15T08:08:45Z</time>
      </trkpt>
      <trkpt lat="42.70634843967855" lon="1.409378377720714">
        <ele>1433.6900000000001</ele>
        <time>2025-07-15T08:09:04Z</time>
      </trkpt>
      <trkpt lat="42.70640661008656" lon="1.409289110451937">
        <ele>1435.3499999999999</ele>
        <time>2025-07-15T08:09:20Z</time>
      </trkpt>
      <trkpt lat="42.706389259546995" lon="1.40917151235044">
        <ele>1437.9200000000001</ele>
        <time>2025-07-15T08:09:35Z</time>
      </trkpt>
      <trkpt lat="42.706430330872536" lon="1.409042682498694">
        <ele>1440.3599999999999</ele>
        <time>2025-07-15T08:09:53Z</time>
      </trkpt>
      <trkpt lat="42.706434270367026" lon="1.408925503492355">
        <ele>1442.29</ele>
        <time>2025-07-15T08:10:09Z</time>
      </trkpt>
      <trkpt lat="42.706444496288896" lon="1.408792901784182">
        <ele>1443.8800000000001</ele>
        <time>2025-07-15T08:10:26Z</time>
      </trkpt>
      <trkpt lat="42.706302758306265" lon="1.408744873479009">
        <ele>1449.03</ele>
        <time>2025-07-15T08:11:03Z</time>
      </trkpt>
      <trkpt lat="42.706359000876546" lon="1.408668262884021">
        <ele>1452.3399999999999</ele>
        <time>2025-07-15T08:11:29Z</time>
      </trkpt>
      <trkpt lat="42.706403508782387" lon="1.408509761095047">
        <ele>1453.99</ele>
        <time>2025-07-15T08:11:48Z</time>
      </trkpt>
      <trkpt lat="42.706432091072202" lon="1.408371040597558">
        <ele>1454.75</ele>
        <time>2025-07-15T08:12:08Z</time>
      </trkpt>
      <trkpt lat="42.706430079415441" lon="1.408260483294725">
        <ele>1454.95</ele>
        <time>2025-07-15T08:12:28Z</time>
      </trkpt>
      <trkpt lat="42.706423038616776" lon="1.408152692019939">
        <ele>1456.25</ele>
        <time>2025-07-15T08:12:47Z</time>
      </trkpt>
      <trkpt lat="42.706352798268199" lon="1.408032663166523">
        <ele>1458.03</ele>
        <time>2025-07-15T08:13:13Z</time>
      </trkpt>
      <trkpt lat="42.706278199329972" lon="1.407971894368529">
        <ele>1461.21</ele>
        <time>2025-07-15T08:13:37Z</time>
      </trkpt>
      <trkpt lat="42.706207372248173" lon="1.407938953489065">
        <ele>1463.8099999999999</ele>
        <time>2025-07-15T08:14:06Z</time>
      </trkpt>
      <trkpt lat="42.706155152991414" lon="1.407853960990906">
        <ele>1465.54</ele>
        <time>2025-07-15T08:14:29Z</time>
      </trkpt>
      <trkpt lat="42.706083822995424" lon="1.407815152779222">
        <ele>1466.3699999999999</ele>
        <time>2025-07-15T08:14:49Z</time>
      </trkpt>
      <trkpt lat="42.70600251853466" lon="1.407783133909106">
        <ele>1468.0999999999999</ele>
        <time>2025-07-15T08:15:13Z</time>
      </trkpt>
      <trkpt lat="42.70594384521246" lon="1.407844657078385">
        <ele>1469.8</ele>
        <time>2025-07-15T08:15:34Z</time>
      </trkpt>
      <trkpt lat="42.705861618742347" lon="1.407914897426963">
        <ele>1471.3800000000001</ele>
        <time>2025-07-15T08:15:53Z</time>
      </trkpt>
      <trkpt lat="42.705818535760045" lon="1.408020174130797">
        <ele>1474.04</ele>
        <time>2025-07-15T08:16:17Z</time>
      </trkpt>
      <trkpt lat="42.70576061680913" lon="1.408091085031629">
        <ele>1475.73</ele>
        <time>2025-07-15T08:16:36Z</time>
      </trkpt>
      <trkpt lat="42.705689705908298" lon="1.40803836286068">
        <ele>1477.01</ele>
        <time>2025-07-15T08:16:56Z</time>
      </trkpt>
      <trkpt lat="42.705642683431506" lon="1.407956052571535">
        <ele>1478.9200000000001</ele>
        <time>2025-07-15T08:17:15Z</time>
      </trkpt>
      <trkpt lat="42.705660201609135" lon="1.407838957384229">
        <ele>1481.3099999999999</ele>
        <time>2025-07-15T08:17:35Z</time>
      </trkpt>
      <trkpt lat="42.705651232972741" lon="1.407718090340495">
        <ele>1483.1500000000001</ele>
        <time>2025-07-15T08:17:53Z</time>
      </trkpt>
      <trkpt lat="42.705591218546033" lon="1.407614825293422">
        <ele>1485.74</ele>
        <time>2025-07-15T08:18:15Z</time>
      </trkpt>
      <trkpt lat="42.705613598227501" lon="1.40750527381897">
        <ele>1487.77</ele>
        <time>2025-07-15T08:18:33Z</time>
      </trkpt>
      <trkpt lat="42.705571353435516" lon="1.407409384846687">
        <ele>1490.1199999999999</ele>
        <time>2025-07-15T08:18:48Z</time>
      </trkpt>
      <trkpt lat="42.705526761710644" lon="1.407322715967894">
        <ele>1492.6900000000001</ele>
        <time>2025-07-15T08:19:08Z</time>
      </trkpt>
      <trkpt lat="42.705571185797453" lon="1.40723311342299">
        <ele>1496.47</ele>
        <time>2025-07-15T08:19:29Z</time>
      </trkpt>
      <trkpt lat="42.705520140007138" lon="1.407189108431339">
        <ele>1498.29</ele>
        <time>2025-07-15T08:19:46Z</time>
      </trkpt>
      <trkpt lat="42.705452749505639" lon="1.407252810895443">
        <ele>1500.74</ele>
        <time>2025-07-15T08:20:07Z</time>
      </trkpt>
      <trkpt lat="42.705366248264909" lon="1.407300001010299">
        <ele>1504.04</ele>
        <time>2025-07-15T08:20:28Z</time>
      </trkpt>
      <trkpt lat="42.705326182767749" lon="1.407203860580921">
        <ele>1506.6900000000001</ele>
        <time>2025-07-15T08:20:47Z</time>
      </trkpt>
      <trkpt lat="42.705318219959736" lon="1.407095566391945">
        <ele>1508.5599999999999</ele>
        <time>2025-07-15T08:21:01Z</time>
      </trkpt>
      <trkpt lat="42.705304389819503" lon="1.40694142319262">
        <ele>1511.5999999999999</ele>
        <time>2025-07-15T08:21:25Z</time>
      </trkpt>
      <trkpt lat="42.705293744802475" lon="1.40683832578361">
        <ele>1514.8099999999999</ele>
        <time>2025-07-15T08:21:49Z</time>
      </trkpt>
      <trkpt lat="42.705271616578102" lon="1.406758446246386">
        <ele>1517.78</ele>
        <time>2025-07-15T08:22:17Z</time>
      </trkpt>
      <trkpt lat="42.705209674313664" lon="1.406722404062748">
        <ele>1521.1300000000001</ele>
        <time>2025-07-15T08:22:44Z</time>
      </trkpt>
      <trkpt lat="42.705210680142045" lon="1.406623581424356">
        <ele>1525.6400000000001</ele>
        <time>2025-07-15T08:23:11Z</time>
      </trkpt>
      <trkpt lat="42.705225432291627" lon="1.406573206186295">
        <ele>1532.45</ele>
        <time>2025-07-15T08:23:40Z</time>
      </trkpt>
      <trkpt lat="42.705156868323684" lon="1.406521406024694">
        <ele>1542.01</ele>
        <time>2025-07-15T08:24:09Z</time>
      </trkpt>
      <trkpt lat="42.705070031806827" lon="1.406581252813339">
        <ele>1551.3099999999999</ele>
        <time>2025-07-15T08:24:38Z</time>
      </trkpt>
      <trkpt lat="42.704988894984126" lon="1.4066540915519">
        <ele>1557.5</ele>
        <time>2025-07-15T08:25:07Z</time>
      </trkpt>
      <trkpt lat="42.70498076453805" lon="1.406624168157578">
        <ele>1561.0799999999999</ele>
        <time>2025-07-15T08:25:33Z</time>
      </trkpt>
      <trkpt lat="42.704985961318016" lon="1.406527357175946">
        <ele>1564.8599999999999</ele>
        <time>2025-07-15T08:26:00Z</time>
      </trkpt>
      <trkpt lat="42.704937346279621" lon="1.40649969689548">
        <ele>1568.49</ele>
        <time>2025-07-15T08:26:42Z</time>
      </trkpt>
      <trkpt lat="42.70499350503087" lon="1.406493997201324">
        <ele>1574.1300000000001</ele>
        <time>2025-07-15T08:27:38Z</time>
      </trkpt>
      <trkpt lat="42.704967688769102" lon="1.406494081020355">
        <ele>1582.45</ele>
        <time>2025-07-15T08:29:51Z</time>
      </trkpt>
      <trkpt lat="42.70496659912169" lon="1.406471868976951">
        <ele>1582.9000000000001</ele>
        <time>2025-07-15T08:30:27Z</time>
      </trkpt>
      <trkpt lat="42.704951008781791" lon="1.406475808471441">
        <ele>1581.3699999999999</ele>
        <time>2025-07-15T08:36:33Z</time>
      </trkpt>
      <trkpt lat="42.704931395128369" lon="1.406479496508837">
        <ele>1580.01</ele>
        <time>2025-07-15T08:40:09Z</time>
      </trkpt>
      <trkpt lat="42.70488990470767" lon="1.406452003866434">
        <ele>1581.8099999999999</ele>
        <time>2025-07-15T08:41:00Z</time>
      </trkpt>
      <trkpt lat="42.704796027392149" lon="1.40649575740099">
        <ele>1582.71</ele>
        <time>2025-07-15T08:41:26Z</time>
      </trkpt>
      <trkpt lat="42.704770546406507" lon="1.406390396878123">
        <ele>1583.6700000000001</ele>
        <time>2025-07-15T08:41:53Z</time>
      </trkpt>
      <trkpt lat="42.704704245552421" lon="1.406302973628044">
        <ele>1585.6600000000001</ele>
        <time>2025-07-15T08:42:22Z</time>
      </trkpt>
      <trkpt lat="42.704650769010186" lon="1.406376399099827">
        <ele>1587.71</ele>
        <time>2025-07-15T08:42:46Z</time>
      </trkpt>
      <trkpt lat="42.704591425135732" lon="1.406482933089137">
        <ele>1588.3599999999999</ele>
        <time>2025-07-15T08:43:07Z</time>
      </trkpt>
      <trkpt lat="42.704531997442245" lon="1.406579576432705">
        <ele>1590.8900000000001</ele>
        <time>2025-07-15T08:43:34Z</time>
      </trkpt>
      <trkpt lat="42.704487824812531" lon="1.406501457095146">
        <ele>1593.6600000000001</ele>
        <time>2025-07-15T08:43:59Z</time>
      </trkpt>
      <trkpt lat="42.704407777637243" lon="1.406485699117184">
        <ele>1596.1600000000001</ele>
        <time>2025-07-15T08:44:19Z</time>
      </trkpt>
      <trkpt lat="42.704327059909701" lon="1.406532721593976">
        <ele>1598.8099999999999</ele>
        <time>2025-07-15T08:44:46Z</time>
      </trkpt>
      <trkpt lat="42.70429378375411" lon="1.406441777944565">
        <ele>1602.0599999999999</ele>
        <time>2025-07-15T08:45:16Z</time>
      </trkpt>
      <trkpt lat="42.704244498163462" lon="1.406352678313851">
        <ele>1604.9300000000001</ele>
        <time>2025-07-15T08:45:43Z</time>
      </trkpt>
      <trkpt lat="42.704174760729074" lon="1.40636776573956">
        <ele>1608.79</ele>
        <time>2025-07-15T08:46:11Z</time>
      </trkpt>
      <trkpt lat="42.70411198027432" lon="1.406322000548244">
        <ele>1612.71</ele>
        <time>2025-07-15T08:46:37Z</time>
      </trkpt>
      <trkpt lat="42.704050540924072" lon="1.406234242022038">
        <ele>1616.3099999999999</ele>
        <time>2025-07-15T08:47:06Z</time>
      </trkpt>
      <trkpt lat="42.703990610316396" lon="1.406170120462775">
        <ele>1621.1500000000001</ele>
        <time>2025-07-15T08:47:47Z</time>
      </trkpt>
      <trkpt lat="42.703937301412225" lon="1.406080266460776">
        <ele>1625.0599999999999</ele>
        <time>2025-07-15T08:48:15Z</time>
      </trkpt>
      <trkpt lat="42.703858679160476" lon="1.406032154336572">
        <ele>1629.3900000000001</ele>
        <time>2025-07-15T08:48:43Z</time>
      </trkpt>
      <trkpt lat="42.703771004453301" lon="1.406027292832732">
        <ele>1632.71</ele>
        <time>2025-07-15T08:49:06Z</time>
      </trkpt>
      <trkpt lat="42.703695399686694" lon="1.405972223728895">
        <ele>1636.3299999999999</ele>
        <time>2025-07-15T08:49:30Z</time>
      </trkpt>
      <trkpt lat="42.703630523756146" lon="1.405932577326894">
        <ele>1637.8299999999999</ele>
        <time>2025-07-15T08:49:44Z</time>
      </trkpt>
      <trkpt lat="42.703547459095716" lon="1.405881196260452">
        <ele>1641.3599999999999</ele>
        <time>2025-07-15T08:50:04Z</time>
      </trkpt>
      <trkpt lat="42.703472692519426" lon="1.405824534595013">
        <ele>1644.6500000000001</ele>
        <time>2025-07-15T08:50:27Z</time>
      </trkpt>
      <trkpt lat="42.70339666865766" lon="1.405827216804028">
        <ele>1646.6300000000001</ele>
        <time>2025-07-15T08:50:48Z</time>
      </trkpt>
      <trkpt lat="42.703308993950486" lon="1.405784636735916">
        <ele>1649.04</ele>
        <time>2025-07-15T08:51:11Z</time>
      </trkpt>
      <trkpt lat="42.703216038644314" lon="1.405759742483497">
        <ele>1650.74</ele>
        <time>2025-07-15T08:51:34Z</time>
      </trkpt>
      <trkpt lat="42.703133309260011" lon="1.405764436349273">
        <ele>1653.0999999999999</ele>
        <time>2025-07-15T08:51:57Z</time>
      </trkpt>
      <trkpt lat="42.703053178265691" lon="1.405775751918554">
        <ele>1656.49</ele>
        <time>2025-07-15T08:52:18Z</time>
      </trkpt>
      <trkpt lat="42.702956199645996" lon="1.405788157135248">
        <ele>1658.3</ele>
        <time>2025-07-15T08:52:42Z</time>
      </trkpt>
      <trkpt lat="42.702866764739156" lon="1.405802154913545">
        <ele>1660.04</ele>
        <time>2025-07-15T08:53:00Z</time>
      </trkpt>
      <trkpt lat="42.702790321782231" lon="1.405779859051108">
        <ele>1664</ele>
        <time>2025-07-15T08:53:16Z</time>
      </trkpt>
      <trkpt lat="42.702729804441333" lon="1.405802238732576">
        <ele>1668.4400000000001</ele>
        <time>2025-07-15T08:53:49Z</time>
      </trkpt>
      <trkpt lat="42.702654534950852" lon="1.405787235125899">
        <ele>1670.6500000000001</ele>
        <time>2025-07-15T08:55:11Z</time>
      </trkpt>
      <trkpt lat="42.702588066458702" lon="1.40570467337966">
        <ele>1671.21</ele>
        <time>2025-07-15T08:55:31Z</time>
      </trkpt>
      <trkpt lat="42.702501816675067" lon="1.405659075826407">
        <ele>1673.6500000000001</ele>
        <time>2025-07-15T08:55:53Z</time>
      </trkpt>
      <trkpt lat="42.702431157231331" lon="1.405571736395359">
        <ele>1676.5899999999999</ele>
        <time>2025-07-15T08:56:15Z</time>
      </trkpt>
      <trkpt lat="42.702412214130163" lon="1.405644072219729">
        <ele>1679.8800000000001</ele>
        <time>2025-07-15T08:56:38Z</time>
      </trkpt>
      <trkpt lat="42.702369717881083" lon="1.40574331395328">
        <ele>1681.6700000000001</ele>
        <time>2025-07-15T08:57:03Z</time>
      </trkpt>
      <trkpt lat="42.702348260208964" lon="1.405870467424393">
        <ele>1683.71</ele>
        <time>2025-07-15T08:57:48Z</time>
      </trkpt>
      <trkpt lat="42.702317833900452" lon="1.405994016677141">
        <ele>1686.52</ele>
        <time>2025-07-15T08:58:11Z</time>
      </trkpt>
      <trkpt lat="42.702312553301454" lon="1.406104490160942">
        <ele>1690.9300000000001</ele>
        <time>2025-07-15T08:58:33Z</time>
      </trkpt>
      <trkpt lat="42.702283216640353" lon="1.406200546771288">
        <ele>1694.4000000000001</ele>
        <time>2025-07-15T08:58:58Z</time>
      </trkpt>
      <trkpt lat="42.702269805595279" lon="1.406274307519198">
        <ele>1698.03</ele>
        <time>2025-07-15T08:59:20Z</time>
      </trkpt>
      <trkpt lat="42.70222395658493" lon="1.406375393271446">
        <ele>1700.9000000000001</ele>
        <time>2025-07-15T09:00:10Z</time>
      </trkpt>
      <trkpt lat="42.702135527506471" lon="1.406408920884132">
        <ele>1705.29</ele>
        <time>2025-07-15T09:01:04Z</time>
      </trkpt>
      <trkpt lat="42.702067047357559" lon="1.40648846514523">
        <ele>1709.45</ele>
        <time>2025-07-15T09:01:24Z</time>
      </trkpt>
      <trkpt lat="42.701996639370918" lon="1.406525261700153">
        <ele>1713.26</ele>
        <time>2025-07-15T09:01:44Z</time>
      </trkpt>
      <trkpt lat="42.701914245262742" lon="1.40653733164072">
        <ele>1716.27</ele>
        <time>2025-07-15T09:02:04Z</time>
      </trkpt>
      <trkpt lat="42.701830929145217" lon="1.406520567834377">
        <ele>1718.77</ele>
        <time>2025-07-15T09:02:25Z</time>
      </trkpt>
      <trkpt lat="42.701738895848393" lon="1.406553173437715">
        <ele>1722.6099999999999</ele>
        <time>2025-07-15T09:03:20Z</time>
      </trkpt>
      <trkpt lat="42.70165759138763" lon="1.406516879796982">
        <ele>1725.26</ele>
        <time>2025-07-15T09:03:57Z</time>
      </trkpt>
      <trkpt lat="42.701596235856414" lon="1.406466253101826">
        <ele>1727.8</ele>
        <time>2025-07-15T09:04:34Z</time>
      </trkpt>
      <trkpt lat="42.701498502865434" lon="1.406459044665098">
        <ele>1731.3900000000001</ele>
        <time>2025-07-15T09:05:08Z</time>
      </trkpt>
      <trkpt lat="42.701432034373283" lon="1.406489973887801">
        <ele>1736.3199999999999</ele>
        <time>2025-07-15T09:05:43Z</time>
      </trkpt>
      <trkpt lat="42.70135760307312" lon="1.406523585319519">
        <ele>1741.01</ele>
        <time>2025-07-15T09:06:21Z</time>
      </trkpt>
      <trkpt lat="42.701293984428048" lon="1.406575636938214">
        <ele>1746.03</ele>
        <time>2025-07-15T09:06:54Z</time>
      </trkpt>
      <trkpt lat="42.701191892847419" lon="1.406565746292472">
        <ele>1750.3800000000001</ele>
        <time>2025-07-15T09:07:30Z</time>
      </trkpt>
      <trkpt lat="42.701124167069793" lon="1.406499277800322">
        <ele>1753.1300000000001</ele>
        <time>2025-07-15T09:08:02Z</time>
      </trkpt>
      <trkpt lat="42.701064320281148" lon="1.406429456546903">
        <ele>1756.75</ele>
        <time>2025-07-15T09:08:29Z</time>
      </trkpt>
      <trkpt lat="42.700996929779649" lon="1.406383607536554">
        <ele>1761.3699999999999</ele>
        <time>2025-07-15T09:08:48Z</time>
      </trkpt>
      <trkpt lat="42.700945632532239" lon="1.406383607536554">
        <ele>1765.24</ele>
        <time>2025-07-15T09:09:17Z</time>
      </trkpt>
      <trkpt lat="42.700890311971307" lon="1.406293418258429">
        <ele>1766.8699999999999</ele>
        <time>2025-07-15T09:10:03Z</time>
      </trkpt>
      <trkpt lat="42.700808923691511" lon="1.406233739107847">
        <ele>1768.8499999999999</ele>
        <time>2025-07-15T09:10:20Z</time>
      </trkpt>
      <trkpt lat="42.700732983648777" lon="1.406164839863777">
        <ele>1770.9000000000001</ele>
        <time>2025-07-15T09:10:38Z</time>
      </trkpt>
      <trkpt lat="42.700662491843104" lon="1.406082361936569">
        <ele>1773.6600000000001</ele>
        <time>2025-07-15T09:10:55Z</time>
      </trkpt>
      <trkpt lat="42.700581774115562" lon="1.406026538461447">
        <ele>1775.9000000000001</ele>
        <time>2025-07-15T09:11:17Z</time>
      </trkpt>
      <trkpt lat="42.700495691969991" lon="1.405993094667792">
        <ele>1778.1400000000001</ele>
        <time>2025-07-15T09:11:40Z</time>
      </trkpt>
      <trkpt lat="42.700406759977341" lon="1.405983790755272">
        <ele>1781.45</ele>
        <time>2025-07-15T09:12:04Z</time>
      </trkpt>
      <trkpt lat="42.700311709195375" lon="1.405982952564955">
        <ele>1783.4000000000001</ele>
        <time>2025-07-15T09:12:36Z</time>
      </trkpt>
      <trkpt lat="42.700325371697545" lon="1.406066017225385">
        <ele>1787.9000000000001</ele>
        <time>2025-07-15T09:13:00Z</time>
      </trkpt>
      <trkpt lat="42.700362671166658" lon="1.406162492930889">
        <ele>1791.98</ele>
        <time>2025-07-15T09:13:36Z</time>
      </trkpt>
      <trkpt lat="42.700349008664489" lon="1.406281348317862">
        <ele>1796.55</ele>
        <time>2025-07-15T09:14:08Z</time>
      </trkpt>
      <trkpt lat="42.700348002836108" lon="1.406398192048073">
        <ele>1801.1500000000001</ele>
        <time>2025-07-15T09:14:44Z</time>
      </trkpt>
      <trkpt lat="42.700366694480181" lon="1.406510174274445">
        <ele>1804.95</ele>
        <time>2025-07-15T09:15:11Z</time>
      </trkpt>
      <trkpt lat="42.700309446081519" lon="1.406614361330867">
        <ele>1807.6400000000001</ele>
        <time>2025-07-15T09:15:55Z</time>
      </trkpt>
      <trkpt lat="42.700259238481522" lon="1.406685104593635">
        <ele>1810.49</ele>
        <time>2025-07-15T09:16:23Z</time>
      </trkpt>
      <trkpt lat="42.70018732175231" lon="1.406761128455401">
        <ele>1813.1400000000001</ele>
        <time>2025-07-15T09:16:50Z</time>
      </trkpt>
      <trkpt lat="42.700100569054484" lon="1.406809827312827">
        <ele>1815.5999999999999</ele>
        <time>2025-07-15T09:17:07Z</time>
      </trkpt>
      <trkpt lat="42.700046421959996" lon="1.40687839128077">
        <ele>1818.9200000000001</ele>
        <time>2025-07-15T09:17:29Z</time>
      </trkpt>
      <trkpt lat="42.699968805536628" lon="1.406931448727846">
        <ele>1821.05</ele>
        <time>2025-07-15T09:17:55Z</time>
      </trkpt>
      <trkpt lat="42.699917005375028" lon="1.406992804259062">
        <ele>1822.4100000000001</ele>
        <time>2025-07-15T09:18:19Z</time>
      </trkpt>
      <trkpt lat="42.699845088645816" lon="1.407065475359559">
        <ele>1824.9200000000001</ele>
        <time>2025-07-15T09:18:43Z</time>
      </trkpt>
      <trkpt lat="42.699757581576705" lon="1.407104367390275">
        <ele>1826.3499999999999</ele>
        <time>2025-07-15T09:19:17Z</time>
      </trkpt>
      <trkpt lat="42.699688347056508" lon="1.407156921923161">
        <ele>1828.55</ele>
        <time>2025-07-15T09:19:34Z</time>
      </trkpt>
      <trkpt lat="42.699619615450501" lon="1.407235963270068">
        <ele>1832.6900000000001</ele>
        <time>2025-07-15T09:19:55Z</time>
      </trkpt>
      <trkpt lat="42.699539568275213" lon="1.407280052080751">
        <ele>1836.1800000000001</ele>
        <time>2025-07-15T09:20:20Z</time>
      </trkpt>
      <trkpt lat="42.699470669031143" lon="1.407334534451366">
        <ele>1839.73</ele>
        <time>2025-07-15T09:20:45Z</time>
      </trkpt>
      <trkpt lat="42.699375115334988" lon="1.407349202781916">
        <ele>1841.04</ele>
        <time>2025-07-15T09:21:05Z</time>
      </trkpt>
      <trkpt lat="42.699292469769716" lon="1.407393626868725">
        <ele>1843.8599999999999</ele>
        <time>2025-07-15T09:21:27Z</time>
      </trkpt>
      <trkpt lat="42.699204459786415" lon="1.407426986843348">
        <ele>1845.54</ele>
        <time>2025-07-15T09:21:54Z</time>
      </trkpt>
      <trkpt lat="42.699128771200776" lon="1.407498316839337">
        <ele>1847.79</ele>
        <time>2025-07-15T09:22:25Z</time>
      </trkpt>
      <trkpt lat="42.69905760884285" lon="1.407579788938165">
        <ele>1850.4000000000001</ele>
        <time>2025-07-15T09:22:54Z</time>
      </trkpt>
      <trkpt lat="42.698975633829832" lon="1.40763234347105">
        <ele>1853.0899999999999</ele>
        <time>2025-07-15T09:23:28Z</time>
      </trkpt>
      <trkpt lat="42.698901537805796" lon="1.407676767557859">
        <ele>1856.5</ele>
        <time>2025-07-15T09:24:09Z</time>
      </trkpt>
      <trkpt lat="42.698853928595781" lon="1.407685820013285">
        <ele>1859.4400000000001</ele>
        <time>2025-07-15T09:24:41Z</time>
      </trkpt>
      <trkpt lat="42.698767511174083" lon="1.407649023458362">
        <ele>1865.8699999999999</ele>
        <time>2025-07-15T09:25:49Z</time>
      </trkpt>
      <trkpt lat="42.698682686313987" lon="1.407667798921466">
        <ele>1869.0699999999999</ele>
        <time>2025-07-15T09:26:18Z</time>
      </trkpt>
      <trkpt lat="42.698598112910986" lon="1.407670145854354">
        <ele>1871.54</ele>
        <time>2025-07-15T09:26:46Z</time>
      </trkpt>
      <trkpt lat="42.698509935289621" lon="1.407679030671716">
        <ele>1875.6300000000001</ele>
        <time>2025-07-15T09:27:31Z</time>
      </trkpt>
      <trkpt lat="42.698445729911327" lon="1.407747007906437">
        <ele>1880.72</ele>
        <time>2025-07-15T09:28:12Z</time>
      </trkpt>
      <trkpt lat="42.698354870080948" lon="1.407763687893748">
        <ele>1883.98</ele>
        <time>2025-07-15T09:28:47Z</time>
      </trkpt>
      <trkpt lat="42.698264345526695" lon="1.407781122252345">
        <ele>1889.1800000000001</ele>
        <time>2025-07-15T09:29:39Z</time>
      </trkpt>
      <trkpt lat="42.698198463767767" lon="1.407817080616951">
        <ele>1892.77</ele>
        <time>2025-07-15T09:30:09Z</time>
      </trkpt>
      <trkpt lat="42.698147753253579" lon="1.407896373420954">
        <ele>1898.71</ele>
        <time>2025-07-15T09:30:47Z</time>
      </trkpt>
      <trkpt lat="42.698077093809843" lon="1.407956974580884">
        <ele>1902.5699999999999</ele>
        <time>2025-07-15T09:31:25Z</time>
      </trkpt>
      <trkpt lat="42.697987658903003" lon="1.408008020371199">
        <ele>1905.5799999999999</ele>
        <time>2025-07-15T09:31:50Z</time>
      </trkpt>
      <trkpt lat="42.697903672233224" lon="1.40804666094482">
        <ele>1908.75</ele>
        <time>2025-07-15T09:32:16Z</time>
      </trkpt>
      <trkpt lat="42.697824966162443" lon="1.408089408650994">
        <ele>1911.9200000000001</ele>
        <time>2025-07-15T09:32:56Z</time>
      </trkpt>
      <trkpt lat="42.697743410244584" lon="1.408106926828623">
        <ele>1915.27</ele>
        <time>2025-07-15T09:33:31Z</time>
      </trkpt>
      <trkpt lat="42.697654562070966" lon="1.408115141093731">
        <ele>1918.04</ele>
        <time>2025-07-15T09:33:59Z</time>
      </trkpt>
      <trkpt lat="42.697569904848933" lon="1.4080994669348">
        <ele>1920.8</ele>
        <time>2025-07-15T09:34:31Z</time>
      </trkpt>
      <trkpt lat="42.697493713349104" lon="1.408071639016271">
        <ele>1926.77</ele>
        <time>2025-07-15T09:35:23Z</time>
      </trkpt>
      <trkpt lat="42.697407966479659" lon="1.408031992614269">
        <ele>1928.53</ele>
        <time>2025-07-15T09:35:46Z</time>
      </trkpt>
      <trkpt lat="42.69732104614377" lon="1.408001398667693">
        <ele>1931.6199999999999</ele>
        <time>2025-07-15T09:36:08Z</time>
      </trkpt>
      <trkpt lat="42.697223899886012" lon="1.40799293294549">
        <ele>1935.04</ele>
        <time>2025-07-15T09:36:29Z</time>
      </trkpt>
      <trkpt lat="42.697138236835599" lon="1.407993519678712">
        <ele>1938.96</ele>
        <time>2025-07-15T09:36:56Z</time>
      </trkpt>
      <trkpt lat="42.697064392268658" lon="1.407931409776211">
        <ele>1942.51</ele>
        <time>2025-07-15T09:37:15Z</time>
      </trkpt>
      <trkpt lat="42.696974873542786" lon="1.407896457239986">
        <ele>1943.6300000000001</ele>
        <time>2025-07-15T09:37:33Z</time>
      </trkpt>
      <trkpt lat="42.696993565186858" lon="1.407821858301759">
        <ele>1945.3299999999999</ele>
        <time>2025-07-15T09:40:12Z</time>
      </trkpt>
      <trkpt lat="42.696995912119746" lon="1.407821355387569">
        <ele>1944.8099999999999</ele>
        <time>2025-07-15T09:42:17Z</time>
      </trkpt>
      <trkpt lat="42.696940423920751" lon="1.407863683998585">
        <ele>1945.95</ele>
        <time>2025-07-15T10:00:35Z</time>
      </trkpt>
      <trkpt lat="42.696922151371837" lon="1.407864606007934">
        <ele>1945.1099999999999</ele>
        <time>2025-07-15T10:29:34Z</time>
      </trkpt>
      <trkpt lat="42.696916284039617" lon="1.407861839979887">
        <ele>1943.45</ele>
        <time>2025-07-15T10:37:19Z</time>
      </trkpt>
      <trkpt lat="42.696905555203557" lon="1.407868210226297">
        <ele>1944.26</ele>
        <time>2025-07-15T10:43:41Z</time>
      </trkpt>
      <trkpt lat="42.696894491091371" lon="1.407883800566196">
        <ele>1943.3199999999999</ele>
        <time>2025-07-15T10:45:28Z</time>
      </trkpt>
      <trkpt lat="42.696908824145794" lon="1.407881872728467">
        <ele>1944.1099999999999</ele>
        <time>2025-07-15T10:46:23Z</time>
      </trkpt>
      <trkpt lat="42.696907818317413" lon="1.407878268510103">
        <ele>1944.6199999999999</ele>
        <time>2025-07-15T10:47:05Z</time>
      </trkpt>
      <trkpt lat="42.696930197998881" lon="1.407882794737816">
        <ele>1945.21</ele>
        <time>2025-07-15T10:47:36Z</time>
      </trkpt>
      <trkpt lat="42.696919133886695" lon="1.407895367592573">
        <ele>1944.78</ele>
        <time>2025-07-15T10:48:03Z</time>
      </trkpt>
      <trkpt lat="42.696863897144794" lon="1.407899726182222">
        <ele>1941.29</ele>
        <time>2025-07-15T10:48:15Z</time>
      </trkpt>
      <trkpt lat="42.696853755041957" lon="1.407820014283061">
        <ele>1939.8299999999999</ele>
        <time>2025-07-15T10:48:29Z</time>
      </trkpt>
      <trkpt lat="42.696824502199888" lon="1.407709373161197">
        <ele>1938.28</ele>
        <time>2025-07-15T10:48:41Z</time>
      </trkpt>
      <trkpt lat="42.696814946830273" lon="1.407586326822639">
        <ele>1938.3399999999999</ele>
        <time>2025-07-15T10:48:52Z</time>
      </trkpt>
      <trkpt lat="42.696793405339122" lon="1.407461101189256">
        <ele>1938.1700000000001</ele>
        <time>2025-07-15T10:49:04Z</time>
      </trkpt>
      <trkpt lat="42.69677622243762" lon="1.407332690432668">
        <ele>1937.48</ele>
        <time>2025-07-15T10:49:15Z</time>
      </trkpt>
      <trkpt lat="42.696758955717087" lon="1.407217858359218">
        <ele>1937.48</ele>
        <time>2025-07-15T10:49:26Z</time>
      </trkpt>
      <trkpt lat="42.696744538843632" lon="1.407098583877087">
        <ele>1937.46</ele>
        <time>2025-07-15T10:49:36Z</time>
      </trkpt>
      <trkpt lat="42.696708664298058" lon="1.406990205869079">
        <ele>1937.8900000000001</ele>
        <time>2025-07-15T10:49:47Z</time>
      </trkpt>
      <trkpt lat="42.6966408547014" lon="1.406912421807647">
        <ele>1937.3699999999999</ele>
        <time>2025-07-15T10:49:57Z</time>
      </trkpt>
      <trkpt lat="42.696558963507414" lon="1.406856430694461">
        <ele>1937.6700000000001</ele>
        <time>2025-07-15T10:50:06Z</time>
      </trkpt>
      <trkpt lat="42.696484364569187" lon="1.406788034364581">
        <ele>1938.3099999999999</ele>
        <time>2025-07-15T10:50:17Z</time>
      </trkpt>
      <trkpt lat="42.696420159190893" lon="1.40670295804739">
        <ele>1939.6300000000001</ele>
        <time>2025-07-15T10:50:28Z</time>
      </trkpt>
      <trkpt lat="42.696323599666357" lon="1.406669178977609">
        <ele>1939.97</ele>
        <time>2025-07-15T10:50:39Z</time>
      </trkpt>
      <trkpt lat="42.696231734007597" lon="1.406632969155908">
        <ele>1940.1400000000001</ele>
        <time>2025-07-15T10:50:50Z</time>
      </trkpt>
      <trkpt lat="42.696207342669368" lon="1.406522244215012">
        <ele>1941.4400000000001</ele>
        <time>2025-07-15T10:51:09Z</time>
      </trkpt>
      <trkpt lat="42.696207677945495" lon="1.406402215361595">
        <ele>1940.5</ele>
        <time>2025-07-15T10:51:20Z</time>
      </trkpt>
      <trkpt lat="42.696234583854675" lon="1.406276151537895">
        <ele>1940</ele>
        <time>2025-07-15T10:51:30Z</time>
      </trkpt>
      <trkpt lat="42.696222178637981" lon="1.406148327514529">
        <ele>1938.5799999999999</ele>
        <time>2025-07-15T10:51:43Z</time>
      </trkpt>
      <trkpt lat="42.696237433701754" lon="1.406023018062115">
        <ele>1937.72</ele>
        <time>2025-07-15T10:51:54Z</time>
      </trkpt>
      <trkpt lat="42.696293508633971" lon="1.40591723844409">
        <ele>1937.3299999999999</ele>
        <time>2025-07-15T10:52:06Z</time>
      </trkpt>
      <trkpt lat="42.69633499905467" lon="1.405807100236416">
        <ele>1940.4300000000001</ele>
        <time>2025-07-15T10:52:29Z</time>
      </trkpt>
      <trkpt lat="42.696390738710761" lon="1.405711462721229">
        <ele>1943.9000000000001</ele>
        <time>2025-07-15T10:52:46Z</time>
      </trkpt>
      <trkpt lat="42.696347152814269" lon="1.405619345605373">
        <ele>1944.4000000000001</ele>
        <time>2025-07-15T10:53:06Z</time>
      </trkpt>
      <trkpt lat="42.696267776191235" lon="1.405563019216061">
        <ele>1946.0599999999999</ele>
        <time>2025-07-15T10:53:26Z</time>
      </trkpt>
      <trkpt lat="42.69619032740593" lon="1.405495461076498">
        <ele>1948.51</ele>
        <time>2025-07-15T10:53:53Z</time>
      </trkpt>
      <trkpt lat="42.696125702932477" lon="1.405441565439105">
        <ele>1952.01</ele>
        <time>2025-07-15T10:54:24Z</time>
      </trkpt>
      <trkpt lat="42.69604230299592" lon="1.405408373102546">
        <ele>1953.8399999999999</ele>
        <time>2025-07-15T10:54:55Z</time>
      </trkpt>
      <trkpt lat="42.695980444550514" lon="1.405332433059812">
        <ele>1956.3599999999999</ele>
        <time>2025-07-15T10:55:24Z</time>
      </trkpt>
      <trkpt lat="42.69592403434217" lon="1.40537828207016">
        <ele>1960.1600000000001</ele>
        <time>2025-07-15T10:55:53Z</time>
      </trkpt>
      <trkpt lat="42.695873491466045" lon="1.405442655086517">
        <ele>1963.55</ele>
        <time>2025-07-15T10:56:20Z</time>
      </trkpt>
      <trkpt lat="42.695894027128816" lon="1.405557151883841">
        <ele>1967.46</ele>
        <time>2025-07-15T10:56:44Z</time>
      </trkpt>
      <trkpt lat="42.69583024084568" lon="1.405557990074158">
        <ele>1969.6700000000001</ele>
        <time>2025-07-15T10:57:21Z</time>
      </trkpt>
      <trkpt lat="42.695765951648355" lon="1.405485151335597">
        <ele>1973.01</ele>
        <time>2025-07-15T10:57:54Z</time>
      </trkpt>
      <trkpt lat="42.695697387680411" lon="1.405392866581678">
        <ele>1976.23</ele>
        <time>2025-07-15T10:58:16Z</time>
      </trkpt>
      <trkpt lat="42.695642737671733" lon="1.405397476628423">
        <ele>1981.53</ele>
        <time>2025-07-15T10:58:47Z</time>
      </trkpt>
      <trkpt lat="42.695627063512802" lon="1.405497556552291">
        <ele>1987.5</ele>
        <time>2025-07-15T10:59:09Z</time>
      </trkpt>
      <trkpt lat="42.695549950003624" lon="1.405516918748617">
        <ele>1992.1099999999999</ele>
        <time>2025-07-15T10:59:30Z</time>
      </trkpt>
      <trkpt lat="42.695488007739186" lon="1.405496969819069">
        <ele>1994.49</ele>
        <time>2025-07-15T10:59:55Z</time>
      </trkpt>
      <trkpt lat="42.695421539247036" lon="1.405466040596366">
        <ele>1998.26</ele>
        <time>2025-07-15T11:00:20Z</time>
      </trkpt>
      <trkpt lat="42.695344258099794" lon="1.405463945120573">
        <ele>2001.6500000000001</ele>
        <time>2025-07-15T11:00:55Z</time>
      </trkpt>
      <trkpt lat="42.69526831805706" lon="1.405418515205383">
        <ele>2004.3</ele>
        <time>2025-07-15T11:01:19Z</time>
      </trkpt>
      <trkpt lat="42.695209225639701" lon="1.405422622337937">
        <ele>2008.7</ele>
        <time>2025-07-15T11:01:46Z</time>
      </trkpt>
      <trkpt lat="42.69512658007443" lon="1.40544667840004">
        <ele>2012.05</ele>
        <time>2025-07-15T11:02:13Z</time>
      </trkpt>
      <trkpt lat="42.695050640031695" lon="1.405423209071159">
        <ele>2014.6900000000001</ele>
        <time>2025-07-15T11:02:39Z</time>
      </trkpt>
      <trkpt lat="42.694985764101148" lon="1.405408708378673">
        <ele>2016.23</ele>
        <time>2025-07-15T11:03:02Z</time>
      </trkpt>
      <trkpt lat="42.694908902049065" lon="1.405375264585018">
        <ele>2022.54</ele>
        <time>2025-07-15T11:03:54Z</time>
      </trkpt>
      <trkpt lat="42.694823406636715" lon="1.405349615961313">
        <ele>2024.53</ele>
        <time>2025-07-15T11:04:13Z</time>
      </trkpt>
      <trkpt lat="42.694740509614348" lon="1.405343245714903">
        <ele>2027.26</ele>
        <time>2025-07-15T11:04:35Z</time>
      </trkpt>
      <trkpt lat="42.694668592885137" lon="1.405293624848127">
        <ele>2029.6400000000001</ele>
        <time>2025-07-15T11:05:07Z</time>
      </trkpt>
      <trkpt lat="42.694593826308846" lon="1.405272083356977">
        <ele>2031.6300000000001</ele>
        <time>2025-07-15T11:05:34Z</time>
      </trkpt>
      <trkpt lat="42.694504307582974" lon="1.405230090022087">
        <ele>2034.5999999999999</ele>
        <time>2025-07-15T11:06:08Z</time>
      </trkpt>
      <trkpt lat="42.694411184638739" lon="1.405204357579351">
        <ele>2038.1500000000001</ele>
        <time>2025-07-15T11:06:28Z</time>
      </trkpt>
      <trkpt lat="42.694326778873801" lon="1.40519748441875">
        <ele>2043.04</ele>
        <time>2025-07-15T11:06:49Z</time>
      </trkpt>
      <trkpt lat="42.694241451099515" lon="1.405142415314913">
        <ele>2045.8099999999999</ele>
        <time>2025-07-15T11:07:07Z</time>
      </trkpt>
      <trkpt lat="42.694173557683825" lon="1.405065217986703">
        <ele>2045.54</ele>
        <time>2025-07-15T11:07:21Z</time>
      </trkpt>
      <trkpt lat="42.694134078919888" lon="1.405040994286537">
        <ele>2043.9000000000001</ele>
        <time>2025-07-15T11:09:18Z</time>
      </trkpt>
      <trkpt lat="42.694051684811711" lon="1.404962288215756">
        <ele>2043.9000000000001</ele>
        <time>2025-07-15T11:09:27Z</time>
      </trkpt>
      <trkpt lat="42.693989742547274" lon="1.404859861359">
        <ele>2043.8299999999999</ele>
        <time>2025-07-15T11:09:37Z</time>
      </trkpt>
      <trkpt lat="42.693908521905541" lon="1.404804708436132">
        <ele>2044.0899999999999</ele>
        <time>2025-07-15T11:09:46Z</time>
      </trkpt>
      <trkpt lat="42.693830905482173" lon="1.404723739251494">
        <ele>2043.8499999999999</ele>
        <time>2025-07-15T11:09:55Z</time>
      </trkpt>
      <trkpt lat="42.693787151947618" lon="1.40461209230125">
        <ele>2042.8699999999999</ele>
        <time>2025-07-15T11:10:05Z</time>
      </trkpt>
      <trkpt lat="42.693723868578672" lon="1.404518214985728">
        <ele>2041.4300000000001</ele>
        <time>2025-07-15T11:10:15Z</time>
      </trkpt>
      <trkpt lat="42.693654298782349" lon="1.404435569420457">
        <ele>2042.9000000000001</ele>
        <time>2025-07-15T11:10:27Z</time>
      </trkpt>
      <trkpt lat="42.693573581054807" lon="1.404369352385402">
        <ele>2046.0999999999999</ele>
        <time>2025-07-15T11:10:44Z</time>
      </trkpt>
      <trkpt lat="42.693480290472507" lon="1.404368346557021">
        <ele>2050.4200000000001</ele>
        <time>2025-07-15T11:11:07Z</time>
      </trkpt>
      <trkpt lat="42.693436201661825" lon="1.404277989640832">
        <ele>2051.6199999999999</ele>
        <time>2025-07-15T11:11:29Z</time>
      </trkpt>
      <trkpt lat="42.693392699584365" lon="1.404174054041505">
        <ele>2053.46</ele>
        <time>2025-07-15T11:11:55Z</time>
      </trkpt>
      <trkpt lat="42.693380545824766" lon="1.404070034623146">
        <ele>2055.3000000000002</ele>
        <time>2025-07-15T11:12:14Z</time>
      </trkpt>
      <trkpt lat="42.693357411772013" lon="1.403961656615138">
        <ele>2056.79</ele>
        <time>2025-07-15T11:12:32Z</time>
      </trkpt>
      <trkpt lat="42.693295385688543" lon="1.403886638581753">
        <ele>2058.6199999999999</ele>
        <time>2025-07-15T11:13:14Z</time>
      </trkpt>
      <trkpt lat="42.693245178088546" lon="1.403808435425162">
        <ele>2060.1799999999998</ele>
        <time>2025-07-15T11:13:34Z</time>
      </trkpt>
      <trkpt lat="42.693221289664507" lon="1.40368958003819">
        <ele>2061.4899999999998</ele>
        <time>2025-07-15T11:13:56Z</time>
      </trkpt>
      <trkpt lat="42.693211315199733" lon="1.40357282012701">
        <ele>2064.2600000000002</ele>
        <time>2025-07-15T11:14:18Z</time>
      </trkpt>
      <trkpt lat="42.693201843649149" lon="1.403452204540372">
        <ele>2065.5700000000002</ele>
        <time>2025-07-15T11:14:39Z</time>
      </trkpt>
      <trkpt lat="42.69316965714097" lon="1.40333728864789">
        <ele>2067.4099999999999</ele>
        <time>2025-07-15T11:15:03Z</time>
      </trkpt>
      <trkpt lat="42.693146103993058" lon="1.403217930346727">
        <ele>2069.0799999999999</ele>
        <time>2025-07-15T11:15:30Z</time>
      </trkpt>
      <trkpt lat="42.693130681291223" lon="1.403102846816182">
        <ele>2070.9699999999998</ele>
        <time>2025-07-15T11:15:51Z</time>
      </trkpt>
      <trkpt lat="42.693106876686215" lon="1.402981979772449">
        <ele>2072.54</ele>
        <time>2025-07-15T11:16:11Z</time>
      </trkpt>
      <trkpt lat="42.693064967170358" lon="1.402880223467946">
        <ele>2075.48</ele>
        <time>2025-07-15T11:16:32Z</time>
      </trkpt>
      <trkpt lat="42.693003695458174" lon="1.402845690026879">
        <ele>2079.46</ele>
        <time>2025-07-15T11:17:12Z</time>
      </trkpt>
      <trkpt lat="42.692930940538645" lon="1.402801936492324">
        <ele>2083.4400000000001</ele>
        <time>2025-07-15T11:17:37Z</time>
      </trkpt>
      <trkpt lat="42.692842343822122" lon="1.402810737490654">
        <ele>2086.2199999999998</ele>
        <time>2025-07-15T11:18:01Z</time>
      </trkpt>
      <trkpt lat="42.692776462063193" lon="1.402766397222877">
        <ele>2090.77</ele>
        <time>2025-07-15T11:18:43Z</time>
      </trkpt>
      <trkpt lat="42.692689877003431" lon="1.402797410264611">
        <ele>2094.7800000000002</ele>
        <time>2025-07-15T11:19:05Z</time>
      </trkpt>
      <trkpt lat="42.692694738507271" lon="1.402674866840243">
        <ele>2095.8899999999999</ele>
        <time>2025-07-15T11:19:51Z</time>
      </trkpt>
      <trkpt lat="42.692755088210106" lon="1.402578139677644">
        <ele>2099.1199999999999</ele>
        <time>2025-07-15T11:20:11Z</time>
      </trkpt>
      <trkpt lat="42.69275626167655" lon="1.402464145794511">
        <ele>2101.5799999999999</ele>
        <time>2025-07-15T11:20:32Z</time>
      </trkpt>
      <trkpt lat="42.692708065733314" lon="1.402378147467971">
        <ele>2102.8899999999999</ele>
        <time>2025-07-15T11:20:46Z</time>
      </trkpt>
      <trkpt lat="42.692646710202098" lon="1.402310924604535">
        <ele>2105.3299999999999</ele>
        <time>2025-07-15T11:21:00Z</time>
      </trkpt>
      <trkpt lat="42.692588958889246" lon="1.402214951813221">
        <ele>2104.8099999999999</ele>
        <time>2025-07-15T11:21:19Z</time>
      </trkpt>
      <trkpt lat="42.692493656650186" lon="1.402141526341438">
        <ele>2105.5999999999999</ele>
        <time>2025-07-15T11:21:47Z</time>
      </trkpt>
      <trkpt lat="42.69241570495069" lon="1.402067430317402">
        <ele>2107.21</ele>
        <time>2025-07-15T11:22:22Z</time>
      </trkpt>
      <trkpt lat="42.692341608926654" lon="1.401967015117407">
        <ele>2108.0599999999999</ele>
        <time>2025-07-15T11:22:45Z</time>
      </trkpt>
      <trkpt lat="42.692299028858542" lon="1.40194958075881">
        <ele>2111.2199999999998</ele>
        <time>2025-07-15T11:23:07Z</time>
      </trkpt>
      <trkpt lat="42.692292239516973" lon="1.402046224102378">
        <ele>2114.5300000000002</ele>
        <time>2025-07-15T11:23:26Z</time>
      </trkpt>
      <trkpt lat="42.692239014431834" lon="1.401961902156472">
        <ele>2115</ele>
        <time>2025-07-15T11:23:59Z</time>
      </trkpt>
      <trkpt lat="42.692191572859883" lon="1.401863833889365">
        <ele>2117.1100000000001</ele>
        <time>2025-07-15T11:24:20Z</time>
      </trkpt>
      <trkpt lat="42.692141029983759" lon="1.401774398982525">
        <ele>2119.2199999999998</ele>
        <time>2025-07-15T11:24:42Z</time>
      </trkpt>
      <trkpt lat="42.692089648917317" lon="1.401694938540459">
        <ele>2123.3299999999999</ele>
        <time>2025-07-15T11:25:10Z</time>
      </trkpt>
      <trkpt lat="42.692047823220491" lon="1.401605838909745">
        <ele>2126.0900000000001</ele>
        <time>2025-07-15T11:26:01Z</time>
      </trkpt>
      <trkpt lat="42.692024856805801" lon="1.401503914967179">
        <ele>2128.2199999999998</ele>
        <time>2025-07-15T11:26:22Z</time>
      </trkpt>
      <trkpt lat="42.691981606185436" lon="1.401406265795231">
        <ele>2131.3099999999999</ele>
        <time>2025-07-15T11:26:46Z</time>
      </trkpt>
      <trkpt lat="42.691943300887942" lon="1.40133636072278">
        <ele>2137.5599999999999</ele>
        <time>2025-07-15T11:27:14Z</time>
      </trkpt>
      <trkpt lat="42.691910611465573" lon="1.401236029341817">
        <ele>2140.7600000000002</ele>
        <time>2025-07-15T11:27:42Z</time>
      </trkpt>
      <trkpt lat="42.691898457705975" lon="1.401128573343158">
        <ele>2144.3099999999999</ele>
        <time>2025-07-15T11:28:11Z</time>
      </trkpt>
      <trkpt lat="42.691869204863906" lon="1.401014998555183">
        <ele>2146.7600000000002</ele>
        <time>2025-07-15T11:28:33Z</time>
      </trkpt>
      <trkpt lat="42.691835341975093" lon="1.400909554213285">
        <ele>2150.8000000000002</ele>
        <time>2025-07-15T11:28:54Z</time>
      </trkpt>
      <trkpt lat="42.691794270649552" lon="1.400812407955527">
        <ele>2153.4200000000001</ele>
        <time>2025-07-15T11:29:14Z</time>
      </trkpt>
      <trkpt lat="42.691728975623846" lon="1.400756249204278">
        <ele>2154.46</ele>
        <time>2025-07-15T11:29:35Z</time>
      </trkpt>
      <trkpt lat="42.691685976460576" lon="1.400645272806287">
        <ele>2156.5300000000002</ele>
        <time>2025-07-15T11:30:01Z</time>
      </trkpt>
      <trkpt lat="42.691673738881946" lon="1.400518203154206">
        <ele>2157.5700000000002</ele>
        <time>2025-07-15T11:30:29Z</time>
      </trkpt>
      <trkpt lat="42.691678516566753" lon="1.40039331279695">
        <ele>2159.0900000000001</ele>
        <time>2025-07-15T11:30:50Z</time>
      </trkpt>
      <trkpt lat="42.691609198227525" lon="1.400404376909137">
        <ele>2162.1900000000001</ele>
        <time>2025-07-15T11:31:38Z</time>
      </trkpt>
      <trkpt lat="42.691575083881617" lon="1.400295244529843">
        <ele>2162.4499999999998</ele>
        <time>2025-07-15T11:32:02Z</time>
      </trkpt>
      <trkpt lat="42.691491516306996" lon="1.400289293378592">
        <ele>2164.9699999999998</ele>
        <time>2025-07-15T11:32:25Z</time>
      </trkpt>
      <trkpt lat="42.691445164382458" lon="1.400217628106475">
        <ele>2167.8099999999999</ele>
        <time>2025-07-15T11:32:53Z</time>
      </trkpt>
      <trkpt lat="42.691459413617849" lon="1.400111680850387">
        <ele>2171.3600000000001</ele>
        <time>2025-07-15T11:33:18Z</time>
      </trkpt>
      <trkpt lat="42.691462263464928" lon="1.400028532370925">
        <ele>2174.4200000000001</ele>
        <time>2025-07-15T11:34:10Z</time>
      </trkpt>
      <trkpt lat="42.691466873511672" lon="1.399984192103148">
        <ele>2177.5700000000002</ele>
        <time>2025-07-15T11:34:41Z</time>
      </trkpt>
      <trkpt lat="42.691397303715348" lon="1.399976229295135">
        <ele>2179.3800000000001</ele>
        <time>2025-07-15T11:35:00Z</time>
      </trkpt>
      <trkpt lat="42.691361429169774" lon="1.399903725832701">
        <ele>2181.6399999999999</ele>
        <time>2025-07-15T11:35:23Z</time>
      </trkpt>
      <trkpt lat="42.69136612303555" lon="1.39978202059865">
        <ele>2186.1700000000001</ele>
        <time>2025-07-15T11:35:43Z</time>
      </trkpt>
      <trkpt lat="42.691403003409505" lon="1.39967842027545">
        <ele>2186.8099999999999</ele>
        <time>2025-07-15T11:35:56Z</time>
      </trkpt>
      <trkpt lat="42.691434100270271" lon="1.399559900164604">
        <ele>2188.3499999999999</ele>
        <time>2025-07-15T11:36:11Z</time>
      </trkpt>
      <trkpt lat="42.691442314535379" lon="1.399427046999335">
        <ele>2190.0900000000001</ele>
        <time>2025-07-15T11:36:26Z</time>
      </trkpt>
      <trkpt lat="42.691468382254243" lon="1.399313220754266">
        <ele>2192.0500000000002</ele>
        <time>2025-07-15T11:36:42Z</time>
      </trkpt>
      <trkpt lat="42.691462347283959" lon="1.399200400337577">
        <ele>2194.6100000000001</ele>
        <time>2025-07-15T11:37:07Z</time>
      </trkpt>
      <trkpt lat="42.691483553498983" lon="1.399079700931907">
        <ele>2195.8099999999999</ele>
        <time>2025-07-15T11:37:27Z</time>
      </trkpt>
      <trkpt lat="42.691476931795478" lon="1.398960594087839">
        <ele>2196.9400000000001</ele>
        <time>2025-07-15T11:37:43Z</time>
      </trkpt>
      <trkpt lat="42.691466119140387" lon="1.398833859711886">
        <ele>2198.4200000000001</ele>
        <time>2025-07-15T11:38:04Z</time>
      </trkpt>
      <trkpt lat="42.691449439153075" lon="1.398724978789687">
        <ele>2200.0100000000002</ele>
        <time>2025-07-15T11:38:35Z</time>
      </trkpt>
      <trkpt lat="42.691437369212508" lon="1.398603776469827">
        <ele>2202.5999999999999</ele>
        <time>2025-07-15T11:38:55Z</time>
      </trkpt>
      <trkpt lat="42.691408786922693" lon="1.398500679060817">
        <ele>2205.9099999999999</ele>
        <time>2025-07-15T11:39:17Z</time>
      </trkpt>
      <trkpt lat="42.691397722810507" lon="1.398441251367331">
        <ele>2206.4499999999998</ele>
        <time>2025-07-15T11:39:48Z</time>
      </trkpt>
      <trkpt lat="42.691374337300658" lon="1.398337315768004">
        <ele>2207.9200000000001</ele>
        <time>2025-07-15T11:40:09Z</time>
      </trkpt>
      <trkpt lat="42.691332930698991" lon="1.39822231605649">
        <ele>2210.1399999999999</ele>
        <time>2025-07-15T11:40:30Z</time>
      </trkpt>
      <trkpt lat="42.691298061981797" lon="1.39814511872828">
        <ele>2212.8200000000002</ele>
        <time>2025-07-15T11:40:54Z</time>
      </trkpt>
      <trkpt lat="42.691266126930714" lon="1.398036573082209">
        <ele>2215.1700000000001</ele>
        <time>2025-07-15T11:41:26Z</time>
      </trkpt>
      <trkpt lat="42.691241400316358" lon="1.397915789857507">
        <ele>2217.98</ele>
        <time>2025-07-15T11:42:03Z</time>
      </trkpt>
      <trkpt lat="42.691244753077626" lon="1.397787462919951">
        <ele>2221.04</ele>
        <time>2025-07-15T11:42:38Z</time>
      </trkpt>
      <trkpt lat="42.691242657601833" lon="1.397670283913612">
        <ele>2222.3400000000001</ele>
        <time>2025-07-15T11:42:57Z</time>
      </trkpt>
      <trkpt lat="42.691253470256925" lon="1.397556122392416">
        <ele>2225.6399999999999</ele>
        <time>2025-07-15T11:43:20Z</time>
      </trkpt>
      <trkpt lat="42.691275179386139" lon="1.397447157651186">
        <ele>2227.9400000000001</ele>
        <time>2025-07-15T11:43:43Z</time>
      </trkpt>
      <trkpt lat="42.691292278468609" lon="1.397322015836835">
        <ele>2228.3800000000001</ele>
        <time>2025-07-15T11:43:59Z</time>
      </trkpt>
      <trkpt lat="42.691328153014183" lon="1.397221181541681">
        <ele>2231.3400000000001</ele>
        <time>2025-07-15T11:44:24Z</time>
      </trkpt>
      <trkpt lat="42.691327398642898" lon="1.397094698622823">
        <ele>2231.48</ele>
        <time>2025-07-15T11:44:39Z</time>
      </trkpt>
      <trkpt lat="42.691303342580795" lon="1.396976513788104">
        <ele>2229.9899999999998</ele>
        <time>2025-07-15T11:44:51Z</time>
      </trkpt>
      <trkpt lat="42.691294876858592" lon="1.396853467449546">
        <ele>2229.9000000000001</ele>
        <time>2025-07-15T11:45:02Z</time>
      </trkpt>
      <trkpt lat="42.691273922100663" lon="1.396733773872256">
        <ele>2229.77</ele>
        <time>2025-07-15T11:45:13Z</time>
      </trkpt>
      <trkpt lat="42.691288003697991" lon="1.396631263196468">
        <ele>2231.3899999999999</ele>
        <time>2025-07-15T11:45:41Z</time>
      </trkpt>
      <trkpt lat="42.691322537139058" lon="1.396520957350731">
        <ele>2233.8600000000001</ele>
        <time>2025-07-15T11:46:17Z</time>
      </trkpt>
      <trkpt lat="42.691374253481627" lon="1.396477958187461">
        <ele>2234.27</ele>
        <time>2025-07-15T11:47:17Z</time>
      </trkpt>
      <trkpt lat="42.691333349794149" lon="1.396446274593473">
        <ele>2233.3699999999999</ele>
        <time>2025-07-15T11:47:55Z</time>
      </trkpt>
      <trkpt lat="42.691359417513013" lon="1.396473264321685">
        <ele>2233.6100000000001</ele>
        <time>2025-07-15T11:48:42Z</time>
      </trkpt>
      <trkpt lat="42.691360926255584" lon="1.39647695235908">
        <ele>2234.4200000000001</ele>
        <time>2025-07-15T11:50:04Z</time>
      </trkpt>
      <trkpt lat="42.691369224339724" lon="1.396494219079614">
        <ele>2234.0999999999999</ele>
        <time>2025-07-15T11:51:43Z</time>
      </trkpt>
    </trkseg>
  </trk>

  <trk>
    <name>4trek-pirenei2025-07-16</name>
    <extensions>
      <gpxx:TrackExtension>
        <gpxx:DisplayColor>Red</gpxx:DisplayColor>
      </gpxx:TrackExtension>
      <gpxtrkx:TrackStatsExtension xmlns:gpxtrkx="http://www.garmin.com/xmlschemas/TrackStatsExtension/v1">
        <gpxtrkx:Distance>13210</gpxtrkx:Distance>
        <gpxtrkx:TotalElapsedTime>40071</gpxtrkx:TotalElapsedTime>
        <gpxtrkx:MovingTime>23492</gpxtrkx:MovingTime>
        <gpxtrkx:StoppedTime>16302</gpxtrkx:StoppedTime>
        <gpxtrkx:MovingSpeed>0.562</gpxtrkx:MovingSpeed>
        <gpxtrkx:MaxSpeed>17.639</gpxtrkx:MaxSpeed>
        <gpxtrkx:MaxElevation>2918.996</gpxtrkx:MaxElevation>
        <gpxtrkx:MinElevation>1911.061</gpxtrkx:MinElevation>
        <gpxtrkx:Ascent>998</gpxtrkx:Ascent>
        <gpxtrkx:Descent>1297.53</gpxtrkx:Descent>
        <gpxtrkx:AvgAscentRate>0.043</gpxtrkx:AvgAscentRate>
        <gpxtrkx:MaxAscentRate>0.454</gpxtrkx:MaxAscentRate>
        <gpxtrkx:AvgDescentRate>0.055</gpxtrkx:AvgDescentRate>
        <gpxtrkx:MaxDescentRate>-0.41</gpxtrkx:MaxDescentRate>
      </gpxtrkx:TrackStatsExtension>
    </extensions>
    <trkseg>
      <trkpt lat="42.691210051998496" lon="1.396608715876937">
        <ele>2254.4499999999998</ele>
        <time>2025-07-16T05:44:46Z</time>
      </trkpt>
      <trkpt lat="42.691182726994157" lon="1.396484328433871">
        <ele>2244.5</ele>
        <time>2025-07-16T05:45:11Z</time>
      </trkpt>
      <trkpt lat="42.691204184666276" lon="1.396370502188802">
        <ele>2243.27</ele>
        <time>2025-07-16T05:45:30Z</time>
      </trkpt>
      <trkpt lat="42.691264031454921" lon="1.396268829703331">
        <ele>2241.5599999999999</ele>
        <time>2025-07-16T05:45:48Z</time>
      </trkpt>
      <trkpt lat="42.69129135645926" lon="1.396151231601834">
        <ele>2239.8099999999999</ele>
        <time>2025-07-16T05:46:03Z</time>
      </trkpt>
      <trkpt lat="42.691317172721028" lon="1.396036231890321">
        <ele>2237.6199999999999</ele>
        <time>2025-07-16T05:46:18Z</time>
      </trkpt>
      <trkpt lat="42.691338043659925" lon="1.395917041227222">
        <ele>2235.48</ele>
        <time>2025-07-16T05:46:35Z</time>
      </trkpt>
      <trkpt lat="42.691278699785471" lon="1.395784104242921">
        <ele>2235.6900000000001</ele>
        <time>2025-07-16T05:46:48Z</time>
      </trkpt>
      <trkpt lat="42.691212147474289" lon="1.395682264119387">
        <ele>2237.52</ele>
        <time>2025-07-16T05:47:11Z</time>
      </trkpt>
      <trkpt lat="42.691152971237898" lon="1.395581848919392">
        <ele>2239.4000000000001</ele>
        <time>2025-07-16T05:47:29Z</time>
      </trkpt>
      <trkpt lat="42.691148277372122" lon="1.395449163392186">
        <ele>2243.23</ele>
        <time>2025-07-16T05:47:51Z</time>
      </trkpt>
      <trkpt lat="42.691086754202843" lon="1.395334331318736">
        <ele>2244.3499999999999</ele>
        <time>2025-07-16T05:48:07Z</time>
      </trkpt>
      <trkpt lat="42.691049119457603" lon="1.39520893804729">
        <ele>2245.6399999999999</ele>
        <time>2025-07-16T05:48:23Z</time>
      </trkpt>
      <trkpt lat="42.690975526347756" lon="1.39525244012475">
        <ele>2244.0599999999999</ele>
        <time>2025-07-16T05:48:35Z</time>
      </trkpt>
      <trkpt lat="42.690917942672968" lon="1.395263588055968">
        <ele>2244.25</ele>
        <time>2025-07-16T05:50:35Z</time>
      </trkpt>
      <trkpt lat="42.690859101712704" lon="1.39518697746098">
        <ele>2245.29</ele>
        <time>2025-07-16T05:50:48Z</time>
      </trkpt>
      <trkpt lat="42.690775198861957" lon="1.395142804831266">
        <ele>2247.27</ele>
        <time>2025-07-16T05:51:03Z</time>
      </trkpt>
      <trkpt lat="42.690735887736082" lon="1.395118245854974">
        <ele>2249.9099999999999</ele>
        <time>2025-07-16T05:51:21Z</time>
      </trkpt>
      <trkpt lat="42.690668581053615" lon="1.39502914622426">
        <ele>2253.3899999999999</ele>
        <time>2025-07-16T05:51:48Z</time>
      </trkpt>
      <trkpt lat="42.690599178895354" lon="1.394942477345467">
        <ele>2255.48</ele>
        <time>2025-07-16T05:52:09Z</time>
      </trkpt>
      <trkpt lat="42.690511252731085" lon="1.394972484558821">
        <ele>2259.46</ele>
        <time>2025-07-16T05:52:41Z</time>
      </trkpt>
      <trkpt lat="42.690511168912053" lon="1.395069966092706">
        <ele>2259.8699999999999</ele>
        <time>2025-07-16T05:53:22Z</time>
      </trkpt>
      <trkpt lat="42.690456937998533" lon="1.395121347159147">
        <ele>2261.3000000000002</ele>
        <time>2025-07-16T05:53:45Z</time>
      </trkpt>
      <trkpt lat="42.690388709306717" lon="1.395079270005226">
        <ele>2262.8400000000001</ele>
        <time>2025-07-16T05:54:01Z</time>
      </trkpt>
      <trkpt lat="42.690320396795869" lon="1.395035684108734">
        <ele>2266.2600000000002</ele>
        <time>2025-07-16T05:54:25Z</time>
      </trkpt>
      <trkpt lat="42.690235488116741" lon="1.395040294155479">
        <ele>2268.79</ele>
        <time>2025-07-16T05:54:56Z</time>
      </trkpt>
      <trkpt lat="42.690151752904058" lon="1.395087148994207">
        <ele>2271.54</ele>
        <time>2025-07-16T05:55:18Z</time>
      </trkpt>
      <trkpt lat="42.690137336030602" lon="1.395205920562148">
        <ele>2273.0300000000002</ele>
        <time>2025-07-16T05:55:35Z</time>
      </trkpt>
      <trkpt lat="42.690058629959822" lon="1.395247494801879">
        <ele>2275.8400000000001</ele>
        <time>2025-07-16T05:55:56Z</time>
      </trkpt>
      <trkpt lat="42.690005907788873" lon="1.395339192822576">
        <ele>2278.79</ele>
        <time>2025-07-16T05:56:21Z</time>
      </trkpt>
      <trkpt lat="42.689995849505067" lon="1.395420329645276">
        <ele>2280.1500000000001</ele>
        <time>2025-07-16T05:57:11Z</time>
      </trkpt>
      <trkpt lat="42.689920663833618" lon="1.395469279959798">
        <ele>2284.9099999999999</ele>
        <time>2025-07-16T05:57:37Z</time>
      </trkpt>
      <trkpt lat="42.689850507304072" lon="1.395398201420903">
        <ele>2288.3800000000001</ele>
        <time>2025-07-16T05:58:03Z</time>
      </trkpt>
      <trkpt lat="42.689758138731122" lon="1.395391328260303">
        <ele>2289.23</ele>
        <time>2025-07-16T05:58:18Z</time>
      </trkpt>
      <trkpt lat="42.689666440710425" lon="1.395390741527081">
        <ele>2291.5</ele>
        <time>2025-07-16T05:58:38Z</time>
      </trkpt>
      <trkpt lat="42.689586728811264" lon="1.395389987155795">
        <ele>2292.9099999999999</ele>
        <time>2025-07-16T05:58:55Z</time>
      </trkpt>
      <trkpt lat="42.689531994983554" lon="1.395447989925742">
        <ele>2295.3099999999999</ele>
        <time>2025-07-16T05:59:15Z</time>
      </trkpt>
      <trkpt lat="42.689502825960517" lon="1.395547734573484">
        <ele>2297.5100000000002</ele>
        <time>2025-07-16T05:59:35Z</time>
      </trkpt>
      <trkpt lat="42.689458318054676" lon="1.395658124238253">
        <ele>2300.5100000000002</ele>
        <time>2025-07-16T06:00:04Z</time>
      </trkpt>
      <trkpt lat="42.689389754086733" lon="1.395667931064963">
        <ele>2301.5599999999999</ele>
        <time>2025-07-16T06:02:39Z</time>
      </trkpt>
      <trkpt lat="42.689308533445001" lon="1.395603474229574">
        <ele>2305.5799999999999</ele>
        <time>2025-07-16T06:03:06Z</time>
      </trkpt>
      <trkpt lat="42.68924692645669" lon="1.395527618005872">
        <ele>2307.02</ele>
        <time>2025-07-16T06:03:22Z</time>
      </trkpt>
      <trkpt lat="42.689174590632319" lon="1.39554413035512">
        <ele>2310.1900000000001</ele>
        <time>2025-07-16T06:03:46Z</time>
      </trkpt>
      <trkpt lat="42.689129579812288" lon="1.395638762041926">
        <ele>2312.8800000000001</ele>
        <time>2025-07-16T06:04:09Z</time>
      </trkpt>
      <trkpt lat="42.689044419676065" lon="1.39561990275979">
        <ele>2315.5100000000002</ele>
        <time>2025-07-16T06:04:34Z</time>
      </trkpt>
      <trkpt lat="42.688959008082747" lon="1.395594170317054">
        <ele>2318.3899999999999</ele>
        <time>2025-07-16T06:05:04Z</time>
      </trkpt>
      <trkpt lat="42.688876362517476" lon="1.395660638809204">
        <ele>2322.2800000000002</ele>
        <time>2025-07-16T06:05:50Z</time>
      </trkpt>
      <trkpt lat="42.688823472708464" lon="1.39569316059351">
        <ele>2325.5799999999999</ele>
        <time>2025-07-16T06:06:12Z</time>
      </trkpt>
      <trkpt lat="42.688747365027666" lon="1.395661309361458">
        <ele>2327.8499999999999</ele>
        <time>2025-07-16T06:06:35Z</time>
      </trkpt>
      <trkpt lat="42.688680225983262" lon="1.395723922178149">
        <ele>2330.3499999999999</ele>
        <time>2025-07-16T06:07:07Z</time>
      </trkpt>
      <trkpt lat="42.688618786633015" lon="1.395829198881984">
        <ele>2333.9699999999998</ele>
        <time>2025-07-16T06:07:39Z</time>
      </trkpt>
      <trkpt lat="42.688559023663402" lon="1.395917208865285">
        <ele>2336.21</ele>
        <time>2025-07-16T06:08:04Z</time>
      </trkpt>
      <trkpt lat="42.688490292057395" lon="1.395992143079639">
        <ele>2338.3099999999999</ele>
        <time>2025-07-16T06:08:29Z</time>
      </trkpt>
      <trkpt lat="42.688426589593291" lon="1.396023156121373">
        <ele>2341.9499999999998</ele>
        <time>2025-07-16T06:08:53Z</time>
      </trkpt>
      <trkpt lat="42.688356433063745" lon="1.395962052047253">
        <ele>2344.6100000000001</ele>
        <time>2025-07-16T06:09:16Z</time>
      </trkpt>
      <trkpt lat="42.688264986500144" lon="1.395941516384482">
        <ele>2345.75</ele>
        <time>2025-07-16T06:09:34Z</time>
      </trkpt>
      <trkpt lat="42.68818125128746" lon="1.395922154188156">
        <ele>2344</ele>
        <time>2025-07-16T06:09:49Z</time>
      </trkpt>
      <trkpt lat="42.688083853572607" lon="1.395932966843247">
        <ele>2342.6700000000001</ele>
        <time>2025-07-16T06:10:00Z</time>
      </trkpt>
      <trkpt lat="42.687991401180625" lon="1.395953251048923">
        <ele>2344.6700000000001</ele>
        <time>2025-07-16T06:10:16Z</time>
      </trkpt>
      <trkpt lat="42.687899200245738" lon="1.395963728427887">
        <ele>2348.1799999999998</ele>
        <time>2025-07-16T06:10:47Z</time>
      </trkpt>
      <trkpt lat="42.687812615185976" lon="1.395962219685316">
        <ele>2352.04</ele>
        <time>2025-07-16T06:11:16Z</time>
      </trkpt>
      <trkpt lat="42.68774002790451" lon="1.396031705662608">
        <ele>2353.46</ele>
        <time>2025-07-16T06:11:36Z</time>
      </trkpt>
      <trkpt lat="42.687652604654431" lon="1.39605475589633">
        <ele>2356.9899999999998</ele>
        <time>2025-07-16T06:12:06Z</time>
      </trkpt>
      <trkpt lat="42.687563756480813" lon="1.396080991253257">
        <ele>2358.5100000000002</ele>
        <time>2025-07-16T06:12:34Z</time>
      </trkpt>
      <trkpt lat="42.687478177249432" lon="1.396043775603175">
        <ele>2359.4000000000001</ele>
        <time>2025-07-16T06:12:51Z</time>
      </trkpt>
      <trkpt lat="42.687389496713877" lon="1.396061042323709">
        <ele>2363.3499999999999</ele>
        <time>2025-07-16T06:13:16Z</time>
      </trkpt>
      <trkpt lat="42.68730416893959" lon="1.39606062322855">
        <ele>2364.46</ele>
        <time>2025-07-16T06:13:33Z</time>
      </trkpt>
      <trkpt lat="42.687223283573985" lon="1.39608602039516">
        <ele>2368.3600000000001</ele>
        <time>2025-07-16T06:14:01Z</time>
      </trkpt>
      <trkpt lat="42.687167879194021" lon="1.396171767264605">
        <ele>2371.4499999999998</ele>
        <time>2025-07-16T06:14:31Z</time>
      </trkpt>
      <trkpt lat="42.687086574733257" lon="1.396183837205172">
        <ele>2374.2199999999998</ele>
        <time>2025-07-16T06:14:54Z</time>
      </trkpt>
      <trkpt lat="42.687002839520574" lon="1.396140670403838">
        <ele>2376.29</ele>
        <time>2025-07-16T06:15:14Z</time>
      </trkpt>
      <trkpt lat="42.6869186013937" lon="1.396107478067279">
        <ele>2378.0799999999999</ele>
        <time>2025-07-16T06:15:35Z</time>
      </trkpt>
      <trkpt lat="42.68684727139771" lon="1.396111752837896">
        <ele>2378.8099999999999</ele>
        <time>2025-07-16T06:16:38Z</time>
      </trkpt>
      <trkpt lat="42.686758255586028" lon="1.396127175539732">
        <ele>2377.25</ele>
        <time>2025-07-16T06:16:55Z</time>
      </trkpt>
      <trkpt lat="42.686662618070841" lon="1.396102448925376">
        <ele>2377.0500000000002</ele>
        <time>2025-07-16T06:17:09Z</time>
      </trkpt>
      <trkpt lat="42.686583241447806" lon="1.396046541631222">
        <ele>2376.2600000000002</ele>
        <time>2025-07-16T06:17:21Z</time>
      </trkpt>
      <trkpt lat="42.686509564518929" lon="1.395970350131393">
        <ele>2376.4899999999998</ele>
        <time>2025-07-16T06:17:37Z</time>
      </trkpt>
      <trkpt lat="42.686426416039467" lon="1.395910587161779">
        <ele>2376.3699999999999</ele>
        <time>2025-07-16T06:17:50Z</time>
      </trkpt>
      <trkpt lat="42.686330862343311" lon="1.395937744528055">
        <ele>2377.5500000000002</ele>
        <time>2025-07-16T06:18:05Z</time>
      </trkpt>
      <trkpt lat="42.686240253970027" lon="1.395962219685316">
        <ele>2379.6500000000001</ele>
        <time>2025-07-16T06:18:20Z</time>
      </trkpt>
      <trkpt lat="42.68615685403347" lon="1.395912934094667">
        <ele>2381.9499999999998</ele>
        <time>2025-07-16T06:18:37Z</time>
      </trkpt>
      <trkpt lat="42.686080159619451" lon="1.395847471430898">
        <ele>2383.6700000000001</ele>
        <time>2025-07-16T06:18:57Z</time>
      </trkpt>
      <trkpt lat="42.685994999483228" lon="1.395819475874305">
        <ele>2382.2800000000002</ele>
        <time>2025-07-16T06:19:13Z</time>
      </trkpt>
      <trkpt lat="42.685901205986738" lon="1.395827857777476">
        <ele>2383.5799999999999</ele>
        <time>2025-07-16T06:19:32Z</time>
      </trkpt>
      <trkpt lat="42.685826104134321" lon="1.395763317123056">
        <ele>2385.4099999999999</ele>
        <time>2025-07-16T06:19:50Z</time>
      </trkpt>
      <trkpt lat="42.685753935948014" lon="1.395742446184158">
        <ele>2385.6300000000001</ele>
        <time>2025-07-16T06:21:08Z</time>
      </trkpt>
      <trkpt lat="42.685674978420138" lon="1.395683269947767">
        <ele>2383.9499999999998</ele>
        <time>2025-07-16T06:21:23Z</time>
      </trkpt>
      <trkpt lat="42.68560079857707" lon="1.395605066791177">
        <ele>2383.4200000000001</ele>
        <time>2025-07-16T06:21:33Z</time>
      </trkpt>
      <trkpt lat="42.685535000637174" lon="1.395515967160463">
        <ele>2383.0999999999999</ele>
        <time>2025-07-16T06:21:43Z</time>
      </trkpt>
      <trkpt lat="42.685448750853539" lon="1.395479002967477">
        <ele>2382.1100000000001</ele>
        <time>2025-07-16T06:21:55Z</time>
      </trkpt>
      <trkpt lat="42.685358645394444" lon="1.395453019067645">
        <ele>2381.7199999999998</ele>
        <time>2025-07-16T06:22:04Z</time>
      </trkpt>
      <trkpt lat="42.685277005657554" lon="1.395389903336763">
        <ele>2383</ele>
        <time>2025-07-16T06:22:15Z</time>
      </trkpt>
      <trkpt lat="42.685200478881598" lon="1.395322596654296">
        <ele>2382.6799999999998</ele>
        <time>2025-07-16T06:22:27Z</time>
      </trkpt>
      <trkpt lat="42.685126885771751" lon="1.395232994109392">
        <ele>2379.5900000000001</ele>
        <time>2025-07-16T06:22:41Z</time>
      </trkpt>
      <trkpt lat="42.685037367045879" lon="1.395185636356473">
        <ele>2379.79</ele>
        <time>2025-07-16T06:22:51Z</time>
      </trkpt>
      <trkpt lat="42.684939214959741" lon="1.395173231139779">
        <ele>2380.4299999999998</ele>
        <time>2025-07-16T06:23:04Z</time>
      </trkpt>
      <trkpt lat="42.684845589101315" lon="1.395153868943453">
        <ele>2379.2800000000002</ele>
        <time>2025-07-16T06:23:16Z</time>
      </trkpt>
      <trkpt lat="42.684765961021185" lon="1.395082622766495">
        <ele>2379.3800000000001</ele>
        <time>2025-07-16T06:23:29Z</time>
      </trkpt>
      <trkpt lat="42.684668647125363" lon="1.395025542005897">
        <ele>2375.9099999999999</ele>
        <time>2025-07-16T06:23:58Z</time>
      </trkpt>
      <trkpt lat="42.684578709304333" lon="1.394955385476351">
        <ele>2376.0999999999999</ele>
        <time>2025-07-16T06:24:09Z</time>
      </trkpt>
      <trkpt lat="42.6844940520823" lon="1.394917666912079">
        <ele>2377.0100000000002</ele>
        <time>2025-07-16T06:24:19Z</time>
      </trkpt>
      <trkpt lat="42.684417860582471" lon="1.394812725484371">
        <ele>2375.9400000000001</ele>
        <time>2025-07-16T06:24:30Z</time>
      </trkpt>
      <trkpt lat="42.684317445382476" lon="1.394778694957495">
        <ele>2374.5</ele>
        <time>2025-07-16T06:24:41Z</time>
      </trkpt>
      <trkpt lat="42.68422675319016" lon="1.394726559519768">
        <ele>2374.96</ele>
        <time>2025-07-16T06:24:52Z</time>
      </trkpt>
      <trkpt lat="42.684144778177142" lon="1.394659588113427">
        <ele>2373.5</ele>
        <time>2025-07-16T06:25:05Z</time>
      </trkpt>
      <trkpt lat="42.684055343270302" lon="1.394632095471025">
        <ele>2372.71</ele>
        <time>2025-07-16T06:25:18Z</time>
      </trkpt>
      <trkpt lat="42.683961046859622" lon="1.394630922004581">
        <ele>2371.9000000000001</ele>
        <time>2025-07-16T06:25:33Z</time>
      </trkpt>
      <trkpt lat="42.683870187029243" lon="1.394580295309424">
        <ele>2372.3499999999999</ele>
        <time>2025-07-16T06:25:51Z</time>
      </trkpt>
      <trkpt lat="42.683780249208212" lon="1.394548360258341">
        <ele>2375.1199999999999</ele>
        <time>2025-07-16T06:26:15Z</time>
      </trkpt>
      <trkpt lat="42.683692742139101" lon="1.394531428813934">
        <ele>2379.4000000000001</ele>
        <time>2025-07-16T06:26:48Z</time>
      </trkpt>
      <trkpt lat="42.683643372729421" lon="1.39458398334682">
        <ele>2383.5799999999999</ele>
        <time>2025-07-16T06:27:17Z</time>
      </trkpt>
      <trkpt lat="42.683550417423248" lon="1.394571326673031">
        <ele>2386.9699999999998</ele>
        <time>2025-07-16T06:27:51Z</time>
      </trkpt>
      <trkpt lat="42.683451846241951" lon="1.39454148709774">
        <ele>2389.21</ele>
        <time>2025-07-16T06:28:12Z</time>
      </trkpt>
      <trkpt lat="42.683359226211905" lon="1.394506869837642">
        <ele>2392.0500000000002</ele>
        <time>2025-07-16T06:28:34Z</time>
      </trkpt>
      <trkpt lat="42.683250093832612" lon="1.39452388510108">
        <ele>2393.8699999999999</ele>
        <time>2025-07-16T06:28:51Z</time>
      </trkpt>
      <trkpt lat="42.683158311992884" lon="1.394503768533468">
        <ele>2394.9400000000001</ele>
        <time>2025-07-16T06:29:06Z</time>
      </trkpt>
      <trkpt lat="42.683067787438631" lon="1.394473593682051">
        <ele>2396.8499999999999</ele>
        <time>2025-07-16T06:29:23Z</time>
      </trkpt>
      <trkpt lat="42.682974832132459" lon="1.394447525963187">
        <ele>2399.1799999999998</ele>
        <time>2025-07-16T06:29:43Z</time>
      </trkpt>
      <trkpt lat="42.682895036414266" lon="1.39440268278122">
        <ele>2401.23</ele>
        <time>2025-07-16T06:30:04Z</time>
      </trkpt>
      <trkpt lat="42.682806774973869" lon="1.394347362220287">
        <ele>2404.3200000000002</ele>
        <time>2025-07-16T06:30:32Z</time>
      </trkpt>
      <trkpt lat="42.6827188488096" lon="1.394285755231977">
        <ele>2407.3099999999999</ele>
        <time>2025-07-16T06:30:55Z</time>
      </trkpt>
      <trkpt lat="42.682620696723461" lon="1.394247030839324">
        <ele>2408.4499999999998</ele>
        <time>2025-07-16T06:31:11Z</time>
      </trkpt>
      <trkpt lat="42.682526148855686" lon="1.39421216212213">
        <ele>2410.9099999999999</ele>
        <time>2025-07-16T06:31:30Z</time>
      </trkpt>
      <trkpt lat="42.682439815253019" lon="1.394156171008945">
        <ele>2411.2399999999998</ele>
        <time>2025-07-16T06:31:44Z</time>
      </trkpt>
      <trkpt lat="42.682348117232323" lon="1.394091127440333">
        <ele>2412.8299999999999</ele>
        <time>2025-07-16T06:32:03Z</time>
      </trkpt>
      <trkpt lat="42.682302603498101" lon="1.393974702805281">
        <ele>2413.5500000000002</ele>
        <time>2025-07-16T06:32:27Z</time>
      </trkpt>
      <trkpt lat="42.682232111692429" lon="1.393907479941845">
        <ele>2413.71</ele>
        <time>2025-07-16T06:32:41Z</time>
      </trkpt>
      <trkpt lat="42.682146364822984" lon="1.393906977027655">
        <ele>2415.8099999999999</ele>
        <time>2025-07-16T06:33:00Z</time>
      </trkpt>
      <trkpt lat="42.682063300162554" lon="1.393940672278404">
        <ele>2419.9299999999998</ele>
        <time>2025-07-16T06:33:33Z</time>
      </trkpt>
      <trkpt lat="42.682047877460718" lon="1.394058438017964">
        <ele>2423.5500000000002</ele>
        <time>2025-07-16T06:34:08Z</time>
      </trkpt>
      <trkpt lat="42.681976966559887" lon="1.394107891246676">
        <ele>2427.1799999999998</ele>
        <time>2025-07-16T06:34:42Z</time>
      </trkpt>
      <trkpt lat="42.681978894397616" lon="1.394213754683733">
        <ele>2429.9000000000001</ele>
        <time>2025-07-16T06:35:19Z</time>
      </trkpt>
      <trkpt lat="42.681976882740855" lon="1.394322467967868">
        <ele>2434.73</ele>
        <time>2025-07-16T06:35:50Z</time>
      </trkpt>
      <trkpt lat="42.681913515552878" lon="1.394388852640986">
        <ele>2438.4099999999999</ele>
        <time>2025-07-16T06:36:20Z</time>
      </trkpt>
      <trkpt lat="42.681839168071747" lon="1.394432857632637">
        <ele>2441.5999999999999</ele>
        <time>2025-07-16T06:36:53Z</time>
      </trkpt>
      <trkpt lat="42.681751577183604" lon="1.394459260627627">
        <ele>2444.73</ele>
        <time>2025-07-16T06:37:23Z</time>
      </trkpt>
      <trkpt lat="42.681668093428016" lon="1.394497063010931">
        <ele>2448.1300000000001</ele>
        <time>2025-07-16T06:37:56Z</time>
      </trkpt>
      <trkpt lat="42.681571366265416" lon="1.394508294761181">
        <ele>2450.7399999999998</ele>
        <time>2025-07-16T06:38:52Z</time>
      </trkpt>
      <trkpt lat="42.681490816175938" lon="1.394547941163182">
        <ele>2454.8099999999999</ele>
        <time>2025-07-16T06:39:19Z</time>
      </trkpt>
      <trkpt lat="42.681388892233372" lon="1.394532350823283">
        <ele>2458.0700000000002</ele>
        <time>2025-07-16T06:39:50Z</time>
      </trkpt>
      <trkpt lat="42.681296104565263" lon="1.394530758261681">
        <ele>2461.4000000000001</ele>
        <time>2025-07-16T06:40:22Z</time>
      </trkpt>
      <trkpt lat="42.681207004934549" lon="1.394504187628627">
        <ele>2460.71</ele>
        <time>2025-07-16T06:40:58Z</time>
      </trkpt>
      <trkpt lat="42.681123521178961" lon="1.394554730504751">
        <ele>2462.3699999999999</ele>
        <time>2025-07-16T06:41:15Z</time>
      </trkpt>
      <trkpt lat="42.681034002453089" lon="1.394588761031628">
        <ele>2462.54</ele>
        <time>2025-07-16T06:41:31Z</time>
      </trkpt>
      <trkpt lat="42.680996702983975" lon="1.39469051733613">
        <ele>2466.6300000000001</ele>
        <time>2025-07-16T06:42:07Z</time>
      </trkpt>
      <trkpt lat="42.680960660800338" lon="1.3947818800807">
        <ele>2470.52</ele>
        <time>2025-07-16T06:42:40Z</time>
      </trkpt>
      <trkpt lat="42.680963175371289" lon="1.394871147349477">
        <ele>2474.1100000000001</ele>
        <time>2025-07-16T06:43:11Z</time>
      </trkpt>
      <trkpt lat="42.680946830660105" lon="1.394958486780524">
        <ele>2477.3200000000002</ele>
        <time>2025-07-16T06:43:41Z</time>
      </trkpt>
      <trkpt lat="42.68092168495059" lon="1.395064014941454">
        <ele>2480.8099999999999</ele>
        <time>2025-07-16T06:44:20Z</time>
      </trkpt>
      <trkpt lat="42.680891426280141" lon="1.39515177346766">
        <ele>2484.1500000000001</ele>
        <time>2025-07-16T06:44:52Z</time>
      </trkpt>
      <trkpt lat="42.680856054648757" lon="1.395271215587854">
        <ele>2488.1700000000001</ele>
        <time>2025-07-16T06:45:34Z</time>
      </trkpt>
      <trkpt lat="42.680804505944252" lon="1.39537850394845">
        <ele>2492.3800000000001</ele>
        <time>2025-07-16T06:46:23Z</time>
      </trkpt>
      <trkpt lat="42.680753292515874" lon="1.395446145907044">
        <ele>2494.3099999999999</ele>
        <time>2025-07-16T06:46:42Z</time>
      </trkpt>
      <trkpt lat="42.680767038837075" lon="1.395530300214887">
        <ele>2498.0100000000002</ele>
        <time>2025-07-16T06:47:15Z</time>
      </trkpt>
      <trkpt lat="42.680741474032402" lon="1.395612191408873">
        <ele>2501.1900000000001</ele>
        <time>2025-07-16T06:47:55Z</time>
      </trkpt>
      <trkpt lat="42.680701073259115" lon="1.395716043189168">
        <ele>2504.6799999999998</ele>
        <time>2025-07-16T06:48:29Z</time>
      </trkpt>
      <trkpt lat="42.680682968348265" lon="1.395821822807193">
        <ele>2507.6100000000001</ele>
        <time>2025-07-16T06:49:13Z</time>
      </trkpt>
      <trkpt lat="42.680694200098515" lon="1.395838921889663">
        <ele>2508.4000000000001</ele>
        <time>2025-07-16T06:51:02Z</time>
      </trkpt>
      <trkpt lat="42.680655978620052" lon="1.39594092965126">
        <ele>2508.5700000000002</ele>
        <time>2025-07-16T06:51:30Z</time>
      </trkpt>
      <trkpt lat="42.680604597553611" lon="1.39605232514441">
        <ele>2509.96</ele>
        <time>2025-07-16T06:51:46Z</time>
      </trkpt>
      <trkpt lat="42.680578613653779" lon="1.396171599626541">
        <ele>2514.6199999999999</ele>
        <time>2025-07-16T06:52:16Z</time>
      </trkpt>
      <trkpt lat="42.680531591176987" lon="1.396295065060258">
        <ele>2513.2800000000002</ele>
        <time>2025-07-16T06:52:33Z</time>
      </trkpt>
      <trkpt lat="42.680499069392681" lon="1.396402269601822">
        <ele>2514.25</ele>
        <time>2025-07-16T06:52:45Z</time>
      </trkpt>
      <trkpt lat="42.680475600063801" lon="1.396535793319345">
        <ele>2514.2800000000002</ele>
        <time>2025-07-16T06:53:02Z</time>
      </trkpt>
      <trkpt lat="42.680457327514887" lon="1.396657917648554">
        <ele>2512.98</ele>
        <time>2025-07-16T06:53:15Z</time>
      </trkpt>
      <trkpt lat="42.68043452873826" lon="1.396769732236862">
        <ele>2514.6100000000001</ele>
        <time>2025-07-16T06:53:36Z</time>
      </trkpt>
      <trkpt lat="42.680398402735591" lon="1.396895041689277">
        <ele>2516.1500000000001</ele>
        <time>2025-07-16T06:53:54Z</time>
      </trkpt>
      <trkpt lat="42.680333778262138" lon="1.3969870749861">
        <ele>2517.6799999999998</ele>
        <time>2025-07-16T06:54:08Z</time>
      </trkpt>
      <trkpt lat="42.680270494893193" lon="1.397104170173407">
        <ele>2519.8600000000001</ele>
        <time>2025-07-16T06:54:29Z</time>
      </trkpt>
      <trkpt lat="42.680234871804714" lon="1.397217744961381">
        <ele>2522.1599999999999</ele>
        <time>2025-07-16T06:54:47Z</time>
      </trkpt>
      <trkpt lat="42.680146526545286" lon="1.397278513759375">
        <ele>2522.1199999999999</ele>
        <time>2025-07-16T06:55:05Z</time>
      </trkpt>
      <trkpt lat="42.680106125771999" lon="1.397366691380739">
        <ele>2524.5100000000002</ele>
        <time>2025-07-16T06:55:24Z</time>
      </trkpt>
      <trkpt lat="42.680044434964657" lon="1.397440871223807">
        <ele>2529.2800000000002</ele>
        <time>2025-07-16T06:55:54Z</time>
      </trkpt>
      <trkpt lat="42.679994478821754" lon="1.397537430748344">
        <ele>2533.6900000000001</ele>
        <time>2025-07-16T06:56:27Z</time>
      </trkpt>
      <trkpt lat="42.679956173524261" lon="1.397641198709607">
        <ele>2536.1399999999999</ele>
        <time>2025-07-16T06:57:04Z</time>
      </trkpt>
      <trkpt lat="42.679930441081524" lon="1.397742787376046">
        <ele>2539.9899999999998</ele>
        <time>2025-07-16T06:57:32Z</time>
      </trkpt>
      <trkpt lat="42.679908145219088" lon="1.397844543680549">
        <ele>2545.25</ele>
        <time>2025-07-16T06:58:21Z</time>
      </trkpt>
      <trkpt lat="42.679880820214748" lon="1.397957028821111">
        <ele>2547.5799999999999</ele>
        <time>2025-07-16T06:58:48Z</time>
      </trkpt>
      <trkpt lat="42.679885011166334" lon="1.398075968027115">
        <ele>2549.1199999999999</ele>
        <time>2025-07-16T06:59:06Z</time>
      </trkpt>
      <trkpt lat="42.679835641756654" lon="1.39816221781075">
        <ele>2549.9299999999998</ele>
        <time>2025-07-16T06:59:25Z</time>
      </trkpt>
      <trkpt lat="42.679782751947641" lon="1.398204797878861">
        <ele>2550.9299999999998</ele>
        <time>2025-07-16T06:59:53Z</time>
      </trkpt>
      <trkpt lat="42.679786356166005" lon="1.398186692968011">
        <ele>2549.7800000000002</ele>
        <time>2025-07-16T07:01:53Z</time>
      </trkpt>
      <trkpt lat="42.679855087772012" lon="1.398147800937295">
        <ele>2549.2199999999998</ele>
        <time>2025-07-16T07:02:19Z</time>
      </trkpt>
      <trkpt lat="42.679787697270513" lon="1.398168671876192">
        <ele>2549.6999999999998</ele>
        <time>2025-07-16T07:02:51Z</time>
      </trkpt>
      <trkpt lat="42.679754924029112" lon="1.398232541978359">
        <ele>2550.5100000000002</ele>
        <time>2025-07-16T07:06:44Z</time>
      </trkpt>
      <trkpt lat="42.679778812453151" lon="1.398183172568679">
        <ele>2550.46</ele>
        <time>2025-07-16T07:09:50Z</time>
      </trkpt>
      <trkpt lat="42.679747631773353" lon="1.398255173116922">
        <ele>2550.9899999999998</ele>
        <time>2025-07-16T07:10:40Z</time>
      </trkpt>
      <trkpt lat="42.679692814126611" lon="1.398340333253145">
        <ele>2550.04</ele>
        <time>2025-07-16T07:11:11Z</time>
      </trkpt>
      <trkpt lat="42.679637493565679" lon="1.398422392085195">
        <ele>2549.8899999999999</ele>
        <time>2025-07-16T07:11:26Z</time>
      </trkpt>
      <trkpt lat="42.679573455825448" lon="1.39849791303277">
        <ele>2553.0799999999999</ele>
        <time>2025-07-16T07:12:11Z</time>
      </trkpt>
      <trkpt lat="42.679507657885551" lon="1.398527082055807">
        <ele>2556.5300000000002</ele>
        <time>2025-07-16T07:12:58Z</time>
      </trkpt>
      <trkpt lat="42.679454935714602" lon="1.398631017655134">
        <ele>2557.0300000000002</ele>
        <time>2025-07-16T07:13:11Z</time>
      </trkpt>
      <trkpt lat="42.679414702579379" lon="1.398723972961307">
        <ele>2557.9299999999998</ele>
        <time>2025-07-16T07:13:26Z</time>
      </trkpt>
      <trkpt lat="42.679347898811102" lon="1.398711148649454">
        <ele>2561</ele>
        <time>2025-07-16T07:13:51Z</time>
      </trkpt>
      <trkpt lat="42.679272461682558" lon="1.398772252723575">
        <ele>2562.4099999999999</ele>
        <time>2025-07-16T07:14:20Z</time>
      </trkpt>
      <trkpt lat="42.679246813058853" lon="1.398643674328923">
        <ele>2567.5900000000001</ele>
        <time>2025-07-16T07:15:18Z</time>
      </trkpt>
      <trkpt lat="42.679214710369706" lon="1.39851258136332">
        <ele>2571.3600000000001</ele>
        <time>2025-07-16T07:16:08Z</time>
      </trkpt>
      <trkpt lat="42.679160060361028" lon="1.398411663249135">
        <ele>2572.6900000000001</ele>
        <time>2025-07-16T07:16:41Z</time>
      </trkpt>
      <trkpt lat="42.679124437272549" lon="1.398354498669505">
        <ele>2571.6799999999998</ele>
        <time>2025-07-16T07:17:59Z</time>
      </trkpt>
      <trkpt lat="42.679056376218796" lon="1.398253999650478">
        <ele>2571.98</ele>
        <time>2025-07-16T07:18:13Z</time>
      </trkpt>
      <trkpt lat="42.679026955738664" lon="1.398120643571019">
        <ele>2571.1599999999999</ele>
        <time>2025-07-16T07:18:25Z</time>
      </trkpt>
      <trkpt lat="42.679022010415792" lon="1.39797605574131">
        <ele>2571.96</ele>
        <time>2025-07-16T07:18:37Z</time>
      </trkpt>
      <trkpt lat="42.679029889404774" lon="1.39783482067287">
        <ele>2573.4699999999998</ele>
        <time>2025-07-16T07:18:52Z</time>
      </trkpt>
      <trkpt lat="42.67902092076838" lon="1.397711271420121">
        <ele>2572.6399999999999</ele>
        <time>2025-07-16T07:19:06Z</time>
      </trkpt>
      <trkpt lat="42.679021675139666" lon="1.397590152919292">
        <ele>2570.9699999999998</ele>
        <time>2025-07-16T07:19:19Z</time>
      </trkpt>
      <trkpt lat="42.67898621968925" lon="1.397560564801097">
        <ele>2571.0100000000002</ele>
        <time>2025-07-16T07:19:34Z</time>
      </trkpt>
      <trkpt lat="42.678967025130987" lon="1.397449839860201">
        <ele>2570.8200000000002</ele>
        <time>2025-07-16T07:19:46Z</time>
      </trkpt>
      <trkpt lat="42.678930563852191" lon="1.397344982251525">
        <ele>2572.3800000000001</ele>
        <time>2025-07-16T07:20:04Z</time>
      </trkpt>
      <trkpt lat="42.678870549425483" lon="1.397405415773392">
        <ele>2575.02</ele>
        <time>2025-07-16T07:20:33Z</time>
      </trkpt>
      <trkpt lat="42.678809864446521" lon="1.397347832098603">
        <ele>2578.4499999999998</ele>
        <time>2025-07-16T07:21:03Z</time>
      </trkpt>
      <trkpt lat="42.678735852241516" lon="1.397411283105612">
        <ele>2581.8000000000002</ele>
        <time>2025-07-16T07:21:45Z</time>
      </trkpt>
      <trkpt lat="42.678649602457881" lon="1.397470124065876">
        <ele>2589.2199999999998</ele>
        <time>2025-07-16T07:22:41Z</time>
      </trkpt>
      <trkpt lat="42.678555473685265" lon="1.397527456283569">
        <ele>2594.6399999999999</ele>
        <time>2025-07-16T07:23:42Z</time>
      </trkpt>
      <trkpt lat="42.678484143689275" lon="1.397572886198759">
        <ele>2598.1999999999998</ele>
        <time>2025-07-16T07:24:15Z</time>
      </trkpt>
      <trkpt lat="42.678416837006807" lon="1.397569281980395">
        <ele>2604.27</ele>
        <time>2025-07-16T07:25:04Z</time>
      </trkpt>
      <trkpt lat="42.678335113450885" lon="1.397549416869879">
        <ele>2607.2399999999998</ele>
        <time>2025-07-16T07:26:21Z</time>
      </trkpt>
      <trkpt lat="42.678271410986781" lon="1.397520247846842">
        <ele>2612.1700000000001</ele>
        <time>2025-07-16T07:26:57Z</time>
      </trkpt>
      <trkpt lat="42.678245762363076" lon="1.397422347217798">
        <ele>2614.9899999999998</ele>
        <time>2025-07-16T07:27:36Z</time>
      </trkpt>
      <trkpt lat="42.678203601390123" lon="1.397331738844514">
        <ele>2617.1399999999999</ele>
        <time>2025-07-16T07:28:02Z</time>
      </trkpt>
      <trkpt lat="42.678168816491961" lon="1.39727289788425">
        <ele>2620.5100000000002</ele>
        <time>2025-07-16T07:28:38Z</time>
      </trkpt>
      <trkpt lat="42.678121877834201" lon="1.397202741354704">
        <ele>2624.8400000000001</ele>
        <time>2025-07-16T07:29:19Z</time>
      </trkpt>
      <trkpt lat="42.678059097379446" lon="1.397134261205792">
        <ele>2628.9299999999998</ele>
        <time>2025-07-16T07:30:30Z</time>
      </trkpt>
      <trkpt lat="42.678009141236544" lon="1.397249177098274">
        <ele>2632.5599999999999</ele>
        <time>2025-07-16T07:31:17Z</time>
      </trkpt>
      <trkpt lat="42.67803780734539" lon="1.397369457408786">
        <ele>2638.21</ele>
        <time>2025-07-16T07:31:55Z</time>
      </trkpt>
      <trkpt lat="42.677981816232204" lon="1.397386472672224">
        <ele>2641.4499999999998</ele>
        <time>2025-07-16T07:32:26Z</time>
      </trkpt>
      <trkpt lat="42.677906798198819" lon="1.397446235641837">
        <ele>2643.9499999999998</ele>
        <time>2025-07-16T07:33:42Z</time>
      </trkpt>
      <trkpt lat="42.677839323878288" lon="1.397528713569045">
        <ele>2649.1500000000001</ele>
        <time>2025-07-16T07:35:43Z</time>
      </trkpt>
      <trkpt lat="42.677752068266273" lon="1.39751622453332">
        <ele>2653.6900000000001</ele>
        <time>2025-07-16T07:36:26Z</time>
      </trkpt>
      <trkpt lat="42.677757265046239" lon="1.397613203153014">
        <ele>2657.1700000000001</ele>
        <time>2025-07-16T07:36:57Z</time>
      </trkpt>
      <trkpt lat="42.677754582837224" lon="1.397713869810104">
        <ele>2659.3099999999999</ele>
        <time>2025-07-16T07:37:27Z</time>
      </trkpt>
      <trkpt lat="42.677780985832214" lon="1.397810345515609">
        <ele>2660.4499999999998</ele>
        <time>2025-07-16T07:37:49Z</time>
      </trkpt>
      <trkpt lat="42.677718456834555" lon="1.397903552278876">
        <ele>2666.0300000000002</ele>
        <time>2025-07-16T07:38:21Z</time>
      </trkpt>
      <trkpt lat="42.677645115181804" lon="1.397998686879873">
        <ele>2666.7199999999998</ele>
        <time>2025-07-16T07:38:40Z</time>
      </trkpt>
      <trkpt lat="42.67757554538548" lon="1.398103460669518">
        <ele>2670.4099999999999</ele>
        <time>2025-07-16T07:39:14Z</time>
      </trkpt>
      <trkpt lat="42.67751008272171" lon="1.398209575563669">
        <ele>2672.0700000000002</ele>
        <time>2025-07-16T07:39:45Z</time>
      </trkpt>
      <trkpt lat="42.677442859858274" lon="1.39830244705081">
        <ele>2675.0999999999999</ele>
        <time>2025-07-16T07:40:26Z</time>
      </trkpt>
      <trkpt lat="42.677379492670298" lon="1.398399593308568">
        <ele>2676.71</ele>
        <time>2025-07-16T07:40:45Z</time>
      </trkpt>
      <trkpt lat="42.677319897338748" lon="1.398501265794039">
        <ele>2680.6700000000001</ele>
        <time>2025-07-16T07:41:12Z</time>
      </trkpt>
      <trkpt lat="42.677256027236581" lon="1.398611236363649">
        <ele>2681.9899999999998</ele>
        <time>2025-07-16T07:41:36Z</time>
      </trkpt>
      <trkpt lat="42.677202299237251" lon="1.398706203326583">
        <ele>2685.2399999999998</ele>
        <time>2025-07-16T07:42:02Z</time>
      </trkpt>
      <trkpt lat="42.677176902070642" lon="1.398809049278498">
        <ele>2688.6599999999999</ele>
        <time>2025-07-16T07:42:28Z</time>
      </trkpt>
      <trkpt lat="42.677132645621896" lon="1.398896723985672">
        <ele>2692.0999999999999</ele>
        <time>2025-07-16T07:43:06Z</time>
      </trkpt>
      <trkpt lat="42.677065758034587" lon="1.398977525532246">
        <ele>2696.8800000000001</ele>
        <time>2025-07-16T07:43:56Z</time>
      </trkpt>
      <trkpt lat="42.676996607333422" lon="1.399021865800023">
        <ele>2702.1700000000001</ele>
        <time>2025-07-16T07:44:48Z</time>
      </trkpt>
      <trkpt lat="42.676916979253292" lon="1.399057572707534">
        <ele>2704.4499999999998</ele>
        <time>2025-07-16T07:45:14Z</time>
      </trkpt>
      <trkpt lat="42.676839530467987" lon="1.398985153064132">
        <ele>2709.9899999999998</ele>
        <time>2025-07-16T07:46:10Z</time>
      </trkpt>
      <trkpt lat="42.676763255149126" lon="1.399035360664129">
        <ele>2713.1500000000001</ele>
        <time>2025-07-16T07:46:36Z</time>
      </trkpt>
      <trkpt lat="42.676675077527761" lon="1.398996636271477">
        <ele>2719.3800000000001</ele>
        <time>2025-07-16T07:47:19Z</time>
      </trkpt>
      <trkpt lat="42.676588241010904" lon="1.39899336732924">
        <ele>2720.1799999999998</ele>
        <time>2025-07-16T07:47:53Z</time>
      </trkpt>
      <trkpt lat="42.676515905186534" lon="1.399049945175648">
        <ele>2723.1599999999999</ele>
        <time>2025-07-16T07:48:28Z</time>
      </trkpt>
      <trkpt lat="42.676442312076688" lon="1.399043574929237">
        <ele>2726.1599999999999</ele>
        <time>2025-07-16T07:48:55Z</time>
      </trkpt>
      <trkpt lat="42.676346506923437" lon="1.399006778374314">
        <ele>2728.5999999999999</ele>
        <time>2025-07-16T07:49:48Z</time>
      </trkpt>
      <trkpt lat="42.676267381757498" lon="1.398967299610376">
        <ele>2733.7199999999998</ele>
        <time>2025-07-16T07:50:29Z</time>
      </trkpt>
      <trkpt lat="42.676185071468353" lon="1.398914996534586">
        <ele>2738.75</ele>
        <time>2025-07-16T07:51:20Z</time>
      </trkpt>
      <trkpt lat="42.676100246608257" lon="1.398866465315223">
        <ele>2742.1799999999998</ele>
        <time>2025-07-16T07:52:00Z</time>
      </trkpt>
      <trkpt lat="42.676023719832301" lon="1.398812318220735">
        <ele>2744.9099999999999</ele>
        <time>2025-07-16T07:52:32Z</time>
      </trkpt>
      <trkpt lat="42.675953395664692" lon="1.398788262158632">
        <ele>2748.3000000000002</ele>
        <time>2025-07-16T07:53:01Z</time>
      </trkpt>
      <trkpt lat="42.675872845575213" lon="1.398836122825742">
        <ele>2752.0599999999999</ele>
        <time>2025-07-16T07:53:31Z</time>
      </trkpt>
      <trkpt lat="42.67582967877388" lon="1.398759512230754">
        <ele>2753.4699999999998</ele>
        <time>2025-07-16T07:54:37Z</time>
      </trkpt>
      <trkpt lat="42.675775364041328" lon="1.398775605484843">
        <ele>2754.3899999999999</ele>
        <time>2025-07-16T07:57:07Z</time>
      </trkpt>
      <trkpt lat="42.675713840872049" lon="1.398838218301535">
        <ele>2756.21</ele>
        <time>2025-07-16T07:57:24Z</time>
      </trkpt>
      <trkpt lat="42.675654077902436" lon="1.398884570226073">
        <ele>2759.8800000000001</ele>
        <time>2025-07-16T07:57:57Z</time>
      </trkpt>
      <trkpt lat="42.675593309104443" lon="1.398866549134255">
        <ele>2762.6599999999999</ele>
        <time>2025-07-16T07:58:24Z</time>
      </trkpt>
      <trkpt lat="42.675511417910457" lon="1.398795638233423">
        <ele>2767.5300000000002</ele>
        <time>2025-07-16T07:59:06Z</time>
      </trkpt>
      <trkpt lat="42.675435561686754" lon="1.398740401491523">
        <ele>2770.8400000000001</ele>
        <time>2025-07-16T07:59:36Z</time>
      </trkpt>
      <trkpt lat="42.675351575016975" lon="1.398697989061475">
        <ele>2772.8499999999999</ele>
        <time>2025-07-16T08:00:11Z</time>
      </trkpt>
      <trkpt lat="42.675354676321149" lon="1.398816257715225">
        <ele>2775.8400000000001</ele>
        <time>2025-07-16T08:01:38Z</time>
      </trkpt>
      <trkpt lat="42.675331123173237" lon="1.398879289627075">
        <ele>2778.5500000000002</ele>
        <time>2025-07-16T08:02:07Z</time>
      </trkpt>
      <trkpt lat="42.67528535798192" lon="1.398980123922229">
        <ele>2785.0100000000002</ele>
        <time>2025-07-16T08:02:59Z</time>
      </trkpt>
      <trkpt lat="42.675299355760217" lon="1.399111971259117">
        <ele>2787.8499999999999</ele>
        <time>2025-07-16T08:03:56Z</time>
      </trkpt>
      <trkpt lat="42.675283513963223" lon="1.399057740345597">
        <ele>2790.5599999999999</ele>
        <time>2025-07-16T08:04:16Z</time>
      </trkpt>
      <trkpt lat="42.675234312191606" lon="1.398998061195016">
        <ele>2793.1100000000001</ele>
        <time>2025-07-16T08:04:45Z</time>
      </trkpt>
      <trkpt lat="42.675153845921159" lon="1.398933185264468">
        <ele>2798.6599999999999</ele>
        <time>2025-07-16T08:05:35Z</time>
      </trkpt>
      <trkpt lat="42.675091149285436" lon="1.398921618238092">
        <ele>2802.29</ele>
        <time>2025-07-16T08:06:22Z</time>
      </trkpt>
      <trkpt lat="42.675045384094119" lon="1.398989511653781">
        <ele>2804.8000000000002</ele>
        <time>2025-07-16T08:06:54Z</time>
      </trkpt>
      <trkpt lat="42.674954356625676" lon="1.398951625451446">
        <ele>2809.0599999999999</ele>
        <time>2025-07-16T08:08:05Z</time>
      </trkpt>
      <trkpt lat="42.674918901175261" lon="1.399036785587668">
        <ele>2813.5300000000002</ele>
        <time>2025-07-16T08:08:58Z</time>
      </trkpt>
      <trkpt lat="42.674907837063074" lon="1.399156982079148">
        <ele>2818.1799999999998</ele>
        <time>2025-07-16T08:09:36Z</time>
      </trkpt>
      <trkpt lat="42.67481479793787" lon="1.399196293205023">
        <ele>2825.3200000000002</ele>
        <time>2025-07-16T08:10:27Z</time>
      </trkpt>
      <trkpt lat="42.674727374687791" lon="1.399157233536243">
        <ele>2826.9899999999998</ele>
        <time>2025-07-16T08:10:59Z</time>
      </trkpt>
      <trkpt lat="42.674654452130198" lon="1.399211045354605">
        <ele>2829.3400000000001</ele>
        <time>2025-07-16T08:11:39Z</time>
      </trkpt>
      <trkpt lat="42.674574237316847" lon="1.399199226871133">
        <ele>2828.8299999999999</ele>
        <time>2025-07-16T08:13:54Z</time>
      </trkpt>
      <trkpt lat="42.674510702490807" lon="1.399171147495508">
        <ele>2828.8000000000002</ele>
        <time>2025-07-16T08:14:39Z</time>
      </trkpt>
      <trkpt lat="42.674498213455081" lon="1.399183971807361">
        <ele>2833.8800000000001</ele>
        <time>2025-07-16T08:29:27Z</time>
      </trkpt>
      <trkpt lat="42.674477593973279" lon="1.399214901030064">
        <ele>2833.8299999999999</ele>
        <time>2025-07-16T08:31:09Z</time>
      </trkpt>
      <trkpt lat="42.674462422728539" lon="1.399331158027053">
        <ele>2833.4400000000001</ele>
        <time>2025-07-16T08:31:21Z</time>
      </trkpt>
      <trkpt lat="42.674399558454752" lon="1.399408355355263">
        <ele>2833.5999999999999</ele>
        <time>2025-07-16T08:31:38Z</time>
      </trkpt>
      <trkpt lat="42.674319511279464" lon="1.399442302063108">
        <ele>2832.1100000000001</ele>
        <time>2025-07-16T08:31:50Z</time>
      </trkpt>
      <trkpt lat="42.674235021695495" lon="1.399440374225378">
        <ele>2834.1500000000001</ele>
        <time>2025-07-16T08:32:06Z</time>
      </trkpt>
      <trkpt lat="42.674151202663779" lon="1.39948295429349">
        <ele>2835.73</ele>
        <time>2025-07-16T08:32:27Z</time>
      </trkpt>
      <trkpt lat="42.674070401117206" lon="1.399451605975628">
        <ele>2836.8699999999999</ele>
        <time>2025-07-16T08:32:46Z</time>
      </trkpt>
      <trkpt lat="42.673982391133904" lon="1.399444732815027">
        <ele>2839.6599999999999</ele>
        <time>2025-07-16T08:33:11Z</time>
      </trkpt>
      <trkpt lat="42.673892034217715" lon="1.399409947916865">
        <ele>2843.77</ele>
        <time>2025-07-16T08:33:46Z</time>
      </trkpt>
      <trkpt lat="42.673807209357619" lon="1.399446660652757">
        <ele>2843.8800000000001</ele>
        <time>2025-07-16T08:34:04Z</time>
      </trkpt>
      <trkpt lat="42.673746943473816" lon="1.39952888712287">
        <ele>2843.2600000000002</ele>
        <time>2025-07-16T08:34:20Z</time>
      </trkpt>
      <trkpt lat="42.673668069764972" lon="1.399582112208009">
        <ele>2844.2399999999998</ele>
        <time>2025-07-16T08:34:38Z</time>
      </trkpt>
      <trkpt lat="42.673591962084174" lon="1.399618405848742">
        <ele>2844.23</ele>
        <time>2025-07-16T08:34:59Z</time>
      </trkpt>
      <trkpt lat="42.673501102253795" lon="1.399655118584633">
        <ele>2844.71</ele>
        <time>2025-07-16T08:35:12Z</time>
      </trkpt>
      <trkpt lat="42.67339532263577" lon="1.3997155521065">
        <ele>2845.5799999999999</ele>
        <time>2025-07-16T08:35:28Z</time>
      </trkpt>
      <trkpt lat="42.673332626000047" lon="1.399646066129208">
        <ele>2847.8099999999999</ele>
        <time>2025-07-16T08:35:49Z</time>
      </trkpt>
      <trkpt lat="42.673277053982019" lon="1.39973851852119">
        <ele>2849.7800000000002</ele>
        <time>2025-07-16T08:36:08Z</time>
      </trkpt>
      <trkpt lat="42.673233551904559" lon="1.399688730016351">
        <ele>2852.6399999999999</ele>
        <time>2025-07-16T08:36:34Z</time>
      </trkpt>
      <trkpt lat="42.673188876360655" lon="1.399588398635387">
        <ele>2855.2800000000002</ele>
        <time>2025-07-16T08:37:01Z</time>
      </trkpt>
      <trkpt lat="42.67312022857368" lon="1.399559061974287">
        <ele>2858.6300000000001</ele>
        <time>2025-07-16T08:37:26Z</time>
      </trkpt>
      <trkpt lat="42.673044037073851" lon="1.399526204913855">
        <ele>2860.6999999999998</ele>
        <time>2025-07-16T08:37:46Z</time>
      </trkpt>
      <trkpt lat="42.672976646572351" lon="1.39948295429349">
        <ele>2861.9699999999998</ele>
        <time>2025-07-16T08:38:15Z</time>
      </trkpt>
      <trkpt lat="42.672925600782037" lon="1.399387484416366">
        <ele>2866.5700000000002</ele>
        <time>2025-07-16T08:38:45Z</time>
      </trkpt>
      <trkpt lat="42.672860221937299" lon="1.3993857242167">
        <ele>2869.4899999999998</ele>
        <time>2025-07-16T08:39:05Z</time>
      </trkpt>
      <trkpt lat="42.67277279868722" lon="1.399395195767283">
        <ele>2871.5100000000002</ele>
        <time>2025-07-16T08:39:27Z</time>
      </trkpt>
      <trkpt lat="42.672670120373368" lon="1.399389747530222">
        <ele>2871.5599999999999</ele>
        <time>2025-07-16T08:39:43Z</time>
      </trkpt>
      <trkpt lat="42.672583367675543" lon="1.399361416697502">
        <ele>2871.6100000000001</ele>
        <time>2025-07-16T08:40:08Z</time>
      </trkpt>
      <trkpt lat="42.672499967738986" lon="1.399323279038072">
        <ele>2871.9099999999999</ele>
        <time>2025-07-16T08:40:23Z</time>
      </trkpt>
      <trkpt lat="42.672426709905267" lon="1.399310119450092">
        <ele>2871.9499999999998</ele>
        <time>2025-07-16T08:40:54Z</time>
      </trkpt>
      <trkpt lat="42.672341801226139" lon="1.399255804717541">
        <ele>2874.46</ele>
        <time>2025-07-16T08:41:16Z</time>
      </trkpt>
      <trkpt lat="42.672302825376391" lon="1.399324201047421">
        <ele>2876.9699999999998</ele>
        <time>2025-07-16T08:42:10Z</time>
      </trkpt>
      <trkpt lat="42.672211965546012" lon="1.399310790002346">
        <ele>2880.2600000000002</ele>
        <time>2025-07-16T08:42:33Z</time>
      </trkpt>
      <trkpt lat="42.672133510932326" lon="1.399320429190993">
        <ele>2880.6199999999999</ele>
        <time>2025-07-16T08:42:51Z</time>
      </trkpt>
      <trkpt lat="42.672064946964383" lon="1.39940282329917">
        <ele>2879.5100000000002</ele>
        <time>2025-07-16T08:43:09Z</time>
      </trkpt>
      <trkpt lat="42.672034436836839" lon="1.399518745020032">
        <ele>2877.1500000000001</ele>
        <time>2025-07-16T08:43:32Z</time>
      </trkpt>
      <trkpt lat="42.671963358297944" lon="1.399569287896156">
        <ele>2880.3699999999999</ele>
        <time>2025-07-16T08:44:11Z</time>
      </trkpt>
      <trkpt lat="42.671881802380085" lon="1.399607677012682">
        <ele>2881.1199999999999</ele>
        <time>2025-07-16T08:44:50Z</time>
      </trkpt>
      <trkpt lat="42.671811394393444" lon="1.39957926236093">
        <ele>2883.9499999999998</ele>
        <time>2025-07-16T08:45:34Z</time>
      </trkpt>
      <trkpt lat="42.671724054962397" lon="1.399581022560597">
        <ele>2886.3800000000001</ele>
        <time>2025-07-16T08:45:58Z</time>
      </trkpt>
      <trkpt lat="42.671691616997123" lon="1.399698201566935">
        <ele>2889.1999999999998</ele>
        <time>2025-07-16T08:46:51Z</time>
      </trkpt>
      <trkpt lat="42.671642666682601" lon="1.399784367531538">
        <ele>2891.6900000000001</ele>
        <time>2025-07-16T08:47:19Z</time>
      </trkpt>
      <trkpt lat="42.671569576486945" lon="1.399793168529868">
        <ele>2895.5500000000002</ele>
        <time>2025-07-16T08:47:49Z</time>
      </trkpt>
      <trkpt lat="42.671544011682272" lon="1.399678755551577">
        <ele>2898.1300000000001</ele>
        <time>2025-07-16T08:48:15Z</time>
      </trkpt>
      <trkpt lat="42.671476118266582" lon="1.39962762594223">
        <ele>2898.8299999999999</ele>
        <time>2025-07-16T08:48:48Z</time>
      </trkpt>
      <trkpt lat="42.671475699171424" lon="1.399725275114179">
        <ele>2900.0100000000002</ele>
        <time>2025-07-16T08:49:23Z</time>
      </trkpt>
      <trkpt lat="42.671420546248555" lon="1.399758048355579">
        <ele>2899.1500000000001</ele>
        <time>2025-07-16T08:51:16Z</time>
      </trkpt>
      <trkpt lat="42.671341169625521" lon="1.399797108024359">
        <ele>2897.46</ele>
        <time>2025-07-16T08:51:42Z</time>
      </trkpt>
      <trkpt lat="42.671293057501316" lon="1.399898948147893">
        <ele>2900.4899999999998</ele>
        <time>2025-07-16T08:52:09Z</time>
      </trkpt>
      <trkpt lat="42.671232204884291" lon="1.399961393326521">
        <ele>2900.5999999999999</ele>
        <time>2025-07-16T08:52:33Z</time>
      </trkpt>
      <trkpt lat="42.67125659622252" lon="1.399855026975274">
        <ele>2897.6799999999998</ele>
        <time>2025-07-16T08:53:01Z</time>
      </trkpt>
      <trkpt lat="42.671217452734709" lon="1.39982258901">
        <ele>2896.0599999999999</ele>
        <time>2025-07-16T08:54:05Z</time>
      </trkpt>
      <trkpt lat="42.6712058018893" lon="1.399813452735543">
        <ele>2896.0500000000002</ele>
        <time>2025-07-16T08:56:20Z</time>
      </trkpt>
      <trkpt lat="42.671213429421186" lon="1.399816386401653">
        <ele>2896.7600000000002</ele>
        <time>2025-07-16T08:59:08Z</time>
      </trkpt>
      <trkpt lat="42.671261206269264" lon="1.39984555542469">
        <ele>2901.6700000000001</ele>
        <time>2025-07-16T09:14:38Z</time>
      </trkpt>
      <trkpt lat="42.671254919841886" lon="1.399842705577612">
        <ele>2900.8899999999999</ele>
        <time>2025-07-16T09:15:49Z</time>
      </trkpt>
      <trkpt lat="42.671225247904658" lon="1.399828372523189">
        <ele>2903.2399999999998</ele>
        <time>2025-07-16T09:20:12Z</time>
      </trkpt>
      <trkpt lat="42.671242766082287" lon="1.399827701970935">
        <ele>2903.3200000000002</ele>
        <time>2025-07-16T09:23:48Z</time>
      </trkpt>
      <trkpt lat="42.6712507288903" lon="1.399827282875776">
        <ele>2903.8099999999999</ele>
        <time>2025-07-16T09:26:42Z</time>
      </trkpt>
      <trkpt lat="42.671214435249567" lon="1.399832479655743">
        <ele>2904.5900000000001</ele>
        <time>2025-07-16T09:30:12Z</time>
      </trkpt>
      <trkpt lat="42.671130280941725" lon="1.399831222370267">
        <ele>2904.1500000000001</ele>
        <time>2025-07-16T09:32:33Z</time>
      </trkpt>
      <trkpt lat="42.671203622594476" lon="1.399835078045726">
        <ele>2905.54</ele>
        <time>2025-07-16T09:34:10Z</time>
      </trkpt>
      <trkpt lat="42.671181159093976" lon="1.399830467998982">
        <ele>2903.0900000000001</ele>
        <time>2025-07-16T09:38:10Z</time>
      </trkpt>
      <trkpt lat="42.671204963698983" lon="1.399821667000651">
        <ele>2903.0100000000002</ele>
        <time>2025-07-16T09:39:47Z</time>
      </trkpt>
      <trkpt lat="42.671187529340386" lon="1.399858295917511">
        <ele>2904.46</ele>
        <time>2025-07-16T09:42:12Z</time>
      </trkpt>
      <trkpt lat="42.671197755262256" lon="1.39987338334322">
        <ele>2903.98</ele>
        <time>2025-07-16T09:42:49Z</time>
      </trkpt>
      <trkpt lat="42.671172861009836" lon="1.399886123836041">
        <ele>2903.0999999999999</ele>
        <time>2025-07-16T09:43:30Z</time>
      </trkpt>
      <trkpt lat="42.671175459399819" lon="1.399910850450397">
        <ele>2902.9499999999998</ele>
        <time>2025-07-16T09:44:00Z</time>
      </trkpt>
      <trkpt lat="42.671141931787133" lon="1.399910263717175">
        <ele>2903.3699999999999</ele>
        <time>2025-07-16T09:44:34Z</time>
      </trkpt>
      <trkpt lat="42.67113589681685" lon="1.399903977289796">
        <ele>2904.0999999999999</ele>
        <time>2025-07-16T09:45:11Z</time>
      </trkpt>
      <trkpt lat="42.671138243749738" lon="1.399899115785956">
        <ele>2903.5100000000002</ele>
        <time>2025-07-16T09:45:36Z</time>
      </trkpt>
      <trkpt lat="42.671167496591806" lon="1.399902049452066">
        <ele>2902.3899999999999</ele>
        <time>2025-07-16T09:46:02Z</time>
      </trkpt>
      <trkpt lat="42.671137908473611" lon="1.399890901520848">
        <ele>2902.02</ele>
        <time>2025-07-16T09:46:20Z</time>
      </trkpt>
      <trkpt lat="42.671199180185795" lon="1.399870533496141">
        <ele>2901.6700000000001</ele>
        <time>2025-07-16T09:48:02Z</time>
      </trkpt>
      <trkpt lat="42.671192642301321" lon="1.399863408878446">
        <ele>2902.4000000000001</ele>
        <time>2025-07-16T09:49:32Z</time>
      </trkpt>
      <trkpt lat="42.671183589845896" lon="1.399859553202987">
        <ele>2902.2600000000002</ele>
        <time>2025-07-16T09:50:45Z</time>
      </trkpt>
      <trkpt lat="42.671163221821189" lon="1.399849914014339">
        <ele>2901.6500000000001</ele>
        <time>2025-07-16T09:51:20Z</time>
      </trkpt>
      <trkpt lat="42.671222062781453" lon="1.399864749982953">
        <ele>2899.1199999999999</ele>
        <time>2025-07-16T10:19:09Z</time>
      </trkpt>
      <trkpt lat="42.671204879879951" lon="1.39990272000432">
        <ele>2900.5</ele>
        <time>2025-07-16T10:32:39Z</time>
      </trkpt>
      <trkpt lat="42.671276964247227" lon="1.399827282875776">
        <ele>2899.0700000000002</ele>
        <time>2025-07-16T10:33:05Z</time>
      </trkpt>
      <trkpt lat="42.671303115785122" lon="1.399704236537218">
        <ele>2898.46</ele>
        <time>2025-07-16T10:33:16Z</time>
      </trkpt>
      <trkpt lat="42.671329267323017" lon="1.399583872407675">
        <ele>2896.6100000000001</ele>
        <time>2025-07-16T10:33:32Z</time>
      </trkpt>
      <trkpt lat="42.671348713338375" lon="1.39946878887713">
        <ele>2894.9699999999998</ele>
        <time>2025-07-16T10:33:44Z</time>
      </trkpt>
      <trkpt lat="42.671368326991796" lon="1.39934029430151">
        <ele>2892.6199999999999</ele>
        <time>2025-07-16T10:33:55Z</time>
      </trkpt>
      <trkpt lat="42.671391209587455" lon="1.399218337610364">
        <ele>2889.5700000000002</ele>
        <time>2025-07-16T10:34:07Z</time>
      </trkpt>
      <trkpt lat="42.671406297013164" lon="1.399100823327899">
        <ele>2887.7800000000002</ele>
        <time>2025-07-16T10:34:20Z</time>
      </trkpt>
      <trkpt lat="42.671424485743046" lon="1.39898557215929">
        <ele>2884.23</ele>
        <time>2025-07-16T10:34:33Z</time>
      </trkpt>
      <trkpt lat="42.671420043334365" lon="1.39886780641973">
        <ele>2883.2800000000002</ele>
        <time>2025-07-16T10:34:49Z</time>
      </trkpt>
      <trkpt lat="42.671434124931693" lon="1.398753393441439">
        <ele>2881.1100000000001</ele>
        <time>2025-07-16T10:35:09Z</time>
      </trkpt>
      <trkpt lat="42.6714285928756" lon="1.398643171414733">
        <ele>2877.3699999999999</ele>
        <time>2025-07-16T10:35:25Z</time>
      </trkpt>
      <trkpt lat="42.671437561511993" lon="1.398565638810396">
        <ele>2875.4200000000001</ele>
        <time>2025-07-16T10:35:43Z</time>
      </trkpt>
      <trkpt lat="42.671467820182443" lon="1.398471342399716">
        <ele>2871.5700000000002</ele>
        <time>2025-07-16T10:36:02Z</time>
      </trkpt>
      <trkpt lat="42.67150579020381" lon="1.398390121757984">
        <ele>2868.8200000000002</ele>
        <time>2025-07-16T10:36:19Z</time>
      </trkpt>
      <trkpt lat="42.671539401635528" lon="1.398313259705901">
        <ele>2865.8400000000001</ele>
        <time>2025-07-16T10:36:34Z</time>
      </trkpt>
      <trkpt lat="42.671535462141037" lon="1.398206809535623">
        <ele>2863.9299999999998</ele>
        <time>2025-07-16T10:36:50Z</time>
      </trkpt>
      <trkpt lat="42.671518865972757" lon="1.39810455031693">
        <ele>2861.8699999999999</ele>
        <time>2025-07-16T10:37:04Z</time>
      </trkpt>
      <trkpt lat="42.671516183763742" lon="1.39800145290792">
        <ele>2859.5900000000001</ele>
        <time>2025-07-16T10:37:24Z</time>
      </trkpt>
      <trkpt lat="42.671514675021172" lon="1.397898774594069">
        <ele>2857.7399999999998</ele>
        <time>2025-07-16T10:37:37Z</time>
      </trkpt>
      <trkpt lat="42.671490032225847" lon="1.397794336080551">
        <ele>2855.1100000000001</ele>
        <time>2025-07-16T10:37:55Z</time>
      </trkpt>
      <trkpt lat="42.671453487128019" lon="1.397699788212776">
        <ele>2851.4200000000001</ele>
        <time>2025-07-16T10:38:15Z</time>
      </trkpt>
      <trkpt lat="42.671423060819507" lon="1.39758562669158">
        <ele>2850.2800000000002</ele>
        <time>2025-07-16T10:38:30Z</time>
      </trkpt>
      <trkpt lat="42.671387605369091" lon="1.397486552596092">
        <ele>2849</ele>
        <time>2025-07-16T10:38:49Z</time>
      </trkpt>
      <trkpt lat="42.671347456052899" lon="1.397402985021472">
        <ele>2847.4200000000001</ele>
        <time>2025-07-16T10:39:03Z</time>
      </trkpt>
      <trkpt lat="42.671308983117342" lon="1.397294439375401">
        <ele>2846.2600000000002</ele>
        <time>2025-07-16T10:39:17Z</time>
      </trkpt>
      <trkpt lat="42.671270594000816" lon="1.397182121872902">
        <ele>2847.1300000000001</ele>
        <time>2025-07-16T10:39:31Z</time>
      </trkpt>
      <trkpt lat="42.671256177127361" lon="1.397062428295612">
        <ele>2849.3800000000001</ele>
        <time>2025-07-16T10:39:47Z</time>
      </trkpt>
      <trkpt lat="42.671268414705992" lon="1.396936029195786">
        <ele>2850.1599999999999</ele>
        <time>2025-07-16T10:40:00Z</time>
      </trkpt>
      <trkpt lat="42.671262631192803" lon="1.396808121353388">
        <ele>2848.5999999999999</ele>
        <time>2025-07-16T10:40:12Z</time>
      </trkpt>
      <trkpt lat="42.671267157420516" lon="1.396701252087951">
        <ele>2848.3299999999999</ele>
        <time>2025-07-16T10:40:22Z</time>
      </trkpt>
      <trkpt lat="42.671265145763755" lon="1.396574266254902">
        <ele>2846.9899999999998</ele>
        <time>2025-07-16T10:40:35Z</time>
      </trkpt>
      <trkpt lat="42.67127076163888" lon="1.396452141925693">
        <ele>2842.7600000000002</ele>
        <time>2025-07-16T10:40:51Z</time>
      </trkpt>
      <trkpt lat="42.671267157420516" lon="1.396321468055248">
        <ele>2838.4200000000001</ele>
        <time>2025-07-16T10:41:07Z</time>
      </trkpt>
      <trkpt lat="42.671269252896309" lon="1.396201187744737">
        <ele>2834.6100000000001</ele>
        <time>2025-07-16T10:41:21Z</time>
      </trkpt>
      <trkpt lat="42.671259865164757" lon="1.396087445318699">
        <ele>2830.79</ele>
        <time>2025-07-16T10:41:34Z</time>
      </trkpt>
      <trkpt lat="42.67126196064055" lon="1.395970182493329">
        <ele>2828.5799999999999</ele>
        <time>2025-07-16T10:41:48Z</time>
      </trkpt>
      <trkpt lat="42.67125709913671" lon="1.395907150581479">
        <ele>2826.6399999999999</ele>
        <time>2025-07-16T10:42:10Z</time>
      </trkpt>
      <trkpt lat="42.671269923448563" lon="1.395778320729733">
        <ele>2823.4400000000001</ele>
        <time>2025-07-16T10:42:24Z</time>
      </trkpt>
      <trkpt lat="42.671273946762085" lon="1.395693328231573">
        <ele>2820.9400000000001</ele>
        <time>2025-07-16T10:42:36Z</time>
      </trkpt>
      <trkpt lat="42.671276461333036" lon="1.395596601068974">
        <ele>2818.9299999999998</ele>
        <time>2025-07-16T10:42:53Z</time>
      </trkpt>
      <trkpt lat="42.6712507288903" lon="1.395483193919063">
        <ele>2816.8499999999999</ele>
        <time>2025-07-16T10:43:10Z</time>
      </trkpt>
      <trkpt lat="42.671243185177445" lon="1.395372971892357">
        <ele>2813.8800000000001</ele>
        <time>2025-07-16T10:43:26Z</time>
      </trkpt>
      <trkpt lat="42.671253997832537" lon="1.395262163132429">
        <ele>2810.23</ele>
        <time>2025-07-16T10:43:42Z</time>
      </trkpt>
      <trkpt lat="42.67125173471868" lon="1.395137691870332">
        <ele>2808.0900000000001</ele>
        <time>2025-07-16T10:43:57Z</time>
      </trkpt>
      <trkpt lat="42.671224996447563" lon="1.39503157697618">
        <ele>2806.0500000000002</ele>
        <time>2025-07-16T10:45:31Z</time>
      </trkpt>
      <trkpt lat="42.671230612322688" lon="1.394924791529775">
        <ele>2803.6700000000001</ele>
        <time>2025-07-16T10:45:46Z</time>
      </trkpt>
      <trkpt lat="42.671225499361753" lon="1.394845079630613">
        <ele>2801.8400000000001</ele>
        <time>2025-07-16T10:45:58Z</time>
      </trkpt>
      <trkpt lat="42.671169843524694" lon="1.39473594725132">
        <ele>2802.04</ele>
        <time>2025-07-16T10:46:15Z</time>
      </trkpt>
      <trkpt lat="42.671148385852575" lon="1.394669730216265">
        <ele>2801.8899999999999</ele>
        <time>2025-07-16T10:46:27Z</time>
      </trkpt>
      <trkpt lat="42.671105889603496" lon="1.394606782123447">
        <ele>2799.6300000000001</ele>
        <time>2025-07-16T10:46:55Z</time>
      </trkpt>
      <trkpt lat="42.671136148273945" lon="1.394602255895734">
        <ele>2798.5900000000001</ele>
        <time>2025-07-16T10:47:12Z</time>
      </trkpt>
      <trkpt lat="42.671094322577119" lon="1.39451022259891">
        <ele>2797.8400000000001</ele>
        <time>2025-07-16T10:48:12Z</time>
      </trkpt>
      <trkpt lat="42.671124245971441" lon="1.394452974200249">
        <ele>2793.5100000000002</ele>
        <time>2025-07-16T10:49:48Z</time>
      </trkpt>
      <trkpt lat="42.67110999673605" lon="1.394449453800917">
        <ele>2791.6100000000001</ele>
        <time>2025-07-16T10:50:39Z</time>
      </trkpt>
      <trkpt lat="42.67108216881752" lon="1.394414333626628">
        <ele>2789.6199999999999</ele>
        <time>2025-07-16T10:51:13Z</time>
      </trkpt>
      <trkpt lat="42.671069763600826" lon="1.394349876791239">
        <ele>2786.3899999999999</ele>
        <time>2025-07-16T10:52:13Z</time>
      </trkpt>
      <trkpt lat="42.671120809391141" lon="1.39428005553782">
        <ele>2782.6799999999998</ele>
        <time>2025-07-16T10:52:51Z</time>
      </trkpt>
      <trkpt lat="42.671210495755076" lon="1.394260777160525">
        <ele>2780.3400000000001</ele>
        <time>2025-07-16T10:53:35Z</time>
      </trkpt>
      <trkpt lat="42.671263804659247" lon="1.394201098009944">
        <ele>2776.7399999999998</ele>
        <time>2025-07-16T10:54:53Z</time>
      </trkpt>
      <trkpt lat="42.671325746923685" lon="1.394194392487407">
        <ele>2772.1900000000001</ele>
        <time>2025-07-16T10:55:23Z</time>
      </trkpt>
      <trkpt lat="42.671320550143719" lon="1.39408509247005">
        <ele>2768.4299999999998</ele>
        <time>2025-07-16T10:55:43Z</time>
      </trkpt>
      <trkpt lat="42.67124586738646" lon="1.394013091921806">
        <ele>2768.3699999999999</ele>
        <time>2025-07-16T10:55:58Z</time>
      </trkpt>
      <trkpt lat="42.671199766919017" lon="1.39391016215086">
        <ele>2768.8699999999999</ele>
        <time>2025-07-16T10:56:23Z</time>
      </trkpt>
      <trkpt lat="42.671159030869603" lon="1.39384956099093">
        <ele>2770.8200000000002</ele>
        <time>2025-07-16T10:57:44Z</time>
      </trkpt>
      <trkpt lat="42.67110463231802" lon="1.393732884898782">
        <ele>2772.4499999999998</ele>
        <time>2025-07-16T10:57:57Z</time>
      </trkpt>
      <trkpt lat="42.671061968430877" lon="1.393607575446367">
        <ele>2772.6500000000001</ele>
        <time>2025-07-16T10:58:10Z</time>
      </trkpt>
      <trkpt lat="42.671012347564101" lon="1.393505316227675">
        <ele>2773.1500000000001</ele>
        <time>2025-07-16T10:58:24Z</time>
      </trkpt>
      <trkpt lat="42.670951830223203" lon="1.393406325951219">
        <ele>2773.4099999999999</ele>
        <time>2025-07-16T10:58:38Z</time>
      </trkpt>
      <trkpt lat="42.670916793867946" lon="1.393279088661075">
        <ele>2773.0599999999999</ele>
        <time>2025-07-16T10:58:55Z</time>
      </trkpt>
      <trkpt lat="42.670855857431889" lon="1.393191833049059">
        <ele>2776.0100000000002</ele>
        <time>2025-07-16T10:59:20Z</time>
      </trkpt>
      <trkpt lat="42.670783773064613" lon="1.393144894391298">
        <ele>2780.8299999999999</ele>
        <time>2025-07-16T10:59:50Z</time>
      </trkpt>
      <trkpt lat="42.670717053115368" lon="1.393117820844054">
        <ele>2784.6999999999998</ele>
        <time>2025-07-16T11:00:18Z</time>
      </trkpt>
      <trkpt lat="42.670648489147425" lon="1.39307364821434">
        <ele>2787.3899999999999</ele>
        <time>2025-07-16T11:00:48Z</time>
      </trkpt>
      <trkpt lat="42.670594174414873" lon="1.393025787547231">
        <ele>2790.75</ele>
        <time>2025-07-16T11:01:29Z</time>
      </trkpt>
      <trkpt lat="42.670524436980486" lon="1.393000055104494">
        <ele>2794.9699999999998</ele>
        <time>2025-07-16T11:02:04Z</time>
      </trkpt>
      <trkpt lat="42.670468110591173" lon="1.392929647117853">
        <ele>2797.5500000000002</ele>
        <time>2025-07-16T11:02:39Z</time>
      </trkpt>
      <trkpt lat="42.67042544670403" lon="1.392845660448074">
        <ele>2799.1199999999999</ele>
        <time>2025-07-16T11:03:18Z</time>
      </trkpt>
      <trkpt lat="42.67035604454577" lon="1.392746167257428">
        <ele>2801.27</ele>
        <time>2025-07-16T11:03:43Z</time>
      </trkpt>
      <trkpt lat="42.67028572037816" lon="1.39265974983573">
        <ele>2803.54</ele>
        <time>2025-07-16T11:04:06Z</time>
      </trkpt>
      <trkpt lat="42.670259568840265" lon="1.392601327970624">
        <ele>2805.2600000000002</ele>
        <time>2025-07-16T11:04:57Z</time>
      </trkpt>
      <trkpt lat="42.67020164988935" lon="1.392553467303515">
        <ele>2809.5599999999999</ele>
        <time>2025-07-16T11:05:26Z</time>
      </trkpt>
      <trkpt lat="42.670149011537433" lon="1.392473084852099">
        <ele>2813.29</ele>
        <time>2025-07-16T11:06:00Z</time>
      </trkpt>
      <trkpt lat="42.670073742046952" lon="1.392461434006691">
        <ele>2820.4299999999998</ele>
        <time>2025-07-16T11:06:51Z</time>
      </trkpt>
      <trkpt lat="42.670021774247289" lon="1.392431929707527">
        <ele>2822.48</ele>
        <time>2025-07-16T11:07:29Z</time>
      </trkpt>
      <trkpt lat="42.670039292424917" lon="1.392308380454779">
        <ele>2826.8800000000001</ele>
        <time>2025-07-16T11:07:58Z</time>
      </trkpt>
      <trkpt lat="42.669997802004218" lon="1.392230428755283">
        <ele>2832.29</ele>
        <time>2025-07-16T11:08:31Z</time>
      </trkpt>
      <trkpt lat="42.669955724850297" lon="1.392155913636088">
        <ele>2834.3000000000002</ele>
        <time>2025-07-16T11:09:19Z</time>
      </trkpt>
      <trkpt lat="42.669904762879014" lon="1.392104532569647">
        <ele>2839.48</ele>
        <time>2025-07-16T11:09:59Z</time>
      </trkpt>
      <trkpt lat="42.669882467016578" lon="1.392006296664476">
        <ele>2840.75</ele>
        <time>2025-07-16T11:11:22Z</time>
      </trkpt>
      <trkpt lat="42.669836534187198" lon="1.391957765445113">
        <ele>2839.1799999999998</ele>
        <time>2025-07-16T11:16:19Z</time>
      </trkpt>
      <trkpt lat="42.669820105656981" lon="1.391916694119573">
        <ele>2835.8800000000001</ele>
        <time>2025-07-16T11:17:34Z</time>
      </trkpt>
      <trkpt lat="42.669767048209906" lon="1.391805047169328">
        <ele>2833.1100000000001</ele>
        <time>2025-07-16T11:18:08Z</time>
      </trkpt>
      <trkpt lat="42.669699992984533" lon="1.391730112954974">
        <ele>2834.8299999999999</ele>
        <time>2025-07-16T11:18:27Z</time>
      </trkpt>
      <trkpt lat="42.669646684080362" lon="1.391647383570671">
        <ele>2834.8400000000001</ele>
        <time>2025-07-16T11:18:46Z</time>
      </trkpt>
      <trkpt lat="42.669607205316424" lon="1.391708655282855">
        <ele>2838.1700000000001</ele>
        <time>2025-07-16T11:19:23Z</time>
      </trkpt>
      <trkpt lat="42.669542245566845" lon="1.391730280593038">
        <ele>2843.54</ele>
        <time>2025-07-16T11:19:48Z</time>
      </trkpt>
      <trkpt lat="42.669449793174863" lon="1.391710750758648">
        <ele>2843.6199999999999</ele>
        <time>2025-07-16T11:20:12Z</time>
      </trkpt>
      <trkpt lat="42.669364549219608" lon="1.391723407432437">
        <ele>2847.3200000000002</ele>
        <time>2025-07-16T11:20:41Z</time>
      </trkpt>
      <trkpt lat="42.669275030493736" lon="1.391753917559981">
        <ele>2851.8699999999999</ele>
        <time>2025-07-16T11:21:15Z</time>
      </trkpt>
      <trkpt lat="42.669185092672706" lon="1.391786774620414">
        <ele>2852.9099999999999</ele>
        <time>2025-07-16T11:21:40Z</time>
      </trkpt>
      <trkpt lat="42.66909540630877" lon="1.391785014420748">
        <ele>2853.9000000000001</ele>
        <time>2025-07-16T11:22:07Z</time>
      </trkpt>
      <trkpt lat="42.669013766571879" lon="1.391838323324919">
        <ele>2858.5500000000002</ele>
        <time>2025-07-16T11:22:53Z</time>
      </trkpt>
      <trkpt lat="42.66892047598958" lon="1.391847878694534">
        <ele>2869.25</ele>
        <time>2025-07-16T11:23:57Z</time>
      </trkpt>
      <trkpt lat="42.668840931728482" lon="1.391887944191694">
        <ele>2872.5700000000002</ele>
        <time>2025-07-16T11:24:21Z</time>
      </trkpt>
      <trkpt lat="42.668882086873055" lon="1.391941336914897">
        <ele>2865.2800000000002</ele>
        <time>2025-07-16T11:26:05Z</time>
      </trkpt>
      <trkpt lat="42.668838500976562" lon="1.391901187598705">
        <ele>2870.4499999999998</ele>
        <time>2025-07-16T11:34:35Z</time>
      </trkpt>
      <trkpt lat="42.668854258954525" lon="1.391909569501877">
        <ele>2868.2399999999998</ele>
        <time>2025-07-16T11:41:03Z</time>
      </trkpt>
      <trkpt lat="42.668842608109117" lon="1.391906719654799">
        <ele>2870.6399999999999</ele>
        <time>2025-07-16T11:47:08Z</time>
      </trkpt>
      <trkpt lat="42.668786952272058" lon="1.39192147180438">
        <ele>2866.5799999999999</ele>
        <time>2025-07-16T11:47:42Z</time>
      </trkpt>
      <trkpt lat="42.668761806562543" lon="1.392011577263475">
        <ele>2864.7600000000002</ele>
        <time>2025-07-16T11:48:03Z</time>
      </trkpt>
      <trkpt lat="42.668696511536837" lon="1.392026916146278">
        <ele>2860.8600000000001</ele>
        <time>2025-07-16T11:48:26Z</time>
      </trkpt>
      <trkpt lat="42.66862484626472" lon="1.392013002187014">
        <ele>2857.0700000000002</ele>
        <time>2025-07-16T11:48:50Z</time>
      </trkpt>
      <trkpt lat="42.668570866808295" lon="1.392085840925574">
        <ele>2853.2399999999998</ele>
        <time>2025-07-16T11:49:20Z</time>
      </trkpt>
      <trkpt lat="42.668503476306796" lon="1.392106795683503">
        <ele>2847.8400000000001</ele>
        <time>2025-07-16T11:49:44Z</time>
      </trkpt>
      <trkpt lat="42.668428122997284" lon="1.392137138172984">
        <ele>2843</ele>
        <time>2025-07-16T11:50:10Z</time>
      </trkpt>
      <trkpt lat="42.668347405269742" lon="1.392147028818727">
        <ele>2838.9299999999998</ele>
        <time>2025-07-16T11:50:32Z</time>
      </trkpt>
      <trkpt lat="42.668266352266073" lon="1.392186339944601">
        <ele>2835.23</ele>
        <time>2025-07-16T11:50:51Z</time>
      </trkpt>
      <trkpt lat="42.668179012835026" lon="1.392227243632078">
        <ele>2832.9400000000001</ele>
        <time>2025-07-16T11:51:05Z</time>
      </trkpt>
      <trkpt lat="42.668103240430355" lon="1.392291616648436">
        <ele>2831.6300000000001</ele>
        <time>2025-07-16T11:51:20Z</time>
      </trkpt>
      <trkpt lat="42.668027300387621" lon="1.392341908067465">
        <ele>2826.6700000000001</ele>
        <time>2025-07-16T11:51:37Z</time>
      </trkpt>
      <trkpt lat="42.667932165786624" lon="1.392333107069135">
        <ele>2822.1500000000001</ele>
        <time>2025-07-16T11:51:53Z</time>
      </trkpt>
      <trkpt lat="42.667848346754909" lon="1.392352217808366">
        <ele>2818.6599999999999</ele>
        <time>2025-07-16T11:52:15Z</time>
      </trkpt>
      <trkpt lat="42.66776972450316" lon="1.39238222502172">
        <ele>2814.73</ele>
        <time>2025-07-16T11:52:43Z</time>
      </trkpt>
      <trkpt lat="42.667701495811343" lon="1.392447184771299">
        <ele>2811.98</ele>
        <time>2025-07-16T11:53:06Z</time>
      </trkpt>
      <trkpt lat="42.667616251856089" lon="1.392484148964286">
        <ele>2808.4699999999998</ele>
        <time>2025-07-16T11:53:59Z</time>
      </trkpt>
      <trkpt lat="42.667529499158263" lon="1.392477191984654">
        <ele>2805.9200000000001</ele>
        <time>2025-07-16T11:54:26Z</time>
      </trkpt>
      <trkpt lat="42.667448949068785" lon="1.392441568896174">
        <ele>2802.6700000000001</ele>
        <time>2025-07-16T11:55:01Z</time>
      </trkpt>
      <trkpt lat="42.667350461706519" lon="1.392448609694839">
        <ele>2800.9699999999998</ele>
        <time>2025-07-16T11:55:18Z</time>
      </trkpt>
      <trkpt lat="42.667264044284821" lon="1.392504349350929">
        <ele>2797.4200000000001</ele>
        <time>2025-07-16T11:55:35Z</time>
      </trkpt>
      <trkpt lat="42.667199084535241" lon="1.392589928582311">
        <ele>2794.96</ele>
        <time>2025-07-16T11:55:51Z</time>
      </trkpt>
      <trkpt lat="42.667118031531572" lon="1.392642147839069">
        <ele>2792.52</ele>
        <time>2025-07-16T11:56:11Z</time>
      </trkpt>
      <trkpt lat="42.667036475613713" lon="1.392694115638733">
        <ele>2790.0700000000002</ele>
        <time>2025-07-16T11:56:27Z</time>
      </trkpt>
      <trkpt lat="42.666967492550611" lon="1.392672071233392">
        <ele>2786.6199999999999</ele>
        <time>2025-07-16T11:56:45Z</time>
      </trkpt>
      <trkpt lat="42.666892139241099" lon="1.392643824219704">
        <ele>2782.8499999999999</ele>
        <time>2025-07-16T11:57:20Z</time>
      </trkpt>
      <trkpt lat="42.666840087622404" lon="1.392629574984312">
        <ele>2779.3699999999999</ele>
        <time>2025-07-16T11:57:42Z</time>
      </trkpt>
      <trkpt lat="42.666755011305213" lon="1.392630664631724">
        <ele>2775.3299999999999</ele>
        <time>2025-07-16T11:58:06Z</time>
      </trkpt>
      <trkpt lat="42.666673455387354" lon="1.392642147839069">
        <ele>2773.8899999999999</ele>
        <time>2025-07-16T11:58:31Z</time>
      </trkpt>
      <trkpt lat="42.666591312736273" lon="1.392640136182308">
        <ele>2774.2800000000002</ele>
        <time>2025-07-16T11:58:52Z</time>
      </trkpt>
      <trkpt lat="42.666510678827763" lon="1.392613481730223">
        <ele>2767.0500000000002</ele>
        <time>2025-07-16T11:59:19Z</time>
      </trkpt>
      <trkpt lat="42.666526939719915" lon="1.392582803964615">
        <ele>2767.3499999999999</ele>
        <time>2025-07-16T12:01:31Z</time>
      </trkpt>
      <trkpt lat="42.66644362360239" lon="1.392642064020038">
        <ele>2764.4899999999998</ele>
        <time>2025-07-16T12:02:13Z</time>
      </trkpt>
      <trkpt lat="42.66636785119772" lon="1.392719680443406">
        <ele>2761.73</ele>
        <time>2025-07-16T12:02:29Z</time>
      </trkpt>
      <trkpt lat="42.666284367442131" lon="1.39278874732554">
        <ele>2758.9299999999998</ele>
        <time>2025-07-16T12:02:46Z</time>
      </trkpt>
      <trkpt lat="42.666212199255824" lon="1.392854629084468">
        <ele>2756.5999999999999</ele>
        <time>2025-07-16T12:03:03Z</time>
      </trkpt>
      <trkpt lat="42.666134666651487" lon="1.392836356535554">
        <ele>2753.04</ele>
        <time>2025-07-16T12:03:27Z</time>
      </trkpt>
      <trkpt lat="42.666057385504246" lon="1.392829567193985">
        <ele>2747.4299999999998</ele>
        <time>2025-07-16T12:03:47Z</time>
      </trkpt>
      <trkpt lat="42.665983624756336" lon="1.392816994339228">
        <ele>2743.8200000000002</ele>
        <time>2025-07-16T12:04:09Z</time>
      </trkpt>
      <trkpt lat="42.665951102972031" lon="1.392711130902171">
        <ele>2740.1199999999999</ele>
        <time>2025-07-16T12:04:35Z</time>
      </trkpt>
      <trkpt lat="42.665872229263186" lon="1.392721524462104">
        <ele>2735.8299999999999</ele>
        <time>2025-07-16T12:04:56Z</time>
      </trkpt>
      <trkpt lat="42.66582990065217" lon="1.392628401517868">
        <ele>2732.4200000000001</ele>
        <time>2025-07-16T12:05:17Z</time>
      </trkpt>
      <trkpt lat="42.665747003629804" lon="1.392679195851088">
        <ele>2728.02</ele>
        <time>2025-07-16T12:05:42Z</time>
      </trkpt>
      <trkpt lat="42.665696544572711" lon="1.392648350447416">
        <ele>2725.2199999999998</ele>
        <time>2025-07-16T12:06:07Z</time>
      </trkpt>
      <trkpt lat="42.66563393175602" lon="1.392627311870456">
        <ele>2720.5</ele>
        <time>2025-07-16T12:06:46Z</time>
      </trkpt>
      <trkpt lat="42.665577353909612" lon="1.39260308817029">
        <ele>2716.6100000000001</ele>
        <time>2025-07-16T12:07:14Z</time>
      </trkpt>
      <trkpt lat="42.665507113561034" lon="1.39257182367146">
        <ele>2711.9099999999999</ele>
        <time>2025-07-16T12:07:50Z</time>
      </trkpt>
      <trkpt lat="42.665441818535328" lon="1.392545588314533">
        <ele>2707.2199999999998</ele>
        <time>2025-07-16T12:08:25Z</time>
      </trkpt>
      <trkpt lat="42.665361352264881" lon="1.392551036551595">
        <ele>2702.0900000000001</ele>
        <time>2025-07-16T12:09:12Z</time>
      </trkpt>
      <trkpt lat="42.665317347273231" lon="1.392465960234404">
        <ele>2699.0999999999999</ele>
        <time>2025-07-16T12:09:52Z</time>
      </trkpt>
      <trkpt lat="42.665257668122649" lon="1.392513401806355">
        <ele>2695.46</ele>
        <time>2025-07-16T12:10:12Z</time>
      </trkpt>
      <trkpt lat="42.66519270837307" lon="1.392514826729894">
        <ele>2691.73</ele>
        <time>2025-07-16T12:10:53Z</time>
      </trkpt>
      <trkpt lat="42.665122132748365" lon="1.392579367384315">
        <ele>2687.9200000000001</ele>
        <time>2025-07-16T12:11:17Z</time>
      </trkpt>
      <trkpt lat="42.665027417242527" lon="1.392580037936568">
        <ele>2682</ele>
        <time>2025-07-16T12:12:19Z</time>
      </trkpt>
      <trkpt lat="42.664939574897289" lon="1.392554640769959">
        <ele>2677.4400000000001</ele>
        <time>2025-07-16T12:12:54Z</time>
      </trkpt>
      <trkpt lat="42.664868077263236" lon="1.392658576369286">
        <ele>2672.4099999999999</ele>
        <time>2025-07-16T12:13:46Z</time>
      </trkpt>
      <trkpt lat="42.664792221039534" lon="1.39267249032855">
        <ele>2667.8000000000002</ele>
        <time>2025-07-16T12:14:34Z</time>
      </trkpt>
      <trkpt lat="42.664695158600807" lon="1.392652960494161">
        <ele>2660.9099999999999</ele>
        <time>2025-07-16T12:17:35Z</time>
      </trkpt>
      <trkpt lat="42.664611926302314" lon="1.39268271625042">
        <ele>2656.5100000000002</ele>
        <time>2025-07-16T12:18:14Z</time>
      </trkpt>
      <trkpt lat="42.664560796692967" lon="1.392661761492491">
        <ele>2653.6599999999999</ele>
        <time>2025-07-16T12:18:41Z</time>
      </trkpt>
      <trkpt lat="42.664552833884954" lon="1.392571236938238">
        <ele>2651.6700000000001</ele>
        <time>2025-07-16T12:19:06Z</time>
      </trkpt>
      <trkpt lat="42.664484605193138" lon="1.392521113157272">
        <ele>2647.6700000000001</ele>
        <time>2025-07-16T12:19:44Z</time>
      </trkpt>
      <trkpt lat="42.664434481412172" lon="1.392418770119548">
        <ele>2643.1999999999998</ele>
        <time>2025-07-16T12:20:18Z</time>
      </trkpt>
      <trkpt lat="42.664352925494313" lon="1.392463613301516">
        <ele>2640.0100000000002</ele>
        <time>2025-07-16T12:20:37Z</time>
      </trkpt>
      <trkpt lat="42.664303723722696" lon="1.39243746176362">
        <ele>2636.54</ele>
        <time>2025-07-16T12:21:04Z</time>
      </trkpt>
      <trkpt lat="42.664238093420863" lon="1.392418602481484">
        <ele>2633.02</ele>
        <time>2025-07-16T12:21:31Z</time>
      </trkpt>
      <trkpt lat="42.664181599393487" lon="1.392414662986994">
        <ele>2630.2800000000002</ele>
        <time>2025-07-16T12:21:55Z</time>
      </trkpt>
      <trkpt lat="42.664124267175794" lon="1.392385913059115">
        <ele>2627.48</ele>
        <time>2025-07-16T12:22:18Z</time>
      </trkpt>
      <trkpt lat="42.664041537791491" lon="1.392420027405024">
        <ele>2622.79</ele>
        <time>2025-07-16T12:22:47Z</time>
      </trkpt>
      <trkpt lat="42.663980014622211" lon="1.39238566160202">
        <ele>2618.4499999999998</ele>
        <time>2025-07-16T12:23:11Z</time>
      </trkpt>
      <trkpt lat="42.663954701274633" lon="1.392256412655115">
        <ele>2615.71</ele>
        <time>2025-07-16T12:23:27Z</time>
      </trkpt>
      <trkpt lat="42.663923101499677" lon="1.392146609723568">
        <ele>2612.71</ele>
        <time>2025-07-16T12:23:43Z</time>
      </trkpt>
      <trkpt lat="42.663834001868963" lon="1.392212826758623">
        <ele>2609.7399999999998</ele>
        <time>2025-07-16T12:23:59Z</time>
      </trkpt>
      <trkpt lat="42.663761917501688" lon="1.392199331894517">
        <ele>2606.04</ele>
        <time>2025-07-16T12:24:16Z</time>
      </trkpt>
      <trkpt lat="42.663691090419888" lon="1.392212407663465">
        <ele>2602.5</ele>
        <time>2025-07-16T12:24:29Z</time>
      </trkpt>
      <trkpt lat="42.663633339107037" lon="1.392207713797689">
        <ele>2600</ele>
        <time>2025-07-16T12:24:43Z</time>
      </trkpt>
      <trkpt lat="42.663578605279326" lon="1.392169408500195">
        <ele>2597.2800000000002</ele>
        <time>2025-07-16T12:25:01Z</time>
      </trkpt>
      <trkpt lat="42.663507862016559" lon="1.392170246690512">
        <ele>2594.4699999999998</ele>
        <time>2025-07-16T12:25:21Z</time>
      </trkpt>
      <trkpt lat="42.663425300270319" lon="1.392182484269142">
        <ele>2589.3400000000001</ele>
        <time>2025-07-16T12:25:41Z</time>
      </trkpt>
      <trkpt lat="42.663334105163813" lon="1.392236966639757">
        <ele>2586.2600000000002</ele>
        <time>2025-07-16T12:25:56Z</time>
      </trkpt>
      <trkpt lat="42.663248777389526" lon="1.392270158976317">
        <ele>2582.3000000000002</ele>
        <time>2025-07-16T12:26:11Z</time>
      </trkpt>
      <trkpt lat="42.663193708285689" lon="1.392356660217047">
        <ele>2581.1100000000001</ele>
        <time>2025-07-16T12:26:19Z</time>
      </trkpt>
      <trkpt lat="42.663145177066326" lon="1.392281977459788">
        <ele>2577.5599999999999</ele>
        <time>2025-07-16T12:26:33Z</time>
      </trkpt>
      <trkpt lat="42.663086168467999" lon="1.39222975820303">
        <ele>2574.9000000000001</ele>
        <time>2025-07-16T12:26:47Z</time>
      </trkpt>
      <trkpt lat="42.663013497367501" lon="1.392189525067806">
        <ele>2572.1700000000001</ele>
        <time>2025-07-16T12:27:00Z</time>
      </trkpt>
      <trkpt lat="42.662939401343465" lon="1.392170330509543">
        <ele>2569.79</ele>
        <time>2025-07-16T12:27:15Z</time>
      </trkpt>
      <trkpt lat="42.662867736071348" lon="1.392170498147607">
        <ele>2566.9699999999998</ele>
        <time>2025-07-16T12:27:26Z</time>
      </trkpt>
      <trkpt lat="42.662774194031954" lon="1.392206288874149">
        <ele>2564.0999999999999</ele>
        <time>2025-07-16T12:27:41Z</time>
      </trkpt>
      <trkpt lat="42.662691380828619" lon="1.392174186185002">
        <ele>2562.0999999999999</ele>
        <time>2025-07-16T12:27:55Z</time>
      </trkpt>
      <trkpt lat="42.662616781890392" lon="1.392166977748275">
        <ele>2560.1700000000001</ele>
        <time>2025-07-16T12:28:07Z</time>
      </trkpt>
      <trkpt lat="42.662536818534136" lon="1.392131689935923">
        <ele>2559.3600000000001</ele>
        <time>2025-07-16T12:28:17Z</time>
      </trkpt>
      <trkpt lat="42.662443947046995" lon="1.392156416550279">
        <ele>2558.3499999999999</ele>
        <time>2025-07-16T12:28:27Z</time>
      </trkpt>
      <trkpt lat="42.662356272339821" lon="1.392157003283501">
        <ele>2556.96</ele>
        <time>2025-07-16T12:28:39Z</time>
      </trkpt>
      <trkpt lat="42.662365408614278" lon="1.392059186473489">
        <ele>2554.7399999999998</ele>
        <time>2025-07-16T12:28:55Z</time>
      </trkpt>
      <trkpt lat="42.662307741120458" lon="1.39200596138835">
        <ele>2552.6300000000001</ele>
        <time>2025-07-16T12:29:11Z</time>
      </trkpt>
      <trkpt lat="42.662253342568874" lon="1.391903031617403">
        <ele>2549.98</ele>
        <time>2025-07-16T12:29:26Z</time>
      </trkpt>
      <trkpt lat="42.662203805521131" lon="1.391827091574669">
        <ele>2546.46</ele>
        <time>2025-07-16T12:29:45Z</time>
      </trkpt>
      <trkpt lat="42.662161476910114" lon="1.391712091863155">
        <ele>2544.1500000000001</ele>
        <time>2025-07-16T12:29:56Z</time>
      </trkpt>
      <trkpt lat="42.66212266869843" lon="1.391715528443456">
        <ele>2543.9000000000001</ele>
        <time>2025-07-16T12:31:03Z</time>
      </trkpt>
      <trkpt lat="42.662106156349182" lon="1.391642270609736">
        <ele>2542.6900000000001</ele>
        <time>2025-07-16T12:31:48Z</time>
      </trkpt>
      <trkpt lat="42.662019906565547" lon="1.391576640307903">
        <ele>2542.0300000000002</ele>
        <time>2025-07-16T12:31:57Z</time>
      </trkpt>
      <trkpt lat="42.661935081705451" lon="1.391517799347639">
        <ele>2541.6700000000001</ele>
        <time>2025-07-16T12:32:06Z</time>
      </trkpt>
      <trkpt lat="42.661856710910797" lon="1.391461053863168">
        <ele>2540.4299999999998</ele>
        <time>2025-07-16T12:32:20Z</time>
      </trkpt>
      <trkpt lat="42.661779429763556" lon="1.391490306705236">
        <ele>2540</ele>
        <time>2025-07-16T12:33:25Z</time>
      </trkpt>
      <trkpt lat="42.661742800846696" lon="1.391471698880196">
        <ele>2538.8699999999999</ele>
        <time>2025-07-16T12:43:48Z</time>
      </trkpt>
      <trkpt lat="42.661763085052371" lon="1.391468765214086">
        <ele>2539.0900000000001</ele>
        <time>2025-07-16T12:48:52Z</time>
      </trkpt>
      <trkpt lat="42.661742633208632" lon="1.391453677788377">
        <ele>2539.6599999999999</ele>
        <time>2025-07-16T12:49:55Z</time>
      </trkpt>
      <trkpt lat="42.661712123081088" lon="1.391335157677531">
        <ele>2536.0700000000002</ele>
        <time>2025-07-16T12:50:10Z</time>
      </trkpt>
      <trkpt lat="42.661640122532845" lon="1.391262821853161">
        <ele>2534.6700000000001</ele>
        <time>2025-07-16T12:50:26Z</time>
      </trkpt>
      <trkpt lat="42.661590669304132" lon="1.391153102740645">
        <ele>2534.6100000000001</ele>
        <time>2025-07-16T12:50:37Z</time>
      </trkpt>
      <trkpt lat="42.66153140924871" lon="1.391061237081885">
        <ele>2534.4299999999998</ele>
        <time>2025-07-16T12:50:47Z</time>
      </trkpt>
      <trkpt lat="42.661473406478763" lon="1.39097398146987">
        <ele>2533.3200000000002</ele>
        <time>2025-07-16T12:50:57Z</time>
      </trkpt>
      <trkpt lat="42.66142001375556" lon="1.390861412510276">
        <ele>2532.3200000000002</ele>
        <time>2025-07-16T12:51:08Z</time>
      </trkpt>
      <trkpt lat="42.661340134218335" lon="1.390797039493918">
        <ele>2531.5</ele>
        <time>2025-07-16T12:51:18Z</time>
      </trkpt>
      <trkpt lat="42.661255560815334" lon="1.390744568780065">
        <ele>2532.3099999999999</ele>
        <time>2025-07-16T12:51:30Z</time>
      </trkpt>
      <trkpt lat="42.661188254132867" lon="1.39066125266254">
        <ele>2529.4000000000001</ele>
        <time>2025-07-16T12:51:42Z</time>
      </trkpt>
      <trkpt lat="42.661100663244724" lon="1.390608195215464">
        <ele>2528.96</ele>
        <time>2025-07-16T12:51:53Z</time>
      </trkpt>
      <trkpt lat="42.661031680181623" lon="1.390536362305284">
        <ele>2529.0999999999999</ele>
        <time>2025-07-16T12:52:06Z</time>
      </trkpt>
      <trkpt lat="42.660995470359921" lon="1.390428235754371">
        <ele>2524.7600000000002</ele>
        <time>2025-07-16T12:52:19Z</time>
      </trkpt>
      <trkpt lat="42.660962026566267" lon="1.390326395630837">
        <ele>2523.98</ele>
        <time>2025-07-16T12:52:32Z</time>
      </trkpt>
      <trkpt lat="42.66096705570817" lon="1.390207791700959">
        <ele>2522.1599999999999</ele>
        <time>2025-07-16T12:52:43Z</time>
      </trkpt>
      <trkpt lat="42.660918524488807" lon="1.390104526653886">
        <ele>2519.9200000000001</ele>
        <time>2025-07-16T12:52:54Z</time>
      </trkpt>
      <trkpt lat="42.660881895571947" lon="1.38999187387526">
        <ele>2519.1999999999998</ele>
        <time>2025-07-16T12:53:03Z</time>
      </trkpt>
      <trkpt lat="42.660855241119862" lon="1.389870252460241">
        <ele>2518.4299999999998</ele>
        <time>2025-07-16T12:53:12Z</time>
      </trkpt>
      <trkpt lat="42.660805201157928" lon="1.38977587223053">
        <ele>2517.54</ele>
        <time>2025-07-16T12:53:21Z</time>
      </trkpt>
      <trkpt lat="42.66074719838798" lon="1.389671601355076">
        <ele>2517.5500000000002</ele>
        <time>2025-07-16T12:53:31Z</time>
      </trkpt>
      <trkpt lat="42.660733284428716" lon="1.389546962454915">
        <ele>2516.3200000000002</ele>
        <time>2025-07-16T12:53:40Z</time>
      </trkpt>
      <trkpt lat="42.660710234194994" lon="1.38942064717412">
        <ele>2515.8899999999999</ele>
        <time>2025-07-16T12:53:49Z</time>
      </trkpt>
      <trkpt lat="42.660696320235729" lon="1.389291984960437">
        <ele>2515.8800000000001</ele>
        <time>2025-07-16T12:53:59Z</time>
      </trkpt>
      <trkpt lat="42.660679472610354" lon="1.389170866459608">
        <ele>2515.3400000000001</ele>
        <time>2025-07-16T12:54:09Z</time>
      </trkpt>
      <trkpt lat="42.66063722781837" lon="1.389052765443921">
        <ele>2514.8499999999999</ele>
        <time>2025-07-16T12:54:20Z</time>
      </trkpt>
      <trkpt lat="42.660632450133562" lon="1.388932652771473">
        <ele>2512.9299999999998</ele>
        <time>2025-07-16T12:54:32Z</time>
      </trkpt>
      <trkpt lat="42.660584170371294" lon="1.388840200379491">
        <ele>2510.27</ele>
        <time>2025-07-16T12:54:46Z</time>
      </trkpt>
      <trkpt lat="42.660530777648091" lon="1.388742467388511">
        <ele>2509.3899999999999</ele>
        <time>2025-07-16T12:54:58Z</time>
      </trkpt>
      <trkpt lat="42.660519881173968" lon="1.388624701648951">
        <ele>2508.0700000000002</ele>
        <time>2025-07-16T12:55:10Z</time>
      </trkpt>
      <trkpt lat="42.660443438217044" lon="1.388566447421908">
        <ele>2505.9400000000001</ele>
        <time>2025-07-16T12:55:23Z</time>
      </trkpt>
      <trkpt lat="42.660350985825062" lon="1.388548091053963">
        <ele>2504.75</ele>
        <time>2025-07-16T12:55:38Z</time>
      </trkpt>
      <trkpt lat="42.660256354138255" lon="1.388536859303713">
        <ele>2503.1599999999999</ele>
        <time>2025-07-16T12:55:51Z</time>
      </trkpt>
      <trkpt lat="42.660156777128577" lon="1.388515066355467">
        <ele>2503.2800000000002</ele>
        <time>2025-07-16T12:56:02Z</time>
      </trkpt>
      <trkpt lat="42.660059798508883" lon="1.38848933391273">
        <ele>2503.0999999999999</ele>
        <time>2025-07-16T12:56:11Z</time>
      </trkpt>
      <trkpt lat="42.659973381087184" lon="1.388460081070662">
        <ele>2503.0900000000001</ele>
        <time>2025-07-16T12:56:25Z</time>
      </trkpt>
      <trkpt lat="42.659884197637439" lon="1.388454968109727">
        <ele>2502.1799999999998</ele>
        <time>2025-07-16T12:56:34Z</time>
      </trkpt>
      <trkpt lat="42.659789733588696" lon="1.388445580378175">
        <ele>2500.6399999999999</ele>
        <time>2025-07-16T12:56:44Z</time>
      </trkpt>
      <trkpt lat="42.659696778282523" lon="1.388413393869996">
        <ele>2499.4099999999999</ele>
        <time>2025-07-16T12:56:54Z</time>
      </trkpt>
      <trkpt lat="42.65960038639605" lon="1.388413393869996">
        <ele>2498.52</ele>
        <time>2025-07-16T12:57:03Z</time>
      </trkpt>
      <trkpt lat="42.659515142440796" lon="1.388344746083021">
        <ele>2497.7399999999998</ele>
        <time>2025-07-16T12:57:13Z</time>
      </trkpt>
      <trkpt lat="42.659440627321601" lon="1.388275260105729">
        <ele>2497.2600000000002</ele>
        <time>2025-07-16T12:57:22Z</time>
      </trkpt>
      <trkpt lat="42.659355634823442" lon="1.388217508792877">
        <ele>2497</ele>
        <time>2025-07-16T12:57:31Z</time>
      </trkpt>
      <trkpt lat="42.65926762484014" lon="1.388174928724766">
        <ele>2496.8499999999999</ele>
        <time>2025-07-16T12:57:40Z</time>
      </trkpt>
      <trkpt lat="42.65919235534966" lon="1.388105945661664">
        <ele>2497.4000000000001</ele>
        <time>2025-07-16T12:57:51Z</time>
      </trkpt>
      <trkpt lat="42.659114319831133" lon="1.388041824102402">
        <ele>2497.9899999999998</ele>
        <time>2025-07-16T12:58:01Z</time>
      </trkpt>
      <trkpt lat="42.659044414758682" lon="1.387957753613591">
        <ele>2498.1900000000001</ele>
        <time>2025-07-16T12:58:11Z</time>
      </trkpt>
      <trkpt lat="42.658974174410105" lon="1.387875443324447">
        <ele>2499.1100000000001</ele>
        <time>2025-07-16T12:58:22Z</time>
      </trkpt>
      <trkpt lat="42.658900832757354" lon="1.387800592929125">
        <ele>2500.6399999999999</ele>
        <time>2025-07-16T12:58:36Z</time>
      </trkpt>
      <trkpt lat="42.658829670399427" lon="1.387732112780213">
        <ele>2503.1500000000001</ele>
        <time>2025-07-16T12:58:49Z</time>
      </trkpt>
      <trkpt lat="42.658761776983738" lon="1.387647539377213">
        <ele>2503.4499999999998</ele>
        <time>2025-07-16T12:59:05Z</time>
      </trkpt>
      <trkpt lat="42.658675108104944" lon="1.387649131938815">
        <ele>2505.27</ele>
        <time>2025-07-16T12:59:21Z</time>
      </trkpt>
      <trkpt lat="42.658584835007787" lon="1.387659944593906">
        <ele>2505.5900000000001</ele>
        <time>2025-07-16T12:59:39Z</time>
      </trkpt>
      <trkpt lat="42.658509565517306" lon="1.387663297355175">
        <ele>2503.71</ele>
        <time>2025-07-16T12:59:54Z</time>
      </trkpt>
      <trkpt lat="42.658461621031165" lon="1.387548800557852">
        <ele>2501.1900000000001</ele>
        <time>2025-07-16T13:00:08Z</time>
      </trkpt>
      <trkpt lat="42.658385010436177" lon="1.387465568259358">
        <ele>2499.3000000000002</ele>
        <time>2025-07-16T13:00:18Z</time>
      </trkpt>
      <trkpt lat="42.658300353214145" lon="1.387420473620296">
        <ele>2499.5999999999999</ele>
        <time>2025-07-16T13:00:28Z</time>
      </trkpt>
      <trkpt lat="42.658205470070243" lon="1.387430699542165">
        <ele>2500.79</ele>
        <time>2025-07-16T13:00:38Z</time>
      </trkpt>
      <trkpt lat="42.658113436773419" lon="1.387444864958525">
        <ele>2500.0900000000001</ele>
        <time>2025-07-16T13:00:48Z</time>
      </trkpt>
      <trkpt lat="42.658020481467247" lon="1.387446625158191">
        <ele>2499.9699999999998</ele>
        <time>2025-07-16T13:00:59Z</time>
      </trkpt>
      <trkpt lat="42.657930962741375" lon="1.387411002069712">
        <ele>2499.3000000000002</ele>
        <time>2025-07-16T13:01:11Z</time>
      </trkpt>
      <trkpt lat="42.657827194780111" lon="1.387437153607607">
        <ele>2500.73</ele>
        <time>2025-07-16T13:01:27Z</time>
      </trkpt>
      <trkpt lat="42.657740861177444" lon="1.387483086436987">
        <ele>2501.0500000000002</ele>
        <time>2025-07-16T13:01:39Z</time>
      </trkpt>
      <trkpt lat="42.657649498432875" lon="1.387467999011278">
        <ele>2500.79</ele>
        <time>2025-07-16T13:01:52Z</time>
      </trkpt>
      <trkpt lat="42.657556124031544" lon="1.387495659291744">
        <ele>2500.27</ele>
        <time>2025-07-16T13:02:47Z</time>
      </trkpt>
      <trkpt lat="42.657457804307342" lon="1.387507393956184">
        <ele>2499.29</ele>
        <time>2025-07-16T13:04:22Z</time>
      </trkpt>
      <trkpt lat="42.657410111278296" lon="1.387549135833979">
        <ele>2495.02</ele>
        <time>2025-07-16T13:04:46Z</time>
      </trkpt>
      <trkpt lat="42.65735269524157" lon="1.387605210766196">
        <ele>2491.8299999999999</ele>
        <time>2025-07-16T13:05:14Z</time>
      </trkpt>
      <trkpt lat="42.657281784340739" lon="1.387661537155509">
        <ele>2487.1399999999999</ele>
        <time>2025-07-16T13:05:40Z</time>
      </trkpt>
      <trkpt lat="42.657198132947087" lon="1.387670421972871">
        <ele>2484.8400000000001</ele>
        <time>2025-07-16T13:05:55Z</time>
      </trkpt>
      <trkpt lat="42.65711473301053" lon="1.387715432792902">
        <ele>2482.79</ele>
        <time>2025-07-16T13:06:09Z</time>
      </trkpt>
      <trkpt lat="42.657014653086662" lon="1.387725239619613">
        <ele>2480.8400000000001</ele>
        <time>2025-07-16T13:06:31Z</time>
      </trkpt>
      <trkpt lat="42.65692513436079" lon="1.387727921828628">
        <ele>2479.4899999999998</ele>
        <time>2025-07-16T13:06:45Z</time>
      </trkpt>
      <trkpt lat="42.656842740252614" lon="1.387755917385221">
        <ele>2477.8000000000002</ele>
        <time>2025-07-16T13:06:59Z</time>
      </trkpt>
      <trkpt lat="42.656759507954121" lon="1.387778632342815">
        <ele>2475.3800000000001</ele>
        <time>2025-07-16T13:07:15Z</time>
      </trkpt>
      <trkpt lat="42.656681472435594" lon="1.387792965397239">
        <ele>2475.4299999999998</ele>
        <time>2025-07-16T13:07:32Z</time>
      </trkpt>
      <trkpt lat="42.656602850183845" lon="1.387826576828957">
        <ele>2475.2800000000002</ele>
        <time>2025-07-16T13:07:46Z</time>
      </trkpt>
      <trkpt lat="42.656517690047622" lon="1.38785800896585">
        <ele>2476.0900000000001</ele>
        <time>2025-07-16T13:07:59Z</time>
      </trkpt>
      <trkpt lat="42.656444264575839" lon="1.387934284284711">
        <ele>2476.5999999999999</ele>
        <time>2025-07-16T13:08:09Z</time>
      </trkpt>
      <trkpt lat="42.656371928751469" lon="1.387963201850653">
        <ele>2476.23</ele>
        <time>2025-07-16T13:09:27Z</time>
      </trkpt>
      <trkpt lat="42.65633337199688" lon="1.387894218787551">
        <ele>2475.5500000000002</ele>
        <time>2025-07-16T13:09:58Z</time>
      </trkpt>
      <trkpt lat="42.656329432502389" lon="1.387902516871691">
        <ele>2475.8400000000001</ele>
        <time>2025-07-16T13:10:37Z</time>
      </trkpt>
      <trkpt lat="42.656338987872005" lon="1.387899499386549">
        <ele>2475.1599999999999</ele>
        <time>2025-07-16T13:11:36Z</time>
      </trkpt>
      <trkpt lat="42.656342508271337" lon="1.387909138575196">
        <ele>2473.9000000000001</ele>
        <time>2025-07-16T13:12:29Z</time>
      </trkpt>
      <trkpt lat="42.656331108883023" lon="1.387901427224279">
        <ele>2473.5599999999999</ele>
        <time>2025-07-16T13:13:07Z</time>
      </trkpt>
      <trkpt lat="42.656322559341788" lon="1.387901594862342">
        <ele>2473.2800000000002</ele>
        <time>2025-07-16T13:13:19Z</time>
      </trkpt>
      <trkpt lat="42.656312417238951" lon="1.387901259586215">
        <ele>2472.7399999999998</ele>
        <time>2025-07-16T13:13:54Z</time>
      </trkpt>
      <trkpt lat="42.656306633725762" lon="1.387909725308418">
        <ele>2472.8699999999999</ele>
        <time>2025-07-16T13:14:11Z</time>
      </trkpt>
      <trkpt lat="42.65630797483027" lon="1.387909976765513">
        <ele>2473.4099999999999</ele>
        <time>2025-07-16T13:14:42Z</time>
      </trkpt>
      <trkpt lat="42.656307555735111" lon="1.387912575155497">
        <ele>2473</ele>
        <time>2025-07-16T13:15:11Z</time>
      </trkpt>
      <trkpt lat="42.65628894791007" lon="1.387914838269353">
        <ele>2473.3499999999999</ele>
        <time>2025-07-16T13:15:22Z</time>
      </trkpt>
      <trkpt lat="42.656279979273677" lon="1.38789271004498">
        <ele>2473.0300000000002</ele>
        <time>2025-07-16T13:15:34Z</time>
      </trkpt>
      <trkpt lat="42.656303029507399" lon="1.387901762500405">
        <ele>2473.0999999999999</ele>
        <time>2025-07-16T13:15:52Z</time>
      </trkpt>
      <trkpt lat="42.65630898065865" lon="1.387902433052659">
        <ele>2472.0700000000002</ele>
        <time>2025-07-16T13:16:19Z</time>
      </trkpt>
      <trkpt lat="42.656330270692706" lon="1.387902265414596">
        <ele>2471.6100000000001</ele>
        <time>2025-07-16T13:16:43Z</time>
      </trkpt>
      <trkpt lat="42.6563202124089" lon="1.387902935966849">
        <ele>2472.0599999999999</ele>
        <time>2025-07-16T13:16:59Z</time>
      </trkpt>
      <trkpt lat="42.656325828284025" lon="1.387904528528452">
        <ele>2472.3000000000002</ele>
        <time>2025-07-16T13:17:08Z</time>
      </trkpt>
      <trkpt lat="42.65631627291441" lon="1.387941744178534">
        <ele>2473.4099999999999</ele>
        <time>2025-07-16T13:18:43Z</time>
      </trkpt>
      <trkpt lat="42.656318703666329" lon="1.387951634824276">
        <ele>2472.75</ele>
        <time>2025-07-16T13:19:10Z</time>
      </trkpt>
      <trkpt lat="42.656311159953475" lon="1.387905618175864">
        <ele>2471.1300000000001</ele>
        <time>2025-07-16T13:29:57Z</time>
      </trkpt>
      <trkpt lat="42.656311579048634" lon="1.387929171323776">
        <ele>2471.1500000000001</ele>
        <time>2025-07-16T13:35:29Z</time>
      </trkpt>
      <trkpt lat="42.656334796920419" lon="1.387914167717099">
        <ele>2471.0999999999999</ele>
        <time>2025-07-16T13:41:26Z</time>
      </trkpt>
      <trkpt lat="42.656246954575181" lon="1.387876700609922">
        <ele>2469.8600000000001</ele>
        <time>2025-07-16T13:41:44Z</time>
      </trkpt>
      <trkpt lat="42.656150730326772" lon="1.387854907661676">
        <ele>2471.1300000000001</ele>
        <time>2025-07-16T13:42:07Z</time>
      </trkpt>
      <trkpt lat="42.656094655394554" lon="1.387752816081047">
        <ele>2470.1700000000001</ele>
        <time>2025-07-16T13:42:20Z</time>
      </trkpt>
      <trkpt lat="42.656064312905073" lon="1.387793887406588">
        <ele>2468.21</ele>
        <time>2025-07-16T13:42:39Z</time>
      </trkpt>
      <trkpt lat="42.656011339277029" lon="1.387693639844656">
        <ele>2466.5100000000002</ele>
        <time>2025-07-16T13:42:52Z</time>
      </trkpt>
      <trkpt lat="42.655981667339802" lon="1.387575957924128">
        <ele>2465.0799999999999</ele>
        <time>2025-07-16T13:43:04Z</time>
      </trkpt>
      <trkpt lat="42.655941434204578" lon="1.38747981749475">
        <ele>2463.1700000000001</ele>
        <time>2025-07-16T13:43:18Z</time>
      </trkpt>
      <trkpt lat="42.655877647921443" lon="1.387390298768878">
        <ele>2460.6599999999999</ele>
        <time>2025-07-16T13:43:31Z</time>
      </trkpt>
      <trkpt lat="42.655848981812596" lon="1.387272868305445">
        <ele>2460.0599999999999</ele>
        <time>2025-07-16T13:43:43Z</time>
      </trkpt>
      <trkpt lat="42.655806569382548" lon="1.387188881635666">
        <ele>2457.5700000000002</ele>
        <time>2025-07-16T13:44:01Z</time>
      </trkpt>
      <trkpt lat="42.65571721829474" lon="1.387163316830993">
        <ele>2455.6599999999999</ele>
        <time>2025-07-16T13:44:15Z</time>
      </trkpt>
      <trkpt lat="42.655633315443993" lon="1.387130543589592">
        <ele>2454.1399999999999</ele>
        <time>2025-07-16T13:44:28Z</time>
      </trkpt>
      <trkpt lat="42.6555569563061" lon="1.387069523334503">
        <ele>2452.1999999999998</ele>
        <time>2025-07-16T13:44:43Z</time>
      </trkpt>
      <trkpt lat="42.655478082597256" lon="1.387013867497444">
        <ele>2449.71</ele>
        <time>2025-07-16T13:44:59Z</time>
      </trkpt>
      <trkpt lat="42.655411949381232" lon="1.386922337114811">
        <ele>2448.8699999999999</ele>
        <time>2025-07-16T13:45:11Z</time>
      </trkpt>
      <trkpt lat="42.655355539172888" lon="1.386934574693441">
        <ele>2447.79</ele>
        <time>2025-07-16T13:45:38Z</time>
      </trkpt>
      <trkpt lat="42.655303236097097" lon="1.386840278282762">
        <ele>2445.3600000000001</ele>
        <time>2025-07-16T13:46:13Z</time>
      </trkpt>
      <trkpt lat="42.65527063049376" lon="1.386716142296791">
        <ele>2442.3699999999999</ele>
        <time>2025-07-16T13:46:51Z</time>
      </trkpt>
      <trkpt lat="42.655279766768217" lon="1.386585049331188">
        <ele>2442.2399999999998</ele>
        <time>2025-07-16T13:47:04Z</time>
      </trkpt>
      <trkpt lat="42.655289573594928" lon="1.386447250843048">
        <ele>2442.0500000000002</ele>
        <time>2025-07-16T13:47:27Z</time>
      </trkpt>
      <trkpt lat="42.655303487554193" lon="1.38633007183671">
        <ele>2440.6399999999999</ele>
        <time>2025-07-16T13:48:36Z</time>
      </trkpt>
      <trkpt lat="42.65528965741396" lon="1.386258071288467">
        <ele>2440.9000000000001</ele>
        <time>2025-07-16T13:50:23Z</time>
      </trkpt>
      <trkpt lat="42.65532192774117" lon="1.386091103777289">
        <ele>2436.02</ele>
        <time>2025-07-16T13:55:09Z</time>
      </trkpt>
      <trkpt lat="42.655271887779236" lon="1.386100240051746">
        <ele>2431.4400000000001</ele>
        <time>2025-07-16T13:56:16Z</time>
      </trkpt>
      <trkpt lat="42.655244981870055" lon="1.385981887578964">
        <ele>2429.0100000000002</ele>
        <time>2025-07-16T13:56:29Z</time>
      </trkpt>
      <trkpt lat="42.655227798968554" lon="1.385862780734897">
        <ele>2427.0599999999999</ele>
        <time>2025-07-16T13:56:40Z</time>
      </trkpt>
      <trkpt lat="42.655194355174899" lon="1.385730430483818">
        <ele>2425.6799999999998</ele>
        <time>2025-07-16T13:56:52Z</time>
      </trkpt>
      <trkpt lat="42.65515579842031" lon="1.385620040819049">
        <ele>2423.6500000000001</ele>
        <time>2025-07-16T13:57:03Z</time>
      </trkpt>
      <trkpt lat="42.655114475637674" lon="1.385520631447434">
        <ele>2421.9699999999998</ele>
        <time>2025-07-16T13:57:16Z</time>
      </trkpt>
      <trkpt lat="42.655133502557874" lon="1.385400434955955">
        <ele>2418.6300000000001</ele>
        <time>2025-07-16T13:57:30Z</time>
      </trkpt>
      <trkpt lat="42.655157810077071" lon="1.38527411967516">
        <ele>2415.9299999999998</ele>
        <time>2025-07-16T13:57:42Z</time>
      </trkpt>
      <trkpt lat="42.655138112604618" lon="1.385158114135265">
        <ele>2414.73</ele>
        <time>2025-07-16T13:57:53Z</time>
      </trkpt>
      <trkpt lat="42.655122606083751" lon="1.385038672015071">
        <ele>2412.0599999999999</ele>
        <time>2025-07-16T13:58:05Z</time>
      </trkpt>
      <trkpt lat="42.655087905004621" lon="1.384933982044458">
        <ele>2409.1799999999998</ele>
        <time>2025-07-16T13:58:18Z</time>
      </trkpt>
      <trkpt lat="42.655050437897444" lon="1.38482510112226">
        <ele>2406.6500000000001</ele>
        <time>2025-07-16T13:58:31Z</time>
      </trkpt>
      <trkpt lat="42.655024034902453" lon="1.384708005934954">
        <ele>2404.5</ele>
        <time>2025-07-16T13:58:43Z</time>
      </trkpt>
      <trkpt lat="42.65500919893384" lon="1.384589988738298">
        <ele>2403.5100000000002</ele>
        <time>2025-07-16T13:59:02Z</time>
      </trkpt>
      <trkpt lat="42.654990004375577" lon="1.384469205513597">
        <ele>2403.3200000000002</ele>
        <time>2025-07-16T13:59:13Z</time>
      </trkpt>
      <trkpt lat="42.654935019090772" lon="1.38439754024148">
        <ele>2401.5500000000002</ele>
        <time>2025-07-16T13:59:28Z</time>
      </trkpt>
      <trkpt lat="42.654865197837353" lon="1.384358145296574">
        <ele>2399.6399999999999</ele>
        <time>2025-07-16T13:59:42Z</time>
      </trkpt>
      <trkpt lat="42.654813565313816" lon="1.384266950190067">
        <ele>2399.6500000000001</ele>
        <time>2025-07-16T14:00:01Z</time>
      </trkpt>
      <trkpt lat="42.654727147892118" lon="1.384261501953006">
        <ele>2397.98</ele>
        <time>2025-07-16T14:00:25Z</time>
      </trkpt>
      <trkpt lat="42.654636790975928" lon="1.384244654327631">
        <ele>2397.3899999999999</ele>
        <time>2025-07-16T14:00:35Z</time>
      </trkpt>
      <trkpt lat="42.654556995257735" lon="1.384187322109938">
        <ele>2395.1700000000001</ele>
        <time>2025-07-16T14:01:24Z</time>
      </trkpt>
      <trkpt lat="42.654479378834367" lon="1.384143903851509">
        <ele>2393.9899999999998</ele>
        <time>2025-07-16T14:01:57Z</time>
      </trkpt>
      <trkpt lat="42.65440427698195" lon="1.384125547483563">
        <ele>2390.8400000000001</ele>
        <time>2025-07-16T14:02:26Z</time>
      </trkpt>
      <trkpt lat="42.654317189007998" lon="1.384081291034818">
        <ele>2389.75</ele>
        <time>2025-07-16T14:02:38Z</time>
      </trkpt>
      <trkpt lat="42.654226832091808" lon="1.384045500308275">
        <ele>2388.8200000000002</ele>
        <time>2025-07-16T14:02:50Z</time>
      </trkpt>
      <trkpt lat="42.654148126021028" lon="1.384001830592752">
        <ele>2387.3400000000001</ele>
        <time>2025-07-16T14:03:02Z</time>
      </trkpt>
      <trkpt lat="42.654086938127875" lon="1.383909964933991">
        <ele>2385.5700000000002</ele>
        <time>2025-07-16T14:03:14Z</time>
      </trkpt>
      <trkpt lat="42.654015189036727" lon="1.383849866688252">
        <ele>2382.1199999999999</ele>
        <time>2025-07-16T14:03:28Z</time>
      </trkpt>
      <trkpt lat="42.653957102447748" lon="1.383759509772062">
        <ele>2379.3800000000001</ele>
        <time>2025-07-16T14:03:45Z</time>
      </trkpt>
      <trkpt lat="42.65390295535326" lon="1.383659178391099">
        <ele>2376.8699999999999</ele>
        <time>2025-07-16T14:03:58Z</time>
      </trkpt>
      <trkpt lat="42.653847299516201" lon="1.383552560582757">
        <ele>2375.3699999999999</ele>
        <time>2025-07-16T14:04:08Z</time>
      </trkpt>
      <trkpt lat="42.653789212927222" lon="1.383461700752378">
        <ele>2373.52</ele>
        <time>2025-07-16T14:04:19Z</time>
      </trkpt>
      <trkpt lat="42.653738250955939" lon="1.383351478725672">
        <ele>2372.5700000000002</ele>
        <time>2025-07-16T14:04:31Z</time>
      </trkpt>
      <trkpt lat="42.653689803555608" lon="1.383250812068582">
        <ele>2372.21</ele>
        <time>2025-07-16T14:04:41Z</time>
      </trkpt>
      <trkpt lat="42.65365376137197" lon="1.383137991651893">
        <ele>2371.3600000000001</ele>
        <time>2025-07-16T14:04:52Z</time>
      </trkpt>
      <trkpt lat="42.653617803007364" lon="1.383034894242883">
        <ele>2369.48</ele>
        <time>2025-07-16T14:05:03Z</time>
      </trkpt>
      <trkpt lat="42.653529876843095" lon="1.383034978061914">
        <ele>2367.5999999999999</ele>
        <time>2025-07-16T14:05:15Z</time>
      </trkpt>
      <trkpt lat="42.65350766479969" lon="1.382948225364089">
        <ele>2366.0500000000002</ele>
        <time>2025-07-16T14:05:32Z</time>
      </trkpt>
      <trkpt lat="42.653430886566639" lon="1.382910758256912">
        <ele>2365.6799999999998</ele>
        <time>2025-07-16T14:05:45Z</time>
      </trkpt>
      <trkpt lat="42.653355281800032" lon="1.382953254505992">
        <ele>2363.6399999999999</ele>
        <time>2025-07-16T14:06:10Z</time>
      </trkpt>
      <trkpt lat="42.653256626799703" lon="1.38297026976943">
        <ele>2363.0300000000002</ele>
        <time>2025-07-16T14:06:20Z</time>
      </trkpt>
      <trkpt lat="42.653156882151961" lon="1.382976975291967">
        <ele>2363.8600000000001</ele>
        <time>2025-07-16T14:06:30Z</time>
      </trkpt>
      <trkpt lat="42.653061328455806" lon="1.382984686642885">
        <ele>2365.3000000000002</ele>
        <time>2025-07-16T14:06:40Z</time>
      </trkpt>
      <trkpt lat="42.652971390634775" lon="1.382965575903654">
        <ele>2366.0100000000002</ele>
        <time>2025-07-16T14:06:51Z</time>
      </trkpt>
      <trkpt lat="42.652881871908903" lon="1.382921487092972">
        <ele>2366.1300000000001</ele>
        <time>2025-07-16T14:07:02Z</time>
      </trkpt>
      <trkpt lat="42.652788497507572" lon="1.382891312241554">
        <ele>2364.6100000000001</ele>
        <time>2025-07-16T14:07:13Z</time>
      </trkpt>
      <trkpt lat="42.65270191244781" lon="1.382863316684961">
        <ele>2364.8200000000002</ele>
        <time>2025-07-16T14:07:23Z</time>
      </trkpt>
      <trkpt lat="42.652614237740636" lon="1.382864573970437">
        <ele>2364.3099999999999</ele>
        <time>2025-07-16T14:07:36Z</time>
      </trkpt>
      <trkpt lat="42.652535950765014" lon="1.382890725508332">
        <ele>2361.8499999999999</ele>
        <time>2025-07-16T14:07:53Z</time>
      </trkpt>
      <trkpt lat="42.652448695152998" lon="1.382869770750403">
        <ele>2359.3899999999999</ele>
        <time>2025-07-16T14:08:17Z</time>
      </trkpt>
      <trkpt lat="42.652414916083217" lon="1.382820401340723">
        <ele>2358.0300000000002</ele>
        <time>2025-07-16T14:08:54Z</time>
      </trkpt>
      <trkpt lat="42.652344005182385" lon="1.382790980860591">
        <ele>2355.9200000000001</ele>
        <time>2025-07-16T14:09:09Z</time>
      </trkpt>
      <trkpt lat="42.652265466749668" lon="1.382733061909676">
        <ele>2354.1300000000001</ele>
        <time>2025-07-16T14:09:44Z</time>
      </trkpt>
      <trkpt lat="42.652199333533645" lon="1.382676400244236">
        <ele>2352.2199999999998</ele>
        <time>2025-07-16T14:10:05Z</time>
      </trkpt>
      <trkpt lat="42.652121298015118" lon="1.382602723315358">
        <ele>2353.1900000000001</ele>
        <time>2025-07-16T14:10:33Z</time>
      </trkpt>
      <trkpt lat="42.652042089030147" lon="1.382530806586146">
        <ele>2354.0999999999999</ele>
        <time>2025-07-16T14:10:49Z</time>
      </trkpt>
      <trkpt lat="42.651961958035827" lon="1.382468864321709">
        <ele>2355.1100000000001</ele>
        <time>2025-07-16T14:11:01Z</time>
      </trkpt>
      <trkpt lat="42.651866739615798" lon="1.382423685863614">
        <ele>2357.2600000000002</ele>
        <time>2025-07-16T14:11:19Z</time>
      </trkpt>
      <trkpt lat="42.65178132802248" lon="1.382347913458943">
        <ele>2357.6500000000001</ele>
        <time>2025-07-16T14:11:33Z</time>
      </trkpt>
      <trkpt lat="42.651689043268561" lon="1.382308853790164">
        <ele>2359.0500000000002</ele>
        <time>2025-07-16T14:11:46Z</time>
      </trkpt>
      <trkpt lat="42.651611845940351" lon="1.382250264286995">
        <ele>2359.4899999999998</ele>
        <time>2025-07-16T14:11:57Z</time>
      </trkpt>
      <trkpt lat="42.65153112821281" lon="1.382190836593509">
        <ele>2360.0700000000002</ele>
        <time>2025-07-16T14:12:08Z</time>
      </trkpt>
      <trkpt lat="42.65144512988627" lon="1.382166277617216">
        <ele>2358.3299999999999</ele>
        <time>2025-07-16T14:12:20Z</time>
      </trkpt>
      <trkpt lat="42.65136357396841" lon="1.382140880450606">
        <ele>2355.52</ele>
        <time>2025-07-16T14:12:34Z</time>
      </trkpt>
      <trkpt lat="42.651279419660568" lon="1.382177174091339">
        <ele>2352.9699999999998</ele>
        <time>2025-07-16T14:12:49Z</time>
      </trkpt>
      <trkpt lat="42.651192666962743" lon="1.382130235433579">
        <ele>2353.8400000000001</ele>
        <time>2025-07-16T14:13:06Z</time>
      </trkpt>
      <trkpt lat="42.651102812960744" lon="1.382094779983163">
        <ele>2355.1700000000001</ele>
        <time>2025-07-16T14:13:21Z</time>
      </trkpt>
      <trkpt lat="42.651010612025857" lon="1.382077932357788">
        <ele>2357.7399999999998</ele>
        <time>2025-07-16T14:13:38Z</time>
      </trkpt>
      <trkpt lat="42.650922685861588" lon="1.382068544626236">
        <ele>2357.7199999999998</ele>
        <time>2025-07-16T14:13:49Z</time>
      </trkpt>
      <trkpt lat="42.650832077488303" lon="1.382045829668641">
        <ele>2357.1500000000001</ele>
        <time>2025-07-16T14:13:59Z</time>
      </trkpt>
      <trkpt lat="42.650750856846571" lon="1.381982965394855">
        <ele>2357.98</ele>
        <time>2025-07-16T14:14:12Z</time>
      </trkpt>
      <trkpt lat="42.650676090270281" lon="1.381917586550117">
        <ele>2358.6700000000001</ele>
        <time>2025-07-16T14:14:26Z</time>
      </trkpt>
      <trkpt lat="42.650591768324375" lon="1.381858997046948">
        <ele>2358.7399999999998</ele>
        <time>2025-07-16T14:14:38Z</time>
      </trkpt>
      <trkpt lat="42.650506775826216" lon="1.38183812610805">
        <ele>2358.3299999999999</ele>
        <time>2025-07-16T14:14:57Z</time>
      </trkpt>
      <trkpt lat="42.650432512164116" lon="1.381779201328754">
        <ele>2359.1100000000001</ele>
        <time>2025-07-16T14:15:09Z</time>
      </trkpt>
      <trkpt lat="42.650340143591166" lon="1.381783224642277">
        <ele>2356.9000000000001</ele>
        <time>2025-07-16T14:15:25Z</time>
      </trkpt>
      <trkpt lat="42.650257498025894" lon="1.381719270721078">
        <ele>2355.5500000000002</ele>
        <time>2025-07-16T14:15:35Z</time>
      </trkpt>
      <trkpt lat="42.65019522048533" lon="1.381623214110732">
        <ele>2355.1500000000001</ele>
        <time>2025-07-16T14:15:46Z</time>
      </trkpt>
      <trkpt lat="42.650103019550443" lon="1.381567474454641">
        <ele>2355.5999999999999</ele>
        <time>2025-07-16T14:15:59Z</time>
      </trkpt>
      <trkpt lat="42.650013500824571" lon="1.381527492776513">
        <ele>2355.8099999999999</ele>
        <time>2025-07-16T14:16:10Z</time>
      </trkpt>
      <trkpt lat="42.649933788925409" lon="1.381463371217251">
        <ele>2356.8200000000002</ele>
        <time>2025-07-16T14:16:21Z</time>
      </trkpt>
      <trkpt lat="42.649855921044946" lon="1.381391454488039">
        <ele>2357.73</ele>
        <time>2025-07-16T14:16:34Z</time>
      </trkpt>
      <trkpt lat="42.649789284914732" lon="1.381311491131783">
        <ele>2358.8699999999999</ele>
        <time>2025-07-16T14:16:49Z</time>
      </trkpt>
      <trkpt lat="42.649712087586522" lon="1.381239322945476">
        <ele>2359.9000000000001</ele>
        <time>2025-07-16T14:17:05Z</time>
      </trkpt>
      <trkpt lat="42.649628100916743" lon="1.381191546097398">
        <ele>2361.79</ele>
        <time>2025-07-16T14:17:24Z</time>
      </trkpt>
      <trkpt lat="42.649543443694711" lon="1.381176291033626">
        <ele>2363.1999999999998</ele>
        <time>2025-07-16T14:17:40Z</time>
      </trkpt>
      <trkpt lat="42.649454763159156" lon="1.381163885816932">
        <ele>2363.71</ele>
        <time>2025-07-16T14:18:48Z</time>
      </trkpt>
      <trkpt lat="42.649442693218589" lon="1.381213758140802">
        <ele>2364.54</ele>
        <time>2025-07-16T14:20:15Z</time>
      </trkpt>
      <trkpt lat="42.64943246729672" lon="1.381233958527446">
        <ele>2364.3699999999999</ele>
        <time>2025-07-16T14:21:19Z</time>
      </trkpt>
      <trkpt lat="42.649373542517424" lon="1.381176039576531">
        <ele>2362.4899999999998</ele>
        <time>2025-07-16T14:23:04Z</time>
      </trkpt>
      <trkpt lat="42.649335991591215" lon="1.381172770634294">
        <ele>2361.75</ele>
        <time>2025-07-16T14:24:33Z</time>
      </trkpt>
      <trkpt lat="42.649321909993887" lon="1.381268575787544">
        <ele>2360.3299999999999</ele>
        <time>2025-07-16T14:24:53Z</time>
      </trkpt>
      <trkpt lat="42.649304643273354" lon="1.38136999681592">
        <ele>2358.5500000000002</ele>
        <time>2025-07-16T14:25:08Z</time>
      </trkpt>
      <trkpt lat="42.649305313825607" lon="1.381487427279353">
        <ele>2356.23</ele>
        <time>2025-07-16T14:25:24Z</time>
      </trkpt>
      <trkpt lat="42.6492849458009" lon="1.381598487496376">
        <ele>2354.5</ele>
        <time>2025-07-16T14:25:35Z</time>
      </trkpt>
      <trkpt lat="42.649283772334456" lon="1.381710134446621">
        <ele>2353.1700000000001</ele>
        <time>2025-07-16T14:25:45Z</time>
      </trkpt>
      <trkpt lat="42.649243036285043" lon="1.381828235462308">
        <ele>2353.5999999999999</ele>
        <time>2025-07-16T14:25:56Z</time>
      </trkpt>
      <trkpt lat="42.649216465651989" lon="1.381959076970816">
        <ele>2354</ele>
        <time>2025-07-16T14:26:09Z</time>
      </trkpt>
      <trkpt lat="42.649205485358834" lon="1.382067454978824">
        <ele>2354.5</ele>
        <time>2025-07-16T14:26:22Z</time>
      </trkpt>
      <trkpt lat="42.649173969402909" lon="1.382164601236582">
        <ele>2355.8099999999999</ele>
        <time>2025-07-16T14:26:34Z</time>
      </trkpt>
      <trkpt lat="42.649168353527784" lon="1.382291587069631">
        <ele>2358.8099999999999</ele>
        <time>2025-07-16T14:26:52Z</time>
      </trkpt>
      <trkpt lat="42.649099286645651" lon="1.382385799661279">
        <ele>2358.3099999999999</ele>
        <time>2025-07-16T14:27:07Z</time>
      </trkpt>
      <trkpt lat="42.649022256955504" lon="1.382430894300342">
        <ele>2361.02</ele>
        <time>2025-07-16T14:27:29Z</time>
      </trkpt>
      <trkpt lat="42.648999877274036" lon="1.382544301450253">
        <ele>2361.98</ele>
        <time>2025-07-16T14:27:53Z</time>
      </trkpt>
      <trkpt lat="42.648920249193907" lon="1.382597191259265">
        <ele>2361.8400000000001</ele>
        <time>2025-07-16T14:28:08Z</time>
      </trkpt>
      <trkpt lat="42.648843554779887" lon="1.382636334747076">
        <ele>2361.96</ele>
        <time>2025-07-16T14:28:25Z</time>
      </trkpt>
      <trkpt lat="42.648752946406603" lon="1.382625857368112">
        <ele>2363.1700000000001</ele>
        <time>2025-07-16T14:28:43Z</time>
      </trkpt>
      <trkpt lat="42.648660913109779" lon="1.38258277438581">
        <ele>2364.8899999999999</ele>
        <time>2025-07-16T14:28:59Z</time>
      </trkpt>
      <trkpt lat="42.648604167625308" lon="1.382511192932725">
        <ele>2368.5999999999999</ele>
        <time>2025-07-16T14:29:24Z</time>
      </trkpt>
      <trkpt lat="42.648568293079734" lon="1.382397366687655">
        <ele>2369.5599999999999</ele>
        <time>2025-07-16T14:29:45Z</time>
      </trkpt>
      <trkpt lat="42.648522527888417" lon="1.382283372804523">
        <ele>2368.1799999999998</ele>
        <time>2025-07-16T14:29:58Z</time>
      </trkpt>
      <trkpt lat="42.648481288924813" lon="1.382179437205195">
        <ele>2366.48</ele>
        <time>2025-07-16T14:30:09Z</time>
      </trkpt>
      <trkpt lat="42.64843518845737" lon="1.382080027833581">
        <ele>2365.2600000000002</ele>
        <time>2025-07-16T14:30:18Z</time>
      </trkpt>
      <trkpt lat="42.648351201787591" lon="1.38200425542891">
        <ele>2364.6199999999999</ele>
        <time>2025-07-16T14:30:28Z</time>
      </trkpt>
      <trkpt lat="42.648304514586926" lon="1.381902331486344">
        <ele>2364.1500000000001</ele>
        <time>2025-07-16T14:30:37Z</time>
      </trkpt>
      <trkpt lat="42.64828129671514" lon="1.381775345653296">
        <ele>2362.75</ele>
        <time>2025-07-16T14:30:48Z</time>
      </trkpt>
      <trkpt lat="42.648236788809299" lon="1.381662357598543">
        <ele>2362.5</ele>
        <time>2025-07-16T14:30:59Z</time>
      </trkpt>
      <trkpt lat="42.648184821009636" lon="1.381580047309399">
        <ele>2362.29</ele>
        <time>2025-07-16T14:31:10Z</time>
      </trkpt>
      <trkpt lat="42.648128075525165" lon="1.381483739241958">
        <ele>2360.0100000000002</ele>
        <time>2025-07-16T14:31:23Z</time>
      </trkpt>
      <trkpt lat="42.648087674751878" lon="1.381385587155819">
        <ele>2356.8299999999999</ele>
        <time>2025-07-16T14:31:39Z</time>
      </trkpt>
      <trkpt lat="42.648060768842697" lon="1.381274946033955">
        <ele>2353.3600000000001</ele>
        <time>2025-07-16T14:32:00Z</time>
      </trkpt>
      <trkpt lat="42.648064121603966" lon="1.38117503374815">
        <ele>2349.71</ele>
        <time>2025-07-16T14:32:33Z</time>
      </trkpt>
      <trkpt lat="42.648047609254718" lon="1.381071852520108">
        <ele>2346.5300000000002</ele>
        <time>2025-07-16T14:32:54Z</time>
      </trkpt>
      <trkpt lat="42.648068564012647" lon="1.380983674898744">
        <ele>2344.2800000000002</ele>
        <time>2025-07-16T14:33:09Z</time>
      </trkpt>
      <trkpt lat="42.64800033532083" lon="1.380931790918112">
        <ele>2340.96</ele>
        <time>2025-07-16T14:33:26Z</time>
      </trkpt>
      <trkpt lat="42.647926406934857" lon="1.380863226950169">
        <ele>2337.46</ele>
        <time>2025-07-16T14:33:47Z</time>
      </trkpt>
      <trkpt lat="42.647862955927849" lon="1.38077437877655">
        <ele>2335.9200000000001</ele>
        <time>2025-07-16T14:34:00Z</time>
      </trkpt>
      <trkpt lat="42.647800762206316" lon="1.380673879757524">
        <ele>2334.4200000000001</ele>
        <time>2025-07-16T14:34:32Z</time>
      </trkpt>
      <trkpt lat="42.64776824042201" lon="1.3805784098804">
        <ele>2332.3800000000001</ele>
        <time>2025-07-16T14:34:48Z</time>
      </trkpt>
      <trkpt lat="42.647736808285117" lon="1.380468187853694">
        <ele>2331.9699999999998</ele>
        <time>2025-07-16T14:34:59Z</time>
      </trkpt>
      <trkpt lat="42.647716859355569" lon="1.380348829552531">
        <ele>2332.04</ele>
        <time>2025-07-16T14:35:14Z</time>
      </trkpt>
      <trkpt lat="42.647677967324853" lon="1.380271129310131">
        <ele>2326.21</ele>
        <time>2025-07-16T14:35:41Z</time>
      </trkpt>
      <trkpt lat="42.647593729197979" lon="1.380267273634672">
        <ele>2324.5700000000002</ele>
        <time>2025-07-16T14:35:55Z</time>
      </trkpt>
      <trkpt lat="42.647507814690471" lon="1.380331730470061">
        <ele>2323.0599999999999</ele>
        <time>2025-07-16T14:36:06Z</time>
      </trkpt>
      <trkpt lat="42.647424414753914" lon="1.380397360771895">
        <ele>2322.2800000000002</ele>
        <time>2025-07-16T14:36:16Z</time>
      </trkpt>
      <trkpt lat="42.647357946261764" lon="1.380491573363543">
        <ele>2322.48</ele>
        <time>2025-07-16T14:36:25Z</time>
      </trkpt>
      <trkpt lat="42.647275133058429" lon="1.380552928894758">
        <ele>2322.0999999999999</ele>
        <time>2025-07-16T14:36:34Z</time>
      </trkpt>
      <trkpt lat="42.647184608504176" lon="1.380576984956861">
        <ele>2322.6700000000001</ele>
        <time>2025-07-16T14:36:44Z</time>
      </trkpt>
      <trkpt lat="42.647106405347586" lon="1.38053591363132">
        <ele>2321.23</ele>
        <time>2025-07-16T14:37:01Z</time>
      </trkpt>
      <trkpt lat="42.647045636549592" lon="1.380447987467051">
        <ele>2317.8000000000002</ele>
        <time>2025-07-16T14:37:20Z</time>
      </trkpt>
      <trkpt lat="42.647017892450094" lon="1.380353858694434">
        <ele>2315.0100000000002</ele>
        <time>2025-07-16T14:37:43Z</time>
      </trkpt>
      <trkpt lat="42.646966259926558" lon="1.380338435992599">
        <ele>2311.7800000000002</ele>
        <time>2025-07-16T14:38:03Z</time>
      </trkpt>
      <trkpt lat="42.646939437836409" lon="1.380291413515806">
        <ele>2310.4499999999998</ele>
        <time>2025-07-16T14:38:33Z</time>
      </trkpt>
      <trkpt lat="42.646946394816041" lon="1.380220670253038">
        <ele>2307.0900000000001</ele>
        <time>2025-07-16T14:39:20Z</time>
      </trkpt>
      <trkpt lat="42.646900629624724" lon="1.380144059658051">
        <ele>2303.5300000000002</ele>
        <time>2025-07-16T14:39:39Z</time>
      </trkpt>
      <trkpt lat="42.646832400932908" lon="1.380127966403961">
        <ele>2300.27</ele>
        <time>2025-07-16T14:39:57Z</time>
      </trkpt>
      <trkpt lat="42.64674112200737" lon="1.380121931433678">
        <ele>2297.8600000000001</ele>
        <time>2025-07-16T14:40:11Z</time>
      </trkpt>
      <trkpt lat="42.646653028205037" lon="1.38008002191782">
        <ele>2297.21</ele>
        <time>2025-07-16T14:40:22Z</time>
      </trkpt>
      <trkpt lat="42.646568119525909" lon="1.380054205656052">
        <ele>2295.1799999999998</ele>
        <time>2025-07-16T14:40:37Z</time>
      </trkpt>
      <trkpt lat="42.646476170048118" lon="1.380019169300795">
        <ele>2293.0300000000002</ele>
        <time>2025-07-16T14:40:51Z</time>
      </trkpt>
      <trkpt lat="42.646402409300208" lon="1.380066527053714">
        <ele>2290.6799999999998</ele>
        <time>2025-07-16T14:41:05Z</time>
      </trkpt>
      <trkpt lat="42.646316662430763" lon="1.380115142092109">
        <ele>2289.0999999999999</ele>
        <time>2025-07-16T14:41:18Z</time>
      </trkpt>
      <trkpt lat="42.646225802600384" lon="1.380129558965564">
        <ele>2287.3800000000001</ele>
        <time>2025-07-16T14:41:34Z</time>
      </trkpt>
      <trkpt lat="42.646138127893209" lon="1.380116567015648">
        <ele>2285.4699999999998</ele>
        <time>2025-07-16T14:41:48Z</time>
      </trkpt>
      <trkpt lat="42.646059840917587" lon="1.380073567852378">
        <ele>2281.71</ele>
        <time>2025-07-16T14:42:06Z</time>
      </trkpt>
      <trkpt lat="42.645986247807741" lon="1.380063844844699">
        <ele>2278.54</ele>
        <time>2025-07-16T14:42:57Z</time>
      </trkpt>
      <trkpt lat="42.645908044651151" lon="1.380078010261059">
        <ele>2274.9400000000001</ele>
        <time>2025-07-16T14:43:22Z</time>
      </trkpt>
      <trkpt lat="42.645840821787715" lon="1.380155207589269">
        <ele>2272.8899999999999</ele>
        <time>2025-07-16T14:43:40Z</time>
      </trkpt>
      <trkpt lat="42.64577410183847" lon="1.380129139870405">
        <ele>2270.6300000000001</ele>
        <time>2025-07-16T14:43:58Z</time>
      </trkpt>
      <trkpt lat="42.645777873694897" lon="1.379991509020329">
        <ele>2269.3699999999999</ele>
        <time>2025-07-16T14:44:14Z</time>
      </trkpt>
      <trkpt lat="42.645786087960005" lon="1.379855638369918">
        <ele>2270.6700000000001</ele>
        <time>2025-07-16T14:44:31Z</time>
      </trkpt>
      <trkpt lat="42.645868565887213" lon="1.379783302545548">
        <ele>2271.9699999999998</ele>
        <time>2025-07-16T14:44:59Z</time>
      </trkpt>
      <trkpt lat="42.645867057144642" lon="1.379687832668424">
        <ele>2272.4200000000001</ele>
        <time>2025-07-16T14:45:19Z</time>
      </trkpt>
      <trkpt lat="42.645790865644813" lon="1.379600493237376">
        <ele>2272.79</ele>
        <time>2025-07-16T14:45:48Z</time>
      </trkpt>
      <trkpt lat="42.645773347467184" lon="1.379533521831036">
        <ele>2272.3200000000002</ele>
        <time>2025-07-16T14:46:47Z</time>
      </trkpt>
      <trkpt lat="42.645762367174029" lon="1.379498150199652">
        <ele>2269.8699999999999</ele>
        <time>2025-07-16T14:47:54Z</time>
      </trkpt>
      <trkpt lat="42.645691791549325" lon="1.379421204328537">
        <ele>2267.4699999999998</ele>
        <time>2025-07-16T14:48:15Z</time>
      </trkpt>
      <trkpt lat="42.645603446289897" lon="1.37935440056026">
        <ele>2264.25</ele>
        <time>2025-07-16T14:49:05Z</time>
      </trkpt>
      <trkpt lat="42.645526248961687" lon="1.37931190431118">
        <ele>2261.1100000000001</ele>
        <time>2025-07-16T14:49:25Z</time>
      </trkpt>
      <trkpt lat="42.645487524569035" lon="1.379359010607004">
        <ele>2257.8200000000002</ele>
        <time>2025-07-16T14:50:04Z</time>
      </trkpt>
      <trkpt lat="42.645413177087903" lon="1.379392789676786">
        <ele>2254.6399999999999</ele>
        <time>2025-07-16T14:50:25Z</time>
      </trkpt>
      <trkpt lat="42.645398424938321" lon="1.379463281482458">
        <ele>2251.9400000000001</ele>
        <time>2025-07-16T14:50:44Z</time>
      </trkpt>
      <trkpt lat="42.645380571484566" lon="1.379558583721519">
        <ele>2249.1399999999999</ele>
        <time>2025-07-16T14:51:05Z</time>
      </trkpt>
      <trkpt lat="42.645305888727307" lon="1.379514243453741">
        <ele>2247.02</ele>
        <time>2025-07-16T14:51:18Z</time>
      </trkpt>
      <trkpt lat="42.645235983654857" lon="1.379492282867432">
        <ele>2244.3899999999999</ele>
        <time>2025-07-16T14:51:38Z</time>
      </trkpt>
      <trkpt lat="42.645154595375061" lon="1.379456073045731">
        <ele>2242.3000000000002</ele>
        <time>2025-07-16T14:51:57Z</time>
      </trkpt>
      <trkpt lat="42.645071279257536" lon="1.37944333255291">
        <ele>2240.0100000000002</ele>
        <time>2025-07-16T14:52:17Z</time>
      </trkpt>
      <trkpt lat="42.644975138828158" lon="1.379436040297151">
        <ele>2238.5799999999999</ele>
        <time>2025-07-16T14:52:29Z</time>
      </trkpt>
      <trkpt lat="42.644895259290934" lon="1.379395304247737">
        <ele>2237.5599999999999</ele>
        <time>2025-07-16T14:52:40Z</time>
      </trkpt>
      <trkpt lat="42.644820576533675" lon="1.379346521571279">
        <ele>2236.9699999999998</ele>
        <time>2025-07-16T14:52:50Z</time>
      </trkpt>
      <trkpt lat="42.644732818007469" lon="1.379298660904169">
        <ele>2237.1799999999998</ele>
        <time>2025-07-16T14:53:02Z</time>
      </trkpt>
      <trkpt lat="42.644663918763399" lon="1.379219703376293">
        <ele>2236.3200000000002</ele>
        <time>2025-07-16T14:53:13Z</time>
      </trkpt>
      <trkpt lat="42.644590325653553" lon="1.379149379208684">
        <ele>2236.1199999999999</ele>
        <time>2025-07-16T14:53:24Z</time>
      </trkpt>
      <trkpt lat="42.64453643001616" lon="1.379054579883814">
        <ele>2234.5900000000001</ele>
        <time>2025-07-16T14:53:38Z</time>
      </trkpt>
      <trkpt lat="42.644503740593791" lon="1.378967324271798">
        <ele>2232.5500000000002</ele>
        <time>2025-07-16T14:53:57Z</time>
      </trkpt>
      <trkpt lat="42.644417658448219" lon="1.378948381170631">
        <ele>2229.3600000000001</ele>
        <time>2025-07-16T14:54:15Z</time>
      </trkpt>
      <trkpt lat="42.644340042024851" lon="1.378969755023718">
        <ele>2227.52</ele>
        <time>2025-07-16T14:54:44Z</time>
      </trkpt>
      <trkpt lat="42.644264185801148" lon="1.378925330936909">
        <ele>2225.02</ele>
        <time>2025-07-16T14:55:02Z</time>
      </trkpt>
      <trkpt lat="42.644196879118681" lon="1.378923319280148">
        <ele>2221.1599999999999</ele>
        <time>2025-07-16T14:55:23Z</time>
      </trkpt>
      <trkpt lat="42.644110042601824" lon="1.378882583230734">
        <ele>2219.25</ele>
        <time>2025-07-16T14:55:38Z</time>
      </trkpt>
      <trkpt lat="42.644014153629541" lon="1.378903035074472">
        <ele>2216.5999999999999</ele>
        <time>2025-07-16T14:55:53Z</time>
      </trkpt>
      <trkpt lat="42.643924131989479" lon="1.37894544750452">
        <ele>2214.0900000000001</ele>
        <time>2025-07-16T14:56:09Z</time>
      </trkpt>
      <trkpt lat="42.643841989338398" lon="1.378990039229393">
        <ele>2211.6300000000001</ele>
        <time>2025-07-16T14:56:26Z</time>
      </trkpt>
      <trkpt lat="42.643750794231892" lon="1.378996074199677">
        <ele>2210.0599999999999</ele>
        <time>2025-07-16T14:56:38Z</time>
      </trkpt>
      <trkpt lat="42.643663119524717" lon="1.379013508558273">
        <ele>2207.75</ele>
        <time>2025-07-16T14:56:52Z</time>
      </trkpt>
      <trkpt lat="42.643581898882985" lon="1.379051730036736">
        <ele>2206.0700000000002</ele>
        <time>2025-07-16T14:57:05Z</time>
      </trkpt>
      <trkpt lat="42.643504366278648" lon="1.379093639552593">
        <ele>2203.5799999999999</ele>
        <time>2025-07-16T14:57:22Z</time>
      </trkpt>
      <trkpt lat="42.643421972170472" lon="1.379058854654431">
        <ele>2202.9499999999998</ele>
        <time>2025-07-16T14:57:36Z</time>
      </trkpt>
      <trkpt lat="42.643325831741095" lon="1.379074109718204">
        <ele>2201.8699999999999</ele>
        <time>2025-07-16T14:57:51Z</time>
      </trkpt>
      <trkpt lat="42.643242180347443" lon="1.37907293625176">
        <ele>2200.4000000000001</ele>
        <time>2025-07-16T14:58:05Z</time>
      </trkpt>
      <trkpt lat="42.643156014382839" lon="1.379112834110856">
        <ele>2199.48</ele>
        <time>2025-07-16T14:58:19Z</time>
      </trkpt>
      <trkpt lat="42.643063813447952" lon="1.379128927364945">
        <ele>2198.9499999999998</ele>
        <time>2025-07-16T14:58:30Z</time>
      </trkpt>
      <trkpt lat="42.642967002466321" lon="1.379122724756599">
        <ele>2198.1900000000001</ele>
        <time>2025-07-16T14:58:39Z</time>
      </trkpt>
      <trkpt lat="42.642874801531434" lon="1.379129178822041">
        <ele>2197.6900000000001</ele>
        <time>2025-07-16T14:58:48Z</time>
      </trkpt>
      <trkpt lat="42.642780672758818" lon="1.379147954285145">
        <ele>2196.8600000000001</ele>
        <time>2025-07-16T14:58:57Z</time>
      </trkpt>
      <trkpt lat="42.64268796890974" lon="1.379192546010017">
        <ele>2196.5100000000002</ele>
        <time>2025-07-16T14:59:05Z</time>
      </trkpt>
      <trkpt lat="42.64260096475482" lon="1.379170753061771">
        <ele>2196.5100000000002</ele>
        <time>2025-07-16T14:59:13Z</time>
      </trkpt>
      <trkpt lat="42.642527790740132" lon="1.379106380045414">
        <ele>2196.3000000000002</ele>
        <time>2025-07-16T14:59:21Z</time>
      </trkpt>
      <trkpt lat="42.642434667795897" lon="1.379090622067452">
        <ele>2195.8899999999999</ele>
        <time>2025-07-16T14:59:30Z</time>
      </trkpt>
      <trkpt lat="42.642334839329123" lon="1.379100093618035">
        <ele>2195.5700000000002</ele>
        <time>2025-07-16T14:59:39Z</time>
      </trkpt>
      <trkpt lat="42.642243728041649" lon="1.37911937199533">
        <ele>2195.5100000000002</ele>
        <time>2025-07-16T14:59:49Z</time>
      </trkpt>
      <trkpt lat="42.642159657552838" lon="1.37918190099299">
        <ele>2195.46</ele>
        <time>2025-07-16T14:59:58Z</time>
      </trkpt>
      <trkpt lat="42.642076089978218" lon="1.379243675619364">
        <ele>2195.5500000000002</ele>
        <time>2025-07-16T15:00:08Z</time>
      </trkpt>
      <trkpt lat="42.642013058066368" lon="1.379342582076788">
        <ele>2195.7600000000002</ele>
        <time>2025-07-16T15:00:19Z</time>
      </trkpt>
      <trkpt lat="42.641960587352514" lon="1.379457749426365">
        <ele>2195.4499999999998</ele>
        <time>2025-07-16T15:00:29Z</time>
      </trkpt>
      <trkpt lat="42.641910966485739" lon="1.379558751359582">
        <ele>2195.5100000000002</ele>
        <time>2025-07-16T15:00:38Z</time>
      </trkpt>
      <trkpt lat="42.641833685338497" lon="1.379623459652066">
        <ele>2195.1700000000001</ele>
        <time>2025-07-16T15:00:47Z</time>
      </trkpt>
      <trkpt lat="42.641740059480071" lon="1.379654053598642">
        <ele>2195.0599999999999</ele>
        <time>2025-07-16T15:00:57Z</time>
      </trkpt>
      <trkpt lat="42.641650708392262" lon="1.379692191258073">
        <ele>2195.1199999999999</ele>
        <time>2025-07-16T15:01:06Z</time>
      </trkpt>
      <trkpt lat="42.641560602933168" lon="1.379735777154565">
        <ele>2195</ele>
        <time>2025-07-16T15:01:17Z</time>
      </trkpt>
      <trkpt lat="42.641465719789267" lon="1.379766287282109">
        <ele>2194.9000000000001</ele>
        <time>2025-07-16T15:01:27Z</time>
      </trkpt>
      <trkpt lat="42.641374105587602" lon="1.379760336130858">
        <ele>2193.5500000000002</ele>
        <time>2025-07-16T15:01:37Z</time>
      </trkpt>
      <trkpt lat="42.641282239928842" lon="1.379753379151225">
        <ele>2192.9099999999999</ele>
        <time>2025-07-16T15:01:47Z</time>
      </trkpt>
      <trkpt lat="42.641190122812986" lon="1.379749188199639">
        <ele>2192.1399999999999</ele>
        <time>2025-07-16T15:01:58Z</time>
      </trkpt>
      <trkpt lat="42.641101107001305" lon="1.379794701933861">
        <ele>2191.1599999999999</ele>
        <time>2025-07-16T15:02:11Z</time>
      </trkpt>
      <trkpt lat="42.641002619639039" lon="1.379828061908484">
        <ele>2190.9099999999999</ele>
        <time>2025-07-16T15:02:49Z</time>
      </trkpt>
      <trkpt lat="42.640926763415337" lon="1.379903750494123">
        <ele>2189.8499999999999</ele>
        <time>2025-07-16T15:03:01Z</time>
      </trkpt>
      <trkpt lat="42.640941347926855" lon="1.379851195961237">
        <ele>2190.9099999999999</ele>
        <time>2025-07-16T15:04:55Z</time>
      </trkpt>
      <trkpt lat="42.640864569693804" lon="1.379913641139865">
        <ele>2190.7199999999998</ele>
        <time>2025-07-16T15:06:10Z</time>
      </trkpt>
      <trkpt lat="42.640772284939885" lon="1.379908276721835">
        <ele>2191.0300000000002</ele>
        <time>2025-07-16T15:06:44Z</time>
      </trkpt>
      <trkpt lat="42.640682430937886" lon="1.37986745685339">
        <ele>2190.3600000000001</ele>
        <time>2025-07-16T15:07:19Z</time>
      </trkpt>
      <trkpt lat="42.640644796192646" lon="1.379969296976924">
        <ele>2185.9699999999998</ele>
        <time>2025-07-16T15:07:56Z</time>
      </trkpt>
      <trkpt lat="42.640654603019357" lon="1.380046913400292">
        <ele>2182.0100000000002</ele>
        <time>2025-07-16T15:08:24Z</time>
      </trkpt>
      <trkpt lat="42.640598863363266" lon="1.380139868706465">
        <ele>2179.3600000000001</ele>
        <time>2025-07-16T15:08:41Z</time>
      </trkpt>
      <trkpt lat="42.640506913885474" lon="1.380181275308132">
        <ele>2178.2600000000002</ele>
        <time>2025-07-16T15:08:52Z</time>
      </trkpt>
      <trkpt lat="42.640429968014359" lon="1.380238104611635">
        <ele>2177.5100000000002</ele>
        <time>2025-07-16T15:09:05Z</time>
      </trkpt>
      <trkpt lat="42.640351513400674" lon="1.380309937521815">
        <ele>2175.0900000000001</ele>
        <time>2025-07-16T15:09:25Z</time>
      </trkpt>
      <trkpt lat="42.6402707118541" lon="1.380349332466722">
        <ele>2174.6500000000001</ele>
        <time>2025-07-16T15:09:45Z</time>
      </trkpt>
      <trkpt lat="42.640200471505523" lon="1.38041571713984">
        <ele>2174.0300000000002</ele>
        <time>2025-07-16T15:10:04Z</time>
      </trkpt>
      <trkpt lat="42.640105001628399" lon="1.380435582250357">
        <ele>2176.8000000000002</ele>
        <time>2025-07-16T15:10:30Z</time>
      </trkpt>
      <trkpt lat="42.640023697167635" lon="1.380478665232658">
        <ele>2175.21</ele>
        <time>2025-07-16T15:11:04Z</time>
      </trkpt>
      <trkpt lat="42.639943063259125" lon="1.380550330504775">
        <ele>2172.2199999999998</ele>
        <time>2025-07-16T15:11:30Z</time>
      </trkpt>
      <trkpt lat="42.639857986941934" lon="1.380572374910116">
        <ele>2170.5999999999999</ele>
        <time>2025-07-16T15:11:46Z</time>
      </trkpt>
      <trkpt lat="42.639776095747948" lon="1.380607997998595">
        <ele>2169.9200000000001</ele>
        <time>2025-07-16T15:12:02Z</time>
      </trkpt>
      <trkpt lat="42.639709962531924" lon="1.380684608593583">
        <ele>2169.73</ele>
        <time>2025-07-16T15:12:15Z</time>
      </trkpt>
      <trkpt lat="42.639705939218402" lon="1.380762560293078">
        <ele>2167.8800000000001</ele>
        <time>2025-07-16T15:12:34Z</time>
      </trkpt>
      <trkpt lat="42.639614827930927" lon="1.380755351856351">
        <ele>2166.7600000000002</ele>
        <time>2025-07-16T15:12:53Z</time>
      </trkpt>
      <trkpt lat="42.639528075233102" lon="1.380749484524131">
        <ele>2166.27</ele>
        <time>2025-07-16T15:13:07Z</time>
      </trkpt>
      <trkpt lat="42.639464037492871" lon="1.380817545577884">
        <ele>2163.3800000000001</ele>
        <time>2025-07-16T15:13:30Z</time>
      </trkpt>
      <trkpt lat="42.639380805194378" lon="1.380867501720786">
        <ele>2163.3299999999999</ele>
        <time>2025-07-16T15:13:41Z</time>
      </trkpt>
      <trkpt lat="42.639296231791377" lon="1.380917876958847">
        <ele>2161.6100000000001</ele>
        <time>2025-07-16T15:13:59Z</time>
      </trkpt>
      <trkpt lat="42.639262955635786" lon="1.381007060408592">
        <ele>2158.0500000000002</ele>
        <time>2025-07-16T15:14:23Z</time>
      </trkpt>
      <trkpt lat="42.639183746650815" lon="1.381065146997571">
        <ele>2154.7800000000002</ele>
        <time>2025-07-16T15:15:02Z</time>
      </trkpt>
      <trkpt lat="42.639114344492555" lon="1.381139662116766">
        <ele>2150.4400000000001</ele>
        <time>2025-07-16T15:15:33Z</time>
      </trkpt>
      <trkpt lat="42.639019712805748" lon="1.381158772855997">
        <ele>2149.0999999999999</ele>
        <time>2025-07-16T15:15:45Z</time>
      </trkpt>
      <trkpt lat="42.63892793096602" lon="1.381186097860336">
        <ele>2147.1199999999999</ele>
        <time>2025-07-16T15:16:06Z</time>
      </trkpt>
      <trkpt lat="42.638834975659847" lon="1.381215769797564">
        <ele>2145.3099999999999</ele>
        <time>2025-07-16T15:16:17Z</time>
      </trkpt>
      <trkpt lat="42.638752330094576" lon="1.381271174177527">
        <ele>2144.3800000000001</ele>
        <time>2025-07-16T15:16:29Z</time>
      </trkpt>
      <trkpt lat="42.638679994270205" lon="1.381358094513416">
        <ele>2142.1700000000001</ele>
        <time>2025-07-16T15:16:48Z</time>
      </trkpt>
      <trkpt lat="42.638621991500258" lon="1.381429759785533">
        <ele>2141.6999999999998</ele>
        <time>2025-07-16T15:17:00Z</time>
      </trkpt>
      <trkpt lat="42.638536831364036" lon="1.381465131416917">
        <ele>2142.21</ele>
        <time>2025-07-16T15:17:12Z</time>
      </trkpt>
      <trkpt lat="42.638474218547344" lon="1.381577365100384">
        <ele>2142.9499999999998</ele>
        <time>2025-07-16T15:17:29Z</time>
      </trkpt>
      <trkpt lat="42.638403056189418" lon="1.381662106141448">
        <ele>2144.1500000000001</ele>
        <time>2025-07-16T15:17:42Z</time>
      </trkpt>
      <trkpt lat="42.638318566605449" lon="1.381680211052299">
        <ele>2144.6700000000001</ele>
        <time>2025-07-16T15:17:55Z</time>
      </trkpt>
      <trkpt lat="42.638226533308625" lon="1.381708793342114">
        <ele>2143.3000000000002</ele>
        <time>2025-07-16T15:18:08Z</time>
      </trkpt>
      <trkpt lat="42.638148330152035" lon="1.381693035364151">
        <ele>2141.73</ele>
        <time>2025-07-16T15:18:23Z</time>
      </trkpt>
      <trkpt lat="42.638069288805127" lon="1.381677277386189">
        <ele>2139.5</ele>
        <time>2025-07-16T15:18:36Z</time>
      </trkpt>
      <trkpt lat="42.637975327670574" lon="1.381712816655636">
        <ele>2138.5100000000002</ele>
        <time>2025-07-16T15:18:50Z</time>
      </trkpt>
      <trkpt lat="42.637890921905637" lon="1.381682893261313">
        <ele>2137.54</ele>
        <time>2025-07-16T15:18:59Z</time>
      </trkpt>
      <trkpt lat="42.637815149500966" lon="1.381625812500715">
        <ele>2137.4899999999998</ele>
        <time>2025-07-16T15:19:09Z</time>
      </trkpt>
      <trkpt lat="42.637729486450553" lon="1.381637044250965">
        <ele>2138.6100000000001</ele>
        <time>2025-07-16T15:19:20Z</time>
      </trkpt>
      <trkpt lat="42.637635106220841" lon="1.381644420325756">
        <ele>2138.0999999999999</ele>
        <time>2025-07-16T15:19:29Z</time>
      </trkpt>
      <trkpt lat="42.637551119551063" lon="1.381625980138779">
        <ele>2137.7600000000002</ele>
        <time>2025-07-16T15:19:38Z</time>
      </trkpt>
      <trkpt lat="42.637457326054573" lon="1.381621537730098">
        <ele>2137.73</ele>
        <time>2025-07-16T15:19:48Z</time>
      </trkpt>
      <trkpt lat="42.637381134554744" lon="1.381576610729098">
        <ele>2138.1500000000001</ele>
        <time>2025-07-16T15:19:58Z</time>
      </trkpt>
      <trkpt lat="42.637301003560424" lon="1.381545178592205">
        <ele>2136.9299999999998</ele>
        <time>2025-07-16T15:20:11Z</time>
      </trkpt>
      <trkpt lat="42.637219782918692" lon="1.381539311259985">
        <ele>2136.3600000000001</ele>
        <time>2025-07-16T15:20:22Z</time>
      </trkpt>
      <trkpt lat="42.637127665802836" lon="1.381564205512404">
        <ele>2135.4299999999998</ele>
        <time>2025-07-16T15:20:35Z</time>
      </trkpt>
      <trkpt lat="42.637031190097332" lon="1.381536377593875">
        <ele>2135.6900000000001</ele>
        <time>2025-07-16T15:20:49Z</time>
      </trkpt>
      <trkpt lat="42.636929852887988" lon="1.381571246311069">
        <ele>2134.9000000000001</ele>
        <time>2025-07-16T15:21:04Z</time>
      </trkpt>
      <trkpt lat="42.636848213151097" lon="1.38162606395781">
        <ele>2134.2600000000002</ele>
        <time>2025-07-16T15:21:22Z</time>
      </trkpt>
      <trkpt lat="42.636768165975809" lon="1.38158205896616">
        <ele>2133.6399999999999</ele>
        <time>2025-07-16T15:21:36Z</time>
      </trkpt>
      <trkpt lat="42.636681078001857" lon="1.381559344008565">
        <ele>2134.8400000000001</ele>
        <time>2025-07-16T15:21:55Z</time>
      </trkpt>
      <trkpt lat="42.636587284505367" lon="1.381566049531102">
        <ele>2133.3000000000002</ele>
        <time>2025-07-16T15:22:17Z</time>
      </trkpt>
      <trkpt lat="42.636488629505038" lon="1.381545597687364">
        <ele>2133.27</ele>
        <time>2025-07-16T15:22:33Z</time>
      </trkpt>
      <trkpt lat="42.636406319215894" lon="1.381500586867333">
        <ele>2133.7399999999998</ele>
        <time>2025-07-16T15:22:50Z</time>
      </trkpt>
      <trkpt lat="42.6363162137568" lon="1.381490444764495">
        <ele>2133.1100000000001</ele>
        <time>2025-07-16T15:23:41Z</time>
      </trkpt>
      <trkpt lat="42.63625904917717" lon="1.381573844701052">
        <ele>2133</ele>
        <time>2025-07-16T15:25:24Z</time>
      </trkpt>
      <trkpt lat="42.636188305914402" lon="1.381627824157476">
        <ele>2131.52</ele>
        <time>2025-07-16T15:26:09Z</time>
      </trkpt>
      <trkpt lat="42.636111443862319" lon="1.381710637360811">
        <ele>2130.4899999999998</ele>
        <time>2025-07-16T15:26:25Z</time>
      </trkpt>
      <trkpt lat="42.636026619002223" lon="1.381766628473997">
        <ele>2128.8000000000002</ele>
        <time>2025-07-16T15:26:47Z</time>
      </trkpt>
      <trkpt lat="42.635969873517752" lon="1.38183712027967">
        <ele>2126.6300000000001</ele>
        <time>2025-07-16T15:27:10Z</time>
      </trkpt>
      <trkpt lat="42.635933076962829" lon="1.381939882412553">
        <ele>2122.1100000000001</ele>
        <time>2025-07-16T15:27:43Z</time>
      </trkpt>
      <trkpt lat="42.635885719209909" lon="1.38195245526731">
        <ele>2118.79</ele>
        <time>2025-07-16T15:28:10Z</time>
      </trkpt>
      <trkpt lat="42.635845988988876" lon="1.382058234885335">
        <ele>2117.0700000000002</ele>
        <time>2025-07-16T15:28:36Z</time>
      </trkpt>
      <trkpt lat="42.635814724490047" lon="1.382198799401522">
        <ele>2117.4200000000001</ele>
        <time>2025-07-16T15:28:55Z</time>
      </trkpt>
      <trkpt lat="42.635745322331786" lon="1.382296700030565">
        <ele>2116.48</ele>
        <time>2025-07-16T15:29:16Z</time>
      </trkpt>
      <trkpt lat="42.635656138882041" lon="1.382351517677307">
        <ele>2116.0300000000002</ele>
        <time>2025-07-16T15:29:39Z</time>
      </trkpt>
      <trkpt lat="42.635581372305751" lon="1.382404156029224">
        <ele>2114.0799999999999</ele>
        <time>2025-07-16T15:30:12Z</time>
      </trkpt>
      <trkpt lat="42.635492524132133" lon="1.382417399436235">
        <ele>2113.0500000000002</ele>
        <time>2025-07-16T15:30:35Z</time>
      </trkpt>
      <trkpt lat="42.635425804182887" lon="1.382504655048251">
        <ele>2114.0599999999999</ele>
        <time>2025-07-16T15:30:49Z</time>
      </trkpt>
      <trkpt lat="42.63533653691411" lon="1.382567519322038">
        <ele>2114.7399999999998</ele>
        <time>2025-07-16T15:31:03Z</time>
      </trkpt>
      <trkpt lat="42.635251544415951" lon="1.382641112431884">
        <ele>2115.75</ele>
        <time>2025-07-16T15:31:16Z</time>
      </trkpt>
      <trkpt lat="42.635168563574553" lon="1.382719483226538">
        <ele>2117.8400000000001</ele>
        <time>2025-07-16T15:31:32Z</time>
      </trkpt>
      <trkpt lat="42.635075692087412" lon="1.382787628099322">
        <ele>2118.8499999999999</ele>
        <time>2025-07-16T15:31:49Z</time>
      </trkpt>
      <trkpt lat="42.634994806721807" lon="1.382864406332374">
        <ele>2120.5999999999999</ele>
        <time>2025-07-16T15:32:09Z</time>
      </trkpt>
      <trkpt lat="42.634925153106451" lon="1.38292676769197">
        <ele>2123.6799999999998</ele>
        <time>2025-07-16T15:32:36Z</time>
      </trkpt>
      <trkpt lat="42.634903360158205" lon="1.382901202887297">
        <ele>2123.6399999999999</ele>
        <time>2025-07-16T15:32:44Z</time>
      </trkpt>
      <trkpt lat="42.634834041818976" lon="1.382906986400485">
        <ele>2123.0599999999999</ele>
        <time>2025-07-16T15:32:57Z</time>
      </trkpt>
      <trkpt lat="42.634763801470399" lon="1.382924169301987">
        <ele>2123.6799999999998</ele>
        <time>2025-07-16T15:33:14Z</time>
      </trkpt>
      <trkpt lat="42.634675707668066" lon="1.382901538163424">
        <ele>2127.8499999999999</ele>
        <time>2025-07-16T15:33:51Z</time>
      </trkpt>
      <trkpt lat="42.634592978283763" lon="1.382843367755413">
        <ele>2128.98</ele>
        <time>2025-07-16T15:34:16Z</time>
      </trkpt>
      <trkpt lat="42.634534556418657" lon="1.382772289216518">
        <ele>2127.3099999999999</ele>
        <time>2025-07-16T15:34:41Z</time>
      </trkpt>
      <trkpt lat="42.634469261392951" lon="1.382688637822866">
        <ele>2125.1700000000001</ele>
        <time>2025-07-16T15:35:01Z</time>
      </trkpt>
      <trkpt lat="42.634392064064741" lon="1.382707832381129">
        <ele>2126.6100000000001</ele>
        <time>2025-07-16T15:35:34Z</time>
      </trkpt>
      <trkpt lat="42.634298019111156" lon="1.382676986977458">
        <ele>2128.8699999999999</ele>
        <time>2025-07-16T15:36:24Z</time>
      </trkpt>
      <trkpt lat="42.634238675236702" lon="1.382752927020192">
        <ele>2134.3699999999999</ele>
        <time>2025-07-16T15:37:03Z</time>
      </trkpt>
      <trkpt lat="42.63416868634522" lon="1.382842864841223">
        <ele>2134.8099999999999</ele>
        <time>2025-07-16T15:37:36Z</time>
      </trkpt>
      <trkpt lat="42.63418922200799" lon="1.382786454632878">
        <ele>2133.73</ele>
        <time>2025-07-16T15:39:38Z</time>
      </trkpt>
      <trkpt lat="42.634151503443718" lon="1.382761811837554">
        <ele>2132.0700000000002</ele>
        <time>2025-07-16T15:41:09Z</time>
      </trkpt>
      <trkpt lat="42.634054524824023" lon="1.382758542895317">
        <ele>2129.8600000000001</ele>
        <time>2025-07-16T15:42:05Z</time>
      </trkpt>
      <trkpt lat="42.633960647508502" lon="1.382717303931713">
        <ele>2129.46</ele>
        <time>2025-07-16T15:42:16Z</time>
      </trkpt>
      <trkpt lat="42.633879845961928" lon="1.382649075239897">
        <ele>2127.8400000000001</ele>
        <time>2025-07-16T15:42:30Z</time>
      </trkpt>
      <trkpt lat="42.633815975859761" lon="1.38256223872304">
        <ele>2127.04</ele>
        <time>2025-07-16T15:42:47Z</time>
      </trkpt>
      <trkpt lat="42.633759146556258" lon="1.382456542924047">
        <ele>2128.0100000000002</ele>
        <time>2025-07-16T15:43:27Z</time>
      </trkpt>
      <trkpt lat="42.633695779368281" lon="1.382355876266956">
        <ele>2128.6500000000001</ele>
        <time>2025-07-16T15:44:07Z</time>
      </trkpt>
      <trkpt lat="42.633637273684144" lon="1.382247498258948">
        <ele>2128.3499999999999</ele>
        <time>2025-07-16T15:44:34Z</time>
      </trkpt>
      <trkpt lat="42.633564854040742" lon="1.382157141342759">
        <ele>2125.5799999999999</ele>
        <time>2025-07-16T15:45:16Z</time>
      </trkpt>
      <trkpt lat="42.633515819907188" lon="1.382108191028237">
        <ele>2121.2399999999998</ele>
        <time>2025-07-16T15:45:55Z</time>
      </trkpt>
      <trkpt lat="42.633488075807691" lon="1.382229393348098">
        <ele>2123.8800000000001</ele>
        <time>2025-07-16T15:46:19Z</time>
      </trkpt>
      <trkpt lat="42.63345287181437" lon="1.382329305633903">
        <ele>2126.04</ele>
        <time>2025-07-16T15:46:42Z</time>
      </trkpt>
      <trkpt lat="42.63338296674192" lon="1.38232821598649">
        <ele>2128.6700000000001</ele>
        <time>2025-07-16T15:47:11Z</time>
      </trkpt>
      <trkpt lat="42.633304679766297" lon="1.38227398507297">
        <ele>2131.0700000000002</ele>
        <time>2025-07-16T15:48:08Z</time>
      </trkpt>
      <trkpt lat="42.633227230980992" lon="1.382174324244261">
        <ele>2130.27</ele>
        <time>2025-07-16T15:49:09Z</time>
      </trkpt>
      <trkpt lat="42.633145172148943" lon="1.38218941166997">
        <ele>2133.8400000000001</ele>
        <time>2025-07-16T15:50:21Z</time>
      </trkpt>
      <trkpt lat="42.633068142458797" lon="1.382144065573812">
        <ele>2133.3499999999999</ele>
        <time>2025-07-16T15:51:01Z</time>
      </trkpt>
      <trkpt lat="42.632992789149284" lon="1.38210047967732">
        <ele>2131.9000000000001</ele>
        <time>2025-07-16T15:51:16Z</time>
      </trkpt>
      <trkpt lat="42.6329315174371" lon="1.382064437493682">
        <ele>2130.1300000000001</ele>
        <time>2025-07-16T15:51:40Z</time>
      </trkpt>
      <trkpt lat="42.632870329543948" lon="1.381997633725405">
        <ele>2127.9099999999999</ele>
        <time>2025-07-16T15:51:59Z</time>
      </trkpt>
      <trkpt lat="42.632794892415404" lon="1.381993861868978">
        <ele>2129.7399999999998</ele>
        <time>2025-07-16T15:52:38Z</time>
      </trkpt>
      <trkpt lat="42.632703110575676" lon="1.381990760564804">
        <ele>2130.9200000000001</ele>
        <time>2025-07-16T15:53:25Z</time>
      </trkpt>
      <trkpt lat="42.632630942389369" lon="1.382002579048276">
        <ele>2132.27</ele>
        <time>2025-07-16T15:54:13Z</time>
      </trkpt>
      <trkpt lat="42.63258065097034" lon="1.381993694230914">
        <ele>2133.1500000000001</ele>
        <time>2025-07-16T15:55:44Z</time>
      </trkpt>
      <trkpt lat="42.632509069517255" lon="1.382045242935419">
        <ele>2135.5900000000001</ele>
        <time>2025-07-16T15:56:24Z</time>
      </trkpt>
      <trkpt lat="42.632422149181366" lon="1.382166529074311">
        <ele>2140.0700000000002</ele>
        <time>2025-07-16T15:57:45Z</time>
      </trkpt>
      <trkpt lat="42.632436649873853" lon="1.382270464673638">
        <ele>2142.1900000000001</ele>
        <time>2025-07-16T15:58:42Z</time>
      </trkpt>
      <trkpt lat="42.63244578614831" lon="1.38238194398582">
        <ele>2142.6100000000001</ele>
        <time>2025-07-16T15:59:14Z</time>
      </trkpt>
      <trkpt lat="42.632385939359665" lon="1.382414046674967">
        <ele>2143.8699999999999</ele>
        <time>2025-07-16T15:59:42Z</time>
      </trkpt>
      <trkpt lat="42.632346879690886" lon="1.382430056110025">
        <ele>2144.0100000000002</ele>
        <time>2025-07-16T16:00:14Z</time>
      </trkpt>
      <trkpt lat="42.632261719554663" lon="1.382397366687655">
        <ele>2143.6999999999998</ele>
        <time>2025-07-16T16:00:28Z</time>
      </trkpt>
      <trkpt lat="42.632176475599408" lon="1.382382865995169">
        <ele>2142.6500000000001</ele>
        <time>2025-07-16T16:00:44Z</time>
      </trkpt>
      <trkpt lat="42.632084945216775" lon="1.382401138544083">
        <ele>2142.48</ele>
        <time>2025-07-16T16:00:58Z</time>
      </trkpt>
      <trkpt lat="42.631998108699918" lon="1.38239904306829">
        <ele>2141.5700000000002</ele>
        <time>2025-07-16T16:01:13Z</time>
      </trkpt>
      <trkpt lat="42.631900543347001" lon="1.382396360859275">
        <ele>2139.6199999999999</ele>
        <time>2025-07-16T16:01:32Z</time>
      </trkpt>
      <trkpt lat="42.631805911660194" lon="1.382377920672298">
        <ele>2139.9000000000001</ele>
        <time>2025-07-16T16:01:48Z</time>
      </trkpt>
      <trkpt lat="42.631695689633489" lon="1.382415387779474">
        <ele>2140.3499999999999</ele>
        <time>2025-07-16T16:02:04Z</time>
      </trkpt>
      <trkpt lat="42.63159753754735" lon="1.38245134614408">
        <ele>2140.5999999999999</ele>
        <time>2025-07-16T16:02:20Z</time>
      </trkpt>
      <trkpt lat="42.6315051689744" lon="1.382466601207852">
        <ele>2138.5</ele>
        <time>2025-07-16T16:02:56Z</time>
      </trkpt>
      <trkpt lat="42.631441969424486" lon="1.382523849606514">
        <ele>2134.4299999999998</ele>
        <time>2025-07-16T16:04:01Z</time>
      </trkpt>
      <trkpt lat="42.631371645256877" lon="1.382612530142069">
        <ele>2132.9499999999998</ele>
        <time>2025-07-16T16:04:13Z</time>
      </trkpt>
      <trkpt lat="42.631272906437516" lon="1.382655445486307">
        <ele>2130.75</ele>
        <time>2025-07-16T16:04:33Z</time>
      </trkpt>
      <trkpt lat="42.631167294457555" lon="1.382697522640228">
        <ele>2129.0599999999999</ele>
        <time>2025-07-16T16:04:48Z</time>
      </trkpt>
      <trkpt lat="42.631081128492951" lon="1.382808750495315">
        <ele>2129.5500000000002</ele>
        <time>2025-07-16T16:05:02Z</time>
      </trkpt>
      <trkpt lat="42.6310043502599" lon="1.382922492921352">
        <ele>2130.9200000000001</ele>
        <time>2025-07-16T16:05:17Z</time>
      </trkpt>
      <trkpt lat="42.630939809605479" lon="1.383024249225855">
        <ele>2131.9299999999998</ele>
        <time>2025-07-16T16:05:32Z</time>
      </trkpt>
      <trkpt lat="42.630850374698639" lon="1.383092058822513">
        <ele>2133.5700000000002</ele>
        <time>2025-07-16T16:05:55Z</time>
      </trkpt>
      <trkpt lat="42.630744678899646" lon="1.383133297786117">
        <ele>2133.1599999999999</ele>
        <time>2025-07-16T16:06:09Z</time>
      </trkpt>
      <trkpt lat="42.630655076354742" lon="1.383207645267248">
        <ele>2133.0599999999999</ele>
        <time>2025-07-16T16:06:30Z</time>
      </trkpt>
      <trkpt lat="42.630559271201491" lon="1.383282076567411">
        <ele>2132.6100000000001</ele>
        <time>2025-07-16T16:06:44Z</time>
      </trkpt>
      <trkpt lat="42.630480816587806" lon="1.383374696597457">
        <ele>2131.9099999999999</ele>
        <time>2025-07-16T16:06:55Z</time>
      </trkpt>
      <trkpt lat="42.630401439964771" lon="1.383476452901959">
        <ele>2132.4299999999998</ele>
        <time>2025-07-16T16:07:09Z</time>
      </trkpt>
      <trkpt lat="42.630311585962772" lon="1.383526492863894">
        <ele>2131.4299999999998</ele>
        <time>2025-07-16T16:07:22Z</time>
      </trkpt>
      <trkpt lat="42.630229778587818" lon="1.383599750697613">
        <ele>2131.02</ele>
        <time>2025-07-16T16:07:36Z</time>
      </trkpt>
      <trkpt lat="42.630135733634233" lon="1.383683821186423">
        <ele>2130.5</ele>
        <time>2025-07-16T16:08:09Z</time>
      </trkpt>
      <trkpt lat="42.630045460537076" lon="1.383763449266553">
        <ele>2128.4899999999998</ele>
        <time>2025-07-16T16:08:22Z</time>
      </trkpt>
      <trkpt lat="42.629968011751771" lon="1.383836288005114">
        <ele>2127.6199999999999</ele>
        <time>2025-07-16T16:08:32Z</time>
      </trkpt>
      <trkpt lat="42.629875224083662" lon="1.38390208594501">
        <ele>2127.8499999999999</ele>
        <time>2025-07-16T16:08:44Z</time>
      </trkpt>
      <trkpt lat="42.62978226877749" lon="1.383947348222137">
        <ele>2128.2399999999998</ele>
        <time>2025-07-16T16:08:57Z</time>
      </trkpt>
      <trkpt lat="42.629694594070315" lon="1.384021695703268">
        <ele>2129.0100000000002</ele>
        <time>2025-07-16T16:09:13Z</time>
      </trkpt>
      <trkpt lat="42.629627287387848" lon="1.384110376238823">
        <ele>2126.3699999999999</ele>
        <time>2025-07-16T16:09:41Z</time>
      </trkpt>
      <trkpt lat="42.629591999575496" lon="1.384215820580721">
        <ele>2126.1100000000001</ele>
        <time>2025-07-16T16:10:00Z</time>
      </trkpt>
      <trkpt lat="42.62957364320755" lon="1.384300142526627">
        <ele>2127.1599999999999</ele>
        <time>2025-07-16T16:10:20Z</time>
      </trkpt>
      <trkpt lat="42.629584707319736" lon="1.384361498057842">
        <ele>2127.1999999999998</ele>
        <time>2025-07-16T16:10:35Z</time>
      </trkpt>
      <trkpt lat="42.629592586308718" lon="1.384468702599406">
        <ele>2126.4400000000001</ele>
        <time>2025-07-16T16:10:54Z</time>
      </trkpt>
      <trkpt lat="42.629571547731757" lon="1.384599292650819">
        <ele>2128.9899999999998</ele>
        <time>2025-07-16T16:11:18Z</time>
      </trkpt>
      <trkpt lat="42.629519579932094" lon="1.384708508849144">
        <ele>2126.5500000000002</ele>
        <time>2025-07-16T16:11:35Z</time>
      </trkpt>
      <trkpt lat="42.629477418959141" lon="1.384820239618421">
        <ele>2125.5599999999999</ele>
        <time>2025-07-16T16:11:57Z</time>
      </trkpt>
      <trkpt lat="42.629451937973499" lon="1.384942196309567">
        <ele>2123.3899999999999</ele>
        <time>2025-07-16T16:12:16Z</time>
      </trkpt>
      <trkpt lat="42.629467863589525" lon="1.385067254304886">
        <ele>2123.6100000000001</ele>
        <time>2025-07-16T16:13:11Z</time>
      </trkpt>
      <trkpt lat="42.629430312663317" lon="1.385130789130926">
        <ele>2121.21</ele>
        <time>2025-07-16T16:13:42Z</time>
      </trkpt>
      <trkpt lat="42.629338279366493" lon="1.385142942890525">
        <ele>2119.9200000000001</ele>
        <time>2025-07-16T16:13:55Z</time>
      </trkpt>
      <trkpt lat="42.629250269383192" lon="1.385202622041106">
        <ele>2122.6199999999999</ele>
        <time>2025-07-16T16:14:14Z</time>
      </trkpt>
      <trkpt lat="42.629201235249639" lon="1.385301193222404">
        <ele>2123.8899999999999</ele>
        <time>2025-07-16T16:14:35Z</time>
      </trkpt>
      <trkpt lat="42.629140969365835" lon="1.385388700291514">
        <ele>2123.4899999999998</ele>
        <time>2025-07-16T16:14:57Z</time>
      </trkpt>
      <trkpt lat="42.629119511693716" lon="1.385515099391341">
        <ele>2122.5999999999999</ele>
        <time>2025-07-16T16:15:10Z</time>
      </trkpt>
      <trkpt lat="42.629112806171179" lon="1.385627584531903">
        <ele>2121.98</ele>
        <time>2025-07-16T16:15:25Z</time>
      </trkpt>
      <trkpt lat="42.629083134233952" lon="1.385776866227388">
        <ele>2120.1599999999999</ele>
        <time>2025-07-16T16:15:51Z</time>
      </trkpt>
      <trkpt lat="42.62902102433145" lon="1.385935116559267">
        <ele>2118.4899999999998</ele>
        <time>2025-07-16T16:16:06Z</time>
      </trkpt>
      <trkpt lat="42.628965871408582" lon="1.386056737974286">
        <ele>2117.02</ele>
        <time>2025-07-16T16:16:19Z</time>
      </trkpt>
      <trkpt lat="42.628930835053325" lon="1.386197051033378">
        <ele>2114.04</ele>
        <time>2025-07-16T16:16:32Z</time>
      </trkpt>
      <trkpt lat="42.628891104832292" lon="1.386336358264089">
        <ele>2111.8800000000001</ele>
        <time>2025-07-16T16:16:45Z</time>
      </trkpt>
      <trkpt lat="42.628869479522109" lon="1.38647373765707">
        <ele>2111.1399999999999</ele>
        <time>2025-07-16T16:17:00Z</time>
      </trkpt>
      <trkpt lat="42.628806699067354" lon="1.386582618579269">
        <ele>2108.5599999999999</ele>
        <time>2025-07-16T16:17:15Z</time>
      </trkpt>
      <trkpt lat="42.628773842006922" lon="1.386710777878761">
        <ele>2108.5500000000002</ele>
        <time>2025-07-16T16:17:28Z</time>
      </trkpt>
      <trkpt lat="42.628743415698409" lon="1.386832064017654">
        <ele>2107.75</ele>
        <time>2025-07-16T16:17:42Z</time>
      </trkpt>
      <trkpt lat="42.628712821751833" lon="1.386950416490436">
        <ele>2105.4299999999998</ele>
        <time>2025-07-16T16:17:59Z</time>
      </trkpt>
      <trkpt lat="42.628689603880048" lon="1.38707472011447">
        <ele>2103.5900000000001</ele>
        <time>2025-07-16T16:18:20Z</time>
      </trkpt>
      <trkpt lat="42.628634199500084" lon="1.387175554409623">
        <ele>2101.29</ele>
        <time>2025-07-16T16:18:42Z</time>
      </trkpt>
      <trkpt lat="42.628577537834644" lon="1.387251578271389">
        <ele>2098.0799999999999</ele>
        <time>2025-07-16T16:18:59Z</time>
      </trkpt>
      <trkpt lat="42.628521546721458" lon="1.387353166937828">
        <ele>2095.8200000000002</ele>
        <time>2025-07-16T16:19:14Z</time>
      </trkpt>
      <trkpt lat="42.628430519253016" lon="1.387485349550843">
        <ele>2064.4200000000001</ele>
        <time>2025-07-16T16:23:05Z</time>
      </trkpt>
      <trkpt lat="42.628246368840337" lon="1.387852812185884">
        <ele>2064.6500000000001</ele>
        <time>2025-07-16T16:23:06Z</time>
      </trkpt>
      <trkpt lat="42.628004299476743" lon="1.388196973130107">
        <ele>2075.4299999999998</ele>
        <time>2025-07-16T16:24:20Z</time>
      </trkpt>
      <trkpt lat="42.627920061349869" lon="1.388302836567164">
        <ele>2072.4899999999998</ele>
        <time>2025-07-16T16:24:47Z</time>
      </trkpt>
      <trkpt lat="42.627877565100789" lon="1.388419009745121">
        <ele>2072.3099999999999</ele>
        <time>2025-07-16T16:24:59Z</time>
      </trkpt>
      <trkpt lat="42.627824759110808" lon="1.388533171266317">
        <ele>2071.75</ele>
        <time>2025-07-16T16:25:10Z</time>
      </trkpt>
      <trkpt lat="42.627772120758891" lon="1.388646913692355">
        <ele>2070.8699999999999</ele>
        <time>2025-07-16T16:25:21Z</time>
      </trkpt>
      <trkpt lat="42.627714369446039" lon="1.388769960030913">
        <ele>2072.6100000000001</ele>
        <time>2025-07-16T16:25:37Z</time>
      </trkpt>
      <trkpt lat="42.627640692517161" lon="1.388922929763794">
        <ele>2077.3699999999999</ele>
        <time>2025-07-16T16:26:18Z</time>
      </trkpt>
      <trkpt lat="42.62761227786541" lon="1.38905662111938">
        <ele>2079.2600000000002</ele>
        <time>2025-07-16T16:26:44Z</time>
      </trkpt>
      <trkpt lat="42.627587802708149" lon="1.389165502041578">
        <ele>2078.6700000000001</ele>
        <time>2025-07-16T16:27:00Z</time>
      </trkpt>
      <trkpt lat="42.627617139369249" lon="1.389268347993493">
        <ele>2077.0700000000002</ele>
        <time>2025-07-16T16:27:19Z</time>
      </trkpt>
      <trkpt lat="42.627645637840033" lon="1.389358788728714">
        <ele>2075.21</ele>
        <time>2025-07-16T16:27:43Z</time>
      </trkpt>
      <trkpt lat="42.627657121047378" lon="1.389469932764769">
        <ele>2072.1599999999999</ele>
        <time>2025-07-16T16:27:59Z</time>
      </trkpt>
      <trkpt lat="42.627666005864739" lon="1.389598092064261">
        <ele>2070.8200000000002</ele>
        <time>2025-07-16T16:28:14Z</time>
      </trkpt>
      <trkpt lat="42.627697521820664" lon="1.389703787863255">
        <ele>2067.6500000000001</ele>
        <time>2025-07-16T16:28:33Z</time>
      </trkpt>
      <trkpt lat="42.627699952572584" lon="1.389825912192464">
        <ele>2065.8800000000001</ele>
        <time>2025-07-16T16:28:47Z</time>
      </trkpt>
      <trkpt lat="42.627722416073084" lon="1.389945354312658">
        <ele>2062.7399999999998</ele>
        <time>2025-07-16T16:29:04Z</time>
      </trkpt>
      <trkpt lat="42.627736916765571" lon="1.390066053718329">
        <ele>2059.79</ele>
        <time>2025-07-16T16:29:22Z</time>
      </trkpt>
      <trkpt lat="42.627783268690109" lon="1.390175521373749">
        <ele>2057.1700000000001</ele>
        <time>2025-07-16T16:29:46Z</time>
      </trkpt>
      <trkpt lat="42.627751249819994" lon="1.390267638489604">
        <ele>2054.3899999999999</ele>
        <time>2025-07-16T16:30:06Z</time>
      </trkpt>
      <trkpt lat="42.627676902338862" lon="1.390185914933682">
        <ele>2051.8899999999999</ele>
        <time>2025-07-16T16:30:21Z</time>
      </trkpt>
      <trkpt lat="42.627606075257063" lon="1.3901193626225">
        <ele>2047.75</ele>
        <time>2025-07-16T16:30:46Z</time>
      </trkpt>
      <trkpt lat="42.627540696412325" lon="1.39005389995873">
        <ele>2045.0999999999999</ele>
        <time>2025-07-16T16:31:04Z</time>
      </trkpt>
      <trkpt lat="42.627478586509824" lon="1.389987850561738">
        <ele>2041.1600000000001</ele>
        <time>2025-07-16T16:31:28Z</time>
      </trkpt>
      <trkpt lat="42.627400886267424" lon="1.389920124784112">
        <ele>2037.53</ele>
        <time>2025-07-16T16:32:03Z</time>
      </trkpt>
      <trkpt lat="42.62733525596559" lon="1.389824319630861">
        <ele>2034.3199999999999</ele>
        <time>2025-07-16T16:32:19Z</time>
      </trkpt>
      <trkpt lat="42.62728781439364" lon="1.389716025441885">
        <ele>2031.46</ele>
        <time>2025-07-16T16:32:39Z</time>
      </trkpt>
      <trkpt lat="42.62720575556159" lon="1.389655089005828">
        <ele>2027.8699999999999</ele>
        <time>2025-07-16T16:33:02Z</time>
      </trkpt>
      <trkpt lat="42.627150015905499" lon="1.389703284949064">
        <ele>2024.26</ele>
        <time>2025-07-16T16:33:23Z</time>
      </trkpt>
      <trkpt lat="42.627089414745569" lon="1.389699596911669">
        <ele>2021.04</ele>
        <time>2025-07-16T16:33:43Z</time>
      </trkpt>
      <trkpt lat="42.627026466652751" lon="1.389610329642892">
        <ele>2018.96</ele>
        <time>2025-07-16T16:33:55Z</time>
      </trkpt>
      <trkpt lat="42.62696678750217" lon="1.389521649107337">
        <ele>2016.47</ele>
        <time>2025-07-16T16:34:07Z</time>
      </trkpt>
      <trkpt lat="42.62689352966845" lon="1.389456186443567">
        <ele>2014.99</ele>
        <time>2025-07-16T16:34:21Z</time>
      </trkpt>
      <trkpt lat="42.626822367310524" lon="1.389392148703337">
        <ele>2013.3199999999999</ele>
        <time>2025-07-16T16:34:37Z</time>
      </trkpt>
      <trkpt lat="42.626784481108189" lon="1.389291230589151">
        <ele>2010.8299999999999</ele>
        <time>2025-07-16T16:34:53Z</time>
      </trkpt>
      <trkpt lat="42.626733770594001" lon="1.389235574752092">
        <ele>2008.0899999999999</ele>
        <time>2025-07-16T16:35:12Z</time>
      </trkpt>
      <trkpt lat="42.626682976260781" lon="1.389199197292328">
        <ele>2003.3199999999999</ele>
        <time>2025-07-16T16:35:37Z</time>
      </trkpt>
      <trkpt lat="42.626629751175642" lon="1.389094674959779">
        <ele>2000.9200000000001</ele>
        <time>2025-07-16T16:36:00Z</time>
      </trkpt>
      <trkpt lat="42.626578956842422" lon="1.388998869806528">
        <ele>1999.3399999999999</ele>
        <time>2025-07-16T16:36:10Z</time>
      </trkpt>
      <trkpt lat="42.626520283520222" lon="1.388927036896348">
        <ele>1997.1600000000001</ele>
        <time>2025-07-16T16:36:22Z</time>
      </trkpt>
      <trkpt lat="42.626478541642427" lon="1.388821257278323">
        <ele>1995.5699999999999</ele>
        <time>2025-07-16T16:36:32Z</time>
      </trkpt>
      <trkpt lat="42.626441242173314" lon="1.388721596449614">
        <ele>1993.46</ele>
        <time>2025-07-16T16:36:51Z</time>
      </trkpt>
      <trkpt lat="42.626393297687173" lon="1.38861732557416">
        <ele>1990.55</ele>
        <time>2025-07-16T16:37:06Z</time>
      </trkpt>
      <trkpt lat="42.626369660720229" lon="1.388502409681678">
        <ele>1988.79</ele>
        <time>2025-07-16T16:37:18Z</time>
      </trkpt>
      <trkpt lat="42.626345101743937" lon="1.388384643942118">
        <ele>1986.0699999999999</ele>
        <time>2025-07-16T16:37:32Z</time>
      </trkpt>
      <trkpt lat="42.626301851123571" lon="1.388482628390193">
        <ele>1985.05</ele>
        <time>2025-07-16T16:37:45Z</time>
      </trkpt>
      <trkpt lat="42.626272598281503" lon="1.388608189299703">
        <ele>1983.55</ele>
        <time>2025-07-16T16:37:57Z</time>
      </trkpt>
      <trkpt lat="42.626209314912558" lon="1.388712963089347">
        <ele>1981.5799999999999</ele>
        <time>2025-07-16T16:38:11Z</time>
      </trkpt>
      <trkpt lat="42.626173859462142" lon="1.388826118782163">
        <ele>1979.52</ele>
        <time>2025-07-16T16:38:25Z</time>
      </trkpt>
      <trkpt lat="42.626166986301541" lon="1.388940699398518">
        <ele>1977.3099999999999</ele>
        <time>2025-07-16T16:38:42Z</time>
      </trkpt>
      <trkpt lat="42.626147456467152" lon="1.389041114598513">
        <ele>1973.79</ele>
        <time>2025-07-16T16:39:00Z</time>
      </trkpt>
      <trkpt lat="42.626091297715902" lon="1.389053855091333">
        <ele>1970.9100000000001</ele>
        <time>2025-07-16T16:39:20Z</time>
      </trkpt>
      <trkpt lat="42.62600714340806" lon="1.388963330537081">
        <ele>1969.3</ele>
        <time>2025-07-16T16:39:34Z</time>
      </trkpt>
      <trkpt lat="42.625945620238781" lon="1.38892762362957">
        <ele>1966.76</ele>
        <time>2025-07-16T16:39:54Z</time>
      </trkpt>
      <trkpt lat="42.625925922766328" lon="1.389041030779481">
        <ele>1964.24</ele>
        <time>2025-07-16T16:40:10Z</time>
      </trkpt>
      <trkpt lat="42.625924162566662" lon="1.389161981642246">
        <ele>1962.3</ele>
        <time>2025-07-16T16:40:27Z</time>
      </trkpt>
      <trkpt lat="42.625946290791035" lon="1.389277065172792">
        <ele>1959.4000000000001</ele>
        <time>2025-07-16T16:40:43Z</time>
      </trkpt>
      <trkpt lat="42.625874457880855" lon="1.389248566702008">
        <ele>1956.78</ele>
        <time>2025-07-16T16:40:58Z</time>
      </trkpt>
      <trkpt lat="42.625822322443128" lon="1.389136416837573">
        <ele>1957.22</ele>
        <time>2025-07-16T16:41:17Z</time>
      </trkpt>
      <trkpt lat="42.625788627192378" lon="1.389012699946761">
        <ele>1957.0699999999999</ele>
        <time>2025-07-16T16:41:27Z</time>
      </trkpt>
      <trkpt lat="42.625771863386035" lon="1.388894431293011">
        <ele>1956.1300000000001</ele>
        <time>2025-07-16T16:41:38Z</time>
      </trkpt>
      <trkpt lat="42.625745125114918" lon="1.388779850676656">
        <ele>1953.77</ele>
        <time>2025-07-16T16:41:53Z</time>
      </trkpt>
      <trkpt lat="42.625706233084202" lon="1.388827208429575">
        <ele>1951.3699999999999</ele>
        <time>2025-07-16T16:42:13Z</time>
      </trkpt>
      <trkpt lat="42.625668765977025" lon="1.388935502618551">
        <ele>1949.72</ele>
        <time>2025-07-16T16:42:26Z</time>
      </trkpt>
      <trkpt lat="42.62565434910357" lon="1.389056453481317">
        <ele>1948.4400000000001</ele>
        <time>2025-07-16T16:42:36Z</time>
      </trkpt>
      <trkpt lat="42.625639596953988" lon="1.389179835096002">
        <ele>1946.6199999999999</ele>
        <time>2025-07-16T16:42:50Z</time>
      </trkpt>
      <trkpt lat="42.625634232535958" lon="1.389278825372458">
        <ele>1943.95</ele>
        <time>2025-07-16T16:43:03Z</time>
      </trkpt>
      <trkpt lat="42.625546725466847" lon="1.389230545610189">
        <ele>1940.76</ele>
        <time>2025-07-16T16:43:21Z</time>
      </trkpt>
      <trkpt lat="42.625484950840473" lon="1.38914312236011">
        <ele>1938.4300000000001</ele>
        <time>2025-07-16T16:43:36Z</time>
      </trkpt>
      <trkpt lat="42.625429127365351" lon="1.389055280014873">
        <ele>1935.76</ele>
        <time>2025-07-16T16:43:52Z</time>
      </trkpt>
      <trkpt lat="42.625392414629459" lon="1.388935334980488">
        <ele>1933.9400000000001</ele>
        <time>2025-07-16T16:44:07Z</time>
      </trkpt>
      <trkpt lat="42.625361736863852" lon="1.388815557584167">
        <ele>1931.8299999999999</ele>
        <time>2025-07-16T16:44:22Z</time>
      </trkpt>
      <trkpt lat="42.625323599204421" lon="1.388703994452953">
        <ele>1929.25</ele>
        <time>2025-07-16T16:44:36Z</time>
      </trkpt>
      <trkpt lat="42.625291077420115" lon="1.388595616444945">
        <ele>1926.71</ele>
        <time>2025-07-16T16:44:51Z</time>
      </trkpt>
      <trkpt lat="42.625239444896579" lon="1.388522107154131">
        <ele>1923.8</ele>
        <time>2025-07-16T16:45:08Z</time>
      </trkpt>
      <trkpt lat="42.625194350257516" lon="1.388427810743451">
        <ele>1921.27</ele>
        <time>2025-07-16T16:45:25Z</time>
      </trkpt>
      <trkpt lat="42.625156883150339" lon="1.388323958963156">
        <ele>1918.78</ele>
        <time>2025-07-16T16:45:41Z</time>
      </trkpt>
      <trkpt lat="42.625128468498588" lon="1.388211222365499">
        <ele>1916.4000000000001</ele>
        <time>2025-07-16T16:45:57Z</time>
      </trkpt>
      <trkpt lat="42.625067112967372" lon="1.388130336999893">
        <ele>1912.6700000000001</ele>
        <time>2025-07-16T16:46:22Z</time>
      </trkpt>
      <trkpt lat="42.625061580911279" lon="1.387999495491386">
        <ele>1912.28</ele>
        <time>2025-07-16T16:47:00Z</time>
      </trkpt>
    </trkseg>
  </trk>

  <trk>
    <name>5trek-pirenei2025-07-17</name>
    <extensions>
      <gpxx:TrackExtension>
        <gpxx:DisplayColor>Red</gpxx:DisplayColor>
      </gpxx:TrackExtension>
      <gpxtrkx:TrackStatsExtension xmlns:gpxtrkx="http://www.garmin.com/xmlschemas/TrackStatsExtension/v1">
        <gpxtrkx:Distance>12047</gpxtrkx:Distance>
        <gpxtrkx:TotalElapsedTime>30089</gpxtrkx:TotalElapsedTime>
        <gpxtrkx:MovingTime>18667</gpxtrkx:MovingTime>
        <gpxtrkx:StoppedTime>11329</gpxtrkx:StoppedTime>
        <gpxtrkx:MovingSpeed>0.645</gpxtrkx:MovingSpeed>
        <gpxtrkx:MaxSpeed>10.96</gpxtrkx:MaxSpeed>
        <gpxtrkx:MaxElevation>2777.067</gpxtrkx:MaxElevation>
        <gpxtrkx:MinElevation>1857.342</gpxtrkx:MinElevation>
        <gpxtrkx:Ascent>1037</gpxtrkx:Ascent>
        <gpxtrkx:Descent>677.219</gpxtrkx:Descent>
        <gpxtrkx:AvgAscentRate>0.05</gpxtrkx:AvgAscentRate>
        <gpxtrkx:MaxAscentRate>0.294</gpxtrkx:MaxAscentRate>
        <gpxtrkx:AvgDescentRate>0.062</gpxtrkx:AvgDescentRate>
        <gpxtrkx:MaxDescentRate>-0.323</gpxtrkx:MaxDescentRate>
      </gpxtrkx:TrackStatsExtension>
    </extensions>
    <trkseg>
      <trkpt lat="42.625053282827139" lon="1.388173000887036">
        <ele>1914.5</ele>
        <time>2025-07-17T05:43:01Z</time>
      </trkpt>
      <trkpt lat="42.625011708587408" lon="1.388086248189211">
        <ele>1914.29</ele>
        <time>2025-07-17T05:43:04Z</time>
      </trkpt>
      <trkpt lat="42.624966194853187" lon="1.388141149654985">
        <ele>1914.29</ele>
        <time>2025-07-17T05:43:06Z</time>
      </trkpt>
      <trkpt lat="42.625082535669208" lon="1.388066383078694">
        <ele>1916.77</ele>
        <time>2025-07-17T05:49:24Z</time>
      </trkpt>
      <trkpt lat="42.625045152381063" lon="1.388141987845302">
        <ele>1916.3599999999999</ele>
        <time>2025-07-17T05:49:41Z</time>
      </trkpt>
      <trkpt lat="42.625076668336987" lon="1.38816243968904">
        <ele>1916.3800000000001</ele>
        <time>2025-07-17T05:51:11Z</time>
      </trkpt>
      <trkpt lat="42.625038865953684" lon="1.388295795768499">
        <ele>1914.1099999999999</ele>
        <time>2025-07-17T05:51:22Z</time>
      </trkpt>
      <trkpt lat="42.624995950609446" lon="1.388415656983852">
        <ele>1912.8699999999999</ele>
        <time>2025-07-17T05:51:31Z</time>
      </trkpt>
      <trkpt lat="42.624947335571051" lon="1.38853476382792">
        <ele>1911.98</ele>
        <time>2025-07-17T05:51:41Z</time>
      </trkpt>
      <trkpt lat="42.624892182648182" lon="1.388638615608215">
        <ele>1910.5699999999999</ele>
        <time>2025-07-17T05:51:53Z</time>
      </trkpt>
      <trkpt lat="42.624808950349689" lon="1.38870089314878">
        <ele>1907.6400000000001</ele>
        <time>2025-07-17T05:52:06Z</time>
      </trkpt>
      <trkpt lat="42.624718761071563" lon="1.388745317235589">
        <ele>1906.4300000000001</ele>
        <time>2025-07-17T05:52:16Z</time>
      </trkpt>
      <trkpt lat="42.624638713896275" lon="1.38868672773242">
        <ele>1905.3800000000001</ele>
        <time>2025-07-17T05:52:25Z</time>
      </trkpt>
      <trkpt lat="42.624545507133007" lon="1.388674741610885">
        <ele>1905.6199999999999</ele>
        <time>2025-07-17T05:52:35Z</time>
      </trkpt>
      <trkpt lat="42.624458251520991" lon="1.388734923675656">
        <ele>1904.8900000000001</ele>
        <time>2025-07-17T05:52:46Z</time>
      </trkpt>
      <trkpt lat="42.624358255416155" lon="1.388773648068309">
        <ele>1903.6300000000001</ele>
        <time>2025-07-17T05:52:59Z</time>
      </trkpt>
      <trkpt lat="42.624262617900968" lon="1.388725871220231">
        <ele>1900.75</ele>
        <time>2025-07-17T05:53:13Z</time>
      </trkpt>
      <trkpt lat="42.624146528542042" lon="1.388696618378162">
        <ele>1897.54</ele>
        <time>2025-07-17T05:53:29Z</time>
      </trkpt>
      <trkpt lat="42.624039826914668" lon="1.38867306523025">
        <ele>1895.5</ele>
        <time>2025-07-17T05:53:44Z</time>
      </trkpt>
      <trkpt lat="42.623929604887962" lon="1.388639453798533">
        <ele>1892.9300000000001</ele>
        <time>2025-07-17T05:54:01Z</time>
      </trkpt>
      <trkpt lat="42.623813264071941" lon="1.388592515140772">
        <ele>1889.51</ele>
        <time>2025-07-17T05:54:15Z</time>
      </trkpt>
      <trkpt lat="42.623705388978124" lon="1.388561418280006">
        <ele>1888.1600000000001</ele>
        <time>2025-07-17T05:54:25Z</time>
      </trkpt>
      <trkpt lat="42.623591562733054" lon="1.388550605624914">
        <ele>1887.9000000000001</ele>
        <time>2025-07-17T05:54:37Z</time>
      </trkpt>
      <trkpt lat="42.623496176674962" lon="1.388453962281346">
        <ele>1884.28</ele>
        <time>2025-07-17T05:54:53Z</time>
      </trkpt>
      <trkpt lat="42.623407244682312" lon="1.3883769325912">
        <ele>1882.04</ele>
        <time>2025-07-17T05:55:07Z</time>
      </trkpt>
      <trkpt lat="42.623323844745755" lon="1.388305267319083">
        <ele>1880.1900000000001</ele>
        <time>2025-07-17T05:55:22Z</time>
      </trkpt>
      <trkpt lat="42.623232062906027" lon="1.388250701129437">
        <ele>1878.1600000000001</ele>
        <time>2025-07-17T05:55:36Z</time>
      </trkpt>
      <trkpt lat="42.623134916648269" lon="1.388198398053646">
        <ele>1876.76</ele>
        <time>2025-07-17T05:55:48Z</time>
      </trkpt>
      <trkpt lat="42.62303969822824" lon="1.388147184625268">
        <ele>1875.46</ele>
        <time>2025-07-17T05:56:00Z</time>
      </trkpt>
      <trkpt lat="42.622949257493019" lon="1.38807543553412">
        <ele>1873.25</ele>
        <time>2025-07-17T05:56:14Z</time>
      </trkpt>
      <trkpt lat="42.622848004102707" lon="1.38802413828671">
        <ele>1872.51</ele>
        <time>2025-07-17T05:56:25Z</time>
      </trkpt>
      <trkpt lat="42.622731076553464" lon="1.387997148558497">
        <ele>1871.3299999999999</ele>
        <time>2025-07-17T05:56:41Z</time>
      </trkpt>
      <trkpt lat="42.622610125690699" lon="1.387929087504745">
        <ele>1871.3599999999999</ele>
        <time>2025-07-17T05:56:55Z</time>
      </trkpt>
      <trkpt lat="42.6224978081882" lon="1.387816015630961">
        <ele>1871.97</ele>
        <time>2025-07-17T05:57:10Z</time>
      </trkpt>
      <trkpt lat="42.622383646667004" lon="1.387678133323789">
        <ele>1871.5899999999999</ele>
        <time>2025-07-17T05:57:30Z</time>
      </trkpt>
      <trkpt lat="42.622304856777191" lon="1.387522481381893">
        <ele>1870.3</ele>
        <time>2025-07-17T05:57:46Z</time>
      </trkpt>
      <trkpt lat="42.622239729389548" lon="1.387372529134154">
        <ele>1869.9400000000001</ele>
        <time>2025-07-17T05:58:02Z</time>
      </trkpt>
      <trkpt lat="42.622163789346814" lon="1.387252835556865">
        <ele>1868.48</ele>
        <time>2025-07-17T05:58:13Z</time>
      </trkpt>
      <trkpt lat="42.622067229822278" lon="1.387197263538837">
        <ele>1867.25</ele>
        <time>2025-07-17T05:58:25Z</time>
      </trkpt>
      <trkpt lat="42.621971592307091" lon="1.387141607701778">
        <ele>1865.3399999999999</ele>
        <time>2025-07-17T05:58:37Z</time>
      </trkpt>
      <trkpt lat="42.621888862922788" lon="1.38709818944335">
        <ele>1864.0599999999999</ele>
        <time>2025-07-17T05:59:08Z</time>
      </trkpt>
      <trkpt lat="42.621810743585229" lon="1.387025266885757">
        <ele>1862.3199999999999</ele>
        <time>2025-07-17T05:59:21Z</time>
      </trkpt>
      <trkpt lat="42.621726924553514" lon="1.386936418712139">
        <ele>1860.0999999999999</ele>
        <time>2025-07-17T05:59:34Z</time>
      </trkpt>
      <trkpt lat="42.621650565415621" lon="1.386843882501125">
        <ele>1859.6800000000001</ele>
        <time>2025-07-17T05:59:45Z</time>
      </trkpt>
      <trkpt lat="42.621581833809614" lon="1.386715220287442">
        <ele>1858.01</ele>
        <time>2025-07-17T05:59:58Z</time>
      </trkpt>
      <trkpt lat="42.621493320912123" lon="1.386633915826678">
        <ele>1857.54</ele>
        <time>2025-07-17T06:00:12Z</time>
      </trkpt>
      <trkpt lat="42.621525842696428" lon="1.386515228077769">
        <ele>1859.6900000000001</ele>
        <time>2025-07-17T06:00:27Z</time>
      </trkpt>
      <trkpt lat="42.621520897373557" lon="1.386401820927858">
        <ele>1861.7</ele>
        <time>2025-07-17T06:00:43Z</time>
      </trkpt>
      <trkpt lat="42.621439257636666" lon="1.38646393083036">
        <ele>1862.8099999999999</ele>
        <time>2025-07-17T06:01:07Z</time>
      </trkpt>
      <trkpt lat="42.621374800801277" lon="1.386554203927517">
        <ele>1863.3399999999999</ele>
        <time>2025-07-17T06:01:20Z</time>
      </trkpt>
      <trkpt lat="42.621311936527491" lon="1.386650428175926">
        <ele>1864.5799999999999</ele>
        <time>2025-07-17T06:01:35Z</time>
      </trkpt>
      <trkpt lat="42.621245048940182" lon="1.386758303269744">
        <ele>1865.5799999999999</ele>
        <time>2025-07-17T06:01:48Z</time>
      </trkpt>
      <trkpt lat="42.621186040341854" lon="1.386869950219989">
        <ele>1866.6199999999999</ele>
        <time>2025-07-17T06:02:01Z</time>
      </trkpt>
      <trkpt lat="42.621130971238017" lon="1.386979417875409">
        <ele>1867.4300000000001</ele>
        <time>2025-07-17T06:02:12Z</time>
      </trkpt>
      <trkpt lat="42.621050588786602" lon="1.387047478929162">
        <ele>1868.6199999999999</ele>
        <time>2025-07-17T06:02:24Z</time>
      </trkpt>
      <trkpt lat="42.620970709249377" lon="1.387125682085753">
        <ele>1869.0899999999999</ele>
        <time>2025-07-17T06:02:36Z</time>
      </trkpt>
      <trkpt lat="42.620885297656059" lon="1.387210171669722">
        <ele>1869.8699999999999</ele>
        <time>2025-07-17T06:02:48Z</time>
      </trkpt>
      <trkpt lat="42.620803993195295" lon="1.387295499444008">
        <ele>1870.8299999999999</ele>
        <time>2025-07-17T06:03:00Z</time>
      </trkpt>
      <trkpt lat="42.620700057595968" lon="1.387412929907441">
        <ele>1871.99</ele>
        <time>2025-07-17T06:03:13Z</time>
      </trkpt>
      <trkpt lat="42.620617495849729" lon="1.387480655685067">
        <ele>1872.8399999999999</ele>
        <time>2025-07-17T06:03:25Z</time>
      </trkpt>
      <trkpt lat="42.620512638241053" lon="1.387503622099757">
        <ele>1874.05</ele>
        <time>2025-07-17T06:03:43Z</time>
      </trkpt>
      <trkpt lat="42.620401410385966" lon="1.387506891041994">
        <ele>1874.95</ele>
        <time>2025-07-17T06:03:57Z</time>
      </trkpt>
      <trkpt lat="42.620295463129878" lon="1.387507561594248">
        <ele>1875.96</ele>
        <time>2025-07-17T06:04:09Z</time>
      </trkpt>
      <trkpt lat="42.620195969939232" lon="1.387494318187237">
        <ele>1876.6500000000001</ele>
        <time>2025-07-17T06:04:20Z</time>
      </trkpt>
      <trkpt lat="42.620105277746916" lon="1.38745391741395">
        <ele>1877.1900000000001</ele>
        <time>2025-07-17T06:04:43Z</time>
      </trkpt>
      <trkpt lat="42.620012406259775" lon="1.387428352609277">
        <ele>1878.3800000000001</ele>
        <time>2025-07-17T06:04:54Z</time>
      </trkpt>
      <trkpt lat="42.619935795664787" lon="1.38736205175519">
        <ele>1879.3099999999999</ele>
        <time>2025-07-17T06:05:05Z</time>
      </trkpt>
      <trkpt lat="42.61985239572823" lon="1.387318717315793">
        <ele>1879.79</ele>
        <time>2025-07-17T06:05:22Z</time>
      </trkpt>
      <trkpt lat="42.619765978306532" lon="1.387268509715796">
        <ele>1880.7</ele>
        <time>2025-07-17T06:05:32Z</time>
      </trkpt>
      <trkpt lat="42.61967645958066" lon="1.387241771444678">
        <ele>1881.9000000000001</ele>
        <time>2025-07-17T06:05:43Z</time>
      </trkpt>
      <trkpt lat="42.6195845939219" lon="1.387224420905113">
        <ele>1882.9100000000001</ele>
        <time>2025-07-17T06:05:54Z</time>
      </trkpt>
      <trkpt lat="42.619492141529918" lon="1.387197514995933">
        <ele>1883.8800000000001</ele>
        <time>2025-07-17T06:06:05Z</time>
      </trkpt>
      <trkpt lat="42.619400443509221" lon="1.387197347357869">
        <ele>1884.54</ele>
        <time>2025-07-17T06:06:16Z</time>
      </trkpt>
      <trkpt lat="42.619318468496203" lon="1.387258870527148">
        <ele>1885.3599999999999</ele>
        <time>2025-07-17T06:06:27Z</time>
      </trkpt>
      <trkpt lat="42.619234649464488" lon="1.387323578819633">
        <ele>1886.72</ele>
        <time>2025-07-17T06:06:39Z</time>
      </trkpt>
      <trkpt lat="42.619141945615411" lon="1.387376636266708">
        <ele>1887.54</ele>
        <time>2025-07-17T06:06:52Z</time>
      </trkpt>
      <trkpt lat="42.619053348898888" lon="1.387457270175219">
        <ele>1888.6400000000001</ele>
        <time>2025-07-17T06:07:05Z</time>
      </trkpt>
      <trkpt lat="42.618979001417756" lon="1.387545028701425">
        <ele>1889.47</ele>
        <time>2025-07-17T06:07:17Z</time>
      </trkpt>
      <trkpt lat="42.618917059153318" lon="1.387647790834308">
        <ele>1890.3599999999999</ele>
        <time>2025-07-17T06:07:28Z</time>
      </trkpt>
      <trkpt lat="42.618858888745308" lon="1.387742925435305">
        <ele>1890.9300000000001</ele>
        <time>2025-07-17T06:07:38Z</time>
      </trkpt>
      <trkpt lat="42.61878521181643" lon="1.387830851599574">
        <ele>1892</ele>
        <time>2025-07-17T06:07:49Z</time>
      </trkpt>
      <trkpt lat="42.618718659505248" lon="1.387927662581205">
        <ele>1892.49</ele>
        <time>2025-07-17T06:08:00Z</time>
      </trkpt>
      <trkpt lat="42.618654370307922" lon="1.388012822717428">
        <ele>1893.3599999999999</ele>
        <time>2025-07-17T06:08:11Z</time>
      </trkpt>
      <trkpt lat="42.618575496599078" lon="1.388066969811916">
        <ele>1893.98</ele>
        <time>2025-07-17T06:08:22Z</time>
      </trkpt>
      <trkpt lat="42.618485977873206" lon="1.38811256736517">
        <ele>1894.0899999999999</ele>
        <time>2025-07-17T06:08:34Z</time>
      </trkpt>
      <trkpt lat="42.618394531309605" lon="1.388157829642296">
        <ele>1893.03</ele>
        <time>2025-07-17T06:08:45Z</time>
      </trkpt>
      <trkpt lat="42.618304342031479" lon="1.38818833976984">
        <ele>1891.3599999999999</ele>
        <time>2025-07-17T06:08:56Z</time>
      </trkpt>
      <trkpt lat="42.618219181895256" lon="1.38825036585331">
        <ele>1890.7</ele>
        <time>2025-07-17T06:09:06Z</time>
      </trkpt>
      <trkpt lat="42.618131758645177" lon="1.388292359188199">
        <ele>1890.9400000000001</ele>
        <time>2025-07-17T06:09:17Z</time>
      </trkpt>
      <trkpt lat="42.618038551881909" lon="1.388315912336111">
        <ele>1892.4400000000001</ele>
        <time>2025-07-17T06:09:31Z</time>
      </trkpt>
      <trkpt lat="42.617949955165386" lon="1.388339884579182">
        <ele>1893.1700000000001</ele>
        <time>2025-07-17T06:09:43Z</time>
      </trkpt>
      <trkpt lat="42.617859514430165" lon="1.38838623650372">
        <ele>1892.53</ele>
        <time>2025-07-17T06:09:54Z</time>
      </trkpt>
      <trkpt lat="42.617780389264226" lon="1.38845513574779">
        <ele>1893.98</ele>
        <time>2025-07-17T06:10:07Z</time>
      </trkpt>
      <trkpt lat="42.617704700678587" lon="1.38852059841156">
        <ele>1894.71</ele>
        <time>2025-07-17T06:10:22Z</time>
      </trkpt>
      <trkpt lat="42.617622306570411" lon="1.388582373037934">
        <ele>1895.8599999999999</ele>
        <time>2025-07-17T06:10:39Z</time>
      </trkpt>
      <trkpt lat="42.617552988231182" lon="1.388660240918398">
        <ele>1897.1900000000001</ele>
        <time>2025-07-17T06:11:01Z</time>
      </trkpt>
      <trkpt lat="42.6175123360008" lon="1.388765517622232">
        <ele>1897.8299999999999</ele>
        <time>2025-07-17T06:11:16Z</time>
      </trkpt>
      <trkpt lat="42.61746640317142" lon="1.388874230906367">
        <ele>1898.8199999999999</ele>
        <time>2025-07-17T06:11:30Z</time>
      </trkpt>
      <trkpt lat="42.61739800684154" lon="1.388948913663626">
        <ele>1900.3699999999999</ele>
        <time>2025-07-17T06:11:45Z</time>
      </trkpt>
      <trkpt lat="42.617336818948388" lon="1.389017645269632">
        <ele>1900.48</ele>
        <time>2025-07-17T06:11:59Z</time>
      </trkpt>
      <trkpt lat="42.617259286344051" lon="1.38908595778048">
        <ele>1900.8399999999999</ele>
        <time>2025-07-17T06:12:12Z</time>
      </trkpt>
      <trkpt lat="42.617192650213838" lon="1.389162065461278">
        <ele>1901.5599999999999</ele>
        <time>2025-07-17T06:12:25Z</time>
      </trkpt>
      <trkpt lat="42.617120984941721" lon="1.389228198677301">
        <ele>1903.8900000000001</ele>
        <time>2025-07-17T06:12:47Z</time>
      </trkpt>
      <trkpt lat="42.61706767603755" lon="1.38932048343122">
        <ele>1904.8499999999999</ele>
        <time>2025-07-17T06:13:04Z</time>
      </trkpt>
      <trkpt lat="42.617011182010174" lon="1.389413354918361">
        <ele>1906.3900000000001</ele>
        <time>2025-07-17T06:13:23Z</time>
      </trkpt>
      <trkpt lat="42.616942366585135" lon="1.389495162293315">
        <ele>1908.5</ele>
        <time>2025-07-17T06:13:41Z</time>
      </trkpt>
      <trkpt lat="42.616894003003836" lon="1.389606138691306">
        <ele>1908.96</ele>
        <time>2025-07-17T06:13:57Z</time>
      </trkpt>
      <trkpt lat="42.61683801189065" lon="1.389700435101986">
        <ele>1910.3699999999999</ele>
        <time>2025-07-17T06:14:13Z</time>
      </trkpt>
      <trkpt lat="42.6167749799788" lon="1.389785930514336">
        <ele>1912.4300000000001</ele>
        <time>2025-07-17T06:14:33Z</time>
      </trkpt>
      <trkpt lat="42.616693088784814" lon="1.389854662120342">
        <ele>1914.3800000000001</ele>
        <time>2025-07-17T06:14:53Z</time>
      </trkpt>
      <trkpt lat="42.616614634171128" lon="1.389875030145049">
        <ele>1915.6900000000001</ele>
        <time>2025-07-17T06:16:15Z</time>
      </trkpt>
      <trkpt lat="42.616583285853267" lon="1.389948790892959">
        <ele>1916.54</ele>
        <time>2025-07-17T06:17:06Z</time>
      </trkpt>
      <trkpt lat="42.616509525105357" lon="1.389989610761404">
        <ele>1918.4200000000001</ele>
        <time>2025-07-17T06:17:18Z</time>
      </trkpt>
      <trkpt lat="42.616433333605528" lon="1.390032442286611">
        <ele>1919.9000000000001</ele>
        <time>2025-07-17T06:17:32Z</time>
      </trkpt>
      <trkpt lat="42.616349095478654" lon="1.39003780670464">
        <ele>1923.0999999999999</ele>
        <time>2025-07-17T06:17:51Z</time>
      </trkpt>
      <trkpt lat="42.616266617551446" lon="1.390071418136358">
        <ele>1925.8900000000001</ele>
        <time>2025-07-17T06:18:09Z</time>
      </trkpt>
      <trkpt lat="42.616173662245274" lon="1.390083571895957">
        <ele>1927.8199999999999</ele>
        <time>2025-07-17T06:18:30Z</time>
      </trkpt>
      <trkpt lat="42.616082467138767" lon="1.390087008476257">
        <ele>1929.6600000000001</ele>
        <time>2025-07-17T06:18:47Z</time>
      </trkpt>
      <trkpt lat="42.615994457155466" lon="1.390105532482266">
        <ele>1932.1700000000001</ele>
        <time>2025-07-17T06:19:07Z</time>
      </trkpt>
      <trkpt lat="42.615923630073667" lon="1.390184573829174">
        <ele>1933.96</ele>
        <time>2025-07-17T06:19:25Z</time>
      </trkpt>
      <trkpt lat="42.615856323391199" lon="1.39025816693902">
        <ele>1936.1500000000001</ele>
        <time>2025-07-17T06:19:40Z</time>
      </trkpt>
      <trkpt lat="42.615780299529433" lon="1.390291610732675">
        <ele>1939.0699999999999</ele>
        <time>2025-07-17T06:20:02Z</time>
      </trkpt>
      <trkpt lat="42.615701174363494" lon="1.390344584360719">
        <ele>1941.75</ele>
        <time>2025-07-17T06:20:22Z</time>
      </trkpt>
      <trkpt lat="42.615603525191545" lon="1.39039839617908">
        <ele>1943.23</ele>
        <time>2025-07-17T06:21:10Z</time>
      </trkpt>
      <trkpt lat="42.615537140518427" lon="1.390391858294606">
        <ele>1945.47</ele>
        <time>2025-07-17T06:22:45Z</time>
      </trkpt>
      <trkpt lat="42.615461619570851" lon="1.390399402007461">
        <ele>1948.76</ele>
        <time>2025-07-17T06:23:06Z</time>
      </trkpt>
      <trkpt lat="42.615380231291056" lon="1.390410466119647">
        <ele>1951.74</ele>
        <time>2025-07-17T06:23:29Z</time>
      </trkpt>
      <trkpt lat="42.615291802212596" lon="1.39043309725821">
        <ele>1954.6600000000001</ele>
        <time>2025-07-17T06:23:48Z</time>
      </trkpt>
      <trkpt lat="42.615204378962517" lon="1.390496967360377">
        <ele>1956.3800000000001</ele>
        <time>2025-07-17T06:24:06Z</time>
      </trkpt>
      <trkpt lat="42.615106729790568" lon="1.390542900189757">
        <ele>1959.75</ele>
        <time>2025-07-17T06:24:31Z</time>
      </trkpt>
      <trkpt lat="42.615020563825965" lon="1.390550108626485">
        <ele>1962.9100000000001</ele>
        <time>2025-07-17T06:24:54Z</time>
      </trkpt>
      <trkpt lat="42.614952251315117" lon="1.39057332649827">
        <ele>1966.1900000000001</ele>
        <time>2025-07-17T06:25:19Z</time>
      </trkpt>
      <trkpt lat="42.614884776994586" lon="1.39069402590394">
        <ele>1967.75</ele>
        <time>2025-07-17T06:25:37Z</time>
      </trkpt>
      <trkpt lat="42.614806825295091" lon="1.390780359506607">
        <ele>1970.8699999999999</ele>
        <time>2025-07-17T06:25:59Z</time>
      </trkpt>
      <trkpt lat="42.614728203043342" lon="1.3907858915627">
        <ele>1973.73</ele>
        <time>2025-07-17T06:26:30Z</time>
      </trkpt>
      <trkpt lat="42.614642456173897" lon="1.390786981210113">
        <ele>1976.75</ele>
        <time>2025-07-17T06:26:54Z</time>
      </trkpt>
      <trkpt lat="42.61459669098258" lon="1.390876332297921">
        <ele>1978.05</ele>
        <time>2025-07-17T06:27:11Z</time>
      </trkpt>
      <trkpt lat="42.614555116742849" lon="1.390995858237147">
        <ele>1979.45</ele>
        <time>2025-07-17T06:27:26Z</time>
      </trkpt>
      <trkpt lat="42.614519996568561" lon="1.391120329499245">
        <ele>1980.1400000000001</ele>
        <time>2025-07-17T06:27:38Z</time>
      </trkpt>
      <trkpt lat="42.614466268569231" lon="1.39120708219707">
        <ele>1981.4300000000001</ele>
        <time>2025-07-17T06:27:53Z</time>
      </trkpt>
      <trkpt lat="42.614388652145863" lon="1.391247482970357">
        <ele>1983.8900000000001</ele>
        <time>2025-07-17T06:28:12Z</time>
      </trkpt>
      <trkpt lat="42.614329727366567" lon="1.391348401084542">
        <ele>1984.6300000000001</ele>
        <time>2025-07-17T06:28:27Z</time>
      </trkpt>
      <trkpt lat="42.614272898063064" lon="1.391452504321933">
        <ele>1985.8199999999999</ele>
        <time>2025-07-17T06:28:41Z</time>
      </trkpt>
      <trkpt lat="42.61420919559896" lon="1.391541101038456">
        <ele>1987.3599999999999</ele>
        <time>2025-07-17T06:28:56Z</time>
      </trkpt>
      <trkpt lat="42.61413199827075" lon="1.391627518460155">
        <ele>1989.26</ele>
        <time>2025-07-17T06:29:16Z</time>
      </trkpt>
      <trkpt lat="42.614047257229686" lon="1.391724329441786">
        <ele>1992.1700000000001</ele>
        <time>2025-07-17T06:29:41Z</time>
      </trkpt>
      <trkpt lat="42.613966539502144" lon="1.391815776005387">
        <ele>1995.0899999999999</ele>
        <time>2025-07-17T06:30:02Z</time>
      </trkpt>
      <trkpt lat="42.613881379365921" lon="1.391889452934265">
        <ele>1998.0599999999999</ele>
        <time>2025-07-17T06:30:27Z</time>
      </trkpt>
      <trkpt lat="42.613797225058079" lon="1.391939911991358">
        <ele>1999.0799999999999</ele>
        <time>2025-07-17T06:31:03Z</time>
      </trkpt>
      <trkpt lat="42.613710388541222" lon="1.391985677182674">
        <ele>2001.55</ele>
        <time>2025-07-17T06:31:20Z</time>
      </trkpt>
      <trkpt lat="42.613634197041392" lon="1.391990287229419">
        <ele>2003.45</ele>
        <time>2025-07-17T06:31:39Z</time>
      </trkpt>
      <trkpt lat="42.613558927550912" lon="1.39206949621439">
        <ele>2004.4400000000001</ele>
        <time>2025-07-17T06:31:54Z</time>
      </trkpt>
      <trkpt lat="42.613458093255758" lon="1.392161780968308">
        <ele>2006.28</ele>
        <time>2025-07-17T06:32:12Z</time>
      </trkpt>
      <trkpt lat="42.613361282274127" lon="1.39215792529285">
        <ele>2008.4400000000001</ele>
        <time>2025-07-17T06:32:33Z</time>
      </trkpt>
      <trkpt lat="42.613262375816703" lon="1.392197823151946">
        <ele>2010.3099999999999</ele>
        <time>2025-07-17T06:32:53Z</time>
      </trkpt>
      <trkpt lat="42.613167325034738" lon="1.392225567251444">
        <ele>2012.45</ele>
        <time>2025-07-17T06:33:12Z</time>
      </trkpt>
      <trkpt lat="42.613065149635077" lon="1.392220538109541">
        <ele>2014.3800000000001</ele>
        <time>2025-07-17T06:33:30Z</time>
      </trkpt>
      <trkpt lat="42.612983509898186" lon="1.392276529222727">
        <ele>2014.8800000000001</ele>
        <time>2025-07-17T06:33:44Z</time>
      </trkpt>
      <trkpt lat="42.612933553755283" lon="1.392390858381987">
        <ele>2015.4200000000001</ele>
        <time>2025-07-17T06:33:57Z</time>
      </trkpt>
      <trkpt lat="42.612893488258123" lon="1.392510049045086">
        <ele>2015.6900000000001</ele>
        <time>2025-07-17T06:34:08Z</time>
      </trkpt>
      <trkpt lat="42.612873706966639" lon="1.392641142010689">
        <ele>2016.4400000000001</ele>
        <time>2025-07-17T06:34:22Z</time>
      </trkpt>
      <trkpt lat="42.612843867391348" lon="1.39276578091085">
        <ele>2016.74</ele>
        <time>2025-07-17T06:34:32Z</time>
      </trkpt>
      <trkpt lat="42.612799191847444" lon="1.392881199717522">
        <ele>2017.04</ele>
        <time>2025-07-17T06:34:42Z</time>
      </trkpt>
      <trkpt lat="42.612750995904207" lon="1.392999300733209">
        <ele>2016.6199999999999</ele>
        <time>2025-07-17T06:34:51Z</time>
      </trkpt>
      <trkpt lat="42.612686539068818" lon="1.393094016239047">
        <ele>2016.72</ele>
        <time>2025-07-17T06:34:59Z</time>
      </trkpt>
      <trkpt lat="42.612635996192694" lon="1.393197784200311">
        <ele>2016.53</ele>
        <time>2025-07-17T06:35:07Z</time>
      </trkpt>
      <trkpt lat="42.612582184374332" lon="1.393301300704479">
        <ele>2016.3199999999999</ele>
        <time>2025-07-17T06:35:16Z</time>
      </trkpt>
      <trkpt lat="42.612530048936605" lon="1.393413534387946">
        <ele>2015.9400000000001</ele>
        <time>2025-07-17T06:35:25Z</time>
      </trkpt>
      <trkpt lat="42.612486127763987" lon="1.393529372289777">
        <ele>2016.0599999999999</ele>
        <time>2025-07-17T06:35:34Z</time>
      </trkpt>
      <trkpt lat="42.612445224076509" lon="1.393654095008969">
        <ele>2016.51</ele>
        <time>2025-07-17T06:35:47Z</time>
      </trkpt>
      <trkpt lat="42.61240666732192" lon="1.393779991194606">
        <ele>2017.03</ele>
        <time>2025-07-17T06:35:59Z</time>
      </trkpt>
      <trkpt lat="42.612412367016077" lon="1.393915358930826">
        <ele>2016.3199999999999</ele>
        <time>2025-07-17T06:36:09Z</time>
      </trkpt>
      <trkpt lat="42.612414546310902" lon="1.394060365855694">
        <ele>2016.6300000000001</ele>
        <time>2025-07-17T06:36:20Z</time>
      </trkpt>
      <trkpt lat="42.612357549369335" lon="1.3941515609622">
        <ele>2017.3599999999999</ele>
        <time>2025-07-17T06:36:31Z</time>
      </trkpt>
      <trkpt lat="42.612263923510909" lon="1.39420285820961">
        <ele>2017.75</ele>
        <time>2025-07-17T06:36:44Z</time>
      </trkpt>
      <trkpt lat="42.61220877058804" lon="1.394316265359521">
        <ele>2017.8699999999999</ele>
        <time>2025-07-17T06:36:56Z</time>
      </trkpt>
      <trkpt lat="42.612188318744302" lon="1.394456075504422">
        <ele>2018.26</ele>
        <time>2025-07-17T06:37:05Z</time>
      </trkpt>
      <trkpt lat="42.612182786688209" lon="1.394596053287387">
        <ele>2018.22</ele>
        <time>2025-07-17T06:37:14Z</time>
      </trkpt>
      <trkpt lat="42.612156216055155" lon="1.394721614196897">
        <ele>2018.27</ele>
        <time>2025-07-17T06:37:23Z</time>
      </trkpt>
      <trkpt lat="42.612165184691548" lon="1.394862346351147">
        <ele>2018.03</ele>
        <time>2025-07-17T06:37:33Z</time>
      </trkpt>
      <trkpt lat="42.612192761152983" lon="1.394995953887701">
        <ele>2018.0799999999999</ele>
        <time>2025-07-17T06:37:42Z</time>
      </trkpt>
      <trkpt lat="42.612174740061164" lon="1.395107349380851">
        <ele>2018</ele>
        <time>2025-07-17T06:38:02Z</time>
      </trkpt>
      <trkpt lat="42.61211640201509" lon="1.395214218646288">
        <ele>2017.9300000000001</ele>
        <time>2025-07-17T06:38:14Z</time>
      </trkpt>
      <trkpt lat="42.612104332074523" lon="1.395352352410555">
        <ele>2017.96</ele>
        <time>2025-07-17T06:38:24Z</time>
      </trkpt>
      <trkpt lat="42.612094776704907" lon="1.395472884178162">
        <ele>2017.76</ele>
        <time>2025-07-17T06:38:32Z</time>
      </trkpt>
      <trkpt lat="42.612060075625777" lon="1.395591991022229">
        <ele>2017.1400000000001</ele>
        <time>2025-07-17T06:38:41Z</time>
      </trkpt>
      <trkpt lat="42.612028727307916" lon="1.395717300474644">
        <ele>2016.6700000000001</ele>
        <time>2025-07-17T06:38:50Z</time>
      </trkpt>
      <trkpt lat="42.611943231895566" lon="1.395763484761119">
        <ele>2016.5799999999999</ele>
        <time>2025-07-17T06:39:00Z</time>
      </trkpt>
      <trkpt lat="42.611941639333963" lon="1.395889967679977">
        <ele>2016.6500000000001</ele>
        <time>2025-07-17T06:39:15Z</time>
      </trkpt>
      <trkpt lat="42.611905597150326" lon="1.39601812697947">
        <ele>2016.9000000000001</ele>
        <time>2025-07-17T06:39:36Z</time>
      </trkpt>
      <trkpt lat="42.61189210228622" lon="1.39613438397646">
        <ele>2016.3599999999999</ele>
        <time>2025-07-17T06:40:05Z</time>
      </trkpt>
      <trkpt lat="42.611912973225117" lon="1.396275199949741">
        <ele>2014.8800000000001</ele>
        <time>2025-07-17T06:40:27Z</time>
      </trkpt>
      <trkpt lat="42.611884642392397" lon="1.396376453340054">
        <ele>2014.77</ele>
        <time>2025-07-17T06:40:39Z</time>
      </trkpt>
      <trkpt lat="42.611820520833135" lon="1.396450884640217">
        <ele>2015.9200000000001</ele>
        <time>2025-07-17T06:40:52Z</time>
      </trkpt>
      <trkpt lat="42.611731002107263" lon="1.39647007919848">
        <ele>2016.3800000000001</ele>
        <time>2025-07-17T06:41:06Z</time>
      </trkpt>
      <trkpt lat="42.611654307693243" lon="1.396543672308326">
        <ele>2016.26</ele>
        <time>2025-07-17T06:41:21Z</time>
      </trkpt>
      <trkpt lat="42.611557748168707" lon="1.396568985655904">
        <ele>2017.3499999999999</ele>
        <time>2025-07-17T06:41:45Z</time>
      </trkpt>
      <trkpt lat="42.611522292718291" lon="1.396689852699637">
        <ele>2016.8399999999999</ele>
        <time>2025-07-17T06:42:04Z</time>
      </trkpt>
      <trkpt lat="42.611501840874553" lon="1.396789262071252">
        <ele>2015.9100000000001</ele>
        <time>2025-07-17T06:42:19Z</time>
      </trkpt>
      <trkpt lat="42.611417602747679" lon="1.396837877109647">
        <ele>2017.1300000000001</ele>
        <time>2025-07-17T06:42:35Z</time>
      </trkpt>
      <trkpt lat="42.611352391541004" lon="1.396936615929008">
        <ele>2017.4000000000001</ele>
        <time>2025-07-17T06:42:50Z</time>
      </trkpt>
      <trkpt lat="42.61134778149426" lon="1.397052286192775">
        <ele>2016.4400000000001</ele>
        <time>2025-07-17T06:43:20Z</time>
      </trkpt>
      <trkpt lat="42.611349206417799" lon="1.397178936749697">
        <ele>2016.54</ele>
        <time>2025-07-17T06:43:37Z</time>
      </trkpt>
      <trkpt lat="42.611321629956365" lon="1.397297373041511">
        <ele>2016.8199999999999</ele>
        <time>2025-07-17T06:43:48Z</time>
      </trkpt>
      <trkpt lat="42.611321294680238" lon="1.397430477663875">
        <ele>2017.4300000000001</ele>
        <time>2025-07-17T06:43:59Z</time>
      </trkpt>
      <trkpt lat="42.611345266923308" lon="1.397552853450179">
        <ele>2017.7</ele>
        <time>2025-07-17T06:44:13Z</time>
      </trkpt>
      <trkpt lat="42.611355073750019" lon="1.397676318883896">
        <ele>2018.0699999999999</ele>
        <time>2025-07-17T06:44:31Z</time>
      </trkpt>
      <trkpt lat="42.611408634111285" lon="1.397759383544326">
        <ele>2018.8099999999999</ele>
        <time>2025-07-17T06:44:44Z</time>
      </trkpt>
      <trkpt lat="42.611486418172717" lon="1.397810094058514">
        <ele>2019.4400000000001</ele>
        <time>2025-07-17T06:45:00Z</time>
      </trkpt>
      <trkpt lat="42.611558418720961" lon="1.397893242537975">
        <ele>2021.6400000000001</ele>
        <time>2025-07-17T06:45:18Z</time>
      </trkpt>
      <trkpt lat="42.611567387357354" lon="1.398025844246149">
        <ele>2023.78</ele>
        <time>2025-07-17T06:46:04Z</time>
      </trkpt>
      <trkpt lat="42.611564621329308" lon="1.398159200325608">
        <ele>2025.45</ele>
        <time>2025-07-17T06:46:18Z</time>
      </trkpt>
      <trkpt lat="42.611547019332647" lon="1.398303871974349">
        <ele>2026.3099999999999</ele>
        <time>2025-07-17T06:46:31Z</time>
      </trkpt>
      <trkpt lat="42.611518939957023" lon="1.398436725139618">
        <ele>2027.8</ele>
        <time>2025-07-17T06:46:46Z</time>
      </trkpt>
      <trkpt lat="42.611503098160028" lon="1.398559687659144">
        <ele>2030.3099999999999</ele>
        <time>2025-07-17T06:47:13Z</time>
      </trkpt>
      <trkpt lat="42.611486334353685" lon="1.398684158921242">
        <ele>2033.3900000000001</ele>
        <time>2025-07-17T06:47:38Z</time>
      </trkpt>
      <trkpt lat="42.611528746783733" lon="1.3988072052598">
        <ele>2035.8199999999999</ele>
        <time>2025-07-17T06:48:03Z</time>
      </trkpt>
      <trkpt lat="42.611524304375052" lon="1.398933604359627">
        <ele>2037.51</ele>
        <time>2025-07-17T06:48:21Z</time>
      </trkpt>
      <trkpt lat="42.611524388194084" lon="1.399066541343927">
        <ele>2038.1700000000001</ele>
        <time>2025-07-17T06:48:37Z</time>
      </trkpt>
      <trkpt lat="42.611542660742998" lon="1.399194365367293">
        <ele>2038.6199999999999</ele>
        <time>2025-07-17T06:48:51Z</time>
      </trkpt>
      <trkpt lat="42.611585492268205" lon="1.399331241846085">
        <ele>2039.3499999999999</ele>
        <time>2025-07-17T06:49:09Z</time>
      </trkpt>
      <trkpt lat="42.611594293266535" lon="1.399482367560267">
        <ele>2039.5</ele>
        <time>2025-07-17T06:49:24Z</time>
      </trkpt>
      <trkpt lat="42.611576523631811" lon="1.399611029773951">
        <ele>2040.76</ele>
        <time>2025-07-17T06:49:42Z</time>
      </trkpt>
      <trkpt lat="42.611578786745667" lon="1.399768106639385">
        <ele>2042.73</ele>
        <time>2025-07-17T06:50:01Z</time>
      </trkpt>
      <trkpt lat="42.611525729298592" lon="1.399875311180949">
        <ele>2044.6800000000001</ele>
        <time>2025-07-17T06:50:23Z</time>
      </trkpt>
      <trkpt lat="42.611615583300591" lon="1.399968015030026">
        <ele>2045.8699999999999</ele>
        <time>2025-07-17T06:50:45Z</time>
      </trkpt>
      <trkpt lat="42.611725302413106" lon="1.400049822404981">
        <ele>2045.8499999999999</ele>
        <time>2025-07-17T06:50:59Z</time>
      </trkpt>
      <trkpt lat="42.611810211092234" lon="1.400120398029685">
        <ele>2044.96</ele>
        <time>2025-07-17T06:51:14Z</time>
      </trkpt>
      <trkpt lat="42.611919343471527" lon="1.400137413293123">
        <ele>2044.0599999999999</ele>
        <time>2025-07-17T06:51:30Z</time>
      </trkpt>
      <trkpt lat="42.611998049542308" lon="1.400121068581939">
        <ele>2043.9000000000001</ele>
        <time>2025-07-17T06:51:45Z</time>
      </trkpt>
      <trkpt lat="42.612046245485544" lon="1.400215281173587">
        <ele>2044.97</ele>
        <time>2025-07-17T06:51:59Z</time>
      </trkpt>
      <trkpt lat="42.612049262970686" lon="1.400340674445033">
        <ele>2048.0999999999999</ele>
        <time>2025-07-17T06:52:26Z</time>
      </trkpt>
      <trkpt lat="42.612084383144975" lon="1.400497416034341">
        <ele>2049.1799999999998</ele>
        <time>2025-07-17T06:52:43Z</time>
      </trkpt>
      <trkpt lat="42.612089244648814" lon="1.400610990822315">
        <ele>2051.4299999999998</ele>
        <time>2025-07-17T06:53:03Z</time>
      </trkpt>
      <trkpt lat="42.612108774483204" lon="1.400748454034329">
        <ele>2053.3899999999999</ele>
        <time>2025-07-17T06:53:22Z</time>
      </trkpt>
      <trkpt lat="42.612102068960667" lon="1.40085649676621">
        <ele>2055.96</ele>
        <time>2025-07-17T06:53:47Z</time>
      </trkpt>
      <trkpt lat="42.61212226934731" lon="1.400971915572882">
        <ele>2059.2600000000002</ele>
        <time>2025-07-17T06:54:11Z</time>
      </trkpt>
      <trkpt lat="42.612102152779698" lon="1.400964455679059">
        <ele>2059.9499999999998</ele>
        <time>2025-07-17T06:54:19Z</time>
      </trkpt>
      <trkpt lat="42.61206217110157" lon="1.401044754311442">
        <ele>2062.1999999999998</ele>
        <time>2025-07-17T06:54:38Z</time>
      </trkpt>
      <trkpt lat="42.612086981534958" lon="1.401123125106096">
        <ele>2064.5900000000001</ele>
        <time>2025-07-17T06:54:57Z</time>
      </trkpt>
      <trkpt lat="42.612116066738963" lon="1.401246171444655">
        <ele>2065.4499999999998</ele>
        <time>2025-07-17T06:55:16Z</time>
      </trkpt>
      <trkpt lat="42.612130902707577" lon="1.401383886113763">
        <ele>2067.0900000000001</ele>
        <time>2025-07-17T06:55:32Z</time>
      </trkpt>
      <trkpt lat="42.612121934071183" lon="1.40151422470808">
        <ele>2068.6300000000001</ele>
        <time>2025-07-17T06:55:50Z</time>
      </trkpt>
      <trkpt lat="42.612138614058495" lon="1.401645904406905">
        <ele>2069.6100000000001</ele>
        <time>2025-07-17T06:56:08Z</time>
      </trkpt>
      <trkpt lat="42.612143475562334" lon="1.401765514165163">
        <ele>2070.0500000000002</ele>
        <time>2025-07-17T06:56:26Z</time>
      </trkpt>
      <trkpt lat="42.612165017053485" lon="1.401883028447628">
        <ele>2069.46</ele>
        <time>2025-07-17T06:56:36Z</time>
      </trkpt>
      <trkpt lat="42.612187983468175" lon="1.402000710368156">
        <ele>2070.02</ele>
        <time>2025-07-17T06:56:50Z</time>
      </trkpt>
      <trkpt lat="42.612147331237793" lon="1.402123672887683">
        <ele>2068.54</ele>
        <time>2025-07-17T06:57:02Z</time>
      </trkpt>
      <trkpt lat="42.612103745341301" lon="1.402277899906039">
        <ele>2069.4299999999998</ele>
        <time>2025-07-17T06:57:17Z</time>
      </trkpt>
      <trkpt lat="42.612073570489883" lon="1.402401365339756">
        <ele>2069.5100000000002</ele>
        <time>2025-07-17T06:57:40Z</time>
      </trkpt>
      <trkpt lat="42.612027050927281" lon="1.402531117200851">
        <ele>2069.98</ele>
        <time>2025-07-17T06:57:55Z</time>
      </trkpt>
      <trkpt lat="42.612001653760672" lon="1.402642345055938">
        <ele>2070.54</ele>
        <time>2025-07-17T06:58:07Z</time>
      </trkpt>
      <trkpt lat="42.612030236050487" lon="1.402778048068285">
        <ele>2070.0500000000002</ele>
        <time>2025-07-17T06:58:21Z</time>
      </trkpt>
      <trkpt lat="42.612047838047147" lon="1.402898579835892">
        <ele>2070.9200000000001</ele>
        <time>2025-07-17T06:58:35Z</time>
      </trkpt>
      <trkpt lat="42.612028475850821" lon="1.40302749350667">
        <ele>2072.9499999999998</ele>
        <time>2025-07-17T06:59:04Z</time>
      </trkpt>
      <trkpt lat="42.611927138641477" lon="1.403080383315682">
        <ele>2076.2199999999998</ele>
        <time>2025-07-17T06:59:27Z</time>
      </trkpt>
      <trkpt lat="42.611911045387387" lon="1.403183983638883">
        <ele>2079.2600000000002</ele>
        <time>2025-07-17T06:59:48Z</time>
      </trkpt>
      <trkpt lat="42.611953876912594" lon="1.403219355270267">
        <ele>2079.3699999999999</ele>
        <time>2025-07-17T07:00:21Z</time>
      </trkpt>
      <trkpt lat="42.611942980438471" lon="1.403254475444555">
        <ele>2080.1700000000001</ele>
        <time>2025-07-17T07:04:35Z</time>
      </trkpt>
      <trkpt lat="42.611857317388058" lon="1.403323374688625">
        <ele>2080.5900000000001</ele>
        <time>2025-07-17T07:04:48Z</time>
      </trkpt>
      <trkpt lat="42.611811216920614" lon="1.403433764353395">
        <ele>2081.79</ele>
        <time>2025-07-17T07:05:01Z</time>
      </trkpt>
      <trkpt lat="42.611816748976707" lon="1.403562175109983">
        <ele>2082.48</ele>
        <time>2025-07-17T07:05:13Z</time>
      </trkpt>
      <trkpt lat="42.611791016533971" lon="1.403677342459559">
        <ele>2083.9099999999999</ele>
        <time>2025-07-17T07:05:28Z</time>
      </trkpt>
      <trkpt lat="42.611740473657846" lon="1.403794689103961">
        <ele>2085.4200000000001</ele>
        <time>2025-07-17T07:05:44Z</time>
      </trkpt>
      <trkpt lat="42.611693032085896" lon="1.403907844796777">
        <ele>2086.8699999999999</ele>
        <time>2025-07-17T07:06:00Z</time>
      </trkpt>
      <trkpt lat="42.611609464511275" lon="1.403995016589761">
        <ele>2088.0799999999999</ele>
        <time>2025-07-17T07:06:18Z</time>
      </trkpt>
      <trkpt lat="42.611543331295252" lon="1.404140861704946">
        <ele>2090.1199999999999</ele>
        <time>2025-07-17T07:06:38Z</time>
      </trkpt>
      <trkpt lat="42.61151441372931" lon="1.404289808124304">
        <ele>2091.6300000000001</ele>
        <time>2025-07-17T07:06:54Z</time>
      </trkpt>
      <trkpt lat="42.611492453143001" lon="1.40442006289959">
        <ele>2093.4499999999998</ele>
        <time>2025-07-17T07:07:14Z</time>
      </trkpt>
      <trkpt lat="42.611425565555692" lon="1.404532296583056">
        <ele>2095.5999999999999</ele>
        <time>2025-07-17T07:07:33Z</time>
      </trkpt>
      <trkpt lat="42.611379297450185" lon="1.404625922441483">
        <ele>2097.9699999999998</ele>
        <time>2025-07-17T07:07:54Z</time>
      </trkpt>
      <trkpt lat="42.611329173669219" lon="1.404710747301579">
        <ele>2100.4000000000001</ele>
        <time>2025-07-17T07:08:15Z</time>
      </trkpt>
      <trkpt lat="42.611304195597768" lon="1.404824154451489">
        <ele>2102.52</ele>
        <time>2025-07-17T07:08:36Z</time>
      </trkpt>
      <trkpt lat="42.611240996047854" lon="1.404888108372688">
        <ele>2105.8899999999999</ele>
        <time>2025-07-17T07:09:02Z</time>
      </trkpt>
      <trkpt lat="42.611175533384085" lon="1.404954576864839">
        <ele>2109.0100000000002</ele>
        <time>2025-07-17T07:09:30Z</time>
      </trkpt>
      <trkpt lat="42.611116524785757" lon="1.405053399503231">
        <ele>2112.79</ele>
        <time>2025-07-17T07:09:58Z</time>
      </trkpt>
      <trkpt lat="42.611083667725325" lon="1.405161777511239">
        <ele>2116.1500000000001</ele>
        <time>2025-07-17T07:10:22Z</time>
      </trkpt>
      <trkpt lat="42.611032454296947" lon="1.405251547694206">
        <ele>2117.3299999999999</ele>
        <time>2025-07-17T07:10:36Z</time>
      </trkpt>
      <trkpt lat="42.61094419285655" lon="1.405311143025756">
        <ele>2117.48</ele>
        <time>2025-07-17T07:10:50Z</time>
      </trkpt>
      <trkpt lat="42.610881580039859" lon="1.405406696721911">
        <ele>2118.2199999999998</ele>
        <time>2025-07-17T07:11:03Z</time>
      </trkpt>
      <trkpt lat="42.610812596976757" lon="1.40549898147583">
        <ele>2119.75</ele>
        <time>2025-07-17T07:11:23Z</time>
      </trkpt>
      <trkpt lat="42.610797006636858" lon="1.405609957873821">
        <ele>2121.8200000000002</ele>
        <time>2025-07-17T07:11:37Z</time>
      </trkpt>
      <trkpt lat="42.610785020515323" lon="1.405703080818057">
        <ele>2122.9899999999998</ele>
        <time>2025-07-17T07:11:52Z</time>
      </trkpt>
      <trkpt lat="42.610678654164076" lon="1.405735267326236">
        <ele>2125.0100000000002</ele>
        <time>2025-07-17T07:12:12Z</time>
      </trkpt>
      <trkpt lat="42.61058502830565" lon="1.405823947861791">
        <ele>2127.5799999999999</ele>
        <time>2025-07-17T07:12:31Z</time>
      </trkpt>
      <trkpt lat="42.610495090484619" lon="1.405886728316546">
        <ele>2129.3299999999999</ele>
        <time>2025-07-17T07:12:52Z</time>
      </trkpt>
      <trkpt lat="42.610426275059581" lon="1.405974654480815">
        <ele>2131.1100000000001</ele>
        <time>2025-07-17T07:13:12Z</time>
      </trkpt>
      <trkpt lat="42.610370116308331" lon="1.40605210326612">
        <ele>2133.3299999999999</ele>
        <time>2025-07-17T07:13:33Z</time>
      </trkpt>
      <trkpt lat="42.610315969213843" lon="1.406094767153263">
        <ele>2137.1300000000001</ele>
        <time>2025-07-17T07:14:01Z</time>
      </trkpt>
      <trkpt lat="42.610249500721693" lon="1.406189566478133">
        <ele>2139.6199999999999</ele>
        <time>2025-07-17T07:14:24Z</time>
      </trkpt>
      <trkpt lat="42.610196946188807" lon="1.40629593282938">
        <ele>2140.0999999999999</ele>
        <time>2025-07-17T07:14:37Z</time>
      </trkpt>
      <trkpt lat="42.610167022794485" lon="1.406408250331879">
        <ele>2140.1199999999999</ele>
        <time>2025-07-17T07:14:47Z</time>
      </trkpt>
      <trkpt lat="42.610114132985473" lon="1.406511012464762">
        <ele>2140.1999999999998</ele>
        <time>2025-07-17T07:14:57Z</time>
      </trkpt>
      <trkpt lat="42.610073480755091" lon="1.406632969155908">
        <ele>2140.4699999999998</ele>
        <time>2025-07-17T07:15:09Z</time>
      </trkpt>
      <trkpt lat="42.610080353915691" lon="1.406766409054399">
        <ele>2141.0300000000002</ele>
        <time>2025-07-17T07:15:20Z</time>
      </trkpt>
      <trkpt lat="42.610037354752421" lon="1.406882917508483">
        <ele>2141</ele>
        <time>2025-07-17T07:15:31Z</time>
      </trkpt>
      <trkpt lat="42.609964683651924" lon="1.406968664377928">
        <ele>2141.3000000000002</ele>
        <time>2025-07-17T07:15:40Z</time>
      </trkpt>
      <trkpt lat="42.609901484102011" lon="1.407065810635686">
        <ele>2141.5999999999999</ele>
        <time>2025-07-17T07:15:50Z</time>
      </trkpt>
      <trkpt lat="42.609911793842912" lon="1.407180391252041">
        <ele>2141.4899999999998</ele>
        <time>2025-07-17T07:16:00Z</time>
      </trkpt>
      <trkpt lat="42.60994540527463" lon="1.407292960211635">
        <ele>2142.4299999999998</ele>
        <time>2025-07-17T07:16:11Z</time>
      </trkpt>
      <trkpt lat="42.60996007360518" lon="1.407412318512797">
        <ele>2142.8099999999999</ele>
        <time>2025-07-17T07:16:21Z</time>
      </trkpt>
      <trkpt lat="42.609955547377467" lon="1.407529832795262">
        <ele>2142.5799999999999</ele>
        <time>2025-07-17T07:16:41Z</time>
      </trkpt>
      <trkpt lat="42.609997289255261" lon="1.40763133764267">
        <ele>2143.2600000000002</ele>
        <time>2025-07-17T07:16:53Z</time>
      </trkpt>
      <trkpt lat="42.610022183507681" lon="1.407749857753515">
        <ele>2143.1500000000001</ele>
        <time>2025-07-17T07:17:04Z</time>
      </trkpt>
      <trkpt lat="42.610042048618197" lon="1.407852284610272">
        <ele>2142.6300000000001</ele>
        <time>2025-07-17T07:17:19Z</time>
      </trkpt>
      <trkpt lat="42.610089741647243" lon="1.407944988459349">
        <ele>2143.6199999999999</ele>
        <time>2025-07-17T07:17:31Z</time>
      </trkpt>
      <trkpt lat="42.61009837500751" lon="1.408075243234634">
        <ele>2144.6500000000001</ele>
        <time>2025-07-17T07:17:42Z</time>
      </trkpt>
      <trkpt lat="42.610106756910682" lon="1.408203234896064">
        <ele>2144.79</ele>
        <time>2025-07-17T07:17:51Z</time>
      </trkpt>
      <trkpt lat="42.610130058601499" lon="1.408326951786876">
        <ele>2144.73</ele>
        <time>2025-07-17T07:18:00Z</time>
      </trkpt>
      <trkpt lat="42.610165765509009" lon="1.408444717526436">
        <ele>2145.3400000000001</ele>
        <time>2025-07-17T07:18:10Z</time>
      </trkpt>
      <trkpt lat="42.610203316435218" lon="1.408556951209903">
        <ele>2144.8600000000001</ele>
        <time>2025-07-17T07:18:23Z</time>
      </trkpt>
      <trkpt lat="42.610283279791474" lon="1.408594753593206">
        <ele>2145.2600000000002</ele>
        <time>2025-07-17T07:18:36Z</time>
      </trkpt>
      <trkpt lat="42.610347317531705" lon="1.408676141873002">
        <ele>2147.1799999999998</ele>
        <time>2025-07-17T07:19:01Z</time>
      </trkpt>
      <trkpt lat="42.610381012782454" lon="1.408777814358473">
        <ele>2149.2600000000002</ele>
        <time>2025-07-17T07:19:21Z</time>
      </trkpt>
      <trkpt lat="42.610443457961082" lon="1.408856185153127">
        <ele>2151.4699999999998</ele>
        <time>2025-07-17T07:19:39Z</time>
      </trkpt>
      <trkpt lat="42.610520403832197" lon="1.408899771049619">
        <ele>2153.4000000000001</ele>
        <time>2025-07-17T07:20:22Z</time>
      </trkpt>
      <trkpt lat="42.610611515119672" lon="1.408932879567146">
        <ele>2155.48</ele>
        <time>2025-07-17T07:20:36Z</time>
      </trkpt>
      <trkpt lat="42.610709331929684" lon="1.408981494605541">
        <ele>2156.8800000000001</ele>
        <time>2025-07-17T07:20:48Z</time>
      </trkpt>
      <trkpt lat="42.610784349963069" lon="1.409052740782499">
        <ele>2157.4000000000001</ele>
        <time>2025-07-17T07:20:59Z</time>
      </trkpt>
      <trkpt lat="42.610858529806137" lon="1.409130357205868">
        <ele>2158.0100000000002</ele>
        <time>2025-07-17T07:21:10Z</time>
      </trkpt>
      <trkpt lat="42.61093195527792" lon="1.409211326390505">
        <ele>2159.27</ele>
        <time>2025-07-17T07:21:22Z</time>
      </trkpt>
      <trkpt lat="42.611000938341022" lon="1.409300426021218">
        <ele>2160.4699999999998</ele>
        <time>2025-07-17T07:21:35Z</time>
      </trkpt>
      <trkpt lat="42.611086266115308" lon="1.409353064373136">
        <ele>2161.79</ele>
        <time>2025-07-17T07:21:50Z</time>
      </trkpt>
      <trkpt lat="42.61116111651063" lon="1.409346358850598">
        <ele>2163.0999999999999</ele>
        <time>2025-07-17T07:22:04Z</time>
      </trkpt>
      <trkpt lat="42.611204786226153" lon="1.409249296411872">
        <ele>2165.4699999999998</ele>
        <time>2025-07-17T07:22:24Z</time>
      </trkpt>
      <trkpt lat="42.611244013532996" lon="1.409138152375817">
        <ele>2167.1199999999999</ele>
        <time>2025-07-17T07:22:42Z</time>
      </trkpt>
      <trkpt lat="42.611336633563042" lon="1.409127004444599">
        <ele>2169.5</ele>
        <time>2025-07-17T07:23:01Z</time>
      </trkpt>
      <trkpt lat="42.61142254807055" lon="1.409168243408203">
        <ele>2169.8600000000001</ele>
        <time>2025-07-17T07:23:13Z</time>
      </trkpt>
      <trkpt lat="42.611492620781064" lon="1.409251978620887">
        <ele>2170.2399999999998</ele>
        <time>2025-07-17T07:23:24Z</time>
      </trkpt>
      <trkpt lat="42.611571159213781" lon="1.409327583387494">
        <ele>2171.2800000000002</ele>
        <time>2025-07-17T07:23:37Z</time>
      </trkpt>
      <trkpt lat="42.611643997952342" lon="1.409410312771797">
        <ele>2172.2800000000002</ele>
        <time>2025-07-17T07:23:50Z</time>
      </trkpt>
      <trkpt lat="42.611704934388399" lon="1.409507626667619">
        <ele>2174.0999999999999</ele>
        <time>2025-07-17T07:24:05Z</time>
      </trkpt>
      <trkpt lat="42.61174164712429" lon="1.409625811502338">
        <ele>2175.8600000000001</ele>
        <time>2025-07-17T07:24:21Z</time>
      </trkpt>
      <trkpt lat="42.611768050119281" lon="1.409753384068608">
        <ele>2178.1300000000001</ele>
        <time>2025-07-17T07:24:40Z</time>
      </trkpt>
      <trkpt lat="42.6117636077106" lon="1.40986486338079">
        <ele>2180.73</ele>
        <time>2025-07-17T07:25:02Z</time>
      </trkpt>
      <trkpt lat="42.611778862774372" lon="1.409939294680953">
        <ele>2184.7800000000002</ele>
        <time>2025-07-17T07:25:34Z</time>
      </trkpt>
      <trkpt lat="42.611776683479548" lon="1.410059491172433">
        <ele>2186.7399999999998</ele>
        <time>2025-07-17T07:25:55Z</time>
      </trkpt>
      <trkpt lat="42.611795123666525" lon="1.41016929410398">
        <ele>2189.3200000000002</ele>
        <time>2025-07-17T07:26:16Z</time>
      </trkpt>
      <trkpt lat="42.611846253275871" lon="1.410254957154393">
        <ele>2191.0900000000001</ele>
        <time>2025-07-17T07:26:34Z</time>
      </trkpt>
      <trkpt lat="42.611824376508594" lon="1.410372890532017">
        <ele>2192.7399999999998</ele>
        <time>2025-07-17T07:26:53Z</time>
      </trkpt>
      <trkpt lat="42.611833345144987" lon="1.4104981161654">
        <ele>2193.8499999999999</ele>
        <time>2025-07-17T07:27:08Z</time>
      </trkpt>
      <trkpt lat="42.611820101737976" lon="1.410621581599116">
        <ele>2194.3699999999999</ele>
        <time>2025-07-17T07:27:21Z</time>
      </trkpt>
      <trkpt lat="42.611806858330965" lon="1.410731300711632">
        <ele>2195.04</ele>
        <time>2025-07-17T07:27:34Z</time>
      </trkpt>
      <trkpt lat="42.61179487220943" lon="1.410853089764714">
        <ele>2197.1100000000001</ele>
        <time>2025-07-17T07:27:51Z</time>
      </trkpt>
      <trkpt lat="42.611835356801748" lon="1.410973370075226">
        <ele>2198.5500000000002</ele>
        <time>2025-07-17T07:28:06Z</time>
      </trkpt>
      <trkpt lat="42.611875087022781" lon="1.411082837730646">
        <ele>2200.4899999999998</ele>
        <time>2025-07-17T07:28:24Z</time>
      </trkpt>
      <trkpt lat="42.611910291016102" lon="1.411180989816785">
        <ele>2201.4200000000001</ele>
        <time>2025-07-17T07:28:44Z</time>
      </trkpt>
      <trkpt lat="42.611898388713598" lon="1.411305377259851">
        <ele>2201.52</ele>
        <time>2025-07-17T07:28:55Z</time>
      </trkpt>
      <trkpt lat="42.611921187490225" lon="1.41142507083714">
        <ele>2201.4099999999999</ele>
        <time>2025-07-17T07:29:07Z</time>
      </trkpt>
      <trkpt lat="42.611976759508252" lon="1.411527581512928">
        <ele>2201.6399999999999</ele>
        <time>2025-07-17T07:29:18Z</time>
      </trkpt>
      <trkpt lat="42.612034007906914" lon="1.411637971177697">
        <ele>2201.6199999999999</ele>
        <time>2025-07-17T07:29:30Z</time>
      </trkpt>
      <trkpt lat="42.612074324861169" lon="1.411744924262166">
        <ele>2201</ele>
        <time>2025-07-17T07:29:40Z</time>
      </trkpt>
      <trkpt lat="42.612101063132286" lon="1.411870904266834">
        <ele>2200.5799999999999</ele>
        <time>2025-07-17T07:29:51Z</time>
      </trkpt>
      <trkpt lat="42.612122185528278" lon="1.411966206505895">
        <ele>2201.3600000000001</ele>
        <time>2025-07-17T07:31:44Z</time>
      </trkpt>
      <trkpt lat="42.612134255468845" lon="1.412083972245455">
        <ele>2202.4699999999998</ele>
        <time>2025-07-17T07:31:57Z</time>
      </trkpt>
      <trkpt lat="42.612127717584372" lon="1.412198385223746">
        <ele>2203.5599999999999</ele>
        <time>2025-07-17T07:32:09Z</time>
      </trkpt>
      <trkpt lat="42.612145990133286" lon="1.412315396592021">
        <ele>2204.0599999999999</ele>
        <time>2025-07-17T07:32:20Z</time>
      </trkpt>
      <trkpt lat="42.612156635150313" lon="1.412437688559294">
        <ele>2204.2399999999998</ele>
        <time>2025-07-17T07:32:30Z</time>
      </trkpt>
      <trkpt lat="42.612151019275188" lon="1.412557633593679">
        <ele>2205.1300000000001</ele>
        <time>2025-07-17T07:32:41Z</time>
      </trkpt>
      <trkpt lat="42.612166106700897" lon="1.412674644961953">
        <ele>2206.2399999999998</ele>
        <time>2025-07-17T07:32:54Z</time>
      </trkpt>
      <trkpt lat="42.612182954326272" lon="1.412796769291163">
        <ele>2208.7199999999998</ele>
        <time>2025-07-17T07:33:09Z</time>
      </trkpt>
      <trkpt lat="42.612191922962666" lon="1.412914367392659">
        <ele>2211.6300000000001</ele>
        <time>2025-07-17T07:33:27Z</time>
      </trkpt>
      <trkpt lat="42.612189324572682" lon="1.413027606904507">
        <ele>2213.0500000000002</ele>
        <time>2025-07-17T07:33:48Z</time>
      </trkpt>
      <trkpt lat="42.612216984853148" lon="1.413138499483466">
        <ele>2215.5100000000002</ele>
        <time>2025-07-17T07:34:10Z</time>
      </trkpt>
      <trkpt lat="42.612230060622096" lon="1.41326179727912">
        <ele>2216.23</ele>
        <time>2025-07-17T07:34:22Z</time>
      </trkpt>
      <trkpt lat="42.612189492210746" lon="1.413370175287128">
        <ele>2217.1100000000001</ele>
        <time>2025-07-17T07:34:34Z</time>
      </trkpt>
      <trkpt lat="42.612111875787377" lon="1.413450557738543">
        <ele>2219.3000000000002</ele>
        <time>2025-07-17T07:34:53Z</time>
      </trkpt>
      <trkpt lat="42.612045323476195" lon="1.413536556065083">
        <ele>2221.3800000000001</ele>
        <time>2025-07-17T07:35:13Z</time>
      </trkpt>
      <trkpt lat="42.611962258815765" lon="1.413544267416">
        <ele>2223.9200000000001</ele>
        <time>2025-07-17T07:35:34Z</time>
      </trkpt>
      <trkpt lat="42.611892521381378" lon="1.413619369268417">
        <ele>2225.3099999999999</ele>
        <time>2025-07-17T07:36:06Z</time>
      </trkpt>
      <trkpt lat="42.611831501126289" lon="1.413723304867744">
        <ele>2227.9899999999998</ele>
        <time>2025-07-17T07:36:25Z</time>
      </trkpt>
      <trkpt lat="42.611770229414105" lon="1.413829000666738">
        <ele>2230.3099999999999</ele>
        <time>2025-07-17T07:36:46Z</time>
      </trkpt>
      <trkpt lat="42.611698983237147" lon="1.413877280429006">
        <ele>2233.2199999999998</ele>
        <time>2025-07-17T07:37:11Z</time>
      </trkpt>
      <trkpt lat="42.611619355157018" lon="1.413926985114813">
        <ele>2235.0599999999999</ele>
        <time>2025-07-17T07:37:30Z</time>
      </trkpt>
      <trkpt lat="42.611534362658858" lon="1.414008960127831">
        <ele>2235.3600000000001</ele>
        <time>2025-07-17T07:37:45Z</time>
      </trkpt>
      <trkpt lat="42.611471163108945" lon="1.414105352014303">
        <ele>2236.1900000000001</ele>
        <time>2025-07-17T07:37:57Z</time>
      </trkpt>
      <trkpt lat="42.611390110105276" lon="1.414192272350192">
        <ele>2237.4899999999998</ele>
        <time>2025-07-17T07:38:16Z</time>
      </trkpt>
      <trkpt lat="42.611303189769387" lon="1.414204426109791">
        <ele>2240.0799999999999</ele>
        <time>2025-07-17T07:38:36Z</time>
      </trkpt>
      <trkpt lat="42.6112818159163" lon="1.414284473285079">
        <ele>2243.79</ele>
        <time>2025-07-17T07:39:05Z</time>
      </trkpt>
      <trkpt lat="42.611225405707955" lon="1.41435488127172">
        <ele>2246.6599999999999</ele>
        <time>2025-07-17T07:39:29Z</time>
      </trkpt>
      <trkpt lat="42.611153153702617" lon="1.414428809657693">
        <ele>2250.4499999999998</ele>
        <time>2025-07-17T07:40:02Z</time>
      </trkpt>
      <trkpt lat="42.61106338351965" lon="1.414482034742832">
        <ele>2253.1799999999998</ele>
        <time>2025-07-17T07:40:29Z</time>
      </trkpt>
      <trkpt lat="42.610979564487934" lon="1.414547581225634">
        <ele>2255.2399999999998</ele>
        <time>2025-07-17T07:40:49Z</time>
      </trkpt>
      <trkpt lat="42.610914604738355" lon="1.414656462147832">
        <ele>2255.4499999999998</ele>
        <time>2025-07-17T07:41:04Z</time>
      </trkpt>
      <trkpt lat="42.61084696277976" lon="1.414759308099747">
        <ele>2256.4000000000001</ele>
        <time>2025-07-17T07:41:19Z</time>
      </trkpt>
      <trkpt lat="42.610812513157725" lon="1.414865255355835">
        <ele>2257.1599999999999</ele>
        <time>2025-07-17T07:41:38Z</time>
      </trkpt>
      <trkpt lat="42.610750906169415" lon="1.414936250075698">
        <ele>2258.3000000000002</ele>
        <time>2025-07-17T07:42:06Z</time>
      </trkpt>
      <trkpt lat="42.610687455162406" lon="1.415021829307079">
        <ele>2261.3899999999999</ele>
        <time>2025-07-17T07:42:30Z</time>
      </trkpt>
      <trkpt lat="42.610600702464581" lon="1.415019230917096">
        <ele>2263.7399999999998</ele>
        <time>2025-07-17T07:42:57Z</time>
      </trkpt>
      <trkpt lat="42.610504142940044" lon="1.415038425475359">
        <ele>2263.9400000000001</ele>
        <time>2025-07-17T07:43:09Z</time>
      </trkpt>
      <trkpt lat="42.610411187633872" lon="1.415078155696392">
        <ele>2264.2399999999998</ele>
        <time>2025-07-17T07:43:23Z</time>
      </trkpt>
      <trkpt lat="42.610338851809502" lon="1.415206231176853">
        <ele>2265.4699999999998</ele>
        <time>2025-07-17T07:43:38Z</time>
      </trkpt>
      <trkpt lat="42.610274394974113" lon="1.415305724367499">
        <ele>2266.8899999999999</ele>
        <time>2025-07-17T07:43:53Z</time>
      </trkpt>
      <trkpt lat="42.610213877633214" lon="1.415343945845962">
        <ele>2270.1399999999999</ele>
        <time>2025-07-17T07:44:16Z</time>
      </trkpt>
      <trkpt lat="42.610176997259259" lon="1.415457855910063">
        <ele>2272.6199999999999</ele>
        <time>2025-07-17T07:44:38Z</time>
      </trkpt>
      <trkpt lat="42.61011254042387" lon="1.415512589737773">
        <ele>2275.5999999999999</ele>
        <time>2025-07-17T07:45:00Z</time>
      </trkpt>
      <trkpt lat="42.610127795487642" lon="1.415575202554464">
        <ele>2276.0900000000001</ele>
        <time>2025-07-17T07:45:17Z</time>
      </trkpt>
      <trkpt lat="42.610158389434218" lon="1.415554834529758">
        <ele>2276.25</ele>
        <time>2025-07-17T07:53:07Z</time>
      </trkpt>
      <trkpt lat="42.61020683683455" lon="1.41552415676415">
        <ele>2277.1500000000001</ele>
        <time>2025-07-17T07:55:13Z</time>
      </trkpt>
      <trkpt lat="42.610203316435218" lon="1.415518708527088">
        <ele>2277.2600000000002</ele>
        <time>2025-07-17T07:57:25Z</time>
      </trkpt>
      <trkpt lat="42.61016190983355" lon="1.41553983092308">
        <ele>2277.9899999999998</ele>
        <time>2025-07-17T07:58:30Z</time>
      </trkpt>
      <trkpt lat="42.610118072479963" lon="1.415585344657302">
        <ele>2281.1599999999999</ele>
        <time>2025-07-17T08:06:04Z</time>
      </trkpt>
      <trkpt lat="42.610051101073623" lon="1.415644939988852">
        <ele>2281.8099999999999</ele>
        <time>2025-07-17T08:07:26Z</time>
      </trkpt>
      <trkpt lat="42.609974406659603" lon="1.415733704343438">
        <ele>2283.3200000000002</ele>
        <time>2025-07-17T08:07:41Z</time>
      </trkpt>
      <trkpt lat="42.609886145219207" lon="1.415781900286675">
        <ele>2284.6500000000001</ele>
        <time>2025-07-17T08:07:55Z</time>
      </trkpt>
      <trkpt lat="42.609814144670963" lon="1.415843842551112">
        <ele>2286.75</ele>
        <time>2025-07-17T08:08:17Z</time>
      </trkpt>
      <trkpt lat="42.609727391973138" lon="1.415897738188505">
        <ele>2289.2600000000002</ele>
        <time>2025-07-17T08:08:39Z</time>
      </trkpt>
      <trkpt lat="42.609676932916045" lon="1.415999578312039">
        <ele>2291.0500000000002</ele>
        <time>2025-07-17T08:08:56Z</time>
      </trkpt>
      <trkpt lat="42.609605435281992" lon="1.416066465899348">
        <ele>2292.0100000000002</ele>
        <time>2025-07-17T08:09:15Z</time>
      </trkpt>
      <trkpt lat="42.60954131372273" lon="1.41616721637547">
        <ele>2292.6500000000001</ele>
        <time>2025-07-17T08:09:30Z</time>
      </trkpt>
      <trkpt lat="42.609466798603535" lon="1.416247431188822">
        <ele>2292.1599999999999</ele>
        <time>2025-07-17T08:09:40Z</time>
      </trkpt>
      <trkpt lat="42.60940502397716" lon="1.416338458657265">
        <ele>2291.9200000000001</ele>
        <time>2025-07-17T08:09:51Z</time>
      </trkpt>
      <trkpt lat="42.609350373968482" lon="1.416437365114689">
        <ele>2292.0300000000002</ele>
        <time>2025-07-17T08:10:04Z</time>
      </trkpt>
      <trkpt lat="42.609288683161139" lon="1.41654297709465">
        <ele>2293.4899999999998</ele>
        <time>2025-07-17T08:10:20Z</time>
      </trkpt>
      <trkpt lat="42.609206372871995" lon="1.416604332625866">
        <ele>2293.5900000000001</ele>
        <time>2025-07-17T08:10:33Z</time>
      </trkpt>
      <trkpt lat="42.609121548011899" lon="1.416633920744062">
        <ele>2294.3200000000002</ele>
        <time>2025-07-17T08:10:46Z</time>
      </trkpt>
      <trkpt lat="42.609029011800885" lon="1.416638027876616">
        <ele>2296.6399999999999</ele>
        <time>2025-07-17T08:11:22Z</time>
      </trkpt>
      <trkpt lat="42.608944773674011" lon="1.416644314303994">
        <ele>2299.1599999999999</ele>
        <time>2025-07-17T08:11:46Z</time>
      </trkpt>
      <trkpt lat="42.608886687085032" lon="1.416752692312002">
        <ele>2301.29</ele>
        <time>2025-07-17T08:12:05Z</time>
      </trkpt>
      <trkpt lat="42.608818123117089" lon="1.416858555749059">
        <ele>2301.9899999999998</ele>
        <time>2025-07-17T08:12:21Z</time>
      </trkpt>
      <trkpt lat="42.608759785071015" lon="1.416816059499979">
        <ele>2304.4899999999998</ele>
        <time>2025-07-17T08:12:45Z</time>
      </trkpt>
      <trkpt lat="42.608709577471018" lon="1.416909685358405">
        <ele>2306.3099999999999</ele>
        <time>2025-07-17T08:13:01Z</time>
      </trkpt>
      <trkpt lat="42.608645372092724" lon="1.417005658149719">
        <ele>2306.04</ele>
        <time>2025-07-17T08:13:13Z</time>
      </trkpt>
      <trkpt lat="42.608554679900408" lon="1.417042706161737">
        <ele>2306.6999999999998</ele>
        <time>2025-07-17T08:13:26Z</time>
      </trkpt>
      <trkpt lat="42.608469100669026" lon="1.41707899980247">
        <ele>2307.5799999999999</ele>
        <time>2025-07-17T08:13:39Z</time>
      </trkpt>
      <trkpt lat="42.608375139534473" lon="1.417089644819498">
        <ele>2307.5999999999999</ele>
        <time>2025-07-17T08:13:52Z</time>
      </trkpt>
      <trkpt lat="42.608277155086398" lon="1.417088387534022">
        <ele>2306.4099999999999</ele>
        <time>2025-07-17T08:14:05Z</time>
      </trkpt>
      <trkpt lat="42.608187468722463" lon="1.417096266523004">
        <ele>2306.0100000000002</ele>
        <time>2025-07-17T08:14:14Z</time>
      </trkpt>
      <trkpt lat="42.608103062957525" lon="1.417092410847545">
        <ele>2306.4899999999998</ele>
        <time>2025-07-17T08:14:25Z</time>
      </trkpt>
      <trkpt lat="42.60800801217556" lon="1.417070785537362">
        <ele>2307.3699999999999</ele>
        <time>2025-07-17T08:14:43Z</time>
      </trkpt>
      <trkpt lat="42.607927294448018" lon="1.417013872414827">
        <ele>2307.0900000000001</ele>
        <time>2025-07-17T08:14:53Z</time>
      </trkpt>
      <trkpt lat="42.607839116826653" lon="1.416994426399469">
        <ele>2307.2399999999998</ele>
        <time>2025-07-17T08:15:07Z</time>
      </trkpt>
      <trkpt lat="42.607752783223987" lon="1.417003478854895">
        <ele>2307.6999999999998</ele>
        <time>2025-07-17T08:15:21Z</time>
      </trkpt>
      <trkpt lat="42.60766108520329" lon="1.417009010910988">
        <ele>2308.3400000000001</ele>
        <time>2025-07-17T08:15:35Z</time>
      </trkpt>
      <trkpt lat="42.607571817934513" lon="1.416985206305981">
        <ele>2308.27</ele>
        <time>2025-07-17T08:15:47Z</time>
      </trkpt>
      <trkpt lat="42.607492860406637" lon="1.416905745863915">
        <ele>2309.3200000000002</ele>
        <time>2025-07-17T08:16:00Z</time>
      </trkpt>
      <trkpt lat="42.607409209012985" lon="1.416849168017507">
        <ele>2309.4899999999998</ele>
        <time>2025-07-17T08:16:12Z</time>
      </trkpt>
      <trkpt lat="42.607318097725511" lon="1.416815053671598">
        <ele>2308.1799999999998</ele>
        <time>2025-07-17T08:16:24Z</time>
      </trkpt>
      <trkpt lat="42.607233440503478" lon="1.416838355362415">
        <ele>2308.7199999999998</ele>
        <time>2025-07-17T08:16:37Z</time>
      </trkpt>
      <trkpt lat="42.607148699462414" lon="1.416837014257908">
        <ele>2309.96</ele>
        <time>2025-07-17T08:16:53Z</time>
      </trkpt>
      <trkpt lat="42.607105616480112" lon="1.416914630681276">
        <ele>2310.5999999999999</ele>
        <time>2025-07-17T08:17:20Z</time>
      </trkpt>
      <trkpt lat="42.607024060562253" lon="1.416998701170087">
        <ele>2314.21</ele>
        <time>2025-07-17T08:17:42Z</time>
      </trkpt>
      <trkpt lat="42.606938229873776" lon="1.417052680626512">
        <ele>2316.0599999999999</ele>
        <time>2025-07-17T08:17:56Z</time>
      </trkpt>
      <trkpt lat="42.606861367821693" lon="1.417105486616492">
        <ele>2317.1999999999998</ele>
        <time>2025-07-17T08:18:11Z</time>
      </trkpt>
      <trkpt lat="42.606773357838392" lon="1.417121076956391">
        <ele>2318.6500000000001</ele>
        <time>2025-07-17T08:18:28Z</time>
      </trkpt>
      <trkpt lat="42.606681324541569" lon="1.417176146060228">
        <ele>2319.3800000000001</ele>
        <time>2025-07-17T08:18:42Z</time>
      </trkpt>
      <trkpt lat="42.606590548530221" lon="1.417176900431514">
        <ele>2319.6599999999999</ele>
        <time>2025-07-17T08:18:54Z</time>
      </trkpt>
      <trkpt lat="42.606505053117871" lon="1.417202465236187">
        <ele>2321.1999999999998</ele>
        <time>2025-07-17T08:19:13Z</time>
      </trkpt>
      <trkpt lat="42.606430957093835" lon="1.417278572916985">
        <ele>2323.2800000000002</ele>
        <time>2025-07-17T08:19:31Z</time>
      </trkpt>
      <trkpt lat="42.60637111030519" lon="1.417288547381759">
        <ele>2325.3699999999999</ele>
        <time>2025-07-17T08:19:49Z</time>
      </trkpt>
      <trkpt lat="42.606316544115543" lon="1.417374964803457">
        <ele>2326.5599999999999</ele>
        <time>2025-07-17T08:20:09Z</time>
      </trkpt>
      <trkpt lat="42.606237502768636" lon="1.417454173788428">
        <ele>2327.0799999999999</ele>
        <time>2025-07-17T08:20:22Z</time>
      </trkpt>
      <trkpt lat="42.606158461421728" lon="1.417530532926321">
        <ele>2328.0300000000002</ele>
        <time>2025-07-17T08:20:37Z</time>
      </trkpt>
      <trkpt lat="42.606073468923569" lon="1.417609741911292">
        <ele>2330.2600000000002</ele>
        <time>2025-07-17T08:20:55Z</time>
      </trkpt>
      <trkpt lat="42.60601538233459" lon="1.417690040543675">
        <ele>2332.27</ele>
        <time>2025-07-17T08:21:14Z</time>
      </trkpt>
      <trkpt lat="42.605933323502541" lon="1.417727340012789">
        <ele>2335.8499999999999</ele>
        <time>2025-07-17T08:21:39Z</time>
      </trkpt>
      <trkpt lat="42.605854952707887" lon="1.417752401903272">
        <ele>2335.71</ele>
        <time>2025-07-17T08:21:53Z</time>
      </trkpt>
      <trkpt lat="42.605760740116239" lon="1.417794898152351">
        <ele>2335.8400000000001</ele>
        <time>2025-07-17T08:22:05Z</time>
      </trkpt>
      <trkpt lat="42.605666611343622" lon="1.417802944779396">
        <ele>2336.8800000000001</ele>
        <time>2025-07-17T08:22:19Z</time>
      </trkpt>
      <trkpt lat="42.605568040162325" lon="1.417795736342669">
        <ele>2337.1700000000001</ele>
        <time>2025-07-17T08:22:31Z</time>
      </trkpt>
      <trkpt lat="42.605470810085535" lon="1.417798418551683">
        <ele>2337.3600000000001</ele>
        <time>2025-07-17T08:22:43Z</time>
      </trkpt>
      <trkpt lat="42.605372490361333" lon="1.417818367481232">
        <ele>2338.29</ele>
        <time>2025-07-17T08:22:55Z</time>
      </trkpt>
      <trkpt lat="42.605279535055161" lon="1.417840411886573">
        <ele>2338.98</ele>
        <time>2025-07-17T08:23:10Z</time>
      </trkpt>
      <trkpt lat="42.605196554213762" lon="1.417902857065201">
        <ele>2341.2399999999998</ele>
        <time>2025-07-17T08:23:33Z</time>
      </trkpt>
      <trkpt lat="42.605149280279875" lon="1.418000422418118">
        <ele>2344.2600000000002</ele>
        <time>2025-07-17T08:23:58Z</time>
      </trkpt>
      <trkpt lat="42.605103850364685" lon="1.418110141530633">
        <ele>2346.46</ele>
        <time>2025-07-17T08:24:17Z</time>
      </trkpt>
      <trkpt lat="42.605024809017777" lon="1.418181974440813">
        <ele>2348.48</ele>
        <time>2025-07-17T08:24:37Z</time>
      </trkpt>
      <trkpt lat="42.604941576719284" lon="1.418213406577706">
        <ele>2349.4499999999998</ele>
        <time>2025-07-17T08:24:52Z</time>
      </trkpt>
      <trkpt lat="42.604860356077552" lon="1.418211227282882">
        <ele>2351.1900000000001</ele>
        <time>2025-07-17T08:25:09Z</time>
      </trkpt>
      <trkpt lat="42.604779973626137" lon="1.418221956118941">
        <ele>2354.7800000000002</ele>
        <time>2025-07-17T08:25:32Z</time>
      </trkpt>
      <trkpt lat="42.604697328060865" lon="1.418232684955001">
        <ele>2355.9499999999998</ele>
        <time>2025-07-17T08:25:49Z</time>
      </trkpt>
      <trkpt lat="42.604611581191421" lon="1.418300326913595">
        <ele>2353.6500000000001</ele>
        <time>2025-07-17T08:26:01Z</time>
      </trkpt>
      <trkpt lat="42.604523403570056" lon="1.418316168710589">
        <ele>2353.8600000000001</ele>
        <time>2025-07-17T08:26:13Z</time>
      </trkpt>
      <trkpt lat="42.604447128251195" lon="1.418381212279201">
        <ele>2353.4299999999998</ele>
        <time>2025-07-17T08:26:25Z</time>
      </trkpt>
      <trkpt lat="42.604366410523653" lon="1.41840660944581">
        <ele>2352.7800000000002</ele>
        <time>2025-07-17T08:26:36Z</time>
      </trkpt>
      <trkpt lat="42.604290135204792" lon="1.418480956926942">
        <ele>2353.0900000000001</ele>
        <time>2025-07-17T08:26:47Z</time>
      </trkpt>
      <trkpt lat="42.604200784116983" lon="1.418504929170013">
        <ele>2354.21</ele>
        <time>2025-07-17T08:27:00Z</time>
      </trkpt>
      <trkpt lat="42.604139680042863" lon="1.418592520058155">
        <ele>2354.3200000000002</ele>
        <time>2025-07-17T08:27:10Z</time>
      </trkpt>
      <trkpt lat="42.604047395288944" lon="1.418615486472845">
        <ele>2354.6799999999998</ele>
        <time>2025-07-17T08:27:21Z</time>
      </trkpt>
      <trkpt lat="42.603959469124675" lon="1.418647589161992">
        <ele>2355.04</ele>
        <time>2025-07-17T08:27:31Z</time>
      </trkpt>
      <trkpt lat="42.603874057531357" lon="1.418706094846129">
        <ele>2356.3099999999999</ele>
        <time>2025-07-17T08:27:43Z</time>
      </trkpt>
      <trkpt lat="42.603785628452897" lon="1.418753284960985">
        <ele>2357.6999999999998</ele>
        <time>2025-07-17T08:27:57Z</time>
      </trkpt>
      <trkpt lat="42.603695103898644" lon="1.418766528367996">
        <ele>2359.7199999999998</ele>
        <time>2025-07-17T08:28:15Z</time>
      </trkpt>
      <trkpt lat="42.603608770295978" lon="1.418780190870166">
        <ele>2362.5799999999999</ele>
        <time>2025-07-17T08:28:35Z</time>
      </trkpt>
      <trkpt lat="42.603553282096982" lon="1.418874571099877">
        <ele>2363.8899999999999</ele>
        <time>2025-07-17T08:28:52Z</time>
      </trkpt>
      <trkpt lat="42.603475665673614" lon="1.418956127017736">
        <ele>2364.6700000000001</ele>
        <time>2025-07-17T08:29:09Z</time>
      </trkpt>
      <trkpt lat="42.603384638205171" lon="1.419015303254128">
        <ele>2363.8299999999999</ele>
        <time>2025-07-17T08:29:21Z</time>
      </trkpt>
      <trkpt lat="42.603290928527713" lon="1.419045394286513">
        <ele>2363.3000000000002</ele>
        <time>2025-07-17T08:29:32Z</time>
      </trkpt>
      <trkpt lat="42.60319646447897" lon="1.419088812544942">
        <ele>2363.0999999999999</ele>
        <time>2025-07-17T08:29:44Z</time>
      </trkpt>
      <trkpt lat="42.603108370676637" lon="1.419138433411717">
        <ele>2363.8899999999999</ele>
        <time>2025-07-17T08:29:57Z</time>
      </trkpt>
      <trkpt lat="42.60302010923624" lon="1.41916936263442">
        <ele>2365.27</ele>
        <time>2025-07-17T08:30:10Z</time>
      </trkpt>
      <trkpt lat="42.602931009605527" lon="1.419213535264134">
        <ele>2366.5999999999999</ele>
        <time>2025-07-17T08:30:25Z</time>
      </trkpt>
      <trkpt lat="42.602861858904362" lon="1.41928855329752">
        <ele>2367.21</ele>
        <time>2025-07-17T08:30:38Z</time>
      </trkpt>
      <trkpt lat="42.602826906368136" lon="1.419356865808368">
        <ele>2368.2199999999998</ele>
        <time>2025-07-17T08:30:56Z</time>
      </trkpt>
      <trkpt lat="42.602759599685669" lon="1.419416125863791">
        <ele>2368.77</ele>
        <time>2025-07-17T08:31:11Z</time>
      </trkpt>
      <trkpt lat="42.602776531130075" lon="1.419526599347591">
        <ele>2369.8400000000001</ele>
        <time>2025-07-17T08:31:47Z</time>
      </trkpt>
      <trkpt lat="42.602764209732413" lon="1.419637827202678">
        <ele>2370</ele>
        <time>2025-07-17T08:32:11Z</time>
      </trkpt>
      <trkpt lat="42.60271618142724" lon="1.419743523001671">
        <ele>2370.4000000000001</ele>
        <time>2025-07-17T08:32:24Z</time>
      </trkpt>
      <trkpt lat="42.602645689621568" lon="1.419830778613687">
        <ele>2370.3299999999999</ele>
        <time>2025-07-17T08:32:37Z</time>
      </trkpt>
      <trkpt lat="42.602637726813555" lon="1.419834634289146">
        <ele>2371.2600000000002</ele>
        <time>2025-07-17T08:35:51Z</time>
      </trkpt>
      <trkpt lat="42.602608809247613" lon="1.419863970950246">
        <ele>2372.2600000000002</ele>
        <time>2025-07-17T08:37:06Z</time>
      </trkpt>
      <trkpt lat="42.602534294128418" lon="1.419942593201995">
        <ele>2372.6599999999999</ele>
        <time>2025-07-17T08:37:18Z</time>
      </trkpt>
      <trkpt lat="42.602467574179173" lon="1.420046109706163">
        <ele>2372.4099999999999</ele>
        <time>2025-07-17T08:37:29Z</time>
      </trkpt>
      <trkpt lat="42.602432621642947" lon="1.420163540169597">
        <ele>2372.77</ele>
        <time>2025-07-17T08:37:38Z</time>
      </trkpt>
      <trkpt lat="42.602391801774502" lon="1.420270912349224">
        <ele>2372.3499999999999</ele>
        <time>2025-07-17T08:37:47Z</time>
      </trkpt>
      <trkpt lat="42.602349640801549" lon="1.42039043828845">
        <ele>2372.6799999999998</ele>
        <time>2025-07-17T08:37:57Z</time>
      </trkpt>
      <trkpt lat="42.602310664951801" lon="1.420506862923503">
        <ele>2373.0700000000002</ele>
        <time>2025-07-17T08:38:08Z</time>
      </trkpt>
      <trkpt lat="42.602224163711071" lon="1.42055950127542">
        <ele>2372.0500000000002</ele>
        <time>2025-07-17T08:38:20Z</time>
      </trkpt>
      <trkpt lat="42.602153168991208" lon="1.420620270073414">
        <ele>2371.0999999999999</ele>
        <time>2025-07-17T08:38:34Z</time>
      </trkpt>
      <trkpt lat="42.602066583931446" lon="1.420689504593611">
        <ele>2370.3200000000002</ele>
        <time>2025-07-17T08:38:46Z</time>
      </trkpt>
      <trkpt lat="42.60198519565165" lon="1.420739041641355">
        <ele>2369.9200000000001</ele>
        <time>2025-07-17T08:38:57Z</time>
      </trkpt>
      <trkpt lat="42.601921912282705" lon="1.420833254233003">
        <ele>2369.23</ele>
        <time>2025-07-17T08:39:13Z</time>
      </trkpt>
      <trkpt lat="42.601865502074361" lon="1.420938111841679">
        <ele>2369.3600000000001</ele>
        <time>2025-07-17T08:39:23Z</time>
      </trkpt>
      <trkpt lat="42.601797021925449" lon="1.421024780720472">
        <ele>2368.4200000000001</ele>
        <time>2025-07-17T08:39:31Z</time>
      </trkpt>
      <trkpt lat="42.601753184571862" lon="1.421129135414958">
        <ele>2368.29</ele>
        <time>2025-07-17T08:39:40Z</time>
      </trkpt>
      <trkpt lat="42.601725943386555" lon="1.421236004680395">
        <ele>2368.3099999999999</ele>
        <time>2025-07-17T08:39:58Z</time>
      </trkpt>
      <trkpt lat="42.601668694987893" lon="1.421324098482728">
        <ele>2368.98</ele>
        <time>2025-07-17T08:40:19Z</time>
      </trkpt>
      <trkpt lat="42.601669700816274" lon="1.421454353258014">
        <ele>2368.8499999999999</ele>
        <time>2025-07-17T08:40:34Z</time>
      </trkpt>
      <trkpt lat="42.601640028879046" lon="1.421581087633967">
        <ele>2369.4899999999998</ele>
        <time>2025-07-17T08:41:41Z</time>
      </trkpt>
      <trkpt lat="42.601669365540147" lon="1.421704133972526">
        <ele>2369.71</ele>
        <time>2025-07-17T08:41:53Z</time>
      </trkpt>
      <trkpt lat="42.60166559368372" lon="1.421835059300065">
        <ele>2371.6599999999999</ele>
        <time>2025-07-17T08:42:20Z</time>
      </trkpt>
      <trkpt lat="42.601582361385226" lon="1.421901443973184">
        <ele>2374.77</ele>
        <time>2025-07-17T08:42:40Z</time>
      </trkpt>
      <trkpt lat="42.601561071351171" lon="1.422032872214913">
        <ele>2377.6199999999999</ele>
        <time>2025-07-17T08:43:01Z</time>
      </trkpt>
      <trkpt lat="42.601507678627968" lon="1.422130689024925">
        <ele>2378.8499999999999</ele>
        <time>2025-07-17T08:43:19Z</time>
      </trkpt>
      <trkpt lat="42.601433079689741" lon="1.422217274084687">
        <ele>2380.6599999999999</ele>
        <time>2025-07-17T08:43:38Z</time>
      </trkpt>
      <trkpt lat="42.601384380832314" lon="1.42230729572475">
        <ele>2382.6900000000001</ele>
        <time>2025-07-17T08:43:57Z</time>
      </trkpt>
      <trkpt lat="42.601371556520462" lon="1.42241190187633">
        <ele>2385.1999999999998</ele>
        <time>2025-07-17T08:44:21Z</time>
      </trkpt>
      <trkpt lat="42.601342806592584" lon="1.422513322904706">
        <ele>2387.48</ele>
        <time>2025-07-17T08:44:43Z</time>
      </trkpt>
      <trkpt lat="42.601317660883069" lon="1.422638297080994">
        <ele>2389.5500000000002</ele>
        <time>2025-07-17T08:45:04Z</time>
      </trkpt>
      <trkpt lat="42.601303830742836" lon="1.422768132761121">
        <ele>2391.9899999999998</ele>
        <time>2025-07-17T08:45:24Z</time>
      </trkpt>
      <trkpt lat="42.601261837407947" lon="1.422879779711366">
        <ele>2393.8899999999999</ele>
        <time>2025-07-17T08:45:44Z</time>
      </trkpt>
      <trkpt lat="42.601221185177565" lon="1.422981787472963">
        <ele>2395.0999999999999</ele>
        <time>2025-07-17T08:46:01Z</time>
      </trkpt>
      <trkpt lat="42.601227974519134" lon="1.423092093318701">
        <ele>2398.1700000000001</ele>
        <time>2025-07-17T08:46:24Z</time>
      </trkpt>
      <trkpt lat="42.601228561252356" lon="1.423218911513686">
        <ele>2399.6799999999998</ele>
        <time>2025-07-17T08:46:41Z</time>
      </trkpt>
      <trkpt lat="42.601240882650018" lon="1.423344220966101">
        <ele>2401.1900000000001</ele>
        <time>2025-07-17T08:46:58Z</time>
      </trkpt>
      <trkpt lat="42.601232919842005" lon="1.42347271554172">
        <ele>2402.6500000000001</ele>
        <time>2025-07-17T08:47:14Z</time>
      </trkpt>
      <trkpt lat="42.601220933720469" lon="1.423595258966088">
        <ele>2404.25</ele>
        <time>2025-07-17T08:47:30Z</time>
      </trkpt>
      <trkpt lat="42.601233925670385" lon="1.423723921179771">
        <ele>2405.1599999999999</ele>
        <time>2025-07-17T08:47:44Z</time>
      </trkpt>
      <trkpt lat="42.601236356422305" lon="1.423843530938029">
        <ele>2405.3800000000001</ele>
        <time>2025-07-17T08:47:57Z</time>
      </trkpt>
      <trkpt lat="42.601204002276063" lon="1.423951908946037">
        <ele>2407.1500000000001</ele>
        <time>2025-07-17T08:48:13Z</time>
      </trkpt>
      <trkpt lat="42.601167876273394" lon="1.424070512875915">
        <ele>2408.6399999999999</ele>
        <time>2025-07-17T08:48:32Z</time>
      </trkpt>
      <trkpt lat="42.601132839918137" lon="1.424190625548363">
        <ele>2409.6599999999999</ele>
        <time>2025-07-17T08:48:47Z</time>
      </trkpt>
      <trkpt lat="42.601083386689425" lon="1.424281401559711">
        <ele>2410.9499999999998</ele>
        <time>2025-07-17T08:49:02Z</time>
      </trkpt>
      <trkpt lat="42.601030999794602" lon="1.424379134550691">
        <ele>2411.3800000000001</ele>
        <time>2025-07-17T08:49:17Z</time>
      </trkpt>
      <trkpt lat="42.600963609293103" lon="1.424490194767714">
        <ele>2413.54</ele>
        <time>2025-07-17T08:49:55Z</time>
      </trkpt>
      <trkpt lat="42.600919101387262" lon="1.42461801879108">
        <ele>2414.1900000000001</ele>
        <time>2025-07-17T08:50:07Z</time>
      </trkpt>
      <trkpt lat="42.600858835503459" lon="1.424715584143996">
        <ele>2415.0300000000002</ele>
        <time>2025-07-17T08:50:18Z</time>
      </trkpt>
      <trkpt lat="42.60081491433084" lon="1.424838211387396">
        <ele>2416.0100000000002</ele>
        <time>2025-07-17T08:50:29Z</time>
      </trkpt>
      <trkpt lat="42.600742410868406" lon="1.424898561090231">
        <ele>2416.3699999999999</ele>
        <time>2025-07-17T08:50:40Z</time>
      </trkpt>
      <trkpt lat="42.600679881870747" lon="1.424983302131295">
        <ele>2417.7800000000002</ele>
        <time>2025-07-17T08:50:54Z</time>
      </trkpt>
      <trkpt lat="42.60063755325973" lon="1.425097547471523">
        <ele>2420.1799999999998</ele>
        <time>2025-07-17T08:51:13Z</time>
      </trkpt>
      <trkpt lat="42.600583238527179" lon="1.425202991813421">
        <ele>2421.8899999999999</ele>
        <time>2025-07-17T08:51:30Z</time>
      </trkpt>
      <trkpt lat="42.600509813055396" lon="1.425213553011417">
        <ele>2424.1700000000001</ele>
        <time>2025-07-17T08:51:52Z</time>
      </trkpt>
      <trkpt lat="42.60042255744338" lon="1.425186898559332">
        <ele>2425.4000000000001</ele>
        <time>2025-07-17T08:52:13Z</time>
      </trkpt>
      <trkpt lat="42.600355334579945" lon="1.425176504999399">
        <ele>2423.6799999999998</ele>
        <time>2025-07-17T08:52:27Z</time>
      </trkpt>
      <trkpt lat="42.600286854431033" lon="1.425264934077859">
        <ele>2423.0100000000002</ele>
        <time>2025-07-17T08:52:37Z</time>
      </trkpt>
      <trkpt lat="42.600206723436713" lon="1.425341041758657">
        <ele>2423.4699999999998</ele>
        <time>2025-07-17T08:52:48Z</time>
      </trkpt>
      <trkpt lat="42.600120138376951" lon="1.42540130764246">
        <ele>2425.0500000000002</ele>
        <time>2025-07-17T08:53:01Z</time>
      </trkpt>
      <trkpt lat="42.600068505853415" lon="1.425515050068498">
        <ele>2427.98</ele>
        <time>2025-07-17T08:53:20Z</time>
      </trkpt>
      <trkpt lat="42.600049143657088" lon="1.425641616806388">
        <ele>2430.5100000000002</ele>
        <time>2025-07-17T08:53:38Z</time>
      </trkpt>
      <trkpt lat="42.599995415657759" lon="1.425743289291859">
        <ele>2432.96</ele>
        <time>2025-07-17T08:53:57Z</time>
      </trkpt>
      <trkpt lat="42.599944202229381" lon="1.425826186314225">
        <ele>2435.5900000000001</ele>
        <time>2025-07-17T08:54:24Z</time>
      </trkpt>
      <trkpt lat="42.599919894710183" lon="1.425935318693519">
        <ele>2439.3000000000002</ele>
        <time>2025-07-17T08:54:48Z</time>
      </trkpt>
      <trkpt lat="42.599870944395661" lon="1.426011091098189">
        <ele>2441.6100000000001</ele>
        <time>2025-07-17T08:55:08Z</time>
      </trkpt>
      <trkpt lat="42.59981956332922" lon="1.426109997555614">
        <ele>2442.4099999999999</ele>
        <time>2025-07-17T08:55:32Z</time>
      </trkpt>
      <trkpt lat="42.599739683791995" lon="1.42617185600102">
        <ele>2442.6599999999999</ele>
        <time>2025-07-17T08:56:01Z</time>
      </trkpt>
      <trkpt lat="42.599677909165621" lon="1.426242599263787">
        <ele>2442.5500000000002</ele>
        <time>2025-07-17T08:56:12Z</time>
      </trkpt>
      <trkpt lat="42.59963097050786" lon="1.426347959786654">
        <ele>2441.21</ele>
        <time>2025-07-17T08:56:21Z</time>
      </trkpt>
      <trkpt lat="42.599552348256111" lon="1.426412584260106">
        <ele>2440.3499999999999</ele>
        <time>2025-07-17T08:56:29Z</time>
      </trkpt>
      <trkpt lat="42.599462410435081" lon="1.426438903436065">
        <ele>2439.9499999999998</ele>
        <time>2025-07-17T08:56:38Z</time>
      </trkpt>
      <trkpt lat="42.599369371309876" lon="1.426481567323208">
        <ele>2439.9899999999998</ele>
        <time>2025-07-17T08:56:47Z</time>
      </trkpt>
      <trkpt lat="42.5992835406214" lon="1.426501600071788">
        <ele>2440.5900000000001</ele>
        <time>2025-07-17T08:56:57Z</time>
      </trkpt>
      <trkpt lat="42.599193435162306" lon="1.426530433818698">
        <ele>2441.4899999999998</ele>
        <time>2025-07-17T08:57:08Z</time>
      </trkpt>
      <trkpt lat="42.59909687563777" lon="1.426533116027713">
        <ele>2442.48</ele>
        <time>2025-07-17T08:57:20Z</time>
      </trkpt>
      <trkpt lat="42.598999477922916" lon="1.426537306979299">
        <ele>2442.96</ele>
        <time>2025-07-17T08:57:32Z</time>
      </trkpt>
      <trkpt lat="42.598907109349966" lon="1.426567398011684">
        <ele>2443.3400000000001</ele>
        <time>2025-07-17T08:57:42Z</time>
      </trkpt>
      <trkpt lat="42.598823122680187" lon="1.426579719409347">
        <ele>2444.0599999999999</ele>
        <time>2025-07-17T08:57:54Z</time>
      </trkpt>
      <trkpt lat="42.598719606176019" lon="1.426607463508844">
        <ele>2445.5900000000001</ele>
        <time>2025-07-17T08:58:09Z</time>
      </trkpt>
      <trkpt lat="42.598631260916591" lon="1.426597656682134">
        <ele>2447.1900000000001</ele>
        <time>2025-07-17T08:58:24Z</time>
      </trkpt>
      <trkpt lat="42.598550207912922" lon="1.42655742354691">
        <ele>2450.8000000000002</ele>
        <time>2025-07-17T08:58:44Z</time>
      </trkpt>
      <trkpt lat="42.59846119210124" lon="1.426506377756596">
        <ele>2453.4299999999998</ele>
        <time>2025-07-17T08:59:06Z</time>
      </trkpt>
      <trkpt lat="42.598369577899575" lon="1.426474526524544">
        <ele>2455.6399999999999</ele>
        <time>2025-07-17T08:59:32Z</time>
      </trkpt>
      <trkpt lat="42.598279807716608" lon="1.426467737182975">
        <ele>2458.6199999999999</ele>
        <time>2025-07-17T08:59:55Z</time>
      </trkpt>
      <trkpt lat="42.598203364759684" lon="1.426519956439734">
        <ele>2460.5799999999999</ele>
        <time>2025-07-17T09:00:19Z</time>
      </trkpt>
      <trkpt lat="42.598144691437483" lon="1.42661064863205">
        <ele>2461.6300000000001</ele>
        <time>2025-07-17T09:00:33Z</time>
      </trkpt>
      <trkpt lat="42.598098674789071" lon="1.426674937829375">
        <ele>2463.6999999999998</ele>
        <time>2025-07-17T09:00:55Z</time>
      </trkpt>
      <trkpt lat="42.598058022558689" lon="1.426688013598323">
        <ele>2466.25</ele>
        <time>2025-07-17T09:01:21Z</time>
      </trkpt>
      <trkpt lat="42.598015191033483" lon="1.426784656941891">
        <ele>2467.8499999999999</ele>
        <time>2025-07-17T09:01:39Z</time>
      </trkpt>
      <trkpt lat="42.597944615408778" lon="1.426873086020351">
        <ele>2469.3699999999999</ele>
        <time>2025-07-17T09:01:55Z</time>
      </trkpt>
      <trkpt lat="42.597875548526645" lon="1.426966125145555">
        <ele>2470.6300000000001</ele>
        <time>2025-07-17T09:02:10Z</time>
      </trkpt>
      <trkpt lat="42.597816791385412" lon="1.427064696326852">
        <ele>2472.7800000000002</ele>
        <time>2025-07-17T09:02:29Z</time>
      </trkpt>
      <trkpt lat="42.597761219367385" lon="1.427159998565912">
        <ele>2472.96</ele>
        <time>2025-07-17T09:02:40Z</time>
      </trkpt>
      <trkpt lat="42.597689051181078" lon="1.427200064063072">
        <ele>2474.8899999999999</ele>
        <time>2025-07-17T09:02:56Z</time>
      </trkpt>
      <trkpt lat="42.597596095874906" lon="1.427244739606977">
        <ele>2476.54</ele>
        <time>2025-07-17T09:03:13Z</time>
      </trkpt>
      <trkpt lat="42.597536416724324" lon="1.4273333363235">
        <ele>2476.8400000000001</ele>
        <time>2025-07-17T09:03:23Z</time>
      </trkpt>
      <trkpt lat="42.597487298771739" lon="1.427432578057051">
        <ele>2477.9499999999998</ele>
        <time>2025-07-17T09:03:38Z</time>
      </trkpt>
      <trkpt lat="42.597453100606799" lon="1.427547996863723">
        <ele>2479.73</ele>
        <time>2025-07-17T09:03:57Z</time>
      </trkpt>
      <trkpt lat="42.59741990827024" lon="1.427660817280412">
        <ele>2479.2199999999998</ele>
        <time>2025-07-17T09:04:13Z</time>
      </trkpt>
      <trkpt lat="42.597341705113649" lon="1.427718987688422">
        <ele>2479.9400000000001</ele>
        <time>2025-07-17T09:04:27Z</time>
      </trkpt>
      <trkpt lat="42.59724598377943" lon="1.427740026265383">
        <ele>2481.4200000000001</ele>
        <time>2025-07-17T09:04:43Z</time>
      </trkpt>
      <trkpt lat="42.597229890525341" lon="1.427778666839004">
        <ele>2483.1700000000001</ele>
        <time>2025-07-17T09:07:06Z</time>
      </trkpt>
      <trkpt lat="42.597225029021502" lon="1.427872544154525">
        <ele>2482.8600000000001</ele>
        <time>2025-07-17T09:07:47Z</time>
      </trkpt>
      <trkpt lat="42.597203655168414" lon="1.427979581058025">
        <ele>2483.0300000000002</ele>
        <time>2025-07-17T09:08:02Z</time>
      </trkpt>
      <trkpt lat="42.597267692908645" lon="1.428040014579892">
        <ele>2484.3400000000001</ele>
        <time>2025-07-17T09:08:23Z</time>
      </trkpt>
      <trkpt lat="42.597279092296958" lon="1.428142357617617">
        <ele>2485.8200000000002</ele>
        <time>2025-07-17T09:08:56Z</time>
      </trkpt>
      <trkpt lat="42.597322510555387" lon="1.428236234933138">
        <ele>2488.6500000000001</ele>
        <time>2025-07-17T09:09:20Z</time>
      </trkpt>
      <trkpt lat="42.597347991541028" lon="1.428326675668359">
        <ele>2491.8699999999999</ele>
        <time>2025-07-17T09:09:43Z</time>
      </trkpt>
      <trkpt lat="42.597337765619159" lon="1.4284264203161">
        <ele>2494.6999999999998</ele>
        <time>2025-07-17T09:10:09Z</time>
      </trkpt>
      <trkpt lat="42.597367689013481" lon="1.428533289581537">
        <ele>2497.9699999999998</ele>
        <time>2025-07-17T09:10:38Z</time>
      </trkpt>
      <trkpt lat="42.597426194697618" lon="1.428616521880031">
        <ele>2501.96</ele>
        <time>2025-07-17T09:11:52Z</time>
      </trkpt>
      <trkpt lat="42.597520910203457" lon="1.428618701174855">
        <ele>2505.71</ele>
        <time>2025-07-17T09:12:24Z</time>
      </trkpt>
      <trkpt lat="42.597609758377075" lon="1.428644014522433">
        <ele>2507.0500000000002</ele>
        <time>2025-07-17T09:12:43Z</time>
      </trkpt>
      <trkpt lat="42.597620068117976" lon="1.428735796362162">
        <ele>2510.8099999999999</ele>
        <time>2025-07-17T09:13:07Z</time>
      </trkpt>
      <trkpt lat="42.597565334290266" lon="1.428822465240955">
        <ele>2514.3000000000002</ele>
        <time>2025-07-17T09:13:41Z</time>
      </trkpt>
      <trkpt lat="42.59757136926055" lon="1.428933357819915">
        <ele>2517.3400000000001</ele>
        <time>2025-07-17T09:14:10Z</time>
      </trkpt>
      <trkpt lat="42.597522921860218" lon="1.429018853232265">
        <ele>2519.1300000000001</ele>
        <time>2025-07-17T09:14:30Z</time>
      </trkpt>
      <trkpt lat="42.597470954060555" lon="1.429103007540107">
        <ele>2519.4000000000001</ele>
        <time>2025-07-17T09:14:48Z</time>
      </trkpt>
      <trkpt lat="42.597423763945699" lon="1.429189676418901">
        <ele>2520.7800000000002</ele>
        <time>2025-07-17T09:20:36Z</time>
      </trkpt>
      <trkpt lat="42.597389398142695" lon="1.429270813241601">
        <ele>2523.21</ele>
        <time>2025-07-17T09:36:59Z</time>
      </trkpt>
      <trkpt lat="42.597432313486934" lon="1.429231334477663">
        <ele>2525.8099999999999</ele>
        <time>2025-07-17T09:43:55Z</time>
      </trkpt>
      <trkpt lat="42.597506325691938" lon="1.42927123233676">
        <ele>2524.5700000000002</ele>
        <time>2025-07-17T09:44:15Z</time>
      </trkpt>
      <trkpt lat="42.597505738958716" lon="1.429399894550443">
        <ele>2523.5900000000001</ele>
        <time>2025-07-17T09:44:52Z</time>
      </trkpt>
      <trkpt lat="42.597480425611138" lon="1.429518666118383">
        <ele>2522.2399999999998</ele>
        <time>2025-07-17T09:45:01Z</time>
      </trkpt>
      <trkpt lat="42.597483359277248" lon="1.429642969742417">
        <ele>2522.02</ele>
        <time>2025-07-17T09:45:11Z</time>
      </trkpt>
      <trkpt lat="42.597480425611138" lon="1.429770793765783">
        <ele>2520.9400000000001</ele>
        <time>2025-07-17T09:45:31Z</time>
      </trkpt>
      <trkpt lat="42.59748294018209" lon="1.429897025227547">
        <ele>2520.3099999999999</ele>
        <time>2025-07-17T09:45:41Z</time>
      </trkpt>
      <trkpt lat="42.597487885504961" lon="1.430022586137056">
        <ele>2519.6199999999999</ele>
        <time>2025-07-17T09:45:52Z</time>
      </trkpt>
      <trkpt lat="42.597478246316314" lon="1.430152589455247">
        <ele>2518.3299999999999</ele>
        <time>2025-07-17T09:46:04Z</time>
      </trkpt>
      <trkpt lat="42.597462739795446" lon="1.430282173678279">
        <ele>2518.0500000000002</ele>
        <time>2025-07-17T09:46:15Z</time>
      </trkpt>
      <trkpt lat="42.597459722310305" lon="1.43040387891233">
        <ele>2517.5500000000002</ele>
        <time>2025-07-17T09:46:29Z</time>
      </trkpt>
      <trkpt lat="42.597439186647534" lon="1.430488368496299">
        <ele>2516.1199999999999</ele>
        <time>2025-07-17T09:46:47Z</time>
      </trkpt>
      <trkpt lat="42.597446227446198" lon="1.430610911920667">
        <ele>2513.75</ele>
        <time>2025-07-17T09:47:03Z</time>
      </trkpt>
      <trkpt lat="42.597445975989103" lon="1.43073471263051">
        <ele>2511.6999999999998</ele>
        <time>2025-07-17T09:47:21Z</time>
      </trkpt>
      <trkpt lat="42.597439019009471" lon="1.430856920778751">
        <ele>2509.5</ele>
        <time>2025-07-17T09:47:40Z</time>
      </trkpt>
      <trkpt lat="42.597442120313644" lon="1.430984409525991">
        <ele>2506.8600000000001</ele>
        <time>2025-07-17T09:48:10Z</time>
      </trkpt>
      <trkpt lat="42.597443712875247" lon="1.431111143901944">
        <ele>2503.4400000000001</ele>
        <time>2025-07-17T09:48:31Z</time>
      </trkpt>
      <trkpt lat="42.597451927140355" lon="1.431212984025478">
        <ele>2499.6999999999998</ele>
        <time>2025-07-17T09:48:53Z</time>
      </trkpt>
      <trkpt lat="42.597457626834512" lon="1.431327480822802">
        <ele>2496.4499999999998</ele>
        <time>2025-07-17T09:49:17Z</time>
      </trkpt>
      <trkpt lat="42.597481515258551" lon="1.431455556303263">
        <ele>2493.6700000000001</ele>
        <time>2025-07-17T09:49:51Z</time>
      </trkpt>
      <trkpt lat="42.597546642646194" lon="1.431519594043493">
        <ele>2494.8899999999999</ele>
        <time>2025-07-17T09:50:31Z</time>
      </trkpt>
      <trkpt lat="42.597624259069562" lon="1.43159125931561">
        <ele>2494.46</ele>
        <time>2025-07-17T09:50:49Z</time>
      </trkpt>
      <trkpt lat="42.597661139443517" lon="1.431707348674536">
        <ele>2493.71</ele>
        <time>2025-07-17T09:50:59Z</time>
      </trkpt>
      <trkpt lat="42.597727691754699" lon="1.431793347001076">
        <ele>2493.5700000000002</ele>
        <time>2025-07-17T09:51:10Z</time>
      </trkpt>
      <trkpt lat="42.59781377390027" lon="1.431834502145648">
        <ele>2493.96</ele>
        <time>2025-07-17T09:51:21Z</time>
      </trkpt>
      <trkpt lat="42.597845960408449" lon="1.431941455230117">
        <ele>2494.1599999999999</ele>
        <time>2025-07-17T09:51:32Z</time>
      </trkpt>
      <trkpt lat="42.597810421139002" lon="1.432065172120929">
        <ele>2494.25</ele>
        <time>2025-07-17T09:51:55Z</time>
      </trkpt>
      <trkpt lat="42.597784353420138" lon="1.432182937860489">
        <ele>2494.1799999999998</ele>
        <time>2025-07-17T09:52:11Z</time>
      </trkpt>
      <trkpt lat="42.597763985395432" lon="1.432303050532937">
        <ele>2494.9899999999998</ele>
        <time>2025-07-17T09:52:33Z</time>
      </trkpt>
      <trkpt lat="42.597745377570391" lon="1.432409752160311">
        <ele>2497.6799999999998</ele>
        <time>2025-07-17T09:53:08Z</time>
      </trkpt>
      <trkpt lat="42.597662983462214" lon="1.432493822649121">
        <ele>2496.9699999999998</ele>
        <time>2025-07-17T09:53:22Z</time>
      </trkpt>
      <trkpt lat="42.597554940730333" lon="1.432525841519237">
        <ele>2496.6199999999999</ele>
        <time>2025-07-17T09:54:01Z</time>
      </trkpt>
      <trkpt lat="42.59746877476573" lon="1.43257831223309">
        <ele>2495.1799999999998</ele>
        <time>2025-07-17T09:54:18Z</time>
      </trkpt>
      <trkpt lat="42.597380094230175" lon="1.432643188163638">
        <ele>2493.21</ele>
        <time>2025-07-17T09:54:29Z</time>
      </trkpt>
      <trkpt lat="42.597291748970747" lon="1.43268283456564">
        <ele>2492.1599999999999</ele>
        <time>2025-07-17T09:54:38Z</time>
      </trkpt>
      <trkpt lat="42.597213964909315" lon="1.43276640214026">
        <ele>2492.1599999999999</ele>
        <time>2025-07-17T09:54:48Z</time>
      </trkpt>
      <trkpt lat="42.597138779237866" lon="1.432835133746266">
        <ele>2490.8600000000001</ele>
        <time>2025-07-17T09:55:05Z</time>
      </trkpt>
      <trkpt lat="42.597060073167086" lon="1.432886347174645">
        <ele>2492.6500000000001</ele>
        <time>2025-07-17T09:55:33Z</time>
      </trkpt>
      <trkpt lat="42.596965692937374" lon="1.432907721027732">
        <ele>2492.9000000000001</ele>
        <time>2025-07-17T09:56:01Z</time>
      </trkpt>
      <trkpt lat="42.596875336021185" lon="1.432918114587665">
        <ele>2493.0999999999999</ele>
        <time>2025-07-17T09:56:25Z</time>
      </trkpt>
      <trkpt lat="42.59677835740149" lon="1.432936722412705">
        <ele>2492.6900000000001</ele>
        <time>2025-07-17T09:56:59Z</time>
      </trkpt>
      <trkpt lat="42.596693951636553" lon="1.432893555611372">
        <ele>2493.1300000000001</ele>
        <time>2025-07-17T09:57:21Z</time>
      </trkpt>
      <trkpt lat="42.596632763743401" lon="1.432816525921226">
        <ele>2492.8600000000001</ele>
        <time>2025-07-17T09:57:43Z</time>
      </trkpt>
      <trkpt lat="42.596563613042235" lon="1.432746704667807">
        <ele>2494.23</ele>
        <time>2025-07-17T09:58:07Z</time>
      </trkpt>
      <trkpt lat="42.596476608887315" lon="1.432691887021065">
        <ele>2494.75</ele>
        <time>2025-07-17T09:58:33Z</time>
      </trkpt>
      <trkpt lat="42.59639086201787" lon="1.432653497904539">
        <ele>2496.8299999999999</ele>
        <time>2025-07-17T09:58:53Z</time>
      </trkpt>
      <trkpt lat="42.596329171210527" lon="1.432654252275825">
        <ele>2498.7399999999998</ele>
        <time>2025-07-17T10:00:18Z</time>
      </trkpt>
      <trkpt lat="42.596259266138077" lon="1.432713260874152">
        <ele>2501.3400000000001</ele>
        <time>2025-07-17T10:00:37Z</time>
      </trkpt>
      <trkpt lat="42.596195479854941" lon="1.432803869247437">
        <ele>2504.0900000000001</ele>
        <time>2025-07-17T10:00:57Z</time>
      </trkpt>
      <trkpt lat="42.596142338588834" lon="1.43289933912456">
        <ele>2506.21</ele>
        <time>2025-07-17T10:01:18Z</time>
      </trkpt>
      <trkpt lat="42.596133705228567" lon="1.433005286380649">
        <ele>2508.6599999999999</ele>
        <time>2025-07-17T10:01:45Z</time>
      </trkpt>
      <trkpt lat="42.596138399094343" lon="1.433120621368289">
        <ele>2512.2800000000002</ele>
        <time>2025-07-17T10:02:18Z</time>
      </trkpt>
      <trkpt lat="42.596154240891337" lon="1.433234279975295">
        <ele>2516.5999999999999</ele>
        <time>2025-07-17T10:02:50Z</time>
      </trkpt>
      <trkpt lat="42.596172010526061" lon="1.433354644104838">
        <ele>2517.9699999999998</ele>
        <time>2025-07-17T10:03:15Z</time>
      </trkpt>
      <trkpt lat="42.596162036061287" lon="1.43346419557929">
        <ele>2521.1199999999999</ele>
        <time>2025-07-17T10:03:49Z</time>
      </trkpt>
      <trkpt lat="42.596117444336414" lon="1.433570729568601">
        <ele>2525.1900000000001</ele>
        <time>2025-07-17T10:04:23Z</time>
      </trkpt>
      <trkpt lat="42.596178213134408" lon="1.433636611327529">
        <ele>2529.4400000000001</ele>
        <time>2025-07-17T10:05:06Z</time>
      </trkpt>
      <trkpt lat="42.59616119787097" lon="1.433751862496138">
        <ele>2532.4400000000001</ele>
        <time>2025-07-17T10:06:01Z</time>
      </trkpt>
      <trkpt lat="42.596182152628899" lon="1.433854708448052">
        <ele>2536.8699999999999</ele>
        <time>2025-07-17T10:06:31Z</time>
      </trkpt>
      <trkpt lat="42.596226660534739" lon="1.433914387598634">
        <ele>2542.3800000000001</ele>
        <time>2025-07-17T10:07:19Z</time>
      </trkpt>
      <trkpt lat="42.596251806244254" lon="1.434028213843703">
        <ele>2545.8499999999999</ele>
        <time>2025-07-17T10:07:53Z</time>
      </trkpt>
      <trkpt lat="42.596278712153435" lon="1.434118151664734">
        <ele>2550.46</ele>
        <time>2025-07-17T10:08:50Z</time>
      </trkpt>
      <trkpt lat="42.59626186452806" lon="1.43419811502099">
        <ele>2554.25</ele>
        <time>2025-07-17T10:09:19Z</time>
      </trkpt>
      <trkpt lat="42.596275778487325" lon="1.434299116954207">
        <ele>2558.4000000000001</ele>
        <time>2025-07-17T10:09:55Z</time>
      </trkpt>
      <trkpt lat="42.596287094056606" lon="1.434409422799945">
        <ele>2560.1100000000001</ele>
        <time>2025-07-17T10:10:14Z</time>
      </trkpt>
      <trkpt lat="42.596251638606191" lon="1.434523835778236">
        <ele>2561.3899999999999</ele>
        <time>2025-07-17T10:10:33Z</time>
      </trkpt>
      <trkpt lat="42.596192881464958" lon="1.434613019227982">
        <ele>2564.8499999999999</ele>
        <time>2025-07-17T10:10:57Z</time>
      </trkpt>
      <trkpt lat="42.596131861209869" lon="1.434702873229981">
        <ele>2565.79</ele>
        <time>2025-07-17T10:11:14Z</time>
      </trkpt>
      <trkpt lat="42.596128089353442" lon="1.434816867113113">
        <ele>2564.3200000000002</ele>
        <time>2025-07-17T10:11:31Z</time>
      </trkpt>
      <trkpt lat="42.596102440729737" lon="1.434931699186564">
        <ele>2561.73</ele>
        <time>2025-07-17T10:11:44Z</time>
      </trkpt>
      <trkpt lat="42.596070924773812" lon="1.435046782717109">
        <ele>2560.27</ele>
        <time>2025-07-17T10:11:54Z</time>
      </trkpt>
      <trkpt lat="42.596050472930074" lon="1.435173349454999">
        <ele>2560.0500000000002</ele>
        <time>2025-07-17T10:12:05Z</time>
      </trkpt>
      <trkpt lat="42.596063883975148" lon="1.435297653079033">
        <ele>2559.5300000000002</ele>
        <time>2025-07-17T10:12:16Z</time>
      </trkpt>
      <trkpt lat="42.59599749930203" lon="1.435386752709746">
        <ele>2559.6399999999999</ele>
        <time>2025-07-17T10:12:29Z</time>
      </trkpt>
      <trkpt lat="42.595959110185504" lon="1.435482893139124">
        <ele>2561.8299999999999</ele>
        <time>2025-07-17T10:12:49Z</time>
      </trkpt>
      <trkpt lat="42.595945112407207" lon="1.435571573674679">
        <ele>2564.8000000000002</ele>
        <time>2025-07-17T10:13:10Z</time>
      </trkpt>
      <trkpt lat="42.595932371914387" lon="1.435693614184856">
        <ele>2567.3600000000001</ele>
        <time>2025-07-17T10:14:17Z</time>
      </trkpt>
      <trkpt lat="42.59590370580554" lon="1.435813559219241">
        <ele>2569.9200000000001</ele>
        <time>2025-07-17T10:14:36Z</time>
      </trkpt>
      <trkpt lat="42.595841512084007" lon="1.435860497877002">
        <ele>2573.3200000000002</ele>
        <time>2025-07-17T10:14:56Z</time>
      </trkpt>
      <trkpt lat="42.595778647810221" lon="1.435948926955462">
        <ele>2576.3200000000002</ele>
        <time>2025-07-17T10:15:20Z</time>
      </trkpt>
      <trkpt lat="42.595704635605216" lon="1.435977760702372">
        <ele>2578.0799999999999</ele>
        <time>2025-07-17T10:15:46Z</time>
      </trkpt>
      <trkpt lat="42.595630288124084" lon="1.43590877763927">
        <ele>2578.4400000000001</ele>
        <time>2025-07-17T10:16:00Z</time>
      </trkpt>
      <trkpt lat="42.595569603145123" lon="1.43582227639854">
        <ele>2579.3499999999999</ele>
        <time>2025-07-17T10:16:15Z</time>
      </trkpt>
      <trkpt lat="42.595507074147463" lon="1.435732590034604">
        <ele>2580.23</ele>
        <time>2025-07-17T10:16:29Z</time>
      </trkpt>
      <trkpt lat="42.595425937324762" lon="1.435684394091368">
        <ele>2581.54</ele>
        <time>2025-07-17T10:16:47Z</time>
      </trkpt>
      <trkpt lat="42.595355277881026" lon="1.435625720769167">
        <ele>2582.8000000000002</ele>
        <time>2025-07-17T10:17:02Z</time>
      </trkpt>
      <trkpt lat="42.595295934006572" lon="1.435702750459313">
        <ele>2582.9499999999998</ele>
        <time>2025-07-17T10:17:17Z</time>
      </trkpt>
      <trkpt lat="42.595268860459328" lon="1.435828059911728">
        <ele>2584.04</ele>
        <time>2025-07-17T10:17:34Z</time>
      </trkpt>
      <trkpt lat="42.595184622332454" lon="1.435867203399539">
        <ele>2583.7600000000002</ele>
        <time>2025-07-17T10:17:48Z</time>
      </trkpt>
      <trkpt lat="42.595179928466678" lon="1.435993853956461">
        <ele>2585.5300000000002</ele>
        <time>2025-07-17T10:18:07Z</time>
      </trkpt>
      <trkpt lat="42.595151597633958" lon="1.436096029356122">
        <ele>2585.3299999999999</ele>
        <time>2025-07-17T10:18:27Z</time>
      </trkpt>
      <trkpt lat="42.595079261809587" lon="1.436142968013883">
        <ele>2584.8699999999999</ele>
        <time>2025-07-17T10:18:47Z</time>
      </trkpt>
      <trkpt lat="42.595090996474028" lon="1.436275318264961">
        <ele>2587.5999999999999</ele>
        <time>2025-07-17T10:19:47Z</time>
      </trkpt>
      <trkpt lat="42.595047829672694" lon="1.436384283006191">
        <ele>2590.0900000000001</ele>
        <time>2025-07-17T10:20:24Z</time>
      </trkpt>
      <trkpt lat="42.594984378665686" lon="1.436468688771129">
        <ele>2592.4099999999999</ele>
        <time>2025-07-17T10:20:55Z</time>
      </trkpt>
      <trkpt lat="42.594921011477709" lon="1.43651713617146">
        <ele>2594.8400000000001</ele>
        <time>2025-07-17T10:21:20Z</time>
      </trkpt>
      <trkpt lat="42.59487759321928" lon="1.436611600220203">
        <ele>2597.1599999999999</ele>
        <time>2025-07-17T10:22:18Z</time>
      </trkpt>
      <trkpt lat="42.594826212152839" lon="1.436686785891652">
        <ele>2600.7800000000002</ele>
        <time>2025-07-17T10:22:49Z</time>
      </trkpt>
      <trkpt lat="42.594764772802591" lon="1.436732802540064">
        <ele>2604.6799999999998</ele>
        <time>2025-07-17T10:23:32Z</time>
      </trkpt>
      <trkpt lat="42.594727892428637" lon="1.436825087293983">
        <ele>2607.8499999999999</ele>
        <time>2025-07-17T10:24:17Z</time>
      </trkpt>
      <trkpt lat="42.59468212723732" lon="1.436902284622192">
        <ele>2610.5100000000002</ele>
        <time>2025-07-17T10:24:56Z</time>
      </trkpt>
      <trkpt lat="42.594628985971212" lon="1.436949810013175">
        <ele>2613.9099999999999</ele>
        <time>2025-07-17T10:25:31Z</time>
      </trkpt>
      <trkpt lat="42.594608701765537" lon="1.437034467235208">
        <ele>2617.3299999999999</ele>
        <time>2025-07-17T10:26:17Z</time>
      </trkpt>
      <trkpt lat="42.594528989866376" lon="1.437027510255575">
        <ele>2620.3800000000001</ele>
        <time>2025-07-17T10:26:54Z</time>
      </trkpt>
      <trkpt lat="42.594429161399603" lon="1.437003873288631">
        <ele>2623.6999999999998</ele>
        <time>2025-07-17T10:27:25Z</time>
      </trkpt>
      <trkpt lat="42.594343414530158" lon="1.436975039541721">
        <ele>2626.8699999999999</ele>
        <time>2025-07-17T10:27:53Z</time>
      </trkpt>
      <trkpt lat="42.594256578013301" lon="1.437017703428865">
        <ele>2630.46</ele>
        <time>2025-07-17T10:28:45Z</time>
      </trkpt>
      <trkpt lat="42.594168735668063" lon="1.437056260183454">
        <ele>2634.7399999999998</ele>
        <time>2025-07-17T10:29:23Z</time>
      </trkpt>
      <trkpt lat="42.594078630208969" lon="1.437083166092634">
        <ele>2637.8000000000002</ele>
        <time>2025-07-17T10:30:18Z</time>
      </trkpt>
      <trkpt lat="42.594076450914145" lon="1.437197243794799">
        <ele>2642</ele>
        <time>2025-07-17T10:31:03Z</time>
      </trkpt>
      <trkpt lat="42.594001851975918" lon="1.437278212979436">
        <ele>2648.3600000000001</ele>
        <time>2025-07-17T10:32:01Z</time>
      </trkpt>
      <trkpt lat="42.593949548900127" lon="1.437311070039868">
        <ele>2650.6999999999998</ele>
        <time>2025-07-17T10:32:53Z</time>
      </trkpt>
      <trkpt lat="42.593891797587276" lon="1.437337137758732">
        <ele>2653.0100000000002</ele>
        <time>2025-07-17T10:33:17Z</time>
      </trkpt>
      <trkpt lat="42.593787610530853" lon="1.437318194657564">
        <ele>2655.8299999999999</ele>
        <time>2025-07-17T10:33:55Z</time>
      </trkpt>
      <trkpt lat="42.593692559748888" lon="1.437314841896296">
        <ele>2659.2800000000002</ele>
        <time>2025-07-17T10:34:35Z</time>
      </trkpt>
      <trkpt lat="42.593606980517507" lon="1.437332443892956">
        <ele>2661.7199999999998</ele>
        <time>2025-07-17T10:35:23Z</time>
      </trkpt>
      <trkpt lat="42.59352165274322" lon="1.437396984547377">
        <ele>2664.6799999999998</ele>
        <time>2025-07-17T10:35:56Z</time>
      </trkpt>
      <trkpt lat="42.59342685341835" lon="1.437434535473585">
        <ele>2667.0100000000002</ele>
        <time>2025-07-17T10:36:54Z</time>
      </trkpt>
      <trkpt lat="42.593335742130876" lon="1.437371922656894">
        <ele>2668.9400000000001</ele>
        <time>2025-07-17T10:37:12Z</time>
      </trkpt>
      <trkpt lat="42.593278326094151" lon="1.437373934313655">
        <ele>2672.0999999999999</ele>
        <time>2025-07-17T10:37:29Z</time>
      </trkpt>
      <trkpt lat="42.593210600316525" lon="1.437417771667242">
        <ele>2677.0999999999999</ele>
        <time>2025-07-17T10:38:13Z</time>
      </trkpt>
      <trkpt lat="42.593200709670782" lon="1.437490275129676">
        <ele>2680.6999999999998</ele>
        <time>2025-07-17T10:39:09Z</time>
      </trkpt>
      <trkpt lat="42.593111023306847" lon="1.437526317313314">
        <ele>2687.1999999999998</ele>
        <time>2025-07-17T10:40:12Z</time>
      </trkpt>
      <trkpt lat="42.593059809878469" lon="1.43760091625154">
        <ele>2691.5300000000002</ele>
        <time>2025-07-17T10:40:54Z</time>
      </trkpt>
      <trkpt lat="42.593043465167284" lon="1.437652800232172">
        <ele>2694.6500000000001</ele>
        <time>2025-07-17T10:41:35Z</time>
      </trkpt>
      <trkpt lat="42.59303298778832" lon="1.437694793567061">
        <ele>2698.6999999999998</ele>
        <time>2025-07-17T10:42:23Z</time>
      </trkpt>
      <trkpt lat="42.593046566471457" lon="1.437749024480581">
        <ele>2700.6399999999999</ele>
        <time>2025-07-17T10:42:43Z</time>
      </trkpt>
      <trkpt lat="42.593027539551258" lon="1.437816834077239">
        <ele>2704.6900000000001</ele>
        <time>2025-07-17T10:43:17Z</time>
      </trkpt>
      <trkpt lat="42.592971883714199" lon="1.437847511842847">
        <ele>2707.75</ele>
        <time>2025-07-17T10:43:49Z</time>
      </trkpt>
      <trkpt lat="42.59289326146245" lon="1.437908867374063">
        <ele>2709.5500000000002</ele>
        <time>2025-07-17T10:44:40Z</time>
      </trkpt>
      <trkpt lat="42.592874653637409" lon="1.437964187934995">
        <ele>2715.5700000000002</ele>
        <time>2025-07-17T10:45:52Z</time>
      </trkpt>
      <trkpt lat="42.592929219827056" lon="1.438087988644838">
        <ele>2722.0100000000002</ele>
        <time>2025-07-17T10:47:08Z</time>
      </trkpt>
      <trkpt lat="42.59285906329751" lon="1.43814766779542">
        <ele>2727.3400000000001</ele>
        <time>2025-07-17T10:47:57Z</time>
      </trkpt>
      <trkpt lat="42.592849088832736" lon="1.438301810994744">
        <ele>2737.3800000000001</ele>
        <time>2025-07-17T10:49:27Z</time>
      </trkpt>
      <trkpt lat="42.592851016670465" lon="1.438406081870198">
        <ele>2743.0999999999999</ele>
        <time>2025-07-17T10:50:26Z</time>
      </trkpt>
      <trkpt lat="42.592817824333906" lon="1.438503563404083">
        <ele>2749.3299999999999</ele>
        <time>2025-07-17T10:51:31Z</time>
      </trkpt>
      <trkpt lat="42.592835258692503" lon="1.438593501225114">
        <ele>2755.0799999999999</ele>
        <time>2025-07-17T10:52:16Z</time>
      </trkpt>
      <trkpt lat="42.59284246712923" lon="1.4386563654989">
        <ele>2758.73</ele>
        <time>2025-07-17T10:52:54Z</time>
      </trkpt>
      <trkpt lat="42.592833247035742" lon="1.438750578090549">
        <ele>2762.29</ele>
        <time>2025-07-17T10:53:29Z</time>
      </trkpt>
      <trkpt lat="42.592750517651439" lon="1.438755942508578">
        <ele>2769.0599999999999</ele>
        <time>2025-07-17T10:53:57Z</time>
      </trkpt>
      <trkpt lat="42.592681283131242" lon="1.438786871731281">
        <ele>2767.5700000000002</ele>
        <time>2025-07-17T10:54:43Z</time>
      </trkpt>
      <trkpt lat="42.592608025297523" lon="1.438783770427108">
        <ele>2764.27</ele>
        <time>2025-07-17T10:55:14Z</time>
      </trkpt>
      <trkpt lat="42.59256049990654" lon="1.438732892274857">
        <ele>2772.5100000000002</ele>
        <time>2025-07-17T11:31:26Z</time>
      </trkpt>
      <trkpt lat="42.592564187943935" lon="1.438762648031116">
        <ele>2773.5500000000002</ele>
        <time>2025-07-17T11:32:32Z</time>
      </trkpt>
      <trkpt lat="42.59253409691155" lon="1.438885442912579">
        <ele>2772.6300000000001</ele>
        <time>2025-07-17T11:32:47Z</time>
      </trkpt>
      <trkpt lat="42.592467963695526" lon="1.438970016315579">
        <ele>2767.77</ele>
        <time>2025-07-17T11:33:03Z</time>
      </trkpt>
      <trkpt lat="42.592440890148282" lon="1.439086608588696">
        <ele>2767.0599999999999</ele>
        <time>2025-07-17T11:33:19Z</time>
      </trkpt>
      <trkpt lat="42.592418426647782" lon="1.439201524481177">
        <ele>2764.3899999999999</ele>
        <time>2025-07-17T11:33:41Z</time>
      </trkpt>
      <trkpt lat="42.592354472726583" lon="1.439296826720238">
        <ele>2762.1700000000001</ele>
        <time>2025-07-17T11:33:59Z</time>
      </trkpt>
      <trkpt lat="42.592275347560644" lon="1.439362457022071">
        <ele>2759.9699999999998</ele>
        <time>2025-07-17T11:34:20Z</time>
      </trkpt>
      <trkpt lat="42.592186331748962" lon="1.439358182251453">
        <ele>2756.7399999999998</ele>
        <time>2025-07-17T11:34:34Z</time>
      </trkpt>
      <trkpt lat="42.592089101672173" lon="1.439367905259132">
        <ele>2754.7199999999998</ele>
        <time>2025-07-17T11:34:59Z</time>
      </trkpt>
      <trkpt lat="42.592026572674513" lon="1.439416185021401">
        <ele>2751.54</ele>
        <time>2025-07-17T11:35:23Z</time>
      </trkpt>
      <trkpt lat="42.591958260163665" lon="1.439470751211047">
        <ele>2749.3200000000002</ele>
        <time>2025-07-17T11:35:39Z</time>
      </trkpt>
      <trkpt lat="42.591868238523602" lon="1.439505703747273">
        <ele>2745.9099999999999</ele>
        <time>2025-07-17T11:35:56Z</time>
      </trkpt>
      <trkpt lat="42.591786263510585" lon="1.439494136720896">
        <ele>2742.5700000000002</ele>
        <time>2025-07-17T11:36:22Z</time>
      </trkpt>
      <trkpt lat="42.591723147779703" lon="1.439429596066475">
        <ele>2738.6700000000001</ele>
        <time>2025-07-17T11:36:41Z</time>
      </trkpt>
      <trkpt lat="42.591654667630792" lon="1.439360026270151">
        <ele>2734.77</ele>
        <time>2025-07-17T11:37:03Z</time>
      </trkpt>
      <trkpt lat="42.591606806963682" lon="1.439282326027751">
        <ele>2732.0900000000001</ele>
        <time>2025-07-17T11:37:19Z</time>
      </trkpt>
      <trkpt lat="42.591543775051832" lon="1.439234716817737">
        <ele>2728.9099999999999</ele>
        <time>2025-07-17T11:37:36Z</time>
      </trkpt>
      <trkpt lat="42.591463476419449" lon="1.43922558054328">
        <ele>2726.1100000000001</ele>
        <time>2025-07-17T11:38:04Z</time>
      </trkpt>
      <trkpt lat="42.591411005705595" lon="1.439167996868491">
        <ele>2723.5900000000001</ele>
        <time>2025-07-17T11:38:22Z</time>
      </trkpt>
      <trkpt lat="42.591356942430139" lon="1.439077304676175">
        <ele>2721.04</ele>
        <time>2025-07-17T11:38:36Z</time>
      </trkpt>
      <trkpt lat="42.591262478381395" lon="1.439050314947963">
        <ele>2719.7199999999998</ele>
        <time>2025-07-17T11:38:49Z</time>
      </trkpt>
      <trkpt lat="42.59119575843215" lon="1.438975380733609">
        <ele>2718.0599999999999</ele>
        <time>2025-07-17T11:39:01Z</time>
      </trkpt>
      <trkpt lat="42.591115711256862" lon="1.438945373520255">
        <ele>2716.5</ele>
        <time>2025-07-17T11:39:15Z</time>
      </trkpt>
      <trkpt lat="42.591025941073895" lon="1.438908409327269">
        <ele>2714.2399999999998</ele>
        <time>2025-07-17T11:39:29Z</time>
      </trkpt>
      <trkpt lat="42.590943295508623" lon="1.438874043524265">
        <ele>2711.0999999999999</ele>
        <time>2025-07-17T11:39:44Z</time>
      </trkpt>
      <trkpt lat="42.590897278860211" lon="1.438776981085539">
        <ele>2707.4699999999998</ele>
        <time>2025-07-17T11:39:59Z</time>
      </trkpt>
      <trkpt lat="42.590799126774073" lon="1.438765414059162">
        <ele>2704.9099999999999</ele>
        <time>2025-07-17T11:40:13Z</time>
      </trkpt>
      <trkpt lat="42.590788146480918" lon="1.438629291951656">
        <ele>2702.5900000000001</ele>
        <time>2025-07-17T11:40:26Z</time>
      </trkpt>
      <trkpt lat="42.59077993221581" lon="1.438505072146654">
        <ele>2700.8699999999999</ele>
        <time>2025-07-17T11:40:39Z</time>
      </trkpt>
      <trkpt lat="42.590715056285262" lon="1.438456205651164">
        <ele>2698.0900000000001</ele>
        <time>2025-07-17T11:40:55Z</time>
      </trkpt>
      <trkpt lat="42.590637104585767" lon="1.438408261165023">
        <ele>2695.2399999999998</ele>
        <time>2025-07-17T11:41:11Z</time>
      </trkpt>
      <trkpt lat="42.590554794296622" lon="1.438407422974706">
        <ele>2692.5100000000002</ele>
        <time>2025-07-17T11:41:28Z</time>
      </trkpt>
      <trkpt lat="42.590460246428847" lon="1.438439022749662">
        <ele>2690.79</ele>
        <time>2025-07-17T11:41:42Z</time>
      </trkpt>
      <trkpt lat="42.590381624177098" lon="1.438386216759682">
        <ele>2687.8000000000002</ele>
        <time>2025-07-17T11:41:57Z</time>
      </trkpt>
      <trkpt lat="42.590290848165751" lon="1.438419409096241">
        <ele>2686.2600000000002</ele>
        <time>2025-07-17T11:42:13Z</time>
      </trkpt>
      <trkpt lat="42.590205520391464" lon="1.43838856369257">
        <ele>2683.6700000000001</ele>
        <time>2025-07-17T11:42:28Z</time>
      </trkpt>
      <trkpt lat="42.590147852897644" lon="1.438303319737315">
        <ele>2680.7199999999998</ele>
        <time>2025-07-17T11:42:43Z</time>
      </trkpt>
      <trkpt lat="42.590098148211837" lon="1.4382004737854">
        <ele>2677.29</ele>
        <time>2025-07-17T11:43:02Z</time>
      </trkpt>
      <trkpt lat="42.590010641142726" lon="1.438195025548339">
        <ele>2674.4099999999999</ele>
        <time>2025-07-17T11:43:18Z</time>
      </trkpt>
      <trkpt lat="42.589950542896986" lon="1.438107853755355">
        <ele>2670.7800000000002</ele>
        <time>2025-07-17T11:43:34Z</time>
      </trkpt>
      <trkpt lat="42.589865382760763" lon="1.438063597306609">
        <ele>2668.8899999999999</ele>
        <time>2025-07-17T11:43:54Z</time>
      </trkpt>
      <trkpt lat="42.589772175997496" lon="1.438030572608113">
        <ele>2666.0500000000002</ele>
        <time>2025-07-17T11:44:10Z</time>
      </trkpt>
      <trkpt lat="42.589677963405848" lon="1.438002325594425">
        <ele>2664.0300000000002</ele>
        <time>2025-07-17T11:44:25Z</time>
      </trkpt>
      <trkpt lat="42.589584337547421" lon="1.43797567114234">
        <ele>2661.2399999999998</ele>
        <time>2025-07-17T11:44:38Z</time>
      </trkpt>
      <trkpt lat="42.589497584849596" lon="1.437937114387751">
        <ele>2658.9200000000001</ele>
        <time>2025-07-17T11:44:53Z</time>
      </trkpt>
      <trkpt lat="42.589417118579149" lon="1.437892522662878">
        <ele>2656.9099999999999</ele>
        <time>2025-07-17T11:45:08Z</time>
      </trkpt>
      <trkpt lat="42.589334473013878" lon="1.43785254098475">
        <ele>2654.9000000000001</ele>
        <time>2025-07-17T11:45:22Z</time>
      </trkpt>
      <trkpt lat="42.58926322683692" lon="1.437790933996439">
        <ele>2652.2800000000002</ele>
        <time>2025-07-17T11:45:37Z</time>
      </trkpt>
      <trkpt lat="42.589185023680329" lon="1.437741313129664">
        <ele>2649.5900000000001</ele>
        <time>2025-07-17T11:45:51Z</time>
      </trkpt>
      <trkpt lat="42.589098941534758" lon="1.437694542109966">
        <ele>2648.02</ele>
        <time>2025-07-17T11:46:04Z</time>
      </trkpt>
      <trkpt lat="42.589011937379837" lon="1.43764877691865">
        <ele>2647.0799999999999</ele>
        <time>2025-07-17T11:46:17Z</time>
      </trkpt>
      <trkpt lat="42.588943792507052" lon="1.43757694400847">
        <ele>2644.5300000000002</ele>
        <time>2025-07-17T11:46:38Z</time>
      </trkpt>
      <trkpt lat="42.588851004838943" lon="1.437551211565733">
        <ele>2642.1399999999999</ele>
        <time>2025-07-17T11:46:55Z</time>
      </trkpt>
      <trkpt lat="42.58876676671207" lon="1.437508631497622">
        <ele>2639.4499999999998</ele>
        <time>2025-07-17T11:47:12Z</time>
      </trkpt>
      <trkpt lat="42.588663836941123" lon="1.437502764165402">
        <ele>2638.6199999999999</ele>
        <time>2025-07-17T11:47:48Z</time>
      </trkpt>
      <trkpt lat="42.5885718036443" lon="1.437532603740692">
        <ele>2639.98</ele>
        <time>2025-07-17T11:48:03Z</time>
      </trkpt>
      <trkpt lat="42.588479686528444" lon="1.437590103596449">
        <ele>2641.8600000000001</ele>
        <time>2025-07-17T11:48:23Z</time>
      </trkpt>
      <trkpt lat="42.588396538048983" lon="1.437643328681588">
        <ele>2641.1199999999999</ele>
        <time>2025-07-17T11:48:38Z</time>
      </trkpt>
      <trkpt lat="42.588322022929788" lon="1.43770451657474">
        <ele>2639.7600000000002</ele>
        <time>2025-07-17T11:48:52Z</time>
      </trkpt>
      <trkpt lat="42.588251698762178" lon="1.43776897341013">
        <ele>2637.9400000000001</ele>
        <time>2025-07-17T11:49:05Z</time>
      </trkpt>
      <trkpt lat="42.588157821446657" lon="1.437807446345687">
        <ele>2637.9899999999998</ele>
        <time>2025-07-17T11:49:16Z</time>
      </trkpt>
      <trkpt lat="42.58806805126369" lon="1.437842901796103">
        <ele>2636.9299999999998</ele>
        <time>2025-07-17T11:49:28Z</time>
      </trkpt>
      <trkpt lat="42.587999487295747" lon="1.43793074414134">
        <ele>2636.29</ele>
        <time>2025-07-17T11:49:40Z</time>
      </trkpt>
      <trkpt lat="42.587936455383897" lon="1.438022442162037">
        <ele>2634.9000000000001</ele>
        <time>2025-07-17T11:49:51Z</time>
      </trkpt>
      <trkpt lat="42.587875351309776" lon="1.438116068020463">
        <ele>2634.3000000000002</ele>
        <time>2025-07-17T11:50:03Z</time>
      </trkpt>
      <trkpt lat="42.587789772078395" lon="1.438079439103603">
        <ele>2634.2399999999998</ele>
        <time>2025-07-17T11:50:15Z</time>
      </trkpt>
      <trkpt lat="42.587725399062037" lon="1.437988243997097">
        <ele>2634.1599999999999</ele>
        <time>2025-07-17T11:50:28Z</time>
      </trkpt>
      <trkpt lat="42.587662618607283" lon="1.437886990606785">
        <ele>2633.9200000000001</ele>
        <time>2025-07-17T11:50:40Z</time>
      </trkpt>
      <trkpt lat="42.587607633322477" lon="1.437798142433167">
        <ele>2635.9099999999999</ele>
        <time>2025-07-17T11:50:55Z</time>
      </trkpt>
      <trkpt lat="42.587566561996937" lon="1.437701750546694">
        <ele>2636.04</ele>
        <time>2025-07-17T11:51:08Z</time>
      </trkpt>
      <trkpt lat="42.58749833330512" lon="1.437627822160721">
        <ele>2637.4200000000001</ele>
        <time>2025-07-17T11:51:23Z</time>
      </trkpt>
      <trkpt lat="42.587445694953203" lon="1.437518689781427">
        <ele>2638.6799999999998</ele>
        <time>2025-07-17T11:52:01Z</time>
      </trkpt>
      <trkpt lat="42.587381824851036" lon="1.437428668141365">
        <ele>2638.8099999999999</ele>
        <time>2025-07-17T11:52:12Z</time>
      </trkpt>
      <trkpt lat="42.587330946698785" lon="1.437323475256562">
        <ele>2638.6199999999999</ele>
        <time>2025-07-17T11:52:25Z</time>
      </trkpt>
      <trkpt lat="42.587263388559222" lon="1.437225071713328">
        <ele>2637.3400000000001</ele>
        <time>2025-07-17T11:52:42Z</time>
      </trkpt>
      <trkpt lat="42.587240925058722" lon="1.437112083658576">
        <ele>2635.4400000000001</ele>
        <time>2025-07-17T11:52:58Z</time>
      </trkpt>
      <trkpt lat="42.587192477658391" lon="1.437002029269934">
        <ele>2633.0700000000002</ele>
        <time>2025-07-17T11:53:14Z</time>
      </trkpt>
      <trkpt lat="42.587183341383934" lon="1.436929693445563">
        <ele>2633.77</ele>
        <time>2025-07-17T12:25:29Z</time>
      </trkpt>
      <trkpt lat="42.587134307250381" lon="1.436933884397149">
        <ele>2634.02</ele>
        <time>2025-07-17T12:30:23Z</time>
      </trkpt>
      <trkpt lat="42.58720563724637" lon="1.436967495828867">
        <ele>2634.6399999999999</ele>
        <time>2025-07-17T12:37:42Z</time>
      </trkpt>
      <trkpt lat="42.587176384404302" lon="1.436958024278283">
        <ele>2634.8899999999999</ele>
        <time>2025-07-17T12:39:26Z</time>
      </trkpt>
      <trkpt lat="42.587178982794285" lon="1.43698375672102">
        <ele>2635.8899999999999</ele>
        <time>2025-07-17T12:40:08Z</time>
      </trkpt>
      <trkpt lat="42.587191052734852" lon="1.436990965157747">
        <ele>2635.8699999999999</ele>
        <time>2025-07-17T12:41:07Z</time>
      </trkpt>
      <trkpt lat="42.587187029421329" lon="1.436996245756745">
        <ele>2635.1599999999999</ele>
        <time>2025-07-17T12:42:07Z</time>
      </trkpt>
      <trkpt lat="42.58715333417058" lon="1.436979901045561">
        <ele>2637.1399999999999</ele>
        <time>2025-07-17T12:52:07Z</time>
      </trkpt>
      <trkpt lat="42.587167751044035" lon="1.436994653195143">
        <ele>2637.2800000000002</ele>
        <time>2025-07-17T12:52:51Z</time>
      </trkpt>
      <trkpt lat="42.587106982246041" lon="1.436891052871943">
        <ele>2637.29</ele>
        <time>2025-07-17T12:53:07Z</time>
      </trkpt>
      <trkpt lat="42.587028862908483" lon="1.43685425631702">
        <ele>2637.9099999999999</ele>
        <time>2025-07-17T12:53:23Z</time>
      </trkpt>
      <trkpt lat="42.586966836825013" lon="1.436791811138392">
        <ele>2637.5700000000002</ele>
        <time>2025-07-17T12:53:36Z</time>
      </trkpt>
      <trkpt lat="42.586897602304816" lon="1.436715703457594">
        <ele>2637.3899999999999</ele>
        <time>2025-07-17T12:53:53Z</time>
      </trkpt>
      <trkpt lat="42.586814537644386" lon="1.436673039570451">
        <ele>2639.1300000000001</ele>
        <time>2025-07-17T12:54:13Z</time>
      </trkpt>
      <trkpt lat="42.586728204041719" lon="1.436642864719033">
        <ele>2638.6399999999999</ele>
        <time>2025-07-17T12:54:32Z</time>
      </trkpt>
      <trkpt lat="42.586633153259754" lon="1.436644708737731">
        <ele>2637.9000000000001</ele>
        <time>2025-07-17T12:54:50Z</time>
      </trkpt>
      <trkpt lat="42.586544556543231" lon="1.43660363741219">
        <ele>2638.71</ele>
        <time>2025-07-17T12:55:07Z</time>
      </trkpt>
      <trkpt lat="42.586458809673786" lon="1.436565332114697">
        <ele>2636.52</ele>
        <time>2025-07-17T12:55:23Z</time>
      </trkpt>
      <trkpt lat="42.586379600688815" lon="1.436523254960775">
        <ele>2634.9699999999998</ele>
        <time>2025-07-17T12:55:36Z</time>
      </trkpt>
      <trkpt lat="42.586296033114195" lon="1.436512274667621">
        <ele>2633.7199999999998</ele>
        <time>2025-07-17T12:55:46Z</time>
      </trkpt>
      <trkpt lat="42.586211627349257" lon="1.436479333788157">
        <ele>2632.3499999999999</ele>
        <time>2025-07-17T12:55:57Z</time>
      </trkpt>
      <trkpt lat="42.586139542981982" lon="1.436418397352099">
        <ele>2630.4499999999998</ele>
        <time>2025-07-17T12:56:13Z</time>
      </trkpt>
      <trkpt lat="42.586048683151603" lon="1.436399789527059">
        <ele>2628.6199999999999</ele>
        <time>2025-07-17T12:56:33Z</time>
      </trkpt>
      <trkpt lat="42.58595472201705" lon="1.436407836154103">
        <ele>2627.4499999999998</ele>
        <time>2025-07-17T12:56:46Z</time>
      </trkpt>
      <trkpt lat="42.585869897156954" lon="1.436376320198178">
        <ele>2627.8699999999999</ele>
        <time>2025-07-17T12:57:00Z</time>
      </trkpt>
      <trkpt lat="42.585768476128578" lon="1.436391994357109">
        <ele>2626.8400000000001</ele>
        <time>2025-07-17T12:57:14Z</time>
      </trkpt>
      <trkpt lat="42.585659259930253" lon="1.436355700716376">
        <ele>2625.5500000000002</ele>
        <time>2025-07-17T12:58:45Z</time>
      </trkpt>
      <trkpt lat="42.585568483918905" lon="1.436346061527729">
        <ele>2623.3600000000001</ele>
        <time>2025-07-17T12:59:05Z</time>
      </trkpt>
      <trkpt lat="42.585481312125921" lon="1.436316724866629">
        <ele>2621.0700000000002</ele>
        <time>2025-07-17T12:59:22Z</time>
      </trkpt>
      <trkpt lat="42.585400426760316" lon="1.436311444267631">
        <ele>2618.3699999999999</ele>
        <time>2025-07-17T12:59:40Z</time>
      </trkpt>
      <trkpt lat="42.58532683365047" lon="1.436296859756112">
        <ele>2616.52</ele>
        <time>2025-07-17T12:59:55Z</time>
      </trkpt>
      <trkpt lat="42.585257431492209" lon="1.436261152848601">
        <ele>2612.8899999999999</ele>
        <time>2025-07-17T13:00:25Z</time>
      </trkpt>
      <trkpt lat="42.585213091224432" lon="1.436198204755783">
        <ele>2610.0300000000002</ele>
        <time>2025-07-17T13:00:51Z</time>
      </trkpt>
      <trkpt lat="42.585141928866506" lon="1.436160989105701">
        <ele>2607.3899999999999</ele>
        <time>2025-07-17T13:01:21Z</time>
      </trkpt>
      <trkpt lat="42.585090966895223" lon="1.436073733493686">
        <ele>2603.5700000000002</ele>
        <time>2025-07-17T13:01:42Z</time>
      </trkpt>
      <trkpt lat="42.584995748475194" lon="1.436067949980497">
        <ele>2600.98</ele>
        <time>2025-07-17T13:01:56Z</time>
      </trkpt>
      <trkpt lat="42.58489633910358" lon="1.436089994385839">
        <ele>2600.6300000000001</ele>
        <time>2025-07-17T13:02:09Z</time>
      </trkpt>
      <trkpt lat="42.584805730730295" lon="1.43611547537148">
        <ele>2601.6599999999999</ele>
        <time>2025-07-17T13:02:24Z</time>
      </trkpt>
      <trkpt lat="42.584723420441151" lon="1.436103992164135">
        <ele>2601.6300000000001</ele>
        <time>2025-07-17T13:02:38Z</time>
      </trkpt>
      <trkpt lat="42.584673883393407" lon="1.43602654337883">
        <ele>2599.0300000000002</ele>
        <time>2025-07-17T13:03:14Z</time>
      </trkpt>
      <trkpt lat="42.584672039374709" lon="1.435953788459301">
        <ele>2599.6100000000001</ele>
        <time>2025-07-17T13:05:25Z</time>
      </trkpt>
      <trkpt lat="42.584653766825795" lon="1.435815403237939">
        <ele>2601.1700000000001</ele>
        <time>2025-07-17T13:05:42Z</time>
      </trkpt>
      <trkpt lat="42.584597859531641" lon="1.435694536194205">
        <ele>2604.1599999999999</ele>
        <time>2025-07-17T13:05:59Z</time>
      </trkpt>
      <trkpt lat="42.584571624174714" lon="1.435598647221923">
        <ele>2604.2399999999998</ele>
        <time>2025-07-17T13:06:18Z</time>
      </trkpt>
      <trkpt lat="42.584508340805769" lon="1.435512900352478">
        <ele>2603.1199999999999</ele>
        <time>2025-07-17T13:07:01Z</time>
      </trkpt>
      <trkpt lat="42.584475735202432" lon="1.435394464060664">
        <ele>2601.5900000000001</ele>
        <time>2025-07-17T13:07:13Z</time>
      </trkpt>
      <trkpt lat="42.584447655826807" lon="1.435284493491054">
        <ele>2599.8899999999999</ele>
        <time>2025-07-17T13:07:23Z</time>
      </trkpt>
      <trkpt lat="42.584424940869212" lon="1.435148790478706">
        <ele>2597.5799999999999</ele>
        <time>2025-07-17T13:07:35Z</time>
      </trkpt>
      <trkpt lat="42.58440968580544" lon="1.435033455491066">
        <ele>2595.04</ele>
        <time>2025-07-17T13:07:47Z</time>
      </trkpt>
      <trkpt lat="42.584336260333657" lon="1.434987271204591">
        <ele>2594.0300000000002</ele>
        <time>2025-07-17T13:07:57Z</time>
      </trkpt>
      <trkpt lat="42.584249675273895" lon="1.434985175728798">
        <ele>2592.2600000000002</ele>
        <time>2025-07-17T13:08:10Z</time>
      </trkpt>
      <trkpt lat="42.584161246195436" lon="1.434942595660687">
        <ele>2590.1999999999998</ele>
        <time>2025-07-17T13:08:20Z</time>
      </trkpt>
      <trkpt lat="42.584069464355707" lon="1.434923065826297">
        <ele>2588.9200000000001</ele>
        <time>2025-07-17T13:08:30Z</time>
      </trkpt>
      <trkpt lat="42.583985812962055" lon="1.434886604547501">
        <ele>2586.3699999999999</ele>
        <time>2025-07-17T13:08:40Z</time>
      </trkpt>
      <trkpt lat="42.583908028900623" lon="1.434829607605934">
        <ele>2584.5100000000002</ele>
        <time>2025-07-17T13:08:50Z</time>
      </trkpt>
      <trkpt lat="42.583862347528338" lon="1.434733048081398">
        <ele>2583.3499999999999</ele>
        <time>2025-07-17T13:09:00Z</time>
      </trkpt>
      <trkpt lat="42.583791352808475" lon="1.434688456356525">
        <ele>2580.9400000000001</ele>
        <time>2025-07-17T13:09:13Z</time>
      </trkpt>
      <trkpt lat="42.583706360310316" lon="1.434673117473722">
        <ele>2578.5900000000001</ele>
        <time>2025-07-17T13:09:23Z</time>
      </trkpt>
      <trkpt lat="42.583631090819836" lon="1.434611426666379">
        <ele>2576.48</ele>
        <time>2025-07-17T13:09:34Z</time>
      </trkpt>
      <trkpt lat="42.583560263738036" lon="1.434546047821641">
        <ele>2575.0599999999999</ele>
        <time>2025-07-17T13:09:51Z</time>
      </trkpt>
      <trkpt lat="42.583486167714" lon="1.4344722032547">
        <ele>2573.48</ele>
        <time>2025-07-17T13:10:04Z</time>
      </trkpt>
      <trkpt lat="42.58341433480382" lon="1.434439849108458">
        <ele>2571.4200000000001</ele>
        <time>2025-07-17T13:10:18Z</time>
      </trkpt>
      <trkpt lat="42.58335524238646" lon="1.43435150384903">
        <ele>2569.29</ele>
        <time>2025-07-17T13:10:29Z</time>
      </trkpt>
      <trkpt lat="42.583287516608834" lon="1.434278832748532">
        <ele>2567.27</ele>
        <time>2025-07-17T13:10:39Z</time>
      </trkpt>
      <trkpt lat="42.583208056166768" lon="1.434226278215647">
        <ele>2564.4499999999998</ele>
        <time>2025-07-17T13:10:52Z</time>
      </trkpt>
      <trkpt lat="42.583165895193815" lon="1.434178920462728">
        <ele>2562.0599999999999</ele>
        <time>2025-07-17T13:11:08Z</time>
      </trkpt>
      <trkpt lat="42.583103952929378" lon="1.434084875509143">
        <ele>2559.77</ele>
        <time>2025-07-17T13:11:23Z</time>
      </trkpt>
      <trkpt lat="42.583040501922369" lon="1.434048162773252">
        <ele>2556.2399999999998</ele>
        <time>2025-07-17T13:11:42Z</time>
      </trkpt>
      <trkpt lat="42.582982582971454" lon="1.434024358168244">
        <ele>2553.4400000000001</ele>
        <time>2025-07-17T13:12:01Z</time>
      </trkpt>
      <trkpt lat="42.582912426441908" lon="1.434089820832014">
        <ele>2550.9400000000001</ele>
        <time>2025-07-17T13:12:15Z</time>
      </trkpt>
      <trkpt lat="42.582839168608189" lon="1.434126365929842">
        <ele>2548.1399999999999</ele>
        <time>2025-07-17T13:12:32Z</time>
      </trkpt>
      <trkpt lat="42.582810586318374" lon="1.43401044420898">
        <ele>2545.4400000000001</ele>
        <time>2025-07-17T13:12:49Z</time>
      </trkpt>
      <trkpt lat="42.582775885239244" lon="1.433903826400638">
        <ele>2543.52</ele>
        <time>2025-07-17T13:13:05Z</time>
      </trkpt>
      <trkpt lat="42.58272391743958" lon="1.43383408896625">
        <ele>2540.8699999999999</ele>
        <time>2025-07-17T13:13:19Z</time>
      </trkpt>
      <trkpt lat="42.582668429240584" lon="1.433811876922846">
        <ele>2538.8000000000002</ele>
        <time>2025-07-17T13:13:36Z</time>
      </trkpt>
      <trkpt lat="42.582592237740755" lon="1.433828305453062">
        <ele>2535.8299999999999</ele>
        <time>2025-07-17T13:13:54Z</time>
      </trkpt>
      <trkpt lat="42.582538677379489" lon="1.433774493634701">
        <ele>2533.98</ele>
        <time>2025-07-17T13:14:07Z</time>
      </trkpt>
      <trkpt lat="42.58252551779151" lon="1.433654297143221">
        <ele>2532.9200000000001</ele>
        <time>2025-07-17T13:14:19Z</time>
      </trkpt>
      <trkpt lat="42.582494420930743" lon="1.43354625441134">
        <ele>2530.73</ele>
        <time>2025-07-17T13:14:34Z</time>
      </trkpt>
      <trkpt lat="42.582432059571147" lon="1.4334671292454">
        <ele>2527.73</ele>
        <time>2025-07-17T13:14:50Z</time>
      </trkpt>
      <trkpt lat="42.582378163933754" lon="1.433500992134213">
        <ele>2525.1100000000001</ele>
        <time>2025-07-17T13:15:15Z</time>
      </trkpt>
      <trkpt lat="42.582317311316729" lon="1.433545667678118">
        <ele>2523.1999999999998</ele>
        <time>2025-07-17T13:15:59Z</time>
      </trkpt>
      <trkpt lat="42.58226802572608" lon="1.433463105931878">
        <ele>2520.6999999999998</ele>
        <time>2025-07-17T13:16:11Z</time>
      </trkpt>
      <trkpt lat="42.582231648266315" lon="1.433349614962935">
        <ele>2518.4000000000001</ele>
        <time>2025-07-17T13:16:23Z</time>
      </trkpt>
      <trkpt lat="42.582178423181176" lon="1.433267220854759">
        <ele>2515.6199999999999</ele>
        <time>2025-07-17T13:16:38Z</time>
      </trkpt>
      <trkpt lat="42.582167191430926" lon="1.433194549754262">
        <ele>2512.8400000000001</ele>
        <time>2025-07-17T13:16:51Z</time>
      </trkpt>
      <trkpt lat="42.582156294956803" lon="1.433105617761612">
        <ele>2509.75</ele>
        <time>2025-07-17T13:17:10Z</time>
      </trkpt>
      <trkpt lat="42.58213953115046" lon="1.432983996346593">
        <ele>2506.77</ele>
        <time>2025-07-17T13:17:26Z</time>
      </trkpt>
      <trkpt lat="42.582100052386522" lon="1.432901602238417">
        <ele>2503.7800000000002</ele>
        <time>2025-07-17T13:17:43Z</time>
      </trkpt>
      <trkpt lat="42.582068284973502" lon="1.432805210351944">
        <ele>2501.46</ele>
        <time>2025-07-17T13:17:58Z</time>
      </trkpt>
      <trkpt lat="42.582036098465323" lon="1.432695742696524">
        <ele>2498.0500000000002</ele>
        <time>2025-07-17T13:18:12Z</time>
      </trkpt>
      <trkpt lat="42.582005504518747" lon="1.432595914229751">
        <ele>2494.04</ele>
        <time>2025-07-17T13:18:28Z</time>
      </trkpt>
      <trkpt lat="42.581965103745461" lon="1.432478902861476">
        <ele>2491.3400000000001</ele>
        <time>2025-07-17T13:18:41Z</time>
      </trkpt>
      <trkpt lat="42.581907268613577" lon="1.432529613375664">
        <ele>2488.2199999999998</ele>
        <time>2025-07-17T13:19:04Z</time>
      </trkpt>
      <trkpt lat="42.581855719909072" lon="1.432621646672487">
        <ele>2484.9699999999998</ele>
        <time>2025-07-17T13:19:19Z</time>
      </trkpt>
      <trkpt lat="42.58180433884263" lon="1.4327229000628">
        <ele>2482.3800000000001</ele>
        <time>2025-07-17T13:19:32Z</time>
      </trkpt>
      <trkpt lat="42.581739882007241" lon="1.432804958894849">
        <ele>2480.3200000000002</ele>
        <time>2025-07-17T13:19:46Z</time>
      </trkpt>
      <trkpt lat="42.581663858145475" lon="1.432872852310538">
        <ele>2477.4299999999998</ele>
        <time>2025-07-17T13:20:00Z</time>
      </trkpt>
      <trkpt lat="42.581613650545478" lon="1.432974273338914">
        <ele>2474.5100000000002</ele>
        <time>2025-07-17T13:20:14Z</time>
      </trkpt>
      <trkpt lat="42.581572411581874" lon="1.433083573356271">
        <ele>2471.98</ele>
        <time>2025-07-17T13:20:27Z</time>
      </trkpt>
      <trkpt lat="42.581532932817936" lon="1.433192705735564">
        <ele>2470.02</ele>
        <time>2025-07-17T13:20:38Z</time>
      </trkpt>
      <trkpt lat="42.581485658884048" lon="1.433286834508181">
        <ele>2467.8800000000001</ele>
        <time>2025-07-17T13:20:53Z</time>
      </trkpt>
      <trkpt lat="42.581435618922114" lon="1.433399152010679">
        <ele>2465.54</ele>
        <time>2025-07-17T13:21:06Z</time>
      </trkpt>
      <trkpt lat="42.581403348594904" lon="1.433518845587969">
        <ele>2463.75</ele>
        <time>2025-07-17T13:21:18Z</time>
      </trkpt>
      <trkpt lat="42.58136747404933" lon="1.433633426204324">
        <ele>2460.6900000000001</ele>
        <time>2025-07-17T13:21:32Z</time>
      </trkpt>
      <trkpt lat="42.581341071054339" lon="1.433746246621013">
        <ele>2457.48</ele>
        <time>2025-07-17T13:21:47Z</time>
      </trkpt>
      <trkpt lat="42.581296395510435" lon="1.433843979611993">
        <ele>2454.96</ele>
        <time>2025-07-17T13:22:00Z</time>
      </trkpt>
      <trkpt lat="42.581241494044662" lon="1.433877255767584">
        <ele>2452.4099999999999</ele>
        <time>2025-07-17T13:22:13Z</time>
      </trkpt>
      <trkpt lat="42.581203440204263" lon="1.433906173333526">
        <ele>2450.4299999999998</ele>
        <time>2025-07-17T13:22:26Z</time>
      </trkpt>
      <trkpt lat="42.581161949783564" lon="1.433925284072757">
        <ele>2448.3200000000002</ele>
        <time>2025-07-17T13:22:40Z</time>
      </trkpt>
      <trkpt lat="42.581091625615954" lon="1.43383601680398">
        <ele>2445.9699999999998</ele>
        <time>2025-07-17T13:22:52Z</time>
      </trkpt>
      <trkpt lat="42.58100445382297" lon="1.433860240504146">
        <ele>2444.6500000000001</ele>
        <time>2025-07-17T13:23:04Z</time>
      </trkpt>
      <trkpt lat="42.580936141312122" lon="1.43393374979496">
        <ele>2443.2199999999998</ele>
        <time>2025-07-17T13:23:17Z</time>
      </trkpt>
      <trkpt lat="42.580891801044345" lon="1.434041289612651">
        <ele>2440.7199999999998</ele>
        <time>2025-07-17T13:23:31Z</time>
      </trkpt>
      <trkpt lat="42.580854836851358" lon="1.434146063402295">
        <ele>2437.7600000000002</ele>
        <time>2025-07-17T13:23:44Z</time>
      </trkpt>
      <trkpt lat="42.580812759697437" lon="1.43425771035254">
        <ele>2435.4499999999998</ele>
        <time>2025-07-17T13:23:59Z</time>
      </trkpt>
      <trkpt lat="42.580802366137505" lon="1.434366591274738">
        <ele>2433.0599999999999</ele>
        <time>2025-07-17T13:24:13Z</time>
      </trkpt>
      <trkpt lat="42.580792643129826" lon="1.434486284852028">
        <ele>2429.6500000000001</ele>
        <time>2025-07-17T13:24:28Z</time>
      </trkpt>
      <trkpt lat="42.580769341439009" lon="1.434599775820971">
        <ele>2426.0300000000002</ele>
        <time>2025-07-17T13:24:44Z</time>
      </trkpt>
      <trkpt lat="42.580736149102449" lon="1.434700358659029">
        <ele>2423.79</ele>
        <time>2025-07-17T13:25:01Z</time>
      </trkpt>
      <trkpt lat="42.580734975636005" lon="1.43480496481061">
        <ele>2420.4899999999998</ele>
        <time>2025-07-17T13:25:18Z</time>
      </trkpt>
      <trkpt lat="42.580737071111798" lon="1.434920383617282">
        <ele>2417.8299999999999</ele>
        <time>2025-07-17T13:25:34Z</time>
      </trkpt>
      <trkpt lat="42.580698514357209" lon="1.435030270367861">
        <ele>2415.5500000000002</ele>
        <time>2025-07-17T13:25:49Z</time>
      </trkpt>
      <trkpt lat="42.580707315355539" lon="1.435137307271361">
        <ele>2412.7199999999998</ele>
        <time>2025-07-17T13:26:04Z</time>
      </trkpt>
      <trkpt lat="42.580723743885756" lon="1.435231771320105">
        <ele>2409.5999999999999</ele>
        <time>2025-07-17T13:26:18Z</time>
      </trkpt>
      <trkpt lat="42.580726593732834" lon="1.43534928560257">
        <ele>2406.9699999999998</ele>
        <time>2025-07-17T13:26:32Z</time>
      </trkpt>
      <trkpt lat="42.580720474943519" lon="1.435468727722764">
        <ele>2404.75</ele>
        <time>2025-07-17T13:26:45Z</time>
      </trkpt>
      <trkpt lat="42.580710165202618" lon="1.435589343309403">
        <ele>2402.5700000000002</ele>
        <time>2025-07-17T13:26:57Z</time>
      </trkpt>
      <trkpt lat="42.580687617883086" lon="1.435713563114405">
        <ele>2400.3099999999999</ele>
        <time>2025-07-17T13:27:11Z</time>
      </trkpt>
      <trkpt lat="42.580665405839682" lon="1.435836357995868">
        <ele>2398.48</ele>
        <time>2025-07-17T13:27:23Z</time>
      </trkpt>
      <trkpt lat="42.580624334514141" lon="1.435961667448282">
        <ele>2396.3400000000001</ele>
        <time>2025-07-17T13:27:36Z</time>
      </trkpt>
      <trkpt lat="42.580644283443689" lon="1.436034003272653">
        <ele>2394.4099999999999</ele>
        <time>2025-07-17T13:27:47Z</time>
      </trkpt>
      <trkpt lat="42.58062869310379" lon="1.436134418472648">
        <ele>2393.3000000000002</ele>
        <time>2025-07-17T13:27:57Z</time>
      </trkpt>
      <trkpt lat="42.580641182139516" lon="1.436240868642926">
        <ele>2391.7199999999998</ele>
        <time>2025-07-17T13:28:21Z</time>
      </trkpt>
      <trkpt lat="42.580598685890436" lon="1.436271797865629">
        <ele>2389.8200000000002</ele>
        <time>2025-07-17T13:30:01Z</time>
      </trkpt>
      <trkpt lat="42.580636236816645" lon="1.436371793970466">
        <ele>2387.1399999999999</ele>
        <time>2025-07-17T13:30:19Z</time>
      </trkpt>
      <trkpt lat="42.580630453303456" lon="1.43646189942956">
        <ele>2382.98</ele>
        <time>2025-07-17T13:30:45Z</time>
      </trkpt>
      <trkpt lat="42.580597260966897" lon="1.436560805886984">
        <ele>2379.9400000000001</ele>
        <time>2025-07-17T13:31:03Z</time>
      </trkpt>
      <trkpt lat="42.580580329522491" lon="1.436658538877964">
        <ele>2377.02</ele>
        <time>2025-07-17T13:31:19Z</time>
      </trkpt>
      <trkpt lat="42.580508245155215" lon="1.436738837510347">
        <ele>2374.3499999999999</ele>
        <time>2025-07-17T13:31:35Z</time>
      </trkpt>
      <trkpt lat="42.580450661480427" lon="1.436812514439225">
        <ele>2370.3699999999999</ele>
        <time>2025-07-17T13:31:55Z</time>
      </trkpt>
      <trkpt lat="42.58040095679462" lon="1.436888370662928">
        <ele>2367.4099999999999</ele>
        <time>2025-07-17T13:32:12Z</time>
      </trkpt>
      <trkpt lat="42.580358795821667" lon="1.436981493607163">
        <ele>2364.0900000000001</ele>
        <time>2025-07-17T13:32:32Z</time>
      </trkpt>
      <trkpt lat="42.580302050337195" lon="1.437052069231868">
        <ele>2360.1199999999999</ele>
        <time>2025-07-17T13:32:50Z</time>
      </trkpt>
      <trkpt lat="42.580259721726179" lon="1.437153238803148">
        <ele>2357</ele>
        <time>2025-07-17T13:33:12Z</time>
      </trkpt>
      <trkpt lat="42.58020993322134" lon="1.437241081148386">
        <ele>2353.3699999999999</ele>
        <time>2025-07-17T13:33:29Z</time>
      </trkpt>
      <trkpt lat="42.58017472922802" lon="1.4373301807791">
        <ele>2350.2600000000002</ele>
        <time>2025-07-17T13:33:46Z</time>
      </trkpt>
      <trkpt lat="42.580113960430026" lon="1.437420705333352">
        <ele>2347.23</ele>
        <time>2025-07-17T13:34:02Z</time>
      </trkpt>
      <trkpt lat="42.580147823318839" lon="1.437511397525668">
        <ele>2344.6999999999998</ele>
        <time>2025-07-17T13:34:19Z</time>
      </trkpt>
      <trkpt lat="42.580152433365583" lon="1.437634862959385">
        <ele>2341.6399999999999</ele>
        <time>2025-07-17T13:34:34Z</time>
      </trkpt>
      <trkpt lat="42.580092418938875" lon="1.437721783295274">
        <ele>2340.0900000000001</ele>
        <time>2025-07-17T13:34:48Z</time>
      </trkpt>
      <trkpt lat="42.580022597685456" lon="1.437791604548693">
        <ele>2337.2800000000002</ele>
        <time>2025-07-17T13:35:03Z</time>
      </trkpt>
      <trkpt lat="42.57995679974556" lon="1.437856648117304">
        <ele>2334.0900000000001</ele>
        <time>2025-07-17T13:35:18Z</time>
      </trkpt>
      <trkpt lat="42.579914135858417" lon="1.437950944527984">
        <ele>2330.8499999999999</ele>
        <time>2025-07-17T13:35:36Z</time>
      </trkpt>
      <trkpt lat="42.579884463921189" lon="1.438057394698262">
        <ele>2328.0799999999999</ele>
        <time>2025-07-17T13:35:49Z</time>
      </trkpt>
      <trkpt lat="42.579878093674779" lon="1.438180943951011">
        <ele>2324.8899999999999</ele>
        <time>2025-07-17T13:36:05Z</time>
      </trkpt>
      <trkpt lat="42.579879853874445" lon="1.438305415213108">
        <ele>2322.6799999999998</ele>
        <time>2025-07-17T13:36:20Z</time>
      </trkpt>
      <trkpt lat="42.579881865531206" lon="1.438395101577044">
        <ele>2320.4899999999998</ele>
        <time>2025-07-17T13:36:36Z</time>
      </trkpt>
      <trkpt lat="42.579909861087799" lon="1.438509849831462">
        <ele>2317.3299999999999</ele>
        <time>2025-07-17T13:36:50Z</time>
      </trkpt>
      <trkpt lat="42.579896282404661" lon="1.438614288344979">
        <ele>2313.6500000000001</ele>
        <time>2025-07-17T13:37:05Z</time>
      </trkpt>
      <trkpt lat="42.579901730641723" lon="1.438718140125275">
        <ele>2311.2600000000002</ele>
        <time>2025-07-17T13:37:21Z</time>
      </trkpt>
      <trkpt lat="42.579875076189637" lon="1.4388273563236">
        <ele>2308.1100000000001</ele>
        <time>2025-07-17T13:37:36Z</time>
      </trkpt>
      <trkpt lat="42.579858312383294" lon="1.438942607492209">
        <ele>2305.6199999999999</ele>
        <time>2025-07-17T13:37:50Z</time>
      </trkpt>
      <trkpt lat="42.579847080633044" lon="1.439043441787362">
        <ele>2303.48</ele>
        <time>2025-07-17T13:38:06Z</time>
      </trkpt>
      <trkpt lat="42.579838363453746" lon="1.439178725704551">
        <ele>2300.1399999999999</ele>
        <time>2025-07-17T13:38:17Z</time>
      </trkpt>
      <trkpt lat="42.579834004864097" lon="1.439302526414394">
        <ele>2297.5799999999999</ele>
        <time>2025-07-17T13:38:28Z</time>
      </trkpt>
      <trkpt lat="42.579847415909171" lon="1.439424902200699">
        <ele>2294.8000000000002</ele>
        <time>2025-07-17T13:38:39Z</time>
      </trkpt>
      <trkpt lat="42.579857306554914" lon="1.439551971852779">
        <ele>2292.9699999999998</ele>
        <time>2025-07-17T13:38:51Z</time>
      </trkpt>
      <trkpt lat="42.579884044826031" lon="1.439677532762289">
        <ele>2290.9299999999998</ele>
        <time>2025-07-17T13:39:02Z</time>
      </trkpt>
      <trkpt lat="42.579917572438717" lon="1.439800830557942">
        <ele>2288.77</ele>
        <time>2025-07-17T13:39:13Z</time>
      </trkpt>
      <trkpt lat="42.579951519146562" lon="1.439929492771626">
        <ele>2287.2800000000002</ele>
        <time>2025-07-17T13:39:23Z</time>
      </trkpt>
      <trkpt lat="42.5799909979105" lon="1.440046671777964">
        <ele>2285.5500000000002</ele>
        <time>2025-07-17T13:39:32Z</time>
      </trkpt>
      <trkpt lat="42.58000667206943" lon="1.440171394497156">
        <ele>2284.6999999999998</ele>
        <time>2025-07-17T13:39:42Z</time>
      </trkpt>
      <trkpt lat="42.580015556886792" lon="1.440305169671774">
        <ele>2283.1799999999998</ele>
        <time>2025-07-17T13:39:51Z</time>
      </trkpt>
      <trkpt lat="42.58003500290215" lon="1.440442129969597">
        <ele>2282.46</ele>
        <time>2025-07-17T13:40:00Z</time>
      </trkpt>
      <trkpt lat="42.580041792243719" lon="1.440575737506151">
        <ele>2282.8000000000002</ele>
        <time>2025-07-17T13:40:10Z</time>
      </trkpt>
      <trkpt lat="42.580077750608325" lon="1.440687719732523">
        <ele>2281.9899999999998</ele>
        <time>2025-07-17T13:40:20Z</time>
      </trkpt>
      <trkpt lat="42.580083282664418" lon="1.440799115225673">
        <ele>2282.1300000000001</ele>
        <time>2025-07-17T13:40:30Z</time>
      </trkpt>
      <trkpt lat="42.580093676224351" lon="1.440921574831009">
        <ele>2280.98</ele>
        <time>2025-07-17T13:40:39Z</time>
      </trkpt>
      <trkpt lat="42.580098118633032" lon="1.441043363884091">
        <ele>2280.23</ele>
        <time>2025-07-17T13:40:48Z</time>
      </trkpt>
      <trkpt lat="42.580084204673767" lon="1.441172445192933">
        <ele>2278.5799999999999</ele>
        <time>2025-07-17T13:40:59Z</time>
      </trkpt>
      <trkpt lat="42.580066435039043" lon="1.441295575350523">
        <ele>2275.2600000000002</ele>
        <time>2025-07-17T13:41:10Z</time>
      </trkpt>
      <trkpt lat="42.580036176368594" lon="1.441414095461369">
        <ele>2275.0300000000002</ele>
        <time>2025-07-17T13:41:21Z</time>
      </trkpt>
      <trkpt lat="42.580055873841047" lon="1.441398337483406">
        <ele>2274.9000000000001</ele>
        <time>2025-07-17T13:44:22Z</time>
      </trkpt>
      <trkpt lat="42.580029387027025" lon="1.441487353295088">
        <ele>2274.0300000000002</ele>
        <time>2025-07-17T13:45:03Z</time>
      </trkpt>
      <trkpt lat="42.580019244924188" lon="1.441610483452678">
        <ele>2273.8099999999999</ele>
        <time>2025-07-17T13:45:12Z</time>
      </trkpt>
      <trkpt lat="42.580003067851067" lon="1.441739061847329">
        <ele>2273.7600000000002</ele>
        <time>2025-07-17T13:45:21Z</time>
      </trkpt>
      <trkpt lat="42.579994266852736" lon="1.441852385178208">
        <ele>2272.9000000000001</ele>
        <time>2025-07-17T13:45:29Z</time>
      </trkpt>
      <trkpt lat="42.579994266852736" lon="1.441972916945815">
        <ele>2271.9400000000001</ele>
        <time>2025-07-17T13:45:38Z</time>
      </trkpt>
      <trkpt lat="42.579986052587628" lon="1.442096885293722">
        <ele>2270.6700000000001</ele>
        <time>2025-07-17T13:45:47Z</time>
      </trkpt>
      <trkpt lat="42.579969791695476" lon="1.442222613841295">
        <ele>2269.8099999999999</ele>
        <time>2025-07-17T13:45:56Z</time>
      </trkpt>
      <trkpt lat="42.579898294061422" lon="1.442324453964829">
        <ele>2269.3000000000002</ele>
        <time>2025-07-17T13:46:06Z</time>
      </trkpt>
      <trkpt lat="42.579832328483462" lon="1.442416571080685">
        <ele>2269.8400000000001</ele>
        <time>2025-07-17T13:46:18Z</time>
      </trkpt>
      <trkpt lat="42.579774158075452" lon="1.442521512508392">
        <ele>2270.5599999999999</ele>
        <time>2025-07-17T13:46:40Z</time>
      </trkpt>
      <trkpt lat="42.579720932990313" lon="1.442574989050627">
        <ele>2273.4400000000001</ele>
        <time>2025-07-17T13:47:14Z</time>
      </trkpt>
      <trkpt lat="42.579652452841401" lon="1.442671800032258">
        <ele>2274.8200000000002</ele>
        <time>2025-07-17T13:47:35Z</time>
      </trkpt>
      <trkpt lat="42.579579865559936" lon="1.442748578265309">
        <ele>2275.0300000000002</ele>
        <time>2025-07-17T13:47:46Z</time>
      </trkpt>
      <trkpt lat="42.579515408724546" lon="1.442827954888344">
        <ele>2275.73</ele>
        <time>2025-07-17T13:48:01Z</time>
      </trkpt>
      <trkpt lat="42.579459669068456" lon="1.442929040640593">
        <ele>2276.02</ele>
        <time>2025-07-17T13:48:15Z</time>
      </trkpt>
      <trkpt lat="42.579436367377639" lon="1.443058373406529">
        <ele>2277.3200000000002</ele>
        <time>2025-07-17T13:48:35Z</time>
      </trkpt>
      <trkpt lat="42.579438546672463" lon="1.443193405866623">
        <ele>2277.3699999999999</ele>
        <time>2025-07-17T13:48:50Z</time>
      </trkpt>
      <trkpt lat="42.579402504488826" lon="1.443322068080306">
        <ele>2277.96</ele>
        <time>2025-07-17T13:49:03Z</time>
      </trkpt>
      <trkpt lat="42.579383393749595" lon="1.443451484665275">
        <ele>2278.5300000000002</ele>
        <time>2025-07-17T13:49:17Z</time>
      </trkpt>
      <trkpt lat="42.579395212233067" lon="1.443571848794818">
        <ele>2279.04</ele>
        <time>2025-07-17T13:49:29Z</time>
      </trkpt>
      <trkpt lat="42.579416502267122" lon="1.443700091913343">
        <ele>2279.8699999999999</ele>
        <time>2025-07-17T13:49:42Z</time>
      </trkpt>
      <trkpt lat="42.579447766765952" lon="1.443810816854239">
        <ele>2280.3499999999999</ele>
        <time>2025-07-17T13:49:54Z</time>
      </trkpt>
      <trkpt lat="42.579466877505183" lon="1.443918943405151">
        <ele>2281.4400000000001</ele>
        <time>2025-07-17T13:50:08Z</time>
      </trkpt>
      <trkpt lat="42.579494537785649" lon="1.444033859297633">
        <ele>2282.9499999999998</ele>
        <time>2025-07-17T13:50:23Z</time>
      </trkpt>
      <trkpt lat="42.579500321298838" lon="1.444155061617494">
        <ele>2284.0599999999999</ele>
        <time>2025-07-17T13:50:41Z</time>
      </trkpt>
      <trkpt lat="42.579501494765282" lon="1.444279868155718">
        <ele>2283.4000000000001</ele>
        <time>2025-07-17T13:50:54Z</time>
      </trkpt>
      <trkpt lat="42.579496214166284" lon="1.444407943636179">
        <ele>2280.8499999999999</ele>
        <time>2025-07-17T13:51:08Z</time>
      </trkpt>
      <trkpt lat="42.579484730958939" lon="1.444526799023151">
        <ele>2278.8400000000001</ele>
        <time>2025-07-17T13:51:20Z</time>
      </trkpt>
      <trkpt lat="42.579480120912194" lon="1.444637523964047">
        <ele>2278.0999999999999</ele>
        <time>2025-07-17T13:51:30Z</time>
      </trkpt>
      <trkpt lat="42.579468050971627" lon="1.444761911407113">
        <ele>2278.0700000000002</ele>
        <time>2025-07-17T13:51:43Z</time>
      </trkpt>
      <trkpt lat="42.579449359327555" lon="1.444886215031147">
        <ele>2278.6599999999999</ele>
        <time>2025-07-17T13:52:00Z</time>
      </trkpt>
      <trkpt lat="42.579403258860111" lon="1.444997359067202">
        <ele>2279.23</ele>
        <time>2025-07-17T13:52:15Z</time>
      </trkpt>
      <trkpt lat="42.57937585003674" lon="1.445120992138982">
        <ele>2279.0500000000002</ele>
        <time>2025-07-17T13:52:25Z</time>
      </trkpt>
      <trkpt lat="42.579352548345923" lon="1.445248480886221">
        <ele>2278.2199999999998</ele>
        <time>2025-07-17T13:52:35Z</time>
      </trkpt>
      <trkpt lat="42.579336371272802" lon="1.445376137271524">
        <ele>2277.9899999999998</ele>
        <time>2025-07-17T13:52:50Z</time>
      </trkpt>
      <trkpt lat="42.579335365444422" lon="1.445503458380699">
        <ele>2275.9099999999999</ele>
        <time>2025-07-17T13:53:05Z</time>
      </trkpt>
      <trkpt lat="42.579299407079816" lon="1.445610076189041">
        <ele>2273.8600000000001</ele>
        <time>2025-07-17T13:53:18Z</time>
      </trkpt>
      <trkpt lat="42.579274429008365" lon="1.445740666240454">
        <ele>2271.8899999999999</ele>
        <time>2025-07-17T13:53:30Z</time>
      </trkpt>
      <trkpt lat="42.579245595261455" lon="1.445861114189029">
        <ele>2270.6100000000001</ele>
        <time>2025-07-17T13:53:45Z</time>
      </trkpt>
      <trkpt lat="42.579214749857783" lon="1.445982567965984">
        <ele>2269.2399999999998</ele>
        <time>2025-07-17T13:53:57Z</time>
      </trkpt>
      <trkpt lat="42.579173678532243" lon="1.446095472201705">
        <ele>2268.46</ele>
        <time>2025-07-17T13:54:08Z</time>
      </trkpt>
      <trkpt lat="42.579147946089506" lon="1.446208124980331">
        <ele>2266.3299999999999</ele>
        <time>2025-07-17T13:54:22Z</time>
      </trkpt>
      <trkpt lat="42.579132271930575" lon="1.446323376148939">
        <ele>2266.2600000000002</ele>
        <time>2025-07-17T13:54:35Z</time>
      </trkpt>
      <trkpt lat="42.579070664942265" lon="1.446411972865462">
        <ele>2266.8200000000002</ele>
        <time>2025-07-17T13:54:49Z</time>
      </trkpt>
      <trkpt lat="42.579006627202034" lon="1.446509454399347">
        <ele>2269.29</ele>
        <time>2025-07-17T13:55:14Z</time>
      </trkpt>
      <trkpt lat="42.578993383795023" lon="1.446634260937572">
        <ele>2270.1599999999999</ele>
        <time>2025-07-17T13:55:29Z</time>
      </trkpt>
      <trkpt lat="42.578994305804372" lon="1.446759151294828">
        <ele>2270.8600000000001</ele>
        <time>2025-07-17T13:55:45Z</time>
      </trkpt>
      <trkpt lat="42.579002100974321" lon="1.44687163643539">
        <ele>2272.3099999999999</ele>
        <time>2025-07-17T13:56:02Z</time>
      </trkpt>
      <trkpt lat="42.579008806496859" lon="1.446994598954916">
        <ele>2272.9899999999998</ele>
        <time>2025-07-17T13:56:17Z</time>
      </trkpt>
      <trkpt lat="42.579009477049112" lon="1.447131726890802">
        <ele>2271.6900000000001</ele>
        <time>2025-07-17T13:56:30Z</time>
      </trkpt>
      <trkpt lat="42.579009979963303" lon="1.447256784886122">
        <ele>2272.52</ele>
        <time>2025-07-17T13:56:46Z</time>
      </trkpt>
      <trkpt lat="42.578969327732921" lon="1.447381256148219">
        <ele>2273.4400000000001</ele>
        <time>2025-07-17T13:57:00Z</time>
      </trkpt>
      <trkpt lat="42.578933034092188" lon="1.447484437376261">
        <ele>2273.48</ele>
        <time>2025-07-17T13:57:11Z</time>
      </trkpt>
      <trkpt lat="42.578917192295194" lon="1.447607483714819">
        <ele>2273.27</ele>
        <time>2025-07-17T13:57:21Z</time>
      </trkpt>
      <trkpt lat="42.578889364376664" lon="1.44773555919528">
        <ele>2273.5799999999999</ele>
        <time>2025-07-17T13:57:32Z</time>
      </trkpt>
      <trkpt lat="42.578858938068151" lon="1.447852654382587">
        <ele>2273.71</ele>
        <time>2025-07-17T13:57:43Z</time>
      </trkpt>
      <trkpt lat="42.578854160383344" lon="1.447978718206286">
        <ele>2274.0500000000002</ele>
        <time>2025-07-17T13:57:53Z</time>
      </trkpt>
      <trkpt lat="42.5788529869169" lon="1.448099166154862">
        <ele>2274.9099999999999</ele>
        <time>2025-07-17T13:58:02Z</time>
      </trkpt>
      <trkpt lat="42.578856255859137" lon="1.448224224150181">
        <ele>2275.6900000000001</ele>
        <time>2025-07-17T13:58:14Z</time>
      </trkpt>
      <trkpt lat="42.578883664682508" lon="1.448339307680726">
        <ele>2275.3899999999999</ele>
        <time>2025-07-17T13:58:24Z</time>
      </trkpt>
      <trkpt lat="42.578902607783675" lon="1.448464700952172">
        <ele>2275.6399999999999</ele>
        <time>2025-07-17T13:58:36Z</time>
      </trkpt>
      <trkpt lat="42.578907972201705" lon="1.448598727583885">
        <ele>2275.21</ele>
        <time>2025-07-17T13:58:48Z</time>
      </trkpt>
      <trkpt lat="42.578894477337599" lon="1.448717499151826">
        <ele>2275.8200000000002</ele>
        <time>2025-07-17T13:59:24Z</time>
      </trkpt>
      <trkpt lat="42.578888526186347" lon="1.448852196335793">
        <ele>2276.8600000000001</ele>
        <time>2025-07-17T13:59:38Z</time>
      </trkpt>
      <trkpt lat="42.578882155939937" lon="1.448982786387205">
        <ele>2277.4299999999998</ele>
        <time>2025-07-17T13:59:49Z</time>
      </trkpt>
      <trkpt lat="42.578879641368985" lon="1.44910273142159">
        <ele>2276.8099999999999</ele>
        <time>2025-07-17T14:00:01Z</time>
      </trkpt>
      <trkpt lat="42.578894477337599" lon="1.449224352836609">
        <ele>2274.5100000000002</ele>
        <time>2025-07-17T14:00:19Z</time>
      </trkpt>
      <trkpt lat="42.578920796513557" lon="1.449337676167488">
        <ele>2273.3200000000002</ele>
        <time>2025-07-17T14:00:35Z</time>
      </trkpt>
    </trkseg>
  </trk>

  <trk>
    <name>6trek-pirenei-variante2025-07-18</name>
    <extensions>
      <gpxx:TrackExtension>
        <gpxx:DisplayColor>Red</gpxx:DisplayColor>
      </gpxx:TrackExtension>
      <gpxtrkx:TrackStatsExtension xmlns:gpxtrkx="http://www.garmin.com/xmlschemas/TrackStatsExtension/v1">
        <gpxtrkx:Distance>4177</gpxtrkx:Distance>
        <gpxtrkx:TotalElapsedTime>8038</gpxtrkx:TotalElapsedTime>
        <gpxtrkx:MovingTime>6045</gpxtrkx:MovingTime>
        <gpxtrkx:StoppedTime>1900</gpxtrkx:StoppedTime>
        <gpxtrkx:MovingSpeed>0.691</gpxtrkx:MovingSpeed>
        <gpxtrkx:MaxSpeed>1.852</gpxtrkx:MaxSpeed>
        <gpxtrkx:MaxElevation>2271.151</gpxtrkx:MaxElevation>
        <gpxtrkx:MinElevation>1551.312</gpxtrkx:MinElevation>
        <gpxtrkx:Ascent>20</gpxtrkx:Ascent>
        <gpxtrkx:Descent>736.28</gpxtrkx:Descent>
        <gpxtrkx:AvgAscentRate>0.034</gpxtrkx:AvgAscentRate>
        <gpxtrkx:MaxAscentRate>0.123</gpxtrkx:MaxAscentRate>
        <gpxtrkx:AvgDescentRate>0.103</gpxtrkx:AvgDescentRate>
        <gpxtrkx:MaxDescentRate>-0.276</gpxtrkx:MaxDescentRate>
      </gpxtrkx:TrackStatsExtension>
    </extensions>
    <trkseg>
      <trkpt lat="42.578913923352957" lon="1.449319738894701">
        <ele>2271.1500000000001</ele>
        <time>2025-07-18T05:59:20Z</time>
      </trkpt>
      <trkpt lat="42.578971674665809" lon="1.44923466257751">
        <ele>2266.3899999999999</ele>
        <time>2025-07-18T05:59:40Z</time>
      </trkpt>
      <trkpt lat="42.579020960256457" lon="1.449161320924759">
        <ele>2265.1300000000001</ele>
        <time>2025-07-18T05:59:57Z</time>
      </trkpt>
      <trkpt lat="42.579095223918557" lon="1.449089571833611">
        <ele>2263.4899999999998</ele>
        <time>2025-07-18T06:00:09Z</time>
      </trkpt>
      <trkpt lat="42.579161189496517" lon="1.449007093906403">
        <ele>2261.1799999999998</ele>
        <time>2025-07-18T06:00:21Z</time>
      </trkpt>
      <trkpt lat="42.579238135367632" lon="1.448945654556155">
        <ele>2258.4099999999999</ele>
        <time>2025-07-18T06:00:35Z</time>
      </trkpt>
      <trkpt lat="42.579253306612372" lon="1.448849765583873">
        <ele>2255.8000000000002</ele>
        <time>2025-07-18T06:00:53Z</time>
      </trkpt>
      <trkpt lat="42.579340813681483" lon="1.448827218264341">
        <ele>2252.52</ele>
        <time>2025-07-18T06:01:11Z</time>
      </trkpt>
      <trkpt lat="42.579419435933232" lon="1.448820009827614">
        <ele>2249.8299999999999</ele>
        <time>2025-07-18T06:01:28Z</time>
      </trkpt>
      <trkpt lat="42.579460591077805" lon="1.448709284886718">
        <ele>2246.4000000000001</ele>
        <time>2025-07-18T06:01:46Z</time>
      </trkpt>
      <trkpt lat="42.579474924132228" lon="1.448622280731797">
        <ele>2243.7800000000002</ele>
        <time>2025-07-18T06:02:02Z</time>
      </trkpt>
      <trkpt lat="42.579521192237735" lon="1.448583891615272">
        <ele>2241.8200000000002</ele>
        <time>2025-07-18T06:02:15Z</time>
      </trkpt>
      <trkpt lat="42.579595874994993" lon="1.448674164712429">
        <ele>2239.4400000000001</ele>
        <time>2025-07-18T06:02:28Z</time>
      </trkpt>
      <trkpt lat="42.579683214426041" lon="1.448711883276701">
        <ele>2237.2600000000002</ele>
        <time>2025-07-18T06:02:40Z</time>
      </trkpt>
      <trkpt lat="42.579774828627706" lon="1.448686067014933">
        <ele>2233.8899999999999</ele>
        <time>2025-07-18T06:02:55Z</time>
      </trkpt>
      <trkpt lat="42.579822018742561" lon="1.448635775595903">
        <ele>2231.6900000000001</ele>
        <time>2025-07-18T06:03:09Z</time>
      </trkpt>
      <trkpt lat="42.57990499958396" lon="1.448692604899406">
        <ele>2229.4499999999998</ele>
        <time>2025-07-18T06:03:22Z</time>
      </trkpt>
      <trkpt lat="42.579959817230701" lon="1.448793523013592">
        <ele>2227.71</ele>
        <time>2025-07-18T06:03:34Z</time>
      </trkpt>
      <trkpt lat="42.580005917698145" lon="1.448912965133786">
        <ele>2226.0500000000002</ele>
        <time>2025-07-18T06:03:51Z</time>
      </trkpt>
      <trkpt lat="42.580026872456074" lon="1.44903726875782">
        <ele>2226.27</ele>
        <time>2025-07-18T06:04:01Z</time>
      </trkpt>
      <trkpt lat="42.580038188025355" lon="1.449165679514408">
        <ele>2226.5100000000002</ele>
        <time>2025-07-18T06:04:12Z</time>
      </trkpt>
      <trkpt lat="42.580036092549562" lon="1.449291156604886">
        <ele>2225.7600000000002</ele>
        <time>2025-07-18T06:04:26Z</time>
      </trkpt>
      <trkpt lat="42.580031985417008" lon="1.449396433308721">
        <ele>2223.2800000000002</ele>
        <time>2025-07-18T06:04:44Z</time>
      </trkpt>
      <trkpt lat="42.580013461410999" lon="1.449496848508716">
        <ele>2220.5599999999999</ele>
        <time>2025-07-18T06:05:02Z</time>
      </trkpt>
      <trkpt lat="42.579998541623354" lon="1.449623163789511">
        <ele>2217.8099999999999</ele>
        <time>2025-07-18T06:05:17Z</time>
      </trkpt>
      <trkpt lat="42.580021340399981" lon="1.449738163501024">
        <ele>2214.77</ele>
        <time>2025-07-18T06:05:34Z</time>
      </trkpt>
      <trkpt lat="42.580034583806992" lon="1.44985324703157">
        <ele>2212.1799999999998</ele>
        <time>2025-07-18T06:05:49Z</time>
      </trkpt>
      <trkpt lat="42.580028045922518" lon="1.449970761314035">
        <ele>2209.27</ele>
        <time>2025-07-18T06:06:07Z</time>
      </trkpt>
      <trkpt lat="42.580036176368594" lon="1.450082743540406">
        <ele>2205.8200000000002</ele>
        <time>2025-07-18T06:06:26Z</time>
      </trkpt>
      <trkpt lat="42.580018239095807" lon="1.450179638341069">
        <ele>2203.1300000000001</ele>
        <time>2025-07-18T06:06:41Z</time>
      </trkpt>
      <trkpt lat="42.579982616007328" lon="1.450271587818861">
        <ele>2200.9200000000001</ele>
        <time>2025-07-18T06:06:55Z</time>
      </trkpt>
      <trkpt lat="42.579970797523856" lon="1.45039027556777">
        <ele>2197.9000000000001</ele>
        <time>2025-07-18T06:07:14Z</time>
      </trkpt>
      <trkpt lat="42.579981610178947" lon="1.450490355491638">
        <ele>2194.9400000000001</ele>
        <time>2025-07-18T06:07:32Z</time>
      </trkpt>
      <trkpt lat="42.579987645149231" lon="1.450573755428195">
        <ele>2192.0999999999999</ele>
        <time>2025-07-18T06:07:51Z</time>
      </trkpt>
      <trkpt lat="42.579927127808332" lon="1.450641062110663">
        <ele>2189.7399999999998</ele>
        <time>2025-07-18T06:08:06Z</time>
      </trkpt>
      <trkpt lat="42.579946322366595" lon="1.450734520331025">
        <ele>2186.8400000000001</ele>
        <time>2025-07-18T06:08:24Z</time>
      </trkpt>
      <trkpt lat="42.579932408407331" lon="1.45083786919713">
        <ele>2183.23</ele>
        <time>2025-07-18T06:08:43Z</time>
      </trkpt>
      <trkpt lat="42.579892259091139" lon="1.450887070968747">
        <ele>2180.5700000000002</ele>
        <time>2025-07-18T06:08:58Z</time>
      </trkpt>
      <trkpt lat="42.579918829724193" lon="1.450988324359059">
        <ele>2177.73</ele>
        <time>2025-07-18T06:09:17Z</time>
      </trkpt>
      <trkpt lat="42.579886978492141" lon="1.451053787022829">
        <ele>2174.96</ele>
        <time>2025-07-18T06:09:35Z</time>
      </trkpt>
      <trkpt lat="42.579896785318851" lon="1.451127463951707">
        <ele>2172.3899999999999</ele>
        <time>2025-07-18T06:09:53Z</time>
      </trkpt>
      <trkpt lat="42.579873064532876" lon="1.451186472550035">
        <ele>2168.3899999999999</ele>
        <time>2025-07-18T06:10:20Z</time>
      </trkpt>
      <trkpt lat="42.579885050654411" lon="1.451277500018477">
        <ele>2165.71</ele>
        <time>2025-07-18T06:10:40Z</time>
      </trkpt>
      <trkpt lat="42.579854791983962" lon="1.451350338757038">
        <ele>2162.46</ele>
        <time>2025-07-18T06:11:03Z</time>
      </trkpt>
      <trkpt lat="42.579792849719524" lon="1.451428038999438">
        <ele>2158.23</ele>
        <time>2025-07-18T06:11:29Z</time>
      </trkpt>
      <trkpt lat="42.579842638224363" lon="1.451495680958033">
        <ele>2156.4200000000001</ele>
        <time>2025-07-18T06:11:41Z</time>
      </trkpt>
      <trkpt lat="42.579781450331211" lon="1.451499620452523">
        <ele>2154.0300000000002</ele>
        <time>2025-07-18T06:11:56Z</time>
      </trkpt>
      <trkpt lat="42.57975697517395" lon="1.451590564101934">
        <ele>2150.2199999999998</ele>
        <time>2025-07-18T06:12:16Z</time>
      </trkpt>
      <trkpt lat="42.579801566898823" lon="1.4517115149647">
        <ele>2147.8699999999999</ele>
        <time>2025-07-18T06:12:30Z</time>
      </trkpt>
      <trkpt lat="42.579807685688138" lon="1.451838500797749">
        <ele>2146.1599999999999</ele>
        <time>2025-07-18T06:12:41Z</time>
      </trkpt>
      <trkpt lat="42.579737193882465" lon="1.451910836622119">
        <ele>2145.0100000000002</ele>
        <time>2025-07-18T06:12:55Z</time>
      </trkpt>
      <trkpt lat="42.579720597714186" lon="1.452010245993733">
        <ele>2144.0900000000001</ele>
        <time>2025-07-18T06:15:26Z</time>
      </trkpt>
      <trkpt lat="42.579778684303164" lon="1.452097501605749">
        <ele>2143.7399999999998</ele>
        <time>2025-07-18T06:15:36Z</time>
      </trkpt>
      <trkpt lat="42.579841045662761" lon="1.452184924855828">
        <ele>2143.25</ele>
        <time>2025-07-18T06:15:50Z</time>
      </trkpt>
      <trkpt lat="42.579873064532876" lon="1.452290872111917">
        <ele>2142.5999999999999</ele>
        <time>2025-07-18T06:16:04Z</time>
      </trkpt>
      <trkpt lat="42.579946490004659" lon="1.452370835468173">
        <ele>2140.8800000000001</ele>
        <time>2025-07-18T06:16:20Z</time>
      </trkpt>
      <trkpt lat="42.580020502209663" lon="1.452460186555982">
        <ele>2139.0799999999999</ele>
        <time>2025-07-18T06:16:34Z</time>
      </trkpt>
      <trkpt lat="42.580086719244719" lon="1.452538641169667">
        <ele>2137.4899999999998</ele>
        <time>2025-07-18T06:16:47Z</time>
      </trkpt>
      <trkpt lat="42.580151930451393" lon="1.452605277299881">
        <ele>2135.4699999999998</ele>
        <time>2025-07-18T06:17:00Z</time>
      </trkpt>
      <trkpt lat="42.580205155536532" lon="1.452694209292531">
        <ele>2133.8299999999999</ele>
        <time>2025-07-18T06:17:09Z</time>
      </trkpt>
      <trkpt lat="42.580222841352224" lon="1.45280946046114">
        <ele>2132.8699999999999</ele>
        <time>2025-07-18T06:17:21Z</time>
      </trkpt>
      <trkpt lat="42.580256788060069" lon="1.452924711629748">
        <ele>2130.6599999999999</ele>
        <time>2025-07-18T06:17:32Z</time>
      </trkpt>
      <trkpt lat="42.580285370349884" lon="1.453041387721896">
        <ele>2128.5700000000002</ele>
        <time>2025-07-18T06:17:44Z</time>
      </trkpt>
      <trkpt lat="42.58030716329813" lon="1.453153202310205">
        <ele>2126.3099999999999</ele>
        <time>2025-07-18T06:18:05Z</time>
      </trkpt>
      <trkpt lat="42.58031646721065" lon="1.453255042433739">
        <ele>2123.5</ele>
        <time>2025-07-18T06:18:21Z</time>
      </trkpt>
      <trkpt lat="42.580342199653387" lon="1.453350344672799">
        <ele>2120.0599999999999</ele>
        <time>2025-07-18T06:18:39Z</time>
      </trkpt>
      <trkpt lat="42.580349911004305" lon="1.453428464010358">
        <ele>2115.9400000000001</ele>
        <time>2025-07-18T06:19:01Z</time>
      </trkpt>
      <trkpt lat="42.580343959853053" lon="1.453542960807681">
        <ele>2112.3499999999999</ele>
        <time>2025-07-18T06:19:21Z</time>
      </trkpt>
      <trkpt lat="42.580367680639029" lon="1.453546565026045">
        <ele>2109.8200000000002</ele>
        <time>2025-07-18T06:19:39Z</time>
      </trkpt>
      <trkpt lat="42.580414535477757" lon="1.453598197549582">
        <ele>2106.77</ele>
        <time>2025-07-18T06:19:56Z</time>
      </trkpt>
      <trkpt lat="42.580405818298459" lon="1.45370414480567">
        <ele>2103.8899999999999</ele>
        <time>2025-07-18T06:20:38Z</time>
      </trkpt>
      <trkpt lat="42.580453846603632" lon="1.453698528930545">
        <ele>2100.5</ele>
        <time>2025-07-18T06:20:57Z</time>
      </trkpt>
      <trkpt lat="42.580523332580924" lon="1.453695259988308">
        <ele>2096.9200000000001</ele>
        <time>2025-07-18T06:21:13Z</time>
      </trkpt>
      <trkpt lat="42.58053389377892" lon="1.453806068748236">
        <ele>2093.5</ele>
        <time>2025-07-18T06:21:29Z</time>
      </trkpt>
      <trkpt lat="42.580551831051707" lon="1.453918889164925">
        <ele>2090.1799999999998</ele>
        <time>2025-07-18T06:21:44Z</time>
      </trkpt>
      <trkpt lat="42.5806022901088" lon="1.453998349606991">
        <ele>2085.5999999999999</ele>
        <time>2025-07-18T06:22:04Z</time>
      </trkpt>
      <trkpt lat="42.580649396404624" lon="1.454080911353231">
        <ele>2081.6300000000001</ele>
        <time>2025-07-18T06:22:27Z</time>
      </trkpt>
      <trkpt lat="42.580665741115808" lon="1.454190630465746">
        <ele>2078.98</ele>
        <time>2025-07-18T06:22:45Z</time>
      </trkpt>
      <trkpt lat="42.580722151324153" lon="1.454249722883105">
        <ele>2075.6500000000001</ele>
        <time>2025-07-18T06:23:07Z</time>
      </trkpt>
      <trkpt lat="42.580759115517139" lon="1.454329686239362">
        <ele>2072.3600000000001</ele>
        <time>2025-07-18T06:23:25Z</time>
      </trkpt>
      <trkpt lat="42.580793229863048" lon="1.454443093389273">
        <ele>2069.1900000000001</ele>
        <time>2025-07-18T06:23:42Z</time>
      </trkpt>
      <trkpt lat="42.580843437463045" lon="1.454530097544193">
        <ele>2066.1300000000001</ele>
        <time>2025-07-18T06:24:02Z</time>
      </trkpt>
      <trkpt lat="42.580862129107118" lon="1.454636296257377">
        <ele>2064.0500000000002</ele>
        <time>2025-07-18T06:24:13Z</time>
      </trkpt>
      <trkpt lat="42.580895991995931" lon="1.454751631245017">
        <ele>2061.1900000000001</ele>
        <time>2025-07-18T06:24:27Z</time>
      </trkpt>
      <trkpt lat="42.580927927047014" lon="1.454876605421305">
        <ele>2059.6300000000001</ele>
        <time>2025-07-18T06:24:36Z</time>
      </trkpt>
      <trkpt lat="42.580908061936498" lon="1.455002333968878">
        <ele>2058.9200000000001</ele>
        <time>2025-07-18T06:24:45Z</time>
      </trkpt>
      <trkpt lat="42.580919461324811" lon="1.455132002010942">
        <ele>2058.6900000000001</ele>
        <time>2025-07-18T06:24:56Z</time>
      </trkpt>
      <trkpt lat="42.58092968724668" lon="1.455249851569533">
        <ele>2057.73</ele>
        <time>2025-07-18T06:25:06Z</time>
      </trkpt>
      <trkpt lat="42.580981068313122" lon="1.455327216535807">
        <ele>2056.3800000000001</ele>
        <time>2025-07-18T06:25:18Z</time>
      </trkpt>
      <trkpt lat="42.581021636724472" lon="1.455440204590559">
        <ele>2054.0300000000002</ele>
        <time>2025-07-18T06:25:33Z</time>
      </trkpt>
      <trkpt lat="42.581036053597927" lon="1.455562831833959">
        <ele>2053.4400000000001</ele>
        <time>2025-07-18T06:25:43Z</time>
      </trkpt>
      <trkpt lat="42.580989953130484" lon="1.45566794089973">
        <ele>2053.3600000000001</ele>
        <time>2025-07-18T06:25:54Z</time>
      </trkpt>
      <trkpt lat="42.580994814634323" lon="1.455781431868672">
        <ele>2051.4200000000001</ele>
        <time>2025-07-18T06:26:11Z</time>
      </trkpt>
      <trkpt lat="42.581051979213953" lon="1.455841278657317">
        <ele>2049.27</ele>
        <time>2025-07-18T06:26:23Z</time>
      </trkpt>
      <trkpt lat="42.581127751618624" lon="1.455878913402557">
        <ele>2046.8199999999999</ele>
        <time>2025-07-18T06:26:42Z</time>
      </trkpt>
      <trkpt lat="42.581167733296752" lon="1.455953260883689">
        <ele>2044.3399999999999</ele>
        <time>2025-07-18T06:26:58Z</time>
      </trkpt>
      <trkpt lat="42.581155495718122" lon="1.456073876470327">
        <ele>2041.49</ele>
        <time>2025-07-18T06:27:15Z</time>
      </trkpt>
      <trkpt lat="42.581201680004597" lon="1.456190636381507">
        <ele>2038.9200000000001</ele>
        <time>2025-07-18T06:27:28Z</time>
      </trkpt>
      <trkpt lat="42.581186424940825" lon="1.456300439313054">
        <ele>2036.6600000000001</ele>
        <time>2025-07-18T06:27:42Z</time>
      </trkpt>
      <trkpt lat="42.581245601177216" lon="1.456389622762799">
        <ele>2033.8599999999999</ele>
        <time>2025-07-18T06:27:58Z</time>
      </trkpt>
      <trkpt lat="42.581260185688734" lon="1.456505125388503">
        <ele>2030.71</ele>
        <time>2025-07-18T06:28:12Z</time>
      </trkpt>
      <trkpt lat="42.581263035535812" lon="1.456620376557112">
        <ele>2028.3199999999999</ele>
        <time>2025-07-18T06:28:30Z</time>
      </trkpt>
      <trkpt lat="42.58130494505167" lon="1.456724982708693">
        <ele>2025.3099999999999</ele>
        <time>2025-07-18T06:28:46Z</time>
      </trkpt>
      <trkpt lat="42.581293126568198" lon="1.45684601739049">
        <ele>2022.1600000000001</ele>
        <time>2025-07-18T06:29:02Z</time>
      </trkpt>
      <trkpt lat="42.581276446580887" lon="1.456962358206511">
        <ele>2019.52</ele>
        <time>2025-07-18T06:29:18Z</time>
      </trkpt>
      <trkpt lat="42.581297401338816" lon="1.457072244957089">
        <ele>2016.0599999999999</ele>
        <time>2025-07-18T06:29:41Z</time>
      </trkpt>
      <trkpt lat="42.581311482936144" lon="1.457180539146066">
        <ele>2012.8299999999999</ele>
        <time>2025-07-18T06:30:01Z</time>
      </trkpt>
      <trkpt lat="42.581289438530803" lon="1.457274165004492">
        <ele>2009.8</ele>
        <time>2025-07-18T06:30:19Z</time>
      </trkpt>
      <trkpt lat="42.581272507086396" lon="1.457364354282618">
        <ele>2006.74</ele>
        <time>2025-07-18T06:30:38Z</time>
      </trkpt>
      <trkpt lat="42.58128977380693" lon="1.457475917413831">
        <ele>2003.3299999999999</ele>
        <time>2025-07-18T06:31:01Z</time>
      </trkpt>
      <trkpt lat="42.581276781857014" lon="1.457591000944376">
        <ele>2000.9400000000001</ele>
        <time>2025-07-18T06:31:15Z</time>
      </trkpt>
      <trkpt lat="42.581325229257345" lon="1.457659061998129">
        <ele>1997.8299999999999</ele>
        <time>2025-07-18T06:31:43Z</time>
      </trkpt>
      <trkpt lat="42.581393457949162" lon="1.457675825804472">
        <ele>1996.02</ele>
        <time>2025-07-18T06:31:56Z</time>
      </trkpt>
      <trkpt lat="42.581452215090394" lon="1.457767440006137">
        <ele>1993.5999999999999</ele>
        <time>2025-07-18T06:32:07Z</time>
      </trkpt>
      <trkpt lat="42.581465290859342" lon="1.457887049764395">
        <ele>1991.78</ele>
        <time>2025-07-18T06:32:19Z</time>
      </trkpt>
      <trkpt lat="42.581447353586555" lon="1.458013784140348">
        <ele>1990.5699999999999</ele>
        <time>2025-07-18T06:32:30Z</time>
      </trkpt>
      <trkpt lat="42.581437127664685" lon="1.45813942886889">
        <ele>1989.8199999999999</ele>
        <time>2025-07-18T06:32:42Z</time>
      </trkpt>
      <trkpt lat="42.581455567851663" lon="1.458249567076564">
        <ele>1988.1199999999999</ele>
        <time>2025-07-18T06:32:54Z</time>
      </trkpt>
      <trkpt lat="42.581453388556838" lon="1.458376217633486">
        <ele>1986.45</ele>
        <time>2025-07-18T06:33:05Z</time>
      </trkpt>
      <trkpt lat="42.581455735489726" lon="1.458496665582061">
        <ele>1985.2</ele>
        <time>2025-07-18T06:33:21Z</time>
      </trkpt>
      <trkpt lat="42.581495717167854" lon="1.458601774647832">
        <ele>1982.9000000000001</ele>
        <time>2025-07-18T06:33:34Z</time>
      </trkpt>
      <trkpt lat="42.581516169011593" lon="1.458714259788394">
        <ele>1979.77</ele>
        <time>2025-07-18T06:33:52Z</time>
      </trkpt>
      <trkpt lat="42.581546092405915" lon="1.458817692473531">
        <ele>1976.76</ele>
        <time>2025-07-18T06:34:09Z</time>
      </trkpt>
      <trkpt lat="42.5815624371171" lon="1.458921963348985">
        <ele>1973.9300000000001</ele>
        <time>2025-07-18T06:34:26Z</time>
      </trkpt>
      <trkpt lat="42.581563275307417" lon="1.459035621955991">
        <ele>1970.01</ele>
        <time>2025-07-18T06:34:46Z</time>
      </trkpt>
      <trkpt lat="42.58158540353179" lon="1.459140395745635">
        <ele>1966.8499999999999</ele>
        <time>2025-07-18T06:35:11Z</time>
      </trkpt>
      <trkpt lat="42.58164893835783" lon="1.459190100431442">
        <ele>1963.1099999999999</ele>
        <time>2025-07-18T06:35:31Z</time>
      </trkpt>
      <trkpt lat="42.581673413515091" lon="1.459298981353641">
        <ele>1961.3299999999999</ele>
        <time>2025-07-18T06:35:42Z</time>
      </trkpt>
      <trkpt lat="42.581670647487044" lon="1.459413897246122">
        <ele>1959.4200000000001</ele>
        <time>2025-07-18T06:35:52Z</time>
      </trkpt>
      <trkpt lat="42.581711383536458" lon="1.459527891129255">
        <ele>1957.9300000000001</ele>
        <time>2025-07-18T06:36:03Z</time>
      </trkpt>
      <trkpt lat="42.581710042431951" lon="1.459651608020067">
        <ele>1956.71</ele>
        <time>2025-07-18T06:36:14Z</time>
      </trkpt>
      <trkpt lat="42.581731583923101" lon="1.459764847531915">
        <ele>1953.9300000000001</ele>
        <time>2025-07-18T06:36:31Z</time>
      </trkpt>
      <trkpt lat="42.581764943897724" lon="1.459893509745598">
        <ele>1951.4000000000001</ele>
        <time>2025-07-18T06:36:47Z</time>
      </trkpt>
      <trkpt lat="42.581771900877357" lon="1.460016556084156">
        <ele>1948.46</ele>
        <time>2025-07-18T06:37:04Z</time>
      </trkpt>
      <trkpt lat="42.581805596128106" lon="1.460125017911196">
        <ele>1945.3199999999999</ele>
        <time>2025-07-18T06:37:18Z</time>
      </trkpt>
      <trkpt lat="42.581784473732114" lon="1.46024982444942">
        <ele>1942.95</ele>
        <time>2025-07-18T06:37:32Z</time>
      </trkpt>
      <trkpt lat="42.581736277788877" lon="1.460362980142236">
        <ele>1939.6700000000001</ele>
        <time>2025-07-18T06:37:47Z</time>
      </trkpt>
      <trkpt lat="42.581719513982534" lon="1.460481667891145">
        <ele>1936.6400000000001</ele>
        <time>2025-07-18T06:37:59Z</time>
      </trkpt>
      <trkpt lat="42.581703253090382" lon="1.460609240457416">
        <ele>1934.49</ele>
        <time>2025-07-18T06:38:10Z</time>
      </trkpt>
      <trkpt lat="42.581674503162503" lon="1.460720216855407">
        <ele>1933.79</ele>
        <time>2025-07-18T06:38:20Z</time>
      </trkpt>
      <trkpt lat="42.581672659143806" lon="1.460850303992629">
        <ele>1933.6500000000001</ele>
        <time>2025-07-18T06:38:32Z</time>
      </trkpt>
      <trkpt lat="42.581670898944139" lon="1.460978630930185">
        <ele>1933.3800000000001</ele>
        <time>2025-07-18T06:38:42Z</time>
      </trkpt>
      <trkpt lat="42.581690177321434" lon="1.461096648126841">
        <ele>1935.27</ele>
        <time>2025-07-18T06:38:55Z</time>
      </trkpt>
      <trkpt lat="42.581724962219596" lon="1.461212988942862">
        <ele>1934.6099999999999</ele>
        <time>2025-07-18T06:39:06Z</time>
      </trkpt>
      <trkpt lat="42.581743067130446" lon="1.461332011967897">
        <ele>1933.48</ele>
        <time>2025-07-18T06:39:17Z</time>
      </trkpt>
      <trkpt lat="42.581733344122767" lon="1.461453046649694">
        <ele>1934.8299999999999</ele>
        <time>2025-07-18T06:39:30Z</time>
      </trkpt>
      <trkpt lat="42.581713143736124" lon="1.461555808782578">
        <ele>1934.47</ele>
        <time>2025-07-18T06:39:40Z</time>
      </trkpt>
      <trkpt lat="42.581760250031948" lon="1.461668713018298">
        <ele>1934.1300000000001</ele>
        <time>2025-07-18T06:39:50Z</time>
      </trkpt>
      <trkpt lat="42.581771984696388" lon="1.461781449615955">
        <ele>1934.3900000000001</ele>
        <time>2025-07-18T06:40:01Z</time>
      </trkpt>
      <trkpt lat="42.581815822049975" lon="1.461895108222961">
        <ele>1933.03</ele>
        <time>2025-07-18T06:40:12Z</time>
      </trkpt>
      <trkpt lat="42.581857899203897" lon="1.462002228945494">
        <ele>1932.05</ele>
        <time>2025-07-18T06:40:21Z</time>
      </trkpt>
      <trkpt lat="42.581872316077352" lon="1.462088730186224">
        <ele>1931.02</ele>
        <time>2025-07-18T06:40:36Z</time>
      </trkpt>
      <trkpt lat="42.581936772912741" lon="1.462176907807589">
        <ele>1928.6400000000001</ele>
        <time>2025-07-18T06:40:55Z</time>
      </trkpt>
      <trkpt lat="42.581992093473673" lon="1.462259888648987">
        <ele>1926.48</ele>
        <time>2025-07-18T06:41:07Z</time>
      </trkpt>
      <trkpt lat="42.582032158970833" lon="1.462361561134458">
        <ele>1925.1900000000001</ele>
        <time>2025-07-18T06:41:17Z</time>
      </trkpt>
      <trkpt lat="42.582070296630263" lon="1.462473962455988">
        <ele>1923.74</ele>
        <time>2025-07-18T06:41:27Z</time>
      </trkpt>
      <trkpt lat="42.582091754302382" lon="1.462608659639955">
        <ele>1923.1600000000001</ele>
        <time>2025-07-18T06:41:39Z</time>
      </trkpt>
      <trkpt lat="42.58210189640522" lon="1.46273304708302">
        <ele>1923.77</ele>
        <time>2025-07-18T06:41:50Z</time>
      </trkpt>
      <trkpt lat="42.582097621634603" lon="1.462876293808222">
        <ele>1924.9300000000001</ele>
        <time>2025-07-18T06:42:03Z</time>
      </trkpt>
      <trkpt lat="42.582107344642282" lon="1.463001854717732">
        <ele>1923.1600000000001</ele>
        <time>2025-07-18T06:42:21Z</time>
      </trkpt>
      <trkpt lat="42.582128131762147" lon="1.463119285181165">
        <ele>1920.23</ele>
        <time>2025-07-18T06:42:42Z</time>
      </trkpt>
      <trkpt lat="42.582145482301712" lon="1.463202685117722">
        <ele>1916.8900000000001</ele>
        <time>2025-07-18T06:43:03Z</time>
      </trkpt>
      <trkpt lat="42.582127880305052" lon="1.463316343724728">
        <ele>1912.1500000000001</ele>
        <time>2025-07-18T06:43:29Z</time>
      </trkpt>
      <trkpt lat="42.582096280530095" lon="1.463424554094672">
        <ele>1908.27</ele>
        <time>2025-07-18T06:43:52Z</time>
      </trkpt>
      <trkpt lat="42.582104410976171" lon="1.463564867153764">
        <ele>1904.1800000000001</ele>
        <time>2025-07-18T06:44:16Z</time>
      </trkpt>
      <trkpt lat="42.582102147862315" lon="1.463688919320703">
        <ele>1899.9300000000001</ele>
        <time>2025-07-18T06:44:36Z</time>
      </trkpt>
      <trkpt lat="42.582030817866325" lon="1.463753543794155">
        <ele>1898.1600000000001</ele>
        <time>2025-07-18T06:46:49Z</time>
      </trkpt>
      <trkpt lat="42.582010282203555" lon="1.463841553777456">
        <ele>1896.6300000000001</ele>
        <time>2025-07-18T06:47:12Z</time>
      </trkpt>
      <trkpt lat="42.582027884200215" lon="1.463802326470614">
        <ele>1897.1900000000001</ele>
        <time>2025-07-18T06:47:30Z</time>
      </trkpt>
      <trkpt lat="42.582000978291035" lon="1.46393358707428">
        <ele>1894.98</ele>
        <time>2025-07-18T06:47:42Z</time>
      </trkpt>
      <trkpt lat="42.581921685487032" lon="1.464039869606495">
        <ele>1893.6300000000001</ele>
        <time>2025-07-18T06:47:57Z</time>
      </trkpt>
      <trkpt lat="42.581842476502061" lon="1.464134166017175">
        <ele>1891.48</ele>
        <time>2025-07-18T06:48:16Z</time>
      </trkpt>
      <trkpt lat="42.581834765151143" lon="1.464248243719339">
        <ele>1887.1800000000001</ele>
        <time>2025-07-18T06:48:35Z</time>
      </trkpt>
      <trkpt lat="42.581850104033947" lon="1.464382857084274">
        <ele>1882.7</ele>
        <time>2025-07-18T06:48:55Z</time>
      </trkpt>
      <trkpt lat="42.581923780962825" lon="1.464396435767412">
        <ele>1879.3399999999999</ele>
        <time>2025-07-18T06:49:13Z</time>
      </trkpt>
      <trkpt lat="42.58201246149838" lon="1.464352430775762">
        <ele>1876.6300000000001</ele>
        <time>2025-07-18T06:49:30Z</time>
      </trkpt>
      <trkpt lat="42.582090497016907" lon="1.464245226234198">
        <ele>1873.1600000000001</ele>
        <time>2025-07-18T06:49:47Z</time>
      </trkpt>
      <trkpt lat="42.582183787599206" lon="1.464161574840546">
        <ele>1869.8099999999999</ele>
        <time>2025-07-18T06:50:06Z</time>
      </trkpt>
      <trkpt lat="42.582271713763475" lon="1.464163921773434">
        <ele>1867.0999999999999</ele>
        <time>2025-07-18T06:50:26Z</time>
      </trkpt>
      <trkpt lat="42.582270707935095" lon="1.464281184598804">
        <ele>1863.9300000000001</ele>
        <time>2025-07-18T06:50:48Z</time>
      </trkpt>
      <trkpt lat="42.582279592752457" lon="1.464395597577095">
        <ele>1860.4000000000001</ele>
        <time>2025-07-18T06:51:10Z</time>
      </trkpt>
      <trkpt lat="42.582366764545441" lon="1.464427281171084">
        <ele>1856.9300000000001</ele>
        <time>2025-07-18T06:51:29Z</time>
      </trkpt>
      <trkpt lat="42.582401717081666" lon="1.464476315304637">
        <ele>1853.9300000000001</ele>
        <time>2025-07-18T06:51:44Z</time>
      </trkpt>
      <trkpt lat="42.582357125356793" lon="1.464572120457888">
        <ele>1850.2</ele>
        <time>2025-07-18T06:52:04Z</time>
      </trkpt>
      <trkpt lat="42.582330303266644" lon="1.464706733822823">
        <ele>1846.25</ele>
        <time>2025-07-18T06:52:24Z</time>
      </trkpt>
      <trkpt lat="42.582315970212221" lon="1.464825589209795">
        <ele>1842.5799999999999</ele>
        <time>2025-07-18T06:52:44Z</time>
      </trkpt>
      <trkpt lat="42.582384953275323" lon="1.464884178712964">
        <ele>1838.7</ele>
        <time>2025-07-18T06:53:07Z</time>
      </trkpt>
      <trkpt lat="42.58245712146163" lon="1.464759120717645">
        <ele>1835.55</ele>
        <time>2025-07-18T06:53:25Z</time>
      </trkpt>
      <trkpt lat="42.582543035969138" lon="1.46471930667758">
        <ele>1831.8</ele>
        <time>2025-07-18T06:53:47Z</time>
      </trkpt>
      <trkpt lat="42.582649234682322" lon="1.464820224791765">
        <ele>1827.8599999999999</ele>
        <time>2025-07-18T06:54:06Z</time>
      </trkpt>
      <trkpt lat="42.582698939368129" lon="1.464884011074901">
        <ele>1824.3900000000001</ele>
        <time>2025-07-18T06:54:27Z</time>
      </trkpt>
      <trkpt lat="42.582737160846591" lon="1.464859368279576">
        <ele>1821.2</ele>
        <time>2025-07-18T06:54:44Z</time>
      </trkpt>
      <trkpt lat="42.582767754793167" lon="1.464877892285585">
        <ele>1817.05</ele>
        <time>2025-07-18T06:55:08Z</time>
      </trkpt>
      <trkpt lat="42.582834307104349" lon="1.464963471516967">
        <ele>1813.7</ele>
        <time>2025-07-18T06:55:26Z</time>
      </trkpt>
      <trkpt lat="42.582852244377136" lon="1.465044189244509">
        <ele>1811.0599999999999</ele>
        <time>2025-07-18T06:55:41Z</time>
      </trkpt>
      <trkpt lat="42.582886442542076" lon="1.465150639414787">
        <ele>1808.48</ele>
        <time>2025-07-18T06:55:57Z</time>
      </trkpt>
      <trkpt lat="42.582951234653592" lon="1.465160446241498">
        <ele>1805.5699999999999</ele>
        <time>2025-07-18T06:56:33Z</time>
      </trkpt>
      <trkpt lat="42.582961292937398" lon="1.465065982192755">
        <ele>1803.6400000000001</ele>
        <time>2025-07-18T06:57:14Z</time>
      </trkpt>
      <trkpt lat="42.583028180524707" lon="1.465077884495258">
        <ele>1802.3199999999999</ele>
        <time>2025-07-18T06:58:19Z</time>
      </trkpt>
      <trkpt lat="42.583046369254589" lon="1.465080147609115">
        <ele>1801.6600000000001</ele>
        <time>2025-07-18T06:59:59Z</time>
      </trkpt>
      <trkpt lat="42.58305374532938" lon="1.465121218934655">
        <ele>1801.7</ele>
        <time>2025-07-18T07:01:30Z</time>
      </trkpt>
      <trkpt lat="42.582998592406511" lon="1.465083500370383">
        <ele>1801.03</ele>
        <time>2025-07-18T07:02:29Z</time>
      </trkpt>
      <trkpt lat="42.58296824991703" lon="1.465236134827137">
        <ele>1799.8499999999999</ele>
        <time>2025-07-18T07:02:45Z</time>
      </trkpt>
      <trkpt lat="42.583001861348748" lon="1.465354487299919">
        <ele>1796.8900000000001</ele>
        <time>2025-07-18T07:03:05Z</time>
      </trkpt>
      <trkpt lat="42.583002531901002" lon="1.465519778430462">
        <ele>1794.9000000000001</ele>
        <time>2025-07-18T07:03:28Z</time>
      </trkpt>
      <trkpt lat="42.582946037873626" lon="1.465656319633126">
        <ele>1794.8699999999999</ele>
        <time>2025-07-18T07:03:49Z</time>
      </trkpt>
      <trkpt lat="42.582943942397833" lon="1.465778360143304">
        <ele>1792.6500000000001</ele>
        <time>2025-07-18T07:04:07Z</time>
      </trkpt>
      <trkpt lat="42.582958526909351" lon="1.465870896354318">
        <ele>1789.8499999999999</ele>
        <time>2025-07-18T07:04:33Z</time>
      </trkpt>
      <trkpt lat="42.583035556599498" lon="1.465949015691876">
        <ele>1788.28</ele>
        <time>2025-07-18T07:05:00Z</time>
      </trkpt>
      <trkpt lat="42.582962131127715" lon="1.466096872463822">
        <ele>1788.29</ele>
        <time>2025-07-18T07:05:14Z</time>
      </trkpt>
      <trkpt lat="42.582887532189488" lon="1.466243471950293">
        <ele>1791.1700000000001</ele>
        <time>2025-07-18T07:05:32Z</time>
      </trkpt>
      <trkpt lat="42.582870265468955" lon="1.466415636241436">
        <ele>1790.49</ele>
        <time>2025-07-18T07:05:45Z</time>
      </trkpt>
      <trkpt lat="42.582859368994832" lon="1.466552931815386">
        <ele>1789.9400000000001</ele>
        <time>2025-07-18T07:06:00Z</time>
      </trkpt>
      <trkpt lat="42.58282751776278" lon="1.466709254309535">
        <ele>1788.29</ele>
        <time>2025-07-18T07:06:17Z</time>
      </trkpt>
      <trkpt lat="42.582808742299676" lon="1.466862224042416">
        <ele>1787.21</ele>
        <time>2025-07-18T07:06:33Z</time>
      </trkpt>
      <trkpt lat="42.582743782550097" lon="1.466990215703845">
        <ele>1784.3800000000001</ele>
        <time>2025-07-18T07:06:49Z</time>
      </trkpt>
      <trkpt lat="42.582744117826223" lon="1.467122146859765">
        <ele>1780.9000000000001</ele>
        <time>2025-07-18T07:07:07Z</time>
      </trkpt>
      <trkpt lat="42.582793151959777" lon="1.467188615351915">
        <ele>1776.8299999999999</ele>
        <time>2025-07-18T07:07:29Z</time>
      </trkpt>
      <trkpt lat="42.582814861088991" lon="1.467330688610673">
        <ele>1772.4100000000001</ele>
        <time>2025-07-18T07:07:49Z</time>
      </trkpt>
      <trkpt lat="42.582812597975135" lon="1.467462368309498">
        <ele>1769.3800000000001</ele>
        <time>2025-07-18T07:08:05Z</time>
      </trkpt>
      <trkpt lat="42.58285291492939" lon="1.467533279210329">
        <ele>1765.04</ele>
        <time>2025-07-18T07:08:24Z</time>
      </trkpt>
      <trkpt lat="42.582855261862278" lon="1.46762858144939">
        <ele>1760.7</ele>
        <time>2025-07-18T07:08:45Z</time>
      </trkpt>
      <trkpt lat="42.582946624606848" lon="1.467616511508822">
        <ele>1755.4300000000001</ele>
        <time>2025-07-18T07:09:10Z</time>
      </trkpt>
      <trkpt lat="42.58299364708364" lon="1.467745425179601">
        <ele>1751.5799999999999</ele>
        <time>2025-07-18T07:09:59Z</time>
      </trkpt>
      <trkpt lat="42.583046453073621" lon="1.467838631942868">
        <ele>1748.0699999999999</ele>
        <time>2025-07-18T07:10:19Z</time>
      </trkpt>
      <trkpt lat="42.583065899088979" lon="1.467944663017988">
        <ele>1744.5999999999999</ele>
        <time>2025-07-18T07:10:39Z</time>
      </trkpt>
      <trkpt lat="42.583149215206504" lon="1.467953212559223">
        <ele>1743.52</ele>
        <time>2025-07-18T07:10:58Z</time>
      </trkpt>
      <trkpt lat="42.583207972347736" lon="1.467874590307474">
        <ele>1741.24</ele>
        <time>2025-07-18T07:11:28Z</time>
      </trkpt>
      <trkpt lat="42.583194058388472" lon="1.467897640541196">
        <ele>1740.73</ele>
        <time>2025-07-18T07:12:02Z</time>
      </trkpt>
      <trkpt lat="42.58319447748363" lon="1.467835949733853">
        <ele>1741.0699999999999</ele>
        <time>2025-07-18T07:14:22Z</time>
      </trkpt>
      <trkpt lat="42.583193723112345" lon="1.467932090163231">
        <ele>1740.49</ele>
        <time>2025-07-18T07:14:51Z</time>
      </trkpt>
      <trkpt lat="42.58316220715642" lon="1.468055555596948">
        <ele>1740.8900000000001</ele>
        <time>2025-07-18T07:15:08Z</time>
      </trkpt>
      <trkpt lat="42.583128847181797" lon="1.468186816200614">
        <ele>1737.6199999999999</ele>
        <time>2025-07-18T07:15:28Z</time>
      </trkpt>
      <trkpt lat="42.583113759756088" lon="1.468358226120472">
        <ele>1735.9300000000001</ele>
        <time>2025-07-18T07:15:45Z</time>
      </trkpt>
      <trkpt lat="42.583063887432218" lon="1.468473980203271">
        <ele>1733.6900000000001</ele>
        <time>2025-07-18T07:16:04Z</time>
      </trkpt>
      <trkpt lat="42.583018289878964" lon="1.468564420938492">
        <ele>1729.27</ele>
        <time>2025-07-18T07:16:31Z</time>
      </trkpt>
      <trkpt lat="42.582998592406511" lon="1.468627536669374">
        <ele>1727.3900000000001</ele>
        <time>2025-07-18T07:16:57Z</time>
      </trkpt>
      <trkpt lat="42.582903457805514" lon="1.468702638521791">
        <ele>1725.27</ele>
        <time>2025-07-18T07:17:11Z</time>
      </trkpt>
      <trkpt lat="42.582824751734734" lon="1.468809759244323">
        <ele>1721.8800000000001</ele>
        <time>2025-07-18T07:17:27Z</time>
      </trkpt>
      <trkpt lat="42.582856267690659" lon="1.468836581334472">
        <ele>1718.78</ele>
        <time>2025-07-18T07:17:45Z</time>
      </trkpt>
      <trkpt lat="42.582948971539736" lon="1.468961052596569">
        <ele>1718.4300000000001</ele>
        <time>2025-07-18T07:18:01Z</time>
      </trkpt>
      <trkpt lat="42.582903457805514" lon="1.469058450311422">
        <ele>1718.1300000000001</ele>
        <time>2025-07-18T07:18:17Z</time>
      </trkpt>
      <trkpt lat="42.582842772826552" lon="1.4692098274827">
        <ele>1717.76</ele>
        <time>2025-07-18T07:18:35Z</time>
      </trkpt>
      <trkpt lat="42.582806898280978" lon="1.469377381727099">
        <ele>1716.2</ele>
        <time>2025-07-18T07:18:53Z</time>
      </trkpt>
      <trkpt lat="42.582792062312365" lon="1.469574356451631">
        <ele>1714.8099999999999</ele>
        <time>2025-07-18T07:19:10Z</time>
      </trkpt>
      <trkpt lat="42.582742525264621" lon="1.469764709472656">
        <ele>1712.97</ele>
        <time>2025-07-18T07:19:26Z</time>
      </trkpt>
      <trkpt lat="42.582687959074974" lon="1.469921786338091">
        <ele>1711.96</ele>
        <time>2025-07-18T07:19:39Z</time>
      </trkpt>
      <trkpt lat="42.582610845565796" lon="1.470025135204196">
        <ele>1709.98</ele>
        <time>2025-07-18T07:19:55Z</time>
      </trkpt>
      <trkpt lat="42.582503724843264" lon="1.470097722485662">
        <ele>1706.75</ele>
        <time>2025-07-18T07:20:14Z</time>
      </trkpt>
      <trkpt lat="42.582358634099364" lon="1.470210123807192">
        <ele>1704.4400000000001</ele>
        <time>2025-07-18T07:20:28Z</time>
      </trkpt>
      <trkpt lat="42.582254614681005" lon="1.470344318076968">
        <ele>1703.54</ele>
        <time>2025-07-18T07:20:39Z</time>
      </trkpt>
      <trkpt lat="42.582190241664648" lon="1.470465185120702">
        <ele>1702.1400000000001</ele>
        <time>2025-07-18T07:20:50Z</time>
      </trkpt>
      <trkpt lat="42.582138022407889" lon="1.47059602662921">
        <ele>1700.8900000000001</ele>
        <time>2025-07-18T07:21:02Z</time>
      </trkpt>
      <trkpt lat="42.582064513117075" lon="1.470721755176783">
        <ele>1698.5999999999999</ele>
        <time>2025-07-18T07:21:16Z</time>
      </trkpt>
      <trkpt lat="42.581964936107397" lon="1.47070893086493">
        <ele>1695.99</ele>
        <time>2025-07-18T07:21:35Z</time>
      </trkpt>
      <trkpt lat="42.581912633031607" lon="1.470592506229878">
        <ele>1694.5999999999999</ele>
        <time>2025-07-18T07:22:10Z</time>
      </trkpt>
      <trkpt lat="42.581872902810574" lon="1.47048513405025">
        <ele>1693.1199999999999</ele>
        <time>2025-07-18T07:22:28Z</time>
      </trkpt>
      <trkpt lat="42.581796711310744" lon="1.470456132665277">
        <ele>1692.23</ele>
        <time>2025-07-18T07:22:37Z</time>
      </trkpt>
      <trkpt lat="42.581701576709747" lon="1.470521092414856">
        <ele>1693.78</ele>
        <time>2025-07-18T07:22:54Z</time>
      </trkpt>
      <trkpt lat="42.581596383824944" lon="1.47057599388063">
        <ele>1694.1199999999999</ele>
        <time>2025-07-18T07:23:11Z</time>
      </trkpt>
      <trkpt lat="42.581489346921444" lon="1.470662746578455">
        <ele>1692.6199999999999</ele>
        <time>2025-07-18T07:23:26Z</time>
      </trkpt>
      <trkpt lat="42.581435367465019" lon="1.470757881179452">
        <ele>1689.4300000000001</ele>
        <time>2025-07-18T07:23:44Z</time>
      </trkpt>
      <trkpt lat="42.581363869830966" lon="1.470833653584123">
        <ele>1687.54</ele>
        <time>2025-07-18T07:23:59Z</time>
      </trkpt>
      <trkpt lat="42.581297652795911" lon="1.470918729901314">
        <ele>1685.53</ele>
        <time>2025-07-18T07:24:15Z</time>
      </trkpt>
      <trkpt lat="42.581223472952843" lon="1.470985366031528">
        <ele>1683.5999999999999</ele>
        <time>2025-07-18T07:24:27Z</time>
      </trkpt>
      <trkpt lat="42.581138396635652" lon="1.470990898087621">
        <ele>1684.74</ele>
        <time>2025-07-18T07:24:41Z</time>
      </trkpt>
      <trkpt lat="42.581119202077389" lon="1.471046470105648">
        <ele>1687.3599999999999</ele>
        <time>2025-07-18T07:25:00Z</time>
      </trkpt>
      <trkpt lat="42.581066731363535" lon="1.471116710454226">
        <ele>1688.04</ele>
        <time>2025-07-18T07:25:20Z</time>
      </trkpt>
      <trkpt lat="42.581019205972552" lon="1.471212515607476">
        <ele>1686.6800000000001</ele>
        <time>2025-07-18T07:25:32Z</time>
      </trkpt>
      <trkpt lat="42.580946115776896" lon="1.471289210021496">
        <ele>1687.1700000000001</ele>
        <time>2025-07-18T07:25:47Z</time>
      </trkpt>
      <trkpt lat="42.580870846286416" lon="1.47139105014503">
        <ele>1687.6600000000001</ele>
        <time>2025-07-18T07:26:03Z</time>
      </trkpt>
      <trkpt lat="42.580766994506121" lon="1.471476126462221">
        <ele>1686.5999999999999</ele>
        <time>2025-07-18T07:26:15Z</time>
      </trkpt>
      <trkpt lat="42.58072642609477" lon="1.471596239134669">
        <ele>1687.6500000000001</ele>
        <time>2025-07-18T07:26:30Z</time>
      </trkpt>
      <trkpt lat="42.580659287050366" lon="1.471727918833494">
        <ele>1689.0799999999999</ele>
        <time>2025-07-18T07:26:47Z</time>
      </trkpt>
      <trkpt lat="42.580617126077414" lon="1.471807546913624">
        <ele>1690.6099999999999</ele>
        <time>2025-07-18T07:27:07Z</time>
      </trkpt>
      <trkpt lat="42.580526852980256" lon="1.471902178600431">
        <ele>1689.3800000000001</ele>
        <time>2025-07-18T07:27:24Z</time>
      </trkpt>
      <trkpt lat="42.580421324819326" lon="1.471969401463866">
        <ele>1688.55</ele>
        <time>2025-07-18T07:27:40Z</time>
      </trkpt>
      <trkpt lat="42.580315796658397" lon="1.471955738961697">
        <ele>1686.99</ele>
        <time>2025-07-18T07:27:52Z</time>
      </trkpt>
      <trkpt lat="42.580247987061739" lon="1.472045006230474">
        <ele>1683.8399999999999</ele>
        <time>2025-07-18T07:28:10Z</time>
      </trkpt>
      <trkpt lat="42.58021286688745" lon="1.472146091982722">
        <ele>1679.51</ele>
        <time>2025-07-18T07:28:32Z</time>
      </trkpt>
      <trkpt lat="42.580206329002976" lon="1.472236700356007">
        <ele>1676.0999999999999</ele>
        <time>2025-07-18T07:28:50Z</time>
      </trkpt>
      <trkpt lat="42.580146230757236" lon="1.472350610420108">
        <ele>1673.05</ele>
        <time>2025-07-18T07:29:06Z</time>
      </trkpt>
      <trkpt lat="42.580078588798642" lon="1.472461586818099">
        <ele>1671.55</ele>
        <time>2025-07-18T07:29:19Z</time>
      </trkpt>
      <trkpt lat="42.580087305977941" lon="1.472616400569677">
        <ele>1669.22</ele>
        <time>2025-07-18T07:29:33Z</time>
      </trkpt>
      <trkpt lat="42.58004573173821" lon="1.472720922902226">
        <ele>1666.9100000000001</ele>
        <time>2025-07-18T07:29:47Z</time>
      </trkpt>
      <trkpt lat="42.579998206347227" lon="1.472810441628099">
        <ele>1665.04</ele>
        <time>2025-07-18T07:30:19Z</time>
      </trkpt>
      <trkpt lat="42.579961158335209" lon="1.472908342257142">
        <ele>1660.8499999999999</ele>
        <time>2025-07-18T07:30:38Z</time>
      </trkpt>
      <trkpt lat="42.579952357336879" lon="1.472998280078173">
        <ele>1657.1900000000001</ele>
        <time>2025-07-18T07:30:58Z</time>
      </trkpt>
      <trkpt lat="42.580000385642052" lon="1.473041111603379">
        <ele>1656.53</ele>
        <time>2025-07-18T07:31:28Z</time>
      </trkpt>
      <trkpt lat="42.58001740090549" lon="1.473074555397034">
        <ele>1655.22</ele>
        <time>2025-07-18T07:32:05Z</time>
      </trkpt>
      <trkpt lat="42.579959314316511" lon="1.473219813778997">
        <ele>1651.3</ele>
        <time>2025-07-18T07:32:23Z</time>
      </trkpt>
      <trkpt lat="42.579959481954575" lon="1.473350068554282">
        <ele>1648.22</ele>
        <time>2025-07-18T07:32:37Z</time>
      </trkpt>
      <trkpt lat="42.579884463921189" lon="1.47343841381371">
        <ele>1646.2</ele>
        <time>2025-07-18T07:32:50Z</time>
      </trkpt>
      <trkpt lat="42.579928804188967" lon="1.473515359684825">
        <ele>1643.46</ele>
        <time>2025-07-18T07:33:10Z</time>
      </trkpt>
      <trkpt lat="42.579889912158251" lon="1.473505217581987">
        <ele>1643.9300000000001</ele>
        <time>2025-07-18T07:33:50Z</time>
      </trkpt>
      <trkpt lat="42.579858144745231" lon="1.473542600870132">
        <ele>1643.4000000000001</ele>
        <time>2025-07-18T07:34:12Z</time>
      </trkpt>
      <trkpt lat="42.579872729256749" lon="1.473577888682485">
        <ele>1643.3900000000001</ele>
        <time>2025-07-18T07:34:48Z</time>
      </trkpt>
      <trkpt lat="42.579819420352578" lon="1.47374720312655">
        <ele>1642.6099999999999</ele>
        <time>2025-07-18T07:35:02Z</time>
      </trkpt>
      <trkpt lat="42.579798717051744" lon="1.473887348547578">
        <ele>1641.5599999999999</ele>
        <time>2025-07-18T07:35:11Z</time>
      </trkpt>
      <trkpt lat="42.579795280471444" lon="1.474019782617688">
        <ele>1640.6700000000001</ele>
        <time>2025-07-18T07:35:21Z</time>
      </trkpt>
      <trkpt lat="42.579777762293816" lon="1.474156742915511">
        <ele>1639.5799999999999</ele>
        <time>2025-07-18T07:35:31Z</time>
      </trkpt>
      <trkpt lat="42.579716155305505" lon="1.474255481734872">
        <ele>1638.47</ele>
        <time>2025-07-18T07:35:40Z</time>
      </trkpt>
      <trkpt lat="42.579681118950248" lon="1.474403087049723">
        <ele>1636.47</ele>
        <time>2025-07-18T07:35:51Z</time>
      </trkpt>
      <trkpt lat="42.579627642408013" lon="1.474528647959232">
        <ele>1635.6400000000001</ele>
        <time>2025-07-18T07:36:00Z</time>
      </trkpt>
      <trkpt lat="42.579577350988984" lon="1.47464188747108">
        <ele>1634.78</ele>
        <time>2025-07-18T07:36:09Z</time>
      </trkpt>
      <trkpt lat="42.579544829204679" lon="1.474747164174914">
        <ele>1633.6700000000001</ele>
        <time>2025-07-18T07:36:21Z</time>
      </trkpt>
      <trkpt lat="42.579445755109191" lon="1.474718665704131">
        <ele>1632.98</ele>
        <time>2025-07-18T07:36:48Z</time>
      </trkpt>
      <trkpt lat="42.57934601046145" lon="1.474692514166236">
        <ele>1632.4300000000001</ele>
        <time>2025-07-18T07:37:00Z</time>
      </trkpt>
      <trkpt lat="42.57924048230052" lon="1.474658818915486">
        <ele>1632.05</ele>
        <time>2025-07-18T07:37:12Z</time>
      </trkpt>
      <trkpt lat="42.579142581671476" lon="1.47465948946774">
        <ele>1632.49</ele>
        <time>2025-07-18T07:37:22Z</time>
      </trkpt>
      <trkpt lat="42.579027498140931" lon="1.474729981273413">
        <ele>1633.1500000000001</ele>
        <time>2025-07-18T07:37:34Z</time>
      </trkpt>
      <trkpt lat="42.578936889767647" lon="1.474815392866731">
        <ele>1633.78</ele>
        <time>2025-07-18T07:37:46Z</time>
      </trkpt>
      <trkpt lat="42.578881485387683" lon="1.474932739511132">
        <ele>1634.3699999999999</ele>
        <time>2025-07-18T07:37:57Z</time>
      </trkpt>
      <trkpt lat="42.578807305544615" lon="1.475051008164883">
        <ele>1635.0899999999999</ele>
        <time>2025-07-18T07:38:09Z</time>
      </trkpt>
      <trkpt lat="42.578749386593699" lon="1.475180005654693">
        <ele>1635.52</ele>
        <time>2025-07-18T07:38:23Z</time>
      </trkpt>
      <trkpt lat="42.578765396028757" lon="1.475297268480063">
        <ele>1633.28</ele>
        <time>2025-07-18T07:38:59Z</time>
      </trkpt>
      <trkpt lat="42.578770760446787" lon="1.475428780540824">
        <ele>1627.6199999999999</ele>
        <time>2025-07-18T07:39:23Z</time>
      </trkpt>
      <trkpt lat="42.578762462362647" lon="1.475566159933806">
        <ele>1626.3299999999999</ele>
        <time>2025-07-18T07:39:38Z</time>
      </trkpt>
      <trkpt lat="42.578709907829762" lon="1.475683841854334">
        <ele>1625.7</ele>
        <time>2025-07-18T07:39:58Z</time>
      </trkpt>
      <trkpt lat="42.578636147081852" lon="1.475816527381539">
        <ele>1624.1400000000001</ele>
        <time>2025-07-18T07:40:16Z</time>
      </trkpt>
      <trkpt lat="42.578566996380687" lon="1.475948626175523">
        <ele>1623.8499999999999</ele>
        <time>2025-07-18T07:40:27Z</time>
      </trkpt>
      <trkpt lat="42.578487535938621" lon="1.476045772433281">
        <ele>1623.9100000000001</ele>
        <time>2025-07-18T07:40:37Z</time>
      </trkpt>
      <trkpt lat="42.578402459621429" lon="1.476133530959487">
        <ele>1624.02</ele>
        <time>2025-07-18T07:40:50Z</time>
      </trkpt>
      <trkpt lat="42.578310761600733" lon="1.476211315020919">
        <ele>1622.05</ele>
        <time>2025-07-18T07:41:03Z</time>
      </trkpt>
      <trkpt lat="42.57821386680007" lon="1.476298654451966">
        <ele>1618.6099999999999</ele>
        <time>2025-07-18T07:41:21Z</time>
      </trkpt>
      <trkpt lat="42.578146811574697" lon="1.47644005715847">
        <ele>1615.9300000000001</ele>
        <time>2025-07-18T07:41:40Z</time>
      </trkpt>
      <trkpt lat="42.578073218464851" lon="1.476553631946445">
        <ele>1614.9400000000001</ele>
        <time>2025-07-18T07:41:53Z</time>
      </trkpt>
      <trkpt lat="42.578037595376372" lon="1.476696627214551">
        <ele>1612.71</ele>
        <time>2025-07-18T07:42:08Z</time>
      </trkpt>
      <trkpt lat="42.578069614246488" lon="1.476802239194512">
        <ele>1609.01</ele>
        <time>2025-07-18T07:42:34Z</time>
      </trkpt>
      <trkpt lat="42.578043546527624" lon="1.476932913064957">
        <ele>1605.8299999999999</ele>
        <time>2025-07-18T07:42:52Z</time>
      </trkpt>
      <trkpt lat="42.577996859326959" lon="1.477047242224217">
        <ele>1602.8499999999999</ele>
        <time>2025-07-18T07:43:11Z</time>
      </trkpt>
      <trkpt lat="42.578049078583717" lon="1.47711873985827">
        <ele>1598.8099999999999</ele>
        <time>2025-07-18T07:43:33Z</time>
      </trkpt>
      <trkpt lat="42.578047402203083" lon="1.477249246090651">
        <ele>1595.1900000000001</ele>
        <time>2025-07-18T07:43:50Z</time>
      </trkpt>
      <trkpt lat="42.578072883188725" lon="1.477335998788476">
        <ele>1590.9000000000001</ele>
        <time>2025-07-18T07:44:16Z</time>
      </trkpt>
      <trkpt lat="42.578145638108253" lon="1.477314373478293">
        <ele>1589.78</ele>
        <time>2025-07-18T07:44:41Z</time>
      </trkpt>
      <trkpt lat="42.57825979962945" lon="1.47725947201252">
        <ele>1588.3599999999999</ele>
        <time>2025-07-18T07:44:52Z</time>
      </trkpt>
      <trkpt lat="42.578357364982367" lon="1.477206330746412">
        <ele>1587.24</ele>
        <time>2025-07-18T07:45:02Z</time>
      </trkpt>
      <trkpt lat="42.578443698585033" lon="1.477134665474296">
        <ele>1585.98</ele>
        <time>2025-07-18T07:45:12Z</time>
      </trkpt>
      <trkpt lat="42.578533468768001" lon="1.47708454169333">
        <ele>1584.73</ele>
        <time>2025-07-18T07:45:22Z</time>
      </trkpt>
      <trkpt lat="42.578630866482854" lon="1.477065179497004">
        <ele>1583.5</ele>
        <time>2025-07-18T07:45:38Z</time>
      </trkpt>
      <trkpt lat="42.57872206158936" lon="1.477031651884317">
        <ele>1582.0899999999999</ele>
        <time>2025-07-18T07:45:49Z</time>
      </trkpt>
      <trkpt lat="42.578823147341609" lon="1.476978845894337">
        <ele>1579.9200000000001</ele>
        <time>2025-07-18T07:46:01Z</time>
      </trkpt>
      <trkpt lat="42.578909732401371" lon="1.476944899186492">
        <ele>1578.22</ele>
        <time>2025-07-18T07:46:11Z</time>
      </trkpt>
      <trkpt lat="42.579001178964972" lon="1.476921597495675">
        <ele>1576.8699999999999</ele>
        <time>2025-07-18T07:46:27Z</time>
      </trkpt>
      <trkpt lat="42.579078795388341" lon="1.476839287206531">
        <ele>1575.8800000000001</ele>
        <time>2025-07-18T07:46:43Z</time>
      </trkpt>
      <trkpt lat="42.578994808718562" lon="1.476778602227569">
        <ele>1575.29</ele>
        <time>2025-07-18T07:47:35Z</time>
      </trkpt>
      <trkpt lat="42.57882121950388" lon="1.476922603324056">
        <ele>1573.6099999999999</ele>
        <time>2025-07-18T07:47:58Z</time>
      </trkpt>
      <trkpt lat="42.578784674406052" lon="1.476971805095673">
        <ele>1572.6300000000001</ele>
        <time>2025-07-18T07:48:07Z</time>
      </trkpt>
      <trkpt lat="42.578784674406052" lon="1.476971805095673">
        <ele>1571.5599999999999</ele>
        <time>2025-07-18T07:48:15Z</time>
      </trkpt>
      <trkpt lat="42.578784674406052" lon="1.476971805095673">
        <ele>1570.76</ele>
        <time>2025-07-18T07:48:23Z</time>
      </trkpt>
      <trkpt lat="42.578784674406052" lon="1.476971805095673">
        <ele>1569.75</ele>
        <time>2025-07-18T07:48:31Z</time>
      </trkpt>
      <trkpt lat="42.578175645321608" lon="1.478651454672217">
        <ele>1559.8699999999999</ele>
        <time>2025-07-18T07:50:03Z</time>
      </trkpt>
      <trkpt lat="42.578162485733628" lon="1.478756815195084">
        <ele>1559.3399999999999</ele>
        <time>2025-07-18T07:50:12Z</time>
      </trkpt>
      <trkpt lat="42.57809417322278" lon="1.478798892349005">
        <ele>1559.01</ele>
        <time>2025-07-18T07:50:21Z</time>
      </trkpt>
      <trkpt lat="42.578006498515606" lon="1.478810627013445">
        <ele>1559.4200000000001</ele>
        <time>2025-07-18T07:50:30Z</time>
      </trkpt>
      <trkpt lat="42.577969366684556" lon="1.478758659213781">
        <ele>1558.6199999999999</ele>
        <time>2025-07-18T07:51:03Z</time>
      </trkpt>
      <trkpt lat="42.578016892075539" lon="1.478773495182395">
        <ele>1558.3900000000001</ele>
        <time>2025-07-18T07:52:10Z</time>
      </trkpt>
      <trkpt lat="42.577954446896911" lon="1.478712391108275">
        <ele>1558.0799999999999</ele>
        <time>2025-07-18T07:53:16Z</time>
      </trkpt>
      <trkpt lat="42.577978502959013" lon="1.47873560898006">
        <ele>1554.77</ele>
        <time>2025-07-18T08:03:36Z</time>
      </trkpt>
    </trkseg>
  </trk>

</gpx>